<?xml version="1.0" encoding="UTF-8" standalone="no" ?>
<gpx xmlns="http://www.topografix.com/GPX/1/1" xmlns:xsi="http://www.w3.org/2001/XMLSchema-instance" xsi:schemaLocation="http://www.topografix.com/GPX/1/1 http://www.topografix.com/GPX/1/1/gpx.xsd" version="1.1" creator="VisuGPX - https://www.visugpx.com">
  <metadata>
    <name>ski Mont Jovet 2558m</name>
  </metadata>
  <trk>
    <name><![CDATA[ski Mont Jovet 2558m]]></name>
    <trkseg>
      <trkpt lat="45.5134" lon="6.59835">
        <ele>1300.8000488281</ele>
        <time>2016-03-07T07:50:58.000Z</time>
      </trkpt>
      <trkpt lat="45.5134" lon="6.59835">
        <ele>1301.1999511719</ele>
        <time>2016-03-07T07:51:19.000Z</time>
      </trkpt>
      <trkpt lat="45.5134" lon="6.59835">
        <ele>1301.5999755859</ele>
        <time>2016-03-07T07:51:30.000Z</time>
      </trkpt>
      <trkpt lat="45.5134" lon="6.59835">
        <ele>1301</ele>
        <time>2016-03-07T07:51:41.000Z</time>
      </trkpt>
      <trkpt lat="45.51341" lon="6.59835">
        <ele>1301.1999511719</ele>
        <time>2016-03-07T07:51:50.000Z</time>
      </trkpt>
      <trkpt lat="45.51341" lon="6.59835">
        <ele>1301.1999511719</ele>
        <time>2016-03-07T07:52:00.000Z</time>
      </trkpt>
      <trkpt lat="45.51341" lon="6.59836">
        <ele>1301</ele>
        <time>2016-03-07T07:52:05.000Z</time>
      </trkpt>
      <trkpt lat="45.5134" lon="6.59836">
        <ele>1301</ele>
        <time>2016-03-07T07:52:15.000Z</time>
      </trkpt>
      <trkpt lat="45.5134" lon="6.59836">
        <ele>1301</ele>
        <time>2016-03-07T07:52:17.000Z</time>
      </trkpt>
      <trkpt lat="45.5134" lon="6.59836">
        <ele>1301</ele>
        <time>2016-03-07T07:52:25.000Z</time>
      </trkpt>
      <trkpt lat="45.51335" lon="6.59841">
        <ele>1301.1999511719</ele>
        <time>2016-03-07T07:52:31.000Z</time>
      </trkpt>
      <trkpt lat="45.51334" lon="6.59843">
        <ele>1301.1999511719</ele>
        <time>2016-03-07T07:52:32.000Z</time>
      </trkpt>
      <trkpt lat="45.5133" lon="6.59853">
        <ele>1301.4000244141</ele>
        <time>2016-03-07T07:52:40.000Z</time>
      </trkpt>
      <trkpt lat="45.5133" lon="6.59853">
        <ele>1301.4000244141</ele>
        <time>2016-03-07T07:52:49.000Z</time>
      </trkpt>
      <trkpt lat="45.51328" lon="6.59855">
        <ele>1301.4000244141</ele>
        <time>2016-03-07T07:53:00.000Z</time>
      </trkpt>
      <trkpt lat="45.51326" lon="6.59857">
        <ele>1301.5999755859</ele>
        <time>2016-03-07T07:53:05.000Z</time>
      </trkpt>
      <trkpt lat="45.51321" lon="6.59859">
        <ele>1301.5999755859</ele>
        <time>2016-03-07T07:53:10.000Z</time>
      </trkpt>
      <trkpt lat="45.5132" lon="6.59859">
        <ele>1301.8000488281</ele>
        <time>2016-03-07T07:53:12.000Z</time>
      </trkpt>
      <trkpt lat="45.51316" lon="6.5986">
        <ele>1302.1999511719</ele>
        <time>2016-03-07T07:53:16.000Z</time>
      </trkpt>
      <trkpt lat="45.5131" lon="6.59861">
        <ele>1302.5999755859</ele>
        <time>2016-03-07T07:53:20.000Z</time>
      </trkpt>
      <trkpt lat="45.51309" lon="6.59861">
        <ele>1302.8000488281</ele>
        <time>2016-03-07T07:53:21.000Z</time>
      </trkpt>
      <trkpt lat="45.51303" lon="6.59863">
        <ele>1303.1999511719</ele>
        <time>2016-03-07T07:53:26.000Z</time>
      </trkpt>
      <trkpt lat="45.51298" lon="6.59866">
        <ele>1303.8000488281</ele>
        <time>2016-03-07T07:53:31.000Z</time>
      </trkpt>
      <trkpt lat="45.51293" lon="6.59873">
        <ele>1304.1999511719</ele>
        <time>2016-03-07T07:53:37.000Z</time>
      </trkpt>
      <trkpt lat="45.51292" lon="6.59879">
        <ele>1304.8000488281</ele>
        <time>2016-03-07T07:53:41.000Z</time>
      </trkpt>
      <trkpt lat="45.51292" lon="6.5988">
        <ele>1304.8000488281</ele>
        <time>2016-03-07T07:53:42.000Z</time>
      </trkpt>
      <trkpt lat="45.51289" lon="6.5989">
        <ele>1305.1999511719</ele>
        <time>2016-03-07T07:53:47.000Z</time>
      </trkpt>
      <trkpt lat="45.5129" lon="6.599">
        <ele>1305.4000244141</ele>
        <time>2016-03-07T07:53:52.000Z</time>
      </trkpt>
      <trkpt lat="45.51291" lon="6.59908">
        <ele>1305.5999755859</ele>
        <time>2016-03-07T07:53:57.000Z</time>
      </trkpt>
      <trkpt lat="45.51292" lon="6.59911">
        <ele>1305.8000488281</ele>
        <time>2016-03-07T07:53:59.000Z</time>
      </trkpt>
      <trkpt lat="45.51293" lon="6.59915">
        <ele>1306</ele>
        <time>2016-03-07T07:54:02.000Z</time>
      </trkpt>
      <trkpt lat="45.51294" lon="6.59925">
        <ele>1306.5999755859</ele>
        <time>2016-03-07T07:54:08.000Z</time>
      </trkpt>
      <trkpt lat="45.51295" lon="6.59934">
        <ele>1307</ele>
        <time>2016-03-07T07:54:13.000Z</time>
      </trkpt>
      <trkpt lat="45.51294" lon="6.59945">
        <ele>1307.5999755859</ele>
        <time>2016-03-07T07:54:19.000Z</time>
      </trkpt>
      <trkpt lat="45.51292" lon="6.59952">
        <ele>1308</ele>
        <time>2016-03-07T07:54:24.000Z</time>
      </trkpt>
      <trkpt lat="45.51292" lon="6.59953">
        <ele>1308</ele>
        <time>2016-03-07T07:54:25.000Z</time>
      </trkpt>
      <trkpt lat="45.5129" lon="6.59962">
        <ele>1308.8000488281</ele>
        <time>2016-03-07T07:54:30.000Z</time>
      </trkpt>
      <trkpt lat="45.51289" lon="6.59964">
        <ele>1309</ele>
        <time>2016-03-07T07:54:32.000Z</time>
      </trkpt>
      <trkpt lat="45.51286" lon="6.5997">
        <ele>1309.4000244141</ele>
        <time>2016-03-07T07:54:36.000Z</time>
      </trkpt>
      <trkpt lat="45.51281" lon="6.5998">
        <ele>1310</ele>
        <time>2016-03-07T07:54:42.000Z</time>
      </trkpt>
      <trkpt lat="45.51277" lon="6.59986">
        <ele>1310.5999755859</ele>
        <time>2016-03-07T07:54:46.000Z</time>
      </trkpt>
      <trkpt lat="45.51276" lon="6.59987">
        <ele>1310.5999755859</ele>
        <time>2016-03-07T07:54:47.000Z</time>
      </trkpt>
      <trkpt lat="45.51272" lon="6.59993">
        <ele>1311.1999511719</ele>
        <time>2016-03-07T07:54:52.000Z</time>
      </trkpt>
      <trkpt lat="45.51271" lon="6.59994">
        <ele>1311.4000244141</ele>
        <time>2016-03-07T07:54:53.000Z</time>
      </trkpt>
      <trkpt lat="45.51265" lon="6.59998">
        <ele>1311.8000488281</ele>
        <time>2016-03-07T07:54:58.000Z</time>
      </trkpt>
      <trkpt lat="45.51257" lon="6.60004">
        <ele>1312.1999511719</ele>
        <time>2016-03-07T07:55:04.000Z</time>
      </trkpt>
      <trkpt lat="45.51251" lon="6.60008">
        <ele>1312.5999755859</ele>
        <time>2016-03-07T07:55:09.000Z</time>
      </trkpt>
      <trkpt lat="45.51246" lon="6.60011">
        <ele>1313.1999511719</ele>
        <time>2016-03-07T07:55:14.000Z</time>
      </trkpt>
      <trkpt lat="45.51246" lon="6.60011">
        <ele>1313.4000244141</ele>
        <time>2016-03-07T07:55:15.000Z</time>
      </trkpt>
      <trkpt lat="45.51242" lon="6.60013">
        <ele>1313.8000488281</ele>
        <time>2016-03-07T07:55:19.000Z</time>
      </trkpt>
      <trkpt lat="45.51235" lon="6.60017">
        <ele>1314.1999511719</ele>
        <time>2016-03-07T07:55:25.000Z</time>
      </trkpt>
      <trkpt lat="45.51234" lon="6.60017">
        <ele>1314.4000244141</ele>
        <time>2016-03-07T07:55:26.000Z</time>
      </trkpt>
      <trkpt lat="45.51228" lon="6.6002">
        <ele>1314.5999755859</ele>
        <time>2016-03-07T07:55:31.000Z</time>
      </trkpt>
      <trkpt lat="45.51222" lon="6.60024">
        <ele>1315.1999511719</ele>
        <time>2016-03-07T07:55:37.000Z</time>
      </trkpt>
      <trkpt lat="45.51218" lon="6.60025">
        <ele>1315.4000244141</ele>
        <time>2016-03-07T07:55:40.000Z</time>
      </trkpt>
      <trkpt lat="45.51214" lon="6.60027">
        <ele>1315.5999755859</ele>
        <time>2016-03-07T07:55:43.000Z</time>
      </trkpt>
      <trkpt lat="45.51207" lon="6.60029">
        <ele>1316</ele>
        <time>2016-03-07T07:55:48.000Z</time>
      </trkpt>
      <trkpt lat="45.51202" lon="6.60031">
        <ele>1316.4000244141</ele>
        <time>2016-03-07T07:55:52.000Z</time>
      </trkpt>
      <trkpt lat="45.512" lon="6.60032">
        <ele>1316.4000244141</ele>
        <time>2016-03-07T07:55:54.000Z</time>
      </trkpt>
      <trkpt lat="45.51197" lon="6.60034">
        <ele>1316.8000488281</ele>
        <time>2016-03-07T07:55:57.000Z</time>
      </trkpt>
      <trkpt lat="45.51189" lon="6.60038">
        <ele>1317.1999511719</ele>
        <time>2016-03-07T07:56:02.000Z</time>
      </trkpt>
      <trkpt lat="45.51188" lon="6.60039">
        <ele>1317.5999755859</ele>
        <time>2016-03-07T07:56:04.000Z</time>
      </trkpt>
      <trkpt lat="45.51185" lon="6.60043">
        <ele>1317.8000488281</ele>
        <time>2016-03-07T07:56:07.000Z</time>
      </trkpt>
      <trkpt lat="45.51181" lon="6.60047">
        <ele>1318.1999511719</ele>
        <time>2016-03-07T07:56:12.000Z</time>
      </trkpt>
      <trkpt lat="45.51178" lon="6.6005">
        <ele>1318.4000244141</ele>
        <time>2016-03-07T07:56:14.000Z</time>
      </trkpt>
      <trkpt lat="45.51177" lon="6.60053">
        <ele>1318.5999755859</ele>
        <time>2016-03-07T07:56:16.000Z</time>
      </trkpt>
      <trkpt lat="45.51176" lon="6.60054">
        <ele>1318.5999755859</ele>
        <time>2016-03-07T07:56:17.000Z</time>
      </trkpt>
      <trkpt lat="45.51172" lon="6.60061">
        <ele>1319.1999511719</ele>
        <time>2016-03-07T07:56:23.000Z</time>
      </trkpt>
      <trkpt lat="45.51169" lon="6.60065">
        <ele>1319.5999755859</ele>
        <time>2016-03-07T07:56:27.000Z</time>
      </trkpt>
      <trkpt lat="45.51167" lon="6.60067">
        <ele>1320</ele>
        <time>2016-03-07T07:56:29.000Z</time>
      </trkpt>
      <trkpt lat="45.51162" lon="6.60071">
        <ele>1320.4000244141</ele>
        <time>2016-03-07T07:56:34.000Z</time>
      </trkpt>
      <trkpt lat="45.5116" lon="6.60073">
        <ele>1320.5999755859</ele>
        <time>2016-03-07T07:56:36.000Z</time>
      </trkpt>
      <trkpt lat="45.51158" lon="6.60076">
        <ele>1321.1999511719</ele>
        <time>2016-03-07T07:56:39.000Z</time>
      </trkpt>
      <trkpt lat="45.51152" lon="6.60081">
        <ele>1321.5999755859</ele>
        <time>2016-03-07T07:56:44.000Z</time>
      </trkpt>
      <trkpt lat="45.5115" lon="6.60083">
        <ele>1321.8000488281</ele>
        <time>2016-03-07T07:56:45.000Z</time>
      </trkpt>
      <trkpt lat="45.51144" lon="6.60088">
        <ele>1322.1999511719</ele>
        <time>2016-03-07T07:56:50.000Z</time>
      </trkpt>
      <trkpt lat="45.51141" lon="6.6009">
        <ele>1322.8000488281</ele>
        <time>2016-03-07T07:56:53.000Z</time>
      </trkpt>
      <trkpt lat="45.51139" lon="6.6009">
        <ele>1323.1999511719</ele>
        <time>2016-03-07T07:56:55.000Z</time>
      </trkpt>
      <trkpt lat="45.51132" lon="6.60091">
        <ele>1323.8000488281</ele>
        <time>2016-03-07T07:57:00.000Z</time>
      </trkpt>
      <trkpt lat="45.51131" lon="6.60091">
        <ele>1324</ele>
        <time>2016-03-07T07:57:01.000Z</time>
      </trkpt>
      <trkpt lat="45.51127" lon="6.60094">
        <ele>1324.4000244141</ele>
        <time>2016-03-07T07:57:05.000Z</time>
      </trkpt>
      <trkpt lat="45.51122" lon="6.60095">
        <ele>1325</ele>
        <time>2016-03-07T07:57:09.000Z</time>
      </trkpt>
      <trkpt lat="45.5112" lon="6.60096">
        <ele>1325.1999511719</ele>
        <time>2016-03-07T07:57:11.000Z</time>
      </trkpt>
      <trkpt lat="45.51115" lon="6.60096">
        <ele>1326</ele>
        <time>2016-03-07T07:57:16.000Z</time>
      </trkpt>
      <trkpt lat="45.51114" lon="6.60096">
        <ele>1326.1999511719</ele>
        <time>2016-03-07T07:57:17.000Z</time>
      </trkpt>
      <trkpt lat="45.51107" lon="6.60095">
        <ele>1327</ele>
        <time>2016-03-07T07:57:24.000Z</time>
      </trkpt>
      <trkpt lat="45.511" lon="6.60093">
        <ele>1327.8000488281</ele>
        <time>2016-03-07T07:57:32.000Z</time>
      </trkpt>
      <trkpt lat="45.51095" lon="6.60093">
        <ele>1328.1999511719</ele>
        <time>2016-03-07T07:57:39.000Z</time>
      </trkpt>
      <trkpt lat="45.51094" lon="6.60094">
        <ele>1328.1999511719</ele>
        <time>2016-03-07T07:57:40.000Z</time>
      </trkpt>
      <trkpt lat="45.51089" lon="6.60092">
        <ele>1329</ele>
        <time>2016-03-07T07:57:47.000Z</time>
      </trkpt>
      <trkpt lat="45.51088" lon="6.60092">
        <ele>1329.1999511719</ele>
        <time>2016-03-07T07:57:49.000Z</time>
      </trkpt>
      <trkpt lat="45.51081" lon="6.60093">
        <ele>1329.8000488281</ele>
        <time>2016-03-07T07:57:57.000Z</time>
      </trkpt>
      <trkpt lat="45.51077" lon="6.60093">
        <ele>1330.1999511719</ele>
        <time>2016-03-07T07:58:03.000Z</time>
      </trkpt>
      <trkpt lat="45.51073" lon="6.60091">
        <ele>1330.4000244141</ele>
        <time>2016-03-07T07:58:06.000Z</time>
      </trkpt>
      <trkpt lat="45.51065" lon="6.60084">
        <ele>1331.1999511719</ele>
        <time>2016-03-07T07:58:13.000Z</time>
      </trkpt>
      <trkpt lat="45.51063" lon="6.60081">
        <ele>1331.4000244141</ele>
        <time>2016-03-07T07:58:15.000Z</time>
      </trkpt>
      <trkpt lat="45.51053" lon="6.60072">
        <ele>1332.4000244141</ele>
        <time>2016-03-07T07:58:23.000Z</time>
      </trkpt>
      <trkpt lat="45.51047" lon="6.60068">
        <ele>1333</ele>
        <time>2016-03-07T07:58:28.000Z</time>
      </trkpt>
      <trkpt lat="45.51046" lon="6.60067">
        <ele>1333.4000244141</ele>
        <time>2016-03-07T07:58:29.000Z</time>
      </trkpt>
      <trkpt lat="45.51044" lon="6.60065">
        <ele>1333.4000244141</ele>
        <time>2016-03-07T07:58:30.000Z</time>
      </trkpt>
      <trkpt lat="45.51039" lon="6.60063">
        <ele>1334</ele>
        <time>2016-03-07T07:58:34.000Z</time>
      </trkpt>
      <trkpt lat="45.51034" lon="6.6006">
        <ele>1334.5999755859</ele>
        <time>2016-03-07T07:58:39.000Z</time>
      </trkpt>
      <trkpt lat="45.51033" lon="6.6006">
        <ele>1334.8000488281</ele>
        <time>2016-03-07T07:58:40.000Z</time>
      </trkpt>
      <trkpt lat="45.51024" lon="6.60057">
        <ele>1335.5999755859</ele>
        <time>2016-03-07T07:58:48.000Z</time>
      </trkpt>
      <trkpt lat="45.51015" lon="6.60048">
        <ele>1336.5999755859</ele>
        <time>2016-03-07T07:58:56.000Z</time>
      </trkpt>
      <trkpt lat="45.51007" lon="6.60041">
        <ele>1337.8000488281</ele>
        <time>2016-03-07T07:59:04.000Z</time>
      </trkpt>
      <trkpt lat="45.51005" lon="6.6004">
        <ele>1337.8000488281</ele>
        <time>2016-03-07T07:59:05.000Z</time>
      </trkpt>
      <trkpt lat="45.50996" lon="6.60035">
        <ele>1338.8000488281</ele>
        <time>2016-03-07T07:59:13.000Z</time>
      </trkpt>
      <trkpt lat="45.50986" lon="6.60029">
        <ele>1339.8000488281</ele>
        <time>2016-03-07T07:59:20.000Z</time>
      </trkpt>
      <trkpt lat="45.50984" lon="6.60028">
        <ele>1339.8000488281</ele>
        <time>2016-03-07T07:59:22.000Z</time>
      </trkpt>
      <trkpt lat="45.50977" lon="6.60024">
        <ele>1340.5999755859</ele>
        <time>2016-03-07T07:59:28.000Z</time>
      </trkpt>
      <trkpt lat="45.50974" lon="6.60022">
        <ele>1341</ele>
        <time>2016-03-07T07:59:31.000Z</time>
      </trkpt>
      <trkpt lat="45.50969" lon="6.60019">
        <ele>1341.4000244141</ele>
        <time>2016-03-07T07:59:37.000Z</time>
      </trkpt>
      <trkpt lat="45.50963" lon="6.60015">
        <ele>1342</ele>
        <time>2016-03-07T07:59:42.000Z</time>
      </trkpt>
      <trkpt lat="45.5096" lon="6.60013">
        <ele>1342.1999511719</ele>
        <time>2016-03-07T07:59:45.000Z</time>
      </trkpt>
      <trkpt lat="45.50959" lon="6.60012">
        <ele>1342.4000244141</ele>
        <time>2016-03-07T07:59:46.000Z</time>
      </trkpt>
      <trkpt lat="45.50953" lon="6.60009">
        <ele>1343.1999511719</ele>
        <time>2016-03-07T07:59:50.000Z</time>
      </trkpt>
      <trkpt lat="45.50952" lon="6.60008">
        <ele>1343.4000244141</ele>
        <time>2016-03-07T07:59:51.000Z</time>
      </trkpt>
      <trkpt lat="45.50944" lon="6.60003">
        <ele>1344.4000244141</ele>
        <time>2016-03-07T07:59:58.000Z</time>
      </trkpt>
      <trkpt lat="45.50937" lon="6.59994">
        <ele>1345</ele>
        <time>2016-03-07T08:00:06.000Z</time>
      </trkpt>
      <trkpt lat="45.50933" lon="6.59986">
        <ele>1345.1999511719</ele>
        <time>2016-03-07T08:00:13.000Z</time>
      </trkpt>
      <trkpt lat="45.50932" lon="6.59982">
        <ele>1345.4000244141</ele>
        <time>2016-03-07T08:00:15.000Z</time>
      </trkpt>
      <trkpt lat="45.50928" lon="6.59974">
        <ele>1345.8000488281</ele>
        <time>2016-03-07T08:00:20.000Z</time>
      </trkpt>
      <trkpt lat="45.50926" lon="6.59965">
        <ele>1346.1999511719</ele>
        <time>2016-03-07T08:00:25.000Z</time>
      </trkpt>
      <trkpt lat="45.50924" lon="6.59959">
        <ele>1346.5999755859</ele>
        <time>2016-03-07T08:00:28.000Z</time>
      </trkpt>
      <trkpt lat="45.50923" lon="6.59956">
        <ele>1347</ele>
        <time>2016-03-07T08:00:30.000Z</time>
      </trkpt>
      <trkpt lat="45.50919" lon="6.59943">
        <ele>1347.4000244141</ele>
        <time>2016-03-07T08:00:37.000Z</time>
      </trkpt>
      <trkpt lat="45.50918" lon="6.59937">
        <ele>1347.5999755859</ele>
        <time>2016-03-07T08:00:40.000Z</time>
      </trkpt>
      <trkpt lat="45.50916" lon="6.59934">
        <ele>1347.8000488281</ele>
        <time>2016-03-07T08:00:42.000Z</time>
      </trkpt>
      <trkpt lat="45.50913" lon="6.59925">
        <ele>1348.1999511719</ele>
        <time>2016-03-07T08:00:48.000Z</time>
      </trkpt>
      <trkpt lat="45.50911" lon="6.59919">
        <ele>1348.5999755859</ele>
        <time>2016-03-07T08:00:51.000Z</time>
      </trkpt>
      <trkpt lat="45.5091" lon="6.59913">
        <ele>1348.8000488281</ele>
        <time>2016-03-07T08:00:54.000Z</time>
      </trkpt>
      <trkpt lat="45.50907" lon="6.59903">
        <ele>1349.1999511719</ele>
        <time>2016-03-07T08:00:59.000Z</time>
      </trkpt>
      <trkpt lat="45.50905" lon="6.59894">
        <ele>1349.8000488281</ele>
        <time>2016-03-07T08:01:04.000Z</time>
      </trkpt>
      <trkpt lat="45.50904" lon="6.59893">
        <ele>1349.8000488281</ele>
        <time>2016-03-07T08:01:05.000Z</time>
      </trkpt>
      <trkpt lat="45.50902" lon="6.59885">
        <ele>1350.4000244141</ele>
        <time>2016-03-07T08:01:10.000Z</time>
      </trkpt>
      <trkpt lat="45.50899" lon="6.59878">
        <ele>1350.8000488281</ele>
        <time>2016-03-07T08:01:14.000Z</time>
      </trkpt>
      <trkpt lat="45.50899" lon="6.59877">
        <ele>1350.8000488281</ele>
        <time>2016-03-07T08:01:15.000Z</time>
      </trkpt>
      <trkpt lat="45.50896" lon="6.5987">
        <ele>1351.1999511719</ele>
        <time>2016-03-07T08:01:20.000Z</time>
      </trkpt>
      <trkpt lat="45.50889" lon="6.59862">
        <ele>1351.8000488281</ele>
        <time>2016-03-07T08:01:26.000Z</time>
      </trkpt>
      <trkpt lat="45.50884" lon="6.59862">
        <ele>1352.8000488281</ele>
        <time>2016-03-07T08:01:32.000Z</time>
      </trkpt>
      <trkpt lat="45.50882" lon="6.59861">
        <ele>1353</ele>
        <time>2016-03-07T08:01:33.000Z</time>
      </trkpt>
      <trkpt lat="45.50877" lon="6.59857">
        <ele>1354</ele>
        <time>2016-03-07T08:01:37.000Z</time>
      </trkpt>
      <trkpt lat="45.50876" lon="6.59857">
        <ele>1354.1999511719</ele>
        <time>2016-03-07T08:01:38.000Z</time>
      </trkpt>
      <trkpt lat="45.50873" lon="6.59855">
        <ele>1354.8000488281</ele>
        <time>2016-03-07T08:01:41.000Z</time>
      </trkpt>
      <trkpt lat="45.50871" lon="6.59853">
        <ele>1355.4000244141</ele>
        <time>2016-03-07T08:01:43.000Z</time>
      </trkpt>
      <trkpt lat="45.50865" lon="6.59849">
        <ele>1356.4000244141</ele>
        <time>2016-03-07T08:01:48.000Z</time>
      </trkpt>
      <trkpt lat="45.50863" lon="6.59848">
        <ele>1356.5999755859</ele>
        <time>2016-03-07T08:01:50.000Z</time>
      </trkpt>
      <trkpt lat="45.50857" lon="6.59843">
        <ele>1357.4000244141</ele>
        <time>2016-03-07T08:01:56.000Z</time>
      </trkpt>
      <trkpt lat="45.50853" lon="6.59843">
        <ele>1358.4000244141</ele>
        <time>2016-03-07T08:02:01.000Z</time>
      </trkpt>
      <trkpt lat="45.50852" lon="6.59843">
        <ele>1358.5999755859</ele>
        <time>2016-03-07T08:02:02.000Z</time>
      </trkpt>
      <trkpt lat="45.50847" lon="6.59841">
        <ele>1359.5999755859</ele>
        <time>2016-03-07T08:02:07.000Z</time>
      </trkpt>
      <trkpt lat="45.50846" lon="6.59841">
        <ele>1359.8000488281</ele>
        <time>2016-03-07T08:02:08.000Z</time>
      </trkpt>
      <trkpt lat="45.50841" lon="6.5984">
        <ele>1360.8000488281</ele>
        <time>2016-03-07T08:02:13.000Z</time>
      </trkpt>
      <trkpt lat="45.50839" lon="6.5984">
        <ele>1361.1999511719</ele>
        <time>2016-03-07T08:02:15.000Z</time>
      </trkpt>
      <trkpt lat="45.50835" lon="6.5984">
        <ele>1362</ele>
        <time>2016-03-07T08:02:19.000Z</time>
      </trkpt>
      <trkpt lat="45.50832" lon="6.5984">
        <ele>1362.4000244141</ele>
        <time>2016-03-07T08:02:22.000Z</time>
      </trkpt>
      <trkpt lat="45.5083" lon="6.5984">
        <ele>1363</ele>
        <time>2016-03-07T08:02:26.000Z</time>
      </trkpt>
      <trkpt lat="45.5083" lon="6.5984">
        <ele>1363.1999511719</ele>
        <time>2016-03-07T08:02:28.000Z</time>
      </trkpt>
      <trkpt lat="45.50827" lon="6.5984">
        <ele>1363.5999755859</ele>
        <time>2016-03-07T08:02:35.000Z</time>
      </trkpt>
      <trkpt lat="45.50824" lon="6.59839">
        <ele>1364.1999511719</ele>
        <time>2016-03-07T08:02:38.000Z</time>
      </trkpt>
      <trkpt lat="45.50822" lon="6.59839">
        <ele>1365</ele>
        <time>2016-03-07T08:02:41.000Z</time>
      </trkpt>
      <trkpt lat="45.5082" lon="6.59839">
        <ele>1365.4000244141</ele>
        <time>2016-03-07T08:02:42.000Z</time>
      </trkpt>
      <trkpt lat="45.50818" lon="6.59841">
        <ele>1366.4000244141</ele>
        <time>2016-03-07T08:02:45.000Z</time>
      </trkpt>
      <trkpt lat="45.50816" lon="6.59841">
        <ele>1367</ele>
        <time>2016-03-07T08:02:47.000Z</time>
      </trkpt>
      <trkpt lat="45.50814" lon="6.59842">
        <ele>1367.5999755859</ele>
        <time>2016-03-07T08:02:49.000Z</time>
      </trkpt>
      <trkpt lat="45.50813" lon="6.59841">
        <ele>1369</ele>
        <time>2016-03-07T08:02:53.000Z</time>
      </trkpt>
      <trkpt lat="45.50813" lon="6.59841">
        <ele>1369.1999511719</ele>
        <time>2016-03-07T08:02:54.000Z</time>
      </trkpt>
      <trkpt lat="45.50808" lon="6.59841">
        <ele>1370.1999511719</ele>
        <time>2016-03-07T08:02:58.000Z</time>
      </trkpt>
      <trkpt lat="45.50808" lon="6.59841">
        <ele>1370.5999755859</ele>
        <time>2016-03-07T08:03:00.000Z</time>
      </trkpt>
      <trkpt lat="45.50806" lon="6.59841">
        <ele>1371</ele>
        <time>2016-03-07T08:03:07.000Z</time>
      </trkpt>
      <trkpt lat="45.50804" lon="6.59842">
        <ele>1371.1999511719</ele>
        <time>2016-03-07T08:03:09.000Z</time>
      </trkpt>
      <trkpt lat="45.50801" lon="6.59843">
        <ele>1372</ele>
        <time>2016-03-07T08:03:12.000Z</time>
      </trkpt>
      <trkpt lat="45.508" lon="6.59843">
        <ele>1372.1999511719</ele>
        <time>2016-03-07T08:03:13.000Z</time>
      </trkpt>
      <trkpt lat="45.50798" lon="6.59843">
        <ele>1373.4000244141</ele>
        <time>2016-03-07T08:03:17.000Z</time>
      </trkpt>
      <trkpt lat="45.50797" lon="6.59843">
        <ele>1373.5999755859</ele>
        <time>2016-03-07T08:03:18.000Z</time>
      </trkpt>
      <trkpt lat="45.50793" lon="6.59842">
        <ele>1374.5999755859</ele>
        <time>2016-03-07T08:03:22.000Z</time>
      </trkpt>
      <trkpt lat="45.50792" lon="6.59841">
        <ele>1375.1999511719</ele>
        <time>2016-03-07T08:03:24.000Z</time>
      </trkpt>
      <trkpt lat="45.50789" lon="6.5984">
        <ele>1375.5999755859</ele>
        <time>2016-03-07T08:03:26.000Z</time>
      </trkpt>
      <trkpt lat="45.50787" lon="6.59841">
        <ele>1376</ele>
        <time>2016-03-07T08:03:28.000Z</time>
      </trkpt>
      <trkpt lat="45.50781" lon="6.59843">
        <ele>1376.5999755859</ele>
        <time>2016-03-07T08:03:35.000Z</time>
      </trkpt>
      <trkpt lat="45.50779" lon="6.59843">
        <ele>1376.8000488281</ele>
        <time>2016-03-07T08:03:36.000Z</time>
      </trkpt>
      <trkpt lat="45.50774" lon="6.59842">
        <ele>1378</ele>
        <time>2016-03-07T08:03:41.000Z</time>
      </trkpt>
      <trkpt lat="45.50773" lon="6.59842">
        <ele>1379.1999511719</ele>
        <time>2016-03-07T08:03:45.000Z</time>
      </trkpt>
      <trkpt lat="45.50771" lon="6.59842">
        <ele>1379.4000244141</ele>
        <time>2016-03-07T08:03:46.000Z</time>
      </trkpt>
      <trkpt lat="45.50769" lon="6.59842">
        <ele>1380.1999511719</ele>
        <time>2016-03-07T08:03:49.000Z</time>
      </trkpt>
      <trkpt lat="45.50767" lon="6.59842">
        <ele>1380.5999755859</ele>
        <time>2016-03-07T08:03:51.000Z</time>
      </trkpt>
      <trkpt lat="45.50765" lon="6.59841">
        <ele>1381.4000244141</ele>
        <time>2016-03-07T08:03:54.000Z</time>
      </trkpt>
      <trkpt lat="45.50763" lon="6.5984">
        <ele>1381.8000488281</ele>
        <time>2016-03-07T08:03:56.000Z</time>
      </trkpt>
      <trkpt lat="45.50763" lon="6.5984">
        <ele>1382</ele>
        <time>2016-03-07T08:03:57.000Z</time>
      </trkpt>
      <trkpt lat="45.50761" lon="6.59839">
        <ele>1382.5999755859</ele>
        <time>2016-03-07T08:03:59.000Z</time>
      </trkpt>
      <trkpt lat="45.50758" lon="6.59838">
        <ele>1383.5999755859</ele>
        <time>2016-03-07T08:04:03.000Z</time>
      </trkpt>
      <trkpt lat="45.50757" lon="6.59837">
        <ele>1383.8000488281</ele>
        <time>2016-03-07T08:04:04.000Z</time>
      </trkpt>
      <trkpt lat="45.50755" lon="6.59836">
        <ele>1385</ele>
        <time>2016-03-07T08:04:07.000Z</time>
      </trkpt>
      <trkpt lat="45.50754" lon="6.59835">
        <ele>1385.5999755859</ele>
        <time>2016-03-07T08:04:09.000Z</time>
      </trkpt>
      <trkpt lat="45.50753" lon="6.59834">
        <ele>1386.1999511719</ele>
        <time>2016-03-07T08:04:11.000Z</time>
      </trkpt>
      <trkpt lat="45.50749" lon="6.5983">
        <ele>1387.4000244141</ele>
        <time>2016-03-07T08:04:16.000Z</time>
      </trkpt>
      <trkpt lat="45.50747" lon="6.59826">
        <ele>1388.4000244141</ele>
        <time>2016-03-07T08:04:21.000Z</time>
      </trkpt>
      <trkpt lat="45.50746" lon="6.59825">
        <ele>1389</ele>
        <time>2016-03-07T08:04:23.000Z</time>
      </trkpt>
      <trkpt lat="45.50745" lon="6.59824">
        <ele>1389.5999755859</ele>
        <time>2016-03-07T08:04:25.000Z</time>
      </trkpt>
      <trkpt lat="45.50743" lon="6.59822">
        <ele>1390.1999511719</ele>
        <time>2016-03-07T08:04:28.000Z</time>
      </trkpt>
      <trkpt lat="45.50743" lon="6.59822">
        <ele>1390.5999755859</ele>
        <time>2016-03-07T08:04:29.000Z</time>
      </trkpt>
      <trkpt lat="45.50739" lon="6.5982">
        <ele>1391.8000488281</ele>
        <time>2016-03-07T08:04:34.000Z</time>
      </trkpt>
      <trkpt lat="45.50735" lon="6.59814">
        <ele>1392.5999755859</ele>
        <time>2016-03-07T08:04:40.000Z</time>
      </trkpt>
      <trkpt lat="45.50734" lon="6.59812">
        <ele>1392.8000488281</ele>
        <time>2016-03-07T08:04:41.000Z</time>
      </trkpt>
      <trkpt lat="45.50733" lon="6.5981">
        <ele>1392.8000488281</ele>
        <time>2016-03-07T08:04:42.000Z</time>
      </trkpt>
      <trkpt lat="45.50732" lon="6.59806">
        <ele>1393.1999511719</ele>
        <time>2016-03-07T08:04:46.000Z</time>
      </trkpt>
      <trkpt lat="45.50731" lon="6.59801">
        <ele>1393.4000244141</ele>
        <time>2016-03-07T08:04:49.000Z</time>
      </trkpt>
      <trkpt lat="45.50732" lon="6.59795">
        <ele>1393.1999511719</ele>
        <time>2016-03-07T08:04:52.000Z</time>
      </trkpt>
      <trkpt lat="45.5073" lon="6.59786">
        <ele>1392</ele>
        <time>2016-03-07T08:04:57.000Z</time>
      </trkpt>
      <trkpt lat="45.50729" lon="6.59784">
        <ele>1391.8000488281</ele>
        <time>2016-03-07T08:04:59.000Z</time>
      </trkpt>
      <trkpt lat="45.50727" lon="6.5978">
        <ele>1391.8000488281</ele>
        <time>2016-03-07T08:05:02.000Z</time>
      </trkpt>
      <trkpt lat="45.50725" lon="6.5977">
        <ele>1392.1999511719</ele>
        <time>2016-03-07T08:05:09.000Z</time>
      </trkpt>
      <trkpt lat="45.50723" lon="6.59761">
        <ele>1392.8000488281</ele>
        <time>2016-03-07T08:05:14.000Z</time>
      </trkpt>
      <trkpt lat="45.50722" lon="6.59759">
        <ele>1393</ele>
        <time>2016-03-07T08:05:16.000Z</time>
      </trkpt>
      <trkpt lat="45.50719" lon="6.59755">
        <ele>1393.4000244141</ele>
        <time>2016-03-07T08:05:21.000Z</time>
      </trkpt>
      <trkpt lat="45.50718" lon="6.59753">
        <ele>1394</ele>
        <time>2016-03-07T08:05:23.000Z</time>
      </trkpt>
      <trkpt lat="45.50715" lon="6.59751">
        <ele>1395</ele>
        <time>2016-03-07T08:05:26.000Z</time>
      </trkpt>
      <trkpt lat="45.50714" lon="6.5975">
        <ele>1395.5999755859</ele>
        <time>2016-03-07T08:05:28.000Z</time>
      </trkpt>
      <trkpt lat="45.50713" lon="6.5975">
        <ele>1396.1999511719</ele>
        <time>2016-03-07T08:05:31.000Z</time>
      </trkpt>
      <trkpt lat="45.50711" lon="6.5975">
        <ele>1397.4000244141</ele>
        <time>2016-03-07T08:05:35.000Z</time>
      </trkpt>
      <trkpt lat="45.50709" lon="6.59751">
        <ele>1398.4000244141</ele>
        <time>2016-03-07T08:05:39.000Z</time>
      </trkpt>
      <trkpt lat="45.50708" lon="6.5975">
        <ele>1398.8000488281</ele>
        <time>2016-03-07T08:05:40.000Z</time>
      </trkpt>
      <trkpt lat="45.50706" lon="6.5975">
        <ele>1399.4000244141</ele>
        <time>2016-03-07T08:05:41.000Z</time>
      </trkpt>
      <trkpt lat="45.50703" lon="6.59751">
        <ele>1400.5999755859</ele>
        <time>2016-03-07T08:05:45.000Z</time>
      </trkpt>
      <trkpt lat="45.50703" lon="6.59752">
        <ele>1400.8000488281</ele>
        <time>2016-03-07T08:05:46.000Z</time>
      </trkpt>
      <trkpt lat="45.50701" lon="6.59755">
        <ele>1401.8000488281</ele>
        <time>2016-03-07T08:05:50.000Z</time>
      </trkpt>
      <trkpt lat="45.50699" lon="6.59756">
        <ele>1402</ele>
        <time>2016-03-07T08:05:51.000Z</time>
      </trkpt>
      <trkpt lat="45.50697" lon="6.59759">
        <ele>1403</ele>
        <time>2016-03-07T08:05:56.000Z</time>
      </trkpt>
      <trkpt lat="45.50697" lon="6.5976">
        <ele>1403.1999511719</ele>
        <time>2016-03-07T08:05:57.000Z</time>
      </trkpt>
      <trkpt lat="45.50695" lon="6.59762">
        <ele>1404</ele>
        <time>2016-03-07T08:06:01.000Z</time>
      </trkpt>
      <trkpt lat="45.50694" lon="6.59762">
        <ele>1404.4000244141</ele>
        <time>2016-03-07T08:06:02.000Z</time>
      </trkpt>
      <trkpt lat="45.50693" lon="6.59761">
        <ele>1405.5999755859</ele>
        <time>2016-03-07T08:06:05.000Z</time>
      </trkpt>
      <trkpt lat="45.50691" lon="6.59761">
        <ele>1406.1999511719</ele>
        <time>2016-03-07T08:06:08.000Z</time>
      </trkpt>
      <trkpt lat="45.5069" lon="6.5976">
        <ele>1406.5999755859</ele>
        <time>2016-03-07T08:06:10.000Z</time>
      </trkpt>
      <trkpt lat="45.50687" lon="6.59759">
        <ele>1407.4000244141</ele>
        <time>2016-03-07T08:06:14.000Z</time>
      </trkpt>
      <trkpt lat="45.50686" lon="6.59757">
        <ele>1408</ele>
        <time>2016-03-07T08:06:16.000Z</time>
      </trkpt>
      <trkpt lat="45.50686" lon="6.59756">
        <ele>1409</ele>
        <time>2016-03-07T08:06:20.000Z</time>
      </trkpt>
      <trkpt lat="45.50685" lon="6.59753">
        <ele>1409.8000488281</ele>
        <time>2016-03-07T08:06:26.000Z</time>
      </trkpt>
      <trkpt lat="45.50684" lon="6.59752">
        <ele>1410.1999511719</ele>
        <time>2016-03-07T08:06:29.000Z</time>
      </trkpt>
      <trkpt lat="45.50683" lon="6.5975">
        <ele>1410.8000488281</ele>
        <time>2016-03-07T08:06:32.000Z</time>
      </trkpt>
      <trkpt lat="45.50682" lon="6.5975">
        <ele>1411.4000244141</ele>
        <time>2016-03-07T08:06:35.000Z</time>
      </trkpt>
      <trkpt lat="45.50682" lon="6.5975">
        <ele>1411.5999755859</ele>
        <time>2016-03-07T08:06:38.000Z</time>
      </trkpt>
      <trkpt lat="45.50682" lon="6.5975">
        <ele>1411.8000488281</ele>
        <time>2016-03-07T08:06:47.000Z</time>
      </trkpt>
      <trkpt lat="45.50681" lon="6.59756">
        <ele>1411.8000488281</ele>
        <time>2016-03-07T08:06:53.000Z</time>
      </trkpt>
      <trkpt lat="45.50682" lon="6.59766">
        <ele>1412</ele>
        <time>2016-03-07T08:06:59.000Z</time>
      </trkpt>
      <trkpt lat="45.50682" lon="6.59772">
        <ele>1412.4000244141</ele>
        <time>2016-03-07T08:07:03.000Z</time>
      </trkpt>
      <trkpt lat="45.50682" lon="6.59776">
        <ele>1412.4000244141</ele>
        <time>2016-03-07T08:07:06.000Z</time>
      </trkpt>
      <trkpt lat="45.50683" lon="6.5978">
        <ele>1413.1999511719</ele>
        <time>2016-03-07T08:07:09.000Z</time>
      </trkpt>
      <trkpt lat="45.50684" lon="6.59784">
        <ele>1413.5999755859</ele>
        <time>2016-03-07T08:07:12.000Z</time>
      </trkpt>
      <trkpt lat="45.50683" lon="6.59786">
        <ele>1413.5999755859</ele>
        <time>2016-03-07T08:07:13.000Z</time>
      </trkpt>
      <trkpt lat="45.50685" lon="6.59792">
        <ele>1414</ele>
        <time>2016-03-07T08:07:18.000Z</time>
      </trkpt>
      <trkpt lat="45.50686" lon="6.59797">
        <ele>1414.4000244141</ele>
        <time>2016-03-07T08:07:23.000Z</time>
      </trkpt>
      <trkpt lat="45.50686" lon="6.598">
        <ele>1414.5999755859</ele>
        <time>2016-03-07T08:07:24.000Z</time>
      </trkpt>
      <trkpt lat="45.50686" lon="6.59806">
        <ele>1415</ele>
        <time>2016-03-07T08:07:28.000Z</time>
      </trkpt>
      <trkpt lat="45.50688" lon="6.59812">
        <ele>1415.5999755859</ele>
        <time>2016-03-07T08:07:32.000Z</time>
      </trkpt>
      <trkpt lat="45.50689" lon="6.59813">
        <ele>1415.8000488281</ele>
        <time>2016-03-07T08:07:34.000Z</time>
      </trkpt>
      <trkpt lat="45.50691" lon="6.59822">
        <ele>1416.4000244141</ele>
        <time>2016-03-07T08:07:39.000Z</time>
      </trkpt>
      <trkpt lat="45.50691" lon="6.59823">
        <ele>1417</ele>
        <time>2016-03-07T08:07:41.000Z</time>
      </trkpt>
      <trkpt lat="45.50692" lon="6.59831">
        <ele>1417.4000244141</ele>
        <time>2016-03-07T08:07:45.000Z</time>
      </trkpt>
      <trkpt lat="45.50692" lon="6.59833">
        <ele>1417.5999755859</ele>
        <time>2016-03-07T08:07:46.000Z</time>
      </trkpt>
      <trkpt lat="45.50693" lon="6.59837">
        <ele>1418</ele>
        <time>2016-03-07T08:07:49.000Z</time>
      </trkpt>
      <trkpt lat="45.50693" lon="6.59839">
        <ele>1418</ele>
        <time>2016-03-07T08:07:50.000Z</time>
      </trkpt>
      <trkpt lat="45.50693" lon="6.59845">
        <ele>1418.5999755859</ele>
        <time>2016-03-07T08:07:55.000Z</time>
      </trkpt>
      <trkpt lat="45.50693" lon="6.59851">
        <ele>1419</ele>
        <time>2016-03-07T08:07:58.000Z</time>
      </trkpt>
      <trkpt lat="45.50691" lon="6.59857">
        <ele>1419.4000244141</ele>
        <time>2016-03-07T08:08:01.000Z</time>
      </trkpt>
      <trkpt lat="45.50689" lon="6.59864">
        <ele>1420.1999511719</ele>
        <time>2016-03-07T08:08:05.000Z</time>
      </trkpt>
      <trkpt lat="45.50689" lon="6.59865">
        <ele>1420.1999511719</ele>
        <time>2016-03-07T08:08:06.000Z</time>
      </trkpt>
      <trkpt lat="45.50687" lon="6.59874">
        <ele>1421</ele>
        <time>2016-03-07T08:08:12.000Z</time>
      </trkpt>
      <trkpt lat="45.50687" lon="6.59876">
        <ele>1421.1999511719</ele>
        <time>2016-03-07T08:08:13.000Z</time>
      </trkpt>
      <trkpt lat="45.50686" lon="6.59885">
        <ele>1422</ele>
        <time>2016-03-07T08:08:20.000Z</time>
      </trkpt>
      <trkpt lat="45.50686" lon="6.5989">
        <ele>1422.1999511719</ele>
        <time>2016-03-07T08:08:23.000Z</time>
      </trkpt>
      <trkpt lat="45.50687" lon="6.59896">
        <ele>1422.5999755859</ele>
        <time>2016-03-07T08:08:27.000Z</time>
      </trkpt>
      <trkpt lat="45.50688" lon="6.59902">
        <ele>1423.1999511719</ele>
        <time>2016-03-07T08:08:31.000Z</time>
      </trkpt>
      <trkpt lat="45.50689" lon="6.59907">
        <ele>1423.1999511719</ele>
        <time>2016-03-07T08:08:34.000Z</time>
      </trkpt>
      <trkpt lat="45.5069" lon="6.59915">
        <ele>1423.4000244141</ele>
        <time>2016-03-07T08:08:38.000Z</time>
      </trkpt>
      <trkpt lat="45.50689" lon="6.59914">
        <ele>1423.4000244141</ele>
        <time>2016-03-07T08:08:40.000Z</time>
      </trkpt>
      <trkpt lat="45.50687" lon="6.59908">
        <ele>1424.1999511719</ele>
        <time>2016-03-07T08:08:46.000Z</time>
      </trkpt>
      <trkpt lat="45.50687" lon="6.59904">
        <ele>1424.1999511719</ele>
        <time>2016-03-07T08:08:48.000Z</time>
      </trkpt>
      <trkpt lat="45.50687" lon="6.59893">
        <ele>1423.8000488281</ele>
        <time>2016-03-07T08:08:54.000Z</time>
      </trkpt>
      <trkpt lat="45.50687" lon="6.59889">
        <ele>1423.5999755859</ele>
        <time>2016-03-07T08:08:59.000Z</time>
      </trkpt>
      <trkpt lat="45.50689" lon="6.59881">
        <ele>1422.5999755859</ele>
        <time>2016-03-07T08:09:06.000Z</time>
      </trkpt>
      <trkpt lat="45.50688" lon="6.59875">
        <ele>1422.4000244141</ele>
        <time>2016-03-07T08:09:12.000Z</time>
      </trkpt>
      <trkpt lat="45.50686" lon="6.5987">
        <ele>1423.5999755859</ele>
        <time>2016-03-07T08:09:19.000Z</time>
      </trkpt>
      <trkpt lat="45.50685" lon="6.59866">
        <ele>1424.4000244141</ele>
        <time>2016-03-07T08:09:22.000Z</time>
      </trkpt>
      <trkpt lat="45.50683" lon="6.59864">
        <ele>1424.8000488281</ele>
        <time>2016-03-07T08:09:24.000Z</time>
      </trkpt>
      <trkpt lat="45.50681" lon="6.59862">
        <ele>1425.5999755859</ele>
        <time>2016-03-07T08:09:27.000Z</time>
      </trkpt>
      <trkpt lat="45.50678" lon="6.59859">
        <ele>1426.4000244141</ele>
        <time>2016-03-07T08:09:31.000Z</time>
      </trkpt>
      <trkpt lat="45.50677" lon="6.59858">
        <ele>1426.8000488281</ele>
        <time>2016-03-07T08:09:32.000Z</time>
      </trkpt>
      <trkpt lat="45.50674" lon="6.59857">
        <ele>1428</ele>
        <time>2016-03-07T08:09:36.000Z</time>
      </trkpt>
      <trkpt lat="45.50673" lon="6.59857">
        <ele>1428.4000244141</ele>
        <time>2016-03-07T08:09:38.000Z</time>
      </trkpt>
      <trkpt lat="45.50672" lon="6.59859">
        <ele>1429</ele>
        <time>2016-03-07T08:09:41.000Z</time>
      </trkpt>
      <trkpt lat="45.50673" lon="6.59865">
        <ele>1430</ele>
        <time>2016-03-07T08:09:45.000Z</time>
      </trkpt>
      <trkpt lat="45.50672" lon="6.59867">
        <ele>1430.4000244141</ele>
        <time>2016-03-07T08:09:47.000Z</time>
      </trkpt>
      <trkpt lat="45.50671" lon="6.59867">
        <ele>1431.1999511719</ele>
        <time>2016-03-07T08:09:50.000Z</time>
      </trkpt>
      <trkpt lat="45.50669" lon="6.59866">
        <ele>1432.1999511719</ele>
        <time>2016-03-07T08:09:54.000Z</time>
      </trkpt>
      <trkpt lat="45.50669" lon="6.59865">
        <ele>1432.5999755859</ele>
        <time>2016-03-07T08:09:55.000Z</time>
      </trkpt>
      <trkpt lat="45.50666" lon="6.59862">
        <ele>1433.4000244141</ele>
        <time>2016-03-07T08:09:58.000Z</time>
      </trkpt>
      <trkpt lat="45.50663" lon="6.59861">
        <ele>1433.8000488281</ele>
        <time>2016-03-07T08:10:02.000Z</time>
      </trkpt>
      <trkpt lat="45.50661" lon="6.5986">
        <ele>1434.4000244141</ele>
        <time>2016-03-07T08:10:05.000Z</time>
      </trkpt>
      <trkpt lat="45.50659" lon="6.5986">
        <ele>1435.8000488281</ele>
        <time>2016-03-07T08:10:09.000Z</time>
      </trkpt>
      <trkpt lat="45.50658" lon="6.59864">
        <ele>1436.8000488281</ele>
        <time>2016-03-07T08:10:14.000Z</time>
      </trkpt>
      <trkpt lat="45.50657" lon="6.59867">
        <ele>1437.4000244141</ele>
        <time>2016-03-07T08:10:17.000Z</time>
      </trkpt>
      <trkpt lat="45.50657" lon="6.59871">
        <ele>1438</ele>
        <time>2016-03-07T08:10:20.000Z</time>
      </trkpt>
      <trkpt lat="45.50657" lon="6.59871">
        <ele>1438.1999511719</ele>
        <time>2016-03-07T08:10:21.000Z</time>
      </trkpt>
      <trkpt lat="45.50656" lon="6.59875">
        <ele>1439</ele>
        <time>2016-03-07T08:10:25.000Z</time>
      </trkpt>
      <trkpt lat="45.50656" lon="6.59877">
        <ele>1439</ele>
        <time>2016-03-07T08:10:26.000Z</time>
      </trkpt>
      <trkpt lat="45.50656" lon="6.59876">
        <ele>1439.8000488281</ele>
        <time>2016-03-07T08:10:30.000Z</time>
      </trkpt>
      <trkpt lat="45.50655" lon="6.59875">
        <ele>1440.1999511719</ele>
        <time>2016-03-07T08:10:32.000Z</time>
      </trkpt>
      <trkpt lat="45.50653" lon="6.59871">
        <ele>1441</ele>
        <time>2016-03-07T08:10:37.000Z</time>
      </trkpt>
      <trkpt lat="45.50653" lon="6.59871">
        <ele>1441.1999511719</ele>
        <time>2016-03-07T08:10:38.000Z</time>
      </trkpt>
      <trkpt lat="45.50649" lon="6.59867">
        <ele>1442.1999511719</ele>
        <time>2016-03-07T08:10:44.000Z</time>
      </trkpt>
      <trkpt lat="45.50648" lon="6.59867">
        <ele>1442.4000244141</ele>
        <time>2016-03-07T08:10:45.000Z</time>
      </trkpt>
      <trkpt lat="45.50645" lon="6.59865">
        <ele>1443.4000244141</ele>
        <time>2016-03-07T08:10:50.000Z</time>
      </trkpt>
      <trkpt lat="45.50642" lon="6.59864">
        <ele>1444.4000244141</ele>
        <time>2016-03-07T08:10:55.000Z</time>
      </trkpt>
      <trkpt lat="45.50642" lon="6.59864">
        <ele>1444.5999755859</ele>
        <time>2016-03-07T08:10:56.000Z</time>
      </trkpt>
      <trkpt lat="45.50641" lon="6.59865">
        <ele>1445.4000244141</ele>
        <time>2016-03-07T08:11:03.000Z</time>
      </trkpt>
      <trkpt lat="45.50641" lon="6.59867">
        <ele>1445.4000244141</ele>
        <time>2016-03-07T08:11:04.000Z</time>
      </trkpt>
      <trkpt lat="45.50641" lon="6.59873">
        <ele>1446.4000244141</ele>
        <time>2016-03-07T08:11:09.000Z</time>
      </trkpt>
      <trkpt lat="45.50641" lon="6.59874">
        <ele>1446.5999755859</ele>
        <time>2016-03-07T08:11:10.000Z</time>
      </trkpt>
      <trkpt lat="45.50642" lon="6.5988">
        <ele>1447.5999755859</ele>
        <time>2016-03-07T08:11:17.000Z</time>
      </trkpt>
      <trkpt lat="45.50642" lon="6.5988">
        <ele>1447.8000488281</ele>
        <time>2016-03-07T08:11:18.000Z</time>
      </trkpt>
      <trkpt lat="45.50643" lon="6.59883">
        <ele>1448.8000488281</ele>
        <time>2016-03-07T08:11:22.000Z</time>
      </trkpt>
      <trkpt lat="45.50643" lon="6.59883">
        <ele>1449</ele>
        <time>2016-03-07T08:11:23.000Z</time>
      </trkpt>
      <trkpt lat="45.50643" lon="6.59884">
        <ele>1449.4000244141</ele>
        <time>2016-03-07T08:11:27.000Z</time>
      </trkpt>
      <trkpt lat="45.50642" lon="6.59884">
        <ele>1450</ele>
        <time>2016-03-07T08:11:32.000Z</time>
      </trkpt>
      <trkpt lat="45.50641" lon="6.59883">
        <ele>1450</ele>
        <time>2016-03-07T08:11:33.000Z</time>
      </trkpt>
      <trkpt lat="45.50638" lon="6.59882">
        <ele>1450.5999755859</ele>
        <time>2016-03-07T08:11:38.000Z</time>
      </trkpt>
      <trkpt lat="45.50637" lon="6.59881">
        <ele>1451</ele>
        <time>2016-03-07T08:11:40.000Z</time>
      </trkpt>
      <trkpt lat="45.50634" lon="6.5988">
        <ele>1452</ele>
        <time>2016-03-07T08:11:45.000Z</time>
      </trkpt>
      <trkpt lat="45.50631" lon="6.59879">
        <ele>1453</ele>
        <time>2016-03-07T08:11:50.000Z</time>
      </trkpt>
      <trkpt lat="45.50631" lon="6.59879">
        <ele>1453</ele>
        <time>2016-03-07T08:11:51.000Z</time>
      </trkpt>
      <trkpt lat="45.50626" lon="6.59876">
        <ele>1453.8000488281</ele>
        <time>2016-03-07T08:11:57.000Z</time>
      </trkpt>
      <trkpt lat="45.50626" lon="6.59875">
        <ele>1454.1999511719</ele>
        <time>2016-03-07T08:11:58.000Z</time>
      </trkpt>
      <trkpt lat="45.50622" lon="6.59876">
        <ele>1455</ele>
        <time>2016-03-07T08:12:03.000Z</time>
      </trkpt>
      <trkpt lat="45.50623" lon="6.59876">
        <ele>1455.1999511719</ele>
        <time>2016-03-07T08:12:04.000Z</time>
      </trkpt>
      <trkpt lat="45.50623" lon="6.59882">
        <ele>1456.1999511719</ele>
        <time>2016-03-07T08:12:08.000Z</time>
      </trkpt>
      <trkpt lat="45.50623" lon="6.59881">
        <ele>1456.4000244141</ele>
        <time>2016-03-07T08:12:09.000Z</time>
      </trkpt>
      <trkpt lat="45.50622" lon="6.59883">
        <ele>1457.4000244141</ele>
        <time>2016-03-07T08:12:17.000Z</time>
      </trkpt>
      <trkpt lat="45.50623" lon="6.5989">
        <ele>1458.1999511719</ele>
        <time>2016-03-07T08:12:25.000Z</time>
      </trkpt>
      <trkpt lat="45.50623" lon="6.59892">
        <ele>1458.4000244141</ele>
        <time>2016-03-07T08:12:27.000Z</time>
      </trkpt>
      <trkpt lat="45.50623" lon="6.59898">
        <ele>1459.5999755859</ele>
        <time>2016-03-07T08:12:32.000Z</time>
      </trkpt>
      <trkpt lat="45.50623" lon="6.59899">
        <ele>1459.8000488281</ele>
        <time>2016-03-07T08:12:33.000Z</time>
      </trkpt>
      <trkpt lat="45.50622" lon="6.59902">
        <ele>1460.8000488281</ele>
        <time>2016-03-07T08:12:37.000Z</time>
      </trkpt>
      <trkpt lat="45.50622" lon="6.59904">
        <ele>1461</ele>
        <time>2016-03-07T08:12:39.000Z</time>
      </trkpt>
      <trkpt lat="45.50623" lon="6.5991">
        <ele>1462</ele>
        <time>2016-03-07T08:12:43.000Z</time>
      </trkpt>
      <trkpt lat="45.50623" lon="6.59912">
        <ele>1462.5999755859</ele>
        <time>2016-03-07T08:12:45.000Z</time>
      </trkpt>
      <trkpt lat="45.50623" lon="6.59916">
        <ele>1463</ele>
        <time>2016-03-07T08:12:47.000Z</time>
      </trkpt>
      <trkpt lat="45.50623" lon="6.59919">
        <ele>1463.5999755859</ele>
        <time>2016-03-07T08:12:50.000Z</time>
      </trkpt>
      <trkpt lat="45.50623" lon="6.59923">
        <ele>1464</ele>
        <time>2016-03-07T08:12:53.000Z</time>
      </trkpt>
      <trkpt lat="45.50622" lon="6.59925">
        <ele>1465</ele>
        <time>2016-03-07T08:12:56.000Z</time>
      </trkpt>
      <trkpt lat="45.50622" lon="6.59926">
        <ele>1465.1999511719</ele>
        <time>2016-03-07T08:12:57.000Z</time>
      </trkpt>
      <trkpt lat="45.50622" lon="6.59933">
        <ele>1466.4000244141</ele>
        <time>2016-03-07T08:13:02.000Z</time>
      </trkpt>
      <trkpt lat="45.50621" lon="6.59938">
        <ele>1467.1999511719</ele>
        <time>2016-03-07T08:13:08.000Z</time>
      </trkpt>
      <trkpt lat="45.50621" lon="6.59939">
        <ele>1467.4000244141</ele>
        <time>2016-03-07T08:13:09.000Z</time>
      </trkpt>
      <trkpt lat="45.5062" lon="6.59942">
        <ele>1468.4000244141</ele>
        <time>2016-03-07T08:13:13.000Z</time>
      </trkpt>
      <trkpt lat="45.50619" lon="6.59945">
        <ele>1468.8000488281</ele>
        <time>2016-03-07T08:13:15.000Z</time>
      </trkpt>
      <trkpt lat="45.5062" lon="6.59948">
        <ele>1470</ele>
        <time>2016-03-07T08:13:18.000Z</time>
      </trkpt>
      <trkpt lat="45.5062" lon="6.5995">
        <ele>1470.4000244141</ele>
        <time>2016-03-07T08:13:21.000Z</time>
      </trkpt>
      <trkpt lat="45.50619" lon="6.59953">
        <ele>1471</ele>
        <time>2016-03-07T08:13:24.000Z</time>
      </trkpt>
      <trkpt lat="45.50617" lon="6.59957">
        <ele>1472.1999511719</ele>
        <time>2016-03-07T08:13:28.000Z</time>
      </trkpt>
      <trkpt lat="45.50615" lon="6.5996">
        <ele>1473.1999511719</ele>
        <time>2016-03-07T08:13:33.000Z</time>
      </trkpt>
      <trkpt lat="45.50615" lon="6.59961">
        <ele>1473.4000244141</ele>
        <time>2016-03-07T08:13:34.000Z</time>
      </trkpt>
      <trkpt lat="45.50614" lon="6.59963">
        <ele>1474.1999511719</ele>
        <time>2016-03-07T08:13:38.000Z</time>
      </trkpt>
      <trkpt lat="45.50613" lon="6.59965">
        <ele>1474.5999755859</ele>
        <time>2016-03-07T08:13:40.000Z</time>
      </trkpt>
      <trkpt lat="45.50612" lon="6.59966">
        <ele>1475.4000244141</ele>
        <time>2016-03-07T08:13:42.000Z</time>
      </trkpt>
      <trkpt lat="45.5061" lon="6.5997">
        <ele>1476</ele>
        <time>2016-03-07T08:13:45.000Z</time>
      </trkpt>
      <trkpt lat="45.5061" lon="6.59972">
        <ele>1476.4000244141</ele>
        <time>2016-03-07T08:13:47.000Z</time>
      </trkpt>
      <trkpt lat="45.50609" lon="6.59974">
        <ele>1477</ele>
        <time>2016-03-07T08:13:50.000Z</time>
      </trkpt>
      <trkpt lat="45.50607" lon="6.59976">
        <ele>1477.5999755859</ele>
        <time>2016-03-07T08:13:53.000Z</time>
      </trkpt>
      <trkpt lat="45.50607" lon="6.59977">
        <ele>1478.1999511719</ele>
        <time>2016-03-07T08:13:56.000Z</time>
      </trkpt>
      <trkpt lat="45.50606" lon="6.59979">
        <ele>1478.5999755859</ele>
        <time>2016-03-07T08:13:58.000Z</time>
      </trkpt>
      <trkpt lat="45.50605" lon="6.5998">
        <ele>1479.4000244141</ele>
        <time>2016-03-07T08:14:02.000Z</time>
      </trkpt>
      <trkpt lat="45.50605" lon="6.5998">
        <ele>1479.5999755859</ele>
        <time>2016-03-07T08:14:05.000Z</time>
      </trkpt>
      <trkpt lat="45.50604" lon="6.59984">
        <ele>1479.5999755859</ele>
        <time>2016-03-07T08:14:09.000Z</time>
      </trkpt>
      <trkpt lat="45.50602" lon="6.59986">
        <ele>1480</ele>
        <time>2016-03-07T08:14:11.000Z</time>
      </trkpt>
      <trkpt lat="45.50601" lon="6.59989">
        <ele>1480.5999755859</ele>
        <time>2016-03-07T08:14:14.000Z</time>
      </trkpt>
      <trkpt lat="45.506" lon="6.5999">
        <ele>1480.8000488281</ele>
        <time>2016-03-07T08:14:15.000Z</time>
      </trkpt>
      <trkpt lat="45.50599" lon="6.59991">
        <ele>1481</ele>
        <time>2016-03-07T08:14:16.000Z</time>
      </trkpt>
      <trkpt lat="45.50597" lon="6.59994">
        <ele>1481.8000488281</ele>
        <time>2016-03-07T08:14:20.000Z</time>
      </trkpt>
      <trkpt lat="45.50595" lon="6.59997">
        <ele>1482.5999755859</ele>
        <time>2016-03-07T08:14:25.000Z</time>
      </trkpt>
      <trkpt lat="45.50594" lon="6.59997">
        <ele>1482.8000488281</ele>
        <time>2016-03-07T08:14:26.000Z</time>
      </trkpt>
      <trkpt lat="45.50592" lon="6.6">
        <ele>1483.1999511719</ele>
        <time>2016-03-07T08:14:29.000Z</time>
      </trkpt>
      <trkpt lat="45.50592" lon="6.60001">
        <ele>1483.5999755859</ele>
        <time>2016-03-07T08:14:30.000Z</time>
      </trkpt>
      <trkpt lat="45.50592" lon="6.60001">
        <ele>1484</ele>
        <time>2016-03-07T08:14:31.000Z</time>
      </trkpt>
      <trkpt lat="45.5059" lon="6.60005">
        <ele>1485</ele>
        <time>2016-03-07T08:14:35.000Z</time>
      </trkpt>
      <trkpt lat="45.50589" lon="6.60006">
        <ele>1485.1999511719</ele>
        <time>2016-03-07T08:14:36.000Z</time>
      </trkpt>
      <trkpt lat="45.50586" lon="6.60011">
        <ele>1486</ele>
        <time>2016-03-07T08:14:41.000Z</time>
      </trkpt>
      <trkpt lat="45.50585" lon="6.60012">
        <ele>1486.1999511719</ele>
        <time>2016-03-07T08:14:42.000Z</time>
      </trkpt>
      <trkpt lat="45.50582" lon="6.60017">
        <ele>1487.1999511719</ele>
        <time>2016-03-07T08:14:47.000Z</time>
      </trkpt>
      <trkpt lat="45.50581" lon="6.60024">
        <ele>1488</ele>
        <time>2016-03-07T08:14:52.000Z</time>
      </trkpt>
      <trkpt lat="45.5058" lon="6.60025">
        <ele>1488.1999511719</ele>
        <time>2016-03-07T08:14:53.000Z</time>
      </trkpt>
      <trkpt lat="45.50578" lon="6.60029">
        <ele>1489.1999511719</ele>
        <time>2016-03-07T08:14:58.000Z</time>
      </trkpt>
      <trkpt lat="45.50575" lon="6.60036">
        <ele>1490.1999511719</ele>
        <time>2016-03-07T08:15:04.000Z</time>
      </trkpt>
      <trkpt lat="45.50575" lon="6.60037">
        <ele>1490.4000244141</ele>
        <time>2016-03-07T08:15:05.000Z</time>
      </trkpt>
      <trkpt lat="45.50573" lon="6.60042">
        <ele>1491.4000244141</ele>
        <time>2016-03-07T08:15:10.000Z</time>
      </trkpt>
      <trkpt lat="45.50572" lon="6.60044">
        <ele>1491.5999755859</ele>
        <time>2016-03-07T08:15:11.000Z</time>
      </trkpt>
      <trkpt lat="45.5057" lon="6.60048">
        <ele>1492.1999511719</ele>
        <time>2016-03-07T08:15:15.000Z</time>
      </trkpt>
      <trkpt lat="45.5057" lon="6.60049">
        <ele>1492.4000244141</ele>
        <time>2016-03-07T08:15:16.000Z</time>
      </trkpt>
      <trkpt lat="45.50569" lon="6.6005">
        <ele>1492.5999755859</ele>
        <time>2016-03-07T08:15:17.000Z</time>
      </trkpt>
      <trkpt lat="45.50568" lon="6.60053">
        <ele>1493.4000244141</ele>
        <time>2016-03-07T08:15:20.000Z</time>
      </trkpt>
      <trkpt lat="45.50566" lon="6.60056">
        <ele>1493.8000488281</ele>
        <time>2016-03-07T08:15:23.000Z</time>
      </trkpt>
      <trkpt lat="45.50566" lon="6.60058">
        <ele>1494</ele>
        <time>2016-03-07T08:15:25.000Z</time>
      </trkpt>
      <trkpt lat="45.50564" lon="6.60063">
        <ele>1494.8000488281</ele>
        <time>2016-03-07T08:15:29.000Z</time>
      </trkpt>
      <trkpt lat="45.50563" lon="6.60064">
        <ele>1494.8000488281</ele>
        <time>2016-03-07T08:15:30.000Z</time>
      </trkpt>
      <trkpt lat="45.50561" lon="6.60069">
        <ele>1495.8000488281</ele>
        <time>2016-03-07T08:15:35.000Z</time>
      </trkpt>
      <trkpt lat="45.50561" lon="6.60071">
        <ele>1495.8000488281</ele>
        <time>2016-03-07T08:15:36.000Z</time>
      </trkpt>
      <trkpt lat="45.5056" lon="6.60075">
        <ele>1496.5999755859</ele>
        <time>2016-03-07T08:15:40.000Z</time>
      </trkpt>
      <trkpt lat="45.5056" lon="6.60077">
        <ele>1497</ele>
        <time>2016-03-07T08:15:42.000Z</time>
      </trkpt>
      <trkpt lat="45.50558" lon="6.6008">
        <ele>1498</ele>
        <time>2016-03-07T08:15:46.000Z</time>
      </trkpt>
      <trkpt lat="45.50558" lon="6.60082">
        <ele>1498.1999511719</ele>
        <time>2016-03-07T08:15:47.000Z</time>
      </trkpt>
      <trkpt lat="45.50557" lon="6.60086">
        <ele>1499</ele>
        <time>2016-03-07T08:15:51.000Z</time>
      </trkpt>
      <trkpt lat="45.50556" lon="6.60087">
        <ele>1499.1999511719</ele>
        <time>2016-03-07T08:15:52.000Z</time>
      </trkpt>
      <trkpt lat="45.50556" lon="6.60093">
        <ele>1500.1999511719</ele>
        <time>2016-03-07T08:15:57.000Z</time>
      </trkpt>
      <trkpt lat="45.50556" lon="6.60094">
        <ele>1500.4000244141</ele>
        <time>2016-03-07T08:15:58.000Z</time>
      </trkpt>
      <trkpt lat="45.50559" lon="6.60098">
        <ele>1501</ele>
        <time>2016-03-07T08:16:02.000Z</time>
      </trkpt>
      <trkpt lat="45.50562" lon="6.60103">
        <ele>1501.5999755859</ele>
        <time>2016-03-07T08:16:06.000Z</time>
      </trkpt>
      <trkpt lat="45.50563" lon="6.60104">
        <ele>1501.8000488281</ele>
        <time>2016-03-07T08:16:08.000Z</time>
      </trkpt>
      <trkpt lat="45.50564" lon="6.6011">
        <ele>1502.4000244141</ele>
        <time>2016-03-07T08:16:14.000Z</time>
      </trkpt>
      <trkpt lat="45.50565" lon="6.60111">
        <ele>1502.5999755859</ele>
        <time>2016-03-07T08:16:15.000Z</time>
      </trkpt>
      <trkpt lat="45.50564" lon="6.60115">
        <ele>1503.4000244141</ele>
        <time>2016-03-07T08:16:19.000Z</time>
      </trkpt>
      <trkpt lat="45.50565" lon="6.60115">
        <ele>1503.8000488281</ele>
        <time>2016-03-07T08:16:21.000Z</time>
      </trkpt>
      <trkpt lat="45.50566" lon="6.60117">
        <ele>1504.4000244141</ele>
        <time>2016-03-07T08:16:24.000Z</time>
      </trkpt>
      <trkpt lat="45.50566" lon="6.6012">
        <ele>1504.8000488281</ele>
        <time>2016-03-07T08:16:26.000Z</time>
      </trkpt>
      <trkpt lat="45.50568" lon="6.60124">
        <ele>1505.5999755859</ele>
        <time>2016-03-07T08:16:29.000Z</time>
      </trkpt>
      <trkpt lat="45.50568" lon="6.60125">
        <ele>1506</ele>
        <time>2016-03-07T08:16:30.000Z</time>
      </trkpt>
      <trkpt lat="45.5057" lon="6.6013">
        <ele>1506.5999755859</ele>
        <time>2016-03-07T08:16:34.000Z</time>
      </trkpt>
      <trkpt lat="45.50571" lon="6.60132">
        <ele>1507</ele>
        <time>2016-03-07T08:16:36.000Z</time>
      </trkpt>
      <trkpt lat="45.50572" lon="6.60136">
        <ele>1508.1999511719</ele>
        <time>2016-03-07T08:16:42.000Z</time>
      </trkpt>
      <trkpt lat="45.50574" lon="6.6014">
        <ele>1508.8000488281</ele>
        <time>2016-03-07T08:16:46.000Z</time>
      </trkpt>
      <trkpt lat="45.50575" lon="6.60141">
        <ele>1509</ele>
        <time>2016-03-07T08:16:47.000Z</time>
      </trkpt>
      <trkpt lat="45.50575" lon="6.60142">
        <ele>1509.1999511719</ele>
        <time>2016-03-07T08:16:48.000Z</time>
      </trkpt>
      <trkpt lat="45.50577" lon="6.60144">
        <ele>1509.8000488281</ele>
        <time>2016-03-07T08:16:52.000Z</time>
      </trkpt>
      <trkpt lat="45.50577" lon="6.60146">
        <ele>1510.1999511719</ele>
        <time>2016-03-07T08:16:54.000Z</time>
      </trkpt>
      <trkpt lat="45.50577" lon="6.60148">
        <ele>1510.5999755859</ele>
        <time>2016-03-07T08:16:56.000Z</time>
      </trkpt>
      <trkpt lat="45.50577" lon="6.60154">
        <ele>1511.4000244141</ele>
        <time>2016-03-07T08:17:01.000Z</time>
      </trkpt>
      <trkpt lat="45.50576" lon="6.60156">
        <ele>1512.4000244141</ele>
        <time>2016-03-07T08:17:06.000Z</time>
      </trkpt>
      <trkpt lat="45.50575" lon="6.60157">
        <ele>1512.5999755859</ele>
        <time>2016-03-07T08:17:07.000Z</time>
      </trkpt>
      <trkpt lat="45.50573" lon="6.60161">
        <ele>1513.4000244141</ele>
        <time>2016-03-07T08:17:11.000Z</time>
      </trkpt>
      <trkpt lat="45.50573" lon="6.60163">
        <ele>1513.8000488281</ele>
        <time>2016-03-07T08:17:13.000Z</time>
      </trkpt>
      <trkpt lat="45.50572" lon="6.60165">
        <ele>1514.5999755859</ele>
        <time>2016-03-07T08:17:17.000Z</time>
      </trkpt>
      <trkpt lat="45.50572" lon="6.60166">
        <ele>1515</ele>
        <time>2016-03-07T08:17:18.000Z</time>
      </trkpt>
      <trkpt lat="45.50572" lon="6.6017">
        <ele>1515.5999755859</ele>
        <time>2016-03-07T08:17:22.000Z</time>
      </trkpt>
      <trkpt lat="45.50571" lon="6.60172">
        <ele>1516</ele>
        <time>2016-03-07T08:17:24.000Z</time>
      </trkpt>
      <trkpt lat="45.50571" lon="6.60175">
        <ele>1516.5999755859</ele>
        <time>2016-03-07T08:17:27.000Z</time>
      </trkpt>
      <trkpt lat="45.50572" lon="6.60178">
        <ele>1517.4000244141</ele>
        <time>2016-03-07T08:17:31.000Z</time>
      </trkpt>
      <trkpt lat="45.50572" lon="6.60179">
        <ele>1517.8000488281</ele>
        <time>2016-03-07T08:17:33.000Z</time>
      </trkpt>
      <trkpt lat="45.50574" lon="6.60185">
        <ele>1518.5999755859</ele>
        <time>2016-03-07T08:17:38.000Z</time>
      </trkpt>
      <trkpt lat="45.50574" lon="6.60186">
        <ele>1518.8000488281</ele>
        <time>2016-03-07T08:17:39.000Z</time>
      </trkpt>
      <trkpt lat="45.50575" lon="6.60188">
        <ele>1519.8000488281</ele>
        <time>2016-03-07T08:17:44.000Z</time>
      </trkpt>
      <trkpt lat="45.50575" lon="6.60188">
        <ele>1520</ele>
        <time>2016-03-07T08:17:45.000Z</time>
      </trkpt>
      <trkpt lat="45.50575" lon="6.60194">
        <ele>1521</ele>
        <time>2016-03-07T08:17:50.000Z</time>
      </trkpt>
      <trkpt lat="45.50575" lon="6.60194">
        <ele>1521</ele>
        <time>2016-03-07T08:17:51.000Z</time>
      </trkpt>
      <trkpt lat="45.50572" lon="6.60198">
        <ele>1522</ele>
        <time>2016-03-07T08:17:57.000Z</time>
      </trkpt>
      <trkpt lat="45.50572" lon="6.60198">
        <ele>1522.1999511719</ele>
        <time>2016-03-07T08:17:58.000Z</time>
      </trkpt>
      <trkpt lat="45.50568" lon="6.60202">
        <ele>1523.1999511719</ele>
        <time>2016-03-07T08:18:05.000Z</time>
      </trkpt>
      <trkpt lat="45.50566" lon="6.60203">
        <ele>1524.1999511719</ele>
        <time>2016-03-07T08:18:09.000Z</time>
      </trkpt>
      <trkpt lat="45.50566" lon="6.60205">
        <ele>1524.1999511719</ele>
        <time>2016-03-07T08:18:10.000Z</time>
      </trkpt>
      <trkpt lat="45.50565" lon="6.60206">
        <ele>1525</ele>
        <time>2016-03-07T08:18:14.000Z</time>
      </trkpt>
      <trkpt lat="45.50563" lon="6.60208">
        <ele>1525.4000244141</ele>
        <time>2016-03-07T08:18:17.000Z</time>
      </trkpt>
      <trkpt lat="45.50559" lon="6.6021">
        <ele>1526.1999511719</ele>
        <time>2016-03-07T08:18:21.000Z</time>
      </trkpt>
      <trkpt lat="45.50557" lon="6.6021">
        <ele>1526.5999755859</ele>
        <time>2016-03-07T08:18:23.000Z</time>
      </trkpt>
      <trkpt lat="45.50556" lon="6.60209">
        <ele>1527</ele>
        <time>2016-03-07T08:18:25.000Z</time>
      </trkpt>
      <trkpt lat="45.50555" lon="6.60209">
        <ele>1528</ele>
        <time>2016-03-07T08:18:30.000Z</time>
      </trkpt>
      <trkpt lat="45.50554" lon="6.60212">
        <ele>1528.1999511719</ele>
        <time>2016-03-07T08:18:33.000Z</time>
      </trkpt>
      <trkpt lat="45.50552" lon="6.60217">
        <ele>1529</ele>
        <time>2016-03-07T08:18:39.000Z</time>
      </trkpt>
      <trkpt lat="45.50551" lon="6.60219">
        <ele>1529.4000244141</ele>
        <time>2016-03-07T08:18:41.000Z</time>
      </trkpt>
      <trkpt lat="45.50551" lon="6.60221">
        <ele>1530.1999511719</ele>
        <time>2016-03-07T08:18:44.000Z</time>
      </trkpt>
      <trkpt lat="45.50551" lon="6.60221">
        <ele>1531</ele>
        <time>2016-03-07T08:18:50.000Z</time>
      </trkpt>
      <trkpt lat="45.50551" lon="6.60221">
        <ele>1531.1999511719</ele>
        <time>2016-03-07T08:18:53.000Z</time>
      </trkpt>
      <trkpt lat="45.5055" lon="6.60223">
        <ele>1531</ele>
        <time>2016-03-07T08:19:00.000Z</time>
      </trkpt>
      <trkpt lat="45.5055" lon="6.60229">
        <ele>1531.5999755859</ele>
        <time>2016-03-07T08:19:06.000Z</time>
      </trkpt>
      <trkpt lat="45.5055" lon="6.6023">
        <ele>1532.1999511719</ele>
        <time>2016-03-07T08:19:09.000Z</time>
      </trkpt>
      <trkpt lat="45.5055" lon="6.60231">
        <ele>1532.8000488281</ele>
        <time>2016-03-07T08:19:11.000Z</time>
      </trkpt>
      <trkpt lat="45.5055" lon="6.60233">
        <ele>1533.4000244141</ele>
        <time>2016-03-07T08:19:13.000Z</time>
      </trkpt>
      <trkpt lat="45.50549" lon="6.60238">
        <ele>1534.8000488281</ele>
        <time>2016-03-07T08:19:18.000Z</time>
      </trkpt>
      <trkpt lat="45.50546" lon="6.60241">
        <ele>1536</ele>
        <time>2016-03-07T08:19:25.000Z</time>
      </trkpt>
      <trkpt lat="45.50546" lon="6.60242">
        <ele>1536.1999511719</ele>
        <time>2016-03-07T08:19:26.000Z</time>
      </trkpt>
      <trkpt lat="45.50544" lon="6.60245">
        <ele>1537.1999511719</ele>
        <time>2016-03-07T08:19:30.000Z</time>
      </trkpt>
      <trkpt lat="45.50542" lon="6.6025">
        <ele>1538</ele>
        <time>2016-03-07T08:19:35.000Z</time>
      </trkpt>
      <trkpt lat="45.50542" lon="6.60251">
        <ele>1538.4000244141</ele>
        <time>2016-03-07T08:19:37.000Z</time>
      </trkpt>
      <trkpt lat="45.50541" lon="6.60251">
        <ele>1539.1999511719</ele>
        <time>2016-03-07T08:19:47.000Z</time>
      </trkpt>
      <trkpt lat="45.5054" lon="6.60252">
        <ele>1539.4000244141</ele>
        <time>2016-03-07T08:19:49.000Z</time>
      </trkpt>
      <trkpt lat="45.50538" lon="6.60253">
        <ele>1539.8000488281</ele>
        <time>2016-03-07T08:19:53.000Z</time>
      </trkpt>
      <trkpt lat="45.50535" lon="6.6025">
        <ele>1540.4000244141</ele>
        <time>2016-03-07T08:19:57.000Z</time>
      </trkpt>
      <trkpt lat="45.50531" lon="6.60251">
        <ele>1541</ele>
        <time>2016-03-07T08:20:02.000Z</time>
      </trkpt>
      <trkpt lat="45.50531" lon="6.60253">
        <ele>1541.5999755859</ele>
        <time>2016-03-07T08:20:04.000Z</time>
      </trkpt>
      <trkpt lat="45.50531" lon="6.60258">
        <ele>1542.5999755859</ele>
        <time>2016-03-07T08:20:08.000Z</time>
      </trkpt>
      <trkpt lat="45.50531" lon="6.60261">
        <ele>1543</ele>
        <time>2016-03-07T08:20:10.000Z</time>
      </trkpt>
      <trkpt lat="45.50531" lon="6.60266">
        <ele>1543.8000488281</ele>
        <time>2016-03-07T08:20:14.000Z</time>
      </trkpt>
      <trkpt lat="45.50531" lon="6.60267">
        <ele>1544</ele>
        <time>2016-03-07T08:20:15.000Z</time>
      </trkpt>
      <trkpt lat="45.50533" lon="6.6027">
        <ele>1544.8000488281</ele>
        <time>2016-03-07T08:20:19.000Z</time>
      </trkpt>
      <trkpt lat="45.50535" lon="6.60271">
        <ele>1545.4000244141</ele>
        <time>2016-03-07T08:20:22.000Z</time>
      </trkpt>
      <trkpt lat="45.50538" lon="6.60274">
        <ele>1546</ele>
        <time>2016-03-07T08:20:26.000Z</time>
      </trkpt>
      <trkpt lat="45.50539" lon="6.60275">
        <ele>1546.5999755859</ele>
        <time>2016-03-07T08:20:29.000Z</time>
      </trkpt>
      <trkpt lat="45.50539" lon="6.60275">
        <ele>1547</ele>
        <time>2016-03-07T08:20:30.000Z</time>
      </trkpt>
      <trkpt lat="45.50542" lon="6.6028">
        <ele>1548</ele>
        <time>2016-03-07T08:20:35.000Z</time>
      </trkpt>
      <trkpt lat="45.50542" lon="6.60281">
        <ele>1548.1999511719</ele>
        <time>2016-03-07T08:20:36.000Z</time>
      </trkpt>
      <trkpt lat="45.50546" lon="6.60286">
        <ele>1549.1999511719</ele>
        <time>2016-03-07T08:20:42.000Z</time>
      </trkpt>
      <trkpt lat="45.50548" lon="6.60289">
        <ele>1549.5999755859</ele>
        <time>2016-03-07T08:20:45.000Z</time>
      </trkpt>
      <trkpt lat="45.5055" lon="6.60291">
        <ele>1550.1999511719</ele>
        <time>2016-03-07T08:20:49.000Z</time>
      </trkpt>
      <trkpt lat="45.50551" lon="6.60293">
        <ele>1550.5999755859</ele>
        <time>2016-03-07T08:20:51.000Z</time>
      </trkpt>
      <trkpt lat="45.50552" lon="6.60296">
        <ele>1551.4000244141</ele>
        <time>2016-03-07T08:20:55.000Z</time>
      </trkpt>
      <trkpt lat="45.50552" lon="6.60296">
        <ele>1551.5999755859</ele>
        <time>2016-03-07T08:20:56.000Z</time>
      </trkpt>
      <trkpt lat="45.50553" lon="6.60298">
        <ele>1552.4000244141</ele>
        <time>2016-03-07T08:21:01.000Z</time>
      </trkpt>
      <trkpt lat="45.50553" lon="6.60298">
        <ele>1552.5999755859</ele>
        <time>2016-03-07T08:21:02.000Z</time>
      </trkpt>
      <trkpt lat="45.50553" lon="6.60307">
        <ele>1553.5999755859</ele>
        <time>2016-03-07T08:21:08.000Z</time>
      </trkpt>
      <trkpt lat="45.50553" lon="6.60308">
        <ele>1553.8000488281</ele>
        <time>2016-03-07T08:21:09.000Z</time>
      </trkpt>
      <trkpt lat="45.50552" lon="6.60311">
        <ele>1554.8000488281</ele>
        <time>2016-03-07T08:21:13.000Z</time>
      </trkpt>
      <trkpt lat="45.50551" lon="6.60314">
        <ele>1555.8000488281</ele>
        <time>2016-03-07T08:21:17.000Z</time>
      </trkpt>
      <trkpt lat="45.50551" lon="6.60314">
        <ele>1556</ele>
        <time>2016-03-07T08:21:18.000Z</time>
      </trkpt>
      <trkpt lat="45.50554" lon="6.60317">
        <ele>1557.1999511719</ele>
        <time>2016-03-07T08:21:23.000Z</time>
      </trkpt>
      <trkpt lat="45.50554" lon="6.60318">
        <ele>1557.4000244141</ele>
        <time>2016-03-07T08:21:24.000Z</time>
      </trkpt>
      <trkpt lat="45.50558" lon="6.60318">
        <ele>1558.1999511719</ele>
        <time>2016-03-07T08:21:28.000Z</time>
      </trkpt>
      <trkpt lat="45.50561" lon="6.60319">
        <ele>1558.8000488281</ele>
        <time>2016-03-07T08:21:31.000Z</time>
      </trkpt>
      <trkpt lat="45.50563" lon="6.6032">
        <ele>1559.4000244141</ele>
        <time>2016-03-07T08:21:34.000Z</time>
      </trkpt>
      <trkpt lat="45.50564" lon="6.60322">
        <ele>1559.8000488281</ele>
        <time>2016-03-07T08:21:37.000Z</time>
      </trkpt>
      <trkpt lat="45.50567" lon="6.60324">
        <ele>1560.4000244141</ele>
        <time>2016-03-07T08:21:41.000Z</time>
      </trkpt>
      <trkpt lat="45.50569" lon="6.60326">
        <ele>1561.1999511719</ele>
        <time>2016-03-07T08:21:44.000Z</time>
      </trkpt>
      <trkpt lat="45.50571" lon="6.60327">
        <ele>1561.5999755859</ele>
        <time>2016-03-07T08:21:46.000Z</time>
      </trkpt>
      <trkpt lat="45.50573" lon="6.60329">
        <ele>1562.8000488281</ele>
        <time>2016-03-07T08:21:52.000Z</time>
      </trkpt>
      <trkpt lat="45.50574" lon="6.60329">
        <ele>1562.8000488281</ele>
        <time>2016-03-07T08:21:53.000Z</time>
      </trkpt>
      <trkpt lat="45.50578" lon="6.60329">
        <ele>1563.8000488281</ele>
        <time>2016-03-07T08:21:59.000Z</time>
      </trkpt>
      <trkpt lat="45.50581" lon="6.60331">
        <ele>1564.5999755859</ele>
        <time>2016-03-07T08:22:02.000Z</time>
      </trkpt>
      <trkpt lat="45.50583" lon="6.60333">
        <ele>1565</ele>
        <time>2016-03-07T08:22:04.000Z</time>
      </trkpt>
      <trkpt lat="45.50585" lon="6.60338">
        <ele>1566.1999511719</ele>
        <time>2016-03-07T08:22:10.000Z</time>
      </trkpt>
      <trkpt lat="45.50584" lon="6.6034">
        <ele>1567.1999511719</ele>
        <time>2016-03-07T08:22:15.000Z</time>
      </trkpt>
      <trkpt lat="45.50585" lon="6.60343">
        <ele>1567.8000488281</ele>
        <time>2016-03-07T08:22:18.000Z</time>
      </trkpt>
      <trkpt lat="45.50585" lon="6.60345">
        <ele>1568.1999511719</ele>
        <time>2016-03-07T08:22:20.000Z</time>
      </trkpt>
      <trkpt lat="45.50586" lon="6.60348">
        <ele>1569.1999511719</ele>
        <time>2016-03-07T08:22:24.000Z</time>
      </trkpt>
      <trkpt lat="45.50587" lon="6.60349">
        <ele>1569.4000244141</ele>
        <time>2016-03-07T08:22:25.000Z</time>
      </trkpt>
      <trkpt lat="45.50589" lon="6.60351">
        <ele>1570.4000244141</ele>
        <time>2016-03-07T08:22:30.000Z</time>
      </trkpt>
      <trkpt lat="45.5059" lon="6.60352">
        <ele>1571</ele>
        <time>2016-03-07T08:22:32.000Z</time>
      </trkpt>
      <trkpt lat="45.50592" lon="6.60354">
        <ele>1571.5999755859</ele>
        <time>2016-03-07T08:22:35.000Z</time>
      </trkpt>
      <trkpt lat="45.50593" lon="6.60355">
        <ele>1572</ele>
        <time>2016-03-07T08:22:37.000Z</time>
      </trkpt>
      <trkpt lat="45.50594" lon="6.60359">
        <ele>1572.8000488281</ele>
        <time>2016-03-07T08:22:41.000Z</time>
      </trkpt>
      <trkpt lat="45.50595" lon="6.60363">
        <ele>1573.8000488281</ele>
        <time>2016-03-07T08:22:45.000Z</time>
      </trkpt>
      <trkpt lat="45.50595" lon="6.60364">
        <ele>1574</ele>
        <time>2016-03-07T08:22:46.000Z</time>
      </trkpt>
      <trkpt lat="45.50593" lon="6.60365">
        <ele>1575</ele>
        <time>2016-03-07T08:22:51.000Z</time>
      </trkpt>
      <trkpt lat="45.50591" lon="6.60364">
        <ele>1576</ele>
        <time>2016-03-07T08:22:55.000Z</time>
      </trkpt>
      <trkpt lat="45.50591" lon="6.60364">
        <ele>1576.1999511719</ele>
        <time>2016-03-07T08:22:56.000Z</time>
      </trkpt>
      <trkpt lat="45.50588" lon="6.60364">
        <ele>1577</ele>
        <time>2016-03-07T08:23:00.000Z</time>
      </trkpt>
      <trkpt lat="45.50587" lon="6.60365">
        <ele>1577.4000244141</ele>
        <time>2016-03-07T08:23:02.000Z</time>
      </trkpt>
      <trkpt lat="45.50587" lon="6.60364">
        <ele>1578</ele>
        <time>2016-03-07T08:23:05.000Z</time>
      </trkpt>
      <trkpt lat="45.50586" lon="6.60365">
        <ele>1578.4000244141</ele>
        <time>2016-03-07T08:23:07.000Z</time>
      </trkpt>
      <trkpt lat="45.50584" lon="6.60366">
        <ele>1579</ele>
        <time>2016-03-07T08:23:10.000Z</time>
      </trkpt>
      <trkpt lat="45.50583" lon="6.60367">
        <ele>1579.4000244141</ele>
        <time>2016-03-07T08:23:12.000Z</time>
      </trkpt>
      <trkpt lat="45.5058" lon="6.60369">
        <ele>1580.1999511719</ele>
        <time>2016-03-07T08:23:15.000Z</time>
      </trkpt>
      <trkpt lat="45.50579" lon="6.6037">
        <ele>1580.8000488281</ele>
        <time>2016-03-07T08:23:18.000Z</time>
      </trkpt>
      <trkpt lat="45.50578" lon="6.6037">
        <ele>1581.1999511719</ele>
        <time>2016-03-07T08:23:19.000Z</time>
      </trkpt>
      <trkpt lat="45.50577" lon="6.60373">
        <ele>1582.1999511719</ele>
        <time>2016-03-07T08:23:24.000Z</time>
      </trkpt>
      <trkpt lat="45.50577" lon="6.60374">
        <ele>1582.4000244141</ele>
        <time>2016-03-07T08:23:25.000Z</time>
      </trkpt>
      <trkpt lat="45.50577" lon="6.60377">
        <ele>1583.4000244141</ele>
        <time>2016-03-07T08:23:29.000Z</time>
      </trkpt>
      <trkpt lat="45.50579" lon="6.60377">
        <ele>1584</ele>
        <time>2016-03-07T08:23:32.000Z</time>
      </trkpt>
      <trkpt lat="45.50581" lon="6.60377">
        <ele>1584.5999755859</ele>
        <time>2016-03-07T08:23:35.000Z</time>
      </trkpt>
      <trkpt lat="45.50584" lon="6.60378">
        <ele>1585.4000244141</ele>
        <time>2016-03-07T08:23:39.000Z</time>
      </trkpt>
      <trkpt lat="45.50585" lon="6.60379">
        <ele>1585.5999755859</ele>
        <time>2016-03-07T08:23:40.000Z</time>
      </trkpt>
      <trkpt lat="45.50588" lon="6.60381">
        <ele>1586.5999755859</ele>
        <time>2016-03-07T08:23:44.000Z</time>
      </trkpt>
      <trkpt lat="45.50589" lon="6.60382">
        <ele>1587.1999511719</ele>
        <time>2016-03-07T08:23:47.000Z</time>
      </trkpt>
      <trkpt lat="45.50591" lon="6.60384">
        <ele>1587.8000488281</ele>
        <time>2016-03-07T08:23:50.000Z</time>
      </trkpt>
      <trkpt lat="45.50596" lon="6.6039">
        <ele>1588.8000488281</ele>
        <time>2016-03-07T08:23:57.000Z</time>
      </trkpt>
      <trkpt lat="45.50597" lon="6.60394">
        <ele>1590</ele>
        <time>2016-03-07T08:24:04.000Z</time>
      </trkpt>
      <trkpt lat="45.50598" lon="6.60394">
        <ele>1590.1999511719</ele>
        <time>2016-03-07T08:24:05.000Z</time>
      </trkpt>
      <trkpt lat="45.50599" lon="6.60396">
        <ele>1591</ele>
        <time>2016-03-07T08:24:08.000Z</time>
      </trkpt>
      <trkpt lat="45.506" lon="6.60398">
        <ele>1591.5999755859</ele>
        <time>2016-03-07T08:24:11.000Z</time>
      </trkpt>
      <trkpt lat="45.50601" lon="6.604">
        <ele>1592.1999511719</ele>
        <time>2016-03-07T08:24:14.000Z</time>
      </trkpt>
      <trkpt lat="45.50602" lon="6.60403">
        <ele>1592.4000244141</ele>
        <time>2016-03-07T08:24:16.000Z</time>
      </trkpt>
      <trkpt lat="45.50603" lon="6.60404">
        <ele>1593.1999511719</ele>
        <time>2016-03-07T08:24:19.000Z</time>
      </trkpt>
      <trkpt lat="45.50603" lon="6.60404">
        <ele>1593.4000244141</ele>
        <time>2016-03-07T08:24:20.000Z</time>
      </trkpt>
      <trkpt lat="45.50606" lon="6.60409">
        <ele>1594.1999511719</ele>
        <time>2016-03-07T08:24:24.000Z</time>
      </trkpt>
      <trkpt lat="45.50607" lon="6.6041">
        <ele>1594.4000244141</ele>
        <time>2016-03-07T08:24:25.000Z</time>
      </trkpt>
      <trkpt lat="45.50609" lon="6.60413">
        <ele>1595.1999511719</ele>
        <time>2016-03-07T08:24:29.000Z</time>
      </trkpt>
      <trkpt lat="45.5061" lon="6.60413">
        <ele>1595.4000244141</ele>
        <time>2016-03-07T08:24:30.000Z</time>
      </trkpt>
      <trkpt lat="45.50613" lon="6.60415">
        <ele>1596.4000244141</ele>
        <time>2016-03-07T08:24:34.000Z</time>
      </trkpt>
      <trkpt lat="45.50614" lon="6.60416">
        <ele>1597</ele>
        <time>2016-03-07T08:24:37.000Z</time>
      </trkpt>
      <trkpt lat="45.50616" lon="6.60416">
        <ele>1597.4000244141</ele>
        <time>2016-03-07T08:24:40.000Z</time>
      </trkpt>
      <trkpt lat="45.50618" lon="6.60418">
        <ele>1598.5999755859</ele>
        <time>2016-03-07T08:24:45.000Z</time>
      </trkpt>
      <trkpt lat="45.50622" lon="6.60422">
        <ele>1599.5999755859</ele>
        <time>2016-03-07T08:24:53.000Z</time>
      </trkpt>
      <trkpt lat="45.50623" lon="6.60423">
        <ele>1599.8000488281</ele>
        <time>2016-03-07T08:24:54.000Z</time>
      </trkpt>
      <trkpt lat="45.50625" lon="6.60427">
        <ele>1601</ele>
        <time>2016-03-07T08:24:58.000Z</time>
      </trkpt>
      <trkpt lat="45.50625" lon="6.6043">
        <ele>1601.5999755859</ele>
        <time>2016-03-07T08:25:02.000Z</time>
      </trkpt>
      <trkpt lat="45.50627" lon="6.6043">
        <ele>1602</ele>
        <time>2016-03-07T08:25:04.000Z</time>
      </trkpt>
      <trkpt lat="45.50628" lon="6.60435">
        <ele>1602.8000488281</ele>
        <time>2016-03-07T08:25:08.000Z</time>
      </trkpt>
      <trkpt lat="45.50629" lon="6.60435">
        <ele>1603</ele>
        <time>2016-03-07T08:25:09.000Z</time>
      </trkpt>
      <trkpt lat="45.50633" lon="6.60439">
        <ele>1604.1999511719</ele>
        <time>2016-03-07T08:25:15.000Z</time>
      </trkpt>
      <trkpt lat="45.50635" lon="6.60439">
        <ele>1604.5999755859</ele>
        <time>2016-03-07T08:25:18.000Z</time>
      </trkpt>
      <trkpt lat="45.50637" lon="6.60439">
        <ele>1605.1999511719</ele>
        <time>2016-03-07T08:25:20.000Z</time>
      </trkpt>
      <trkpt lat="45.5064" lon="6.6044">
        <ele>1606.4000244141</ele>
        <time>2016-03-07T08:25:25.000Z</time>
      </trkpt>
      <trkpt lat="45.50642" lon="6.60442">
        <ele>1606.8000488281</ele>
        <time>2016-03-07T08:25:27.000Z</time>
      </trkpt>
      <trkpt lat="45.50642" lon="6.60443">
        <ele>1607.4000244141</ele>
        <time>2016-03-07T08:25:30.000Z</time>
      </trkpt>
      <trkpt lat="45.50642" lon="6.60445">
        <ele>1608.1999511719</ele>
        <time>2016-03-07T08:25:34.000Z</time>
      </trkpt>
      <trkpt lat="45.50643" lon="6.60446">
        <ele>1608.5999755859</ele>
        <time>2016-03-07T08:25:36.000Z</time>
      </trkpt>
      <trkpt lat="45.50646" lon="6.60447">
        <ele>1609.8000488281</ele>
        <time>2016-03-07T08:25:41.000Z</time>
      </trkpt>
      <trkpt lat="45.50647" lon="6.60447">
        <ele>1610</ele>
        <time>2016-03-07T08:25:42.000Z</time>
      </trkpt>
      <trkpt lat="45.5065" lon="6.60447">
        <ele>1610.8000488281</ele>
        <time>2016-03-07T08:25:46.000Z</time>
      </trkpt>
      <trkpt lat="45.50652" lon="6.60449">
        <ele>1611.8000488281</ele>
        <time>2016-03-07T08:25:51.000Z</time>
      </trkpt>
      <trkpt lat="45.50653" lon="6.6045">
        <ele>1612</ele>
        <time>2016-03-07T08:25:52.000Z</time>
      </trkpt>
      <trkpt lat="45.50655" lon="6.60455">
        <ele>1613.1999511719</ele>
        <time>2016-03-07T08:25:58.000Z</time>
      </trkpt>
      <trkpt lat="45.50655" lon="6.60456">
        <ele>1613.4000244141</ele>
        <time>2016-03-07T08:25:59.000Z</time>
      </trkpt>
      <trkpt lat="45.50652" lon="6.60458">
        <ele>1614.4000244141</ele>
        <time>2016-03-07T08:26:03.000Z</time>
      </trkpt>
      <trkpt lat="45.50651" lon="6.60459">
        <ele>1614.8000488281</ele>
        <time>2016-03-07T08:26:05.000Z</time>
      </trkpt>
      <trkpt lat="45.50648" lon="6.60461">
        <ele>1615.5999755859</ele>
        <time>2016-03-07T08:26:08.000Z</time>
      </trkpt>
      <trkpt lat="45.50646" lon="6.60461">
        <ele>1616</ele>
        <time>2016-03-07T08:26:10.000Z</time>
      </trkpt>
      <trkpt lat="45.50643" lon="6.60462">
        <ele>1616.5999755859</ele>
        <time>2016-03-07T08:26:14.000Z</time>
      </trkpt>
      <trkpt lat="45.50642" lon="6.60462">
        <ele>1616.8000488281</ele>
        <time>2016-03-07T08:26:15.000Z</time>
      </trkpt>
      <trkpt lat="45.50639" lon="6.60461">
        <ele>1617.5999755859</ele>
        <time>2016-03-07T08:26:20.000Z</time>
      </trkpt>
      <trkpt lat="45.50638" lon="6.60461">
        <ele>1617.8000488281</ele>
        <time>2016-03-07T08:26:21.000Z</time>
      </trkpt>
      <trkpt lat="45.50636" lon="6.60461">
        <ele>1618.4000244141</ele>
        <time>2016-03-07T08:26:24.000Z</time>
      </trkpt>
      <trkpt lat="45.50634" lon="6.60461">
        <ele>1618.8000488281</ele>
        <time>2016-03-07T08:26:26.000Z</time>
      </trkpt>
      <trkpt lat="45.50632" lon="6.6046">
        <ele>1619.1999511719</ele>
        <time>2016-03-07T08:26:29.000Z</time>
      </trkpt>
      <trkpt lat="45.5063" lon="6.60459">
        <ele>1619.8000488281</ele>
        <time>2016-03-07T08:26:31.000Z</time>
      </trkpt>
      <trkpt lat="45.50628" lon="6.60459">
        <ele>1620.4000244141</ele>
        <time>2016-03-07T08:26:34.000Z</time>
      </trkpt>
      <trkpt lat="45.50625" lon="6.60459">
        <ele>1621</ele>
        <time>2016-03-07T08:26:37.000Z</time>
      </trkpt>
      <trkpt lat="45.50623" lon="6.60459">
        <ele>1621.4000244141</ele>
        <time>2016-03-07T08:26:40.000Z</time>
      </trkpt>
      <trkpt lat="45.50621" lon="6.6046">
        <ele>1622</ele>
        <time>2016-03-07T08:26:44.000Z</time>
      </trkpt>
      <trkpt lat="45.50619" lon="6.6046">
        <ele>1622.4000244141</ele>
        <time>2016-03-07T08:26:47.000Z</time>
      </trkpt>
      <trkpt lat="45.50616" lon="6.60462">
        <ele>1623.1999511719</ele>
        <time>2016-03-07T08:26:52.000Z</time>
      </trkpt>
      <trkpt lat="45.50612" lon="6.60462">
        <ele>1624</ele>
        <time>2016-03-07T08:26:57.000Z</time>
      </trkpt>
      <trkpt lat="45.50611" lon="6.60461">
        <ele>1624.1999511719</ele>
        <time>2016-03-07T08:26:58.000Z</time>
      </trkpt>
      <trkpt lat="45.50609" lon="6.60461">
        <ele>1625</ele>
        <time>2016-03-07T08:27:02.000Z</time>
      </trkpt>
      <trkpt lat="45.50607" lon="6.60461">
        <ele>1625.1999511719</ele>
        <time>2016-03-07T08:27:04.000Z</time>
      </trkpt>
      <trkpt lat="45.50602" lon="6.60463">
        <ele>1626</ele>
        <time>2016-03-07T08:27:09.000Z</time>
      </trkpt>
      <trkpt lat="45.50599" lon="6.60465">
        <ele>1626.4000244141</ele>
        <time>2016-03-07T08:27:12.000Z</time>
      </trkpt>
      <trkpt lat="45.50598" lon="6.60465">
        <ele>1627</ele>
        <time>2016-03-07T08:27:15.000Z</time>
      </trkpt>
      <trkpt lat="45.50597" lon="6.60466">
        <ele>1627.4000244141</ele>
        <time>2016-03-07T08:27:17.000Z</time>
      </trkpt>
      <trkpt lat="45.50594" lon="6.60466">
        <ele>1628.1999511719</ele>
        <time>2016-03-07T08:27:20.000Z</time>
      </trkpt>
      <trkpt lat="45.5059" lon="6.60466">
        <ele>1628.5999755859</ele>
        <time>2016-03-07T08:27:23.000Z</time>
      </trkpt>
      <trkpt lat="45.50589" lon="6.60466">
        <ele>1628.8000488281</ele>
        <time>2016-03-07T08:27:25.000Z</time>
      </trkpt>
      <trkpt lat="45.50584" lon="6.60468">
        <ele>1629.5999755859</ele>
        <time>2016-03-07T08:27:31.000Z</time>
      </trkpt>
      <trkpt lat="45.50582" lon="6.60469">
        <ele>1629.5999755859</ele>
        <time>2016-03-07T08:27:32.000Z</time>
      </trkpt>
      <trkpt lat="45.50578" lon="6.60471">
        <ele>1630.1999511719</ele>
        <time>2016-03-07T08:27:38.000Z</time>
      </trkpt>
      <trkpt lat="45.50573" lon="6.6047">
        <ele>1630.8000488281</ele>
        <time>2016-03-07T08:27:43.000Z</time>
      </trkpt>
      <trkpt lat="45.5057" lon="6.6047">
        <ele>1631.1999511719</ele>
        <time>2016-03-07T08:27:46.000Z</time>
      </trkpt>
      <trkpt lat="45.50567" lon="6.60469">
        <ele>1631.8000488281</ele>
        <time>2016-03-07T08:27:50.000Z</time>
      </trkpt>
      <trkpt lat="45.50565" lon="6.60469">
        <ele>1632.1999511719</ele>
        <time>2016-03-07T08:27:53.000Z</time>
      </trkpt>
      <trkpt lat="45.50557" lon="6.60468">
        <ele>1632.5999755859</ele>
        <time>2016-03-07T08:28:01.000Z</time>
      </trkpt>
      <trkpt lat="45.50555" lon="6.60466">
        <ele>1633</ele>
        <time>2016-03-07T08:28:03.000Z</time>
      </trkpt>
      <trkpt lat="45.50553" lon="6.60466">
        <ele>1634</ele>
        <time>2016-03-07T08:28:08.000Z</time>
      </trkpt>
      <trkpt lat="45.50551" lon="6.60471">
        <ele>1634.5999755859</ele>
        <time>2016-03-07T08:28:15.000Z</time>
      </trkpt>
      <trkpt lat="45.50552" lon="6.60474">
        <ele>1635.1999511719</ele>
        <time>2016-03-07T08:28:19.000Z</time>
      </trkpt>
      <trkpt lat="45.50554" lon="6.60477">
        <ele>1635.8000488281</ele>
        <time>2016-03-07T08:28:22.000Z</time>
      </trkpt>
      <trkpt lat="45.50555" lon="6.60478">
        <ele>1636.1999511719</ele>
        <time>2016-03-07T08:28:24.000Z</time>
      </trkpt>
      <trkpt lat="45.50562" lon="6.60482">
        <ele>1637</ele>
        <time>2016-03-07T08:28:32.000Z</time>
      </trkpt>
      <trkpt lat="45.50563" lon="6.60482">
        <ele>1637.1999511719</ele>
        <time>2016-03-07T08:28:33.000Z</time>
      </trkpt>
      <trkpt lat="45.50568" lon="6.60484">
        <ele>1638</ele>
        <time>2016-03-07T08:28:39.000Z</time>
      </trkpt>
      <trkpt lat="45.50572" lon="6.60487">
        <ele>1638.1999511719</ele>
        <time>2016-03-07T08:28:43.000Z</time>
      </trkpt>
      <trkpt lat="45.50574" lon="6.6049">
        <ele>1639</ele>
        <time>2016-03-07T08:28:46.000Z</time>
      </trkpt>
      <trkpt lat="45.50575" lon="6.60492">
        <ele>1639.4000244141</ele>
        <time>2016-03-07T08:28:48.000Z</time>
      </trkpt>
      <trkpt lat="45.50581" lon="6.60495">
        <ele>1640.1999511719</ele>
        <time>2016-03-07T08:28:54.000Z</time>
      </trkpt>
      <trkpt lat="45.50582" lon="6.60495">
        <ele>1640.4000244141</ele>
        <time>2016-03-07T08:28:55.000Z</time>
      </trkpt>
      <trkpt lat="45.50586" lon="6.60496">
        <ele>1641.5999755859</ele>
        <time>2016-03-07T08:29:00.000Z</time>
      </trkpt>
      <trkpt lat="45.50589" lon="6.60497">
        <ele>1642.1999511719</ele>
        <time>2016-03-07T08:29:03.000Z</time>
      </trkpt>
      <trkpt lat="45.50591" lon="6.60496">
        <ele>1642.8000488281</ele>
        <time>2016-03-07T08:29:05.000Z</time>
      </trkpt>
      <trkpt lat="45.50594" lon="6.60498">
        <ele>1643.5999755859</ele>
        <time>2016-03-07T08:29:10.000Z</time>
      </trkpt>
      <trkpt lat="45.50594" lon="6.60498">
        <ele>1643.8000488281</ele>
        <time>2016-03-07T08:29:11.000Z</time>
      </trkpt>
      <trkpt lat="45.50599" lon="6.60502">
        <ele>1645</ele>
        <time>2016-03-07T08:29:17.000Z</time>
      </trkpt>
      <trkpt lat="45.50602" lon="6.60506">
        <ele>1646</ele>
        <time>2016-03-07T08:29:22.000Z</time>
      </trkpt>
      <trkpt lat="45.50603" lon="6.60506">
        <ele>1646.1999511719</ele>
        <time>2016-03-07T08:29:23.000Z</time>
      </trkpt>
      <trkpt lat="45.50607" lon="6.60508">
        <ele>1647</ele>
        <time>2016-03-07T08:29:30.000Z</time>
      </trkpt>
      <trkpt lat="45.50607" lon="6.6051">
        <ele>1647.1999511719</ele>
        <time>2016-03-07T08:29:31.000Z</time>
      </trkpt>
      <trkpt lat="45.50607" lon="6.60513">
        <ele>1648.1999511719</ele>
        <time>2016-03-07T08:29:35.000Z</time>
      </trkpt>
      <trkpt lat="45.50606" lon="6.60515">
        <ele>1648.5999755859</ele>
        <time>2016-03-07T08:29:38.000Z</time>
      </trkpt>
      <trkpt lat="45.50604" lon="6.60515">
        <ele>1649.1999511719</ele>
        <time>2016-03-07T08:29:41.000Z</time>
      </trkpt>
      <trkpt lat="45.506" lon="6.60513">
        <ele>1650.4000244141</ele>
        <time>2016-03-07T08:29:45.000Z</time>
      </trkpt>
      <trkpt lat="45.50597" lon="6.60512">
        <ele>1651.4000244141</ele>
        <time>2016-03-07T08:29:51.000Z</time>
      </trkpt>
      <trkpt lat="45.50595" lon="6.60512">
        <ele>1651.5999755859</ele>
        <time>2016-03-07T08:29:52.000Z</time>
      </trkpt>
      <trkpt lat="45.50593" lon="6.60511">
        <ele>1652</ele>
        <time>2016-03-07T08:29:55.000Z</time>
      </trkpt>
      <trkpt lat="45.5059" lon="6.6051">
        <ele>1652.5999755859</ele>
        <time>2016-03-07T08:29:58.000Z</time>
      </trkpt>
      <trkpt lat="45.50587" lon="6.60509">
        <ele>1653.1999511719</ele>
        <time>2016-03-07T08:30:01.000Z</time>
      </trkpt>
      <trkpt lat="45.50586" lon="6.60509">
        <ele>1653.8000488281</ele>
        <time>2016-03-07T08:30:03.000Z</time>
      </trkpt>
      <trkpt lat="45.50582" lon="6.60511">
        <ele>1654.8000488281</ele>
        <time>2016-03-07T08:30:07.000Z</time>
      </trkpt>
      <trkpt lat="45.50581" lon="6.60511">
        <ele>1654.8000488281</ele>
        <time>2016-03-07T08:30:08.000Z</time>
      </trkpt>
      <trkpt lat="45.50575" lon="6.60514">
        <ele>1655.5999755859</ele>
        <time>2016-03-07T08:30:15.000Z</time>
      </trkpt>
      <trkpt lat="45.50575" lon="6.60515">
        <ele>1655.8000488281</ele>
        <time>2016-03-07T08:30:16.000Z</time>
      </trkpt>
      <trkpt lat="45.50571" lon="6.60516">
        <ele>1657</ele>
        <time>2016-03-07T08:30:21.000Z</time>
      </trkpt>
      <trkpt lat="45.50569" lon="6.60516">
        <ele>1657.1999511719</ele>
        <time>2016-03-07T08:30:22.000Z</time>
      </trkpt>
      <trkpt lat="45.50567" lon="6.60515">
        <ele>1657.8000488281</ele>
        <time>2016-03-07T08:30:27.000Z</time>
      </trkpt>
      <trkpt lat="45.50566" lon="6.60515">
        <ele>1658</ele>
        <time>2016-03-07T08:30:28.000Z</time>
      </trkpt>
      <trkpt lat="45.50564" lon="6.60515">
        <ele>1659</ele>
        <time>2016-03-07T08:30:31.000Z</time>
      </trkpt>
      <trkpt lat="45.50562" lon="6.60516">
        <ele>1659.4000244141</ele>
        <time>2016-03-07T08:30:33.000Z</time>
      </trkpt>
      <trkpt lat="45.5056" lon="6.60517">
        <ele>1660.1999511719</ele>
        <time>2016-03-07T08:30:38.000Z</time>
      </trkpt>
      <trkpt lat="45.50555" lon="6.60519">
        <ele>1661.1999511719</ele>
        <time>2016-03-07T08:30:44.000Z</time>
      </trkpt>
      <trkpt lat="45.50555" lon="6.6052">
        <ele>1661.4000244141</ele>
        <time>2016-03-07T08:30:45.000Z</time>
      </trkpt>
      <trkpt lat="45.50552" lon="6.60523">
        <ele>1662.1999511719</ele>
        <time>2016-03-07T08:30:50.000Z</time>
      </trkpt>
      <trkpt lat="45.50551" lon="6.60524">
        <ele>1662.4000244141</ele>
        <time>2016-03-07T08:30:51.000Z</time>
      </trkpt>
      <trkpt lat="45.50549" lon="6.60524">
        <ele>1663.4000244141</ele>
        <time>2016-03-07T08:30:55.000Z</time>
      </trkpt>
      <trkpt lat="45.50547" lon="6.60524">
        <ele>1663.8000488281</ele>
        <time>2016-03-07T08:30:57.000Z</time>
      </trkpt>
      <trkpt lat="45.50542" lon="6.60526">
        <ele>1664.4000244141</ele>
        <time>2016-03-07T08:31:04.000Z</time>
      </trkpt>
      <trkpt lat="45.50542" lon="6.60526">
        <ele>1664.8000488281</ele>
        <time>2016-03-07T08:31:05.000Z</time>
      </trkpt>
      <trkpt lat="45.50539" lon="6.60526">
        <ele>1665.4000244141</ele>
        <time>2016-03-07T08:31:09.000Z</time>
      </trkpt>
      <trkpt lat="45.50539" lon="6.60526">
        <ele>1665.5999755859</ele>
        <time>2016-03-07T08:31:10.000Z</time>
      </trkpt>
      <trkpt lat="45.50537" lon="6.60528">
        <ele>1666.5999755859</ele>
        <time>2016-03-07T08:31:15.000Z</time>
      </trkpt>
      <trkpt lat="45.50536" lon="6.60527">
        <ele>1666.8000488281</ele>
        <time>2016-03-07T08:31:16.000Z</time>
      </trkpt>
      <trkpt lat="45.50533" lon="6.60529">
        <ele>1667.8000488281</ele>
        <time>2016-03-07T08:31:20.000Z</time>
      </trkpt>
      <trkpt lat="45.50532" lon="6.60529">
        <ele>1668</ele>
        <time>2016-03-07T08:31:22.000Z</time>
      </trkpt>
      <trkpt lat="45.50527" lon="6.6053">
        <ele>1668.8000488281</ele>
        <time>2016-03-07T08:31:27.000Z</time>
      </trkpt>
      <trkpt lat="45.50526" lon="6.60532">
        <ele>1669.1999511719</ele>
        <time>2016-03-07T08:31:29.000Z</time>
      </trkpt>
      <trkpt lat="45.50525" lon="6.60532">
        <ele>1669.8000488281</ele>
        <time>2016-03-07T08:31:32.000Z</time>
      </trkpt>
      <trkpt lat="45.50523" lon="6.60532">
        <ele>1670.4000244141</ele>
        <time>2016-03-07T08:31:35.000Z</time>
      </trkpt>
      <trkpt lat="45.50521" lon="6.60533">
        <ele>1671</ele>
        <time>2016-03-07T08:31:38.000Z</time>
      </trkpt>
      <trkpt lat="45.50515" lon="6.60533">
        <ele>1672</ele>
        <time>2016-03-07T08:31:44.000Z</time>
      </trkpt>
      <trkpt lat="45.50511" lon="6.60537">
        <ele>1673.1999511719</ele>
        <time>2016-03-07T08:31:51.000Z</time>
      </trkpt>
      <trkpt lat="45.5051" lon="6.60538">
        <ele>1673.1999511719</ele>
        <time>2016-03-07T08:31:52.000Z</time>
      </trkpt>
      <trkpt lat="45.50506" lon="6.6054">
        <ele>1674.1999511719</ele>
        <time>2016-03-07T08:31:58.000Z</time>
      </trkpt>
      <trkpt lat="45.50505" lon="6.60541">
        <ele>1674.5999755859</ele>
        <time>2016-03-07T08:32:01.000Z</time>
      </trkpt>
      <trkpt lat="45.50503" lon="6.6054">
        <ele>1675.1999511719</ele>
        <time>2016-03-07T08:32:05.000Z</time>
      </trkpt>
      <trkpt lat="45.50501" lon="6.6054">
        <ele>1676</ele>
        <time>2016-03-07T08:32:11.000Z</time>
      </trkpt>
      <trkpt lat="45.50499" lon="6.60542">
        <ele>1676.4000244141</ele>
        <time>2016-03-07T08:32:13.000Z</time>
      </trkpt>
      <trkpt lat="45.50498" lon="6.60546">
        <ele>1677.5999755859</ele>
        <time>2016-03-07T08:32:17.000Z</time>
      </trkpt>
      <trkpt lat="45.50499" lon="6.60548">
        <ele>1678.1999511719</ele>
        <time>2016-03-07T08:32:19.000Z</time>
      </trkpt>
      <trkpt lat="45.50499" lon="6.60548">
        <ele>1678.8000488281</ele>
        <time>2016-03-07T08:32:21.000Z</time>
      </trkpt>
      <trkpt lat="45.50499" lon="6.60552">
        <ele>1679.8000488281</ele>
        <time>2016-03-07T08:32:28.000Z</time>
      </trkpt>
      <trkpt lat="45.50499" lon="6.60552">
        <ele>1680</ele>
        <time>2016-03-07T08:32:29.000Z</time>
      </trkpt>
      <trkpt lat="45.50501" lon="6.60553">
        <ele>1681</ele>
        <time>2016-03-07T08:32:33.000Z</time>
      </trkpt>
      <trkpt lat="45.50503" lon="6.60554">
        <ele>1681.8000488281</ele>
        <time>2016-03-07T08:32:37.000Z</time>
      </trkpt>
      <trkpt lat="45.50503" lon="6.60554">
        <ele>1682</ele>
        <time>2016-03-07T08:32:38.000Z</time>
      </trkpt>
      <trkpt lat="45.50504" lon="6.60554">
        <ele>1683.4000244141</ele>
        <time>2016-03-07T08:32:43.000Z</time>
      </trkpt>
      <trkpt lat="45.50504" lon="6.60554">
        <ele>1683.5999755859</ele>
        <time>2016-03-07T08:32:44.000Z</time>
      </trkpt>
      <trkpt lat="45.50512" lon="6.60558">
        <ele>1684.4000244141</ele>
        <time>2016-03-07T08:32:49.000Z</time>
      </trkpt>
      <trkpt lat="45.50516" lon="6.60559">
        <ele>1685</ele>
        <time>2016-03-07T08:32:54.000Z</time>
      </trkpt>
      <trkpt lat="45.50519" lon="6.60559">
        <ele>1685.4000244141</ele>
        <time>2016-03-07T08:32:57.000Z</time>
      </trkpt>
      <trkpt lat="45.50524" lon="6.60561">
        <ele>1686.8000488281</ele>
        <time>2016-03-07T08:33:02.000Z</time>
      </trkpt>
      <trkpt lat="45.50526" lon="6.60564">
        <ele>1687.8000488281</ele>
        <time>2016-03-07T08:33:07.000Z</time>
      </trkpt>
      <trkpt lat="45.50525" lon="6.60565">
        <ele>1688</ele>
        <time>2016-03-07T08:33:09.000Z</time>
      </trkpt>
      <trkpt lat="45.50522" lon="6.60567">
        <ele>1688.8000488281</ele>
        <time>2016-03-07T08:33:14.000Z</time>
      </trkpt>
      <trkpt lat="45.5052" lon="6.60566">
        <ele>1689.4000244141</ele>
        <time>2016-03-07T08:33:17.000Z</time>
      </trkpt>
      <trkpt lat="45.50518" lon="6.60567">
        <ele>1690</ele>
        <time>2016-03-07T08:33:19.000Z</time>
      </trkpt>
      <trkpt lat="45.50515" lon="6.60569">
        <ele>1690.5999755859</ele>
        <time>2016-03-07T08:33:24.000Z</time>
      </trkpt>
      <trkpt lat="45.50513" lon="6.6057">
        <ele>1691</ele>
        <time>2016-03-07T08:33:27.000Z</time>
      </trkpt>
      <trkpt lat="45.50511" lon="6.6057">
        <ele>1691.8000488281</ele>
        <time>2016-03-07T08:33:31.000Z</time>
      </trkpt>
      <trkpt lat="45.50509" lon="6.60571">
        <ele>1692.1999511719</ele>
        <time>2016-03-07T08:33:33.000Z</time>
      </trkpt>
      <trkpt lat="45.50505" lon="6.60573">
        <ele>1693</ele>
        <time>2016-03-07T08:33:39.000Z</time>
      </trkpt>
      <trkpt lat="45.50506" lon="6.60576">
        <ele>1693.1999511719</ele>
        <time>2016-03-07T08:33:41.000Z</time>
      </trkpt>
      <trkpt lat="45.50508" lon="6.6058">
        <ele>1694.4000244141</ele>
        <time>2016-03-07T08:33:45.000Z</time>
      </trkpt>
      <trkpt lat="45.50511" lon="6.60581">
        <ele>1695.4000244141</ele>
        <time>2016-03-07T08:33:49.000Z</time>
      </trkpt>
      <trkpt lat="45.50516" lon="6.60581">
        <ele>1696</ele>
        <time>2016-03-07T08:33:53.000Z</time>
      </trkpt>
      <trkpt lat="45.5052" lon="6.60581">
        <ele>1696.4000244141</ele>
        <time>2016-03-07T08:33:57.000Z</time>
      </trkpt>
      <trkpt lat="45.50522" lon="6.60581">
        <ele>1697.1999511719</ele>
        <time>2016-03-07T08:34:01.000Z</time>
      </trkpt>
      <trkpt lat="45.50524" lon="6.60581">
        <ele>1697.5999755859</ele>
        <time>2016-03-07T08:34:03.000Z</time>
      </trkpt>
      <trkpt lat="45.50527" lon="6.60584">
        <ele>1698.8000488281</ele>
        <time>2016-03-07T08:34:08.000Z</time>
      </trkpt>
      <trkpt lat="45.5053" lon="6.60586">
        <ele>1699.5999755859</ele>
        <time>2016-03-07T08:34:15.000Z</time>
      </trkpt>
      <trkpt lat="45.50531" lon="6.60587">
        <ele>1699.8000488281</ele>
        <time>2016-03-07T08:34:17.000Z</time>
      </trkpt>
      <trkpt lat="45.50534" lon="6.60589">
        <ele>1701</ele>
        <time>2016-03-07T08:34:21.000Z</time>
      </trkpt>
      <trkpt lat="45.50536" lon="6.6059">
        <ele>1701.4000244141</ele>
        <time>2016-03-07T08:34:23.000Z</time>
      </trkpt>
      <trkpt lat="45.50539" lon="6.60592">
        <ele>1702.1999511719</ele>
        <time>2016-03-07T08:34:28.000Z</time>
      </trkpt>
      <trkpt lat="45.5054" lon="6.60593">
        <ele>1702.5999755859</ele>
        <time>2016-03-07T08:34:30.000Z</time>
      </trkpt>
      <trkpt lat="45.50541" lon="6.60594">
        <ele>1703.4000244141</ele>
        <time>2016-03-07T08:34:33.000Z</time>
      </trkpt>
      <trkpt lat="45.50542" lon="6.60595">
        <ele>1703.8000488281</ele>
        <time>2016-03-07T08:34:35.000Z</time>
      </trkpt>
      <trkpt lat="45.50544" lon="6.60597">
        <ele>1704.4000244141</ele>
        <time>2016-03-07T08:34:39.000Z</time>
      </trkpt>
      <trkpt lat="45.50545" lon="6.60598">
        <ele>1705</ele>
        <time>2016-03-07T08:34:41.000Z</time>
      </trkpt>
      <trkpt lat="45.50546" lon="6.60599">
        <ele>1705.5999755859</ele>
        <time>2016-03-07T08:34:45.000Z</time>
      </trkpt>
      <trkpt lat="45.5055" lon="6.60604">
        <ele>1706.5999755859</ele>
        <time>2016-03-07T08:34:50.000Z</time>
      </trkpt>
      <trkpt lat="45.5055" lon="6.60604">
        <ele>1706.8000488281</ele>
        <time>2016-03-07T08:34:51.000Z</time>
      </trkpt>
      <trkpt lat="45.50553" lon="6.60605">
        <ele>1708</ele>
        <time>2016-03-07T08:34:57.000Z</time>
      </trkpt>
      <trkpt lat="45.50553" lon="6.60606">
        <ele>1708.1999511719</ele>
        <time>2016-03-07T08:34:58.000Z</time>
      </trkpt>
      <trkpt lat="45.50555" lon="6.60607">
        <ele>1708.8000488281</ele>
        <time>2016-03-07T08:35:00.000Z</time>
      </trkpt>
      <trkpt lat="45.50555" lon="6.60607">
        <ele>1709</ele>
        <time>2016-03-07T08:35:01.000Z</time>
      </trkpt>
      <trkpt lat="45.50556" lon="6.60608">
        <ele>1709.1999511719</ele>
        <time>2016-03-07T08:35:02.000Z</time>
      </trkpt>
      <trkpt lat="45.50558" lon="6.60609">
        <ele>1709.8000488281</ele>
        <time>2016-03-07T08:35:07.000Z</time>
      </trkpt>
      <trkpt lat="45.5056" lon="6.60609">
        <ele>1710.1999511719</ele>
        <time>2016-03-07T08:35:09.000Z</time>
      </trkpt>
      <trkpt lat="45.50562" lon="6.60611">
        <ele>1710.5999755859</ele>
        <time>2016-03-07T08:35:14.000Z</time>
      </trkpt>
      <trkpt lat="45.50565" lon="6.6061">
        <ele>1711.1999511719</ele>
        <time>2016-03-07T08:35:18.000Z</time>
      </trkpt>
      <trkpt lat="45.50566" lon="6.60611">
        <ele>1711.8000488281</ele>
        <time>2016-03-07T08:35:20.000Z</time>
      </trkpt>
      <trkpt lat="45.50567" lon="6.60611">
        <ele>1712.1999511719</ele>
        <time>2016-03-07T08:35:22.000Z</time>
      </trkpt>
      <trkpt lat="45.50571" lon="6.60612">
        <ele>1713.1999511719</ele>
        <time>2016-03-07T08:35:27.000Z</time>
      </trkpt>
      <trkpt lat="45.50571" lon="6.60612">
        <ele>1713.4000244141</ele>
        <time>2016-03-07T08:35:28.000Z</time>
      </trkpt>
      <trkpt lat="45.50574" lon="6.60614">
        <ele>1714.1999511719</ele>
        <time>2016-03-07T08:35:33.000Z</time>
      </trkpt>
      <trkpt lat="45.50574" lon="6.60614">
        <ele>1714.4000244141</ele>
        <time>2016-03-07T08:35:35.000Z</time>
      </trkpt>
      <trkpt lat="45.50576" lon="6.60616">
        <ele>1715.4000244141</ele>
        <time>2016-03-07T08:35:40.000Z</time>
      </trkpt>
      <trkpt lat="45.50577" lon="6.60617">
        <ele>1715.5999755859</ele>
        <time>2016-03-07T08:35:41.000Z</time>
      </trkpt>
      <trkpt lat="45.5058" lon="6.60618">
        <ele>1716.8000488281</ele>
        <time>2016-03-07T08:35:45.000Z</time>
      </trkpt>
      <trkpt lat="45.50582" lon="6.60619">
        <ele>1717.4000244141</ele>
        <time>2016-03-07T08:35:48.000Z</time>
      </trkpt>
      <trkpt lat="45.50584" lon="6.60621">
        <ele>1717.8000488281</ele>
        <time>2016-03-07T08:35:51.000Z</time>
      </trkpt>
      <trkpt lat="45.50586" lon="6.60622">
        <ele>1718.4000244141</ele>
        <time>2016-03-07T08:35:55.000Z</time>
      </trkpt>
      <trkpt lat="45.50587" lon="6.60625">
        <ele>1719</ele>
        <time>2016-03-07T08:35:59.000Z</time>
      </trkpt>
      <trkpt lat="45.50587" lon="6.60625">
        <ele>1719.1999511719</ele>
        <time>2016-03-07T08:36:00.000Z</time>
      </trkpt>
      <trkpt lat="45.50586" lon="6.60625">
        <ele>1720.1999511719</ele>
        <time>2016-03-07T08:36:07.000Z</time>
      </trkpt>
      <trkpt lat="45.50585" lon="6.60627">
        <ele>1721.1999511719</ele>
        <time>2016-03-07T08:36:10.000Z</time>
      </trkpt>
      <trkpt lat="45.50581" lon="6.60632">
        <ele>1722.1999511719</ele>
        <time>2016-03-07T08:36:16.000Z</time>
      </trkpt>
      <trkpt lat="45.5058" lon="6.60633">
        <ele>1723.4000244141</ele>
        <time>2016-03-07T08:36:20.000Z</time>
      </trkpt>
      <trkpt lat="45.5058" lon="6.60636">
        <ele>1724</ele>
        <time>2016-03-07T08:36:24.000Z</time>
      </trkpt>
      <trkpt lat="45.50579" lon="6.60638">
        <ele>1724.5999755859</ele>
        <time>2016-03-07T08:36:26.000Z</time>
      </trkpt>
      <trkpt lat="45.50579" lon="6.60639">
        <ele>1725.5999755859</ele>
        <time>2016-03-07T08:36:31.000Z</time>
      </trkpt>
      <trkpt lat="45.50579" lon="6.6064">
        <ele>1726.8000488281</ele>
        <time>2016-03-07T08:36:35.000Z</time>
      </trkpt>
      <trkpt lat="45.50579" lon="6.6064">
        <ele>1727</ele>
        <time>2016-03-07T08:36:36.000Z</time>
      </trkpt>
      <trkpt lat="45.50578" lon="6.60643">
        <ele>1727.5999755859</ele>
        <time>2016-03-07T08:36:41.000Z</time>
      </trkpt>
      <trkpt lat="45.50578" lon="6.60644">
        <ele>1728</ele>
        <time>2016-03-07T08:36:42.000Z</time>
      </trkpt>
      <trkpt lat="45.50578" lon="6.60645">
        <ele>1729.1999511719</ele>
        <time>2016-03-07T08:36:45.000Z</time>
      </trkpt>
      <trkpt lat="45.50578" lon="6.60645">
        <ele>1729.4000244141</ele>
        <time>2016-03-07T08:36:47.000Z</time>
      </trkpt>
      <trkpt lat="45.50577" lon="6.6065">
        <ele>1729.5999755859</ele>
        <time>2016-03-07T08:36:56.000Z</time>
      </trkpt>
      <trkpt lat="45.50577" lon="6.60652">
        <ele>1730.1999511719</ele>
        <time>2016-03-07T08:37:01.000Z</time>
      </trkpt>
      <trkpt lat="45.50577" lon="6.60652">
        <ele>1730.4000244141</ele>
        <time>2016-03-07T08:37:03.000Z</time>
      </trkpt>
      <trkpt lat="45.50577" lon="6.60652">
        <ele>1730.4000244141</ele>
        <time>2016-03-07T08:37:20.000Z</time>
      </trkpt>
      <trkpt lat="45.50577" lon="6.60652">
        <ele>1730.4000244141</ele>
        <time>2016-03-07T08:37:35.000Z</time>
      </trkpt>
      <trkpt lat="45.50577" lon="6.60652">
        <ele>1730.4000244141</ele>
        <time>2016-03-07T08:37:53.000Z</time>
      </trkpt>
      <trkpt lat="45.50577" lon="6.60652">
        <ele>1730.1999511719</ele>
        <time>2016-03-07T08:38:12.000Z</time>
      </trkpt>
      <trkpt lat="45.50576" lon="6.60654">
        <ele>1730</ele>
        <time>2016-03-07T08:38:30.000Z</time>
      </trkpt>
      <trkpt lat="45.50572" lon="6.60658">
        <ele>1731.4000244141</ele>
        <time>2016-03-07T08:38:35.000Z</time>
      </trkpt>
      <trkpt lat="45.50572" lon="6.60659">
        <ele>1731.8000488281</ele>
        <time>2016-03-07T08:38:36.000Z</time>
      </trkpt>
      <trkpt lat="45.5057" lon="6.60661">
        <ele>1732.5999755859</ele>
        <time>2016-03-07T08:38:40.000Z</time>
      </trkpt>
      <trkpt lat="45.50569" lon="6.60663">
        <ele>1733</ele>
        <time>2016-03-07T08:38:42.000Z</time>
      </trkpt>
      <trkpt lat="45.50566" lon="6.60667">
        <ele>1733.5999755859</ele>
        <time>2016-03-07T08:38:47.000Z</time>
      </trkpt>
      <trkpt lat="45.50566" lon="6.60667">
        <ele>1734</ele>
        <time>2016-03-07T08:38:48.000Z</time>
      </trkpt>
      <trkpt lat="45.50563" lon="6.60671">
        <ele>1734.8000488281</ele>
        <time>2016-03-07T08:38:52.000Z</time>
      </trkpt>
      <trkpt lat="45.50563" lon="6.60672">
        <ele>1735</ele>
        <time>2016-03-07T08:38:53.000Z</time>
      </trkpt>
      <trkpt lat="45.50561" lon="6.60674">
        <ele>1736</ele>
        <time>2016-03-07T08:38:56.000Z</time>
      </trkpt>
      <trkpt lat="45.5056" lon="6.60676">
        <ele>1736.4000244141</ele>
        <time>2016-03-07T08:38:59.000Z</time>
      </trkpt>
      <trkpt lat="45.50558" lon="6.60678">
        <ele>1736.4000244141</ele>
        <time>2016-03-07T08:39:00.000Z</time>
      </trkpt>
      <trkpt lat="45.50557" lon="6.6068">
        <ele>1737</ele>
        <time>2016-03-07T08:39:03.000Z</time>
      </trkpt>
      <trkpt lat="45.50556" lon="6.6068">
        <ele>1737.1999511719</ele>
        <time>2016-03-07T08:39:04.000Z</time>
      </trkpt>
      <trkpt lat="45.50554" lon="6.60683">
        <ele>1738</ele>
        <time>2016-03-07T08:39:09.000Z</time>
      </trkpt>
      <trkpt lat="45.50553" lon="6.60684">
        <ele>1738.1999511719</ele>
        <time>2016-03-07T08:39:10.000Z</time>
      </trkpt>
      <trkpt lat="45.50551" lon="6.60686">
        <ele>1738.8000488281</ele>
        <time>2016-03-07T08:39:14.000Z</time>
      </trkpt>
      <trkpt lat="45.50549" lon="6.60688">
        <ele>1739.1999511719</ele>
        <time>2016-03-07T08:39:17.000Z</time>
      </trkpt>
      <trkpt lat="45.50547" lon="6.60691">
        <ele>1739.8000488281</ele>
        <time>2016-03-07T08:39:20.000Z</time>
      </trkpt>
      <trkpt lat="45.50545" lon="6.60693">
        <ele>1740.4000244141</ele>
        <time>2016-03-07T08:39:23.000Z</time>
      </trkpt>
      <trkpt lat="45.50544" lon="6.60693">
        <ele>1740.8000488281</ele>
        <time>2016-03-07T08:39:25.000Z</time>
      </trkpt>
      <trkpt lat="45.50541" lon="6.60696">
        <ele>1741.4000244141</ele>
        <time>2016-03-07T08:39:29.000Z</time>
      </trkpt>
      <trkpt lat="45.5054" lon="6.60697">
        <ele>1741.8000488281</ele>
        <time>2016-03-07T08:39:31.000Z</time>
      </trkpt>
      <trkpt lat="45.50536" lon="6.60697">
        <ele>1742.4000244141</ele>
        <time>2016-03-07T08:39:36.000Z</time>
      </trkpt>
      <trkpt lat="45.50535" lon="6.60698">
        <ele>1742.5999755859</ele>
        <time>2016-03-07T08:39:37.000Z</time>
      </trkpt>
      <trkpt lat="45.50533" lon="6.60699">
        <ele>1743.4000244141</ele>
        <time>2016-03-07T08:39:41.000Z</time>
      </trkpt>
      <trkpt lat="45.50532" lon="6.60701">
        <ele>1743.8000488281</ele>
        <time>2016-03-07T08:39:43.000Z</time>
      </trkpt>
      <trkpt lat="45.5053" lon="6.60702">
        <ele>1744.4000244141</ele>
        <time>2016-03-07T08:39:47.000Z</time>
      </trkpt>
      <trkpt lat="45.5053" lon="6.60702">
        <ele>1744.8000488281</ele>
        <time>2016-03-07T08:39:49.000Z</time>
      </trkpt>
      <trkpt lat="45.50526" lon="6.60705">
        <ele>1745.8000488281</ele>
        <time>2016-03-07T08:39:53.000Z</time>
      </trkpt>
      <trkpt lat="45.50522" lon="6.60704">
        <ele>1746.8000488281</ele>
        <time>2016-03-07T08:39:58.000Z</time>
      </trkpt>
      <trkpt lat="45.50518" lon="6.60707">
        <ele>1747.4000244141</ele>
        <time>2016-03-07T08:40:03.000Z</time>
      </trkpt>
      <trkpt lat="45.50516" lon="6.60709">
        <ele>1748</ele>
        <time>2016-03-07T08:40:07.000Z</time>
      </trkpt>
      <trkpt lat="45.50516" lon="6.60709">
        <ele>1748.4000244141</ele>
        <time>2016-03-07T08:40:08.000Z</time>
      </trkpt>
      <trkpt lat="45.50514" lon="6.60712">
        <ele>1749</ele>
        <time>2016-03-07T08:40:11.000Z</time>
      </trkpt>
      <trkpt lat="45.50512" lon="6.60714">
        <ele>1749.5999755859</ele>
        <time>2016-03-07T08:40:14.000Z</time>
      </trkpt>
      <trkpt lat="45.50512" lon="6.60715">
        <ele>1750</ele>
        <time>2016-03-07T08:40:16.000Z</time>
      </trkpt>
      <trkpt lat="45.50511" lon="6.60716">
        <ele>1750.5999755859</ele>
        <time>2016-03-07T08:40:20.000Z</time>
      </trkpt>
      <trkpt lat="45.50509" lon="6.60719">
        <ele>1750.5999755859</ele>
        <time>2016-03-07T08:40:24.000Z</time>
      </trkpt>
      <trkpt lat="45.50508" lon="6.6072">
        <ele>1751.1999511719</ele>
        <time>2016-03-07T08:40:28.000Z</time>
      </trkpt>
      <trkpt lat="45.50507" lon="6.60721">
        <ele>1751.5999755859</ele>
        <time>2016-03-07T08:40:30.000Z</time>
      </trkpt>
      <trkpt lat="45.50506" lon="6.60723">
        <ele>1752.4000244141</ele>
        <time>2016-03-07T08:40:32.000Z</time>
      </trkpt>
      <trkpt lat="45.50505" lon="6.60726">
        <ele>1752.8000488281</ele>
        <time>2016-03-07T08:40:35.000Z</time>
      </trkpt>
      <trkpt lat="45.50504" lon="6.60727">
        <ele>1753.4000244141</ele>
        <time>2016-03-07T08:40:38.000Z</time>
      </trkpt>
      <trkpt lat="45.50503" lon="6.60728">
        <ele>1754</ele>
        <time>2016-03-07T08:40:40.000Z</time>
      </trkpt>
      <trkpt lat="45.50502" lon="6.60729">
        <ele>1754.8000488281</ele>
        <time>2016-03-07T08:40:43.000Z</time>
      </trkpt>
      <trkpt lat="45.505" lon="6.60732">
        <ele>1755.5999755859</ele>
        <time>2016-03-07T08:40:47.000Z</time>
      </trkpt>
      <trkpt lat="45.50499" lon="6.60733">
        <ele>1755.8000488281</ele>
        <time>2016-03-07T08:40:48.000Z</time>
      </trkpt>
      <trkpt lat="45.50497" lon="6.60734">
        <ele>1756.5999755859</ele>
        <time>2016-03-07T08:40:52.000Z</time>
      </trkpt>
      <trkpt lat="45.50497" lon="6.60735">
        <ele>1757</ele>
        <time>2016-03-07T08:40:53.000Z</time>
      </trkpt>
      <trkpt lat="45.50497" lon="6.60739">
        <ele>1758</ele>
        <time>2016-03-07T08:40:58.000Z</time>
      </trkpt>
      <trkpt lat="45.50496" lon="6.6074">
        <ele>1758</ele>
        <time>2016-03-07T08:40:59.000Z</time>
      </trkpt>
      <trkpt lat="45.50495" lon="6.60742">
        <ele>1759.1999511719</ele>
        <time>2016-03-07T08:41:02.000Z</time>
      </trkpt>
      <trkpt lat="45.50494" lon="6.60744">
        <ele>1759.8000488281</ele>
        <time>2016-03-07T08:41:05.000Z</time>
      </trkpt>
      <trkpt lat="45.50494" lon="6.60745">
        <ele>1760.4000244141</ele>
        <time>2016-03-07T08:41:08.000Z</time>
      </trkpt>
      <trkpt lat="45.50494" lon="6.60745">
        <ele>1761</ele>
        <time>2016-03-07T08:41:11.000Z</time>
      </trkpt>
      <trkpt lat="45.50492" lon="6.60747">
        <ele>1761.5999755859</ele>
        <time>2016-03-07T08:41:18.000Z</time>
      </trkpt>
      <trkpt lat="45.50492" lon="6.60748">
        <ele>1761.5999755859</ele>
        <time>2016-03-07T08:41:19.000Z</time>
      </trkpt>
      <trkpt lat="45.50491" lon="6.60752">
        <ele>1762.5999755859</ele>
        <time>2016-03-07T08:41:23.000Z</time>
      </trkpt>
      <trkpt lat="45.5049" lon="6.60753">
        <ele>1763</ele>
        <time>2016-03-07T08:41:26.000Z</time>
      </trkpt>
      <trkpt lat="45.50489" lon="6.60757">
        <ele>1763.5999755859</ele>
        <time>2016-03-07T08:41:30.000Z</time>
      </trkpt>
      <trkpt lat="45.50488" lon="6.60761">
        <ele>1764.5999755859</ele>
        <time>2016-03-07T08:41:34.000Z</time>
      </trkpt>
      <trkpt lat="45.50487" lon="6.60761">
        <ele>1764.8000488281</ele>
        <time>2016-03-07T08:41:35.000Z</time>
      </trkpt>
      <trkpt lat="45.50486" lon="6.60764">
        <ele>1765.5999755859</ele>
        <time>2016-03-07T08:41:39.000Z</time>
      </trkpt>
      <trkpt lat="45.50486" lon="6.60766">
        <ele>1766</ele>
        <time>2016-03-07T08:41:41.000Z</time>
      </trkpt>
      <trkpt lat="45.50484" lon="6.60768">
        <ele>1766.4000244141</ele>
        <time>2016-03-07T08:41:44.000Z</time>
      </trkpt>
      <trkpt lat="45.50484" lon="6.60768">
        <ele>1767</ele>
        <time>2016-03-07T08:41:47.000Z</time>
      </trkpt>
      <trkpt lat="45.50482" lon="6.60771">
        <ele>1767.8000488281</ele>
        <time>2016-03-07T08:41:51.000Z</time>
      </trkpt>
      <trkpt lat="45.50481" lon="6.60772">
        <ele>1768.1999511719</ele>
        <time>2016-03-07T08:41:53.000Z</time>
      </trkpt>
      <trkpt lat="45.50478" lon="6.60775">
        <ele>1769.4000244141</ele>
        <time>2016-03-07T08:41:58.000Z</time>
      </trkpt>
      <trkpt lat="45.50475" lon="6.60779">
        <ele>1770.1999511719</ele>
        <time>2016-03-07T08:42:03.000Z</time>
      </trkpt>
      <trkpt lat="45.50474" lon="6.6078">
        <ele>1770.4000244141</ele>
        <time>2016-03-07T08:42:05.000Z</time>
      </trkpt>
      <trkpt lat="45.50474" lon="6.60781">
        <ele>1770.8000488281</ele>
        <time>2016-03-07T08:42:07.000Z</time>
      </trkpt>
      <trkpt lat="45.50472" lon="6.6078">
        <ele>1771.5999755859</ele>
        <time>2016-03-07T08:42:10.000Z</time>
      </trkpt>
      <trkpt lat="45.50471" lon="6.60781">
        <ele>1771.8000488281</ele>
        <time>2016-03-07T08:42:11.000Z</time>
      </trkpt>
      <trkpt lat="45.50469" lon="6.60782">
        <ele>1772.8000488281</ele>
        <time>2016-03-07T08:42:16.000Z</time>
      </trkpt>
      <trkpt lat="45.50466" lon="6.60786">
        <ele>1773.4000244141</ele>
        <time>2016-03-07T08:42:22.000Z</time>
      </trkpt>
      <trkpt lat="45.50465" lon="6.60788">
        <ele>1773.8000488281</ele>
        <time>2016-03-07T08:42:24.000Z</time>
      </trkpt>
      <trkpt lat="45.50463" lon="6.6079">
        <ele>1774.1999511719</ele>
        <time>2016-03-07T08:42:27.000Z</time>
      </trkpt>
      <trkpt lat="45.50461" lon="6.6079">
        <ele>1774.8000488281</ele>
        <time>2016-03-07T08:42:30.000Z</time>
      </trkpt>
      <trkpt lat="45.50459" lon="6.6079">
        <ele>1775.1999511719</ele>
        <time>2016-03-07T08:42:32.000Z</time>
      </trkpt>
      <trkpt lat="45.50459" lon="6.6079">
        <ele>1776</ele>
        <time>2016-03-07T08:42:34.000Z</time>
      </trkpt>
      <trkpt lat="45.50457" lon="6.60792">
        <ele>1776.8000488281</ele>
        <time>2016-03-07T08:42:37.000Z</time>
      </trkpt>
      <trkpt lat="45.50456" lon="6.60793">
        <ele>1777.1999511719</ele>
        <time>2016-03-07T08:42:39.000Z</time>
      </trkpt>
      <trkpt lat="45.50453" lon="6.60795">
        <ele>1777.8000488281</ele>
        <time>2016-03-07T08:42:43.000Z</time>
      </trkpt>
      <trkpt lat="45.50452" lon="6.60796">
        <ele>1778.1999511719</ele>
        <time>2016-03-07T08:42:45.000Z</time>
      </trkpt>
      <trkpt lat="45.5045" lon="6.60795">
        <ele>1778.8000488281</ele>
        <time>2016-03-07T08:42:48.000Z</time>
      </trkpt>
      <trkpt lat="45.50447" lon="6.60796">
        <ele>1779.1999511719</ele>
        <time>2016-03-07T08:42:51.000Z</time>
      </trkpt>
      <trkpt lat="45.50446" lon="6.60797">
        <ele>1779.5999755859</ele>
        <time>2016-03-07T08:42:53.000Z</time>
      </trkpt>
      <trkpt lat="45.50442" lon="6.60798">
        <ele>1780.1999511719</ele>
        <time>2016-03-07T08:42:57.000Z</time>
      </trkpt>
      <trkpt lat="45.50441" lon="6.60799">
        <ele>1780.5999755859</ele>
        <time>2016-03-07T08:42:59.000Z</time>
      </trkpt>
      <trkpt lat="45.50438" lon="6.60801">
        <ele>1781.1999511719</ele>
        <time>2016-03-07T08:43:04.000Z</time>
      </trkpt>
      <trkpt lat="45.50438" lon="6.60801">
        <ele>1781.4000244141</ele>
        <time>2016-03-07T08:43:05.000Z</time>
      </trkpt>
      <trkpt lat="45.50435" lon="6.60804">
        <ele>1782.1999511719</ele>
        <time>2016-03-07T08:43:10.000Z</time>
      </trkpt>
      <trkpt lat="45.50434" lon="6.60805">
        <ele>1782.4000244141</ele>
        <time>2016-03-07T08:43:11.000Z</time>
      </trkpt>
      <trkpt lat="45.50431" lon="6.60807">
        <ele>1782.8000488281</ele>
        <time>2016-03-07T08:43:16.000Z</time>
      </trkpt>
      <trkpt lat="45.5043" lon="6.60808">
        <ele>1783.4000244141</ele>
        <time>2016-03-07T08:43:19.000Z</time>
      </trkpt>
      <trkpt lat="45.50428" lon="6.60809">
        <ele>1784.1999511719</ele>
        <time>2016-03-07T08:43:21.000Z</time>
      </trkpt>
      <trkpt lat="45.50426" lon="6.60811">
        <ele>1784.5999755859</ele>
        <time>2016-03-07T08:43:25.000Z</time>
      </trkpt>
      <trkpt lat="45.50425" lon="6.60812">
        <ele>1784.5999755859</ele>
        <time>2016-03-07T08:43:26.000Z</time>
      </trkpt>
      <trkpt lat="45.50422" lon="6.60814">
        <ele>1785.5999755859</ele>
        <time>2016-03-07T08:43:31.000Z</time>
      </trkpt>
      <trkpt lat="45.50421" lon="6.60814">
        <ele>1785.8000488281</ele>
        <time>2016-03-07T08:43:32.000Z</time>
      </trkpt>
      <trkpt lat="45.5042" lon="6.60814">
        <ele>1786.8000488281</ele>
        <time>2016-03-07T08:43:37.000Z</time>
      </trkpt>
      <trkpt lat="45.5042" lon="6.60814">
        <ele>1787.1999511719</ele>
        <time>2016-03-07T08:43:38.000Z</time>
      </trkpt>
      <trkpt lat="45.5042" lon="6.60814">
        <ele>1787.4000244141</ele>
        <time>2016-03-07T08:43:55.000Z</time>
      </trkpt>
      <trkpt lat="45.5042" lon="6.60813">
        <ele>1787.5999755859</ele>
        <time>2016-03-07T08:44:19.000Z</time>
      </trkpt>
      <trkpt lat="45.5042" lon="6.60813">
        <ele>1787.4000244141</ele>
        <time>2016-03-07T08:44:34.000Z</time>
      </trkpt>
      <trkpt lat="45.50417" lon="6.60815">
        <ele>1787.4000244141</ele>
        <time>2016-03-07T08:44:46.000Z</time>
      </trkpt>
      <trkpt lat="45.50413" lon="6.60818">
        <ele>1788</ele>
        <time>2016-03-07T08:44:50.000Z</time>
      </trkpt>
      <trkpt lat="45.50413" lon="6.60818">
        <ele>1788.1999511719</ele>
        <time>2016-03-07T08:44:51.000Z</time>
      </trkpt>
      <trkpt lat="45.50409" lon="6.60824">
        <ele>1789.1999511719</ele>
        <time>2016-03-07T08:44:56.000Z</time>
      </trkpt>
      <trkpt lat="45.50409" lon="6.60824">
        <ele>1789.8000488281</ele>
        <time>2016-03-07T08:44:57.000Z</time>
      </trkpt>
      <trkpt lat="45.50407" lon="6.60825">
        <ele>1790.1999511719</ele>
        <time>2016-03-07T08:44:59.000Z</time>
      </trkpt>
      <trkpt lat="45.50404" lon="6.6083">
        <ele>1791.4000244141</ele>
        <time>2016-03-07T08:45:04.000Z</time>
      </trkpt>
      <trkpt lat="45.50402" lon="6.60833">
        <ele>1792.4000244141</ele>
        <time>2016-03-07T08:45:09.000Z</time>
      </trkpt>
      <trkpt lat="45.50401" lon="6.60834">
        <ele>1792.5999755859</ele>
        <time>2016-03-07T08:45:10.000Z</time>
      </trkpt>
      <trkpt lat="45.50396" lon="6.60836">
        <ele>1793.4000244141</ele>
        <time>2016-03-07T08:45:16.000Z</time>
      </trkpt>
      <trkpt lat="45.50396" lon="6.60837">
        <ele>1793.4000244141</ele>
        <time>2016-03-07T08:45:17.000Z</time>
      </trkpt>
      <trkpt lat="45.50394" lon="6.6084">
        <ele>1794.5999755859</ele>
        <time>2016-03-07T08:45:21.000Z</time>
      </trkpt>
      <trkpt lat="45.50393" lon="6.60844">
        <ele>1795.5999755859</ele>
        <time>2016-03-07T08:45:25.000Z</time>
      </trkpt>
      <trkpt lat="45.50391" lon="6.60849">
        <ele>1796.8000488281</ele>
        <time>2016-03-07T08:45:30.000Z</time>
      </trkpt>
      <trkpt lat="45.50391" lon="6.60849">
        <ele>1797</ele>
        <time>2016-03-07T08:45:31.000Z</time>
      </trkpt>
      <trkpt lat="45.50387" lon="6.60852">
        <ele>1797.5999755859</ele>
        <time>2016-03-07T08:45:36.000Z</time>
      </trkpt>
      <trkpt lat="45.50387" lon="6.60853">
        <ele>1798</ele>
        <time>2016-03-07T08:45:38.000Z</time>
      </trkpt>
      <trkpt lat="45.50385" lon="6.60854">
        <ele>1798.8000488281</ele>
        <time>2016-03-07T08:45:42.000Z</time>
      </trkpt>
      <trkpt lat="45.50384" lon="6.60855">
        <ele>1799</ele>
        <time>2016-03-07T08:45:43.000Z</time>
      </trkpt>
      <trkpt lat="45.50383" lon="6.6086">
        <ele>1800</ele>
        <time>2016-03-07T08:45:48.000Z</time>
      </trkpt>
      <trkpt lat="45.50382" lon="6.60861">
        <ele>1800</ele>
        <time>2016-03-07T08:45:49.000Z</time>
      </trkpt>
      <trkpt lat="45.5038" lon="6.60864">
        <ele>1801.1999511719</ele>
        <time>2016-03-07T08:45:54.000Z</time>
      </trkpt>
      <trkpt lat="45.50378" lon="6.60864">
        <ele>1801.4000244141</ele>
        <time>2016-03-07T08:45:56.000Z</time>
      </trkpt>
      <trkpt lat="45.50374" lon="6.60864">
        <ele>1802.1999511719</ele>
        <time>2016-03-07T08:46:01.000Z</time>
      </trkpt>
      <trkpt lat="45.50372" lon="6.60864">
        <ele>1802.8000488281</ele>
        <time>2016-03-07T08:46:03.000Z</time>
      </trkpt>
      <trkpt lat="45.5037" lon="6.60863">
        <ele>1803.4000244141</ele>
        <time>2016-03-07T08:46:05.000Z</time>
      </trkpt>
      <trkpt lat="45.50369" lon="6.60863">
        <ele>1804.5999755859</ele>
        <time>2016-03-07T08:46:09.000Z</time>
      </trkpt>
      <trkpt lat="45.50374" lon="6.60871">
        <ele>1805</ele>
        <time>2016-03-07T08:46:15.000Z</time>
      </trkpt>
      <trkpt lat="45.50378" lon="6.60874">
        <ele>1805.5999755859</ele>
        <time>2016-03-07T08:46:22.000Z</time>
      </trkpt>
      <trkpt lat="45.50379" lon="6.60876">
        <ele>1806.8000488281</ele>
        <time>2016-03-07T08:46:31.000Z</time>
      </trkpt>
      <trkpt lat="45.50377" lon="6.60879">
        <ele>1808</ele>
        <time>2016-03-07T08:46:35.000Z</time>
      </trkpt>
      <trkpt lat="45.50377" lon="6.60879">
        <ele>1808.5999755859</ele>
        <time>2016-03-07T08:46:39.000Z</time>
      </trkpt>
      <trkpt lat="45.50376" lon="6.60883">
        <ele>1809.1999511719</ele>
        <time>2016-03-07T08:46:42.000Z</time>
      </trkpt>
      <trkpt lat="45.50374" lon="6.60887">
        <ele>1810.1999511719</ele>
        <time>2016-03-07T08:46:47.000Z</time>
      </trkpt>
      <trkpt lat="45.50373" lon="6.60888">
        <ele>1810.4000244141</ele>
        <time>2016-03-07T08:46:48.000Z</time>
      </trkpt>
      <trkpt lat="45.5037" lon="6.60888">
        <ele>1811.5999755859</ele>
        <time>2016-03-07T08:46:54.000Z</time>
      </trkpt>
      <trkpt lat="45.50368" lon="6.60887">
        <ele>1812.8000488281</ele>
        <time>2016-03-07T08:46:59.000Z</time>
      </trkpt>
      <trkpt lat="45.50368" lon="6.60887">
        <ele>1813</ele>
        <time>2016-03-07T08:47:01.000Z</time>
      </trkpt>
      <trkpt lat="45.50365" lon="6.60889">
        <ele>1814</ele>
        <time>2016-03-07T08:47:06.000Z</time>
      </trkpt>
      <trkpt lat="45.50364" lon="6.6089">
        <ele>1814.1999511719</ele>
        <time>2016-03-07T08:47:07.000Z</time>
      </trkpt>
      <trkpt lat="45.50361" lon="6.60891">
        <ele>1815</ele>
        <time>2016-03-07T08:47:12.000Z</time>
      </trkpt>
      <trkpt lat="45.50357" lon="6.60891">
        <ele>1816</ele>
        <time>2016-03-07T08:47:17.000Z</time>
      </trkpt>
      <trkpt lat="45.50356" lon="6.60891">
        <ele>1816.5999755859</ele>
        <time>2016-03-07T08:47:19.000Z</time>
      </trkpt>
      <trkpt lat="45.50355" lon="6.60891">
        <ele>1817.1999511719</ele>
        <time>2016-03-07T08:47:21.000Z</time>
      </trkpt>
      <trkpt lat="45.50353" lon="6.60892">
        <ele>1817.8000488281</ele>
        <time>2016-03-07T08:47:25.000Z</time>
      </trkpt>
      <trkpt lat="45.5035" lon="6.60892">
        <ele>1818.4000244141</ele>
        <time>2016-03-07T08:47:29.000Z</time>
      </trkpt>
      <trkpt lat="45.50348" lon="6.60891">
        <ele>1819.1999511719</ele>
        <time>2016-03-07T08:47:32.000Z</time>
      </trkpt>
      <trkpt lat="45.50347" lon="6.60891">
        <ele>1819.4000244141</ele>
        <time>2016-03-07T08:47:34.000Z</time>
      </trkpt>
      <trkpt lat="45.50344" lon="6.60891">
        <ele>1820.1999511719</ele>
        <time>2016-03-07T08:47:40.000Z</time>
      </trkpt>
      <trkpt lat="45.50342" lon="6.60891">
        <ele>1820.5999755859</ele>
        <time>2016-03-07T08:47:42.000Z</time>
      </trkpt>
      <trkpt lat="45.5034" lon="6.60891">
        <ele>1821.4000244141</ele>
        <time>2016-03-07T08:47:45.000Z</time>
      </trkpt>
      <trkpt lat="45.50338" lon="6.60892">
        <ele>1821.8000488281</ele>
        <time>2016-03-07T08:47:47.000Z</time>
      </trkpt>
      <trkpt lat="45.50338" lon="6.60892">
        <ele>1822</ele>
        <time>2016-03-07T08:47:49.000Z</time>
      </trkpt>
      <trkpt lat="45.50335" lon="6.60893">
        <ele>1823</ele>
        <time>2016-03-07T08:47:54.000Z</time>
      </trkpt>
      <trkpt lat="45.50331" lon="6.60893">
        <ele>1824</ele>
        <time>2016-03-07T08:47:58.000Z</time>
      </trkpt>
      <trkpt lat="45.50328" lon="6.60892">
        <ele>1824.5999755859</ele>
        <time>2016-03-07T08:48:00.000Z</time>
      </trkpt>
      <trkpt lat="45.50325" lon="6.60894">
        <ele>1825</ele>
        <time>2016-03-07T08:48:05.000Z</time>
      </trkpt>
      <trkpt lat="45.50325" lon="6.60895">
        <ele>1825.1999511719</ele>
        <time>2016-03-07T08:48:06.000Z</time>
      </trkpt>
      <trkpt lat="45.50322" lon="6.60899">
        <ele>1826.1999511719</ele>
        <time>2016-03-07T08:48:12.000Z</time>
      </trkpt>
      <trkpt lat="45.50322" lon="6.60899">
        <ele>1826.4000244141</ele>
        <time>2016-03-07T08:48:13.000Z</time>
      </trkpt>
      <trkpt lat="45.5032" lon="6.60899">
        <ele>1827.4000244141</ele>
        <time>2016-03-07T08:48:18.000Z</time>
      </trkpt>
      <trkpt lat="45.50319" lon="6.60903">
        <ele>1828.4000244141</ele>
        <time>2016-03-07T08:48:24.000Z</time>
      </trkpt>
      <trkpt lat="45.50319" lon="6.60904">
        <ele>1828.4000244141</ele>
        <time>2016-03-07T08:48:25.000Z</time>
      </trkpt>
      <trkpt lat="45.50317" lon="6.60907">
        <ele>1829.4000244141</ele>
        <time>2016-03-07T08:48:31.000Z</time>
      </trkpt>
      <trkpt lat="45.50317" lon="6.60908">
        <ele>1829.8000488281</ele>
        <time>2016-03-07T08:48:32.000Z</time>
      </trkpt>
      <trkpt lat="45.50316" lon="6.60908">
        <ele>1830.8000488281</ele>
        <time>2016-03-07T08:48:34.000Z</time>
      </trkpt>
      <trkpt lat="45.50313" lon="6.6091">
        <ele>1831.5999755859</ele>
        <time>2016-03-07T08:48:37.000Z</time>
      </trkpt>
      <trkpt lat="45.50312" lon="6.6091">
        <ele>1832</ele>
        <time>2016-03-07T08:48:39.000Z</time>
      </trkpt>
      <trkpt lat="45.50308" lon="6.60911">
        <ele>1832.5999755859</ele>
        <time>2016-03-07T08:48:44.000Z</time>
      </trkpt>
      <trkpt lat="45.50307" lon="6.60911">
        <ele>1833</ele>
        <time>2016-03-07T08:48:45.000Z</time>
      </trkpt>
      <trkpt lat="45.50307" lon="6.60913">
        <ele>1834</ele>
        <time>2016-03-07T08:48:51.000Z</time>
      </trkpt>
      <trkpt lat="45.50306" lon="6.60914">
        <ele>1834</ele>
        <time>2016-03-07T08:48:52.000Z</time>
      </trkpt>
      <trkpt lat="45.50303" lon="6.60915">
        <ele>1835.1999511719</ele>
        <time>2016-03-07T08:48:56.000Z</time>
      </trkpt>
      <trkpt lat="45.50302" lon="6.60917">
        <ele>1836.1999511719</ele>
        <time>2016-03-07T08:48:58.000Z</time>
      </trkpt>
      <trkpt lat="45.50302" lon="6.60918">
        <ele>1836.4000244141</ele>
        <time>2016-03-07T08:48:59.000Z</time>
      </trkpt>
      <trkpt lat="45.503" lon="6.6092">
        <ele>1837.5999755859</ele>
        <time>2016-03-07T08:49:04.000Z</time>
      </trkpt>
      <trkpt lat="45.50299" lon="6.6092">
        <ele>1837.8000488281</ele>
        <time>2016-03-07T08:49:05.000Z</time>
      </trkpt>
      <trkpt lat="45.50295" lon="6.60921">
        <ele>1838.8000488281</ele>
        <time>2016-03-07T08:49:10.000Z</time>
      </trkpt>
      <trkpt lat="45.50294" lon="6.60922">
        <ele>1839.1999511719</ele>
        <time>2016-03-07T08:49:12.000Z</time>
      </trkpt>
      <trkpt lat="45.50293" lon="6.60924">
        <ele>1839.8000488281</ele>
        <time>2016-03-07T08:49:14.000Z</time>
      </trkpt>
      <trkpt lat="45.50291" lon="6.60927">
        <ele>1840.1999511719</ele>
        <time>2016-03-07T08:49:19.000Z</time>
      </trkpt>
      <trkpt lat="45.50291" lon="6.60927">
        <ele>1840.8000488281</ele>
        <time>2016-03-07T08:49:21.000Z</time>
      </trkpt>
      <trkpt lat="45.50288" lon="6.60929">
        <ele>1842</ele>
        <time>2016-03-07T08:49:27.000Z</time>
      </trkpt>
      <trkpt lat="45.50286" lon="6.60934">
        <ele>1843</ele>
        <time>2016-03-07T08:49:31.000Z</time>
      </trkpt>
      <trkpt lat="45.50284" lon="6.60939">
        <ele>1843.5999755859</ele>
        <time>2016-03-07T08:49:36.000Z</time>
      </trkpt>
      <trkpt lat="45.50283" lon="6.60939">
        <ele>1844.1999511719</ele>
        <time>2016-03-07T08:49:38.000Z</time>
      </trkpt>
      <trkpt lat="45.50279" lon="6.60942">
        <ele>1845.4000244141</ele>
        <time>2016-03-07T08:49:43.000Z</time>
      </trkpt>
      <trkpt lat="45.50277" lon="6.60944">
        <ele>1846.1999511719</ele>
        <time>2016-03-07T08:49:48.000Z</time>
      </trkpt>
      <trkpt lat="45.50276" lon="6.60944">
        <ele>1846.4000244141</ele>
        <time>2016-03-07T08:49:49.000Z</time>
      </trkpt>
      <trkpt lat="45.50272" lon="6.60944">
        <ele>1847.1999511719</ele>
        <time>2016-03-07T08:49:54.000Z</time>
      </trkpt>
      <trkpt lat="45.5027" lon="6.60945">
        <ele>1847.4000244141</ele>
        <time>2016-03-07T08:49:57.000Z</time>
      </trkpt>
      <trkpt lat="45.50268" lon="6.60945">
        <ele>1847.8000488281</ele>
        <time>2016-03-07T08:50:00.000Z</time>
      </trkpt>
      <trkpt lat="45.50265" lon="6.60947">
        <ele>1848.4000244141</ele>
        <time>2016-03-07T08:50:04.000Z</time>
      </trkpt>
      <trkpt lat="45.50265" lon="6.60947">
        <ele>1848.5999755859</ele>
        <time>2016-03-07T08:50:06.000Z</time>
      </trkpt>
      <trkpt lat="45.50259" lon="6.6095">
        <ele>1849.4000244141</ele>
        <time>2016-03-07T08:50:12.000Z</time>
      </trkpt>
      <trkpt lat="45.50257" lon="6.6095">
        <ele>1849.5999755859</ele>
        <time>2016-03-07T08:50:14.000Z</time>
      </trkpt>
      <trkpt lat="45.50255" lon="6.6095">
        <ele>1849.8000488281</ele>
        <time>2016-03-07T08:50:17.000Z</time>
      </trkpt>
      <trkpt lat="45.50252" lon="6.60951">
        <ele>1850.4000244141</ele>
        <time>2016-03-07T08:50:22.000Z</time>
      </trkpt>
      <trkpt lat="45.50251" lon="6.60951">
        <ele>1850.5999755859</ele>
        <time>2016-03-07T08:50:24.000Z</time>
      </trkpt>
      <trkpt lat="45.50248" lon="6.6095">
        <ele>1851.1999511719</ele>
        <time>2016-03-07T08:50:28.000Z</time>
      </trkpt>
      <trkpt lat="45.50248" lon="6.60949">
        <ele>1851.5999755859</ele>
        <time>2016-03-07T08:50:30.000Z</time>
      </trkpt>
      <trkpt lat="45.50246" lon="6.60949">
        <ele>1852.4000244141</ele>
        <time>2016-03-07T08:50:33.000Z</time>
      </trkpt>
      <trkpt lat="45.50245" lon="6.60949">
        <ele>1852.8000488281</ele>
        <time>2016-03-07T08:50:34.000Z</time>
      </trkpt>
      <trkpt lat="45.50242" lon="6.60951">
        <ele>1853.8000488281</ele>
        <time>2016-03-07T08:50:38.000Z</time>
      </trkpt>
      <trkpt lat="45.50241" lon="6.60951">
        <ele>1854</ele>
        <time>2016-03-07T08:50:39.000Z</time>
      </trkpt>
      <trkpt lat="45.5024" lon="6.60952">
        <ele>1855</ele>
        <time>2016-03-07T08:50:45.000Z</time>
      </trkpt>
      <trkpt lat="45.50237" lon="6.60953">
        <ele>1856.1999511719</ele>
        <time>2016-03-07T08:50:50.000Z</time>
      </trkpt>
      <trkpt lat="45.50237" lon="6.60953">
        <ele>1856.4000244141</ele>
        <time>2016-03-07T08:50:51.000Z</time>
      </trkpt>
      <trkpt lat="45.50235" lon="6.60956">
        <ele>1857.1999511719</ele>
        <time>2016-03-07T08:50:55.000Z</time>
      </trkpt>
      <trkpt lat="45.50235" lon="6.60958">
        <ele>1858</ele>
        <time>2016-03-07T08:50:58.000Z</time>
      </trkpt>
      <trkpt lat="45.50236" lon="6.6096">
        <ele>1858.4000244141</ele>
        <time>2016-03-07T08:50:59.000Z</time>
      </trkpt>
      <trkpt lat="45.50236" lon="6.60963">
        <ele>1859.1999511719</ele>
        <time>2016-03-07T08:51:03.000Z</time>
      </trkpt>
      <trkpt lat="45.50236" lon="6.60965">
        <ele>1859.4000244141</ele>
        <time>2016-03-07T08:51:05.000Z</time>
      </trkpt>
      <trkpt lat="45.50235" lon="6.60972">
        <ele>1859.8000488281</ele>
        <time>2016-03-07T08:51:09.000Z</time>
      </trkpt>
      <trkpt lat="45.50234" lon="6.60975">
        <ele>1860.4000244141</ele>
        <time>2016-03-07T08:51:15.000Z</time>
      </trkpt>
      <trkpt lat="45.50234" lon="6.60975">
        <ele>1860.5999755859</ele>
        <time>2016-03-07T08:51:16.000Z</time>
      </trkpt>
      <trkpt lat="45.50231" lon="6.60976">
        <ele>1861.8000488281</ele>
        <time>2016-03-07T08:51:20.000Z</time>
      </trkpt>
      <trkpt lat="45.5023" lon="6.60975">
        <ele>1862.4000244141</ele>
        <time>2016-03-07T08:51:22.000Z</time>
      </trkpt>
      <trkpt lat="45.50228" lon="6.60974">
        <ele>1862.8000488281</ele>
        <time>2016-03-07T08:51:25.000Z</time>
      </trkpt>
      <trkpt lat="45.50227" lon="6.60973">
        <ele>1863.5999755859</ele>
        <time>2016-03-07T08:51:28.000Z</time>
      </trkpt>
      <trkpt lat="45.50227" lon="6.60974">
        <ele>1863.8000488281</ele>
        <time>2016-03-07T08:51:30.000Z</time>
      </trkpt>
      <trkpt lat="45.50227" lon="6.60976">
        <ele>1864.5999755859</ele>
        <time>2016-03-07T08:51:34.000Z</time>
      </trkpt>
      <trkpt lat="45.50228" lon="6.6098">
        <ele>1865</ele>
        <time>2016-03-07T08:51:39.000Z</time>
      </trkpt>
      <trkpt lat="45.50229" lon="6.6098">
        <ele>1865.1999511719</ele>
        <time>2016-03-07T08:51:40.000Z</time>
      </trkpt>
      <trkpt lat="45.50231" lon="6.60984">
        <ele>1866.1999511719</ele>
        <time>2016-03-07T08:51:43.000Z</time>
      </trkpt>
      <trkpt lat="45.5023" lon="6.60984">
        <ele>1866.4000244141</ele>
        <time>2016-03-07T08:51:44.000Z</time>
      </trkpt>
      <trkpt lat="45.50231" lon="6.60986">
        <ele>1867.1999511719</ele>
        <time>2016-03-07T08:51:46.000Z</time>
      </trkpt>
      <trkpt lat="45.50232" lon="6.60988">
        <ele>1867.8000488281</ele>
        <time>2016-03-07T08:51:49.000Z</time>
      </trkpt>
      <trkpt lat="45.50233" lon="6.60991">
        <ele>1868.1999511719</ele>
        <time>2016-03-07T08:51:52.000Z</time>
      </trkpt>
      <trkpt lat="45.50233" lon="6.60994">
        <ele>1868.8000488281</ele>
        <time>2016-03-07T08:51:55.000Z</time>
      </trkpt>
      <trkpt lat="45.50233" lon="6.60994">
        <ele>1869.4000244141</ele>
        <time>2016-03-07T08:51:58.000Z</time>
      </trkpt>
      <trkpt lat="45.50233" lon="6.60994">
        <ele>1870</ele>
        <time>2016-03-07T08:52:05.000Z</time>
      </trkpt>
      <trkpt lat="45.50233" lon="6.60994">
        <ele>1870.4000244141</ele>
        <time>2016-03-07T08:52:08.000Z</time>
      </trkpt>
      <trkpt lat="45.50233" lon="6.60994">
        <ele>1870.5999755859</ele>
        <time>2016-03-07T08:52:16.000Z</time>
      </trkpt>
      <trkpt lat="45.50234" lon="6.60997">
        <ele>1871</ele>
        <time>2016-03-07T08:52:25.000Z</time>
      </trkpt>
      <trkpt lat="45.50233" lon="6.61">
        <ele>1871.5999755859</ele>
        <time>2016-03-07T08:52:29.000Z</time>
      </trkpt>
      <trkpt lat="45.50232" lon="6.61001">
        <ele>1872</ele>
        <time>2016-03-07T08:52:31.000Z</time>
      </trkpt>
      <trkpt lat="45.50231" lon="6.61005">
        <ele>1872.5999755859</ele>
        <time>2016-03-07T08:52:34.000Z</time>
      </trkpt>
      <trkpt lat="45.50229" lon="6.61007">
        <ele>1872.8000488281</ele>
        <time>2016-03-07T08:52:37.000Z</time>
      </trkpt>
      <trkpt lat="45.50227" lon="6.61011">
        <ele>1873.1999511719</ele>
        <time>2016-03-07T08:52:41.000Z</time>
      </trkpt>
      <trkpt lat="45.50227" lon="6.61012">
        <ele>1873.8000488281</ele>
        <time>2016-03-07T08:52:44.000Z</time>
      </trkpt>
      <trkpt lat="45.50226" lon="6.61014">
        <ele>1874.8000488281</ele>
        <time>2016-03-07T08:52:48.000Z</time>
      </trkpt>
      <trkpt lat="45.50226" lon="6.61014">
        <ele>1875.1999511719</ele>
        <time>2016-03-07T08:52:49.000Z</time>
      </trkpt>
      <trkpt lat="45.50226" lon="6.61014">
        <ele>1876</ele>
        <time>2016-03-07T08:52:55.000Z</time>
      </trkpt>
      <trkpt lat="45.50224" lon="6.61017">
        <ele>1876.1999511719</ele>
        <time>2016-03-07T08:53:00.000Z</time>
      </trkpt>
      <trkpt lat="45.50223" lon="6.61019">
        <ele>1876.4000244141</ele>
        <time>2016-03-07T08:53:02.000Z</time>
      </trkpt>
      <trkpt lat="45.50221" lon="6.61023">
        <ele>1877.1999511719</ele>
        <time>2016-03-07T08:53:08.000Z</time>
      </trkpt>
      <trkpt lat="45.50221" lon="6.61024">
        <ele>1877.8000488281</ele>
        <time>2016-03-07T08:53:10.000Z</time>
      </trkpt>
      <trkpt lat="45.5022" lon="6.61026">
        <ele>1878.4000244141</ele>
        <time>2016-03-07T08:53:13.000Z</time>
      </trkpt>
      <trkpt lat="45.5022" lon="6.61026">
        <ele>1879</ele>
        <time>2016-03-07T08:53:16.000Z</time>
      </trkpt>
      <trkpt lat="45.5022" lon="6.61026">
        <ele>1879</ele>
        <time>2016-03-07T08:53:25.000Z</time>
      </trkpt>
      <trkpt lat="45.5022" lon="6.61026">
        <ele>1879.4000244141</ele>
        <time>2016-03-07T08:53:37.000Z</time>
      </trkpt>
      <trkpt lat="45.5022" lon="6.61026">
        <ele>1879.4000244141</ele>
        <time>2016-03-07T08:53:48.000Z</time>
      </trkpt>
      <trkpt lat="45.5022" lon="6.61026">
        <ele>1879.4000244141</ele>
        <time>2016-03-07T08:53:55.000Z</time>
      </trkpt>
      <trkpt lat="45.5022" lon="6.61026">
        <ele>1879.4000244141</ele>
        <time>2016-03-07T08:54:13.000Z</time>
      </trkpt>
      <trkpt lat="45.5022" lon="6.61026">
        <ele>1879.4000244141</ele>
        <time>2016-03-07T08:54:30.000Z</time>
      </trkpt>
      <trkpt lat="45.5022" lon="6.61026">
        <ele>1879.4000244141</ele>
        <time>2016-03-07T08:54:47.000Z</time>
      </trkpt>
      <trkpt lat="45.5022" lon="6.61026">
        <ele>1879.4000244141</ele>
        <time>2016-03-07T08:54:48.000Z</time>
      </trkpt>
      <trkpt lat="45.50218" lon="6.61027">
        <ele>1879.4000244141</ele>
        <time>2016-03-07T08:55:00.000Z</time>
      </trkpt>
      <trkpt lat="45.50215" lon="6.61027">
        <ele>1880.4000244141</ele>
        <time>2016-03-07T08:55:04.000Z</time>
      </trkpt>
      <trkpt lat="45.50213" lon="6.61026">
        <ele>1880.5999755859</ele>
        <time>2016-03-07T08:55:05.000Z</time>
      </trkpt>
      <trkpt lat="45.50211" lon="6.61026">
        <ele>1880.5999755859</ele>
        <time>2016-03-07T08:55:06.000Z</time>
      </trkpt>
      <trkpt lat="45.5021" lon="6.61027">
        <ele>1881</ele>
        <time>2016-03-07T08:55:08.000Z</time>
      </trkpt>
      <trkpt lat="45.50208" lon="6.61026">
        <ele>1881.8000488281</ele>
        <time>2016-03-07T08:55:11.000Z</time>
      </trkpt>
      <trkpt lat="45.50206" lon="6.61027">
        <ele>1882.1999511719</ele>
        <time>2016-03-07T08:55:12.000Z</time>
      </trkpt>
      <trkpt lat="45.50203" lon="6.61028">
        <ele>1883</ele>
        <time>2016-03-07T08:55:15.000Z</time>
      </trkpt>
      <trkpt lat="45.502" lon="6.61029">
        <ele>1883.4000244141</ele>
        <time>2016-03-07T08:55:18.000Z</time>
      </trkpt>
      <trkpt lat="45.50198" lon="6.61031">
        <ele>1884</ele>
        <time>2016-03-07T08:55:21.000Z</time>
      </trkpt>
      <trkpt lat="45.50196" lon="6.61032">
        <ele>1884.5999755859</ele>
        <time>2016-03-07T08:55:23.000Z</time>
      </trkpt>
      <trkpt lat="45.50195" lon="6.61033">
        <ele>1885</ele>
        <time>2016-03-07T08:55:25.000Z</time>
      </trkpt>
      <trkpt lat="45.50192" lon="6.61034">
        <ele>1885.5999755859</ele>
        <time>2016-03-07T08:55:29.000Z</time>
      </trkpt>
      <trkpt lat="45.50189" lon="6.61035">
        <ele>1886.1999511719</ele>
        <time>2016-03-07T08:55:31.000Z</time>
      </trkpt>
      <trkpt lat="45.50187" lon="6.61036">
        <ele>1886.8000488281</ele>
        <time>2016-03-07T08:55:35.000Z</time>
      </trkpt>
      <trkpt lat="45.50185" lon="6.61037">
        <ele>1887.1999511719</ele>
        <time>2016-03-07T08:55:38.000Z</time>
      </trkpt>
      <trkpt lat="45.50182" lon="6.61038">
        <ele>1887.8000488281</ele>
        <time>2016-03-07T08:55:41.000Z</time>
      </trkpt>
      <trkpt lat="45.50181" lon="6.61039">
        <ele>1888.1999511719</ele>
        <time>2016-03-07T08:55:43.000Z</time>
      </trkpt>
      <trkpt lat="45.50178" lon="6.61041">
        <ele>1889.1999511719</ele>
        <time>2016-03-07T08:55:47.000Z</time>
      </trkpt>
      <trkpt lat="45.50174" lon="6.61045">
        <ele>1890.1999511719</ele>
        <time>2016-03-07T08:55:52.000Z</time>
      </trkpt>
      <trkpt lat="45.50174" lon="6.61045">
        <ele>1890.1999511719</ele>
        <time>2016-03-07T08:55:53.000Z</time>
      </trkpt>
      <trkpt lat="45.50171" lon="6.61046">
        <ele>1891.1999511719</ele>
        <time>2016-03-07T08:55:58.000Z</time>
      </trkpt>
      <trkpt lat="45.50169" lon="6.61047">
        <ele>1891.4000244141</ele>
        <time>2016-03-07T08:55:59.000Z</time>
      </trkpt>
      <trkpt lat="45.50167" lon="6.61048">
        <ele>1892.1999511719</ele>
        <time>2016-03-07T08:56:03.000Z</time>
      </trkpt>
      <trkpt lat="45.50165" lon="6.61049">
        <ele>1892.4000244141</ele>
        <time>2016-03-07T08:56:04.000Z</time>
      </trkpt>
      <trkpt lat="45.50162" lon="6.61049">
        <ele>1893.1999511719</ele>
        <time>2016-03-07T08:56:08.000Z</time>
      </trkpt>
      <trkpt lat="45.5016" lon="6.61051">
        <ele>1893.8000488281</ele>
        <time>2016-03-07T08:56:10.000Z</time>
      </trkpt>
      <trkpt lat="45.50157" lon="6.61053">
        <ele>1894</ele>
        <time>2016-03-07T08:56:14.000Z</time>
      </trkpt>
      <trkpt lat="45.50154" lon="6.61055">
        <ele>1894.5999755859</ele>
        <time>2016-03-07T08:56:19.000Z</time>
      </trkpt>
      <trkpt lat="45.50152" lon="6.61055">
        <ele>1894.8000488281</ele>
        <time>2016-03-07T08:56:20.000Z</time>
      </trkpt>
      <trkpt lat="45.5015" lon="6.61055">
        <ele>1895.4000244141</ele>
        <time>2016-03-07T08:56:24.000Z</time>
      </trkpt>
      <trkpt lat="45.50146" lon="6.61056">
        <ele>1896</ele>
        <time>2016-03-07T08:56:27.000Z</time>
      </trkpt>
      <trkpt lat="45.50145" lon="6.61056">
        <ele>1896.1999511719</ele>
        <time>2016-03-07T08:56:29.000Z</time>
      </trkpt>
      <trkpt lat="45.50141" lon="6.61057">
        <ele>1896.5999755859</ele>
        <time>2016-03-07T08:56:34.000Z</time>
      </trkpt>
      <trkpt lat="45.50136" lon="6.61061">
        <ele>1897</ele>
        <time>2016-03-07T08:56:39.000Z</time>
      </trkpt>
      <trkpt lat="45.50136" lon="6.61061">
        <ele>1897.1999511719</ele>
        <time>2016-03-07T08:56:40.000Z</time>
      </trkpt>
      <trkpt lat="45.50133" lon="6.61068">
        <ele>1897.8000488281</ele>
        <time>2016-03-07T08:56:46.000Z</time>
      </trkpt>
      <trkpt lat="45.50134" lon="6.61073">
        <ele>1898.1999511719</ele>
        <time>2016-03-07T08:56:50.000Z</time>
      </trkpt>
      <trkpt lat="45.50134" lon="6.61074">
        <ele>1898.4000244141</ele>
        <time>2016-03-07T08:56:51.000Z</time>
      </trkpt>
      <trkpt lat="45.50134" lon="6.61078">
        <ele>1899</ele>
        <time>2016-03-07T08:56:55.000Z</time>
      </trkpt>
      <trkpt lat="45.50134" lon="6.61079">
        <ele>1899.1999511719</ele>
        <time>2016-03-07T08:56:56.000Z</time>
      </trkpt>
      <trkpt lat="45.50134" lon="6.6108">
        <ele>1899.4000244141</ele>
        <time>2016-03-07T08:56:57.000Z</time>
      </trkpt>
      <trkpt lat="45.50134" lon="6.61082">
        <ele>1900.1999511719</ele>
        <time>2016-03-07T08:57:01.000Z</time>
      </trkpt>
      <trkpt lat="45.50135" lon="6.61085">
        <ele>1900.4000244141</ele>
        <time>2016-03-07T08:57:03.000Z</time>
      </trkpt>
      <trkpt lat="45.50135" lon="6.61089">
        <ele>1901.4000244141</ele>
        <time>2016-03-07T08:57:07.000Z</time>
      </trkpt>
      <trkpt lat="45.50135" lon="6.6109">
        <ele>1901.4000244141</ele>
        <time>2016-03-07T08:57:09.000Z</time>
      </trkpt>
      <trkpt lat="45.50136" lon="6.61095">
        <ele>1902.1999511719</ele>
        <time>2016-03-07T08:57:14.000Z</time>
      </trkpt>
      <trkpt lat="45.50136" lon="6.61097">
        <ele>1902.5999755859</ele>
        <time>2016-03-07T08:57:15.000Z</time>
      </trkpt>
      <trkpt lat="45.50136" lon="6.61099">
        <ele>1903.1999511719</ele>
        <time>2016-03-07T08:57:18.000Z</time>
      </trkpt>
      <trkpt lat="45.50136" lon="6.61102">
        <ele>1903.8000488281</ele>
        <time>2016-03-07T08:57:22.000Z</time>
      </trkpt>
      <trkpt lat="45.50136" lon="6.61106">
        <ele>1904.1999511719</ele>
        <time>2016-03-07T08:57:24.000Z</time>
      </trkpt>
      <trkpt lat="45.50136" lon="6.61108">
        <ele>1904.8000488281</ele>
        <time>2016-03-07T08:57:27.000Z</time>
      </trkpt>
      <trkpt lat="45.50136" lon="6.6111">
        <ele>1905</ele>
        <time>2016-03-07T08:57:29.000Z</time>
      </trkpt>
      <trkpt lat="45.50135" lon="6.61116">
        <ele>1906</ele>
        <time>2016-03-07T08:57:35.000Z</time>
      </trkpt>
      <trkpt lat="45.50134" lon="6.61121">
        <ele>1907</ele>
        <time>2016-03-07T08:57:39.000Z</time>
      </trkpt>
      <trkpt lat="45.50134" lon="6.61125">
        <ele>1907.4000244141</ele>
        <time>2016-03-07T08:57:43.000Z</time>
      </trkpt>
      <trkpt lat="45.50134" lon="6.61127">
        <ele>1908.1999511719</ele>
        <time>2016-03-07T08:57:46.000Z</time>
      </trkpt>
      <trkpt lat="45.50133" lon="6.61131">
        <ele>1909</ele>
        <time>2016-03-07T08:57:51.000Z</time>
      </trkpt>
      <trkpt lat="45.50133" lon="6.61133">
        <ele>1909.4000244141</ele>
        <time>2016-03-07T08:57:53.000Z</time>
      </trkpt>
      <trkpt lat="45.50132" lon="6.61136">
        <ele>1910.4000244141</ele>
        <time>2016-03-07T08:57:57.000Z</time>
      </trkpt>
      <trkpt lat="45.50132" lon="6.61139">
        <ele>1911</ele>
        <time>2016-03-07T08:58:00.000Z</time>
      </trkpt>
      <trkpt lat="45.50131" lon="6.6114">
        <ele>1911.5999755859</ele>
        <time>2016-03-07T08:58:02.000Z</time>
      </trkpt>
      <trkpt lat="45.50132" lon="6.61147">
        <ele>1912.8000488281</ele>
        <time>2016-03-07T08:58:09.000Z</time>
      </trkpt>
      <trkpt lat="45.50129" lon="6.61156">
        <ele>1913.1999511719</ele>
        <time>2016-03-07T08:58:16.000Z</time>
      </trkpt>
      <trkpt lat="45.50128" lon="6.61161">
        <ele>1913.4000244141</ele>
        <time>2016-03-07T08:58:22.000Z</time>
      </trkpt>
      <trkpt lat="45.50127" lon="6.61164">
        <ele>1913.8000488281</ele>
        <time>2016-03-07T08:58:25.000Z</time>
      </trkpt>
      <trkpt lat="45.50125" lon="6.61168">
        <ele>1914.8000488281</ele>
        <time>2016-03-07T08:58:29.000Z</time>
      </trkpt>
      <trkpt lat="45.50125" lon="6.61168">
        <ele>1915</ele>
        <time>2016-03-07T08:58:30.000Z</time>
      </trkpt>
      <trkpt lat="45.50125" lon="6.61173">
        <ele>1916</ele>
        <time>2016-03-07T08:58:35.000Z</time>
      </trkpt>
      <trkpt lat="45.50125" lon="6.61177">
        <ele>1916.1999511719</ele>
        <time>2016-03-07T08:58:38.000Z</time>
      </trkpt>
      <trkpt lat="45.50126" lon="6.61178">
        <ele>1916.4000244141</ele>
        <time>2016-03-07T08:58:40.000Z</time>
      </trkpt>
      <trkpt lat="45.50127" lon="6.6118">
        <ele>1917.1999511719</ele>
        <time>2016-03-07T08:58:43.000Z</time>
      </trkpt>
      <trkpt lat="45.50129" lon="6.61184">
        <ele>1917.8000488281</ele>
        <time>2016-03-07T08:58:46.000Z</time>
      </trkpt>
      <trkpt lat="45.50129" lon="6.61188">
        <ele>1918.1999511719</ele>
        <time>2016-03-07T08:58:50.000Z</time>
      </trkpt>
      <trkpt lat="45.5013" lon="6.61191">
        <ele>1918.8000488281</ele>
        <time>2016-03-07T08:58:52.000Z</time>
      </trkpt>
      <trkpt lat="45.5013" lon="6.61193">
        <ele>1919.4000244141</ele>
        <time>2016-03-07T08:58:54.000Z</time>
      </trkpt>
      <trkpt lat="45.50131" lon="6.61195">
        <ele>1920</ele>
        <time>2016-03-07T08:58:57.000Z</time>
      </trkpt>
      <trkpt lat="45.50131" lon="6.61198">
        <ele>1920.5999755859</ele>
        <time>2016-03-07T08:59:00.000Z</time>
      </trkpt>
      <trkpt lat="45.50132" lon="6.61201">
        <ele>1921.4000244141</ele>
        <time>2016-03-07T08:59:03.000Z</time>
      </trkpt>
      <trkpt lat="45.50132" lon="6.61202">
        <ele>1921.8000488281</ele>
        <time>2016-03-07T08:59:05.000Z</time>
      </trkpt>
      <trkpt lat="45.50133" lon="6.61208">
        <ele>1922.1999511719</ele>
        <time>2016-03-07T08:59:09.000Z</time>
      </trkpt>
      <trkpt lat="45.50134" lon="6.61208">
        <ele>1922.8000488281</ele>
        <time>2016-03-07T08:59:11.000Z</time>
      </trkpt>
      <trkpt lat="45.50135" lon="6.61214">
        <ele>1923.5999755859</ele>
        <time>2016-03-07T08:59:16.000Z</time>
      </trkpt>
      <trkpt lat="45.50135" lon="6.61217">
        <ele>1923.8000488281</ele>
        <time>2016-03-07T08:59:19.000Z</time>
      </trkpt>
      <trkpt lat="45.50136" lon="6.6122">
        <ele>1924.8000488281</ele>
        <time>2016-03-07T08:59:22.000Z</time>
      </trkpt>
      <trkpt lat="45.50136" lon="6.61221">
        <ele>1925</ele>
        <time>2016-03-07T08:59:23.000Z</time>
      </trkpt>
      <trkpt lat="45.50137" lon="6.61223">
        <ele>1926.1999511719</ele>
        <time>2016-03-07T08:59:28.000Z</time>
      </trkpt>
      <trkpt lat="45.50138" lon="6.61224">
        <ele>1926.4000244141</ele>
        <time>2016-03-07T08:59:29.000Z</time>
      </trkpt>
      <trkpt lat="45.50138" lon="6.61224">
        <ele>1927.4000244141</ele>
        <time>2016-03-07T08:59:32.000Z</time>
      </trkpt>
      <trkpt lat="45.50138" lon="6.61224">
        <ele>1927.5999755859</ele>
        <time>2016-03-07T08:59:37.000Z</time>
      </trkpt>
      <trkpt lat="45.50139" lon="6.61227">
        <ele>1928.5999755859</ele>
        <time>2016-03-07T08:59:43.000Z</time>
      </trkpt>
      <trkpt lat="45.50139" lon="6.6123">
        <ele>1929.5999755859</ele>
        <time>2016-03-07T08:59:46.000Z</time>
      </trkpt>
      <trkpt lat="45.50139" lon="6.61233">
        <ele>1930</ele>
        <time>2016-03-07T08:59:49.000Z</time>
      </trkpt>
      <trkpt lat="45.50138" lon="6.6124">
        <ele>1930.5999755859</ele>
        <time>2016-03-07T08:59:54.000Z</time>
      </trkpt>
      <trkpt lat="45.50138" lon="6.61239">
        <ele>1930.8000488281</ele>
        <time>2016-03-07T08:59:56.000Z</time>
      </trkpt>
      <trkpt lat="45.50138" lon="6.61243">
        <ele>1931.8000488281</ele>
        <time>2016-03-07T08:59:59.000Z</time>
      </trkpt>
      <trkpt lat="45.50137" lon="6.61243">
        <ele>1932</ele>
        <time>2016-03-07T09:00:00.000Z</time>
      </trkpt>
      <trkpt lat="45.50136" lon="6.61249">
        <ele>1932.8000488281</ele>
        <time>2016-03-07T09:00:04.000Z</time>
      </trkpt>
      <trkpt lat="45.50136" lon="6.61249">
        <ele>1933.1999511719</ele>
        <time>2016-03-07T09:00:05.000Z</time>
      </trkpt>
      <trkpt lat="45.50135" lon="6.61253">
        <ele>1933.8000488281</ele>
        <time>2016-03-07T09:00:09.000Z</time>
      </trkpt>
      <trkpt lat="45.50135" lon="6.61254">
        <ele>1934.5999755859</ele>
        <time>2016-03-07T09:00:11.000Z</time>
      </trkpt>
      <trkpt lat="45.50135" lon="6.61255">
        <ele>1935</ele>
        <time>2016-03-07T09:00:12.000Z</time>
      </trkpt>
      <trkpt lat="45.50133" lon="6.6126">
        <ele>1936</ele>
        <time>2016-03-07T09:00:17.000Z</time>
      </trkpt>
      <trkpt lat="45.50131" lon="6.61266">
        <ele>1937</ele>
        <time>2016-03-07T09:00:22.000Z</time>
      </trkpt>
      <trkpt lat="45.50131" lon="6.61267">
        <ele>1937.5999755859</ele>
        <time>2016-03-07T09:00:24.000Z</time>
      </trkpt>
      <trkpt lat="45.5013" lon="6.61269">
        <ele>1938.1999511719</ele>
        <time>2016-03-07T09:00:28.000Z</time>
      </trkpt>
      <trkpt lat="45.50129" lon="6.61272">
        <ele>1938.8000488281</ele>
        <time>2016-03-07T09:00:30.000Z</time>
      </trkpt>
      <trkpt lat="45.50129" lon="6.61273">
        <ele>1939.4000244141</ele>
        <time>2016-03-07T09:00:32.000Z</time>
      </trkpt>
      <trkpt lat="45.50128" lon="6.61276">
        <ele>1939.5999755859</ele>
        <time>2016-03-07T09:00:35.000Z</time>
      </trkpt>
      <trkpt lat="45.50127" lon="6.61277">
        <ele>1939.8000488281</ele>
        <time>2016-03-07T09:00:36.000Z</time>
      </trkpt>
      <trkpt lat="45.50127" lon="6.6128">
        <ele>1940.4000244141</ele>
        <time>2016-03-07T09:00:38.000Z</time>
      </trkpt>
      <trkpt lat="45.50126" lon="6.61282">
        <ele>1941</ele>
        <time>2016-03-07T09:00:40.000Z</time>
      </trkpt>
      <trkpt lat="45.50125" lon="6.61287">
        <ele>1941.5999755859</ele>
        <time>2016-03-07T09:00:46.000Z</time>
      </trkpt>
      <trkpt lat="45.50123" lon="6.61289">
        <ele>1942.8000488281</ele>
        <time>2016-03-07T09:00:51.000Z</time>
      </trkpt>
      <trkpt lat="45.50122" lon="6.6129">
        <ele>1943</ele>
        <time>2016-03-07T09:00:52.000Z</time>
      </trkpt>
      <trkpt lat="45.50122" lon="6.61292">
        <ele>1944</ele>
        <time>2016-03-07T09:00:56.000Z</time>
      </trkpt>
      <trkpt lat="45.50121" lon="6.61294">
        <ele>1944.5999755859</ele>
        <time>2016-03-07T09:00:58.000Z</time>
      </trkpt>
      <trkpt lat="45.50121" lon="6.61296">
        <ele>1945.1999511719</ele>
        <time>2016-03-07T09:01:00.000Z</time>
      </trkpt>
      <trkpt lat="45.50119" lon="6.61298">
        <ele>1945.5999755859</ele>
        <time>2016-03-07T09:01:03.000Z</time>
      </trkpt>
      <trkpt lat="45.50118" lon="6.613">
        <ele>1946.1999511719</ele>
        <time>2016-03-07T09:01:05.000Z</time>
      </trkpt>
      <trkpt lat="45.50118" lon="6.61302">
        <ele>1946.8000488281</ele>
        <time>2016-03-07T09:01:08.000Z</time>
      </trkpt>
      <trkpt lat="45.50118" lon="6.61303">
        <ele>1947.1999511719</ele>
        <time>2016-03-07T09:01:10.000Z</time>
      </trkpt>
      <trkpt lat="45.50116" lon="6.61307">
        <ele>1948.4000244141</ele>
        <time>2016-03-07T09:01:15.000Z</time>
      </trkpt>
      <trkpt lat="45.50114" lon="6.61311">
        <ele>1949.4000244141</ele>
        <time>2016-03-07T09:01:21.000Z</time>
      </trkpt>
      <trkpt lat="45.50112" lon="6.61314">
        <ele>1950.5999755859</ele>
        <time>2016-03-07T09:01:25.000Z</time>
      </trkpt>
      <trkpt lat="45.50112" lon="6.61315">
        <ele>1950.8000488281</ele>
        <time>2016-03-07T09:01:26.000Z</time>
      </trkpt>
      <trkpt lat="45.50108" lon="6.61319">
        <ele>1951.5999755859</ele>
        <time>2016-03-07T09:01:32.000Z</time>
      </trkpt>
      <trkpt lat="45.50108" lon="6.61319">
        <ele>1951.8000488281</ele>
        <time>2016-03-07T09:01:33.000Z</time>
      </trkpt>
      <trkpt lat="45.50106" lon="6.61321">
        <ele>1952.1999511719</ele>
        <time>2016-03-07T09:01:35.000Z</time>
      </trkpt>
      <trkpt lat="45.50105" lon="6.61323">
        <ele>1952.4000244141</ele>
        <time>2016-03-07T09:01:38.000Z</time>
      </trkpt>
      <trkpt lat="45.50104" lon="6.61327">
        <ele>1952.8000488281</ele>
        <time>2016-03-07T09:01:41.000Z</time>
      </trkpt>
      <trkpt lat="45.50103" lon="6.61329">
        <ele>1953.1999511719</ele>
        <time>2016-03-07T09:01:43.000Z</time>
      </trkpt>
      <trkpt lat="45.501" lon="6.61331">
        <ele>1953.8000488281</ele>
        <time>2016-03-07T09:01:47.000Z</time>
      </trkpt>
      <trkpt lat="45.50097" lon="6.61333">
        <ele>1954.5999755859</ele>
        <time>2016-03-07T09:01:50.000Z</time>
      </trkpt>
      <trkpt lat="45.50094" lon="6.61335">
        <ele>1955</ele>
        <time>2016-03-07T09:01:54.000Z</time>
      </trkpt>
      <trkpt lat="45.50094" lon="6.61336">
        <ele>1955.1999511719</ele>
        <time>2016-03-07T09:01:55.000Z</time>
      </trkpt>
      <trkpt lat="45.50092" lon="6.61338">
        <ele>1956</ele>
        <time>2016-03-07T09:01:59.000Z</time>
      </trkpt>
      <trkpt lat="45.50091" lon="6.61339">
        <ele>1956</ele>
        <time>2016-03-07T09:02:00.000Z</time>
      </trkpt>
      <trkpt lat="45.50088" lon="6.61343">
        <ele>1957</ele>
        <time>2016-03-07T09:02:06.000Z</time>
      </trkpt>
      <trkpt lat="45.50087" lon="6.61344">
        <ele>1957.1999511719</ele>
        <time>2016-03-07T09:02:07.000Z</time>
      </trkpt>
      <trkpt lat="45.50084" lon="6.61346">
        <ele>1958</ele>
        <time>2016-03-07T09:02:12.000Z</time>
      </trkpt>
      <trkpt lat="45.50084" lon="6.61346">
        <ele>1958.4000244141</ele>
        <time>2016-03-07T09:02:13.000Z</time>
      </trkpt>
      <trkpt lat="45.50082" lon="6.61348">
        <ele>1959</ele>
        <time>2016-03-07T09:02:17.000Z</time>
      </trkpt>
      <trkpt lat="45.50081" lon="6.6135">
        <ele>1959.4000244141</ele>
        <time>2016-03-07T09:02:20.000Z</time>
      </trkpt>
      <trkpt lat="45.5008" lon="6.6135">
        <ele>1959.5999755859</ele>
        <time>2016-03-07T09:02:21.000Z</time>
      </trkpt>
      <trkpt lat="45.50078" lon="6.61351">
        <ele>1960.5999755859</ele>
        <time>2016-03-07T09:02:24.000Z</time>
      </trkpt>
      <trkpt lat="45.50076" lon="6.61352">
        <ele>1960.8000488281</ele>
        <time>2016-03-07T09:02:26.000Z</time>
      </trkpt>
      <trkpt lat="45.50074" lon="6.61353">
        <ele>1961.5999755859</ele>
        <time>2016-03-07T09:02:29.000Z</time>
      </trkpt>
      <trkpt lat="45.50072" lon="6.61353">
        <ele>1962.1999511719</ele>
        <time>2016-03-07T09:02:31.000Z</time>
      </trkpt>
      <trkpt lat="45.5007" lon="6.61355">
        <ele>1962.5999755859</ele>
        <time>2016-03-07T09:02:34.000Z</time>
      </trkpt>
      <trkpt lat="45.50069" lon="6.61355">
        <ele>1963.1999511719</ele>
        <time>2016-03-07T09:02:36.000Z</time>
      </trkpt>
      <trkpt lat="45.50067" lon="6.61357">
        <ele>1963.8000488281</ele>
        <time>2016-03-07T09:02:39.000Z</time>
      </trkpt>
      <trkpt lat="45.50065" lon="6.61358">
        <ele>1964.4000244141</ele>
        <time>2016-03-07T09:02:41.000Z</time>
      </trkpt>
      <trkpt lat="45.50063" lon="6.6136">
        <ele>1965</ele>
        <time>2016-03-07T09:02:45.000Z</time>
      </trkpt>
      <trkpt lat="45.50061" lon="6.61361">
        <ele>1965.4000244141</ele>
        <time>2016-03-07T09:02:47.000Z</time>
      </trkpt>
      <trkpt lat="45.50058" lon="6.61365">
        <ele>1966</ele>
        <time>2016-03-07T09:02:52.000Z</time>
      </trkpt>
      <trkpt lat="45.50057" lon="6.61366">
        <ele>1966.1999511719</ele>
        <time>2016-03-07T09:02:53.000Z</time>
      </trkpt>
      <trkpt lat="45.50055" lon="6.61369">
        <ele>1967</ele>
        <time>2016-03-07T09:02:58.000Z</time>
      </trkpt>
      <trkpt lat="45.50055" lon="6.6137">
        <ele>1967.1999511719</ele>
        <time>2016-03-07T09:02:59.000Z</time>
      </trkpt>
      <trkpt lat="45.50053" lon="6.61372">
        <ele>1967.8000488281</ele>
        <time>2016-03-07T09:03:03.000Z</time>
      </trkpt>
      <trkpt lat="45.50051" lon="6.61374">
        <ele>1968.1999511719</ele>
        <time>2016-03-07T09:03:06.000Z</time>
      </trkpt>
      <trkpt lat="45.5005" lon="6.61375">
        <ele>1968.8000488281</ele>
        <time>2016-03-07T09:03:08.000Z</time>
      </trkpt>
      <trkpt lat="45.50048" lon="6.61377">
        <ele>1969.4000244141</ele>
        <time>2016-03-07T09:03:10.000Z</time>
      </trkpt>
      <trkpt lat="45.50048" lon="6.61379">
        <ele>1970.4000244141</ele>
        <time>2016-03-07T09:03:13.000Z</time>
      </trkpt>
      <trkpt lat="45.50047" lon="6.6138">
        <ele>1970.5999755859</ele>
        <time>2016-03-07T09:03:14.000Z</time>
      </trkpt>
      <trkpt lat="45.50045" lon="6.61384">
        <ele>1971.1999511719</ele>
        <time>2016-03-07T09:03:18.000Z</time>
      </trkpt>
      <trkpt lat="45.50044" lon="6.61387">
        <ele>1971.5999755859</ele>
        <time>2016-03-07T09:03:21.000Z</time>
      </trkpt>
      <trkpt lat="45.50043" lon="6.61389">
        <ele>1972</ele>
        <time>2016-03-07T09:03:24.000Z</time>
      </trkpt>
      <trkpt lat="45.50042" lon="6.61391">
        <ele>1972.5999755859</ele>
        <time>2016-03-07T09:03:27.000Z</time>
      </trkpt>
      <trkpt lat="45.50041" lon="6.61395">
        <ele>1973</ele>
        <time>2016-03-07T09:03:30.000Z</time>
      </trkpt>
      <trkpt lat="45.50041" lon="6.61398">
        <ele>1973.8000488281</ele>
        <time>2016-03-07T09:03:33.000Z</time>
      </trkpt>
      <trkpt lat="45.50041" lon="6.614">
        <ele>1974.1999511719</ele>
        <time>2016-03-07T09:03:36.000Z</time>
      </trkpt>
      <trkpt lat="45.5004" lon="6.61403">
        <ele>1975</ele>
        <time>2016-03-07T09:03:39.000Z</time>
      </trkpt>
      <trkpt lat="45.50039" lon="6.61406">
        <ele>1975.4000244141</ele>
        <time>2016-03-07T09:03:43.000Z</time>
      </trkpt>
      <trkpt lat="45.50038" lon="6.61411">
        <ele>1976.1999511719</ele>
        <time>2016-03-07T09:03:47.000Z</time>
      </trkpt>
      <trkpt lat="45.50038" lon="6.61413">
        <ele>1976.4000244141</ele>
        <time>2016-03-07T09:03:49.000Z</time>
      </trkpt>
      <trkpt lat="45.50037" lon="6.61417">
        <ele>1977.1999511719</ele>
        <time>2016-03-07T09:03:52.000Z</time>
      </trkpt>
      <trkpt lat="45.50037" lon="6.6142">
        <ele>1977.8000488281</ele>
        <time>2016-03-07T09:03:56.000Z</time>
      </trkpt>
      <trkpt lat="45.50035" lon="6.61423">
        <ele>1978.4000244141</ele>
        <time>2016-03-07T09:03:59.000Z</time>
      </trkpt>
      <trkpt lat="45.50035" lon="6.61424">
        <ele>1978.5999755859</ele>
        <time>2016-03-07T09:04:01.000Z</time>
      </trkpt>
      <trkpt lat="45.50034" lon="6.61427">
        <ele>1979.5999755859</ele>
        <time>2016-03-07T09:04:05.000Z</time>
      </trkpt>
      <trkpt lat="45.50033" lon="6.61429">
        <ele>1980.1999511719</ele>
        <time>2016-03-07T09:04:08.000Z</time>
      </trkpt>
      <trkpt lat="45.50033" lon="6.61431">
        <ele>1980.8000488281</ele>
        <time>2016-03-07T09:04:11.000Z</time>
      </trkpt>
      <trkpt lat="45.50032" lon="6.61434">
        <ele>1981.4000244141</ele>
        <time>2016-03-07T09:04:14.000Z</time>
      </trkpt>
      <trkpt lat="45.50032" lon="6.61436">
        <ele>1981.8000488281</ele>
        <time>2016-03-07T09:04:16.000Z</time>
      </trkpt>
      <trkpt lat="45.50031" lon="6.6144">
        <ele>1982.5999755859</ele>
        <time>2016-03-07T09:04:21.000Z</time>
      </trkpt>
      <trkpt lat="45.50031" lon="6.6144">
        <ele>1983</ele>
        <time>2016-03-07T09:04:22.000Z</time>
      </trkpt>
      <trkpt lat="45.50029" lon="6.61445">
        <ele>1984</ele>
        <time>2016-03-07T09:04:26.000Z</time>
      </trkpt>
      <trkpt lat="45.50029" lon="6.61445">
        <ele>1984</ele>
        <time>2016-03-07T09:04:27.000Z</time>
      </trkpt>
      <trkpt lat="45.50029" lon="6.6145">
        <ele>1985</ele>
        <time>2016-03-07T09:04:32.000Z</time>
      </trkpt>
      <trkpt lat="45.50028" lon="6.61452">
        <ele>1985.5999755859</ele>
        <time>2016-03-07T09:04:34.000Z</time>
      </trkpt>
      <trkpt lat="45.50028" lon="6.61452">
        <ele>1986.1999511719</ele>
        <time>2016-03-07T09:04:35.000Z</time>
      </trkpt>
      <trkpt lat="45.50028" lon="6.61458">
        <ele>1986.8000488281</ele>
        <time>2016-03-07T09:04:40.000Z</time>
      </trkpt>
      <trkpt lat="45.50027" lon="6.61459">
        <ele>1987.1999511719</ele>
        <time>2016-03-07T09:04:41.000Z</time>
      </trkpt>
      <trkpt lat="45.50026" lon="6.61463">
        <ele>1988</ele>
        <time>2016-03-07T09:04:46.000Z</time>
      </trkpt>
      <trkpt lat="45.50026" lon="6.61464">
        <ele>1988.1999511719</ele>
        <time>2016-03-07T09:04:48.000Z</time>
      </trkpt>
      <trkpt lat="45.50026" lon="6.61467">
        <ele>1988.5999755859</ele>
        <time>2016-03-07T09:04:51.000Z</time>
      </trkpt>
      <trkpt lat="45.50026" lon="6.61469">
        <ele>1989.4000244141</ele>
        <time>2016-03-07T09:04:54.000Z</time>
      </trkpt>
      <trkpt lat="45.50026" lon="6.6147">
        <ele>1989.8000488281</ele>
        <time>2016-03-07T09:04:56.000Z</time>
      </trkpt>
      <trkpt lat="45.50026" lon="6.61471">
        <ele>1990.5999755859</ele>
        <time>2016-03-07T09:04:59.000Z</time>
      </trkpt>
      <trkpt lat="45.50026" lon="6.61475">
        <ele>1991.1999511719</ele>
        <time>2016-03-07T09:05:03.000Z</time>
      </trkpt>
      <trkpt lat="45.50026" lon="6.61478">
        <ele>1991.8000488281</ele>
        <time>2016-03-07T09:05:07.000Z</time>
      </trkpt>
      <trkpt lat="45.50026" lon="6.61479">
        <ele>1991.8000488281</ele>
        <time>2016-03-07T09:05:08.000Z</time>
      </trkpt>
      <trkpt lat="45.50026" lon="6.61481">
        <ele>1993</ele>
        <time>2016-03-07T09:05:13.000Z</time>
      </trkpt>
      <trkpt lat="45.50026" lon="6.61485">
        <ele>1994.1999511719</ele>
        <time>2016-03-07T09:05:19.000Z</time>
      </trkpt>
      <trkpt lat="45.50025" lon="6.61487">
        <ele>1995.1999511719</ele>
        <time>2016-03-07T09:05:23.000Z</time>
      </trkpt>
      <trkpt lat="45.50025" lon="6.6149">
        <ele>1995.8000488281</ele>
        <time>2016-03-07T09:05:25.000Z</time>
      </trkpt>
      <trkpt lat="45.50024" lon="6.61492">
        <ele>1996.4000244141</ele>
        <time>2016-03-07T09:05:28.000Z</time>
      </trkpt>
      <trkpt lat="45.50025" lon="6.61494">
        <ele>1997</ele>
        <time>2016-03-07T09:05:31.000Z</time>
      </trkpt>
      <trkpt lat="45.50025" lon="6.61495">
        <ele>1997.4000244141</ele>
        <time>2016-03-07T09:05:33.000Z</time>
      </trkpt>
      <trkpt lat="45.50025" lon="6.61498">
        <ele>1998</ele>
        <time>2016-03-07T09:05:37.000Z</time>
      </trkpt>
      <trkpt lat="45.50025" lon="6.61502">
        <ele>1998.4000244141</ele>
        <time>2016-03-07T09:05:40.000Z</time>
      </trkpt>
      <trkpt lat="45.50025" lon="6.61504">
        <ele>1999</ele>
        <time>2016-03-07T09:05:43.000Z</time>
      </trkpt>
      <trkpt lat="45.50026" lon="6.61506">
        <ele>1999.8000488281</ele>
        <time>2016-03-07T09:05:47.000Z</time>
      </trkpt>
      <trkpt lat="45.50026" lon="6.61507">
        <ele>2000.4000244141</ele>
        <time>2016-03-07T09:05:49.000Z</time>
      </trkpt>
      <trkpt lat="45.50026" lon="6.61508">
        <ele>2001</ele>
        <time>2016-03-07T09:05:51.000Z</time>
      </trkpt>
      <trkpt lat="45.50027" lon="6.6151">
        <ele>2002</ele>
        <time>2016-03-07T09:05:55.000Z</time>
      </trkpt>
      <trkpt lat="45.50027" lon="6.61511">
        <ele>2002.4000244141</ele>
        <time>2016-03-07T09:05:56.000Z</time>
      </trkpt>
      <trkpt lat="45.50027" lon="6.61513">
        <ele>2003.1999511719</ele>
        <time>2016-03-07T09:06:00.000Z</time>
      </trkpt>
      <trkpt lat="45.50027" lon="6.61515">
        <ele>2003.5999755859</ele>
        <time>2016-03-07T09:06:02.000Z</time>
      </trkpt>
      <trkpt lat="45.50026" lon="6.61519">
        <ele>2004.4000244141</ele>
        <time>2016-03-07T09:06:07.000Z</time>
      </trkpt>
      <trkpt lat="45.50025" lon="6.61519">
        <ele>2005.1999511719</ele>
        <time>2016-03-07T09:06:10.000Z</time>
      </trkpt>
      <trkpt lat="45.50025" lon="6.61519">
        <ele>2005.4000244141</ele>
        <time>2016-03-07T09:06:11.000Z</time>
      </trkpt>
      <trkpt lat="45.5002" lon="6.61521">
        <ele>2006</ele>
        <time>2016-03-07T09:06:17.000Z</time>
      </trkpt>
      <trkpt lat="45.50019" lon="6.61521">
        <ele>2006.5999755859</ele>
        <time>2016-03-07T09:06:20.000Z</time>
      </trkpt>
      <trkpt lat="45.50018" lon="6.61521">
        <ele>2006.8000488281</ele>
        <time>2016-03-07T09:06:21.000Z</time>
      </trkpt>
      <trkpt lat="45.50015" lon="6.61523">
        <ele>2007.8000488281</ele>
        <time>2016-03-07T09:06:26.000Z</time>
      </trkpt>
      <trkpt lat="45.50014" lon="6.61523">
        <ele>2008</ele>
        <time>2016-03-07T09:06:27.000Z</time>
      </trkpt>
      <trkpt lat="45.50012" lon="6.61524">
        <ele>2008.8000488281</ele>
        <time>2016-03-07T09:06:32.000Z</time>
      </trkpt>
      <trkpt lat="45.50011" lon="6.61525">
        <ele>2009</ele>
        <time>2016-03-07T09:06:33.000Z</time>
      </trkpt>
      <trkpt lat="45.50008" lon="6.61526">
        <ele>2010</ele>
        <time>2016-03-07T09:06:38.000Z</time>
      </trkpt>
      <trkpt lat="45.50005" lon="6.61531">
        <ele>2011.1999511719</ele>
        <time>2016-03-07T09:06:44.000Z</time>
      </trkpt>
      <trkpt lat="45.50004" lon="6.61532">
        <ele>2011.5999755859</ele>
        <time>2016-03-07T09:06:46.000Z</time>
      </trkpt>
      <trkpt lat="45.50004" lon="6.61537">
        <ele>2012.1999511719</ele>
        <time>2016-03-07T09:06:50.000Z</time>
      </trkpt>
      <trkpt lat="45.50003" lon="6.61539">
        <ele>2012.1999511719</ele>
        <time>2016-03-07T09:06:53.000Z</time>
      </trkpt>
      <trkpt lat="45.50003" lon="6.61539">
        <ele>2012</ele>
        <time>2016-03-07T09:07:11.000Z</time>
      </trkpt>
      <trkpt lat="45.50003" lon="6.61539">
        <ele>2012</ele>
        <time>2016-03-07T09:07:25.000Z</time>
      </trkpt>
      <trkpt lat="45.50002" lon="6.61542">
        <ele>2012</ele>
        <time>2016-03-07T09:07:32.000Z</time>
      </trkpt>
      <trkpt lat="45.49998" lon="6.6155">
        <ele>2012.5999755859</ele>
        <time>2016-03-07T09:07:39.000Z</time>
      </trkpt>
      <trkpt lat="45.49997" lon="6.61553">
        <ele>2012.8000488281</ele>
        <time>2016-03-07T09:07:41.000Z</time>
      </trkpt>
      <trkpt lat="45.49995" lon="6.61557">
        <ele>2013.4000244141</ele>
        <time>2016-03-07T09:07:44.000Z</time>
      </trkpt>
      <trkpt lat="45.49994" lon="6.61559">
        <ele>2013.4000244141</ele>
        <time>2016-03-07T09:07:45.000Z</time>
      </trkpt>
      <trkpt lat="45.49992" lon="6.61564">
        <ele>2013.8000488281</ele>
        <time>2016-03-07T09:07:51.000Z</time>
      </trkpt>
      <trkpt lat="45.49991" lon="6.61568">
        <ele>2014.4000244141</ele>
        <time>2016-03-07T09:07:55.000Z</time>
      </trkpt>
      <trkpt lat="45.4999" lon="6.61571">
        <ele>2015.4000244141</ele>
        <time>2016-03-07T09:07:58.000Z</time>
      </trkpt>
      <trkpt lat="45.4999" lon="6.61572">
        <ele>2015.5999755859</ele>
        <time>2016-03-07T09:07:59.000Z</time>
      </trkpt>
      <trkpt lat="45.49989" lon="6.61577">
        <ele>2016.1999511719</ele>
        <time>2016-03-07T09:08:04.000Z</time>
      </trkpt>
      <trkpt lat="45.49989" lon="6.61578">
        <ele>2016.8000488281</ele>
        <time>2016-03-07T09:08:06.000Z</time>
      </trkpt>
      <trkpt lat="45.49987" lon="6.6158">
        <ele>2017.8000488281</ele>
        <time>2016-03-07T09:08:09.000Z</time>
      </trkpt>
      <trkpt lat="45.49987" lon="6.61582">
        <ele>2018</ele>
        <time>2016-03-07T09:08:10.000Z</time>
      </trkpt>
      <trkpt lat="45.49987" lon="6.61583">
        <ele>2018.5999755859</ele>
        <time>2016-03-07T09:08:11.000Z</time>
      </trkpt>
      <trkpt lat="45.49986" lon="6.61584">
        <ele>2018.8000488281</ele>
        <time>2016-03-07T09:08:12.000Z</time>
      </trkpt>
      <trkpt lat="45.49984" lon="6.61591">
        <ele>2019.8000488281</ele>
        <time>2016-03-07T09:08:18.000Z</time>
      </trkpt>
      <trkpt lat="45.49984" lon="6.61593">
        <ele>2019.8000488281</ele>
        <time>2016-03-07T09:08:20.000Z</time>
      </trkpt>
      <trkpt lat="45.49983" lon="6.61597">
        <ele>2020.8000488281</ele>
        <time>2016-03-07T09:08:24.000Z</time>
      </trkpt>
      <trkpt lat="45.49983" lon="6.61598">
        <ele>2020.8000488281</ele>
        <time>2016-03-07T09:08:25.000Z</time>
      </trkpt>
      <trkpt lat="45.49981" lon="6.61603">
        <ele>2021.5999755859</ele>
        <time>2016-03-07T09:08:30.000Z</time>
      </trkpt>
      <trkpt lat="45.49981" lon="6.61604">
        <ele>2022.1999511719</ele>
        <time>2016-03-07T09:08:32.000Z</time>
      </trkpt>
      <trkpt lat="45.49982" lon="6.61608">
        <ele>2023.1999511719</ele>
        <time>2016-03-07T09:08:36.000Z</time>
      </trkpt>
      <trkpt lat="45.49982" lon="6.61609">
        <ele>2023.4000244141</ele>
        <time>2016-03-07T09:08:37.000Z</time>
      </trkpt>
      <trkpt lat="45.49983" lon="6.61611">
        <ele>2023.8000488281</ele>
        <time>2016-03-07T09:08:40.000Z</time>
      </trkpt>
      <trkpt lat="45.49984" lon="6.61613">
        <ele>2024.5999755859</ele>
        <time>2016-03-07T09:08:44.000Z</time>
      </trkpt>
      <trkpt lat="45.49984" lon="6.61613">
        <ele>2025</ele>
        <time>2016-03-07T09:08:46.000Z</time>
      </trkpt>
      <trkpt lat="45.49984" lon="6.61613">
        <ele>2025.5999755859</ele>
        <time>2016-03-07T09:08:48.000Z</time>
      </trkpt>
      <trkpt lat="45.49984" lon="6.61613">
        <ele>2026.4000244141</ele>
        <time>2016-03-07T09:08:57.000Z</time>
      </trkpt>
      <trkpt lat="45.49984" lon="6.61614">
        <ele>2026.1999511719</ele>
        <time>2016-03-07T09:09:08.000Z</time>
      </trkpt>
      <trkpt lat="45.49986" lon="6.61621">
        <ele>2026.5999755859</ele>
        <time>2016-03-07T09:09:13.000Z</time>
      </trkpt>
      <trkpt lat="45.49986" lon="6.61621">
        <ele>2027.4000244141</ele>
        <time>2016-03-07T09:09:19.000Z</time>
      </trkpt>
      <trkpt lat="45.49986" lon="6.61621">
        <ele>2027.5999755859</ele>
        <time>2016-03-07T09:09:22.000Z</time>
      </trkpt>
      <trkpt lat="45.49985" lon="6.61622">
        <ele>2028</ele>
        <time>2016-03-07T09:09:26.000Z</time>
      </trkpt>
      <trkpt lat="45.49982" lon="6.61622">
        <ele>2028.1999511719</ele>
        <time>2016-03-07T09:09:30.000Z</time>
      </trkpt>
      <trkpt lat="45.49981" lon="6.61622">
        <ele>2028.1999511719</ele>
        <time>2016-03-07T09:09:31.000Z</time>
      </trkpt>
      <trkpt lat="45.49977" lon="6.61623">
        <ele>2028.5999755859</ele>
        <time>2016-03-07T09:09:37.000Z</time>
      </trkpt>
      <trkpt lat="45.49976" lon="6.61623">
        <ele>2028.8000488281</ele>
        <time>2016-03-07T09:09:38.000Z</time>
      </trkpt>
      <trkpt lat="45.49973" lon="6.61624">
        <ele>2029.5999755859</ele>
        <time>2016-03-07T09:09:42.000Z</time>
      </trkpt>
      <trkpt lat="45.49972" lon="6.61624">
        <ele>2029.8000488281</ele>
        <time>2016-03-07T09:09:43.000Z</time>
      </trkpt>
      <trkpt lat="45.4997" lon="6.61626">
        <ele>2030.8000488281</ele>
        <time>2016-03-07T09:09:47.000Z</time>
      </trkpt>
      <trkpt lat="45.49969" lon="6.61626">
        <ele>2031</ele>
        <time>2016-03-07T09:09:48.000Z</time>
      </trkpt>
      <trkpt lat="45.49966" lon="6.61627">
        <ele>2032</ele>
        <time>2016-03-07T09:09:54.000Z</time>
      </trkpt>
      <trkpt lat="45.49965" lon="6.61627">
        <ele>2033</ele>
        <time>2016-03-07T09:09:59.000Z</time>
      </trkpt>
      <trkpt lat="45.49961" lon="6.61627">
        <ele>2034</ele>
        <time>2016-03-07T09:10:04.000Z</time>
      </trkpt>
      <trkpt lat="45.49959" lon="6.61629">
        <ele>2035</ele>
        <time>2016-03-07T09:10:09.000Z</time>
      </trkpt>
      <trkpt lat="45.49958" lon="6.61629">
        <ele>2035.4000244141</ele>
        <time>2016-03-07T09:10:11.000Z</time>
      </trkpt>
      <trkpt lat="45.49957" lon="6.6163">
        <ele>2036.1999511719</ele>
        <time>2016-03-07T09:10:14.000Z</time>
      </trkpt>
      <trkpt lat="45.49956" lon="6.6163">
        <ele>2036.4000244141</ele>
        <time>2016-03-07T09:10:15.000Z</time>
      </trkpt>
      <trkpt lat="45.49952" lon="6.61631">
        <ele>2037.4000244141</ele>
        <time>2016-03-07T09:10:21.000Z</time>
      </trkpt>
      <trkpt lat="45.49952" lon="6.61632">
        <ele>2037.5999755859</ele>
        <time>2016-03-07T09:10:22.000Z</time>
      </trkpt>
      <trkpt lat="45.49949" lon="6.61633">
        <ele>2038.5999755859</ele>
        <time>2016-03-07T09:10:27.000Z</time>
      </trkpt>
      <trkpt lat="45.49944" lon="6.61635">
        <ele>2039.4000244141</ele>
        <time>2016-03-07T09:10:33.000Z</time>
      </trkpt>
      <trkpt lat="45.49943" lon="6.61635">
        <ele>2039.5999755859</ele>
        <time>2016-03-07T09:10:35.000Z</time>
      </trkpt>
      <trkpt lat="45.49941" lon="6.61635">
        <ele>2040</ele>
        <time>2016-03-07T09:10:37.000Z</time>
      </trkpt>
      <trkpt lat="45.49939" lon="6.61636">
        <ele>2040.4000244141</ele>
        <time>2016-03-07T09:10:41.000Z</time>
      </trkpt>
      <trkpt lat="45.49939" lon="6.61636">
        <ele>2040.8000488281</ele>
        <time>2016-03-07T09:10:43.000Z</time>
      </trkpt>
      <trkpt lat="45.49938" lon="6.61639">
        <ele>2041.1999511719</ele>
        <time>2016-03-07T09:10:46.000Z</time>
      </trkpt>
      <trkpt lat="45.49939" lon="6.61642">
        <ele>2041.8000488281</ele>
        <time>2016-03-07T09:10:49.000Z</time>
      </trkpt>
      <trkpt lat="45.4994" lon="6.61643">
        <ele>2042</ele>
        <time>2016-03-07T09:10:51.000Z</time>
      </trkpt>
      <trkpt lat="45.49945" lon="6.61647">
        <ele>2042.8000488281</ele>
        <time>2016-03-07T09:10:57.000Z</time>
      </trkpt>
      <trkpt lat="45.49946" lon="6.61648">
        <ele>2042.8000488281</ele>
        <time>2016-03-07T09:10:58.000Z</time>
      </trkpt>
      <trkpt lat="45.49948" lon="6.61649">
        <ele>2043.4000244141</ele>
        <time>2016-03-07T09:11:02.000Z</time>
      </trkpt>
      <trkpt lat="45.49951" lon="6.61651">
        <ele>2043.8000488281</ele>
        <time>2016-03-07T09:11:06.000Z</time>
      </trkpt>
      <trkpt lat="45.49953" lon="6.61653">
        <ele>2044</ele>
        <time>2016-03-07T09:11:08.000Z</time>
      </trkpt>
      <trkpt lat="45.49958" lon="6.61656">
        <ele>2044.5999755859</ele>
        <time>2016-03-07T09:11:14.000Z</time>
      </trkpt>
      <trkpt lat="45.49961" lon="6.61658">
        <ele>2045</ele>
        <time>2016-03-07T09:11:18.000Z</time>
      </trkpt>
      <trkpt lat="45.49962" lon="6.61661">
        <ele>2045.1999511719</ele>
        <time>2016-03-07T09:11:20.000Z</time>
      </trkpt>
      <trkpt lat="45.49965" lon="6.61664">
        <ele>2045.8000488281</ele>
        <time>2016-03-07T09:11:25.000Z</time>
      </trkpt>
      <trkpt lat="45.49966" lon="6.61666">
        <ele>2046</ele>
        <time>2016-03-07T09:11:27.000Z</time>
      </trkpt>
      <trkpt lat="45.49967" lon="6.61668">
        <ele>2046.4000244141</ele>
        <time>2016-03-07T09:11:30.000Z</time>
      </trkpt>
      <trkpt lat="45.49971" lon="6.61671">
        <ele>2047</ele>
        <time>2016-03-07T09:11:35.000Z</time>
      </trkpt>
      <trkpt lat="45.49972" lon="6.61672">
        <ele>2047.1999511719</ele>
        <time>2016-03-07T09:11:36.000Z</time>
      </trkpt>
      <trkpt lat="45.49975" lon="6.61676">
        <ele>2048</ele>
        <time>2016-03-07T09:11:42.000Z</time>
      </trkpt>
      <trkpt lat="45.49976" lon="6.61676">
        <ele>2048</ele>
        <time>2016-03-07T09:11:43.000Z</time>
      </trkpt>
      <trkpt lat="45.49978" lon="6.6168">
        <ele>2048.8000488281</ele>
        <time>2016-03-07T09:11:48.000Z</time>
      </trkpt>
      <trkpt lat="45.4998" lon="6.61682">
        <ele>2049</ele>
        <time>2016-03-07T09:11:50.000Z</time>
      </trkpt>
      <trkpt lat="45.49981" lon="6.61685">
        <ele>2049.6000976562</ele>
        <time>2016-03-07T09:11:54.000Z</time>
      </trkpt>
      <trkpt lat="45.49984" lon="6.61687">
        <ele>2050.1999511719</ele>
        <time>2016-03-07T09:11:58.000Z</time>
      </trkpt>
      <trkpt lat="45.49984" lon="6.61688">
        <ele>2050.3999023438</ele>
        <time>2016-03-07T09:11:59.000Z</time>
      </trkpt>
      <trkpt lat="45.49984" lon="6.61691">
        <ele>2051.1999511719</ele>
        <time>2016-03-07T09:12:05.000Z</time>
      </trkpt>
      <trkpt lat="45.49983" lon="6.61693">
        <ele>2052.3999023438</ele>
        <time>2016-03-07T09:12:10.000Z</time>
      </trkpt>
      <trkpt lat="45.49982" lon="6.61693">
        <ele>2053</ele>
        <time>2016-03-07T09:12:11.000Z</time>
      </trkpt>
      <trkpt lat="45.49981" lon="6.61694">
        <ele>2053.6000976562</ele>
        <time>2016-03-07T09:12:14.000Z</time>
      </trkpt>
      <trkpt lat="45.49979" lon="6.61696">
        <ele>2054</ele>
        <time>2016-03-07T09:12:17.000Z</time>
      </trkpt>
      <trkpt lat="45.49978" lon="6.61697">
        <ele>2054.3999023438</ele>
        <time>2016-03-07T09:12:21.000Z</time>
      </trkpt>
      <trkpt lat="45.49977" lon="6.61697">
        <ele>2054.6000976562</ele>
        <time>2016-03-07T09:12:22.000Z</time>
      </trkpt>
      <trkpt lat="45.49977" lon="6.61699">
        <ele>2054.8000488281</ele>
        <time>2016-03-07T09:12:23.000Z</time>
      </trkpt>
      <trkpt lat="45.49977" lon="6.61701">
        <ele>2055</ele>
        <time>2016-03-07T09:12:25.000Z</time>
      </trkpt>
      <trkpt lat="45.49975" lon="6.61703">
        <ele>2055.6000976562</ele>
        <time>2016-03-07T09:12:28.000Z</time>
      </trkpt>
      <trkpt lat="45.49975" lon="6.61703">
        <ele>2055.8000488281</ele>
        <time>2016-03-07T09:12:29.000Z</time>
      </trkpt>
      <trkpt lat="45.49975" lon="6.61703">
        <ele>2056.3999023438</ele>
        <time>2016-03-07T09:12:33.000Z</time>
      </trkpt>
      <trkpt lat="45.49974" lon="6.61703">
        <ele>2056.8000488281</ele>
        <time>2016-03-07T09:12:34.000Z</time>
      </trkpt>
      <trkpt lat="45.49972" lon="6.61702">
        <ele>2058</ele>
        <time>2016-03-07T09:12:37.000Z</time>
      </trkpt>
      <trkpt lat="45.4997" lon="6.61701">
        <ele>2058.1999511719</ele>
        <time>2016-03-07T09:12:39.000Z</time>
      </trkpt>
      <trkpt lat="45.49966" lon="6.61702">
        <ele>2059</ele>
        <time>2016-03-07T09:12:45.000Z</time>
      </trkpt>
      <trkpt lat="45.49966" lon="6.61703">
        <ele>2059.3999023438</ele>
        <time>2016-03-07T09:12:47.000Z</time>
      </trkpt>
      <trkpt lat="45.49968" lon="6.61704">
        <ele>2060.1999511719</ele>
        <time>2016-03-07T09:12:50.000Z</time>
      </trkpt>
      <trkpt lat="45.49968" lon="6.61704">
        <ele>2060.3999023438</ele>
        <time>2016-03-07T09:12:51.000Z</time>
      </trkpt>
      <trkpt lat="45.49971" lon="6.61706">
        <ele>2061</ele>
        <time>2016-03-07T09:12:56.000Z</time>
      </trkpt>
      <trkpt lat="45.49973" lon="6.61708">
        <ele>2061.1999511719</ele>
        <time>2016-03-07T09:12:59.000Z</time>
      </trkpt>
      <trkpt lat="45.49974" lon="6.6171">
        <ele>2061.3999023438</ele>
        <time>2016-03-07T09:13:02.000Z</time>
      </trkpt>
      <trkpt lat="45.49975" lon="6.61714">
        <ele>2062.1999511719</ele>
        <time>2016-03-07T09:13:08.000Z</time>
      </trkpt>
      <trkpt lat="45.49975" lon="6.61715">
        <ele>2062.3999023438</ele>
        <time>2016-03-07T09:13:09.000Z</time>
      </trkpt>
      <trkpt lat="45.49978" lon="6.61719">
        <ele>2063</ele>
        <time>2016-03-07T09:13:15.000Z</time>
      </trkpt>
      <trkpt lat="45.49979" lon="6.61721">
        <ele>2063.6000976562</ele>
        <time>2016-03-07T09:13:18.000Z</time>
      </trkpt>
      <trkpt lat="45.49978" lon="6.6172">
        <ele>2064</ele>
        <time>2016-03-07T09:13:22.000Z</time>
      </trkpt>
      <trkpt lat="45.49977" lon="6.61722">
        <ele>2064.6000976562</ele>
        <time>2016-03-07T09:13:26.000Z</time>
      </trkpt>
      <trkpt lat="45.49978" lon="6.61724">
        <ele>2064.6000976562</ele>
        <time>2016-03-07T09:13:27.000Z</time>
      </trkpt>
      <trkpt lat="45.49978" lon="6.61724">
        <ele>2065.3999023438</ele>
        <time>2016-03-07T09:13:32.000Z</time>
      </trkpt>
      <trkpt lat="45.49978" lon="6.61724">
        <ele>2065.8000488281</ele>
        <time>2016-03-07T09:13:34.000Z</time>
      </trkpt>
      <trkpt lat="45.49978" lon="6.61724">
        <ele>2066.6000976562</ele>
        <time>2016-03-07T09:13:38.000Z</time>
      </trkpt>
      <trkpt lat="45.49978" lon="6.61724">
        <ele>2066.8000488281</ele>
        <time>2016-03-07T09:13:39.000Z</time>
      </trkpt>
      <trkpt lat="45.49973" lon="6.61724">
        <ele>2067.8000488281</ele>
        <time>2016-03-07T09:13:44.000Z</time>
      </trkpt>
      <trkpt lat="45.49968" lon="6.61723">
        <ele>2068.8000488281</ele>
        <time>2016-03-07T09:13:48.000Z</time>
      </trkpt>
      <trkpt lat="45.49967" lon="6.61722">
        <ele>2069</ele>
        <time>2016-03-07T09:13:49.000Z</time>
      </trkpt>
      <trkpt lat="45.49964" lon="6.61723">
        <ele>2070</ele>
        <time>2016-03-07T09:13:54.000Z</time>
      </trkpt>
      <trkpt lat="45.49962" lon="6.61722">
        <ele>2070.6000976562</ele>
        <time>2016-03-07T09:13:58.000Z</time>
      </trkpt>
      <trkpt lat="45.4996" lon="6.61723">
        <ele>2071</ele>
        <time>2016-03-07T09:14:01.000Z</time>
      </trkpt>
      <trkpt lat="45.4996" lon="6.61723">
        <ele>2071.1999511719</ele>
        <time>2016-03-07T09:14:02.000Z</time>
      </trkpt>
      <trkpt lat="45.49958" lon="6.61723">
        <ele>2072</ele>
        <time>2016-03-07T09:14:06.000Z</time>
      </trkpt>
      <trkpt lat="45.49957" lon="6.61723">
        <ele>2072.1999511719</ele>
        <time>2016-03-07T09:14:07.000Z</time>
      </trkpt>
      <trkpt lat="45.49954" lon="6.61722">
        <ele>2072.8000488281</ele>
        <time>2016-03-07T09:14:10.000Z</time>
      </trkpt>
      <trkpt lat="45.49953" lon="6.61722">
        <ele>2073.3999023438</ele>
        <time>2016-03-07T09:14:12.000Z</time>
      </trkpt>
      <trkpt lat="45.49953" lon="6.61722">
        <ele>2073.8000488281</ele>
        <time>2016-03-07T09:14:14.000Z</time>
      </trkpt>
      <trkpt lat="45.49951" lon="6.61721">
        <ele>2074.6000976562</ele>
        <time>2016-03-07T09:14:19.000Z</time>
      </trkpt>
      <trkpt lat="45.49948" lon="6.61721">
        <ele>2075.3999023438</ele>
        <time>2016-03-07T09:14:24.000Z</time>
      </trkpt>
      <trkpt lat="45.49948" lon="6.61721">
        <ele>2075.6000976562</ele>
        <time>2016-03-07T09:14:25.000Z</time>
      </trkpt>
      <trkpt lat="45.49944" lon="6.61719">
        <ele>2076.1999511719</ele>
        <time>2016-03-07T09:14:29.000Z</time>
      </trkpt>
      <trkpt lat="45.49942" lon="6.61719">
        <ele>2076.6000976562</ele>
        <time>2016-03-07T09:14:31.000Z</time>
      </trkpt>
      <trkpt lat="45.49939" lon="6.61718">
        <ele>2077.8000488281</ele>
        <time>2016-03-07T09:14:37.000Z</time>
      </trkpt>
      <trkpt lat="45.49935" lon="6.61718">
        <ele>2078.8000488281</ele>
        <time>2016-03-07T09:14:44.000Z</time>
      </trkpt>
      <trkpt lat="45.49934" lon="6.61719">
        <ele>2079.3999023438</ele>
        <time>2016-03-07T09:14:47.000Z</time>
      </trkpt>
      <trkpt lat="45.49934" lon="6.6172">
        <ele>2080</ele>
        <time>2016-03-07T09:14:50.000Z</time>
      </trkpt>
      <trkpt lat="45.49933" lon="6.6172">
        <ele>2080.8000488281</ele>
        <time>2016-03-07T09:14:54.000Z</time>
      </trkpt>
      <trkpt lat="45.49933" lon="6.6172">
        <ele>2081</ele>
        <time>2016-03-07T09:14:56.000Z</time>
      </trkpt>
      <trkpt lat="45.49932" lon="6.6172">
        <ele>2081.3999023438</ele>
        <time>2016-03-07T09:14:59.000Z</time>
      </trkpt>
      <trkpt lat="45.49932" lon="6.6172">
        <ele>2082</ele>
        <time>2016-03-07T09:15:01.000Z</time>
      </trkpt>
      <trkpt lat="45.49933" lon="6.61724">
        <ele>2082.6000976562</ele>
        <time>2016-03-07T09:15:08.000Z</time>
      </trkpt>
      <trkpt lat="45.49934" lon="6.61726">
        <ele>2083.1999511719</ele>
        <time>2016-03-07T09:15:12.000Z</time>
      </trkpt>
      <trkpt lat="45.49934" lon="6.61728">
        <ele>2083.6000976562</ele>
        <time>2016-03-07T09:15:14.000Z</time>
      </trkpt>
      <trkpt lat="45.49935" lon="6.61731">
        <ele>2084.1999511719</ele>
        <time>2016-03-07T09:15:20.000Z</time>
      </trkpt>
      <trkpt lat="45.49935" lon="6.61734">
        <ele>2085.1999511719</ele>
        <time>2016-03-07T09:15:25.000Z</time>
      </trkpt>
      <trkpt lat="45.49936" lon="6.61737">
        <ele>2085.8000488281</ele>
        <time>2016-03-07T09:15:28.000Z</time>
      </trkpt>
      <trkpt lat="45.49936" lon="6.61738">
        <ele>2086.3999023438</ele>
        <time>2016-03-07T09:15:33.000Z</time>
      </trkpt>
      <trkpt lat="45.49937" lon="6.61739">
        <ele>2086.8000488281</ele>
        <time>2016-03-07T09:15:35.000Z</time>
      </trkpt>
      <trkpt lat="45.49938" lon="6.61741">
        <ele>2087.3999023438</ele>
        <time>2016-03-07T09:15:38.000Z</time>
      </trkpt>
      <trkpt lat="45.49938" lon="6.61742">
        <ele>2087.6000976562</ele>
        <time>2016-03-07T09:15:40.000Z</time>
      </trkpt>
      <trkpt lat="45.49938" lon="6.61742">
        <ele>2088.3999023438</ele>
        <time>2016-03-07T09:15:47.000Z</time>
      </trkpt>
      <trkpt lat="45.49938" lon="6.61742">
        <ele>2088.6000976562</ele>
        <time>2016-03-07T09:15:48.000Z</time>
      </trkpt>
      <trkpt lat="45.49937" lon="6.61742">
        <ele>2088.8000488281</ele>
        <time>2016-03-07T09:15:54.000Z</time>
      </trkpt>
      <trkpt lat="45.49935" lon="6.61744">
        <ele>2089.6000976562</ele>
        <time>2016-03-07T09:15:58.000Z</time>
      </trkpt>
      <trkpt lat="45.49935" lon="6.61744">
        <ele>2089.8000488281</ele>
        <time>2016-03-07T09:15:59.000Z</time>
      </trkpt>
      <trkpt lat="45.49934" lon="6.61744">
        <ele>2090.3999023438</ele>
        <time>2016-03-07T09:16:05.000Z</time>
      </trkpt>
      <trkpt lat="45.49936" lon="6.61746">
        <ele>2090.6000976562</ele>
        <time>2016-03-07T09:16:10.000Z</time>
      </trkpt>
      <trkpt lat="45.49938" lon="6.6175">
        <ele>2091</ele>
        <time>2016-03-07T09:16:13.000Z</time>
      </trkpt>
      <trkpt lat="45.49938" lon="6.61751">
        <ele>2091.1999511719</ele>
        <time>2016-03-07T09:16:14.000Z</time>
      </trkpt>
      <trkpt lat="45.4994" lon="6.61754">
        <ele>2091.6000976562</ele>
        <time>2016-03-07T09:16:18.000Z</time>
      </trkpt>
      <trkpt lat="45.49942" lon="6.61759">
        <ele>2092.8000488281</ele>
        <time>2016-03-07T09:16:27.000Z</time>
      </trkpt>
      <trkpt lat="45.49942" lon="6.61759">
        <ele>2093</ele>
        <time>2016-03-07T09:16:28.000Z</time>
      </trkpt>
      <trkpt lat="45.49942" lon="6.61761">
        <ele>2093.8000488281</ele>
        <time>2016-03-07T09:16:31.000Z</time>
      </trkpt>
      <trkpt lat="45.49943" lon="6.61765">
        <ele>2094.8000488281</ele>
        <time>2016-03-07T09:16:35.000Z</time>
      </trkpt>
      <trkpt lat="45.49943" lon="6.61765">
        <ele>2095.1999511719</ele>
        <time>2016-03-07T09:16:36.000Z</time>
      </trkpt>
      <trkpt lat="45.49944" lon="6.61767">
        <ele>2096.1999511719</ele>
        <time>2016-03-07T09:16:41.000Z</time>
      </trkpt>
      <trkpt lat="45.49944" lon="6.61767">
        <ele>2096.3999023438</ele>
        <time>2016-03-07T09:16:42.000Z</time>
      </trkpt>
      <trkpt lat="45.49946" lon="6.61769">
        <ele>2097.3999023438</ele>
        <time>2016-03-07T09:16:48.000Z</time>
      </trkpt>
      <trkpt lat="45.49946" lon="6.61769">
        <ele>2097.8000488281</ele>
        <time>2016-03-07T09:16:50.000Z</time>
      </trkpt>
      <trkpt lat="45.49947" lon="6.6177">
        <ele>2098.6000976562</ele>
        <time>2016-03-07T09:16:53.000Z</time>
      </trkpt>
      <trkpt lat="45.49946" lon="6.6177">
        <ele>2099.3999023438</ele>
        <time>2016-03-07T09:16:57.000Z</time>
      </trkpt>
      <trkpt lat="45.49944" lon="6.61769">
        <ele>2099.6000976562</ele>
        <time>2016-03-07T09:17:01.000Z</time>
      </trkpt>
      <trkpt lat="45.49942" lon="6.61768">
        <ele>2099.6000976562</ele>
        <time>2016-03-07T09:17:03.000Z</time>
      </trkpt>
      <trkpt lat="45.49939" lon="6.61767">
        <ele>2100</ele>
        <time>2016-03-07T09:17:07.000Z</time>
      </trkpt>
      <trkpt lat="45.49935" lon="6.61765">
        <ele>2100.3999023438</ele>
        <time>2016-03-07T09:17:12.000Z</time>
      </trkpt>
      <trkpt lat="45.49933" lon="6.61765">
        <ele>2100.6000976562</ele>
        <time>2016-03-07T09:17:14.000Z</time>
      </trkpt>
      <trkpt lat="45.49931" lon="6.61763">
        <ele>2100.8000488281</ele>
        <time>2016-03-07T09:17:17.000Z</time>
      </trkpt>
      <trkpt lat="45.49926" lon="6.6176">
        <ele>2101.3999023438</ele>
        <time>2016-03-07T09:17:22.000Z</time>
      </trkpt>
      <trkpt lat="45.49922" lon="6.61758">
        <ele>2101.6000976562</ele>
        <time>2016-03-07T09:17:27.000Z</time>
      </trkpt>
      <trkpt lat="45.49921" lon="6.61758">
        <ele>2101.6000976562</ele>
        <time>2016-03-07T09:17:28.000Z</time>
      </trkpt>
      <trkpt lat="45.49915" lon="6.61755">
        <ele>2102</ele>
        <time>2016-03-07T09:17:35.000Z</time>
      </trkpt>
      <trkpt lat="45.49911" lon="6.61754">
        <ele>2102.6000976562</ele>
        <time>2016-03-07T09:17:40.000Z</time>
      </trkpt>
      <trkpt lat="45.4991" lon="6.61753">
        <ele>2102.6000976562</ele>
        <time>2016-03-07T09:17:41.000Z</time>
      </trkpt>
      <trkpt lat="45.49906" lon="6.61753">
        <ele>2103.3999023438</ele>
        <time>2016-03-07T09:17:47.000Z</time>
      </trkpt>
      <trkpt lat="45.49902" lon="6.61753">
        <ele>2103.8000488281</ele>
        <time>2016-03-07T09:17:50.000Z</time>
      </trkpt>
      <trkpt lat="45.49899" lon="6.61752">
        <ele>2104</ele>
        <time>2016-03-07T09:17:53.000Z</time>
      </trkpt>
      <trkpt lat="45.49893" lon="6.61751">
        <ele>2104.6000976562</ele>
        <time>2016-03-07T09:17:59.000Z</time>
      </trkpt>
      <trkpt lat="45.49892" lon="6.61751">
        <ele>2104.8000488281</ele>
        <time>2016-03-07T09:18:00.000Z</time>
      </trkpt>
      <trkpt lat="45.4989" lon="6.61752">
        <ele>2105.1999511719</ele>
        <time>2016-03-07T09:18:05.000Z</time>
      </trkpt>
      <trkpt lat="45.49884" lon="6.61751">
        <ele>2106</ele>
        <time>2016-03-07T09:18:10.000Z</time>
      </trkpt>
      <trkpt lat="45.49879" lon="6.61751">
        <ele>2107</ele>
        <time>2016-03-07T09:18:15.000Z</time>
      </trkpt>
      <trkpt lat="45.49874" lon="6.61752">
        <ele>2107.8000488281</ele>
        <time>2016-03-07T09:18:20.000Z</time>
      </trkpt>
      <trkpt lat="45.4987" lon="6.61752">
        <ele>2108.1999511719</ele>
        <time>2016-03-07T09:18:23.000Z</time>
      </trkpt>
      <trkpt lat="45.49869" lon="6.61753">
        <ele>2108.3999023438</ele>
        <time>2016-03-07T09:18:25.000Z</time>
      </trkpt>
      <trkpt lat="45.49863" lon="6.61752">
        <ele>2108.8000488281</ele>
        <time>2016-03-07T09:18:30.000Z</time>
      </trkpt>
      <trkpt lat="45.49857" lon="6.6175">
        <ele>2108.8000488281</ele>
        <time>2016-03-07T09:18:35.000Z</time>
      </trkpt>
      <trkpt lat="45.49851" lon="6.61746">
        <ele>2109.1999511719</ele>
        <time>2016-03-07T09:18:41.000Z</time>
      </trkpt>
      <trkpt lat="45.49846" lon="6.61744">
        <ele>2109.6000976562</ele>
        <time>2016-03-07T09:18:46.000Z</time>
      </trkpt>
      <trkpt lat="45.49841" lon="6.61742">
        <ele>2109.8000488281</ele>
        <time>2016-03-07T09:18:51.000Z</time>
      </trkpt>
      <trkpt lat="45.49838" lon="6.6174">
        <ele>2110.1999511719</ele>
        <time>2016-03-07T09:18:55.000Z</time>
      </trkpt>
      <trkpt lat="45.49836" lon="6.61739">
        <ele>2110.3999023438</ele>
        <time>2016-03-07T09:18:56.000Z</time>
      </trkpt>
      <trkpt lat="45.49833" lon="6.6174">
        <ele>2110.8000488281</ele>
        <time>2016-03-07T09:19:01.000Z</time>
      </trkpt>
      <trkpt lat="45.49828" lon="6.6174">
        <ele>2111.1999511719</ele>
        <time>2016-03-07T09:19:06.000Z</time>
      </trkpt>
      <trkpt lat="45.49826" lon="6.61741">
        <ele>2111.6000976562</ele>
        <time>2016-03-07T09:19:09.000Z</time>
      </trkpt>
      <trkpt lat="45.49824" lon="6.61741">
        <ele>2112</ele>
        <time>2016-03-07T09:19:11.000Z</time>
      </trkpt>
      <trkpt lat="45.49821" lon="6.61741">
        <ele>2112.1999511719</ele>
        <time>2016-03-07T09:19:13.000Z</time>
      </trkpt>
      <trkpt lat="45.49818" lon="6.61739">
        <ele>2112.3999023438</ele>
        <time>2016-03-07T09:19:16.000Z</time>
      </trkpt>
      <trkpt lat="45.49814" lon="6.61737">
        <ele>2113</ele>
        <time>2016-03-07T09:19:21.000Z</time>
      </trkpt>
      <trkpt lat="45.4981" lon="6.61736">
        <ele>2113.6000976562</ele>
        <time>2016-03-07T09:19:24.000Z</time>
      </trkpt>
      <trkpt lat="45.49808" lon="6.61735">
        <ele>2113.6000976562</ele>
        <time>2016-03-07T09:19:26.000Z</time>
      </trkpt>
      <trkpt lat="45.49803" lon="6.61734">
        <ele>2114</ele>
        <time>2016-03-07T09:19:30.000Z</time>
      </trkpt>
      <trkpt lat="45.49802" lon="6.61733">
        <ele>2114.1999511719</ele>
        <time>2016-03-07T09:19:31.000Z</time>
      </trkpt>
      <trkpt lat="45.498" lon="6.61734">
        <ele>2114.6000976562</ele>
        <time>2016-03-07T09:19:34.000Z</time>
      </trkpt>
      <trkpt lat="45.49799" lon="6.61734">
        <ele>2114.8000488281</ele>
        <time>2016-03-07T09:19:36.000Z</time>
      </trkpt>
      <trkpt lat="45.49794" lon="6.61731">
        <ele>2115.6000976562</ele>
        <time>2016-03-07T09:19:41.000Z</time>
      </trkpt>
      <trkpt lat="45.49791" lon="6.61731">
        <ele>2116.8000488281</ele>
        <time>2016-03-07T09:19:46.000Z</time>
      </trkpt>
      <trkpt lat="45.49783" lon="6.61726">
        <ele>2117.8000488281</ele>
        <time>2016-03-07T09:19:53.000Z</time>
      </trkpt>
      <trkpt lat="45.49778" lon="6.61725">
        <ele>2118.6000976562</ele>
        <time>2016-03-07T09:19:58.000Z</time>
      </trkpt>
      <trkpt lat="45.49772" lon="6.6172">
        <ele>2118.8000488281</ele>
        <time>2016-03-07T09:20:03.000Z</time>
      </trkpt>
      <trkpt lat="45.49771" lon="6.61719">
        <ele>2118.8000488281</ele>
        <time>2016-03-07T09:20:04.000Z</time>
      </trkpt>
      <trkpt lat="45.49768" lon="6.61718">
        <ele>2119</ele>
        <time>2016-03-07T09:20:08.000Z</time>
      </trkpt>
      <trkpt lat="45.49764" lon="6.61716">
        <ele>2119.8000488281</ele>
        <time>2016-03-07T09:20:14.000Z</time>
      </trkpt>
      <trkpt lat="45.49763" lon="6.61716">
        <ele>2120</ele>
        <time>2016-03-07T09:20:16.000Z</time>
      </trkpt>
      <trkpt lat="45.4976" lon="6.61715">
        <ele>2120.1999511719</ele>
        <time>2016-03-07T09:20:19.000Z</time>
      </trkpt>
      <trkpt lat="45.49755" lon="6.61715">
        <ele>2120.8000488281</ele>
        <time>2016-03-07T09:20:24.000Z</time>
      </trkpt>
      <trkpt lat="45.49752" lon="6.61714">
        <ele>2121</ele>
        <time>2016-03-07T09:20:27.000Z</time>
      </trkpt>
      <trkpt lat="45.4975" lon="6.61714">
        <ele>2121.1999511719</ele>
        <time>2016-03-07T09:20:29.000Z</time>
      </trkpt>
      <trkpt lat="45.49745" lon="6.61714">
        <ele>2121.3999023438</ele>
        <time>2016-03-07T09:20:34.000Z</time>
      </trkpt>
      <trkpt lat="45.4974" lon="6.61714">
        <ele>2121.3999023438</ele>
        <time>2016-03-07T09:20:39.000Z</time>
      </trkpt>
      <trkpt lat="45.49734" lon="6.61715">
        <ele>2121.6000976562</ele>
        <time>2016-03-07T09:20:45.000Z</time>
      </trkpt>
      <trkpt lat="45.49732" lon="6.61714">
        <ele>2122</ele>
        <time>2016-03-07T09:20:50.000Z</time>
      </trkpt>
      <trkpt lat="45.4973" lon="6.61713">
        <ele>2122.1999511719</ele>
        <time>2016-03-07T09:20:53.000Z</time>
      </trkpt>
      <trkpt lat="45.49727" lon="6.61711">
        <ele>2122.1999511719</ele>
        <time>2016-03-07T09:20:55.000Z</time>
      </trkpt>
      <trkpt lat="45.49723" lon="6.61709">
        <ele>2123</ele>
        <time>2016-03-07T09:21:00.000Z</time>
      </trkpt>
      <trkpt lat="45.49722" lon="6.61709">
        <ele>2123.1999511719</ele>
        <time>2016-03-07T09:21:01.000Z</time>
      </trkpt>
      <trkpt lat="45.49719" lon="6.61709">
        <ele>2123.8000488281</ele>
        <time>2016-03-07T09:21:05.000Z</time>
      </trkpt>
      <trkpt lat="45.49717" lon="6.61709">
        <ele>2124.3999023438</ele>
        <time>2016-03-07T09:21:07.000Z</time>
      </trkpt>
      <trkpt lat="45.49713" lon="6.61706">
        <ele>2125.3999023438</ele>
        <time>2016-03-07T09:21:12.000Z</time>
      </trkpt>
      <trkpt lat="45.49707" lon="6.61702">
        <ele>2126</ele>
        <time>2016-03-07T09:21:18.000Z</time>
      </trkpt>
      <trkpt lat="45.49702" lon="6.61697">
        <ele>2126.6000976562</ele>
        <time>2016-03-07T09:21:22.000Z</time>
      </trkpt>
      <trkpt lat="45.49701" lon="6.61696">
        <ele>2126.8000488281</ele>
        <time>2016-03-07T09:21:24.000Z</time>
      </trkpt>
      <trkpt lat="45.49696" lon="6.61693">
        <ele>2127.1999511719</ele>
        <time>2016-03-07T09:21:30.000Z</time>
      </trkpt>
      <trkpt lat="45.49692" lon="6.6169">
        <ele>2127.3999023438</ele>
        <time>2016-03-07T09:21:35.000Z</time>
      </trkpt>
      <trkpt lat="45.49688" lon="6.61687">
        <ele>2127.3999023438</ele>
        <time>2016-03-07T09:21:40.000Z</time>
      </trkpt>
      <trkpt lat="45.49686" lon="6.61685">
        <ele>2127.6000976562</ele>
        <time>2016-03-07T09:21:42.000Z</time>
      </trkpt>
      <trkpt lat="45.49684" lon="6.61683">
        <ele>2127.8000488281</ele>
        <time>2016-03-07T09:21:45.000Z</time>
      </trkpt>
      <trkpt lat="45.49681" lon="6.61681">
        <ele>2128.6000976562</ele>
        <time>2016-03-07T09:21:50.000Z</time>
      </trkpt>
      <trkpt lat="45.4968" lon="6.6168">
        <ele>2128.8000488281</ele>
        <time>2016-03-07T09:21:51.000Z</time>
      </trkpt>
      <trkpt lat="45.49674" lon="6.61677">
        <ele>2129.8000488281</ele>
        <time>2016-03-07T09:21:57.000Z</time>
      </trkpt>
      <trkpt lat="45.4967" lon="6.61675">
        <ele>2130.8000488281</ele>
        <time>2016-03-07T09:22:04.000Z</time>
      </trkpt>
      <trkpt lat="45.49669" lon="6.61675">
        <ele>2131</ele>
        <time>2016-03-07T09:22:05.000Z</time>
      </trkpt>
      <trkpt lat="45.49667" lon="6.61675">
        <ele>2131</ele>
        <time>2016-03-07T09:22:06.000Z</time>
      </trkpt>
      <trkpt lat="45.49662" lon="6.61674">
        <ele>2131.6000976562</ele>
        <time>2016-03-07T09:22:10.000Z</time>
      </trkpt>
      <trkpt lat="45.49661" lon="6.61674">
        <ele>2132</ele>
        <time>2016-03-07T09:22:12.000Z</time>
      </trkpt>
      <trkpt lat="45.49656" lon="6.61672">
        <ele>2132.6000976562</ele>
        <time>2016-03-07T09:22:17.000Z</time>
      </trkpt>
      <trkpt lat="45.49654" lon="6.61674">
        <ele>2133.1999511719</ele>
        <time>2016-03-07T09:22:20.000Z</time>
      </trkpt>
      <trkpt lat="45.49653" lon="6.61674">
        <ele>2133.6000976562</ele>
        <time>2016-03-07T09:22:22.000Z</time>
      </trkpt>
      <trkpt lat="45.49652" lon="6.61677">
        <ele>2134.1999511719</ele>
        <time>2016-03-07T09:22:27.000Z</time>
      </trkpt>
      <trkpt lat="45.49655" lon="6.61684">
        <ele>2135</ele>
        <time>2016-03-07T09:22:34.000Z</time>
      </trkpt>
      <trkpt lat="45.49656" lon="6.61686">
        <ele>2135.6000976562</ele>
        <time>2016-03-07T09:22:36.000Z</time>
      </trkpt>
      <trkpt lat="45.49657" lon="6.61688">
        <ele>2135.8000488281</ele>
        <time>2016-03-07T09:22:38.000Z</time>
      </trkpt>
      <trkpt lat="45.49659" lon="6.61693">
        <ele>2136.8000488281</ele>
        <time>2016-03-07T09:22:43.000Z</time>
      </trkpt>
      <trkpt lat="45.49663" lon="6.61698">
        <ele>2137.8000488281</ele>
        <time>2016-03-07T09:22:48.000Z</time>
      </trkpt>
      <trkpt lat="45.49665" lon="6.617">
        <ele>2138.6000976562</ele>
        <time>2016-03-07T09:22:53.000Z</time>
      </trkpt>
      <trkpt lat="45.49667" lon="6.61702">
        <ele>2139</ele>
        <time>2016-03-07T09:22:56.000Z</time>
      </trkpt>
      <trkpt lat="45.49668" lon="6.61706">
        <ele>2139.3999023438</ele>
        <time>2016-03-07T09:22:59.000Z</time>
      </trkpt>
      <trkpt lat="45.49668" lon="6.61706">
        <ele>2140.1999511719</ele>
        <time>2016-03-07T09:23:01.000Z</time>
      </trkpt>
      <trkpt lat="45.49668" lon="6.61706">
        <ele>2140.6000976562</ele>
        <time>2016-03-07T09:23:04.000Z</time>
      </trkpt>
      <trkpt lat="45.49666" lon="6.61706">
        <ele>2141.1999511719</ele>
        <time>2016-03-07T09:23:06.000Z</time>
      </trkpt>
      <trkpt lat="45.49664" lon="6.61707">
        <ele>2142</ele>
        <time>2016-03-07T09:23:09.000Z</time>
      </trkpt>
      <trkpt lat="45.49661" lon="6.61709">
        <ele>2142.1999511719</ele>
        <time>2016-03-07T09:23:12.000Z</time>
      </trkpt>
      <trkpt lat="45.4966" lon="6.61709">
        <ele>2142.6000976562</ele>
        <time>2016-03-07T09:23:14.000Z</time>
      </trkpt>
      <trkpt lat="45.49658" lon="6.61711">
        <ele>2143.1999511719</ele>
        <time>2016-03-07T09:23:17.000Z</time>
      </trkpt>
      <trkpt lat="45.49658" lon="6.61711">
        <ele>2144</ele>
        <time>2016-03-07T09:23:21.000Z</time>
      </trkpt>
      <trkpt lat="45.49655" lon="6.61711">
        <ele>2144</ele>
        <time>2016-03-07T09:23:26.000Z</time>
      </trkpt>
      <trkpt lat="45.49653" lon="6.61712">
        <ele>2144.1999511719</ele>
        <time>2016-03-07T09:23:28.000Z</time>
      </trkpt>
      <trkpt lat="45.49652" lon="6.61713">
        <ele>2144.8000488281</ele>
        <time>2016-03-07T09:23:30.000Z</time>
      </trkpt>
      <trkpt lat="45.4965" lon="6.61713">
        <ele>2145.3999023438</ele>
        <time>2016-03-07T09:23:33.000Z</time>
      </trkpt>
      <trkpt lat="45.49649" lon="6.61714">
        <ele>2145.6000976562</ele>
        <time>2016-03-07T09:23:34.000Z</time>
      </trkpt>
      <trkpt lat="45.49645" lon="6.61714">
        <ele>2146.6000976562</ele>
        <time>2016-03-07T09:23:39.000Z</time>
      </trkpt>
      <trkpt lat="45.49645" lon="6.61714">
        <ele>2147.6000976562</ele>
        <time>2016-03-07T09:23:43.000Z</time>
      </trkpt>
      <trkpt lat="45.49641" lon="6.61714">
        <ele>2148.8000488281</ele>
        <time>2016-03-07T09:23:48.000Z</time>
      </trkpt>
      <trkpt lat="45.4964" lon="6.61714">
        <ele>2149</ele>
        <time>2016-03-07T09:23:49.000Z</time>
      </trkpt>
      <trkpt lat="45.49639" lon="6.61714">
        <ele>2149.8000488281</ele>
        <time>2016-03-07T09:23:53.000Z</time>
      </trkpt>
      <trkpt lat="45.49638" lon="6.61716">
        <ele>2150.8000488281</ele>
        <time>2016-03-07T09:23:57.000Z</time>
      </trkpt>
      <trkpt lat="45.49638" lon="6.61716">
        <ele>2151.1999511719</ele>
        <time>2016-03-07T09:23:59.000Z</time>
      </trkpt>
      <trkpt lat="45.49639" lon="6.61718">
        <ele>2151.1999511719</ele>
        <time>2016-03-07T09:24:03.000Z</time>
      </trkpt>
      <trkpt lat="45.49639" lon="6.61722">
        <ele>2151.8000488281</ele>
        <time>2016-03-07T09:24:07.000Z</time>
      </trkpt>
      <trkpt lat="45.49639" lon="6.61724">
        <ele>2152</ele>
        <time>2016-03-07T09:24:08.000Z</time>
      </trkpt>
      <trkpt lat="45.4964" lon="6.6173">
        <ele>2152.8000488281</ele>
        <time>2016-03-07T09:24:13.000Z</time>
      </trkpt>
      <trkpt lat="45.4964" lon="6.61731">
        <ele>2153.1999511719</ele>
        <time>2016-03-07T09:24:15.000Z</time>
      </trkpt>
      <trkpt lat="45.4964" lon="6.61731">
        <ele>2153.3999023438</ele>
        <time>2016-03-07T09:24:17.000Z</time>
      </trkpt>
      <trkpt lat="45.49641" lon="6.61732">
        <ele>2154.1999511719</ele>
        <time>2016-03-07T09:24:20.000Z</time>
      </trkpt>
      <trkpt lat="45.49642" lon="6.61734">
        <ele>2154.8000488281</ele>
        <time>2016-03-07T09:24:23.000Z</time>
      </trkpt>
      <trkpt lat="45.49643" lon="6.61734">
        <ele>2155.1999511719</ele>
        <time>2016-03-07T09:24:26.000Z</time>
      </trkpt>
      <trkpt lat="45.49643" lon="6.61734">
        <ele>2155.3999023438</ele>
        <time>2016-03-07T09:24:27.000Z</time>
      </trkpt>
      <trkpt lat="45.49642" lon="6.61734">
        <ele>2156.3999023438</ele>
        <time>2016-03-07T09:24:32.000Z</time>
      </trkpt>
      <trkpt lat="45.49641" lon="6.61735">
        <ele>2156.6000976562</ele>
        <time>2016-03-07T09:24:34.000Z</time>
      </trkpt>
      <trkpt lat="45.49639" lon="6.61735">
        <ele>2156.6000976562</ele>
        <time>2016-03-07T09:24:35.000Z</time>
      </trkpt>
      <trkpt lat="45.49638" lon="6.61735">
        <ele>2157</ele>
        <time>2016-03-07T09:24:38.000Z</time>
      </trkpt>
      <trkpt lat="45.49636" lon="6.61735">
        <ele>2157.6000976562</ele>
        <time>2016-03-07T09:24:41.000Z</time>
      </trkpt>
      <trkpt lat="45.49635" lon="6.61735">
        <ele>2158</ele>
        <time>2016-03-07T09:24:43.000Z</time>
      </trkpt>
      <trkpt lat="45.49631" lon="6.61736">
        <ele>2158.8000488281</ele>
        <time>2016-03-07T09:24:48.000Z</time>
      </trkpt>
      <trkpt lat="45.49628" lon="6.61735">
        <ele>2159.3999023438</ele>
        <time>2016-03-07T09:24:53.000Z</time>
      </trkpt>
      <trkpt lat="45.49626" lon="6.61735">
        <ele>2159.8000488281</ele>
        <time>2016-03-07T09:24:55.000Z</time>
      </trkpt>
      <trkpt lat="45.49625" lon="6.61735">
        <ele>2160</ele>
        <time>2016-03-07T09:24:57.000Z</time>
      </trkpt>
      <trkpt lat="45.49624" lon="6.61738">
        <ele>2161</ele>
        <time>2016-03-07T09:25:01.000Z</time>
      </trkpt>
      <trkpt lat="45.49624" lon="6.61738">
        <ele>2161.3999023438</ele>
        <time>2016-03-07T09:25:02.000Z</time>
      </trkpt>
      <trkpt lat="45.49624" lon="6.61742">
        <ele>2162.1999511719</ele>
        <time>2016-03-07T09:25:06.000Z</time>
      </trkpt>
      <trkpt lat="45.49623" lon="6.61743">
        <ele>2162.6000976562</ele>
        <time>2016-03-07T09:25:08.000Z</time>
      </trkpt>
      <trkpt lat="45.49623" lon="6.61746">
        <ele>2163.1999511719</ele>
        <time>2016-03-07T09:25:12.000Z</time>
      </trkpt>
      <trkpt lat="45.49623" lon="6.61748">
        <ele>2163.6000976562</ele>
        <time>2016-03-07T09:25:14.000Z</time>
      </trkpt>
      <trkpt lat="45.49624" lon="6.61748">
        <ele>2164.1999511719</ele>
        <time>2016-03-07T09:25:16.000Z</time>
      </trkpt>
      <trkpt lat="45.49624" lon="6.61749">
        <ele>2164.8000488281</ele>
        <time>2016-03-07T09:25:18.000Z</time>
      </trkpt>
      <trkpt lat="45.49624" lon="6.61751">
        <ele>2165.1999511719</ele>
        <time>2016-03-07T09:25:20.000Z</time>
      </trkpt>
      <trkpt lat="45.49624" lon="6.61751">
        <ele>2165.3999023438</ele>
        <time>2016-03-07T09:25:21.000Z</time>
      </trkpt>
      <trkpt lat="45.49624" lon="6.61754">
        <ele>2165.8000488281</ele>
        <time>2016-03-07T09:25:24.000Z</time>
      </trkpt>
      <trkpt lat="45.49625" lon="6.61755">
        <ele>2166.3999023438</ele>
        <time>2016-03-07T09:25:26.000Z</time>
      </trkpt>
      <trkpt lat="45.49625" lon="6.61758">
        <ele>2167.3999023438</ele>
        <time>2016-03-07T09:25:30.000Z</time>
      </trkpt>
      <trkpt lat="45.49626" lon="6.61764">
        <ele>2168.3999023438</ele>
        <time>2016-03-07T09:25:36.000Z</time>
      </trkpt>
      <trkpt lat="45.49627" lon="6.61765">
        <ele>2168.8000488281</ele>
        <time>2016-03-07T09:25:37.000Z</time>
      </trkpt>
      <trkpt lat="45.49627" lon="6.6177">
        <ele>2169.8000488281</ele>
        <time>2016-03-07T09:25:41.000Z</time>
      </trkpt>
      <trkpt lat="45.49626" lon="6.61772">
        <ele>2171</ele>
        <time>2016-03-07T09:25:47.000Z</time>
      </trkpt>
      <trkpt lat="45.49625" lon="6.61775">
        <ele>2171</ele>
        <time>2016-03-07T09:25:52.000Z</time>
      </trkpt>
      <trkpt lat="45.49622" lon="6.61779">
        <ele>2172</ele>
        <time>2016-03-07T09:25:57.000Z</time>
      </trkpt>
      <trkpt lat="45.49622" lon="6.61779">
        <ele>2172.1999511719</ele>
        <time>2016-03-07T09:25:58.000Z</time>
      </trkpt>
      <trkpt lat="45.4962" lon="6.61782">
        <ele>2173.3999023438</ele>
        <time>2016-03-07T09:26:03.000Z</time>
      </trkpt>
      <trkpt lat="45.49617" lon="6.61786">
        <ele>2173.8000488281</ele>
        <time>2016-03-07T09:26:08.000Z</time>
      </trkpt>
      <trkpt lat="45.49616" lon="6.61788">
        <ele>2174.3999023438</ele>
        <time>2016-03-07T09:26:11.000Z</time>
      </trkpt>
      <trkpt lat="45.49615" lon="6.61789">
        <ele>2174.8000488281</ele>
        <time>2016-03-07T09:26:12.000Z</time>
      </trkpt>
      <trkpt lat="45.49614" lon="6.61791">
        <ele>2175.6000976562</ele>
        <time>2016-03-07T09:26:17.000Z</time>
      </trkpt>
      <trkpt lat="45.49611" lon="6.61793">
        <ele>2176.8000488281</ele>
        <time>2016-03-07T09:26:22.000Z</time>
      </trkpt>
      <trkpt lat="45.49607" lon="6.61797">
        <ele>2177.6000976562</ele>
        <time>2016-03-07T09:26:28.000Z</time>
      </trkpt>
      <trkpt lat="45.49607" lon="6.61797">
        <ele>2177.8000488281</ele>
        <time>2016-03-07T09:26:29.000Z</time>
      </trkpt>
      <trkpt lat="45.49605" lon="6.618">
        <ele>2178.6000976562</ele>
        <time>2016-03-07T09:26:33.000Z</time>
      </trkpt>
      <trkpt lat="45.49605" lon="6.618">
        <ele>2178.8000488281</ele>
        <time>2016-03-07T09:26:34.000Z</time>
      </trkpt>
      <trkpt lat="45.49602" lon="6.61803">
        <ele>2179.8000488281</ele>
        <time>2016-03-07T09:26:38.000Z</time>
      </trkpt>
      <trkpt lat="45.49602" lon="6.61804">
        <ele>2180</ele>
        <time>2016-03-07T09:26:39.000Z</time>
      </trkpt>
      <trkpt lat="45.49602" lon="6.61807">
        <ele>2181</ele>
        <time>2016-03-07T09:26:44.000Z</time>
      </trkpt>
      <trkpt lat="45.49602" lon="6.6181">
        <ele>2182.1999511719</ele>
        <time>2016-03-07T09:26:49.000Z</time>
      </trkpt>
      <trkpt lat="45.49601" lon="6.61811">
        <ele>2182.3999023438</ele>
        <time>2016-03-07T09:26:50.000Z</time>
      </trkpt>
      <trkpt lat="45.49601" lon="6.61811">
        <ele>2183</ele>
        <time>2016-03-07T09:26:53.000Z</time>
      </trkpt>
      <trkpt lat="45.49601" lon="6.61811">
        <ele>2183</ele>
        <time>2016-03-07T09:27:00.000Z</time>
      </trkpt>
      <trkpt lat="45.49601" lon="6.61811">
        <ele>2182.8000488281</ele>
        <time>2016-03-07T09:27:16.000Z</time>
      </trkpt>
      <trkpt lat="45.49601" lon="6.61811">
        <ele>2183.1999511719</ele>
        <time>2016-03-07T09:27:18.000Z</time>
      </trkpt>
      <trkpt lat="45.49601" lon="6.61811">
        <ele>2183</ele>
        <time>2016-03-07T09:27:28.000Z</time>
      </trkpt>
      <trkpt lat="45.49601" lon="6.6181">
        <ele>2183</ele>
        <time>2016-03-07T09:27:41.000Z</time>
      </trkpt>
      <trkpt lat="45.49601" lon="6.6181">
        <ele>2183</ele>
        <time>2016-03-07T09:27:57.000Z</time>
      </trkpt>
      <trkpt lat="45.49601" lon="6.6181">
        <ele>2183</ele>
        <time>2016-03-07T09:28:11.000Z</time>
      </trkpt>
      <trkpt lat="45.49601" lon="6.6181">
        <ele>2183.3999023438</ele>
        <time>2016-03-07T09:28:24.000Z</time>
      </trkpt>
      <trkpt lat="45.49601" lon="6.6181">
        <ele>2183.3999023438</ele>
        <time>2016-03-07T09:28:25.000Z</time>
      </trkpt>
      <trkpt lat="45.49601" lon="6.6181">
        <ele>2183.3999023438</ele>
        <time>2016-03-07T09:28:35.000Z</time>
      </trkpt>
      <trkpt lat="45.49601" lon="6.6181">
        <ele>2183.1999511719</ele>
        <time>2016-03-07T09:28:50.000Z</time>
      </trkpt>
      <trkpt lat="45.49601" lon="6.6181">
        <ele>2183.1999511719</ele>
        <time>2016-03-07T09:29:12.000Z</time>
      </trkpt>
      <trkpt lat="45.496" lon="6.61815">
        <ele>2183.1999511719</ele>
        <time>2016-03-07T09:29:19.000Z</time>
      </trkpt>
      <trkpt lat="45.496" lon="6.61815">
        <ele>2184</ele>
        <time>2016-03-07T09:29:24.000Z</time>
      </trkpt>
      <trkpt lat="45.496" lon="6.61815">
        <ele>2184.1999511719</ele>
        <time>2016-03-07T09:29:26.000Z</time>
      </trkpt>
      <trkpt lat="45.496" lon="6.61815">
        <ele>2184.1999511719</ele>
        <time>2016-03-07T09:29:45.000Z</time>
      </trkpt>
      <trkpt lat="45.496" lon="6.61816">
        <ele>2184</ele>
        <time>2016-03-07T09:30:02.000Z</time>
      </trkpt>
      <trkpt lat="45.496" lon="6.61816">
        <ele>2184</ele>
        <time>2016-03-07T09:30:17.000Z</time>
      </trkpt>
      <trkpt lat="45.496" lon="6.61818">
        <ele>2184</ele>
        <time>2016-03-07T09:30:30.000Z</time>
      </trkpt>
      <trkpt lat="45.49602" lon="6.61821">
        <ele>2184</ele>
        <time>2016-03-07T09:30:32.000Z</time>
      </trkpt>
      <trkpt lat="45.49602" lon="6.61822">
        <ele>2184.1999511719</ele>
        <time>2016-03-07T09:30:34.000Z</time>
      </trkpt>
      <trkpt lat="45.49603" lon="6.61828">
        <ele>2185</ele>
        <time>2016-03-07T09:30:38.000Z</time>
      </trkpt>
      <trkpt lat="45.49605" lon="6.6183">
        <ele>2185.1999511719</ele>
        <time>2016-03-07T09:30:41.000Z</time>
      </trkpt>
      <trkpt lat="45.49606" lon="6.61831">
        <ele>2185.3999023438</ele>
        <time>2016-03-07T09:30:42.000Z</time>
      </trkpt>
      <trkpt lat="45.49606" lon="6.61831">
        <ele>2185.6000976562</ele>
        <time>2016-03-07T09:30:43.000Z</time>
      </trkpt>
      <trkpt lat="45.49608" lon="6.61834">
        <ele>2186</ele>
        <time>2016-03-07T09:30:45.000Z</time>
      </trkpt>
      <trkpt lat="45.49609" lon="6.61835">
        <ele>2186.3999023438</ele>
        <time>2016-03-07T09:30:46.000Z</time>
      </trkpt>
      <trkpt lat="45.4961" lon="6.61836">
        <ele>2186.6000976562</ele>
        <time>2016-03-07T09:30:47.000Z</time>
      </trkpt>
      <trkpt lat="45.49612" lon="6.6184">
        <ele>2187.3999023438</ele>
        <time>2016-03-07T09:30:50.000Z</time>
      </trkpt>
      <trkpt lat="45.49612" lon="6.61841">
        <ele>2187.3999023438</ele>
        <time>2016-03-07T09:30:51.000Z</time>
      </trkpt>
      <trkpt lat="45.49615" lon="6.61845">
        <ele>2188.6000976562</ele>
        <time>2016-03-07T09:30:56.000Z</time>
      </trkpt>
      <trkpt lat="45.49619" lon="6.61849">
        <ele>2189.6000976562</ele>
        <time>2016-03-07T09:31:01.000Z</time>
      </trkpt>
      <trkpt lat="45.4962" lon="6.61851">
        <ele>2190.8000488281</ele>
        <time>2016-03-07T09:31:04.000Z</time>
      </trkpt>
      <trkpt lat="45.49623" lon="6.61856">
        <ele>2191.3999023438</ele>
        <time>2016-03-07T09:31:08.000Z</time>
      </trkpt>
      <trkpt lat="45.49623" lon="6.61858">
        <ele>2191.8000488281</ele>
        <time>2016-03-07T09:31:10.000Z</time>
      </trkpt>
      <trkpt lat="45.49627" lon="6.6186">
        <ele>2192.6000976562</ele>
        <time>2016-03-07T09:31:14.000Z</time>
      </trkpt>
      <trkpt lat="45.49628" lon="6.61861">
        <ele>2192.8000488281</ele>
        <time>2016-03-07T09:31:16.000Z</time>
      </trkpt>
      <trkpt lat="45.49629" lon="6.61865">
        <ele>2193.1999511719</ele>
        <time>2016-03-07T09:31:19.000Z</time>
      </trkpt>
      <trkpt lat="45.4963" lon="6.61866">
        <ele>2193.8000488281</ele>
        <time>2016-03-07T09:31:22.000Z</time>
      </trkpt>
      <trkpt lat="45.49631" lon="6.61867">
        <ele>2194.1999511719</ele>
        <time>2016-03-07T09:31:23.000Z</time>
      </trkpt>
      <trkpt lat="45.49631" lon="6.61869">
        <ele>2194.8000488281</ele>
        <time>2016-03-07T09:31:26.000Z</time>
      </trkpt>
      <trkpt lat="45.49632" lon="6.61872">
        <ele>2195.3999023438</ele>
        <time>2016-03-07T09:31:29.000Z</time>
      </trkpt>
      <trkpt lat="45.49635" lon="6.61875">
        <ele>2196</ele>
        <time>2016-03-07T09:31:33.000Z</time>
      </trkpt>
      <trkpt lat="45.49636" lon="6.61878">
        <ele>2196.6000976562</ele>
        <time>2016-03-07T09:31:37.000Z</time>
      </trkpt>
      <trkpt lat="45.49636" lon="6.61881">
        <ele>2197.1999511719</ele>
        <time>2016-03-07T09:31:41.000Z</time>
      </trkpt>
      <trkpt lat="45.49638" lon="6.61882">
        <ele>2197.6000976562</ele>
        <time>2016-03-07T09:31:43.000Z</time>
      </trkpt>
      <trkpt lat="45.49639" lon="6.61886">
        <ele>2198.1999511719</ele>
        <time>2016-03-07T09:31:48.000Z</time>
      </trkpt>
      <trkpt lat="45.4964" lon="6.61887">
        <ele>2198.3999023438</ele>
        <time>2016-03-07T09:31:49.000Z</time>
      </trkpt>
      <trkpt lat="45.49641" lon="6.6189">
        <ele>2199.3999023438</ele>
        <time>2016-03-07T09:31:53.000Z</time>
      </trkpt>
      <trkpt lat="45.49643" lon="6.61894">
        <ele>2200.3999023438</ele>
        <time>2016-03-07T09:31:59.000Z</time>
      </trkpt>
      <trkpt lat="45.49644" lon="6.61898">
        <ele>2201.1999511719</ele>
        <time>2016-03-07T09:32:04.000Z</time>
      </trkpt>
      <trkpt lat="45.49645" lon="6.619">
        <ele>2201.6000976562</ele>
        <time>2016-03-07T09:32:05.000Z</time>
      </trkpt>
      <trkpt lat="45.49645" lon="6.61901">
        <ele>2202</ele>
        <time>2016-03-07T09:32:08.000Z</time>
      </trkpt>
      <trkpt lat="45.49648" lon="6.61906">
        <ele>2202.6000976562</ele>
        <time>2016-03-07T09:32:13.000Z</time>
      </trkpt>
      <trkpt lat="45.4965" lon="6.61909">
        <ele>2203.6000976562</ele>
        <time>2016-03-07T09:32:18.000Z</time>
      </trkpt>
      <trkpt lat="45.49651" lon="6.61911">
        <ele>2203.8000488281</ele>
        <time>2016-03-07T09:32:19.000Z</time>
      </trkpt>
      <trkpt lat="45.49652" lon="6.61916">
        <ele>2204.6000976562</ele>
        <time>2016-03-07T09:32:24.000Z</time>
      </trkpt>
      <trkpt lat="45.49652" lon="6.61916">
        <ele>2204.8000488281</ele>
        <time>2016-03-07T09:32:25.000Z</time>
      </trkpt>
      <trkpt lat="45.49652" lon="6.61919">
        <ele>2205.3999023438</ele>
        <time>2016-03-07T09:32:28.000Z</time>
      </trkpt>
      <trkpt lat="45.49653" lon="6.61922">
        <ele>2206</ele>
        <time>2016-03-07T09:32:31.000Z</time>
      </trkpt>
      <trkpt lat="45.49653" lon="6.61924">
        <ele>2206.8000488281</ele>
        <time>2016-03-07T09:32:34.000Z</time>
      </trkpt>
      <trkpt lat="45.49653" lon="6.61925">
        <ele>2207.1999511719</ele>
        <time>2016-03-07T09:32:35.000Z</time>
      </trkpt>
      <trkpt lat="45.49652" lon="6.61929">
        <ele>2208.3999023438</ele>
        <time>2016-03-07T09:32:40.000Z</time>
      </trkpt>
      <trkpt lat="45.49648" lon="6.61935">
        <ele>2209.6000976562</ele>
        <time>2016-03-07T09:32:46.000Z</time>
      </trkpt>
      <trkpt lat="45.49647" lon="6.61937">
        <ele>2210.3999023438</ele>
        <time>2016-03-07T09:32:52.000Z</time>
      </trkpt>
      <trkpt lat="45.49647" lon="6.61937">
        <ele>2210.6000976562</ele>
        <time>2016-03-07T09:32:55.000Z</time>
      </trkpt>
      <trkpt lat="45.49646" lon="6.6194">
        <ele>2210.6000976562</ele>
        <time>2016-03-07T09:33:02.000Z</time>
      </trkpt>
      <trkpt lat="45.49644" lon="6.61947">
        <ele>2211.1999511719</ele>
        <time>2016-03-07T09:33:07.000Z</time>
      </trkpt>
      <trkpt lat="45.49644" lon="6.61949">
        <ele>2211.6000976562</ele>
        <time>2016-03-07T09:33:09.000Z</time>
      </trkpt>
      <trkpt lat="45.49642" lon="6.61955">
        <ele>2212</ele>
        <time>2016-03-07T09:33:13.000Z</time>
      </trkpt>
      <trkpt lat="45.4964" lon="6.6196">
        <ele>2212.6000976562</ele>
        <time>2016-03-07T09:33:17.000Z</time>
      </trkpt>
      <trkpt lat="45.49637" lon="6.61963">
        <ele>2213.1999511719</ele>
        <time>2016-03-07T09:33:20.000Z</time>
      </trkpt>
      <trkpt lat="45.49637" lon="6.61966">
        <ele>2213.6000976562</ele>
        <time>2016-03-07T09:33:22.000Z</time>
      </trkpt>
      <trkpt lat="45.49637" lon="6.61967">
        <ele>2213.6000976562</ele>
        <time>2016-03-07T09:33:23.000Z</time>
      </trkpt>
      <trkpt lat="45.49637" lon="6.61968">
        <ele>2213.8000488281</ele>
        <time>2016-03-07T09:33:24.000Z</time>
      </trkpt>
      <trkpt lat="45.49639" lon="6.61973">
        <ele>2214.8000488281</ele>
        <time>2016-03-07T09:33:28.000Z</time>
      </trkpt>
      <trkpt lat="45.49639" lon="6.61973">
        <ele>2215</ele>
        <time>2016-03-07T09:33:29.000Z</time>
      </trkpt>
      <trkpt lat="45.49642" lon="6.6198">
        <ele>2215.6000976562</ele>
        <time>2016-03-07T09:33:34.000Z</time>
      </trkpt>
      <trkpt lat="45.49642" lon="6.61981">
        <ele>2216</ele>
        <time>2016-03-07T09:33:35.000Z</time>
      </trkpt>
      <trkpt lat="45.49645" lon="6.61984">
        <ele>2216.6000976562</ele>
        <time>2016-03-07T09:33:40.000Z</time>
      </trkpt>
      <trkpt lat="45.49646" lon="6.61989">
        <ele>2217</ele>
        <time>2016-03-07T09:33:43.000Z</time>
      </trkpt>
      <trkpt lat="45.49647" lon="6.61992">
        <ele>2217.3999023438</ele>
        <time>2016-03-07T09:33:46.000Z</time>
      </trkpt>
      <trkpt lat="45.4965" lon="6.62">
        <ele>2217.6000976562</ele>
        <time>2016-03-07T09:33:52.000Z</time>
      </trkpt>
      <trkpt lat="45.49652" lon="6.62003">
        <ele>2218.1999511719</ele>
        <time>2016-03-07T09:33:56.000Z</time>
      </trkpt>
      <trkpt lat="45.49652" lon="6.62003">
        <ele>2218.3999023438</ele>
        <time>2016-03-07T09:33:57.000Z</time>
      </trkpt>
      <trkpt lat="45.49654" lon="6.62011">
        <ele>2219.1999511719</ele>
        <time>2016-03-07T09:34:03.000Z</time>
      </trkpt>
      <trkpt lat="45.49655" lon="6.62023">
        <ele>2219.8000488281</ele>
        <time>2016-03-07T09:34:09.000Z</time>
      </trkpt>
      <trkpt lat="45.49658" lon="6.62032">
        <ele>2220</ele>
        <time>2016-03-07T09:34:14.000Z</time>
      </trkpt>
      <trkpt lat="45.49658" lon="6.62034">
        <ele>2220</ele>
        <time>2016-03-07T09:34:15.000Z</time>
      </trkpt>
      <trkpt lat="45.4966" lon="6.62041">
        <ele>2220.1999511719</ele>
        <time>2016-03-07T09:34:21.000Z</time>
      </trkpt>
      <trkpt lat="45.49659" lon="6.62042">
        <ele>2220.1999511719</ele>
        <time>2016-03-07T09:34:22.000Z</time>
      </trkpt>
      <trkpt lat="45.49655" lon="6.62048">
        <ele>2221</ele>
        <time>2016-03-07T09:34:29.000Z</time>
      </trkpt>
      <trkpt lat="45.49654" lon="6.6205">
        <ele>2221.1999511719</ele>
        <time>2016-03-07T09:34:31.000Z</time>
      </trkpt>
      <trkpt lat="45.49653" lon="6.62055">
        <ele>2221.8000488281</ele>
        <time>2016-03-07T09:34:35.000Z</time>
      </trkpt>
      <trkpt lat="45.49653" lon="6.62059">
        <ele>2222.3999023438</ele>
        <time>2016-03-07T09:34:38.000Z</time>
      </trkpt>
      <trkpt lat="45.49652" lon="6.62063">
        <ele>2223.1999511719</ele>
        <time>2016-03-07T09:34:41.000Z</time>
      </trkpt>
      <trkpt lat="45.49652" lon="6.62063">
        <ele>2223.6000976562</ele>
        <time>2016-03-07T09:34:42.000Z</time>
      </trkpt>
      <trkpt lat="45.49651" lon="6.6207">
        <ele>2224.3999023438</ele>
        <time>2016-03-07T09:34:46.000Z</time>
      </trkpt>
      <trkpt lat="45.49651" lon="6.6207">
        <ele>2224.8000488281</ele>
        <time>2016-03-07T09:34:47.000Z</time>
      </trkpt>
      <trkpt lat="45.4965" lon="6.62075">
        <ele>2225.1999511719</ele>
        <time>2016-03-07T09:34:51.000Z</time>
      </trkpt>
      <trkpt lat="45.49649" lon="6.6208">
        <ele>2225.8000488281</ele>
        <time>2016-03-07T09:34:56.000Z</time>
      </trkpt>
      <trkpt lat="45.49649" lon="6.62088">
        <ele>2226.8000488281</ele>
        <time>2016-03-07T09:35:02.000Z</time>
      </trkpt>
      <trkpt lat="45.49649" lon="6.62089">
        <ele>2226.8000488281</ele>
        <time>2016-03-07T09:35:03.000Z</time>
      </trkpt>
      <trkpt lat="45.4965" lon="6.62094">
        <ele>2227.3999023438</ele>
        <time>2016-03-07T09:35:07.000Z</time>
      </trkpt>
      <trkpt lat="45.49651" lon="6.621">
        <ele>2227.8000488281</ele>
        <time>2016-03-07T09:35:12.000Z</time>
      </trkpt>
      <trkpt lat="45.49651" lon="6.621">
        <ele>2227.8000488281</ele>
        <time>2016-03-07T09:35:13.000Z</time>
      </trkpt>
      <trkpt lat="45.4965" lon="6.62103">
        <ele>2228.6000976562</ele>
        <time>2016-03-07T09:35:18.000Z</time>
      </trkpt>
      <trkpt lat="45.49649" lon="6.62104">
        <ele>2229</ele>
        <time>2016-03-07T09:35:19.000Z</time>
      </trkpt>
      <trkpt lat="45.49647" lon="6.62109">
        <ele>2229.6000976562</ele>
        <time>2016-03-07T09:35:24.000Z</time>
      </trkpt>
      <trkpt lat="45.49647" lon="6.62109">
        <ele>2230</ele>
        <time>2016-03-07T09:35:25.000Z</time>
      </trkpt>
      <trkpt lat="45.49645" lon="6.62113">
        <ele>2231.1999511719</ele>
        <time>2016-03-07T09:35:30.000Z</time>
      </trkpt>
      <trkpt lat="45.49642" lon="6.62119">
        <ele>2232.1999511719</ele>
        <time>2016-03-07T09:35:36.000Z</time>
      </trkpt>
      <trkpt lat="45.4964" lon="6.62124">
        <ele>2233.3999023438</ele>
        <time>2016-03-07T09:35:42.000Z</time>
      </trkpt>
      <trkpt lat="45.49637" lon="6.62128">
        <ele>2234.3999023438</ele>
        <time>2016-03-07T09:35:48.000Z</time>
      </trkpt>
      <trkpt lat="45.49636" lon="6.6213">
        <ele>2235.6000976562</ele>
        <time>2016-03-07T09:35:52.000Z</time>
      </trkpt>
      <trkpt lat="45.49635" lon="6.62131">
        <ele>2236</ele>
        <time>2016-03-07T09:35:54.000Z</time>
      </trkpt>
      <trkpt lat="45.49633" lon="6.62134">
        <ele>2236.8000488281</ele>
        <time>2016-03-07T09:35:59.000Z</time>
      </trkpt>
      <trkpt lat="45.49632" lon="6.62138">
        <ele>2238</ele>
        <time>2016-03-07T09:36:03.000Z</time>
      </trkpt>
      <trkpt lat="45.49631" lon="6.6214">
        <ele>2238.3999023438</ele>
        <time>2016-03-07T09:36:06.000Z</time>
      </trkpt>
      <trkpt lat="45.49629" lon="6.62142">
        <ele>2239</ele>
        <time>2016-03-07T09:36:09.000Z</time>
      </trkpt>
      <trkpt lat="45.49629" lon="6.62144">
        <ele>2239.6000976562</ele>
        <time>2016-03-07T09:36:12.000Z</time>
      </trkpt>
      <trkpt lat="45.49629" lon="6.62146">
        <ele>2240</ele>
        <time>2016-03-07T09:36:14.000Z</time>
      </trkpt>
      <trkpt lat="45.49627" lon="6.6215">
        <ele>2241.1999511719</ele>
        <time>2016-03-07T09:36:19.000Z</time>
      </trkpt>
      <trkpt lat="45.49624" lon="6.62154">
        <ele>2242</ele>
        <time>2016-03-07T09:36:25.000Z</time>
      </trkpt>
      <trkpt lat="45.49624" lon="6.62155">
        <ele>2242.1999511719</ele>
        <time>2016-03-07T09:36:26.000Z</time>
      </trkpt>
      <trkpt lat="45.49622" lon="6.62158">
        <ele>2243</ele>
        <time>2016-03-07T09:36:31.000Z</time>
      </trkpt>
      <trkpt lat="45.49622" lon="6.62158">
        <ele>2243.3999023438</ele>
        <time>2016-03-07T09:36:32.000Z</time>
      </trkpt>
      <trkpt lat="45.4962" lon="6.62162">
        <ele>2244</ele>
        <time>2016-03-07T09:36:37.000Z</time>
      </trkpt>
      <trkpt lat="45.4962" lon="6.62162">
        <ele>2244.3999023438</ele>
        <time>2016-03-07T09:36:38.000Z</time>
      </trkpt>
      <trkpt lat="45.49617" lon="6.62166">
        <ele>2245.1999511719</ele>
        <time>2016-03-07T09:36:42.000Z</time>
      </trkpt>
      <trkpt lat="45.49616" lon="6.62168">
        <ele>2245.3999023438</ele>
        <time>2016-03-07T09:36:44.000Z</time>
      </trkpt>
      <trkpt lat="45.49615" lon="6.6217">
        <ele>2246</ele>
        <time>2016-03-07T09:36:48.000Z</time>
      </trkpt>
      <trkpt lat="45.49615" lon="6.62171">
        <ele>2246.3999023438</ele>
        <time>2016-03-07T09:36:50.000Z</time>
      </trkpt>
      <trkpt lat="45.49612" lon="6.62174">
        <ele>2247.3999023438</ele>
        <time>2016-03-07T09:36:55.000Z</time>
      </trkpt>
      <trkpt lat="45.49611" lon="6.62175">
        <ele>2247.6000976562</ele>
        <time>2016-03-07T09:36:56.000Z</time>
      </trkpt>
      <trkpt lat="45.49609" lon="6.6218">
        <ele>2248.8000488281</ele>
        <time>2016-03-07T09:37:01.000Z</time>
      </trkpt>
      <trkpt lat="45.49605" lon="6.62185">
        <ele>2249.8000488281</ele>
        <time>2016-03-07T09:37:08.000Z</time>
      </trkpt>
      <trkpt lat="45.49601" lon="6.62189">
        <ele>2251</ele>
        <time>2016-03-07T09:37:15.000Z</time>
      </trkpt>
      <trkpt lat="45.49599" lon="6.62191">
        <ele>2252</ele>
        <time>2016-03-07T09:37:20.000Z</time>
      </trkpt>
      <trkpt lat="45.49598" lon="6.62192">
        <ele>2252.3999023438</ele>
        <time>2016-03-07T09:37:22.000Z</time>
      </trkpt>
      <trkpt lat="45.49597" lon="6.62194">
        <ele>2253</ele>
        <time>2016-03-07T09:37:25.000Z</time>
      </trkpt>
      <trkpt lat="45.49596" lon="6.62196">
        <ele>2253.8000488281</ele>
        <time>2016-03-07T09:37:28.000Z</time>
      </trkpt>
      <trkpt lat="45.49595" lon="6.62197">
        <ele>2254.1999511719</ele>
        <time>2016-03-07T09:37:30.000Z</time>
      </trkpt>
      <trkpt lat="45.49591" lon="6.622">
        <ele>2255.3999023438</ele>
        <time>2016-03-07T09:37:36.000Z</time>
      </trkpt>
      <trkpt lat="45.49591" lon="6.62201">
        <ele>2255.6000976562</ele>
        <time>2016-03-07T09:37:37.000Z</time>
      </trkpt>
      <trkpt lat="45.4959" lon="6.62206">
        <ele>2256.6000976562</ele>
        <time>2016-03-07T09:37:43.000Z</time>
      </trkpt>
      <trkpt lat="45.49588" lon="6.62211">
        <ele>2257.8000488281</ele>
        <time>2016-03-07T09:37:50.000Z</time>
      </trkpt>
      <trkpt lat="45.49587" lon="6.62217">
        <ele>2258.3999023438</ele>
        <time>2016-03-07T09:37:55.000Z</time>
      </trkpt>
      <trkpt lat="45.49586" lon="6.62219">
        <ele>2258.8000488281</ele>
        <time>2016-03-07T09:37:57.000Z</time>
      </trkpt>
      <trkpt lat="45.49586" lon="6.62222">
        <ele>2259.1999511719</ele>
        <time>2016-03-07T09:38:00.000Z</time>
      </trkpt>
      <trkpt lat="45.49584" lon="6.62227">
        <ele>2259.8000488281</ele>
        <time>2016-03-07T09:38:03.000Z</time>
      </trkpt>
      <trkpt lat="45.49583" lon="6.62229">
        <ele>2260.1999511719</ele>
        <time>2016-03-07T09:38:05.000Z</time>
      </trkpt>
      <trkpt lat="45.49583" lon="6.62231">
        <ele>2260.8000488281</ele>
        <time>2016-03-07T09:38:09.000Z</time>
      </trkpt>
      <trkpt lat="45.49583" lon="6.62236">
        <ele>2262</ele>
        <time>2016-03-07T09:38:15.000Z</time>
      </trkpt>
      <trkpt lat="45.49583" lon="6.6224">
        <ele>2263</ele>
        <time>2016-03-07T09:38:20.000Z</time>
      </trkpt>
      <trkpt lat="45.49582" lon="6.62242">
        <ele>2263.1999511719</ele>
        <time>2016-03-07T09:38:21.000Z</time>
      </trkpt>
      <trkpt lat="45.4958" lon="6.62246">
        <ele>2263.6000976562</ele>
        <time>2016-03-07T09:38:25.000Z</time>
      </trkpt>
      <trkpt lat="45.49579" lon="6.62249">
        <ele>2264.1999511719</ele>
        <time>2016-03-07T09:38:29.000Z</time>
      </trkpt>
      <trkpt lat="45.49578" lon="6.6225">
        <ele>2264.6000976562</ele>
        <time>2016-03-07T09:38:31.000Z</time>
      </trkpt>
      <trkpt lat="45.49577" lon="6.62253">
        <ele>2265.3999023438</ele>
        <time>2016-03-07T09:38:36.000Z</time>
      </trkpt>
      <trkpt lat="45.49576" lon="6.62254">
        <ele>2265.6000976562</ele>
        <time>2016-03-07T09:38:37.000Z</time>
      </trkpt>
      <trkpt lat="45.49576" lon="6.62255">
        <ele>2266.3999023438</ele>
        <time>2016-03-07T09:38:40.000Z</time>
      </trkpt>
      <trkpt lat="45.49575" lon="6.62259">
        <ele>2267.8000488281</ele>
        <time>2016-03-07T09:38:44.000Z</time>
      </trkpt>
      <trkpt lat="45.49576" lon="6.62263">
        <ele>2268.3999023438</ele>
        <time>2016-03-07T09:38:48.000Z</time>
      </trkpt>
      <trkpt lat="45.49576" lon="6.62265">
        <ele>2268.8000488281</ele>
        <time>2016-03-07T09:38:52.000Z</time>
      </trkpt>
      <trkpt lat="45.49575" lon="6.6227">
        <ele>2269.6000976562</ele>
        <time>2016-03-07T09:38:56.000Z</time>
      </trkpt>
      <trkpt lat="45.49575" lon="6.62272">
        <ele>2270</ele>
        <time>2016-03-07T09:38:58.000Z</time>
      </trkpt>
      <trkpt lat="45.49575" lon="6.62273">
        <ele>2271</ele>
        <time>2016-03-07T09:39:02.000Z</time>
      </trkpt>
      <trkpt lat="45.49575" lon="6.62273">
        <ele>2271.1999511719</ele>
        <time>2016-03-07T09:39:03.000Z</time>
      </trkpt>
      <trkpt lat="45.49574" lon="6.62278">
        <ele>2272</ele>
        <time>2016-03-07T09:39:08.000Z</time>
      </trkpt>
      <trkpt lat="45.49573" lon="6.62281">
        <ele>2272.3999023438</ele>
        <time>2016-03-07T09:39:10.000Z</time>
      </trkpt>
      <trkpt lat="45.49573" lon="6.62283">
        <ele>2272.8000488281</ele>
        <time>2016-03-07T09:39:12.000Z</time>
      </trkpt>
      <trkpt lat="45.49572" lon="6.62286">
        <ele>2273.3999023438</ele>
        <time>2016-03-07T09:39:15.000Z</time>
      </trkpt>
      <trkpt lat="45.49571" lon="6.62289">
        <ele>2274.1999511719</ele>
        <time>2016-03-07T09:39:18.000Z</time>
      </trkpt>
      <trkpt lat="45.49571" lon="6.6229">
        <ele>2274.6000976562</ele>
        <time>2016-03-07T09:39:20.000Z</time>
      </trkpt>
      <trkpt lat="45.4957" lon="6.62292">
        <ele>2275</ele>
        <time>2016-03-07T09:39:23.000Z</time>
      </trkpt>
      <trkpt lat="45.49569" lon="6.62294">
        <ele>2275.6000976562</ele>
        <time>2016-03-07T09:39:26.000Z</time>
      </trkpt>
      <trkpt lat="45.49569" lon="6.62295">
        <ele>2276.1999511719</ele>
        <time>2016-03-07T09:39:30.000Z</time>
      </trkpt>
      <trkpt lat="45.49569" lon="6.62296">
        <ele>2276.6000976562</ele>
        <time>2016-03-07T09:39:38.000Z</time>
      </trkpt>
      <trkpt lat="45.49568" lon="6.62298">
        <ele>2276.6000976562</ele>
        <time>2016-03-07T09:39:39.000Z</time>
      </trkpt>
      <trkpt lat="45.49568" lon="6.62304">
        <ele>2277.1999511719</ele>
        <time>2016-03-07T09:39:45.000Z</time>
      </trkpt>
      <trkpt lat="45.49568" lon="6.62307">
        <ele>2277.6000976562</ele>
        <time>2016-03-07T09:39:48.000Z</time>
      </trkpt>
      <trkpt lat="45.49568" lon="6.62308">
        <ele>2277.8000488281</ele>
        <time>2016-03-07T09:39:49.000Z</time>
      </trkpt>
      <trkpt lat="45.49567" lon="6.62314">
        <ele>2278.3999023438</ele>
        <time>2016-03-07T09:39:53.000Z</time>
      </trkpt>
      <trkpt lat="45.49566" lon="6.62317">
        <ele>2278.3999023438</ele>
        <time>2016-03-07T09:39:55.000Z</time>
      </trkpt>
      <trkpt lat="45.49566" lon="6.6232">
        <ele>2278.6000976562</ele>
        <time>2016-03-07T09:39:57.000Z</time>
      </trkpt>
      <trkpt lat="45.49563" lon="6.62327">
        <ele>2278.6000976562</ele>
        <time>2016-03-07T09:40:01.000Z</time>
      </trkpt>
      <trkpt lat="45.49562" lon="6.62335">
        <ele>2277.8000488281</ele>
        <time>2016-03-07T09:40:07.000Z</time>
      </trkpt>
      <trkpt lat="45.49562" lon="6.62338">
        <ele>2278</ele>
        <time>2016-03-07T09:40:13.000Z</time>
      </trkpt>
      <trkpt lat="45.49562" lon="6.62338">
        <ele>2278</ele>
        <time>2016-03-07T09:40:27.000Z</time>
      </trkpt>
      <trkpt lat="45.49562" lon="6.62338">
        <ele>2277.1999511719</ele>
        <time>2016-03-07T09:40:33.000Z</time>
      </trkpt>
      <trkpt lat="45.49562" lon="6.62338">
        <ele>2277.8000488281</ele>
        <time>2016-03-07T09:40:39.000Z</time>
      </trkpt>
      <trkpt lat="45.49562" lon="6.62338">
        <ele>2278</ele>
        <time>2016-03-07T09:40:56.000Z</time>
      </trkpt>
      <trkpt lat="45.49562" lon="6.62338">
        <ele>2277.8000488281</ele>
        <time>2016-03-07T09:41:08.000Z</time>
      </trkpt>
      <trkpt lat="45.49562" lon="6.62338">
        <ele>2278.1999511719</ele>
        <time>2016-03-07T09:41:15.000Z</time>
      </trkpt>
      <trkpt lat="45.49562" lon="6.62338">
        <ele>2278.1999511719</ele>
        <time>2016-03-07T09:41:22.000Z</time>
      </trkpt>
      <trkpt lat="45.49562" lon="6.62338">
        <ele>2278</ele>
        <time>2016-03-07T09:41:31.000Z</time>
      </trkpt>
      <trkpt lat="45.49562" lon="6.62338">
        <ele>2278.1999511719</ele>
        <time>2016-03-07T09:41:43.000Z</time>
      </trkpt>
      <trkpt lat="45.49562" lon="6.62338">
        <ele>2278.1999511719</ele>
        <time>2016-03-07T09:41:56.000Z</time>
      </trkpt>
      <trkpt lat="45.49561" lon="6.62341">
        <ele>2278</ele>
        <time>2016-03-07T09:42:07.000Z</time>
      </trkpt>
      <trkpt lat="45.49558" lon="6.6235">
        <ele>2278.3999023438</ele>
        <time>2016-03-07T09:42:12.000Z</time>
      </trkpt>
      <trkpt lat="45.49555" lon="6.62356">
        <ele>2279.1999511719</ele>
        <time>2016-03-07T09:42:16.000Z</time>
      </trkpt>
      <trkpt lat="45.49554" lon="6.62358">
        <ele>2279.3999023438</ele>
        <time>2016-03-07T09:42:17.000Z</time>
      </trkpt>
      <trkpt lat="45.49551" lon="6.62366">
        <ele>2280</ele>
        <time>2016-03-07T09:42:22.000Z</time>
      </trkpt>
      <trkpt lat="45.49548" lon="6.62374">
        <ele>2279.6000976562</ele>
        <time>2016-03-07T09:42:28.000Z</time>
      </trkpt>
      <trkpt lat="45.49549" lon="6.62381">
        <ele>2280.1999511719</ele>
        <time>2016-03-07T09:42:32.000Z</time>
      </trkpt>
      <trkpt lat="45.49549" lon="6.62383">
        <ele>2280.3999023438</ele>
        <time>2016-03-07T09:42:33.000Z</time>
      </trkpt>
      <trkpt lat="45.49548" lon="6.62396">
        <ele>2280.8000488281</ele>
        <time>2016-03-07T09:42:39.000Z</time>
      </trkpt>
      <trkpt lat="45.49546" lon="6.62406">
        <ele>2280.1999511719</ele>
        <time>2016-03-07T09:42:44.000Z</time>
      </trkpt>
      <trkpt lat="45.49546" lon="6.62412">
        <ele>2280.6000976562</ele>
        <time>2016-03-07T09:42:49.000Z</time>
      </trkpt>
      <trkpt lat="45.49545" lon="6.6242">
        <ele>2281.3999023438</ele>
        <time>2016-03-07T09:42:54.000Z</time>
      </trkpt>
      <trkpt lat="45.49544" lon="6.62425">
        <ele>2281.8000488281</ele>
        <time>2016-03-07T09:42:58.000Z</time>
      </trkpt>
      <trkpt lat="45.49543" lon="6.62428">
        <ele>2282</ele>
        <time>2016-03-07T09:42:59.000Z</time>
      </trkpt>
      <trkpt lat="45.49542" lon="6.6243">
        <ele>2282.3999023438</ele>
        <time>2016-03-07T09:43:01.000Z</time>
      </trkpt>
      <trkpt lat="45.49541" lon="6.62434">
        <ele>2283</ele>
        <time>2016-03-07T09:43:04.000Z</time>
      </trkpt>
      <trkpt lat="45.49539" lon="6.62439">
        <ele>2283.6000976562</ele>
        <time>2016-03-07T09:43:08.000Z</time>
      </trkpt>
      <trkpt lat="45.49539" lon="6.62439">
        <ele>2283.8000488281</ele>
        <time>2016-03-07T09:43:09.000Z</time>
      </trkpt>
      <trkpt lat="45.49537" lon="6.62446">
        <ele>2284.6000976562</ele>
        <time>2016-03-07T09:43:14.000Z</time>
      </trkpt>
      <trkpt lat="45.49537" lon="6.62447">
        <ele>2284.8000488281</ele>
        <time>2016-03-07T09:43:15.000Z</time>
      </trkpt>
      <trkpt lat="45.49535" lon="6.6245">
        <ele>2285.8000488281</ele>
        <time>2016-03-07T09:43:20.000Z</time>
      </trkpt>
      <trkpt lat="45.49533" lon="6.62455">
        <ele>2287</ele>
        <time>2016-03-07T09:43:24.000Z</time>
      </trkpt>
      <trkpt lat="45.49533" lon="6.62455">
        <ele>2287.1999511719</ele>
        <time>2016-03-07T09:43:25.000Z</time>
      </trkpt>
      <trkpt lat="45.49532" lon="6.62457">
        <ele>2287.3999023438</ele>
        <time>2016-03-07T09:43:26.000Z</time>
      </trkpt>
      <trkpt lat="45.49531" lon="6.62459">
        <ele>2288</ele>
        <time>2016-03-07T09:43:28.000Z</time>
      </trkpt>
      <trkpt lat="45.4953" lon="6.62461">
        <ele>2288.3999023438</ele>
        <time>2016-03-07T09:43:31.000Z</time>
      </trkpt>
      <trkpt lat="45.4953" lon="6.62461">
        <ele>2289</ele>
        <time>2016-03-07T09:43:33.000Z</time>
      </trkpt>
      <trkpt lat="45.49528" lon="6.62464">
        <ele>2289.8000488281</ele>
        <time>2016-03-07T09:43:37.000Z</time>
      </trkpt>
      <trkpt lat="45.49527" lon="6.62466">
        <ele>2290</ele>
        <time>2016-03-07T09:43:39.000Z</time>
      </trkpt>
      <trkpt lat="45.49526" lon="6.62467">
        <ele>2290.8000488281</ele>
        <time>2016-03-07T09:43:42.000Z</time>
      </trkpt>
      <trkpt lat="45.49525" lon="6.62469">
        <ele>2291.1999511719</ele>
        <time>2016-03-07T09:43:44.000Z</time>
      </trkpt>
      <trkpt lat="45.49525" lon="6.62471">
        <ele>2292.3999023438</ele>
        <time>2016-03-07T09:43:48.000Z</time>
      </trkpt>
      <trkpt lat="45.49524" lon="6.62473">
        <ele>2292.6000976562</ele>
        <time>2016-03-07T09:43:49.000Z</time>
      </trkpt>
      <trkpt lat="45.49524" lon="6.62475">
        <ele>2293.3999023438</ele>
        <time>2016-03-07T09:43:54.000Z</time>
      </trkpt>
      <trkpt lat="45.49523" lon="6.62477">
        <ele>2293.3999023438</ele>
        <time>2016-03-07T09:43:55.000Z</time>
      </trkpt>
      <trkpt lat="45.49521" lon="6.62479">
        <ele>2294.3999023438</ele>
        <time>2016-03-07T09:43:59.000Z</time>
      </trkpt>
      <trkpt lat="45.49519" lon="6.62484">
        <ele>2295.1999511719</ele>
        <time>2016-03-07T09:44:04.000Z</time>
      </trkpt>
      <trkpt lat="45.49517" lon="6.62486">
        <ele>2295.6000976562</ele>
        <time>2016-03-07T09:44:08.000Z</time>
      </trkpt>
      <trkpt lat="45.49516" lon="6.62489">
        <ele>2295.8000488281</ele>
        <time>2016-03-07T09:44:10.000Z</time>
      </trkpt>
      <trkpt lat="45.49514" lon="6.62494">
        <ele>2296</ele>
        <time>2016-03-07T09:44:15.000Z</time>
      </trkpt>
      <trkpt lat="45.49511" lon="6.62498">
        <ele>2295.8000488281</ele>
        <time>2016-03-07T09:44:20.000Z</time>
      </trkpt>
      <trkpt lat="45.49509" lon="6.62503">
        <ele>2295.1999511719</ele>
        <time>2016-03-07T09:44:25.000Z</time>
      </trkpt>
      <trkpt lat="45.49507" lon="6.62509">
        <ele>2295</ele>
        <time>2016-03-07T09:44:29.000Z</time>
      </trkpt>
      <trkpt lat="45.49505" lon="6.62515">
        <ele>2295.3999023438</ele>
        <time>2016-03-07T09:44:34.000Z</time>
      </trkpt>
      <trkpt lat="45.49504" lon="6.62519">
        <ele>2295.8000488281</ele>
        <time>2016-03-07T09:44:39.000Z</time>
      </trkpt>
      <trkpt lat="45.49503" lon="6.62524">
        <ele>2296.1999511719</ele>
        <time>2016-03-07T09:44:42.000Z</time>
      </trkpt>
      <trkpt lat="45.49502" lon="6.62527">
        <ele>2296.1999511719</ele>
        <time>2016-03-07T09:44:43.000Z</time>
      </trkpt>
      <trkpt lat="45.49501" lon="6.62531">
        <ele>2296.6000976562</ele>
        <time>2016-03-07T09:44:46.000Z</time>
      </trkpt>
      <trkpt lat="45.495" lon="6.62531">
        <ele>2296.6000976562</ele>
        <time>2016-03-07T09:44:47.000Z</time>
      </trkpt>
      <trkpt lat="45.49499" lon="6.62535">
        <ele>2297</ele>
        <time>2016-03-07T09:44:52.000Z</time>
      </trkpt>
      <trkpt lat="45.49497" lon="6.62539">
        <ele>2297.3999023438</ele>
        <time>2016-03-07T09:44:57.000Z</time>
      </trkpt>
      <trkpt lat="45.49496" lon="6.62542">
        <ele>2297.6000976562</ele>
        <time>2016-03-07T09:45:00.000Z</time>
      </trkpt>
      <trkpt lat="45.49495" lon="6.62544">
        <ele>2298.6000976562</ele>
        <time>2016-03-07T09:45:03.000Z</time>
      </trkpt>
      <trkpt lat="45.49495" lon="6.62545">
        <ele>2298.8000488281</ele>
        <time>2016-03-07T09:45:04.000Z</time>
      </trkpt>
      <trkpt lat="45.49494" lon="6.62549">
        <ele>2299.8000488281</ele>
        <time>2016-03-07T09:45:09.000Z</time>
      </trkpt>
      <trkpt lat="45.49492" lon="6.62551">
        <ele>2301</ele>
        <time>2016-03-07T09:45:13.000Z</time>
      </trkpt>
      <trkpt lat="45.49491" lon="6.62553">
        <ele>2302</ele>
        <time>2016-03-07T09:45:17.000Z</time>
      </trkpt>
      <trkpt lat="45.49489" lon="6.62554">
        <ele>2302.6000976562</ele>
        <time>2016-03-07T09:45:19.000Z</time>
      </trkpt>
      <trkpt lat="45.49488" lon="6.62556">
        <ele>2303.1999511719</ele>
        <time>2016-03-07T09:45:22.000Z</time>
      </trkpt>
      <trkpt lat="45.49486" lon="6.62559">
        <ele>2304</ele>
        <time>2016-03-07T09:45:27.000Z</time>
      </trkpt>
      <trkpt lat="45.49486" lon="6.6256">
        <ele>2304.1999511719</ele>
        <time>2016-03-07T09:45:28.000Z</time>
      </trkpt>
      <trkpt lat="45.49484" lon="6.62563">
        <ele>2304.8000488281</ele>
        <time>2016-03-07T09:45:32.000Z</time>
      </trkpt>
      <trkpt lat="45.49483" lon="6.62566">
        <ele>2305.3999023438</ele>
        <time>2016-03-07T09:45:35.000Z</time>
      </trkpt>
      <trkpt lat="45.49482" lon="6.62566">
        <ele>2305.6000976562</ele>
        <time>2016-03-07T09:45:36.000Z</time>
      </trkpt>
      <trkpt lat="45.49481" lon="6.62569">
        <ele>2306.3999023438</ele>
        <time>2016-03-07T09:45:41.000Z</time>
      </trkpt>
      <trkpt lat="45.4948" lon="6.62573">
        <ele>2306.8000488281</ele>
        <time>2016-03-07T09:45:47.000Z</time>
      </trkpt>
      <trkpt lat="45.49478" lon="6.62575">
        <ele>2307.3999023438</ele>
        <time>2016-03-07T09:45:51.000Z</time>
      </trkpt>
      <trkpt lat="45.49477" lon="6.62577">
        <ele>2307.8000488281</ele>
        <time>2016-03-07T09:45:54.000Z</time>
      </trkpt>
      <trkpt lat="45.49477" lon="6.62578">
        <ele>2308.3999023438</ele>
        <time>2016-03-07T09:45:56.000Z</time>
      </trkpt>
      <trkpt lat="45.49475" lon="6.6258">
        <ele>2309.3999023438</ele>
        <time>2016-03-07T09:45:59.000Z</time>
      </trkpt>
      <trkpt lat="45.49476" lon="6.62581">
        <ele>2310.1999511719</ele>
        <time>2016-03-07T09:46:01.000Z</time>
      </trkpt>
      <trkpt lat="45.49474" lon="6.62582">
        <ele>2310.6000976562</ele>
        <time>2016-03-07T09:46:03.000Z</time>
      </trkpt>
      <trkpt lat="45.49472" lon="6.62585">
        <ele>2310.8000488281</ele>
        <time>2016-03-07T09:46:07.000Z</time>
      </trkpt>
      <trkpt lat="45.49471" lon="6.62588">
        <ele>2311.3999023438</ele>
        <time>2016-03-07T09:46:12.000Z</time>
      </trkpt>
      <trkpt lat="45.4947" lon="6.6259">
        <ele>2311.6000976562</ele>
        <time>2016-03-07T09:46:14.000Z</time>
      </trkpt>
      <trkpt lat="45.49469" lon="6.62593">
        <ele>2312.3999023438</ele>
        <time>2016-03-07T09:46:18.000Z</time>
      </trkpt>
      <trkpt lat="45.49469" lon="6.62595">
        <ele>2312.8000488281</ele>
        <time>2016-03-07T09:46:20.000Z</time>
      </trkpt>
      <trkpt lat="45.49469" lon="6.62596">
        <ele>2313.8000488281</ele>
        <time>2016-03-07T09:46:24.000Z</time>
      </trkpt>
      <trkpt lat="45.49469" lon="6.62596">
        <ele>2313.6000976562</ele>
        <time>2016-03-07T09:46:49.000Z</time>
      </trkpt>
      <trkpt lat="45.49469" lon="6.62596">
        <ele>2313.6000976562</ele>
        <time>2016-03-07T09:47:13.000Z</time>
      </trkpt>
      <trkpt lat="45.49469" lon="6.62596">
        <ele>2313.8000488281</ele>
        <time>2016-03-07T09:47:33.000Z</time>
      </trkpt>
      <trkpt lat="45.49469" lon="6.626">
        <ele>2313.6000976562</ele>
        <time>2016-03-07T09:47:46.000Z</time>
      </trkpt>
      <trkpt lat="45.49468" lon="6.62607">
        <ele>2313.8000488281</ele>
        <time>2016-03-07T09:47:50.000Z</time>
      </trkpt>
      <trkpt lat="45.49468" lon="6.62606">
        <ele>2314.1999511719</ele>
        <time>2016-03-07T09:47:51.000Z</time>
      </trkpt>
      <trkpt lat="45.49466" lon="6.62616">
        <ele>2315</ele>
        <time>2016-03-07T09:47:56.000Z</time>
      </trkpt>
      <trkpt lat="45.49465" lon="6.62621">
        <ele>2315.3999023438</ele>
        <time>2016-03-07T09:47:59.000Z</time>
      </trkpt>
      <trkpt lat="45.49465" lon="6.62623">
        <ele>2315.6000976562</ele>
        <time>2016-03-07T09:48:01.000Z</time>
      </trkpt>
      <trkpt lat="45.49463" lon="6.62626">
        <ele>2315.8000488281</ele>
        <time>2016-03-07T09:48:03.000Z</time>
      </trkpt>
      <trkpt lat="45.49462" lon="6.62629">
        <ele>2316</ele>
        <time>2016-03-07T09:48:05.000Z</time>
      </trkpt>
      <trkpt lat="45.49462" lon="6.6263">
        <ele>2316.1999511719</ele>
        <time>2016-03-07T09:48:07.000Z</time>
      </trkpt>
      <trkpt lat="45.4946" lon="6.62636">
        <ele>2317</ele>
        <time>2016-03-07T09:48:13.000Z</time>
      </trkpt>
      <trkpt lat="45.49459" lon="6.62638">
        <ele>2317.1999511719</ele>
        <time>2016-03-07T09:48:14.000Z</time>
      </trkpt>
      <trkpt lat="45.49459" lon="6.6264">
        <ele>2318.1999511719</ele>
        <time>2016-03-07T09:48:17.000Z</time>
      </trkpt>
      <trkpt lat="45.49457" lon="6.62642">
        <ele>2318.8000488281</ele>
        <time>2016-03-07T09:48:19.000Z</time>
      </trkpt>
      <trkpt lat="45.49457" lon="6.62643">
        <ele>2319.6000976562</ele>
        <time>2016-03-07T09:48:21.000Z</time>
      </trkpt>
      <trkpt lat="45.49456" lon="6.62647">
        <ele>2320.6000976562</ele>
        <time>2016-03-07T09:48:25.000Z</time>
      </trkpt>
      <trkpt lat="45.49455" lon="6.62649">
        <ele>2321</ele>
        <time>2016-03-07T09:48:27.000Z</time>
      </trkpt>
      <trkpt lat="45.49455" lon="6.62649">
        <ele>2321.1999511719</ele>
        <time>2016-03-07T09:48:28.000Z</time>
      </trkpt>
      <trkpt lat="45.49454" lon="6.62652">
        <ele>2321.6000976562</ele>
        <time>2016-03-07T09:48:31.000Z</time>
      </trkpt>
      <trkpt lat="45.49454" lon="6.62653">
        <ele>2321.8000488281</ele>
        <time>2016-03-07T09:48:33.000Z</time>
      </trkpt>
      <trkpt lat="45.49453" lon="6.62659">
        <ele>2322.6000976562</ele>
        <time>2016-03-07T09:48:37.000Z</time>
      </trkpt>
      <trkpt lat="45.49454" lon="6.62662">
        <ele>2323.1999511719</ele>
        <time>2016-03-07T09:48:39.000Z</time>
      </trkpt>
      <trkpt lat="45.49454" lon="6.62668">
        <ele>2323.8000488281</ele>
        <time>2016-03-07T09:48:44.000Z</time>
      </trkpt>
      <trkpt lat="45.49454" lon="6.62668">
        <ele>2324.1999511719</ele>
        <time>2016-03-07T09:48:46.000Z</time>
      </trkpt>
      <trkpt lat="45.49454" lon="6.62672">
        <ele>2325</ele>
        <time>2016-03-07T09:48:51.000Z</time>
      </trkpt>
      <trkpt lat="45.49453" lon="6.62675">
        <ele>2325.8000488281</ele>
        <time>2016-03-07T09:48:56.000Z</time>
      </trkpt>
      <trkpt lat="45.49453" lon="6.62677">
        <ele>2326.1999511719</ele>
        <time>2016-03-07T09:48:58.000Z</time>
      </trkpt>
      <trkpt lat="45.49454" lon="6.62679">
        <ele>2326.8000488281</ele>
        <time>2016-03-07T09:49:02.000Z</time>
      </trkpt>
      <trkpt lat="45.49454" lon="6.6268">
        <ele>2327.3999023438</ele>
        <time>2016-03-07T09:49:04.000Z</time>
      </trkpt>
      <trkpt lat="45.49455" lon="6.62684">
        <ele>2328.1999511719</ele>
        <time>2016-03-07T09:49:08.000Z</time>
      </trkpt>
      <trkpt lat="45.49455" lon="6.62686">
        <ele>2328.3999023438</ele>
        <time>2016-03-07T09:49:09.000Z</time>
      </trkpt>
      <trkpt lat="45.49455" lon="6.62691">
        <ele>2329.6000976562</ele>
        <time>2016-03-07T09:49:14.000Z</time>
      </trkpt>
      <trkpt lat="45.49455" lon="6.62692">
        <ele>2329.8000488281</ele>
        <time>2016-03-07T09:49:15.000Z</time>
      </trkpt>
      <trkpt lat="45.49456" lon="6.62696">
        <ele>2330.6000976562</ele>
        <time>2016-03-07T09:49:20.000Z</time>
      </trkpt>
      <trkpt lat="45.49457" lon="6.62699">
        <ele>2330.8000488281</ele>
        <time>2016-03-07T09:49:21.000Z</time>
      </trkpt>
      <trkpt lat="45.49458" lon="6.627">
        <ele>2331.1999511719</ele>
        <time>2016-03-07T09:49:25.000Z</time>
      </trkpt>
      <trkpt lat="45.49459" lon="6.62705">
        <ele>2331.8000488281</ele>
        <time>2016-03-07T09:49:30.000Z</time>
      </trkpt>
      <trkpt lat="45.49459" lon="6.62706">
        <ele>2331.8000488281</ele>
        <time>2016-03-07T09:49:31.000Z</time>
      </trkpt>
      <trkpt lat="45.4946" lon="6.62709">
        <ele>2332.6000976562</ele>
        <time>2016-03-07T09:49:35.000Z</time>
      </trkpt>
      <trkpt lat="45.4946" lon="6.62709">
        <ele>2332.8000488281</ele>
        <time>2016-03-07T09:49:36.000Z</time>
      </trkpt>
      <trkpt lat="45.49462" lon="6.62718">
        <ele>2333.3999023438</ele>
        <time>2016-03-07T09:49:41.000Z</time>
      </trkpt>
      <trkpt lat="45.49463" lon="6.62725">
        <ele>2333.8000488281</ele>
        <time>2016-03-07T09:49:48.000Z</time>
      </trkpt>
      <trkpt lat="45.49463" lon="6.62726">
        <ele>2333.8000488281</ele>
        <time>2016-03-07T09:49:49.000Z</time>
      </trkpt>
      <trkpt lat="45.49463" lon="6.62732">
        <ele>2334.8000488281</ele>
        <time>2016-03-07T09:49:54.000Z</time>
      </trkpt>
      <trkpt lat="45.49461" lon="6.62737">
        <ele>2336</ele>
        <time>2016-03-07T09:49:59.000Z</time>
      </trkpt>
      <trkpt lat="45.49461" lon="6.62738">
        <ele>2336.1999511719</ele>
        <time>2016-03-07T09:50:00.000Z</time>
      </trkpt>
      <trkpt lat="45.49461" lon="6.62742">
        <ele>2337</ele>
        <time>2016-03-07T09:50:04.000Z</time>
      </trkpt>
      <trkpt lat="45.4946" lon="6.62745">
        <ele>2337.8000488281</ele>
        <time>2016-03-07T09:50:07.000Z</time>
      </trkpt>
      <trkpt lat="45.4946" lon="6.62746">
        <ele>2338.1999511719</ele>
        <time>2016-03-07T09:50:09.000Z</time>
      </trkpt>
      <trkpt lat="45.4946" lon="6.62751">
        <ele>2338.8000488281</ele>
        <time>2016-03-07T09:50:13.000Z</time>
      </trkpt>
      <trkpt lat="45.49461" lon="6.62753">
        <ele>2339.1999511719</ele>
        <time>2016-03-07T09:50:15.000Z</time>
      </trkpt>
      <trkpt lat="45.49461" lon="6.62755">
        <ele>2340</ele>
        <time>2016-03-07T09:50:17.000Z</time>
      </trkpt>
      <trkpt lat="45.49462" lon="6.62755">
        <ele>2340.3999023438</ele>
        <time>2016-03-07T09:50:19.000Z</time>
      </trkpt>
      <trkpt lat="45.49463" lon="6.62759">
        <ele>2341</ele>
        <time>2016-03-07T09:50:23.000Z</time>
      </trkpt>
      <trkpt lat="45.49464" lon="6.62762">
        <ele>2341.3999023438</ele>
        <time>2016-03-07T09:50:26.000Z</time>
      </trkpt>
      <trkpt lat="45.49465" lon="6.62762">
        <ele>2341.8000488281</ele>
        <time>2016-03-07T09:50:28.000Z</time>
      </trkpt>
      <trkpt lat="45.49464" lon="6.62767">
        <ele>2342.6000976562</ele>
        <time>2016-03-07T09:50:31.000Z</time>
      </trkpt>
      <trkpt lat="45.49464" lon="6.62771">
        <ele>2343.1999511719</ele>
        <time>2016-03-07T09:50:34.000Z</time>
      </trkpt>
      <trkpt lat="45.49465" lon="6.62773">
        <ele>2343.6000976562</ele>
        <time>2016-03-07T09:50:37.000Z</time>
      </trkpt>
      <trkpt lat="45.49465" lon="6.62774">
        <ele>2343.8000488281</ele>
        <time>2016-03-07T09:50:38.000Z</time>
      </trkpt>
      <trkpt lat="45.49465" lon="6.62779">
        <ele>2344.6000976562</ele>
        <time>2016-03-07T09:50:43.000Z</time>
      </trkpt>
      <trkpt lat="45.49465" lon="6.62781">
        <ele>2344.8000488281</ele>
        <time>2016-03-07T09:50:44.000Z</time>
      </trkpt>
      <trkpt lat="45.49466" lon="6.62783">
        <ele>2345</ele>
        <time>2016-03-07T09:50:47.000Z</time>
      </trkpt>
      <trkpt lat="45.49466" lon="6.62789">
        <ele>2345.8000488281</ele>
        <time>2016-03-07T09:50:52.000Z</time>
      </trkpt>
      <trkpt lat="45.49466" lon="6.6279">
        <ele>2345.8000488281</ele>
        <time>2016-03-07T09:50:53.000Z</time>
      </trkpt>
      <trkpt lat="45.49467" lon="6.62796">
        <ele>2346.1999511719</ele>
        <time>2016-03-07T09:50:57.000Z</time>
      </trkpt>
      <trkpt lat="45.49471" lon="6.62802">
        <ele>2346.8000488281</ele>
        <time>2016-03-07T09:51:03.000Z</time>
      </trkpt>
      <trkpt lat="45.49471" lon="6.62803">
        <ele>2347</ele>
        <time>2016-03-07T09:51:04.000Z</time>
      </trkpt>
      <trkpt lat="45.49472" lon="6.62807">
        <ele>2347</ele>
        <time>2016-03-07T09:51:07.000Z</time>
      </trkpt>
      <trkpt lat="45.49474" lon="6.6281">
        <ele>2347</ele>
        <time>2016-03-07T09:51:10.000Z</time>
      </trkpt>
      <trkpt lat="45.49475" lon="6.62815">
        <ele>2346.8000488281</ele>
        <time>2016-03-07T09:51:15.000Z</time>
      </trkpt>
      <trkpt lat="45.49479" lon="6.62823">
        <ele>2346</ele>
        <time>2016-03-07T09:51:22.000Z</time>
      </trkpt>
      <trkpt lat="45.49482" lon="6.62831">
        <ele>2347.3999023438</ele>
        <time>2016-03-07T09:51:29.000Z</time>
      </trkpt>
      <trkpt lat="45.49485" lon="6.62836">
        <ele>2348</ele>
        <time>2016-03-07T09:51:35.000Z</time>
      </trkpt>
      <trkpt lat="45.49487" lon="6.62844">
        <ele>2348.6000976562</ele>
        <time>2016-03-07T09:51:41.000Z</time>
      </trkpt>
      <trkpt lat="45.49489" lon="6.6285">
        <ele>2349</ele>
        <time>2016-03-07T09:51:46.000Z</time>
      </trkpt>
      <trkpt lat="45.4949" lon="6.62851">
        <ele>2349.1999511719</ele>
        <time>2016-03-07T09:51:47.000Z</time>
      </trkpt>
      <trkpt lat="45.49492" lon="6.62859">
        <ele>2350</ele>
        <time>2016-03-07T09:51:53.000Z</time>
      </trkpt>
      <trkpt lat="45.49493" lon="6.62861">
        <ele>2350.1999511719</ele>
        <time>2016-03-07T09:51:55.000Z</time>
      </trkpt>
      <trkpt lat="45.49493" lon="6.62865">
        <ele>2350.8000488281</ele>
        <time>2016-03-07T09:51:59.000Z</time>
      </trkpt>
      <trkpt lat="45.49494" lon="6.6287">
        <ele>2351.1999511719</ele>
        <time>2016-03-07T09:52:02.000Z</time>
      </trkpt>
      <trkpt lat="45.49494" lon="6.62873">
        <ele>2351.3999023438</ele>
        <time>2016-03-07T09:52:04.000Z</time>
      </trkpt>
      <trkpt lat="45.49496" lon="6.62878">
        <ele>2352</ele>
        <time>2016-03-07T09:52:10.000Z</time>
      </trkpt>
      <trkpt lat="45.49497" lon="6.62881">
        <ele>2352.1999511719</ele>
        <time>2016-03-07T09:52:12.000Z</time>
      </trkpt>
      <trkpt lat="45.49498" lon="6.62886">
        <ele>2352.8000488281</ele>
        <time>2016-03-07T09:52:16.000Z</time>
      </trkpt>
      <trkpt lat="45.49499" lon="6.62892">
        <ele>2353.1999511719</ele>
        <time>2016-03-07T09:52:20.000Z</time>
      </trkpt>
      <trkpt lat="45.49499" lon="6.62894">
        <ele>2353.3999023438</ele>
        <time>2016-03-07T09:52:22.000Z</time>
      </trkpt>
      <trkpt lat="45.49499" lon="6.62896">
        <ele>2353.6000976562</ele>
        <time>2016-03-07T09:52:23.000Z</time>
      </trkpt>
      <trkpt lat="45.49501" lon="6.629">
        <ele>2354</ele>
        <time>2016-03-07T09:52:27.000Z</time>
      </trkpt>
      <trkpt lat="45.49503" lon="6.62904">
        <ele>2354.1999511719</ele>
        <time>2016-03-07T09:52:30.000Z</time>
      </trkpt>
      <trkpt lat="45.49504" lon="6.62907">
        <ele>2354.3999023438</ele>
        <time>2016-03-07T09:52:33.000Z</time>
      </trkpt>
      <trkpt lat="45.49505" lon="6.62912">
        <ele>2355</ele>
        <time>2016-03-07T09:52:38.000Z</time>
      </trkpt>
      <trkpt lat="45.49505" lon="6.62916">
        <ele>2355.3999023438</ele>
        <time>2016-03-07T09:52:41.000Z</time>
      </trkpt>
      <trkpt lat="45.49506" lon="6.6292">
        <ele>2355.6000976562</ele>
        <time>2016-03-07T09:52:44.000Z</time>
      </trkpt>
      <trkpt lat="45.49508" lon="6.62928">
        <ele>2356</ele>
        <time>2016-03-07T09:52:50.000Z</time>
      </trkpt>
      <trkpt lat="45.4951" lon="6.62931">
        <ele>2356.3999023438</ele>
        <time>2016-03-07T09:52:53.000Z</time>
      </trkpt>
      <trkpt lat="45.49511" lon="6.62934">
        <ele>2356.6000976562</ele>
        <time>2016-03-07T09:52:56.000Z</time>
      </trkpt>
      <trkpt lat="45.49516" lon="6.62939">
        <ele>2357.3999023438</ele>
        <time>2016-03-07T09:53:02.000Z</time>
      </trkpt>
      <trkpt lat="45.49517" lon="6.62944">
        <ele>2358.3999023438</ele>
        <time>2016-03-07T09:53:07.000Z</time>
      </trkpt>
      <trkpt lat="45.49518" lon="6.62945">
        <ele>2358.6000976562</ele>
        <time>2016-03-07T09:53:08.000Z</time>
      </trkpt>
      <trkpt lat="45.49518" lon="6.62949">
        <ele>2359.3999023438</ele>
        <time>2016-03-07T09:53:12.000Z</time>
      </trkpt>
      <trkpt lat="45.4952" lon="6.62951">
        <ele>2359.8000488281</ele>
        <time>2016-03-07T09:53:14.000Z</time>
      </trkpt>
      <trkpt lat="45.49522" lon="6.62956">
        <ele>2360.3999023438</ele>
        <time>2016-03-07T09:53:18.000Z</time>
      </trkpt>
      <trkpt lat="45.49523" lon="6.6296">
        <ele>2360.8000488281</ele>
        <time>2016-03-07T09:53:21.000Z</time>
      </trkpt>
      <trkpt lat="45.49524" lon="6.62962">
        <ele>2361.3999023438</ele>
        <time>2016-03-07T09:53:25.000Z</time>
      </trkpt>
      <trkpt lat="45.49526" lon="6.62966">
        <ele>2362.1999511719</ele>
        <time>2016-03-07T09:53:28.000Z</time>
      </trkpt>
      <trkpt lat="45.49526" lon="6.62967">
        <ele>2362.3999023438</ele>
        <time>2016-03-07T09:53:30.000Z</time>
      </trkpt>
      <trkpt lat="45.49528" lon="6.62972">
        <ele>2362.8000488281</ele>
        <time>2016-03-07T09:53:36.000Z</time>
      </trkpt>
      <trkpt lat="45.4953" lon="6.62976">
        <ele>2363.1999511719</ele>
        <time>2016-03-07T09:53:40.000Z</time>
      </trkpt>
      <trkpt lat="45.4953" lon="6.62978">
        <ele>2363.3999023438</ele>
        <time>2016-03-07T09:53:41.000Z</time>
      </trkpt>
      <trkpt lat="45.49532" lon="6.62983">
        <ele>2364.3999023438</ele>
        <time>2016-03-07T09:53:45.000Z</time>
      </trkpt>
      <trkpt lat="45.49533" lon="6.62984">
        <ele>2364.6000976562</ele>
        <time>2016-03-07T09:53:46.000Z</time>
      </trkpt>
      <trkpt lat="45.49537" lon="6.62989">
        <ele>2365.6000976562</ele>
        <time>2016-03-07T09:53:52.000Z</time>
      </trkpt>
      <trkpt lat="45.49542" lon="6.62989">
        <ele>2366.3999023438</ele>
        <time>2016-03-07T09:53:57.000Z</time>
      </trkpt>
      <trkpt lat="45.49544" lon="6.62989">
        <ele>2366.8000488281</ele>
        <time>2016-03-07T09:53:59.000Z</time>
      </trkpt>
      <trkpt lat="45.49548" lon="6.6299">
        <ele>2367.6000976562</ele>
        <time>2016-03-07T09:54:03.000Z</time>
      </trkpt>
      <trkpt lat="45.49548" lon="6.6299">
        <ele>2367.8000488281</ele>
        <time>2016-03-07T09:54:04.000Z</time>
      </trkpt>
      <trkpt lat="45.49552" lon="6.62991">
        <ele>2368.8000488281</ele>
        <time>2016-03-07T09:54:09.000Z</time>
      </trkpt>
      <trkpt lat="45.49553" lon="6.62992">
        <ele>2369</ele>
        <time>2016-03-07T09:54:10.000Z</time>
      </trkpt>
      <trkpt lat="45.49555" lon="6.62995">
        <ele>2369.8000488281</ele>
        <time>2016-03-07T09:54:14.000Z</time>
      </trkpt>
      <trkpt lat="45.49555" lon="6.62998">
        <ele>2370.6000976562</ele>
        <time>2016-03-07T09:54:16.000Z</time>
      </trkpt>
      <trkpt lat="45.49555" lon="6.63002">
        <ele>2371</ele>
        <time>2016-03-07T09:54:20.000Z</time>
      </trkpt>
      <trkpt lat="45.49555" lon="6.63003">
        <ele>2371.1999511719</ele>
        <time>2016-03-07T09:54:22.000Z</time>
      </trkpt>
      <trkpt lat="45.49556" lon="6.63003">
        <ele>2372.1999511719</ele>
        <time>2016-03-07T09:54:25.000Z</time>
      </trkpt>
      <trkpt lat="45.49557" lon="6.63005">
        <ele>2372.8000488281</ele>
        <time>2016-03-07T09:54:28.000Z</time>
      </trkpt>
      <trkpt lat="45.49558" lon="6.63005">
        <ele>2373.1999511719</ele>
        <time>2016-03-07T09:54:29.000Z</time>
      </trkpt>
      <trkpt lat="45.49562" lon="6.63007">
        <ele>2374.1999511719</ele>
        <time>2016-03-07T09:54:35.000Z</time>
      </trkpt>
      <trkpt lat="45.49564" lon="6.63007">
        <ele>2375.6000976562</ele>
        <time>2016-03-07T09:54:40.000Z</time>
      </trkpt>
      <trkpt lat="45.49565" lon="6.63007">
        <ele>2376</ele>
        <time>2016-03-07T09:54:42.000Z</time>
      </trkpt>
      <trkpt lat="45.49568" lon="6.6301">
        <ele>2376.6000976562</ele>
        <time>2016-03-07T09:54:47.000Z</time>
      </trkpt>
      <trkpt lat="45.49568" lon="6.63011">
        <ele>2377.6000976562</ele>
        <time>2016-03-07T09:54:50.000Z</time>
      </trkpt>
      <trkpt lat="45.49568" lon="6.63012">
        <ele>2377.8000488281</ele>
        <time>2016-03-07T09:54:51.000Z</time>
      </trkpt>
      <trkpt lat="45.49568" lon="6.63017">
        <ele>2379</ele>
        <time>2016-03-07T09:54:57.000Z</time>
      </trkpt>
      <trkpt lat="45.49568" lon="6.63019">
        <ele>2379.1999511719</ele>
        <time>2016-03-07T09:54:59.000Z</time>
      </trkpt>
      <trkpt lat="45.49568" lon="6.63022">
        <ele>2380</ele>
        <time>2016-03-07T09:55:05.000Z</time>
      </trkpt>
      <trkpt lat="45.49569" lon="6.63022">
        <ele>2380.1999511719</ele>
        <time>2016-03-07T09:55:06.000Z</time>
      </trkpt>
      <trkpt lat="45.49572" lon="6.63022">
        <ele>2381.3999023438</ele>
        <time>2016-03-07T09:55:10.000Z</time>
      </trkpt>
      <trkpt lat="45.49573" lon="6.63022">
        <ele>2381.6000976562</ele>
        <time>2016-03-07T09:55:11.000Z</time>
      </trkpt>
      <trkpt lat="45.49575" lon="6.63023">
        <ele>2382.3999023438</ele>
        <time>2016-03-07T09:55:17.000Z</time>
      </trkpt>
      <trkpt lat="45.49576" lon="6.63024">
        <ele>2382.3999023438</ele>
        <time>2016-03-07T09:55:18.000Z</time>
      </trkpt>
      <trkpt lat="45.49576" lon="6.63027">
        <ele>2383.6000976562</ele>
        <time>2016-03-07T09:55:24.000Z</time>
      </trkpt>
      <trkpt lat="45.49576" lon="6.63028">
        <ele>2384.8000488281</ele>
        <time>2016-03-07T09:55:28.000Z</time>
      </trkpt>
      <trkpt lat="45.49577" lon="6.6303">
        <ele>2385</ele>
        <time>2016-03-07T09:55:29.000Z</time>
      </trkpt>
      <trkpt lat="45.4958" lon="6.63035">
        <ele>2385.8000488281</ele>
        <time>2016-03-07T09:55:37.000Z</time>
      </trkpt>
      <trkpt lat="45.49581" lon="6.63036">
        <ele>2387</ele>
        <time>2016-03-07T09:55:41.000Z</time>
      </trkpt>
      <trkpt lat="45.49582" lon="6.63037">
        <ele>2387.6000976562</ele>
        <time>2016-03-07T09:55:43.000Z</time>
      </trkpt>
      <trkpt lat="45.49584" lon="6.63041">
        <ele>2388</ele>
        <time>2016-03-07T09:55:49.000Z</time>
      </trkpt>
      <trkpt lat="45.49584" lon="6.63045">
        <ele>2389</ele>
        <time>2016-03-07T09:55:53.000Z</time>
      </trkpt>
      <trkpt lat="45.49584" lon="6.63046">
        <ele>2389.1999511719</ele>
        <time>2016-03-07T09:55:54.000Z</time>
      </trkpt>
      <trkpt lat="45.49584" lon="6.63047">
        <ele>2390.1999511719</ele>
        <time>2016-03-07T09:55:58.000Z</time>
      </trkpt>
      <trkpt lat="45.49585" lon="6.63049">
        <ele>2390.6000976562</ele>
        <time>2016-03-07T09:56:00.000Z</time>
      </trkpt>
      <trkpt lat="45.49586" lon="6.63051">
        <ele>2391.1999511719</ele>
        <time>2016-03-07T09:56:04.000Z</time>
      </trkpt>
      <trkpt lat="45.49587" lon="6.63051">
        <ele>2391.3999023438</ele>
        <time>2016-03-07T09:56:05.000Z</time>
      </trkpt>
      <trkpt lat="45.49587" lon="6.63053">
        <ele>2391.6000976562</ele>
        <time>2016-03-07T09:56:10.000Z</time>
      </trkpt>
      <trkpt lat="45.49588" lon="6.63058">
        <ele>2392.6000976562</ele>
        <time>2016-03-07T09:56:16.000Z</time>
      </trkpt>
      <trkpt lat="45.49588" lon="6.63066">
        <ele>2393.6000976562</ele>
        <time>2016-03-07T09:56:22.000Z</time>
      </trkpt>
      <trkpt lat="45.49589" lon="6.63068">
        <ele>2393.8000488281</ele>
        <time>2016-03-07T09:56:23.000Z</time>
      </trkpt>
      <trkpt lat="45.49589" lon="6.63072">
        <ele>2394.3999023438</ele>
        <time>2016-03-07T09:56:28.000Z</time>
      </trkpt>
      <trkpt lat="45.49589" lon="6.63074">
        <ele>2394.8000488281</ele>
        <time>2016-03-07T09:56:30.000Z</time>
      </trkpt>
      <trkpt lat="45.49589" lon="6.63077">
        <ele>2395.1999511719</ele>
        <time>2016-03-07T09:56:34.000Z</time>
      </trkpt>
      <trkpt lat="45.49588" lon="6.63081">
        <ele>2395.8000488281</ele>
        <time>2016-03-07T09:56:39.000Z</time>
      </trkpt>
      <trkpt lat="45.49588" lon="6.63082">
        <ele>2396.3999023438</ele>
        <time>2016-03-07T09:56:41.000Z</time>
      </trkpt>
      <trkpt lat="45.49589" lon="6.63084">
        <ele>2397</ele>
        <time>2016-03-07T09:56:44.000Z</time>
      </trkpt>
      <trkpt lat="45.49589" lon="6.63087">
        <ele>2397.3999023438</ele>
        <time>2016-03-07T09:56:46.000Z</time>
      </trkpt>
      <trkpt lat="45.49588" lon="6.6309">
        <ele>2398</ele>
        <time>2016-03-07T09:56:49.000Z</time>
      </trkpt>
      <trkpt lat="45.49588" lon="6.63092">
        <ele>2398.3999023438</ele>
        <time>2016-03-07T09:56:51.000Z</time>
      </trkpt>
      <trkpt lat="45.49589" lon="6.63094">
        <ele>2399.1999511719</ele>
        <time>2016-03-07T09:56:56.000Z</time>
      </trkpt>
      <trkpt lat="45.49589" lon="6.63095">
        <ele>2399.1999511719</ele>
        <time>2016-03-07T09:56:57.000Z</time>
      </trkpt>
      <trkpt lat="45.49589" lon="6.63098">
        <ele>2400.1999511719</ele>
        <time>2016-03-07T09:57:03.000Z</time>
      </trkpt>
      <trkpt lat="45.49588" lon="6.63102">
        <ele>2401.6000976562</ele>
        <time>2016-03-07T09:57:09.000Z</time>
      </trkpt>
      <trkpt lat="45.49588" lon="6.63107">
        <ele>2402.6000976562</ele>
        <time>2016-03-07T09:57:14.000Z</time>
      </trkpt>
      <trkpt lat="45.49588" lon="6.63109">
        <ele>2403</ele>
        <time>2016-03-07T09:57:16.000Z</time>
      </trkpt>
      <trkpt lat="45.49588" lon="6.63112">
        <ele>2403.8000488281</ele>
        <time>2016-03-07T09:57:21.000Z</time>
      </trkpt>
      <trkpt lat="45.49589" lon="6.63114">
        <ele>2404</ele>
        <time>2016-03-07T09:57:24.000Z</time>
      </trkpt>
      <trkpt lat="45.49589" lon="6.63118">
        <ele>2404.8000488281</ele>
        <time>2016-03-07T09:57:28.000Z</time>
      </trkpt>
      <trkpt lat="45.4959" lon="6.63121">
        <ele>2405.1999511719</ele>
        <time>2016-03-07T09:57:30.000Z</time>
      </trkpt>
      <trkpt lat="45.4959" lon="6.63121">
        <ele>2406</ele>
        <time>2016-03-07T09:57:35.000Z</time>
      </trkpt>
      <trkpt lat="45.49588" lon="6.63128">
        <ele>2407</ele>
        <time>2016-03-07T09:57:40.000Z</time>
      </trkpt>
      <trkpt lat="45.49588" lon="6.63129">
        <ele>2407.1999511719</ele>
        <time>2016-03-07T09:57:41.000Z</time>
      </trkpt>
      <trkpt lat="45.49587" lon="6.63135">
        <ele>2407.6000976562</ele>
        <time>2016-03-07T09:57:46.000Z</time>
      </trkpt>
      <trkpt lat="45.49586" lon="6.63141">
        <ele>2408.1999511719</ele>
        <time>2016-03-07T09:57:51.000Z</time>
      </trkpt>
      <trkpt lat="45.49586" lon="6.63141">
        <ele>2408.3999023438</ele>
        <time>2016-03-07T09:57:52.000Z</time>
      </trkpt>
      <trkpt lat="45.49586" lon="6.6315">
        <ele>2409</ele>
        <time>2016-03-07T09:57:59.000Z</time>
      </trkpt>
      <trkpt lat="45.49585" lon="6.63152">
        <ele>2409.1999511719</ele>
        <time>2016-03-07T09:58:01.000Z</time>
      </trkpt>
      <trkpt lat="45.49585" lon="6.63158">
        <ele>2409.3999023438</ele>
        <time>2016-03-07T09:58:05.000Z</time>
      </trkpt>
      <trkpt lat="45.49585" lon="6.63161">
        <ele>2409.3999023438</ele>
        <time>2016-03-07T09:58:07.000Z</time>
      </trkpt>
      <trkpt lat="45.49584" lon="6.63167">
        <ele>2409.1999511719</ele>
        <time>2016-03-07T09:58:10.000Z</time>
      </trkpt>
      <trkpt lat="45.49582" lon="6.63174">
        <ele>2408.6000976562</ele>
        <time>2016-03-07T09:58:15.000Z</time>
      </trkpt>
      <trkpt lat="45.4958" lon="6.6318">
        <ele>2408.3999023438</ele>
        <time>2016-03-07T09:58:21.000Z</time>
      </trkpt>
      <trkpt lat="45.49578" lon="6.63181">
        <ele>2408.3999023438</ele>
        <time>2016-03-07T09:58:23.000Z</time>
      </trkpt>
      <trkpt lat="45.49575" lon="6.63184">
        <ele>2408.6000976562</ele>
        <time>2016-03-07T09:58:26.000Z</time>
      </trkpt>
      <trkpt lat="45.49572" lon="6.63187">
        <ele>2409.8000488281</ele>
        <time>2016-03-07T09:58:32.000Z</time>
      </trkpt>
      <trkpt lat="45.4957" lon="6.63189">
        <ele>2410.1999511719</ele>
        <time>2016-03-07T09:58:34.000Z</time>
      </trkpt>
      <trkpt lat="45.49567" lon="6.63194">
        <ele>2411.6000976562</ele>
        <time>2016-03-07T09:58:39.000Z</time>
      </trkpt>
      <trkpt lat="45.49565" lon="6.632">
        <ele>2412.6000976562</ele>
        <time>2016-03-07T09:58:45.000Z</time>
      </trkpt>
      <trkpt lat="45.49564" lon="6.63201">
        <ele>2412.8000488281</ele>
        <time>2016-03-07T09:58:46.000Z</time>
      </trkpt>
      <trkpt lat="45.49561" lon="6.63207">
        <ele>2413.3999023438</ele>
        <time>2016-03-07T09:58:53.000Z</time>
      </trkpt>
      <trkpt lat="45.49554" lon="6.63215">
        <ele>2413.1999511719</ele>
        <time>2016-03-07T09:58:58.000Z</time>
      </trkpt>
      <trkpt lat="45.49549" lon="6.63222">
        <ele>2413</ele>
        <time>2016-03-07T09:59:04.000Z</time>
      </trkpt>
      <trkpt lat="45.49545" lon="6.63227">
        <ele>2413</ele>
        <time>2016-03-07T09:59:09.000Z</time>
      </trkpt>
      <trkpt lat="45.4954" lon="6.63233">
        <ele>2413.1999511719</ele>
        <time>2016-03-07T09:59:15.000Z</time>
      </trkpt>
      <trkpt lat="45.49535" lon="6.63239">
        <ele>2413.1999511719</ele>
        <time>2016-03-07T09:59:20.000Z</time>
      </trkpt>
      <trkpt lat="45.49531" lon="6.63247">
        <ele>2413.1999511719</ele>
        <time>2016-03-07T09:59:27.000Z</time>
      </trkpt>
      <trkpt lat="45.4953" lon="6.63251">
        <ele>2413.6000976562</ele>
        <time>2016-03-07T09:59:33.000Z</time>
      </trkpt>
      <trkpt lat="45.4953" lon="6.63251">
        <ele>2413.6000976562</ele>
        <time>2016-03-07T09:59:34.000Z</time>
      </trkpt>
      <trkpt lat="45.49527" lon="6.63257">
        <ele>2413.8000488281</ele>
        <time>2016-03-07T09:59:39.000Z</time>
      </trkpt>
      <trkpt lat="45.49524" lon="6.63264">
        <ele>2414.1999511719</ele>
        <time>2016-03-07T09:59:44.000Z</time>
      </trkpt>
      <trkpt lat="45.49519" lon="6.6327">
        <ele>2414.8000488281</ele>
        <time>2016-03-07T09:59:50.000Z</time>
      </trkpt>
      <trkpt lat="45.49518" lon="6.63275">
        <ele>2415.8000488281</ele>
        <time>2016-03-07T09:59:55.000Z</time>
      </trkpt>
      <trkpt lat="45.49517" lon="6.63277">
        <ele>2416.1999511719</ele>
        <time>2016-03-07T09:59:57.000Z</time>
      </trkpt>
      <trkpt lat="45.49514" lon="6.63279">
        <ele>2417</ele>
        <time>2016-03-07T10:00:00.000Z</time>
      </trkpt>
      <trkpt lat="45.49513" lon="6.6328">
        <ele>2418</ele>
        <time>2016-03-07T10:00:04.000Z</time>
      </trkpt>
      <trkpt lat="45.49509" lon="6.63285">
        <ele>2419.1999511719</ele>
        <time>2016-03-07T10:00:10.000Z</time>
      </trkpt>
      <trkpt lat="45.49506" lon="6.63289">
        <ele>2420.6000976562</ele>
        <time>2016-03-07T10:00:16.000Z</time>
      </trkpt>
      <trkpt lat="45.49504" lon="6.6329">
        <ele>2421.6000976562</ele>
        <time>2016-03-07T10:00:21.000Z</time>
      </trkpt>
      <trkpt lat="45.49502" lon="6.63293">
        <ele>2422</ele>
        <time>2016-03-07T10:00:24.000Z</time>
      </trkpt>
      <trkpt lat="45.495" lon="6.63295">
        <ele>2422.6000976562</ele>
        <time>2016-03-07T10:00:29.000Z</time>
      </trkpt>
      <trkpt lat="45.49498" lon="6.63297">
        <ele>2423.3999023438</ele>
        <time>2016-03-07T10:00:33.000Z</time>
      </trkpt>
      <trkpt lat="45.49497" lon="6.63298">
        <ele>2423.8000488281</ele>
        <time>2016-03-07T10:00:35.000Z</time>
      </trkpt>
      <trkpt lat="45.49495" lon="6.63299">
        <ele>2424.3999023438</ele>
        <time>2016-03-07T10:00:39.000Z</time>
      </trkpt>
      <trkpt lat="45.49495" lon="6.63299">
        <ele>2425</ele>
        <time>2016-03-07T10:00:40.000Z</time>
      </trkpt>
      <trkpt lat="45.49492" lon="6.63303">
        <ele>2426.1999511719</ele>
        <time>2016-03-07T10:00:45.000Z</time>
      </trkpt>
      <trkpt lat="45.49491" lon="6.63304">
        <ele>2426.6000976562</ele>
        <time>2016-03-07T10:00:47.000Z</time>
      </trkpt>
      <trkpt lat="45.4949" lon="6.63306">
        <ele>2427.1999511719</ele>
        <time>2016-03-07T10:00:51.000Z</time>
      </trkpt>
      <trkpt lat="45.49489" lon="6.63308">
        <ele>2428</ele>
        <time>2016-03-07T10:00:55.000Z</time>
      </trkpt>
      <trkpt lat="45.49485" lon="6.63312">
        <ele>2428.1999511719</ele>
        <time>2016-03-07T10:01:01.000Z</time>
      </trkpt>
      <trkpt lat="45.49485" lon="6.63313">
        <ele>2428.3999023438</ele>
        <time>2016-03-07T10:01:02.000Z</time>
      </trkpt>
      <trkpt lat="45.49484" lon="6.63316">
        <ele>2429.3999023438</ele>
        <time>2016-03-07T10:01:07.000Z</time>
      </trkpt>
      <trkpt lat="45.49484" lon="6.63316">
        <ele>2429.6000976562</ele>
        <time>2016-03-07T10:01:08.000Z</time>
      </trkpt>
      <trkpt lat="45.49483" lon="6.63317">
        <ele>2430.3999023438</ele>
        <time>2016-03-07T10:01:12.000Z</time>
      </trkpt>
      <trkpt lat="45.49482" lon="6.63318">
        <ele>2430.3999023438</ele>
        <time>2016-03-07T10:01:13.000Z</time>
      </trkpt>
      <trkpt lat="45.49481" lon="6.6332">
        <ele>2430.6000976562</ele>
        <time>2016-03-07T10:01:15.000Z</time>
      </trkpt>
      <trkpt lat="45.4948" lon="6.63325">
        <ele>2431.1999511719</ele>
        <time>2016-03-07T10:01:21.000Z</time>
      </trkpt>
      <trkpt lat="45.49478" lon="6.63328">
        <ele>2431.6000976562</ele>
        <time>2016-03-07T10:01:24.000Z</time>
      </trkpt>
      <trkpt lat="45.49477" lon="6.63329">
        <ele>2431.6000976562</ele>
        <time>2016-03-07T10:01:26.000Z</time>
      </trkpt>
      <trkpt lat="45.49475" lon="6.63332">
        <ele>2432.1999511719</ele>
        <time>2016-03-07T10:01:31.000Z</time>
      </trkpt>
      <trkpt lat="45.49474" lon="6.63335">
        <ele>2432.6000976562</ele>
        <time>2016-03-07T10:01:34.000Z</time>
      </trkpt>
      <trkpt lat="45.49474" lon="6.63338">
        <ele>2433</ele>
        <time>2016-03-07T10:01:37.000Z</time>
      </trkpt>
      <trkpt lat="45.49472" lon="6.63343">
        <ele>2433.3999023438</ele>
        <time>2016-03-07T10:01:44.000Z</time>
      </trkpt>
      <trkpt lat="45.49472" lon="6.63343">
        <ele>2433.6000976562</ele>
        <time>2016-03-07T10:01:45.000Z</time>
      </trkpt>
      <trkpt lat="45.49471" lon="6.63346">
        <ele>2434.1999511719</ele>
        <time>2016-03-07T10:01:49.000Z</time>
      </trkpt>
      <trkpt lat="45.49471" lon="6.63347">
        <ele>2434.3999023438</ele>
        <time>2016-03-07T10:01:58.000Z</time>
      </trkpt>
      <trkpt lat="45.49471" lon="6.63346">
        <ele>2434.3999023438</ele>
        <time>2016-03-07T10:02:04.000Z</time>
      </trkpt>
      <trkpt lat="45.49469" lon="6.63346">
        <ele>2434.3999023438</ele>
        <time>2016-03-07T10:02:07.000Z</time>
      </trkpt>
      <trkpt lat="45.49465" lon="6.63345">
        <ele>2434.1999511719</ele>
        <time>2016-03-07T10:02:09.000Z</time>
      </trkpt>
      <trkpt lat="45.49457" lon="6.63343">
        <ele>2433.1999511719</ele>
        <time>2016-03-07T10:02:14.000Z</time>
      </trkpt>
      <trkpt lat="45.49455" lon="6.63342">
        <ele>2432.6000976562</ele>
        <time>2016-03-07T10:02:16.000Z</time>
      </trkpt>
      <trkpt lat="45.49453" lon="6.63342">
        <ele>2432</ele>
        <time>2016-03-07T10:02:17.000Z</time>
      </trkpt>
      <trkpt lat="45.49451" lon="6.63342">
        <ele>2431.3999023438</ele>
        <time>2016-03-07T10:02:19.000Z</time>
      </trkpt>
      <trkpt lat="45.49445" lon="6.63347">
        <ele>2430.6000976562</ele>
        <time>2016-03-07T10:02:26.000Z</time>
      </trkpt>
      <trkpt lat="45.49445" lon="6.63349">
        <ele>2430.3999023438</ele>
        <time>2016-03-07T10:02:28.000Z</time>
      </trkpt>
      <trkpt lat="45.49445" lon="6.63354">
        <ele>2430</ele>
        <time>2016-03-07T10:02:31.000Z</time>
      </trkpt>
      <trkpt lat="45.49447" lon="6.63362">
        <ele>2431</ele>
        <time>2016-03-07T10:02:38.000Z</time>
      </trkpt>
      <trkpt lat="45.49449" lon="6.63364">
        <ele>2431.6000976562</ele>
        <time>2016-03-07T10:02:41.000Z</time>
      </trkpt>
      <trkpt lat="45.49451" lon="6.63369">
        <ele>2432.3999023438</ele>
        <time>2016-03-07T10:02:47.000Z</time>
      </trkpt>
      <trkpt lat="45.49451" lon="6.6337">
        <ele>2432.6000976562</ele>
        <time>2016-03-07T10:02:49.000Z</time>
      </trkpt>
      <trkpt lat="45.49454" lon="6.63376">
        <ele>2433.6000976562</ele>
        <time>2016-03-07T10:02:55.000Z</time>
      </trkpt>
      <trkpt lat="45.49454" lon="6.63378">
        <ele>2434.8000488281</ele>
        <time>2016-03-07T10:03:01.000Z</time>
      </trkpt>
      <trkpt lat="45.49454" lon="6.63379">
        <ele>2435.8000488281</ele>
        <time>2016-03-07T10:03:07.000Z</time>
      </trkpt>
      <trkpt lat="45.49453" lon="6.63379">
        <ele>2435.8000488281</ele>
        <time>2016-03-07T10:03:11.000Z</time>
      </trkpt>
      <trkpt lat="45.49452" lon="6.63378">
        <ele>2435.8000488281</ele>
        <time>2016-03-07T10:03:14.000Z</time>
      </trkpt>
      <trkpt lat="45.49447" lon="6.63377">
        <ele>2436.8000488281</ele>
        <time>2016-03-07T10:03:21.000Z</time>
      </trkpt>
      <trkpt lat="45.49446" lon="6.63378">
        <ele>2437</ele>
        <time>2016-03-07T10:03:22.000Z</time>
      </trkpt>
      <trkpt lat="45.49444" lon="6.63377">
        <ele>2438</ele>
        <time>2016-03-07T10:03:28.000Z</time>
      </trkpt>
      <trkpt lat="45.49439" lon="6.63378">
        <ele>2439.1999511719</ele>
        <time>2016-03-07T10:03:33.000Z</time>
      </trkpt>
      <trkpt lat="45.49436" lon="6.63379">
        <ele>2439.8000488281</ele>
        <time>2016-03-07T10:03:38.000Z</time>
      </trkpt>
      <trkpt lat="45.49435" lon="6.6338">
        <ele>2439.8000488281</ele>
        <time>2016-03-07T10:03:39.000Z</time>
      </trkpt>
      <trkpt lat="45.49434" lon="6.6338">
        <ele>2440.1999511719</ele>
        <time>2016-03-07T10:03:42.000Z</time>
      </trkpt>
      <trkpt lat="45.49433" lon="6.63381">
        <ele>2441.3999023438</ele>
        <time>2016-03-07T10:03:46.000Z</time>
      </trkpt>
      <trkpt lat="45.49433" lon="6.63381">
        <ele>2442.1999511719</ele>
        <time>2016-03-07T10:03:58.000Z</time>
      </trkpt>
      <trkpt lat="45.49426" lon="6.63384">
        <ele>2442.3999023438</ele>
        <time>2016-03-07T10:04:07.000Z</time>
      </trkpt>
      <trkpt lat="45.49424" lon="6.63387">
        <ele>2443.6000976562</ele>
        <time>2016-03-07T10:04:11.000Z</time>
      </trkpt>
      <trkpt lat="45.49421" lon="6.63389">
        <ele>2443.8000488281</ele>
        <time>2016-03-07T10:04:14.000Z</time>
      </trkpt>
      <trkpt lat="45.49419" lon="6.63391">
        <ele>2444.6000976562</ele>
        <time>2016-03-07T10:04:19.000Z</time>
      </trkpt>
      <trkpt lat="45.49417" lon="6.63391">
        <ele>2445.1999511719</ele>
        <time>2016-03-07T10:04:21.000Z</time>
      </trkpt>
      <trkpt lat="45.49414" lon="6.63391">
        <ele>2445.6000976562</ele>
        <time>2016-03-07T10:04:26.000Z</time>
      </trkpt>
      <trkpt lat="45.49414" lon="6.63392">
        <ele>2445.8000488281</ele>
        <time>2016-03-07T10:04:27.000Z</time>
      </trkpt>
      <trkpt lat="45.49413" lon="6.63392">
        <ele>2446.6000976562</ele>
        <time>2016-03-07T10:04:30.000Z</time>
      </trkpt>
      <trkpt lat="45.49411" lon="6.63392">
        <ele>2447.1999511719</ele>
        <time>2016-03-07T10:04:33.000Z</time>
      </trkpt>
      <trkpt lat="45.49409" lon="6.63392">
        <ele>2447.8000488281</ele>
        <time>2016-03-07T10:04:38.000Z</time>
      </trkpt>
      <trkpt lat="45.49409" lon="6.63392">
        <ele>2448</ele>
        <time>2016-03-07T10:04:40.000Z</time>
      </trkpt>
      <trkpt lat="45.49407" lon="6.63392">
        <ele>2449</ele>
        <time>2016-03-07T10:04:45.000Z</time>
      </trkpt>
      <trkpt lat="45.49407" lon="6.63392">
        <ele>2449.1999511719</ele>
        <time>2016-03-07T10:04:46.000Z</time>
      </trkpt>
      <trkpt lat="45.49404" lon="6.63393">
        <ele>2450</ele>
        <time>2016-03-07T10:04:52.000Z</time>
      </trkpt>
      <trkpt lat="45.49403" lon="6.63393">
        <ele>2450.1999511719</ele>
        <time>2016-03-07T10:04:53.000Z</time>
      </trkpt>
      <trkpt lat="45.49403" lon="6.63393">
        <ele>2451.1999511719</ele>
        <time>2016-03-07T10:04:58.000Z</time>
      </trkpt>
      <trkpt lat="45.49403" lon="6.63393">
        <ele>2451.3999023438</ele>
        <time>2016-03-07T10:05:00.000Z</time>
      </trkpt>
      <trkpt lat="45.49401" lon="6.63394">
        <ele>2451.8000488281</ele>
        <time>2016-03-07T10:05:03.000Z</time>
      </trkpt>
      <trkpt lat="45.49401" lon="6.63394">
        <ele>2452.3999023438</ele>
        <time>2016-03-07T10:05:09.000Z</time>
      </trkpt>
      <trkpt lat="45.49398" lon="6.63394">
        <ele>2452.6000976562</ele>
        <time>2016-03-07T10:05:17.000Z</time>
      </trkpt>
      <trkpt lat="45.49396" lon="6.634">
        <ele>2453.3999023438</ele>
        <time>2016-03-07T10:05:23.000Z</time>
      </trkpt>
      <trkpt lat="45.49396" lon="6.63401">
        <ele>2453.6000976562</ele>
        <time>2016-03-07T10:05:24.000Z</time>
      </trkpt>
      <trkpt lat="45.49395" lon="6.63405">
        <ele>2454</ele>
        <time>2016-03-07T10:05:27.000Z</time>
      </trkpt>
      <trkpt lat="45.49394" lon="6.63412">
        <ele>2454.6000976562</ele>
        <time>2016-03-07T10:05:33.000Z</time>
      </trkpt>
      <trkpt lat="45.49393" lon="6.63417">
        <ele>2455.3999023438</ele>
        <time>2016-03-07T10:05:39.000Z</time>
      </trkpt>
      <trkpt lat="45.4939" lon="6.63422">
        <ele>2455.6000976562</ele>
        <time>2016-03-07T10:05:44.000Z</time>
      </trkpt>
      <trkpt lat="45.4939" lon="6.63423">
        <ele>2455.8000488281</ele>
        <time>2016-03-07T10:05:45.000Z</time>
      </trkpt>
      <trkpt lat="45.49388" lon="6.63428">
        <ele>2456</ele>
        <time>2016-03-07T10:05:51.000Z</time>
      </trkpt>
      <trkpt lat="45.49387" lon="6.63429">
        <ele>2456</ele>
        <time>2016-03-07T10:05:52.000Z</time>
      </trkpt>
      <trkpt lat="45.49385" lon="6.63431">
        <ele>2456.3999023438</ele>
        <time>2016-03-07T10:05:58.000Z</time>
      </trkpt>
      <trkpt lat="45.49383" lon="6.63435">
        <ele>2456.1999511719</ele>
        <time>2016-03-07T10:06:05.000Z</time>
      </trkpt>
      <trkpt lat="45.49379" lon="6.6344">
        <ele>2456</ele>
        <time>2016-03-07T10:06:11.000Z</time>
      </trkpt>
      <trkpt lat="45.49378" lon="6.63443">
        <ele>2456.1999511719</ele>
        <time>2016-03-07T10:06:13.000Z</time>
      </trkpt>
      <trkpt lat="45.49375" lon="6.63447">
        <ele>2455.8000488281</ele>
        <time>2016-03-07T10:06:17.000Z</time>
      </trkpt>
      <trkpt lat="45.49371" lon="6.63454">
        <ele>2455.6000976562</ele>
        <time>2016-03-07T10:06:22.000Z</time>
      </trkpt>
      <trkpt lat="45.49367" lon="6.63459">
        <ele>2455.6000976562</ele>
        <time>2016-03-07T10:06:28.000Z</time>
      </trkpt>
      <trkpt lat="45.49366" lon="6.63461">
        <ele>2455.6000976562</ele>
        <time>2016-03-07T10:06:29.000Z</time>
      </trkpt>
      <trkpt lat="45.49362" lon="6.63463">
        <ele>2455.6000976562</ele>
        <time>2016-03-07T10:06:33.000Z</time>
      </trkpt>
      <trkpt lat="45.49362" lon="6.63464">
        <ele>2455.6000976562</ele>
        <time>2016-03-07T10:06:40.000Z</time>
      </trkpt>
      <trkpt lat="45.49358" lon="6.63467">
        <ele>2455.6000976562</ele>
        <time>2016-03-07T10:06:48.000Z</time>
      </trkpt>
      <trkpt lat="45.49354" lon="6.63471">
        <ele>2455.6000976562</ele>
        <time>2016-03-07T10:06:53.000Z</time>
      </trkpt>
      <trkpt lat="45.49348" lon="6.63475">
        <ele>2456</ele>
        <time>2016-03-07T10:06:59.000Z</time>
      </trkpt>
      <trkpt lat="45.49344" lon="6.6348">
        <ele>2456.1999511719</ele>
        <time>2016-03-07T10:07:05.000Z</time>
      </trkpt>
      <trkpt lat="45.49341" lon="6.63484">
        <ele>2456.1999511719</ele>
        <time>2016-03-07T10:07:09.000Z</time>
      </trkpt>
      <trkpt lat="45.4934" lon="6.63486">
        <ele>2456.1999511719</ele>
        <time>2016-03-07T10:07:11.000Z</time>
      </trkpt>
      <trkpt lat="45.49338" lon="6.63491">
        <ele>2456.3999023438</ele>
        <time>2016-03-07T10:07:16.000Z</time>
      </trkpt>
      <trkpt lat="45.49336" lon="6.63497">
        <ele>2456.8000488281</ele>
        <time>2016-03-07T10:07:21.000Z</time>
      </trkpt>
      <trkpt lat="45.49336" lon="6.63498">
        <ele>2457</ele>
        <time>2016-03-07T10:07:22.000Z</time>
      </trkpt>
      <trkpt lat="45.49333" lon="6.63504">
        <ele>2457.1999511719</ele>
        <time>2016-03-07T10:07:28.000Z</time>
      </trkpt>
      <trkpt lat="45.49331" lon="6.63509">
        <ele>2457.3999023438</ele>
        <time>2016-03-07T10:07:32.000Z</time>
      </trkpt>
      <trkpt lat="45.49331" lon="6.63509">
        <ele>2457.3999023438</ele>
        <time>2016-03-07T10:07:33.000Z</time>
      </trkpt>
      <trkpt lat="45.49329" lon="6.63515">
        <ele>2457.3999023438</ele>
        <time>2016-03-07T10:07:38.000Z</time>
      </trkpt>
      <trkpt lat="45.49328" lon="6.63519">
        <ele>2457.8000488281</ele>
        <time>2016-03-07T10:07:41.000Z</time>
      </trkpt>
      <trkpt lat="45.49327" lon="6.63521">
        <ele>2458</ele>
        <time>2016-03-07T10:07:43.000Z</time>
      </trkpt>
      <trkpt lat="45.49327" lon="6.63526">
        <ele>2458.3999023438</ele>
        <time>2016-03-07T10:07:49.000Z</time>
      </trkpt>
      <trkpt lat="45.49326" lon="6.63532">
        <ele>2459</ele>
        <time>2016-03-07T10:07:53.000Z</time>
      </trkpt>
      <trkpt lat="45.49326" lon="6.63532">
        <ele>2459</ele>
        <time>2016-03-07T10:07:54.000Z</time>
      </trkpt>
      <trkpt lat="45.49324" lon="6.63538">
        <ele>2459.1999511719</ele>
        <time>2016-03-07T10:07:59.000Z</time>
      </trkpt>
      <trkpt lat="45.49322" lon="6.63544">
        <ele>2459.8000488281</ele>
        <time>2016-03-07T10:08:05.000Z</time>
      </trkpt>
      <trkpt lat="45.49321" lon="6.63549">
        <ele>2459.8000488281</ele>
        <time>2016-03-07T10:08:10.000Z</time>
      </trkpt>
      <trkpt lat="45.49321" lon="6.63556">
        <ele>2460</ele>
        <time>2016-03-07T10:08:15.000Z</time>
      </trkpt>
      <trkpt lat="45.49321" lon="6.6356">
        <ele>2460.8000488281</ele>
        <time>2016-03-07T10:08:20.000Z</time>
      </trkpt>
      <trkpt lat="45.49321" lon="6.6356">
        <ele>2460.3999023438</ele>
        <time>2016-03-07T10:08:29.000Z</time>
      </trkpt>
      <trkpt lat="45.4932" lon="6.6356">
        <ele>2460.8000488281</ele>
        <time>2016-03-07T10:08:36.000Z</time>
      </trkpt>
      <trkpt lat="45.49319" lon="6.63564">
        <ele>2460.1999511719</ele>
        <time>2016-03-07T10:08:44.000Z</time>
      </trkpt>
      <trkpt lat="45.49317" lon="6.63569">
        <ele>2460.1999511719</ele>
        <time>2016-03-07T10:08:49.000Z</time>
      </trkpt>
      <trkpt lat="45.49318" lon="6.63575">
        <ele>2461</ele>
        <time>2016-03-07T10:08:56.000Z</time>
      </trkpt>
      <trkpt lat="45.49321" lon="6.63578">
        <ele>2461.8000488281</ele>
        <time>2016-03-07T10:09:01.000Z</time>
      </trkpt>
      <trkpt lat="45.49323" lon="6.63579">
        <ele>2462.3999023438</ele>
        <time>2016-03-07T10:09:03.000Z</time>
      </trkpt>
      <trkpt lat="45.49325" lon="6.63581">
        <ele>2463.1999511719</ele>
        <time>2016-03-07T10:09:06.000Z</time>
      </trkpt>
      <trkpt lat="45.49326" lon="6.63582">
        <ele>2463.8000488281</ele>
        <time>2016-03-07T10:09:08.000Z</time>
      </trkpt>
      <trkpt lat="45.49327" lon="6.63584">
        <ele>2464.3999023438</ele>
        <time>2016-03-07T10:09:12.000Z</time>
      </trkpt>
      <trkpt lat="45.49328" lon="6.63585">
        <ele>2464.8000488281</ele>
        <time>2016-03-07T10:09:14.000Z</time>
      </trkpt>
      <trkpt lat="45.4933" lon="6.63585">
        <ele>2465.6000976562</ele>
        <time>2016-03-07T10:09:18.000Z</time>
      </trkpt>
      <trkpt lat="45.49331" lon="6.63586">
        <ele>2465.8000488281</ele>
        <time>2016-03-07T10:09:20.000Z</time>
      </trkpt>
      <trkpt lat="45.49332" lon="6.63587">
        <ele>2466.1999511719</ele>
        <time>2016-03-07T10:09:23.000Z</time>
      </trkpt>
      <trkpt lat="45.49334" lon="6.63588">
        <ele>2466.6000976562</ele>
        <time>2016-03-07T10:09:28.000Z</time>
      </trkpt>
      <trkpt lat="45.49336" lon="6.6359">
        <ele>2467.1999511719</ele>
        <time>2016-03-07T10:09:32.000Z</time>
      </trkpt>
      <trkpt lat="45.49338" lon="6.63592">
        <ele>2468.3999023438</ele>
        <time>2016-03-07T10:09:37.000Z</time>
      </trkpt>
      <trkpt lat="45.49338" lon="6.63592">
        <ele>2468.3999023438</ele>
        <time>2016-03-07T10:09:38.000Z</time>
      </trkpt>
      <trkpt lat="45.49337" lon="6.63592">
        <ele>2469.1999511719</ele>
        <time>2016-03-07T10:09:46.000Z</time>
      </trkpt>
      <trkpt lat="45.49337" lon="6.63592">
        <ele>2469.3999023438</ele>
        <time>2016-03-07T10:09:47.000Z</time>
      </trkpt>
      <trkpt lat="45.49336" lon="6.63594">
        <ele>2469.1999511719</ele>
        <time>2016-03-07T10:09:53.000Z</time>
      </trkpt>
      <trkpt lat="45.49334" lon="6.63596">
        <ele>2470.3999023438</ele>
        <time>2016-03-07T10:10:00.000Z</time>
      </trkpt>
      <trkpt lat="45.49332" lon="6.63598">
        <ele>2471.3999023438</ele>
        <time>2016-03-07T10:10:06.000Z</time>
      </trkpt>
      <trkpt lat="45.49331" lon="6.63599">
        <ele>2471.8000488281</ele>
        <time>2016-03-07T10:10:08.000Z</time>
      </trkpt>
      <trkpt lat="45.4933" lon="6.636">
        <ele>2472.3999023438</ele>
        <time>2016-03-07T10:10:13.000Z</time>
      </trkpt>
      <trkpt lat="45.49329" lon="6.63601">
        <ele>2472.8000488281</ele>
        <time>2016-03-07T10:10:15.000Z</time>
      </trkpt>
      <trkpt lat="45.49328" lon="6.63602">
        <ele>2473.6000976562</ele>
        <time>2016-03-07T10:10:18.000Z</time>
      </trkpt>
      <trkpt lat="45.49328" lon="6.63602">
        <ele>2473.8000488281</ele>
        <time>2016-03-07T10:10:20.000Z</time>
      </trkpt>
      <trkpt lat="45.49326" lon="6.63603">
        <ele>2474.6000976562</ele>
        <time>2016-03-07T10:10:25.000Z</time>
      </trkpt>
      <trkpt lat="45.49326" lon="6.63604">
        <ele>2474.8000488281</ele>
        <time>2016-03-07T10:10:26.000Z</time>
      </trkpt>
      <trkpt lat="45.49323" lon="6.63607">
        <ele>2475.1999511719</ele>
        <time>2016-03-07T10:10:32.000Z</time>
      </trkpt>
      <trkpt lat="45.49321" lon="6.63609">
        <ele>2475.6000976562</ele>
        <time>2016-03-07T10:10:35.000Z</time>
      </trkpt>
      <trkpt lat="45.49321" lon="6.63609">
        <ele>2476.1999511719</ele>
        <time>2016-03-07T10:10:38.000Z</time>
      </trkpt>
      <trkpt lat="45.49321" lon="6.63609">
        <ele>2476.6000976562</ele>
        <time>2016-03-07T10:10:40.000Z</time>
      </trkpt>
      <trkpt lat="45.49321" lon="6.63609">
        <ele>2477</ele>
        <time>2016-03-07T10:10:47.000Z</time>
      </trkpt>
      <trkpt lat="45.49321" lon="6.63609">
        <ele>2477.3999023438</ele>
        <time>2016-03-07T10:11:05.000Z</time>
      </trkpt>
      <trkpt lat="45.49321" lon="6.63609">
        <ele>2477.3999023438</ele>
        <time>2016-03-07T10:11:18.000Z</time>
      </trkpt>
      <trkpt lat="45.49322" lon="6.6361">
        <ele>2477.8000488281</ele>
        <time>2016-03-07T10:11:25.000Z</time>
      </trkpt>
      <trkpt lat="45.49323" lon="6.63613">
        <ele>2478.1999511719</ele>
        <time>2016-03-07T10:11:29.000Z</time>
      </trkpt>
      <trkpt lat="45.49325" lon="6.63616">
        <ele>2478.6000976562</ele>
        <time>2016-03-07T10:11:34.000Z</time>
      </trkpt>
      <trkpt lat="45.49326" lon="6.63617">
        <ele>2479</ele>
        <time>2016-03-07T10:11:36.000Z</time>
      </trkpt>
      <trkpt lat="45.49327" lon="6.63621">
        <ele>2479.6000976562</ele>
        <time>2016-03-07T10:11:39.000Z</time>
      </trkpt>
      <trkpt lat="45.49328" lon="6.63621">
        <ele>2480</ele>
        <time>2016-03-07T10:11:40.000Z</time>
      </trkpt>
      <trkpt lat="45.49329" lon="6.63622">
        <ele>2480.8000488281</ele>
        <time>2016-03-07T10:11:44.000Z</time>
      </trkpt>
      <trkpt lat="45.49329" lon="6.63622">
        <ele>2481</ele>
        <time>2016-03-07T10:11:49.000Z</time>
      </trkpt>
      <trkpt lat="45.49329" lon="6.63622">
        <ele>2481.1999511719</ele>
        <time>2016-03-07T10:11:51.000Z</time>
      </trkpt>
      <trkpt lat="45.49327" lon="6.63622">
        <ele>2481.8000488281</ele>
        <time>2016-03-07T10:11:57.000Z</time>
      </trkpt>
      <trkpt lat="45.49327" lon="6.63622">
        <ele>2482</ele>
        <time>2016-03-07T10:11:58.000Z</time>
      </trkpt>
      <trkpt lat="45.49327" lon="6.63623">
        <ele>2483</ele>
        <time>2016-03-07T10:12:05.000Z</time>
      </trkpt>
      <trkpt lat="45.49327" lon="6.63623">
        <ele>2483</ele>
        <time>2016-03-07T10:12:07.000Z</time>
      </trkpt>
      <trkpt lat="45.49328" lon="6.63624">
        <ele>2483.6000976562</ele>
        <time>2016-03-07T10:12:14.000Z</time>
      </trkpt>
      <trkpt lat="45.4933" lon="6.63627">
        <ele>2484.1999511719</ele>
        <time>2016-03-07T10:12:19.000Z</time>
      </trkpt>
      <trkpt lat="45.49333" lon="6.63629">
        <ele>2484.8000488281</ele>
        <time>2016-03-07T10:12:26.000Z</time>
      </trkpt>
      <trkpt lat="45.49335" lon="6.63631">
        <ele>2485.3999023438</ele>
        <time>2016-03-07T10:12:31.000Z</time>
      </trkpt>
      <trkpt lat="45.49336" lon="6.63631">
        <ele>2485.8000488281</ele>
        <time>2016-03-07T10:12:34.000Z</time>
      </trkpt>
      <trkpt lat="45.49338" lon="6.63633">
        <ele>2486.3999023438</ele>
        <time>2016-03-07T10:12:40.000Z</time>
      </trkpt>
      <trkpt lat="45.49339" lon="6.63633">
        <ele>2486.6000976562</ele>
        <time>2016-03-07T10:12:41.000Z</time>
      </trkpt>
      <trkpt lat="45.4934" lon="6.63635">
        <ele>2487.3999023438</ele>
        <time>2016-03-07T10:12:45.000Z</time>
      </trkpt>
      <trkpt lat="45.49341" lon="6.63635">
        <ele>2487.6000976562</ele>
        <time>2016-03-07T10:12:47.000Z</time>
      </trkpt>
      <trkpt lat="45.49342" lon="6.63636">
        <ele>2488.1999511719</ele>
        <time>2016-03-07T10:12:51.000Z</time>
      </trkpt>
      <trkpt lat="45.49343" lon="6.63638">
        <ele>2488.6000976562</ele>
        <time>2016-03-07T10:12:53.000Z</time>
      </trkpt>
      <trkpt lat="45.49346" lon="6.6364">
        <ele>2489.3999023438</ele>
        <time>2016-03-07T10:12:58.000Z</time>
      </trkpt>
      <trkpt lat="45.49346" lon="6.63641">
        <ele>2489.6000976562</ele>
        <time>2016-03-07T10:13:05.000Z</time>
      </trkpt>
      <trkpt lat="45.49346" lon="6.63641">
        <ele>2490</ele>
        <time>2016-03-07T10:13:07.000Z</time>
      </trkpt>
      <trkpt lat="45.49348" lon="6.63641">
        <ele>2490.1999511719</ele>
        <time>2016-03-07T10:13:18.000Z</time>
      </trkpt>
      <trkpt lat="45.49351" lon="6.63642">
        <ele>2490.8000488281</ele>
        <time>2016-03-07T10:13:24.000Z</time>
      </trkpt>
      <trkpt lat="45.49353" lon="6.63643">
        <ele>2491.6000976562</ele>
        <time>2016-03-07T10:13:29.000Z</time>
      </trkpt>
      <trkpt lat="45.49353" lon="6.63643">
        <ele>2491.8000488281</ele>
        <time>2016-03-07T10:13:30.000Z</time>
      </trkpt>
      <trkpt lat="45.49356" lon="6.63643">
        <ele>2492.6000976562</ele>
        <time>2016-03-07T10:13:35.000Z</time>
      </trkpt>
      <trkpt lat="45.49358" lon="6.63643">
        <ele>2493</ele>
        <time>2016-03-07T10:13:37.000Z</time>
      </trkpt>
      <trkpt lat="45.49359" lon="6.63643">
        <ele>2493.3999023438</ele>
        <time>2016-03-07T10:13:41.000Z</time>
      </trkpt>
      <trkpt lat="45.49361" lon="6.63644">
        <ele>2494</ele>
        <time>2016-03-07T10:13:44.000Z</time>
      </trkpt>
      <trkpt lat="45.49363" lon="6.63644">
        <ele>2494.3999023438</ele>
        <time>2016-03-07T10:13:47.000Z</time>
      </trkpt>
      <trkpt lat="45.49366" lon="6.63645">
        <ele>2495.1999511719</ele>
        <time>2016-03-07T10:13:52.000Z</time>
      </trkpt>
      <trkpt lat="45.49368" lon="6.63645">
        <ele>2495.1999511719</ele>
        <time>2016-03-07T10:13:54.000Z</time>
      </trkpt>
      <trkpt lat="45.4937" lon="6.63646">
        <ele>2496.1999511719</ele>
        <time>2016-03-07T10:13:58.000Z</time>
      </trkpt>
      <trkpt lat="45.49371" lon="6.63646">
        <ele>2496.6000976562</ele>
        <time>2016-03-07T10:14:00.000Z</time>
      </trkpt>
      <trkpt lat="45.49378" lon="6.63649">
        <ele>2497</ele>
        <time>2016-03-07T10:14:08.000Z</time>
      </trkpt>
      <trkpt lat="45.49379" lon="6.63649">
        <ele>2497.3999023438</ele>
        <time>2016-03-07T10:14:10.000Z</time>
      </trkpt>
      <trkpt lat="45.49381" lon="6.63649">
        <ele>2497.8000488281</ele>
        <time>2016-03-07T10:14:13.000Z</time>
      </trkpt>
      <trkpt lat="45.49383" lon="6.63649">
        <ele>2498.3999023438</ele>
        <time>2016-03-07T10:14:17.000Z</time>
      </trkpt>
      <trkpt lat="45.49384" lon="6.63649">
        <ele>2498.8000488281</ele>
        <time>2016-03-07T10:14:19.000Z</time>
      </trkpt>
      <trkpt lat="45.49384" lon="6.6365">
        <ele>2499.1999511719</ele>
        <time>2016-03-07T10:14:26.000Z</time>
      </trkpt>
      <trkpt lat="45.49384" lon="6.6365">
        <ele>2499.6000976562</ele>
        <time>2016-03-07T10:14:29.000Z</time>
      </trkpt>
      <trkpt lat="45.49387" lon="6.63651">
        <ele>2500.1999511719</ele>
        <time>2016-03-07T10:14:33.000Z</time>
      </trkpt>
      <trkpt lat="45.49388" lon="6.63651">
        <ele>2500.6000976562</ele>
        <time>2016-03-07T10:14:38.000Z</time>
      </trkpt>
      <trkpt lat="45.49388" lon="6.63651">
        <ele>2500.8000488281</ele>
        <time>2016-03-07T10:14:40.000Z</time>
      </trkpt>
      <trkpt lat="45.49391" lon="6.63654">
        <ele>2501.6000976562</ele>
        <time>2016-03-07T10:14:46.000Z</time>
      </trkpt>
      <trkpt lat="45.49395" lon="6.63655">
        <ele>2502.1999511719</ele>
        <time>2016-03-07T10:14:53.000Z</time>
      </trkpt>
      <trkpt lat="45.49395" lon="6.63655">
        <ele>2502.6000976562</ele>
        <time>2016-03-07T10:14:55.000Z</time>
      </trkpt>
      <trkpt lat="45.49395" lon="6.63655">
        <ele>2503.3999023438</ele>
        <time>2016-03-07T10:15:05.000Z</time>
      </trkpt>
      <trkpt lat="45.49395" lon="6.63656">
        <ele>2503.6000976562</ele>
        <time>2016-03-07T10:15:07.000Z</time>
      </trkpt>
      <trkpt lat="45.49395" lon="6.63659">
        <ele>2503.8000488281</ele>
        <time>2016-03-07T10:15:11.000Z</time>
      </trkpt>
      <trkpt lat="45.49394" lon="6.63662">
        <ele>2504.8000488281</ele>
        <time>2016-03-07T10:15:14.000Z</time>
      </trkpt>
      <trkpt lat="45.49393" lon="6.63666">
        <ele>2505.1999511719</ele>
        <time>2016-03-07T10:15:18.000Z</time>
      </trkpt>
      <trkpt lat="45.49392" lon="6.6367">
        <ele>2505.8000488281</ele>
        <time>2016-03-07T10:15:21.000Z</time>
      </trkpt>
      <trkpt lat="45.4939" lon="6.63673">
        <ele>2507</ele>
        <time>2016-03-07T10:15:26.000Z</time>
      </trkpt>
      <trkpt lat="45.4939" lon="6.63673">
        <ele>2508</ele>
        <time>2016-03-07T10:15:33.000Z</time>
      </trkpt>
      <trkpt lat="45.4939" lon="6.63673">
        <ele>2508.1999511719</ele>
        <time>2016-03-07T10:15:35.000Z</time>
      </trkpt>
      <trkpt lat="45.49396" lon="6.63676">
        <ele>2508.8000488281</ele>
        <time>2016-03-07T10:15:42.000Z</time>
      </trkpt>
      <trkpt lat="45.49397" lon="6.63677">
        <ele>2509</ele>
        <time>2016-03-07T10:15:44.000Z</time>
      </trkpt>
      <trkpt lat="45.49399" lon="6.63678">
        <ele>2509.1999511719</ele>
        <time>2016-03-07T10:15:47.000Z</time>
      </trkpt>
      <trkpt lat="45.49402" lon="6.63679">
        <ele>2509.8000488281</ele>
        <time>2016-03-07T10:15:54.000Z</time>
      </trkpt>
      <trkpt lat="45.49403" lon="6.6368">
        <ele>2510</ele>
        <time>2016-03-07T10:15:55.000Z</time>
      </trkpt>
      <trkpt lat="45.49406" lon="6.63681">
        <ele>2510.8000488281</ele>
        <time>2016-03-07T10:16:00.000Z</time>
      </trkpt>
      <trkpt lat="45.49406" lon="6.63681">
        <ele>2511.1999511719</ele>
        <time>2016-03-07T10:16:01.000Z</time>
      </trkpt>
      <trkpt lat="45.4941" lon="6.63682">
        <ele>2511.8000488281</ele>
        <time>2016-03-07T10:16:06.000Z</time>
      </trkpt>
      <trkpt lat="45.49411" lon="6.63682">
        <ele>2512.1999511719</ele>
        <time>2016-03-07T10:16:09.000Z</time>
      </trkpt>
      <trkpt lat="45.49412" lon="6.63682">
        <ele>2513</ele>
        <time>2016-03-07T10:16:14.000Z</time>
      </trkpt>
      <trkpt lat="45.49412" lon="6.63682">
        <ele>2513.3999023438</ele>
        <time>2016-03-07T10:16:16.000Z</time>
      </trkpt>
      <trkpt lat="45.49413" lon="6.63682">
        <ele>2513.6000976562</ele>
        <time>2016-03-07T10:16:21.000Z</time>
      </trkpt>
      <trkpt lat="45.49415" lon="6.63683">
        <ele>2514.3999023438</ele>
        <time>2016-03-07T10:16:24.000Z</time>
      </trkpt>
      <trkpt lat="45.49415" lon="6.63683">
        <ele>2515.1999511719</ele>
        <time>2016-03-07T10:16:28.000Z</time>
      </trkpt>
      <trkpt lat="45.49415" lon="6.63683">
        <ele>2515.3999023438</ele>
        <time>2016-03-07T10:16:31.000Z</time>
      </trkpt>
      <trkpt lat="45.49421" lon="6.63684">
        <ele>2516.3999023438</ele>
        <time>2016-03-07T10:16:38.000Z</time>
      </trkpt>
      <trkpt lat="45.49422" lon="6.63684">
        <ele>2516.6000976562</ele>
        <time>2016-03-07T10:16:39.000Z</time>
      </trkpt>
      <trkpt lat="45.49428" lon="6.63685">
        <ele>2517.3999023438</ele>
        <time>2016-03-07T10:16:46.000Z</time>
      </trkpt>
      <trkpt lat="45.49429" lon="6.63686">
        <ele>2517.6000976562</ele>
        <time>2016-03-07T10:16:47.000Z</time>
      </trkpt>
      <trkpt lat="45.4943" lon="6.63686">
        <ele>2517.3999023438</ele>
        <time>2016-03-07T10:16:52.000Z</time>
      </trkpt>
      <trkpt lat="45.49433" lon="6.63687">
        <ele>2518.6000976562</ele>
        <time>2016-03-07T10:16:57.000Z</time>
      </trkpt>
      <trkpt lat="45.49433" lon="6.63687">
        <ele>2518.8000488281</ele>
        <time>2016-03-07T10:16:58.000Z</time>
      </trkpt>
      <trkpt lat="45.49436" lon="6.63688">
        <ele>2520</ele>
        <time>2016-03-07T10:17:07.000Z</time>
      </trkpt>
      <trkpt lat="45.49437" lon="6.63688">
        <ele>2520.1999511719</ele>
        <time>2016-03-07T10:17:08.000Z</time>
      </trkpt>
      <trkpt lat="45.49438" lon="6.63689">
        <ele>2521.1999511719</ele>
        <time>2016-03-07T10:17:16.000Z</time>
      </trkpt>
      <trkpt lat="45.49438" lon="6.63689">
        <ele>2521.3999023438</ele>
        <time>2016-03-07T10:17:28.000Z</time>
      </trkpt>
      <trkpt lat="45.49436" lon="6.63695">
        <ele>2522.1999511719</ele>
        <time>2016-03-07T10:17:34.000Z</time>
      </trkpt>
      <trkpt lat="45.49436" lon="6.63696">
        <ele>2522.3999023438</ele>
        <time>2016-03-07T10:17:35.000Z</time>
      </trkpt>
      <trkpt lat="45.49436" lon="6.63698">
        <ele>2523.3999023438</ele>
        <time>2016-03-07T10:17:39.000Z</time>
      </trkpt>
      <trkpt lat="45.49435" lon="6.63699">
        <ele>2523.6000976562</ele>
        <time>2016-03-07T10:17:42.000Z</time>
      </trkpt>
      <trkpt lat="45.49433" lon="6.63703">
        <ele>2524.3999023438</ele>
        <time>2016-03-07T10:17:50.000Z</time>
      </trkpt>
      <trkpt lat="45.49431" lon="6.63706">
        <ele>2525.1999511719</ele>
        <time>2016-03-07T10:17:57.000Z</time>
      </trkpt>
      <trkpt lat="45.4943" lon="6.63708">
        <ele>2525.3999023438</ele>
        <time>2016-03-07T10:17:59.000Z</time>
      </trkpt>
      <trkpt lat="45.49429" lon="6.63712">
        <ele>2526.3999023438</ele>
        <time>2016-03-07T10:18:04.000Z</time>
      </trkpt>
      <trkpt lat="45.49429" lon="6.63712">
        <ele>2526.6000976562</ele>
        <time>2016-03-07T10:18:05.000Z</time>
      </trkpt>
      <trkpt lat="45.49429" lon="6.63712">
        <ele>2527.1999511719</ele>
        <time>2016-03-07T10:18:16.000Z</time>
      </trkpt>
      <trkpt lat="45.49429" lon="6.63712">
        <ele>2527</ele>
        <time>2016-03-07T10:18:26.000Z</time>
      </trkpt>
      <trkpt lat="45.49428" lon="6.63714">
        <ele>2526.8000488281</ele>
        <time>2016-03-07T10:18:35.000Z</time>
      </trkpt>
      <trkpt lat="45.49427" lon="6.63719">
        <ele>2527.8000488281</ele>
        <time>2016-03-07T10:18:40.000Z</time>
      </trkpt>
      <trkpt lat="45.49427" lon="6.6372">
        <ele>2527.8000488281</ele>
        <time>2016-03-07T10:18:41.000Z</time>
      </trkpt>
      <trkpt lat="45.49426" lon="6.63722">
        <ele>2528.8000488281</ele>
        <time>2016-03-07T10:18:44.000Z</time>
      </trkpt>
      <trkpt lat="45.49424" lon="6.63725">
        <ele>2529.1999511719</ele>
        <time>2016-03-07T10:18:48.000Z</time>
      </trkpt>
      <trkpt lat="45.49422" lon="6.63728">
        <ele>2529.8000488281</ele>
        <time>2016-03-07T10:18:51.000Z</time>
      </trkpt>
      <trkpt lat="45.49419" lon="6.63729">
        <ele>2530.6000976562</ele>
        <time>2016-03-07T10:18:55.000Z</time>
      </trkpt>
      <trkpt lat="45.49418" lon="6.6373">
        <ele>2530.8000488281</ele>
        <time>2016-03-07T10:18:58.000Z</time>
      </trkpt>
      <trkpt lat="45.49418" lon="6.63731">
        <ele>2531.1999511719</ele>
        <time>2016-03-07T10:19:01.000Z</time>
      </trkpt>
      <trkpt lat="45.49416" lon="6.63732">
        <ele>2532</ele>
        <time>2016-03-07T10:19:05.000Z</time>
      </trkpt>
      <trkpt lat="45.49416" lon="6.63734">
        <ele>2532.6000976562</ele>
        <time>2016-03-07T10:19:08.000Z</time>
      </trkpt>
      <trkpt lat="45.49415" lon="6.63735">
        <ele>2533</ele>
        <time>2016-03-07T10:19:10.000Z</time>
      </trkpt>
      <trkpt lat="45.49415" lon="6.63735">
        <ele>2533.8000488281</ele>
        <time>2016-03-07T10:19:18.000Z</time>
      </trkpt>
      <trkpt lat="45.49415" lon="6.63736">
        <ele>2533.8000488281</ele>
        <time>2016-03-07T10:19:25.000Z</time>
      </trkpt>
      <trkpt lat="45.49414" lon="6.63738">
        <ele>2534.3999023438</ele>
        <time>2016-03-07T10:19:28.000Z</time>
      </trkpt>
      <trkpt lat="45.49412" lon="6.6374">
        <ele>2535.1999511719</ele>
        <time>2016-03-07T10:19:32.000Z</time>
      </trkpt>
      <trkpt lat="45.49412" lon="6.6374">
        <ele>2535.3999023438</ele>
        <time>2016-03-07T10:19:33.000Z</time>
      </trkpt>
      <trkpt lat="45.4941" lon="6.63742">
        <ele>2536.3999023438</ele>
        <time>2016-03-07T10:19:39.000Z</time>
      </trkpt>
      <trkpt lat="45.49409" lon="6.63742">
        <ele>2536.6000976562</ele>
        <time>2016-03-07T10:19:41.000Z</time>
      </trkpt>
      <trkpt lat="45.49408" lon="6.63743">
        <ele>2536.8000488281</ele>
        <time>2016-03-07T10:19:44.000Z</time>
      </trkpt>
      <trkpt lat="45.49408" lon="6.63744">
        <ele>2537.1999511719</ele>
        <time>2016-03-07T10:19:46.000Z</time>
      </trkpt>
      <trkpt lat="45.49407" lon="6.63745">
        <ele>2537.6000976562</ele>
        <time>2016-03-07T10:19:48.000Z</time>
      </trkpt>
      <trkpt lat="45.49405" lon="6.63748">
        <ele>2538</ele>
        <time>2016-03-07T10:19:52.000Z</time>
      </trkpt>
      <trkpt lat="45.49404" lon="6.63748">
        <ele>2538.8000488281</ele>
        <time>2016-03-07T10:19:56.000Z</time>
      </trkpt>
      <trkpt lat="45.49403" lon="6.63748">
        <ele>2539.1999511719</ele>
        <time>2016-03-07T10:20:00.000Z</time>
      </trkpt>
      <trkpt lat="45.49403" lon="6.63748">
        <ele>2539.8000488281</ele>
        <time>2016-03-07T10:20:03.000Z</time>
      </trkpt>
      <trkpt lat="45.49404" lon="6.63749">
        <ele>2539.8000488281</ele>
        <time>2016-03-07T10:20:11.000Z</time>
      </trkpt>
      <trkpt lat="45.49404" lon="6.63749">
        <ele>2540.8000488281</ele>
        <time>2016-03-07T10:20:22.000Z</time>
      </trkpt>
      <trkpt lat="45.49404" lon="6.63751">
        <ele>2541.3999023438</ele>
        <time>2016-03-07T10:20:27.000Z</time>
      </trkpt>
      <trkpt lat="45.49406" lon="6.63754">
        <ele>2542</ele>
        <time>2016-03-07T10:20:32.000Z</time>
      </trkpt>
      <trkpt lat="45.49406" lon="6.63754">
        <ele>2542</ele>
        <time>2016-03-07T10:20:33.000Z</time>
      </trkpt>
      <trkpt lat="45.49408" lon="6.63756">
        <ele>2543</ele>
        <time>2016-03-07T10:20:39.000Z</time>
      </trkpt>
      <trkpt lat="45.49409" lon="6.63758">
        <ele>2543.8000488281</ele>
        <time>2016-03-07T10:20:45.000Z</time>
      </trkpt>
      <trkpt lat="45.49411" lon="6.63758">
        <ele>2544</ele>
        <time>2016-03-07T10:20:47.000Z</time>
      </trkpt>
      <trkpt lat="45.49413" lon="6.63761">
        <ele>2544.6000976562</ele>
        <time>2016-03-07T10:20:51.000Z</time>
      </trkpt>
      <trkpt lat="45.49414" lon="6.63762">
        <ele>2545</ele>
        <time>2016-03-07T10:20:54.000Z</time>
      </trkpt>
      <trkpt lat="45.49416" lon="6.63763">
        <ele>2545.3999023438</ele>
        <time>2016-03-07T10:20:57.000Z</time>
      </trkpt>
      <trkpt lat="45.49417" lon="6.63764">
        <ele>2546.1999511719</ele>
        <time>2016-03-07T10:21:02.000Z</time>
      </trkpt>
      <trkpt lat="45.49417" lon="6.63764">
        <ele>2546.3999023438</ele>
        <time>2016-03-07T10:21:03.000Z</time>
      </trkpt>
      <trkpt lat="45.4942" lon="6.63765">
        <ele>2547.1999511719</ele>
        <time>2016-03-07T10:21:09.000Z</time>
      </trkpt>
      <trkpt lat="45.4942" lon="6.63765">
        <ele>2547.1999511719</ele>
        <time>2016-03-07T10:21:11.000Z</time>
      </trkpt>
      <trkpt lat="45.4942" lon="6.63765">
        <ele>2548</ele>
        <time>2016-03-07T10:21:21.000Z</time>
      </trkpt>
      <trkpt lat="45.49419" lon="6.63766">
        <ele>2548.3999023438</ele>
        <time>2016-03-07T10:21:25.000Z</time>
      </trkpt>
      <trkpt lat="45.49416" lon="6.63768">
        <ele>2548</ele>
        <time>2016-03-07T10:21:29.000Z</time>
      </trkpt>
      <trkpt lat="45.49413" lon="6.6377">
        <ele>2549</ele>
        <time>2016-03-07T10:21:36.000Z</time>
      </trkpt>
      <trkpt lat="45.49412" lon="6.63772">
        <ele>2549.3999023438</ele>
        <time>2016-03-07T10:21:39.000Z</time>
      </trkpt>
      <trkpt lat="45.49411" lon="6.63773">
        <ele>2549.6000976562</ele>
        <time>2016-03-07T10:21:41.000Z</time>
      </trkpt>
      <trkpt lat="45.49409" lon="6.63774">
        <ele>2550.3999023438</ele>
        <time>2016-03-07T10:21:46.000Z</time>
      </trkpt>
      <trkpt lat="45.49409" lon="6.63775">
        <ele>2550.6000976562</ele>
        <time>2016-03-07T10:21:48.000Z</time>
      </trkpt>
      <trkpt lat="45.49407" lon="6.63775">
        <ele>2551.3999023438</ele>
        <time>2016-03-07T10:21:54.000Z</time>
      </trkpt>
      <trkpt lat="45.49405" lon="6.63777">
        <ele>2552.6000976562</ele>
        <time>2016-03-07T10:22:00.000Z</time>
      </trkpt>
      <trkpt lat="45.49401" lon="6.63781">
        <ele>2553.3999023438</ele>
        <time>2016-03-07T10:22:06.000Z</time>
      </trkpt>
      <trkpt lat="45.49401" lon="6.63781">
        <ele>2553.6000976562</ele>
        <time>2016-03-07T10:22:07.000Z</time>
      </trkpt>
      <trkpt lat="45.49401" lon="6.63782">
        <ele>2554</ele>
        <time>2016-03-07T10:22:15.000Z</time>
      </trkpt>
      <trkpt lat="45.494" lon="6.63782">
        <ele>2554.3999023438</ele>
        <time>2016-03-07T10:22:25.000Z</time>
      </trkpt>
      <trkpt lat="45.494" lon="6.63782">
        <ele>2554.6000976562</ele>
        <time>2016-03-07T10:22:28.000Z</time>
      </trkpt>
      <trkpt lat="45.49402" lon="6.63784">
        <ele>2554.8000488281</ele>
        <time>2016-03-07T10:22:32.000Z</time>
      </trkpt>
      <trkpt lat="45.49404" lon="6.63785">
        <ele>2555.8000488281</ele>
        <time>2016-03-07T10:22:36.000Z</time>
      </trkpt>
      <trkpt lat="45.49407" lon="6.63788">
        <ele>2556</ele>
        <time>2016-03-07T10:22:42.000Z</time>
      </trkpt>
      <trkpt lat="45.49407" lon="6.63788">
        <ele>2557</ele>
        <time>2016-03-07T10:22:44.000Z</time>
      </trkpt>
      <trkpt lat="45.49408" lon="6.63789">
        <ele>2557.3999023438</ele>
        <time>2016-03-07T10:22:47.000Z</time>
      </trkpt>
      <trkpt lat="45.49409" lon="6.63791">
        <ele>2558</ele>
        <time>2016-03-07T10:22:51.000Z</time>
      </trkpt>
      <trkpt lat="45.4941" lon="6.63791">
        <ele>2558.1999511719</ele>
        <time>2016-03-07T10:22:52.000Z</time>
      </trkpt>
      <trkpt lat="45.49413" lon="6.63791">
        <ele>2558.3999023438</ele>
        <time>2016-03-07T10:22:57.000Z</time>
      </trkpt>
      <trkpt lat="45.49414" lon="6.63793">
        <ele>2559.1999511719</ele>
        <time>2016-03-07T10:23:00.000Z</time>
      </trkpt>
      <trkpt lat="45.49415" lon="6.63794">
        <ele>2559.3999023438</ele>
        <time>2016-03-07T10:23:02.000Z</time>
      </trkpt>
      <trkpt lat="45.49418" lon="6.63796">
        <ele>2560.6000976562</ele>
        <time>2016-03-07T10:23:07.000Z</time>
      </trkpt>
      <trkpt lat="45.49418" lon="6.63796">
        <ele>2560.8000488281</ele>
        <time>2016-03-07T10:23:08.000Z</time>
      </trkpt>
      <trkpt lat="45.49423" lon="6.63798">
        <ele>2561.3999023438</ele>
        <time>2016-03-07T10:23:14.000Z</time>
      </trkpt>
      <trkpt lat="45.49423" lon="6.63799">
        <ele>2561.8000488281</ele>
        <time>2016-03-07T10:23:15.000Z</time>
      </trkpt>
      <trkpt lat="45.49424" lon="6.63799">
        <ele>2562</ele>
        <time>2016-03-07T10:23:19.000Z</time>
      </trkpt>
      <trkpt lat="45.49425" lon="6.638">
        <ele>2562.3999023438</ele>
        <time>2016-03-07T10:23:29.000Z</time>
      </trkpt>
      <trkpt lat="45.49425" lon="6.63801">
        <ele>2563</ele>
        <time>2016-03-07T10:23:31.000Z</time>
      </trkpt>
      <trkpt lat="45.49426" lon="6.63802">
        <ele>2563.1999511719</ele>
        <time>2016-03-07T10:23:33.000Z</time>
      </trkpt>
      <trkpt lat="45.49427" lon="6.63803">
        <ele>2563.3999023438</ele>
        <time>2016-03-07T10:23:37.000Z</time>
      </trkpt>
      <trkpt lat="45.49429" lon="6.63804">
        <ele>2564.3999023438</ele>
        <time>2016-03-07T10:23:41.000Z</time>
      </trkpt>
      <trkpt lat="45.49429" lon="6.63805">
        <ele>2564.8000488281</ele>
        <time>2016-03-07T10:23:43.000Z</time>
      </trkpt>
      <trkpt lat="45.49432" lon="6.63808">
        <ele>2565.1999511719</ele>
        <time>2016-03-07T10:23:49.000Z</time>
      </trkpt>
      <trkpt lat="45.49433" lon="6.63808">
        <ele>2565.3999023438</ele>
        <time>2016-03-07T10:23:50.000Z</time>
      </trkpt>
      <trkpt lat="45.49433" lon="6.63809">
        <ele>2566.1999511719</ele>
        <time>2016-03-07T10:23:53.000Z</time>
      </trkpt>
      <trkpt lat="45.49436" lon="6.63812">
        <ele>2566.3999023438</ele>
        <time>2016-03-07T10:23:59.000Z</time>
      </trkpt>
      <trkpt lat="45.49438" lon="6.63812">
        <ele>2566.8000488281</ele>
        <time>2016-03-07T10:24:01.000Z</time>
      </trkpt>
      <trkpt lat="45.49439" lon="6.63813">
        <ele>2568</ele>
        <time>2016-03-07T10:24:05.000Z</time>
      </trkpt>
      <trkpt lat="45.49446" lon="6.63813">
        <ele>2568.3999023438</ele>
        <time>2016-03-07T10:24:11.000Z</time>
      </trkpt>
      <trkpt lat="45.49448" lon="6.63814">
        <ele>2569</ele>
        <time>2016-03-07T10:24:15.000Z</time>
      </trkpt>
      <trkpt lat="45.49449" lon="6.63814">
        <ele>2569.1999511719</ele>
        <time>2016-03-07T10:24:16.000Z</time>
      </trkpt>
      <trkpt lat="45.49454" lon="6.63814">
        <ele>2570</ele>
        <time>2016-03-07T10:24:23.000Z</time>
      </trkpt>
      <trkpt lat="45.49454" lon="6.63814">
        <ele>2570.3999023438</ele>
        <time>2016-03-07T10:24:24.000Z</time>
      </trkpt>
      <trkpt lat="45.49457" lon="6.63814">
        <ele>2571</ele>
        <time>2016-03-07T10:24:31.000Z</time>
      </trkpt>
      <trkpt lat="45.49458" lon="6.63814">
        <ele>2571.3999023438</ele>
        <time>2016-03-07T10:24:32.000Z</time>
      </trkpt>
      <trkpt lat="45.49459" lon="6.63813">
        <ele>2572.3999023438</ele>
        <time>2016-03-07T10:24:37.000Z</time>
      </trkpt>
      <trkpt lat="45.49459" lon="6.63813">
        <ele>2572.6000976562</ele>
        <time>2016-03-07T10:24:40.000Z</time>
      </trkpt>
      <trkpt lat="45.4946" lon="6.63813">
        <ele>2573</ele>
        <time>2016-03-07T10:24:49.000Z</time>
      </trkpt>
      <trkpt lat="45.4946" lon="6.63813">
        <ele>2573.6000976562</ele>
        <time>2016-03-07T10:24:53.000Z</time>
      </trkpt>
      <trkpt lat="45.4946" lon="6.63814">
        <ele>2574</ele>
        <time>2016-03-07T10:24:56.000Z</time>
      </trkpt>
      <trkpt lat="45.4946" lon="6.63817">
        <ele>2574.1999511719</ele>
        <time>2016-03-07T10:25:03.000Z</time>
      </trkpt>
      <trkpt lat="45.49458" lon="6.63821">
        <ele>2574.8000488281</ele>
        <time>2016-03-07T10:25:07.000Z</time>
      </trkpt>
      <trkpt lat="45.49456" lon="6.63822">
        <ele>2575.3999023438</ele>
        <time>2016-03-07T10:25:10.000Z</time>
      </trkpt>
      <trkpt lat="45.49455" lon="6.63824">
        <ele>2575.8000488281</ele>
        <time>2016-03-07T10:25:12.000Z</time>
      </trkpt>
      <trkpt lat="45.49453" lon="6.63827">
        <ele>2576.6000976562</ele>
        <time>2016-03-07T10:25:17.000Z</time>
      </trkpt>
      <trkpt lat="45.49453" lon="6.63829">
        <ele>2577</ele>
        <time>2016-03-07T10:25:20.000Z</time>
      </trkpt>
      <trkpt lat="45.49451" lon="6.63831">
        <ele>2577.6000976562</ele>
        <time>2016-03-07T10:25:24.000Z</time>
      </trkpt>
      <trkpt lat="45.4945" lon="6.63832">
        <ele>2578.1999511719</ele>
        <time>2016-03-07T10:25:27.000Z</time>
      </trkpt>
      <trkpt lat="45.4945" lon="6.63834">
        <ele>2578.6000976562</ele>
        <time>2016-03-07T10:25:30.000Z</time>
      </trkpt>
      <trkpt lat="45.4945" lon="6.63836">
        <ele>2579.1999511719</ele>
        <time>2016-03-07T10:25:33.000Z</time>
      </trkpt>
      <trkpt lat="45.49448" lon="6.63837">
        <ele>2579.8000488281</ele>
        <time>2016-03-07T10:25:37.000Z</time>
      </trkpt>
      <trkpt lat="45.49446" lon="6.63838">
        <ele>2580.3999023438</ele>
        <time>2016-03-07T10:25:39.000Z</time>
      </trkpt>
      <trkpt lat="45.49446" lon="6.63838">
        <ele>2580.6000976562</ele>
        <time>2016-03-07T10:25:47.000Z</time>
      </trkpt>
      <trkpt lat="45.49445" lon="6.6384">
        <ele>2580.3999023438</ele>
        <time>2016-03-07T10:25:54.000Z</time>
      </trkpt>
      <trkpt lat="45.49443" lon="6.63844">
        <ele>2581.3999023438</ele>
        <time>2016-03-07T10:25:59.000Z</time>
      </trkpt>
      <trkpt lat="45.49442" lon="6.63844">
        <ele>2581.8000488281</ele>
        <time>2016-03-07T10:26:01.000Z</time>
      </trkpt>
      <trkpt lat="45.49439" lon="6.63847">
        <ele>2582.3999023438</ele>
        <time>2016-03-07T10:26:06.000Z</time>
      </trkpt>
      <trkpt lat="45.49439" lon="6.63847">
        <ele>2583</ele>
        <time>2016-03-07T10:26:10.000Z</time>
      </trkpt>
      <trkpt lat="45.49442" lon="6.63848">
        <ele>2583.8000488281</ele>
        <time>2016-03-07T10:26:19.000Z</time>
      </trkpt>
      <trkpt lat="45.49444" lon="6.63849">
        <ele>2584.8000488281</ele>
        <time>2016-03-07T10:26:23.000Z</time>
      </trkpt>
      <trkpt lat="45.49445" lon="6.6385">
        <ele>2585</ele>
        <time>2016-03-07T10:26:25.000Z</time>
      </trkpt>
      <trkpt lat="45.49448" lon="6.63853">
        <ele>2585.8000488281</ele>
        <time>2016-03-07T10:26:31.000Z</time>
      </trkpt>
      <trkpt lat="45.4945" lon="6.63854">
        <ele>2586.8000488281</ele>
        <time>2016-03-07T10:26:38.000Z</time>
      </trkpt>
      <trkpt lat="45.49452" lon="6.63854">
        <ele>2587</ele>
        <time>2016-03-07T10:26:40.000Z</time>
      </trkpt>
      <trkpt lat="45.49456" lon="6.63855">
        <ele>2587.8000488281</ele>
        <time>2016-03-07T10:26:45.000Z</time>
      </trkpt>
      <trkpt lat="45.49457" lon="6.63855">
        <ele>2588.1999511719</ele>
        <time>2016-03-07T10:26:47.000Z</time>
      </trkpt>
      <trkpt lat="45.49459" lon="6.63855">
        <ele>2588.8000488281</ele>
        <time>2016-03-07T10:26:53.000Z</time>
      </trkpt>
      <trkpt lat="45.49459" lon="6.63855">
        <ele>2589.1999511719</ele>
        <time>2016-03-07T10:26:55.000Z</time>
      </trkpt>
      <trkpt lat="45.49459" lon="6.63855">
        <ele>2589.6000976562</ele>
        <time>2016-03-07T10:27:06.000Z</time>
      </trkpt>
      <trkpt lat="45.49462" lon="6.63856">
        <ele>2590.1999511719</ele>
        <time>2016-03-07T10:27:12.000Z</time>
      </trkpt>
      <trkpt lat="45.49464" lon="6.63857">
        <ele>2590.8000488281</ele>
        <time>2016-03-07T10:27:15.000Z</time>
      </trkpt>
      <trkpt lat="45.49466" lon="6.63856">
        <ele>2591.1999511719</ele>
        <time>2016-03-07T10:27:20.000Z</time>
      </trkpt>
      <trkpt lat="45.49467" lon="6.63857">
        <ele>2591.8000488281</ele>
        <time>2016-03-07T10:27:22.000Z</time>
      </trkpt>
      <trkpt lat="45.49467" lon="6.63857">
        <ele>2592.1999511719</ele>
        <time>2016-03-07T10:27:29.000Z</time>
      </trkpt>
      <trkpt lat="45.49467" lon="6.63857">
        <ele>2592.6000976562</ele>
        <time>2016-03-07T10:27:30.000Z</time>
      </trkpt>
      <trkpt lat="45.49466" lon="6.6386">
        <ele>2592.8000488281</ele>
        <time>2016-03-07T10:27:36.000Z</time>
      </trkpt>
      <trkpt lat="45.49465" lon="6.63864">
        <ele>2593.6000976562</ele>
        <time>2016-03-07T10:27:40.000Z</time>
      </trkpt>
      <trkpt lat="45.49464" lon="6.63867">
        <ele>2594</ele>
        <time>2016-03-07T10:27:43.000Z</time>
      </trkpt>
      <trkpt lat="45.49462" lon="6.6387">
        <ele>2594.6000976562</ele>
        <time>2016-03-07T10:27:48.000Z</time>
      </trkpt>
      <trkpt lat="45.49463" lon="6.6387">
        <ele>2594.8000488281</ele>
        <time>2016-03-07T10:27:49.000Z</time>
      </trkpt>
      <trkpt lat="45.49462" lon="6.63873">
        <ele>2595.8000488281</ele>
        <time>2016-03-07T10:27:55.000Z</time>
      </trkpt>
      <trkpt lat="45.4946" lon="6.63877">
        <ele>2597</ele>
        <time>2016-03-07T10:28:02.000Z</time>
      </trkpt>
      <trkpt lat="45.49459" lon="6.63881">
        <ele>2598</ele>
        <time>2016-03-07T10:28:08.000Z</time>
      </trkpt>
      <trkpt lat="45.49458" lon="6.63882">
        <ele>2598.1999511719</ele>
        <time>2016-03-07T10:28:09.000Z</time>
      </trkpt>
      <trkpt lat="45.49456" lon="6.63884">
        <ele>2599</ele>
        <time>2016-03-07T10:28:16.000Z</time>
      </trkpt>
      <trkpt lat="45.49456" lon="6.63884">
        <ele>2599.1999511719</ele>
        <time>2016-03-07T10:28:17.000Z</time>
      </trkpt>
      <trkpt lat="45.49454" lon="6.63886">
        <ele>2599.6000976562</ele>
        <time>2016-03-07T10:28:28.000Z</time>
      </trkpt>
      <trkpt lat="45.49452" lon="6.63888">
        <ele>2600.1999511719</ele>
        <time>2016-03-07T10:28:32.000Z</time>
      </trkpt>
      <trkpt lat="45.49451" lon="6.6389">
        <ele>2601</ele>
        <time>2016-03-07T10:28:36.000Z</time>
      </trkpt>
      <trkpt lat="45.4945" lon="6.63891">
        <ele>2601.3999023438</ele>
        <time>2016-03-07T10:28:38.000Z</time>
      </trkpt>
      <trkpt lat="45.49448" lon="6.63894">
        <ele>2602.1999511719</ele>
        <time>2016-03-07T10:28:43.000Z</time>
      </trkpt>
      <trkpt lat="45.49447" lon="6.63895">
        <ele>2602.6000976562</ele>
        <time>2016-03-07T10:28:46.000Z</time>
      </trkpt>
      <trkpt lat="45.49446" lon="6.63897">
        <ele>2603.8000488281</ele>
        <time>2016-03-07T10:28:50.000Z</time>
      </trkpt>
      <trkpt lat="45.49445" lon="6.63897">
        <ele>2604.8000488281</ele>
        <time>2016-03-07T10:29:00.000Z</time>
      </trkpt>
      <trkpt lat="45.49445" lon="6.63897">
        <ele>2604.8000488281</ele>
        <time>2016-03-07T10:29:01.000Z</time>
      </trkpt>
      <trkpt lat="45.49445" lon="6.63902">
        <ele>2604.8000488281</ele>
        <time>2016-03-07T10:29:08.000Z</time>
      </trkpt>
      <trkpt lat="45.49446" lon="6.63905">
        <ele>2605.8000488281</ele>
        <time>2016-03-07T10:29:12.000Z</time>
      </trkpt>
      <trkpt lat="45.49449" lon="6.63908">
        <ele>2607</ele>
        <time>2016-03-07T10:29:16.000Z</time>
      </trkpt>
      <trkpt lat="45.49449" lon="6.63908">
        <ele>2607.1999511719</ele>
        <time>2016-03-07T10:29:17.000Z</time>
      </trkpt>
      <trkpt lat="45.49451" lon="6.63911">
        <ele>2607.8000488281</ele>
        <time>2016-03-07T10:29:22.000Z</time>
      </trkpt>
      <trkpt lat="45.49453" lon="6.63912">
        <ele>2608</ele>
        <time>2016-03-07T10:29:23.000Z</time>
      </trkpt>
      <trkpt lat="45.49455" lon="6.63913">
        <ele>2608.8000488281</ele>
        <time>2016-03-07T10:29:28.000Z</time>
      </trkpt>
      <trkpt lat="45.49455" lon="6.63914">
        <ele>2609.1999511719</ele>
        <time>2016-03-07T10:29:29.000Z</time>
      </trkpt>
      <trkpt lat="45.49458" lon="6.63918">
        <ele>2610</ele>
        <time>2016-03-07T10:29:34.000Z</time>
      </trkpt>
      <trkpt lat="45.49458" lon="6.63918">
        <ele>2610.1999511719</ele>
        <time>2016-03-07T10:29:35.000Z</time>
      </trkpt>
      <trkpt lat="45.49458" lon="6.63918">
        <ele>2611</ele>
        <time>2016-03-07T10:29:40.000Z</time>
      </trkpt>
      <trkpt lat="45.49461" lon="6.63923">
        <ele>2610.8000488281</ele>
        <time>2016-03-07T10:29:49.000Z</time>
      </trkpt>
      <trkpt lat="45.49462" lon="6.63925">
        <ele>2611.3999023438</ele>
        <time>2016-03-07T10:29:53.000Z</time>
      </trkpt>
      <trkpt lat="45.49462" lon="6.63925">
        <ele>2611.6000976562</ele>
        <time>2016-03-07T10:29:54.000Z</time>
      </trkpt>
      <trkpt lat="45.49464" lon="6.63926">
        <ele>2612.6000976562</ele>
        <time>2016-03-07T10:29:57.000Z</time>
      </trkpt>
      <trkpt lat="45.49465" lon="6.63927">
        <ele>2613</ele>
        <time>2016-03-07T10:29:59.000Z</time>
      </trkpt>
      <trkpt lat="45.49469" lon="6.6393">
        <ele>2613.6000976562</ele>
        <time>2016-03-07T10:30:05.000Z</time>
      </trkpt>
      <trkpt lat="45.49472" lon="6.63931">
        <ele>2614.8000488281</ele>
        <time>2016-03-07T10:30:10.000Z</time>
      </trkpt>
      <trkpt lat="45.49473" lon="6.63934">
        <ele>2616</ele>
        <time>2016-03-07T10:30:15.000Z</time>
      </trkpt>
      <trkpt lat="45.49473" lon="6.63934">
        <ele>2616</ele>
        <time>2016-03-07T10:30:16.000Z</time>
      </trkpt>
      <trkpt lat="45.49473" lon="6.63934">
        <ele>2616</ele>
        <time>2016-03-07T10:30:27.000Z</time>
      </trkpt>
      <trkpt lat="45.49473" lon="6.63934">
        <ele>2616.3999023438</ele>
        <time>2016-03-07T10:30:42.000Z</time>
      </trkpt>
      <trkpt lat="45.49473" lon="6.63934">
        <ele>2616.3999023438</ele>
        <time>2016-03-07T10:30:53.000Z</time>
      </trkpt>
      <trkpt lat="45.49474" lon="6.63935">
        <ele>2616</ele>
        <time>2016-03-07T10:31:02.000Z</time>
      </trkpt>
      <trkpt lat="45.49474" lon="6.63935">
        <ele>2616.1999511719</ele>
        <time>2016-03-07T10:31:15.000Z</time>
      </trkpt>
      <trkpt lat="45.49473" lon="6.63934">
        <ele>2616</ele>
        <time>2016-03-07T10:31:31.000Z</time>
      </trkpt>
      <trkpt lat="45.49474" lon="6.63934">
        <ele>2616.1999511719</ele>
        <time>2016-03-07T10:31:44.000Z</time>
      </trkpt>
      <trkpt lat="45.49474" lon="6.63934">
        <ele>2616.1999511719</ele>
        <time>2016-03-07T10:32:05.000Z</time>
      </trkpt>
      <trkpt lat="45.49474" lon="6.63934">
        <ele>2615.8000488281</ele>
        <time>2016-03-07T10:32:18.000Z</time>
      </trkpt>
      <trkpt lat="45.49474" lon="6.63934">
        <ele>2615.8000488281</ele>
        <time>2016-03-07T10:32:28.000Z</time>
      </trkpt>
      <trkpt lat="45.49474" lon="6.63934">
        <ele>2616.1999511719</ele>
        <time>2016-03-07T10:32:45.000Z</time>
      </trkpt>
      <trkpt lat="45.49474" lon="6.63933">
        <ele>2616.3999023438</ele>
        <time>2016-03-07T10:32:56.000Z</time>
      </trkpt>
      <trkpt lat="45.49474" lon="6.63933">
        <ele>2615.6000976562</ele>
        <time>2016-03-07T10:33:07.000Z</time>
      </trkpt>
      <trkpt lat="45.49474" lon="6.63933">
        <ele>2616.1999511719</ele>
        <time>2016-03-07T10:33:21.000Z</time>
      </trkpt>
      <trkpt lat="45.49474" lon="6.63933">
        <ele>2616.1999511719</ele>
        <time>2016-03-07T10:33:30.000Z</time>
      </trkpt>
      <trkpt lat="45.49474" lon="6.63933">
        <ele>2616.1999511719</ele>
        <time>2016-03-07T10:33:40.000Z</time>
      </trkpt>
      <trkpt lat="45.49474" lon="6.63933">
        <ele>2616.3999023438</ele>
        <time>2016-03-07T10:33:53.000Z</time>
      </trkpt>
      <trkpt lat="45.49475" lon="6.63933">
        <ele>2616.1999511719</ele>
        <time>2016-03-07T10:34:02.000Z</time>
      </trkpt>
      <trkpt lat="45.49475" lon="6.63933">
        <ele>2616</ele>
        <time>2016-03-07T10:34:19.000Z</time>
      </trkpt>
      <trkpt lat="45.49475" lon="6.63933">
        <ele>2616.1999511719</ele>
        <time>2016-03-07T10:34:30.000Z</time>
      </trkpt>
      <trkpt lat="45.49475" lon="6.63933">
        <ele>2616</ele>
        <time>2016-03-07T10:34:48.000Z</time>
      </trkpt>
      <trkpt lat="45.49475" lon="6.63933">
        <ele>2615.8000488281</ele>
        <time>2016-03-07T10:35:06.000Z</time>
      </trkpt>
      <trkpt lat="45.49475" lon="6.63933">
        <ele>2616.1999511719</ele>
        <time>2016-03-07T10:35:19.000Z</time>
      </trkpt>
      <trkpt lat="45.49475" lon="6.63933">
        <ele>2616.1999511719</ele>
        <time>2016-03-07T10:35:38.000Z</time>
      </trkpt>
      <trkpt lat="45.49475" lon="6.63933">
        <ele>2616.1999511719</ele>
        <time>2016-03-07T10:35:52.000Z</time>
      </trkpt>
      <trkpt lat="45.49475" lon="6.63933">
        <ele>2616.1999511719</ele>
        <time>2016-03-07T10:36:06.000Z</time>
      </trkpt>
      <trkpt lat="45.49475" lon="6.63933">
        <ele>2616.1999511719</ele>
        <time>2016-03-07T10:36:14.000Z</time>
      </trkpt>
      <trkpt lat="45.49475" lon="6.63933">
        <ele>2616.3999023438</ele>
        <time>2016-03-07T10:36:21.000Z</time>
      </trkpt>
      <trkpt lat="45.49474" lon="6.63933">
        <ele>2616</ele>
        <time>2016-03-07T10:36:43.000Z</time>
      </trkpt>
      <trkpt lat="45.49474" lon="6.63933">
        <ele>2616</ele>
        <time>2016-03-07T10:37:07.000Z</time>
      </trkpt>
      <trkpt lat="45.49475" lon="6.63933">
        <ele>2616.1999511719</ele>
        <time>2016-03-07T10:37:15.000Z</time>
      </trkpt>
      <trkpt lat="45.49474" lon="6.63934">
        <ele>2616.1999511719</ele>
        <time>2016-03-07T10:37:26.000Z</time>
      </trkpt>
      <trkpt lat="45.49474" lon="6.63934">
        <ele>2616</ele>
        <time>2016-03-07T10:37:53.000Z</time>
      </trkpt>
      <trkpt lat="45.49475" lon="6.63933">
        <ele>2615.8000488281</ele>
        <time>2016-03-07T10:38:07.000Z</time>
      </trkpt>
      <trkpt lat="45.49475" lon="6.63933">
        <ele>2616</ele>
        <time>2016-03-07T10:38:25.000Z</time>
      </trkpt>
      <trkpt lat="45.49475" lon="6.63933">
        <ele>2616</ele>
        <time>2016-03-07T10:38:26.000Z</time>
      </trkpt>
      <trkpt lat="45.49475" lon="6.63933">
        <ele>2616</ele>
        <time>2016-03-07T10:38:41.000Z</time>
      </trkpt>
      <trkpt lat="45.49475" lon="6.63933">
        <ele>2615.8000488281</ele>
        <time>2016-03-07T10:38:57.000Z</time>
      </trkpt>
      <trkpt lat="45.49475" lon="6.63933">
        <ele>2615.8000488281</ele>
        <time>2016-03-07T10:39:13.000Z</time>
      </trkpt>
      <trkpt lat="45.49475" lon="6.63927">
        <ele>2615.3999023438</ele>
        <time>2016-03-07T10:39:20.000Z</time>
      </trkpt>
      <trkpt lat="45.49474" lon="6.63926">
        <ele>2615.3999023438</ele>
        <time>2016-03-07T10:39:21.000Z</time>
      </trkpt>
      <trkpt lat="45.49468" lon="6.63917">
        <ele>2615.1999511719</ele>
        <time>2016-03-07T10:39:24.000Z</time>
      </trkpt>
      <trkpt lat="45.49464" lon="6.639">
        <ele>2614.8000488281</ele>
        <time>2016-03-07T10:39:27.000Z</time>
      </trkpt>
      <trkpt lat="45.49465" lon="6.63896">
        <ele>2614.1999511719</ele>
        <time>2016-03-07T10:39:28.000Z</time>
      </trkpt>
      <trkpt lat="45.49465" lon="6.63891">
        <ele>2613.3999023438</ele>
        <time>2016-03-07T10:39:29.000Z</time>
      </trkpt>
      <trkpt lat="45.49464" lon="6.63883">
        <ele>2611.8000488281</ele>
        <time>2016-03-07T10:39:31.000Z</time>
      </trkpt>
      <trkpt lat="45.49455" lon="6.63879">
        <ele>2608.8000488281</ele>
        <time>2016-03-07T10:39:33.000Z</time>
      </trkpt>
      <trkpt lat="45.49452" lon="6.63876">
        <ele>2607.1999511719</ele>
        <time>2016-03-07T10:39:34.000Z</time>
      </trkpt>
      <trkpt lat="45.49449" lon="6.63873">
        <ele>2605.6000976562</ele>
        <time>2016-03-07T10:39:35.000Z</time>
      </trkpt>
      <trkpt lat="45.49448" lon="6.6387">
        <ele>2603.6000976562</ele>
        <time>2016-03-07T10:39:36.000Z</time>
      </trkpt>
      <trkpt lat="45.49447" lon="6.63867">
        <ele>2601.1999511719</ele>
        <time>2016-03-07T10:39:37.000Z</time>
      </trkpt>
      <trkpt lat="45.49446" lon="6.63864">
        <ele>2599</ele>
        <time>2016-03-07T10:39:38.000Z</time>
      </trkpt>
      <trkpt lat="45.49447" lon="6.63867">
        <ele>2597.6000976562</ele>
        <time>2016-03-07T10:39:39.000Z</time>
      </trkpt>
      <trkpt lat="45.49448" lon="6.63868">
        <ele>2596.8000488281</ele>
        <time>2016-03-07T10:39:40.000Z</time>
      </trkpt>
      <trkpt lat="45.4945" lon="6.63869">
        <ele>2596.6000976562</ele>
        <time>2016-03-07T10:39:41.000Z</time>
      </trkpt>
      <trkpt lat="45.49452" lon="6.63869">
        <ele>2597.6000976562</ele>
        <time>2016-03-07T10:39:44.000Z</time>
      </trkpt>
      <trkpt lat="45.49455" lon="6.6387">
        <ele>2597.8000488281</ele>
        <time>2016-03-07T10:39:46.000Z</time>
      </trkpt>
      <trkpt lat="45.49457" lon="6.63868">
        <ele>2597.8000488281</ele>
        <time>2016-03-07T10:39:47.000Z</time>
      </trkpt>
      <trkpt lat="45.49466" lon="6.63855">
        <ele>2596.8000488281</ele>
        <time>2016-03-07T10:39:51.000Z</time>
      </trkpt>
      <trkpt lat="45.49468" lon="6.63852">
        <ele>2596.6000976562</ele>
        <time>2016-03-07T10:39:52.000Z</time>
      </trkpt>
      <trkpt lat="45.49471" lon="6.63849">
        <ele>2595.1999511719</ele>
        <time>2016-03-07T10:39:55.000Z</time>
      </trkpt>
      <trkpt lat="45.49472" lon="6.63847">
        <ele>2593.1999511719</ele>
        <time>2016-03-07T10:39:57.000Z</time>
      </trkpt>
      <trkpt lat="45.49469" lon="6.63842">
        <ele>2592.1999511719</ele>
        <time>2016-03-07T10:39:59.000Z</time>
      </trkpt>
      <trkpt lat="45.49469" lon="6.6384">
        <ele>2591.8000488281</ele>
        <time>2016-03-07T10:40:00.000Z</time>
      </trkpt>
      <trkpt lat="45.49469" lon="6.6384">
        <ele>2590.3999023438</ele>
        <time>2016-03-07T10:40:02.000Z</time>
      </trkpt>
      <trkpt lat="45.49469" lon="6.6384">
        <ele>2589.6000976562</ele>
        <time>2016-03-07T10:40:03.000Z</time>
      </trkpt>
      <trkpt lat="45.49469" lon="6.6384">
        <ele>2589.1999511719</ele>
        <time>2016-03-07T10:40:04.000Z</time>
      </trkpt>
      <trkpt lat="45.49469" lon="6.6384">
        <ele>2588</ele>
        <time>2016-03-07T10:40:07.000Z</time>
      </trkpt>
      <trkpt lat="45.49469" lon="6.6384">
        <ele>2588.1999511719</ele>
        <time>2016-03-07T10:40:17.000Z</time>
      </trkpt>
      <trkpt lat="45.49473" lon="6.63828">
        <ele>2587.8000488281</ele>
        <time>2016-03-07T10:40:21.000Z</time>
      </trkpt>
      <trkpt lat="45.49474" lon="6.63822">
        <ele>2587.6000976562</ele>
        <time>2016-03-07T10:40:23.000Z</time>
      </trkpt>
      <trkpt lat="45.49472" lon="6.63818">
        <ele>2587</ele>
        <time>2016-03-07T10:40:24.000Z</time>
      </trkpt>
      <trkpt lat="45.4947" lon="6.63813">
        <ele>2586.1999511719</ele>
        <time>2016-03-07T10:40:25.000Z</time>
      </trkpt>
      <trkpt lat="45.49469" lon="6.63803">
        <ele>2584.6000976562</ele>
        <time>2016-03-07T10:40:27.000Z</time>
      </trkpt>
      <trkpt lat="45.49468" lon="6.63799">
        <ele>2583.3999023438</ele>
        <time>2016-03-07T10:40:28.000Z</time>
      </trkpt>
      <trkpt lat="45.49467" lon="6.63793">
        <ele>2581.8000488281</ele>
        <time>2016-03-07T10:40:29.000Z</time>
      </trkpt>
      <trkpt lat="45.49465" lon="6.63789">
        <ele>2580.3999023438</ele>
        <time>2016-03-07T10:40:30.000Z</time>
      </trkpt>
      <trkpt lat="45.49464" lon="6.63784">
        <ele>2578.8000488281</ele>
        <time>2016-03-07T10:40:31.000Z</time>
      </trkpt>
      <trkpt lat="45.49464" lon="6.63778">
        <ele>2577.1999511719</ele>
        <time>2016-03-07T10:40:32.000Z</time>
      </trkpt>
      <trkpt lat="45.49463" lon="6.63773">
        <ele>2575.3999023438</ele>
        <time>2016-03-07T10:40:33.000Z</time>
      </trkpt>
      <trkpt lat="45.49462" lon="6.63768">
        <ele>2573.3999023438</ele>
        <time>2016-03-07T10:40:34.000Z</time>
      </trkpt>
      <trkpt lat="45.49462" lon="6.63763">
        <ele>2571.8000488281</ele>
        <time>2016-03-07T10:40:35.000Z</time>
      </trkpt>
      <trkpt lat="45.49461" lon="6.63759">
        <ele>2570.1999511719</ele>
        <time>2016-03-07T10:40:36.000Z</time>
      </trkpt>
      <trkpt lat="45.49459" lon="6.63755">
        <ele>2568.3999023438</ele>
        <time>2016-03-07T10:40:37.000Z</time>
      </trkpt>
      <trkpt lat="45.49458" lon="6.6375">
        <ele>2566.8000488281</ele>
        <time>2016-03-07T10:40:38.000Z</time>
      </trkpt>
      <trkpt lat="45.49458" lon="6.63746">
        <ele>2565</ele>
        <time>2016-03-07T10:40:39.000Z</time>
      </trkpt>
      <trkpt lat="45.49457" lon="6.6374">
        <ele>2563</ele>
        <time>2016-03-07T10:40:40.000Z</time>
      </trkpt>
      <trkpt lat="45.49457" lon="6.63735">
        <ele>2561</ele>
        <time>2016-03-07T10:40:41.000Z</time>
      </trkpt>
      <trkpt lat="45.49456" lon="6.6373">
        <ele>2559</ele>
        <time>2016-03-07T10:40:42.000Z</time>
      </trkpt>
      <trkpt lat="45.49456" lon="6.63724">
        <ele>2557.1999511719</ele>
        <time>2016-03-07T10:40:43.000Z</time>
      </trkpt>
      <trkpt lat="45.49454" lon="6.63718">
        <ele>2555.3999023438</ele>
        <time>2016-03-07T10:40:44.000Z</time>
      </trkpt>
      <trkpt lat="45.49452" lon="6.63713">
        <ele>2551</ele>
        <time>2016-03-07T10:40:45.000Z</time>
      </trkpt>
      <trkpt lat="45.4945" lon="6.63708">
        <ele>2548.8000488281</ele>
        <time>2016-03-07T10:40:46.000Z</time>
      </trkpt>
      <trkpt lat="45.49449" lon="6.63703">
        <ele>2546.8000488281</ele>
        <time>2016-03-07T10:40:47.000Z</time>
      </trkpt>
      <trkpt lat="45.49447" lon="6.63699">
        <ele>2544.6000976562</ele>
        <time>2016-03-07T10:40:48.000Z</time>
      </trkpt>
      <trkpt lat="45.49445" lon="6.63694">
        <ele>2542.3999023438</ele>
        <time>2016-03-07T10:40:49.000Z</time>
      </trkpt>
      <trkpt lat="45.49443" lon="6.6369">
        <ele>2540.1999511719</ele>
        <time>2016-03-07T10:40:50.000Z</time>
      </trkpt>
      <trkpt lat="45.49442" lon="6.63685">
        <ele>2538.1999511719</ele>
        <time>2016-03-07T10:40:51.000Z</time>
      </trkpt>
      <trkpt lat="45.4944" lon="6.63681">
        <ele>2535.8000488281</ele>
        <time>2016-03-07T10:40:52.000Z</time>
      </trkpt>
      <trkpt lat="45.49437" lon="6.63677">
        <ele>2533.3999023438</ele>
        <time>2016-03-07T10:40:53.000Z</time>
      </trkpt>
      <trkpt lat="45.49435" lon="6.63672">
        <ele>2531.6000976562</ele>
        <time>2016-03-07T10:40:54.000Z</time>
      </trkpt>
      <trkpt lat="45.49434" lon="6.63667">
        <ele>2529.6000976562</ele>
        <time>2016-03-07T10:40:55.000Z</time>
      </trkpt>
      <trkpt lat="45.49431" lon="6.63663">
        <ele>2527.6000976562</ele>
        <time>2016-03-07T10:40:56.000Z</time>
      </trkpt>
      <trkpt lat="45.4943" lon="6.63658">
        <ele>2525.8000488281</ele>
        <time>2016-03-07T10:40:57.000Z</time>
      </trkpt>
      <trkpt lat="45.4943" lon="6.63652">
        <ele>2523.8000488281</ele>
        <time>2016-03-07T10:40:58.000Z</time>
      </trkpt>
      <trkpt lat="45.49428" lon="6.63647">
        <ele>2522</ele>
        <time>2016-03-07T10:40:59.000Z</time>
      </trkpt>
      <trkpt lat="45.49428" lon="6.63642">
        <ele>2520</ele>
        <time>2016-03-07T10:41:00.000Z</time>
      </trkpt>
      <trkpt lat="45.49426" lon="6.63637">
        <ele>2518.1999511719</ele>
        <time>2016-03-07T10:41:01.000Z</time>
      </trkpt>
      <trkpt lat="45.49425" lon="6.63631">
        <ele>2516.3999023438</ele>
        <time>2016-03-07T10:41:02.000Z</time>
      </trkpt>
      <trkpt lat="45.49424" lon="6.63625">
        <ele>2514.6000976562</ele>
        <time>2016-03-07T10:41:03.000Z</time>
      </trkpt>
      <trkpt lat="45.49423" lon="6.63619">
        <ele>2512.6000976562</ele>
        <time>2016-03-07T10:41:04.000Z</time>
      </trkpt>
      <trkpt lat="45.49424" lon="6.63613">
        <ele>2510.6000976562</ele>
        <time>2016-03-07T10:41:05.000Z</time>
      </trkpt>
      <trkpt lat="45.49424" lon="6.63609">
        <ele>2508.3999023438</ele>
        <time>2016-03-07T10:41:06.000Z</time>
      </trkpt>
      <trkpt lat="45.49425" lon="6.63604">
        <ele>2506.3999023438</ele>
        <time>2016-03-07T10:41:07.000Z</time>
      </trkpt>
      <trkpt lat="45.49424" lon="6.63602">
        <ele>2504.8000488281</ele>
        <time>2016-03-07T10:41:08.000Z</time>
      </trkpt>
      <trkpt lat="45.49424" lon="6.63602">
        <ele>2501.3999023438</ele>
        <time>2016-03-07T10:41:09.000Z</time>
      </trkpt>
      <trkpt lat="45.49424" lon="6.63603">
        <ele>2500</ele>
        <time>2016-03-07T10:41:10.000Z</time>
      </trkpt>
      <trkpt lat="45.49424" lon="6.63603">
        <ele>2499</ele>
        <time>2016-03-07T10:41:11.000Z</time>
      </trkpt>
      <trkpt lat="45.49425" lon="6.63603">
        <ele>2498</ele>
        <time>2016-03-07T10:41:12.000Z</time>
      </trkpt>
      <trkpt lat="45.49426" lon="6.63604">
        <ele>2497</ele>
        <time>2016-03-07T10:41:13.000Z</time>
      </trkpt>
      <trkpt lat="45.49429" lon="6.63606">
        <ele>2495.1999511719</ele>
        <time>2016-03-07T10:41:15.000Z</time>
      </trkpt>
      <trkpt lat="45.49433" lon="6.63609">
        <ele>2494.6000976562</ele>
        <time>2016-03-07T10:41:29.000Z</time>
      </trkpt>
      <trkpt lat="45.49433" lon="6.63608">
        <ele>2494.3999023438</ele>
        <time>2016-03-07T10:41:32.000Z</time>
      </trkpt>
      <trkpt lat="45.49432" lon="6.63606">
        <ele>2494.1999511719</ele>
        <time>2016-03-07T10:41:38.000Z</time>
      </trkpt>
      <trkpt lat="45.4943" lon="6.63592">
        <ele>2493.6000976562</ele>
        <time>2016-03-07T10:41:41.000Z</time>
      </trkpt>
      <trkpt lat="45.49428" lon="6.63579">
        <ele>2493</ele>
        <time>2016-03-07T10:41:43.000Z</time>
      </trkpt>
      <trkpt lat="45.49426" lon="6.63573">
        <ele>2492.8000488281</ele>
        <time>2016-03-07T10:41:44.000Z</time>
      </trkpt>
      <trkpt lat="45.49422" lon="6.6356">
        <ele>2491.1999511719</ele>
        <time>2016-03-07T10:41:46.000Z</time>
      </trkpt>
      <trkpt lat="45.49419" lon="6.63553">
        <ele>2490.1999511719</ele>
        <time>2016-03-07T10:41:47.000Z</time>
      </trkpt>
      <trkpt lat="45.49417" lon="6.63545">
        <ele>2488.8000488281</ele>
        <time>2016-03-07T10:41:48.000Z</time>
      </trkpt>
      <trkpt lat="45.49415" lon="6.63537">
        <ele>2487.3999023438</ele>
        <time>2016-03-07T10:41:49.000Z</time>
      </trkpt>
      <trkpt lat="45.49413" lon="6.63529">
        <ele>2485.6000976562</ele>
        <time>2016-03-07T10:41:50.000Z</time>
      </trkpt>
      <trkpt lat="45.49411" lon="6.6352">
        <ele>2483.8000488281</ele>
        <time>2016-03-07T10:41:51.000Z</time>
      </trkpt>
      <trkpt lat="45.49409" lon="6.63512">
        <ele>2482.1999511719</ele>
        <time>2016-03-07T10:41:52.000Z</time>
      </trkpt>
      <trkpt lat="45.49407" lon="6.63505">
        <ele>2480.3999023438</ele>
        <time>2016-03-07T10:41:53.000Z</time>
      </trkpt>
      <trkpt lat="45.49405" lon="6.63497">
        <ele>2478.6000976562</ele>
        <time>2016-03-07T10:41:54.000Z</time>
      </trkpt>
      <trkpt lat="45.49403" lon="6.63489">
        <ele>2476.8000488281</ele>
        <time>2016-03-07T10:41:55.000Z</time>
      </trkpt>
      <trkpt lat="45.49402" lon="6.63481">
        <ele>2475</ele>
        <time>2016-03-07T10:41:56.000Z</time>
      </trkpt>
      <trkpt lat="45.49402" lon="6.63473">
        <ele>2472.1999511719</ele>
        <time>2016-03-07T10:41:57.000Z</time>
      </trkpt>
      <trkpt lat="45.49403" lon="6.63466">
        <ele>2471</ele>
        <time>2016-03-07T10:41:58.000Z</time>
      </trkpt>
      <trkpt lat="45.49404" lon="6.63459">
        <ele>2470</ele>
        <time>2016-03-07T10:41:59.000Z</time>
      </trkpt>
      <trkpt lat="45.49406" lon="6.63452">
        <ele>2468.1999511719</ele>
        <time>2016-03-07T10:42:01.000Z</time>
      </trkpt>
      <trkpt lat="45.49407" lon="6.63452">
        <ele>2467</ele>
        <time>2016-03-07T10:42:02.000Z</time>
      </trkpt>
      <trkpt lat="45.49407" lon="6.63452">
        <ele>2466</ele>
        <time>2016-03-07T10:42:03.000Z</time>
      </trkpt>
      <trkpt lat="45.49409" lon="6.63451">
        <ele>2464.6000976562</ele>
        <time>2016-03-07T10:42:05.000Z</time>
      </trkpt>
      <trkpt lat="45.49411" lon="6.63451">
        <ele>2463.3999023438</ele>
        <time>2016-03-07T10:42:08.000Z</time>
      </trkpt>
      <trkpt lat="45.49412" lon="6.63451">
        <ele>2463</ele>
        <time>2016-03-07T10:42:16.000Z</time>
      </trkpt>
      <trkpt lat="45.4941" lon="6.6345">
        <ele>2463</ele>
        <time>2016-03-07T10:42:21.000Z</time>
      </trkpt>
      <trkpt lat="45.4941" lon="6.63447">
        <ele>2463</ele>
        <time>2016-03-07T10:42:22.000Z</time>
      </trkpt>
      <trkpt lat="45.49415" lon="6.63438">
        <ele>2462.8000488281</ele>
        <time>2016-03-07T10:42:25.000Z</time>
      </trkpt>
      <trkpt lat="45.49416" lon="6.63438">
        <ele>2462.6000976562</ele>
        <time>2016-03-07T10:42:26.000Z</time>
      </trkpt>
      <trkpt lat="45.49417" lon="6.63438">
        <ele>2462.1999511719</ele>
        <time>2016-03-07T10:42:27.000Z</time>
      </trkpt>
      <trkpt lat="45.49417" lon="6.63438">
        <ele>2461.8000488281</ele>
        <time>2016-03-07T10:42:28.000Z</time>
      </trkpt>
      <trkpt lat="45.49417" lon="6.63437">
        <ele>2461.3999023438</ele>
        <time>2016-03-07T10:42:29.000Z</time>
      </trkpt>
      <trkpt lat="45.49416" lon="6.63435">
        <ele>2461</ele>
        <time>2016-03-07T10:42:30.000Z</time>
      </trkpt>
      <trkpt lat="45.49415" lon="6.63428">
        <ele>2460.1999511719</ele>
        <time>2016-03-07T10:42:32.000Z</time>
      </trkpt>
      <trkpt lat="45.49413" lon="6.63423">
        <ele>2459.8000488281</ele>
        <time>2016-03-07T10:42:33.000Z</time>
      </trkpt>
      <trkpt lat="45.49408" lon="6.63408">
        <ele>2459.1999511719</ele>
        <time>2016-03-07T10:42:35.000Z</time>
      </trkpt>
      <trkpt lat="45.49404" lon="6.63391">
        <ele>2458.3999023438</ele>
        <time>2016-03-07T10:42:37.000Z</time>
      </trkpt>
      <trkpt lat="45.49401" lon="6.63375">
        <ele>2457</ele>
        <time>2016-03-07T10:42:39.000Z</time>
      </trkpt>
      <trkpt lat="45.49401" lon="6.63368">
        <ele>2456</ele>
        <time>2016-03-07T10:42:40.000Z</time>
      </trkpt>
      <trkpt lat="45.49401" lon="6.63362">
        <ele>2455.1999511719</ele>
        <time>2016-03-07T10:42:41.000Z</time>
      </trkpt>
      <trkpt lat="45.494" lon="6.63356">
        <ele>2454.1999511719</ele>
        <time>2016-03-07T10:42:42.000Z</time>
      </trkpt>
      <trkpt lat="45.49401" lon="6.63351">
        <ele>2453</ele>
        <time>2016-03-07T10:42:43.000Z</time>
      </trkpt>
      <trkpt lat="45.49402" lon="6.63345">
        <ele>2452</ele>
        <time>2016-03-07T10:42:44.000Z</time>
      </trkpt>
      <trkpt lat="45.49403" lon="6.63339">
        <ele>2450.3999023438</ele>
        <time>2016-03-07T10:42:45.000Z</time>
      </trkpt>
      <trkpt lat="45.49409" lon="6.63329">
        <ele>2449.3999023438</ele>
        <time>2016-03-07T10:42:47.000Z</time>
      </trkpt>
      <trkpt lat="45.49414" lon="6.63323">
        <ele>2448.1999511719</ele>
        <time>2016-03-07T10:42:49.000Z</time>
      </trkpt>
      <trkpt lat="45.49417" lon="6.6332">
        <ele>2446.8000488281</ele>
        <time>2016-03-07T10:42:51.000Z</time>
      </trkpt>
      <trkpt lat="45.49419" lon="6.63317">
        <ele>2445.1999511719</ele>
        <time>2016-03-07T10:42:53.000Z</time>
      </trkpt>
      <trkpt lat="45.49421" lon="6.63313">
        <ele>2444.6000976562</ele>
        <time>2016-03-07T10:42:55.000Z</time>
      </trkpt>
      <trkpt lat="45.49423" lon="6.6331">
        <ele>2444</ele>
        <time>2016-03-07T10:42:57.000Z</time>
      </trkpt>
      <trkpt lat="45.49426" lon="6.63305">
        <ele>2443</ele>
        <time>2016-03-07T10:43:00.000Z</time>
      </trkpt>
      <trkpt lat="45.49428" lon="6.63303">
        <ele>2442.8000488281</ele>
        <time>2016-03-07T10:43:01.000Z</time>
      </trkpt>
      <trkpt lat="45.49432" lon="6.63298">
        <ele>2441.6000976562</ele>
        <time>2016-03-07T10:43:05.000Z</time>
      </trkpt>
      <trkpt lat="45.49434" lon="6.63294">
        <ele>2440.8000488281</ele>
        <time>2016-03-07T10:43:08.000Z</time>
      </trkpt>
      <trkpt lat="45.49435" lon="6.63292">
        <ele>2440.1999511719</ele>
        <time>2016-03-07T10:43:09.000Z</time>
      </trkpt>
      <trkpt lat="45.49438" lon="6.63286">
        <ele>2439.6000976562</ele>
        <time>2016-03-07T10:43:13.000Z</time>
      </trkpt>
      <trkpt lat="45.49439" lon="6.63282">
        <ele>2439</ele>
        <time>2016-03-07T10:43:15.000Z</time>
      </trkpt>
      <trkpt lat="45.49443" lon="6.63272">
        <ele>2438.6000976562</ele>
        <time>2016-03-07T10:43:18.000Z</time>
      </trkpt>
      <trkpt lat="45.49447" lon="6.63264">
        <ele>2438</ele>
        <time>2016-03-07T10:43:20.000Z</time>
      </trkpt>
      <trkpt lat="45.49451" lon="6.63256">
        <ele>2436.8000488281</ele>
        <time>2016-03-07T10:43:22.000Z</time>
      </trkpt>
      <trkpt lat="45.49454" lon="6.63249">
        <ele>2435.8000488281</ele>
        <time>2016-03-07T10:43:24.000Z</time>
      </trkpt>
      <trkpt lat="45.49457" lon="6.63241">
        <ele>2434.6000976562</ele>
        <time>2016-03-07T10:43:26.000Z</time>
      </trkpt>
      <trkpt lat="45.4946" lon="6.63233">
        <ele>2433.1999511719</ele>
        <time>2016-03-07T10:43:28.000Z</time>
      </trkpt>
      <trkpt lat="45.49462" lon="6.63224">
        <ele>2432</ele>
        <time>2016-03-07T10:43:30.000Z</time>
      </trkpt>
      <trkpt lat="45.49465" lon="6.63214">
        <ele>2431</ele>
        <time>2016-03-07T10:43:32.000Z</time>
      </trkpt>
      <trkpt lat="45.49466" lon="6.63207">
        <ele>2430</ele>
        <time>2016-03-07T10:43:33.000Z</time>
      </trkpt>
      <trkpt lat="45.4947" lon="6.63192">
        <ele>2428.6000976562</ele>
        <time>2016-03-07T10:43:35.000Z</time>
      </trkpt>
      <trkpt lat="45.49472" lon="6.63178">
        <ele>2427.1999511719</ele>
        <time>2016-03-07T10:43:37.000Z</time>
      </trkpt>
      <trkpt lat="45.49473" lon="6.63167">
        <ele>2425.6000976562</ele>
        <time>2016-03-07T10:43:39.000Z</time>
      </trkpt>
      <trkpt lat="45.49473" lon="6.63158">
        <ele>2424</ele>
        <time>2016-03-07T10:43:41.000Z</time>
      </trkpt>
      <trkpt lat="45.49473" lon="6.63155">
        <ele>2423.1999511719</ele>
        <time>2016-03-07T10:43:42.000Z</time>
      </trkpt>
      <trkpt lat="45.49472" lon="6.63151">
        <ele>2422.1999511719</ele>
        <time>2016-03-07T10:43:43.000Z</time>
      </trkpt>
      <trkpt lat="45.49471" lon="6.63145">
        <ele>2420.8000488281</ele>
        <time>2016-03-07T10:43:45.000Z</time>
      </trkpt>
      <trkpt lat="45.4947" lon="6.63143">
        <ele>2419.6000976562</ele>
        <time>2016-03-07T10:43:47.000Z</time>
      </trkpt>
      <trkpt lat="45.4947" lon="6.63143">
        <ele>2418.6000976562</ele>
        <time>2016-03-07T10:43:49.000Z</time>
      </trkpt>
      <trkpt lat="45.4947" lon="6.63142">
        <ele>2417.6000976562</ele>
        <time>2016-03-07T10:43:54.000Z</time>
      </trkpt>
      <trkpt lat="45.4947" lon="6.63141">
        <ele>2417.6000976562</ele>
        <time>2016-03-07T10:43:55.000Z</time>
      </trkpt>
      <trkpt lat="45.4947" lon="6.63133">
        <ele>2417.6000976562</ele>
        <time>2016-03-07T10:43:59.000Z</time>
      </trkpt>
      <trkpt lat="45.49466" lon="6.63113">
        <ele>2416.1999511719</ele>
        <time>2016-03-07T10:44:04.000Z</time>
      </trkpt>
      <trkpt lat="45.49464" lon="6.63105">
        <ele>2415.3999023438</ele>
        <time>2016-03-07T10:44:06.000Z</time>
      </trkpt>
      <trkpt lat="45.49463" lon="6.63101">
        <ele>2415</ele>
        <time>2016-03-07T10:44:07.000Z</time>
      </trkpt>
      <trkpt lat="45.49461" lon="6.63093">
        <ele>2414</ele>
        <time>2016-03-07T10:44:09.000Z</time>
      </trkpt>
      <trkpt lat="45.49458" lon="6.63084">
        <ele>2413</ele>
        <time>2016-03-07T10:44:11.000Z</time>
      </trkpt>
      <trkpt lat="45.49458" lon="6.63078">
        <ele>2412.3999023438</ele>
        <time>2016-03-07T10:44:12.000Z</time>
      </trkpt>
      <trkpt lat="45.49458" lon="6.63071">
        <ele>2411.6000976562</ele>
        <time>2016-03-07T10:44:13.000Z</time>
      </trkpt>
      <trkpt lat="45.49456" lon="6.63055">
        <ele>2410.1999511719</ele>
        <time>2016-03-07T10:44:15.000Z</time>
      </trkpt>
      <trkpt lat="45.49454" lon="6.63048">
        <ele>2409.3999023438</ele>
        <time>2016-03-07T10:44:16.000Z</time>
      </trkpt>
      <trkpt lat="45.49451" lon="6.63041">
        <ele>2408.6000976562</ele>
        <time>2016-03-07T10:44:17.000Z</time>
      </trkpt>
      <trkpt lat="45.49449" lon="6.63035">
        <ele>2407.3999023438</ele>
        <time>2016-03-07T10:44:18.000Z</time>
      </trkpt>
      <trkpt lat="45.49448" lon="6.63029">
        <ele>2405.8000488281</ele>
        <time>2016-03-07T10:44:19.000Z</time>
      </trkpt>
      <trkpt lat="45.49448" lon="6.63023">
        <ele>2404</ele>
        <time>2016-03-07T10:44:20.000Z</time>
      </trkpt>
      <trkpt lat="45.49448" lon="6.63015">
        <ele>2400</ele>
        <time>2016-03-07T10:44:21.000Z</time>
      </trkpt>
      <trkpt lat="45.49449" lon="6.63007">
        <ele>2398.1999511719</ele>
        <time>2016-03-07T10:44:22.000Z</time>
      </trkpt>
      <trkpt lat="45.4945" lon="6.62998">
        <ele>2396.6000976562</ele>
        <time>2016-03-07T10:44:23.000Z</time>
      </trkpt>
      <trkpt lat="45.49451" lon="6.6299">
        <ele>2395</ele>
        <time>2016-03-07T10:44:24.000Z</time>
      </trkpt>
      <trkpt lat="45.49453" lon="6.62982">
        <ele>2393</ele>
        <time>2016-03-07T10:44:25.000Z</time>
      </trkpt>
      <trkpt lat="45.49455" lon="6.62974">
        <ele>2390.8000488281</ele>
        <time>2016-03-07T10:44:26.000Z</time>
      </trkpt>
      <trkpt lat="45.49457" lon="6.62965">
        <ele>2388.3999023438</ele>
        <time>2016-03-07T10:44:27.000Z</time>
      </trkpt>
      <trkpt lat="45.49458" lon="6.62957">
        <ele>2386.1999511719</ele>
        <time>2016-03-07T10:44:28.000Z</time>
      </trkpt>
      <trkpt lat="45.49459" lon="6.6295">
        <ele>2383.8000488281</ele>
        <time>2016-03-07T10:44:29.000Z</time>
      </trkpt>
      <trkpt lat="45.4946" lon="6.62941">
        <ele>2381.6000976562</ele>
        <time>2016-03-07T10:44:30.000Z</time>
      </trkpt>
      <trkpt lat="45.49461" lon="6.62932">
        <ele>2379.3999023438</ele>
        <time>2016-03-07T10:44:31.000Z</time>
      </trkpt>
      <trkpt lat="45.49462" lon="6.62922">
        <ele>2377.1999511719</ele>
        <time>2016-03-07T10:44:32.000Z</time>
      </trkpt>
      <trkpt lat="45.49464" lon="6.62911">
        <ele>2375</ele>
        <time>2016-03-07T10:44:33.000Z</time>
      </trkpt>
      <trkpt lat="45.49467" lon="6.62899">
        <ele>2373.1999511719</ele>
        <time>2016-03-07T10:44:34.000Z</time>
      </trkpt>
      <trkpt lat="45.4947" lon="6.62888">
        <ele>2371.3999023438</ele>
        <time>2016-03-07T10:44:35.000Z</time>
      </trkpt>
      <trkpt lat="45.49473" lon="6.62879">
        <ele>2369.6000976562</ele>
        <time>2016-03-07T10:44:36.000Z</time>
      </trkpt>
      <trkpt lat="45.49476" lon="6.6287">
        <ele>2367.6000976562</ele>
        <time>2016-03-07T10:44:37.000Z</time>
      </trkpt>
      <trkpt lat="45.49478" lon="6.62861">
        <ele>2365.6000976562</ele>
        <time>2016-03-07T10:44:38.000Z</time>
      </trkpt>
      <trkpt lat="45.4948" lon="6.62852">
        <ele>2363.3999023438</ele>
        <time>2016-03-07T10:44:39.000Z</time>
      </trkpt>
      <trkpt lat="45.49481" lon="6.62842">
        <ele>2361.1999511719</ele>
        <time>2016-03-07T10:44:40.000Z</time>
      </trkpt>
      <trkpt lat="45.49482" lon="6.62833">
        <ele>2359.3999023438</ele>
        <time>2016-03-07T10:44:41.000Z</time>
      </trkpt>
      <trkpt lat="45.49482" lon="6.62823">
        <ele>2357.8000488281</ele>
        <time>2016-03-07T10:44:42.000Z</time>
      </trkpt>
      <trkpt lat="45.49481" lon="6.62814">
        <ele>2356.3999023438</ele>
        <time>2016-03-07T10:44:43.000Z</time>
      </trkpt>
      <trkpt lat="45.49478" lon="6.62806">
        <ele>2355</ele>
        <time>2016-03-07T10:44:44.000Z</time>
      </trkpt>
      <trkpt lat="45.49476" lon="6.628">
        <ele>2352.3999023438</ele>
        <time>2016-03-07T10:44:45.000Z</time>
      </trkpt>
      <trkpt lat="45.49474" lon="6.62796">
        <ele>2351</ele>
        <time>2016-03-07T10:44:46.000Z</time>
      </trkpt>
      <trkpt lat="45.49472" lon="6.62794">
        <ele>2349.6000976562</ele>
        <time>2016-03-07T10:44:47.000Z</time>
      </trkpt>
      <trkpt lat="45.49472" lon="6.62794">
        <ele>2348.6000976562</ele>
        <time>2016-03-07T10:44:48.000Z</time>
      </trkpt>
      <trkpt lat="45.49472" lon="6.62794">
        <ele>2348</ele>
        <time>2016-03-07T10:44:49.000Z</time>
      </trkpt>
      <trkpt lat="45.49471" lon="6.62792">
        <ele>2347.8000488281</ele>
        <time>2016-03-07T10:44:54.000Z</time>
      </trkpt>
      <trkpt lat="45.49468" lon="6.62781">
        <ele>2347.1999511719</ele>
        <time>2016-03-07T10:44:59.000Z</time>
      </trkpt>
      <trkpt lat="45.49468" lon="6.62777">
        <ele>2347</ele>
        <time>2016-03-07T10:45:00.000Z</time>
      </trkpt>
      <trkpt lat="45.49467" lon="6.62761">
        <ele>2346.6000976562</ele>
        <time>2016-03-07T10:45:03.000Z</time>
      </trkpt>
      <trkpt lat="45.49467" lon="6.62753">
        <ele>2345.8000488281</ele>
        <time>2016-03-07T10:45:05.000Z</time>
      </trkpt>
      <trkpt lat="45.49468" lon="6.62747">
        <ele>2344.8000488281</ele>
        <time>2016-03-07T10:45:07.000Z</time>
      </trkpt>
      <trkpt lat="45.49469" lon="6.62743">
        <ele>2344.3999023438</ele>
        <time>2016-03-07T10:45:08.000Z</time>
      </trkpt>
      <trkpt lat="45.49471" lon="6.6273">
        <ele>2343.3999023438</ele>
        <time>2016-03-07T10:45:10.000Z</time>
      </trkpt>
      <trkpt lat="45.49472" lon="6.6272">
        <ele>2342.8000488281</ele>
        <time>2016-03-07T10:45:11.000Z</time>
      </trkpt>
      <trkpt lat="45.49473" lon="6.62711">
        <ele>2342.1999511719</ele>
        <time>2016-03-07T10:45:12.000Z</time>
      </trkpt>
      <trkpt lat="45.49475" lon="6.62696">
        <ele>2340.6000976562</ele>
        <time>2016-03-07T10:45:14.000Z</time>
      </trkpt>
      <trkpt lat="45.49477" lon="6.62689">
        <ele>2339.6000976562</ele>
        <time>2016-03-07T10:45:15.000Z</time>
      </trkpt>
      <trkpt lat="45.49479" lon="6.62682">
        <ele>2338.1999511719</ele>
        <time>2016-03-07T10:45:16.000Z</time>
      </trkpt>
      <trkpt lat="45.4948" lon="6.62674">
        <ele>2337</ele>
        <time>2016-03-07T10:45:17.000Z</time>
      </trkpt>
      <trkpt lat="45.49481" lon="6.62666">
        <ele>2335.6000976562</ele>
        <time>2016-03-07T10:45:18.000Z</time>
      </trkpt>
      <trkpt lat="45.49483" lon="6.62657">
        <ele>2334.3999023438</ele>
        <time>2016-03-07T10:45:19.000Z</time>
      </trkpt>
      <trkpt lat="45.49484" lon="6.62648">
        <ele>2333.1999511719</ele>
        <time>2016-03-07T10:45:20.000Z</time>
      </trkpt>
      <trkpt lat="45.49486" lon="6.62637">
        <ele>2332</ele>
        <time>2016-03-07T10:45:21.000Z</time>
      </trkpt>
      <trkpt lat="45.49488" lon="6.62626">
        <ele>2330.6000976562</ele>
        <time>2016-03-07T10:45:22.000Z</time>
      </trkpt>
      <trkpt lat="45.49489" lon="6.62615">
        <ele>2329</ele>
        <time>2016-03-07T10:45:23.000Z</time>
      </trkpt>
      <trkpt lat="45.49491" lon="6.62606">
        <ele>2327.3999023438</ele>
        <time>2016-03-07T10:45:24.000Z</time>
      </trkpt>
      <trkpt lat="45.49492" lon="6.62597">
        <ele>2325.6000976562</ele>
        <time>2016-03-07T10:45:25.000Z</time>
      </trkpt>
      <trkpt lat="45.49493" lon="6.62588">
        <ele>2323.8000488281</ele>
        <time>2016-03-07T10:45:26.000Z</time>
      </trkpt>
      <trkpt lat="45.49494" lon="6.6258">
        <ele>2321.6000976562</ele>
        <time>2016-03-07T10:45:27.000Z</time>
      </trkpt>
      <trkpt lat="45.49494" lon="6.62572">
        <ele>2319.6000976562</ele>
        <time>2016-03-07T10:45:28.000Z</time>
      </trkpt>
      <trkpt lat="45.49494" lon="6.62564">
        <ele>2317.6000976562</ele>
        <time>2016-03-07T10:45:29.000Z</time>
      </trkpt>
      <trkpt lat="45.49495" lon="6.62555">
        <ele>2315.8000488281</ele>
        <time>2016-03-07T10:45:30.000Z</time>
      </trkpt>
      <trkpt lat="45.49495" lon="6.62547">
        <ele>2314.1999511719</ele>
        <time>2016-03-07T10:45:31.000Z</time>
      </trkpt>
      <trkpt lat="45.49496" lon="6.62537">
        <ele>2312.8000488281</ele>
        <time>2016-03-07T10:45:32.000Z</time>
      </trkpt>
      <trkpt lat="45.49499" lon="6.62525">
        <ele>2310.1999511719</ele>
        <time>2016-03-07T10:45:33.000Z</time>
      </trkpt>
      <trkpt lat="45.49502" lon="6.62515">
        <ele>2309.1999511719</ele>
        <time>2016-03-07T10:45:34.000Z</time>
      </trkpt>
      <trkpt lat="45.49505" lon="6.62506">
        <ele>2308</ele>
        <time>2016-03-07T10:45:35.000Z</time>
      </trkpt>
      <trkpt lat="45.49507" lon="6.62498">
        <ele>2306.3999023438</ele>
        <time>2016-03-07T10:45:36.000Z</time>
      </trkpt>
      <trkpt lat="45.49509" lon="6.62494">
        <ele>2304.3999023438</ele>
        <time>2016-03-07T10:45:37.000Z</time>
      </trkpt>
      <trkpt lat="45.49509" lon="6.62491">
        <ele>2302.1999511719</ele>
        <time>2016-03-07T10:45:38.000Z</time>
      </trkpt>
      <trkpt lat="45.4951" lon="6.62489">
        <ele>2300.1999511719</ele>
        <time>2016-03-07T10:45:39.000Z</time>
      </trkpt>
      <trkpt lat="45.4951" lon="6.62488">
        <ele>2298.3999023438</ele>
        <time>2016-03-07T10:45:40.000Z</time>
      </trkpt>
      <trkpt lat="45.4951" lon="6.62488">
        <ele>2297</ele>
        <time>2016-03-07T10:45:41.000Z</time>
      </trkpt>
      <trkpt lat="45.4951" lon="6.62486">
        <ele>2296</ele>
        <time>2016-03-07T10:45:43.000Z</time>
      </trkpt>
      <trkpt lat="45.49512" lon="6.62483">
        <ele>2295.8000488281</ele>
        <time>2016-03-07T10:45:46.000Z</time>
      </trkpt>
      <trkpt lat="45.49513" lon="6.62482">
        <ele>2295.8000488281</ele>
        <time>2016-03-07T10:45:47.000Z</time>
      </trkpt>
      <trkpt lat="45.49513" lon="6.62482">
        <ele>2295.6000976562</ele>
        <time>2016-03-07T10:45:54.000Z</time>
      </trkpt>
      <trkpt lat="45.49513" lon="6.62481">
        <ele>2295.3999023438</ele>
        <time>2016-03-07T10:46:02.000Z</time>
      </trkpt>
      <trkpt lat="45.49514" lon="6.62482">
        <ele>2295</ele>
        <time>2016-03-07T10:46:08.000Z</time>
      </trkpt>
      <trkpt lat="45.49516" lon="6.62484">
        <ele>2295.1999511719</ele>
        <time>2016-03-07T10:46:13.000Z</time>
      </trkpt>
      <trkpt lat="45.49516" lon="6.62484">
        <ele>2294.8000488281</ele>
        <time>2016-03-07T10:46:25.000Z</time>
      </trkpt>
      <trkpt lat="45.49516" lon="6.62484">
        <ele>2294.3999023438</ele>
        <time>2016-03-07T10:46:29.000Z</time>
      </trkpt>
      <trkpt lat="45.49516" lon="6.62484">
        <ele>2295.3999023438</ele>
        <time>2016-03-07T10:46:46.000Z</time>
      </trkpt>
      <trkpt lat="45.49516" lon="6.62484">
        <ele>2295.1999511719</ele>
        <time>2016-03-07T10:46:51.000Z</time>
      </trkpt>
      <trkpt lat="45.49517" lon="6.62484">
        <ele>2294.8000488281</ele>
        <time>2016-03-07T10:47:02.000Z</time>
      </trkpt>
      <trkpt lat="45.49517" lon="6.62484">
        <ele>2294.6000976562</ele>
        <time>2016-03-07T10:47:20.000Z</time>
      </trkpt>
      <trkpt lat="45.49517" lon="6.62484">
        <ele>2294.6000976562</ele>
        <time>2016-03-07T10:47:38.000Z</time>
      </trkpt>
      <trkpt lat="45.49517" lon="6.62484">
        <ele>2294.3999023438</ele>
        <time>2016-03-07T10:47:47.000Z</time>
      </trkpt>
      <trkpt lat="45.49517" lon="6.62484">
        <ele>2294.3999023438</ele>
        <time>2016-03-07T10:47:59.000Z</time>
      </trkpt>
      <trkpt lat="45.49517" lon="6.62483">
        <ele>2295</ele>
        <time>2016-03-07T10:48:14.000Z</time>
      </trkpt>
      <trkpt lat="45.49517" lon="6.62483">
        <ele>2294.8000488281</ele>
        <time>2016-03-07T10:48:30.000Z</time>
      </trkpt>
      <trkpt lat="45.49517" lon="6.62483">
        <ele>2294.1999511719</ele>
        <time>2016-03-07T10:48:48.000Z</time>
      </trkpt>
      <trkpt lat="45.49517" lon="6.62484">
        <ele>2294</ele>
        <time>2016-03-07T10:49:00.000Z</time>
      </trkpt>
      <trkpt lat="45.49517" lon="6.62484">
        <ele>2294.6000976562</ele>
        <time>2016-03-07T10:49:14.000Z</time>
      </trkpt>
      <trkpt lat="45.49517" lon="6.62484">
        <ele>2294.6000976562</ele>
        <time>2016-03-07T10:49:29.000Z</time>
      </trkpt>
      <trkpt lat="45.49517" lon="6.62484">
        <ele>2294.6000976562</ele>
        <time>2016-03-07T10:49:43.000Z</time>
      </trkpt>
      <trkpt lat="45.49517" lon="6.62484">
        <ele>2294.3999023438</ele>
        <time>2016-03-07T10:49:57.000Z</time>
      </trkpt>
      <trkpt lat="45.49516" lon="6.62486">
        <ele>2294.3999023438</ele>
        <time>2016-03-07T10:50:05.000Z</time>
      </trkpt>
      <trkpt lat="45.49516" lon="6.62486">
        <ele>2294.3999023438</ele>
        <time>2016-03-07T10:50:06.000Z</time>
      </trkpt>
      <trkpt lat="45.49513" lon="6.62495">
        <ele>2294.3999023438</ele>
        <time>2016-03-07T10:50:12.000Z</time>
      </trkpt>
      <trkpt lat="45.4951" lon="6.62506">
        <ele>2294</ele>
        <time>2016-03-07T10:50:18.000Z</time>
      </trkpt>
      <trkpt lat="45.49508" lon="6.62511">
        <ele>2293.8000488281</ele>
        <time>2016-03-07T10:50:21.000Z</time>
      </trkpt>
      <trkpt lat="45.49508" lon="6.62515">
        <ele>2293.6000976562</ele>
        <time>2016-03-07T10:50:23.000Z</time>
      </trkpt>
      <trkpt lat="45.49504" lon="6.62524">
        <ele>2294.3999023438</ele>
        <time>2016-03-07T10:50:29.000Z</time>
      </trkpt>
      <trkpt lat="45.49502" lon="6.62529">
        <ele>2294.8000488281</ele>
        <time>2016-03-07T10:50:31.000Z</time>
      </trkpt>
      <trkpt lat="45.495" lon="6.62533">
        <ele>2295</ele>
        <time>2016-03-07T10:50:34.000Z</time>
      </trkpt>
      <trkpt lat="45.49497" lon="6.62538">
        <ele>2295.3999023438</ele>
        <time>2016-03-07T10:50:39.000Z</time>
      </trkpt>
      <trkpt lat="45.49495" lon="6.62542">
        <ele>2296</ele>
        <time>2016-03-07T10:50:43.000Z</time>
      </trkpt>
      <trkpt lat="45.49494" lon="6.62544">
        <ele>2296.3999023438</ele>
        <time>2016-03-07T10:50:45.000Z</time>
      </trkpt>
      <trkpt lat="45.49493" lon="6.62545">
        <ele>2297</ele>
        <time>2016-03-07T10:50:47.000Z</time>
      </trkpt>
      <trkpt lat="45.49492" lon="6.62547">
        <ele>2298</ele>
        <time>2016-03-07T10:50:50.000Z</time>
      </trkpt>
      <trkpt lat="45.4949" lon="6.62549">
        <ele>2298.3999023438</ele>
        <time>2016-03-07T10:50:52.000Z</time>
      </trkpt>
      <trkpt lat="45.49489" lon="6.62551">
        <ele>2299</ele>
        <time>2016-03-07T10:50:55.000Z</time>
      </trkpt>
      <trkpt lat="45.49487" lon="6.62555">
        <ele>2300</ele>
        <time>2016-03-07T10:50:59.000Z</time>
      </trkpt>
      <trkpt lat="45.49487" lon="6.62555">
        <ele>2300.1999511719</ele>
        <time>2016-03-07T10:51:00.000Z</time>
      </trkpt>
      <trkpt lat="45.49486" lon="6.62558">
        <ele>2301.1999511719</ele>
        <time>2016-03-07T10:51:04.000Z</time>
      </trkpt>
      <trkpt lat="45.49486" lon="6.62559">
        <ele>2301.3999023438</ele>
        <time>2016-03-07T10:51:05.000Z</time>
      </trkpt>
      <trkpt lat="45.49484" lon="6.62562">
        <ele>2302.1999511719</ele>
        <time>2016-03-07T10:51:09.000Z</time>
      </trkpt>
      <trkpt lat="45.49483" lon="6.62564">
        <ele>2303</ele>
        <time>2016-03-07T10:51:12.000Z</time>
      </trkpt>
      <trkpt lat="45.49482" lon="6.62566">
        <ele>2303.3999023438</ele>
        <time>2016-03-07T10:51:14.000Z</time>
      </trkpt>
      <trkpt lat="45.49482" lon="6.62569">
        <ele>2304.1999511719</ele>
        <time>2016-03-07T10:51:18.000Z</time>
      </trkpt>
      <trkpt lat="45.49481" lon="6.62571">
        <ele>2304.3999023438</ele>
        <time>2016-03-07T10:51:20.000Z</time>
      </trkpt>
      <trkpt lat="45.4948" lon="6.62574">
        <ele>2305.1999511719</ele>
        <time>2016-03-07T10:51:24.000Z</time>
      </trkpt>
      <trkpt lat="45.49478" lon="6.62577">
        <ele>2305.6000976562</ele>
        <time>2016-03-07T10:51:28.000Z</time>
      </trkpt>
      <trkpt lat="45.49478" lon="6.62579">
        <ele>2305.6000976562</ele>
        <time>2016-03-07T10:51:30.000Z</time>
      </trkpt>
      <trkpt lat="45.49477" lon="6.62581">
        <ele>2306.8000488281</ele>
        <time>2016-03-07T10:51:34.000Z</time>
      </trkpt>
      <trkpt lat="45.49475" lon="6.62583">
        <ele>2307.6000976562</ele>
        <time>2016-03-07T10:51:39.000Z</time>
      </trkpt>
      <trkpt lat="45.49475" lon="6.62583">
        <ele>2308</ele>
        <time>2016-03-07T10:51:40.000Z</time>
      </trkpt>
      <trkpt lat="45.49473" lon="6.62585">
        <ele>2309</ele>
        <time>2016-03-07T10:51:43.000Z</time>
      </trkpt>
      <trkpt lat="45.49472" lon="6.62586">
        <ele>2309.8000488281</ele>
        <time>2016-03-07T10:51:46.000Z</time>
      </trkpt>
      <trkpt lat="45.49471" lon="6.6259">
        <ele>2310.1999511719</ele>
        <time>2016-03-07T10:51:49.000Z</time>
      </trkpt>
      <trkpt lat="45.49471" lon="6.62592">
        <ele>2310.3999023438</ele>
        <time>2016-03-07T10:51:51.000Z</time>
      </trkpt>
      <trkpt lat="45.49471" lon="6.62597">
        <ele>2311</ele>
        <time>2016-03-07T10:51:56.000Z</time>
      </trkpt>
      <trkpt lat="45.49471" lon="6.62598">
        <ele>2311.1999511719</ele>
        <time>2016-03-07T10:51:57.000Z</time>
      </trkpt>
      <trkpt lat="45.4947" lon="6.62603">
        <ele>2311.8000488281</ele>
        <time>2016-03-07T10:52:01.000Z</time>
      </trkpt>
      <trkpt lat="45.49469" lon="6.62607">
        <ele>2312.1999511719</ele>
        <time>2016-03-07T10:52:05.000Z</time>
      </trkpt>
      <trkpt lat="45.49469" lon="6.62608">
        <ele>2312.6000976562</ele>
        <time>2016-03-07T10:52:07.000Z</time>
      </trkpt>
      <trkpt lat="45.49468" lon="6.62613">
        <ele>2313.3999023438</ele>
        <time>2016-03-07T10:52:11.000Z</time>
      </trkpt>
      <trkpt lat="45.49468" lon="6.62614">
        <ele>2313.6000976562</ele>
        <time>2016-03-07T10:52:12.000Z</time>
      </trkpt>
      <trkpt lat="45.49467" lon="6.62619">
        <ele>2314</ele>
        <time>2016-03-07T10:52:16.000Z</time>
      </trkpt>
      <trkpt lat="45.49466" lon="6.62619">
        <ele>2314</ele>
        <time>2016-03-07T10:52:17.000Z</time>
      </trkpt>
      <trkpt lat="45.49465" lon="6.62626">
        <ele>2314.1999511719</ele>
        <time>2016-03-07T10:52:22.000Z</time>
      </trkpt>
      <trkpt lat="45.49465" lon="6.62629">
        <ele>2314.3999023438</ele>
        <time>2016-03-07T10:52:25.000Z</time>
      </trkpt>
      <trkpt lat="45.49463" lon="6.62633">
        <ele>2314.6000976562</ele>
        <time>2016-03-07T10:52:28.000Z</time>
      </trkpt>
      <trkpt lat="45.49461" lon="6.62637">
        <ele>2315.6000976562</ele>
        <time>2016-03-07T10:52:33.000Z</time>
      </trkpt>
      <trkpt lat="45.4946" lon="6.62638">
        <ele>2316</ele>
        <time>2016-03-07T10:52:35.000Z</time>
      </trkpt>
      <trkpt lat="45.49459" lon="6.6264">
        <ele>2316.8000488281</ele>
        <time>2016-03-07T10:52:38.000Z</time>
      </trkpt>
      <trkpt lat="45.49457" lon="6.62643">
        <ele>2317.1999511719</ele>
        <time>2016-03-07T10:52:41.000Z</time>
      </trkpt>
      <trkpt lat="45.49456" lon="6.62645">
        <ele>2317.8000488281</ele>
        <time>2016-03-07T10:52:43.000Z</time>
      </trkpt>
      <trkpt lat="45.49456" lon="6.62647">
        <ele>2319</ele>
        <time>2016-03-07T10:52:46.000Z</time>
      </trkpt>
      <trkpt lat="45.49455" lon="6.62649">
        <ele>2319.1999511719</ele>
        <time>2016-03-07T10:52:48.000Z</time>
      </trkpt>
      <trkpt lat="45.49453" lon="6.62652">
        <ele>2320</ele>
        <time>2016-03-07T10:52:51.000Z</time>
      </trkpt>
      <trkpt lat="45.49453" lon="6.62657">
        <ele>2320.3999023438</ele>
        <time>2016-03-07T10:52:54.000Z</time>
      </trkpt>
      <trkpt lat="45.49452" lon="6.62662">
        <ele>2321</ele>
        <time>2016-03-07T10:52:59.000Z</time>
      </trkpt>
      <trkpt lat="45.49453" lon="6.62664">
        <ele>2321.6000976562</ele>
        <time>2016-03-07T10:53:01.000Z</time>
      </trkpt>
      <trkpt lat="45.49453" lon="6.62669">
        <ele>2322.1999511719</ele>
        <time>2016-03-07T10:53:05.000Z</time>
      </trkpt>
      <trkpt lat="45.49454" lon="6.62671">
        <ele>2322.6000976562</ele>
        <time>2016-03-07T10:53:07.000Z</time>
      </trkpt>
      <trkpt lat="45.49455" lon="6.62673">
        <ele>2323.1999511719</ele>
        <time>2016-03-07T10:53:10.000Z</time>
      </trkpt>
      <trkpt lat="45.49456" lon="6.62674">
        <ele>2323.8000488281</ele>
        <time>2016-03-07T10:53:12.000Z</time>
      </trkpt>
      <trkpt lat="45.49457" lon="6.62677">
        <ele>2324.3999023438</ele>
        <time>2016-03-07T10:53:16.000Z</time>
      </trkpt>
      <trkpt lat="45.49457" lon="6.62679">
        <ele>2324.6000976562</ele>
        <time>2016-03-07T10:53:17.000Z</time>
      </trkpt>
      <trkpt lat="45.49457" lon="6.62683">
        <ele>2325.6000976562</ele>
        <time>2016-03-07T10:53:21.000Z</time>
      </trkpt>
      <trkpt lat="45.49457" lon="6.62684">
        <ele>2325.8000488281</ele>
        <time>2016-03-07T10:53:22.000Z</time>
      </trkpt>
      <trkpt lat="45.49458" lon="6.62687">
        <ele>2326.8000488281</ele>
        <time>2016-03-07T10:53:27.000Z</time>
      </trkpt>
      <trkpt lat="45.49458" lon="6.62688">
        <ele>2327</ele>
        <time>2016-03-07T10:53:28.000Z</time>
      </trkpt>
      <trkpt lat="45.49459" lon="6.62689">
        <ele>2327.3999023438</ele>
        <time>2016-03-07T10:53:29.000Z</time>
      </trkpt>
      <trkpt lat="45.4946" lon="6.62691">
        <ele>2327.8000488281</ele>
        <time>2016-03-07T10:53:32.000Z</time>
      </trkpt>
      <trkpt lat="45.49461" lon="6.62696">
        <ele>2328.8000488281</ele>
        <time>2016-03-07T10:53:37.000Z</time>
      </trkpt>
      <trkpt lat="45.49462" lon="6.62699">
        <ele>2330</ele>
        <time>2016-03-07T10:53:42.000Z</time>
      </trkpt>
      <trkpt lat="45.49462" lon="6.62702">
        <ele>2330</ele>
        <time>2016-03-07T10:53:44.000Z</time>
      </trkpt>
      <trkpt lat="45.49462" lon="6.6271">
        <ele>2331</ele>
        <time>2016-03-07T10:53:49.000Z</time>
      </trkpt>
      <trkpt lat="45.49462" lon="6.62711">
        <ele>2331</ele>
        <time>2016-03-07T10:53:50.000Z</time>
      </trkpt>
      <trkpt lat="45.49466" lon="6.62719">
        <ele>2331.6000976562</ele>
        <time>2016-03-07T10:53:55.000Z</time>
      </trkpt>
      <trkpt lat="45.49467" lon="6.62722">
        <ele>2331.8000488281</ele>
        <time>2016-03-07T10:53:59.000Z</time>
      </trkpt>
      <trkpt lat="45.49468" lon="6.62724">
        <ele>2332</ele>
        <time>2016-03-07T10:54:01.000Z</time>
      </trkpt>
      <trkpt lat="45.49467" lon="6.62727">
        <ele>2332.3999023438</ele>
        <time>2016-03-07T10:54:05.000Z</time>
      </trkpt>
      <trkpt lat="45.49466" lon="6.62731">
        <ele>2333</ele>
        <time>2016-03-07T10:54:08.000Z</time>
      </trkpt>
      <trkpt lat="45.49466" lon="6.62732">
        <ele>2333.6000976562</ele>
        <time>2016-03-07T10:54:10.000Z</time>
      </trkpt>
      <trkpt lat="45.49465" lon="6.62735">
        <ele>2334.1999511719</ele>
        <time>2016-03-07T10:54:13.000Z</time>
      </trkpt>
      <trkpt lat="45.49464" lon="6.62738">
        <ele>2334.6000976562</ele>
        <time>2016-03-07T10:54:16.000Z</time>
      </trkpt>
      <trkpt lat="45.49464" lon="6.62739">
        <ele>2335.1999511719</ele>
        <time>2016-03-07T10:54:19.000Z</time>
      </trkpt>
      <trkpt lat="45.49463" lon="6.62742">
        <ele>2336.1999511719</ele>
        <time>2016-03-07T10:54:22.000Z</time>
      </trkpt>
      <trkpt lat="45.49463" lon="6.62744">
        <ele>2336.3999023438</ele>
        <time>2016-03-07T10:54:23.000Z</time>
      </trkpt>
      <trkpt lat="45.49462" lon="6.62746">
        <ele>2336.8000488281</ele>
        <time>2016-03-07T10:54:26.000Z</time>
      </trkpt>
      <trkpt lat="45.49461" lon="6.62752">
        <ele>2337.6000976562</ele>
        <time>2016-03-07T10:54:31.000Z</time>
      </trkpt>
      <trkpt lat="45.49461" lon="6.62754">
        <ele>2337.8000488281</ele>
        <time>2016-03-07T10:54:32.000Z</time>
      </trkpt>
      <trkpt lat="45.49461" lon="6.62759">
        <ele>2338.6000976562</ele>
        <time>2016-03-07T10:54:37.000Z</time>
      </trkpt>
      <trkpt lat="45.49462" lon="6.62762">
        <ele>2339.8000488281</ele>
        <time>2016-03-07T10:54:42.000Z</time>
      </trkpt>
      <trkpt lat="45.49462" lon="6.62763">
        <ele>2340</ele>
        <time>2016-03-07T10:54:43.000Z</time>
      </trkpt>
      <trkpt lat="45.49464" lon="6.62767">
        <ele>2340.8000488281</ele>
        <time>2016-03-07T10:54:47.000Z</time>
      </trkpt>
      <trkpt lat="45.49464" lon="6.62768">
        <ele>2341</ele>
        <time>2016-03-07T10:54:48.000Z</time>
      </trkpt>
      <trkpt lat="45.49465" lon="6.62775">
        <ele>2341.8000488281</ele>
        <time>2016-03-07T10:54:53.000Z</time>
      </trkpt>
      <trkpt lat="45.49465" lon="6.62776">
        <ele>2342</ele>
        <time>2016-03-07T10:54:54.000Z</time>
      </trkpt>
      <trkpt lat="45.49467" lon="6.6278">
        <ele>2342.8000488281</ele>
        <time>2016-03-07T10:54:59.000Z</time>
      </trkpt>
      <trkpt lat="45.49468" lon="6.6278">
        <ele>2343</ele>
        <time>2016-03-07T10:55:00.000Z</time>
      </trkpt>
      <trkpt lat="45.49468" lon="6.62787">
        <ele>2343.6000976562</ele>
        <time>2016-03-07T10:55:05.000Z</time>
      </trkpt>
      <trkpt lat="45.49469" lon="6.62789">
        <ele>2344</ele>
        <time>2016-03-07T10:55:07.000Z</time>
      </trkpt>
      <trkpt lat="45.49469" lon="6.62793">
        <ele>2344.6000976562</ele>
        <time>2016-03-07T10:55:11.000Z</time>
      </trkpt>
      <trkpt lat="45.49472" lon="6.62799">
        <ele>2345</ele>
        <time>2016-03-07T10:55:16.000Z</time>
      </trkpt>
      <trkpt lat="45.49472" lon="6.628">
        <ele>2345</ele>
        <time>2016-03-07T10:55:17.000Z</time>
      </trkpt>
      <trkpt lat="45.49474" lon="6.62807">
        <ele>2345.3999023438</ele>
        <time>2016-03-07T10:55:22.000Z</time>
      </trkpt>
      <trkpt lat="45.49478" lon="6.62816">
        <ele>2345.3999023438</ele>
        <time>2016-03-07T10:55:28.000Z</time>
      </trkpt>
      <trkpt lat="45.4948" lon="6.62824">
        <ele>2344.3999023438</ele>
        <time>2016-03-07T10:55:34.000Z</time>
      </trkpt>
      <trkpt lat="45.49484" lon="6.6283">
        <ele>2345</ele>
        <time>2016-03-07T10:55:40.000Z</time>
      </trkpt>
      <trkpt lat="45.49487" lon="6.62835">
        <ele>2345.8000488281</ele>
        <time>2016-03-07T10:55:45.000Z</time>
      </trkpt>
      <trkpt lat="45.49488" lon="6.62838">
        <ele>2346</ele>
        <time>2016-03-07T10:55:48.000Z</time>
      </trkpt>
      <trkpt lat="45.4949" lon="6.62839">
        <ele>2346.3999023438</ele>
        <time>2016-03-07T10:55:50.000Z</time>
      </trkpt>
      <trkpt lat="45.4949" lon="6.62844">
        <ele>2347.1999511719</ele>
        <time>2016-03-07T10:55:54.000Z</time>
      </trkpt>
      <trkpt lat="45.4949" lon="6.62845">
        <ele>2347.1999511719</ele>
        <time>2016-03-07T10:55:55.000Z</time>
      </trkpt>
      <trkpt lat="45.49494" lon="6.62851">
        <ele>2347.6000976562</ele>
        <time>2016-03-07T10:56:00.000Z</time>
      </trkpt>
      <trkpt lat="45.49495" lon="6.62856">
        <ele>2348.1999511719</ele>
        <time>2016-03-07T10:56:04.000Z</time>
      </trkpt>
      <trkpt lat="45.49495" lon="6.62858">
        <ele>2348.6000976562</ele>
        <time>2016-03-07T10:56:06.000Z</time>
      </trkpt>
      <trkpt lat="45.49497" lon="6.62863">
        <ele>2348.8000488281</ele>
        <time>2016-03-07T10:56:10.000Z</time>
      </trkpt>
      <trkpt lat="45.49497" lon="6.62867">
        <ele>2349.1999511719</ele>
        <time>2016-03-07T10:56:14.000Z</time>
      </trkpt>
      <trkpt lat="45.49498" lon="6.6287">
        <ele>2349.3999023438</ele>
        <time>2016-03-07T10:56:16.000Z</time>
      </trkpt>
      <trkpt lat="45.49499" lon="6.62874">
        <ele>2350.1999511719</ele>
        <time>2016-03-07T10:56:20.000Z</time>
      </trkpt>
      <trkpt lat="45.49501" lon="6.62876">
        <ele>2350.1999511719</ele>
        <time>2016-03-07T10:56:21.000Z</time>
      </trkpt>
      <trkpt lat="45.49502" lon="6.62881">
        <ele>2350.6000976562</ele>
        <time>2016-03-07T10:56:24.000Z</time>
      </trkpt>
      <trkpt lat="45.49503" lon="6.62889">
        <ele>2351</ele>
        <time>2016-03-07T10:56:29.000Z</time>
      </trkpt>
      <trkpt lat="45.49503" lon="6.62894">
        <ele>2351.3999023438</ele>
        <time>2016-03-07T10:56:33.000Z</time>
      </trkpt>
      <trkpt lat="45.49504" lon="6.62896">
        <ele>2351.8000488281</ele>
        <time>2016-03-07T10:56:35.000Z</time>
      </trkpt>
      <trkpt lat="45.49504" lon="6.62902">
        <ele>2352.3999023438</ele>
        <time>2016-03-07T10:56:40.000Z</time>
      </trkpt>
      <trkpt lat="45.49505" lon="6.62909">
        <ele>2352.6000976562</ele>
        <time>2016-03-07T10:56:45.000Z</time>
      </trkpt>
      <trkpt lat="45.49506" lon="6.62915">
        <ele>2353.1999511719</ele>
        <time>2016-03-07T10:56:50.000Z</time>
      </trkpt>
      <trkpt lat="45.49507" lon="6.62917">
        <ele>2353.3999023438</ele>
        <time>2016-03-07T10:56:52.000Z</time>
      </trkpt>
      <trkpt lat="45.49507" lon="6.62921">
        <ele>2353.8000488281</ele>
        <time>2016-03-07T10:56:55.000Z</time>
      </trkpt>
      <trkpt lat="45.49509" lon="6.62925">
        <ele>2354.1999511719</ele>
        <time>2016-03-07T10:57:00.000Z</time>
      </trkpt>
      <trkpt lat="45.4951" lon="6.62932">
        <ele>2354.3999023438</ele>
        <time>2016-03-07T10:57:05.000Z</time>
      </trkpt>
      <trkpt lat="45.49514" lon="6.62938">
        <ele>2355.3999023438</ele>
        <time>2016-03-07T10:57:11.000Z</time>
      </trkpt>
      <trkpt lat="45.49514" lon="6.6294">
        <ele>2355.3999023438</ele>
        <time>2016-03-07T10:57:12.000Z</time>
      </trkpt>
      <trkpt lat="45.49515" lon="6.62941">
        <ele>2355.6000976562</ele>
        <time>2016-03-07T10:57:13.000Z</time>
      </trkpt>
      <trkpt lat="45.49518" lon="6.62944">
        <ele>2356</ele>
        <time>2016-03-07T10:57:16.000Z</time>
      </trkpt>
      <trkpt lat="45.49519" lon="6.62947">
        <ele>2356.6000976562</ele>
        <time>2016-03-07T10:57:20.000Z</time>
      </trkpt>
      <trkpt lat="45.4952" lon="6.62949">
        <ele>2356.8000488281</ele>
        <time>2016-03-07T10:57:21.000Z</time>
      </trkpt>
      <trkpt lat="45.49519" lon="6.62953">
        <ele>2357.6000976562</ele>
        <time>2016-03-07T10:57:25.000Z</time>
      </trkpt>
      <trkpt lat="45.49519" lon="6.62955">
        <ele>2357.8000488281</ele>
        <time>2016-03-07T10:57:26.000Z</time>
      </trkpt>
      <trkpt lat="45.49521" lon="6.62961">
        <ele>2358.6000976562</ele>
        <time>2016-03-07T10:57:31.000Z</time>
      </trkpt>
      <trkpt lat="45.49522" lon="6.62962">
        <ele>2358.6000976562</ele>
        <time>2016-03-07T10:57:32.000Z</time>
      </trkpt>
      <trkpt lat="45.49524" lon="6.62965">
        <ele>2359.6000976562</ele>
        <time>2016-03-07T10:57:36.000Z</time>
      </trkpt>
      <trkpt lat="45.49525" lon="6.62967">
        <ele>2360</ele>
        <time>2016-03-07T10:57:38.000Z</time>
      </trkpt>
      <trkpt lat="45.49527" lon="6.6297">
        <ele>2360.3999023438</ele>
        <time>2016-03-07T10:57:41.000Z</time>
      </trkpt>
      <trkpt lat="45.4953" lon="6.62977">
        <ele>2361</ele>
        <time>2016-03-07T10:57:47.000Z</time>
      </trkpt>
      <trkpt lat="45.49531" lon="6.62983">
        <ele>2361.8000488281</ele>
        <time>2016-03-07T10:57:53.000Z</time>
      </trkpt>
      <trkpt lat="45.49531" lon="6.62984">
        <ele>2362</ele>
        <time>2016-03-07T10:57:54.000Z</time>
      </trkpt>
      <trkpt lat="45.49533" lon="6.62989">
        <ele>2362.8000488281</ele>
        <time>2016-03-07T10:57:58.000Z</time>
      </trkpt>
      <trkpt lat="45.49534" lon="6.62989">
        <ele>2363.1999511719</ele>
        <time>2016-03-07T10:57:59.000Z</time>
      </trkpt>
      <trkpt lat="45.49537" lon="6.62992">
        <ele>2363.3999023438</ele>
        <time>2016-03-07T10:58:03.000Z</time>
      </trkpt>
      <trkpt lat="45.49541" lon="6.62992">
        <ele>2364.1999511719</ele>
        <time>2016-03-07T10:58:08.000Z</time>
      </trkpt>
      <trkpt lat="45.49541" lon="6.62992">
        <ele>2364.1999511719</ele>
        <time>2016-03-07T10:58:09.000Z</time>
      </trkpt>
      <trkpt lat="45.49544" lon="6.62993">
        <ele>2365.3999023438</ele>
        <time>2016-03-07T10:58:13.000Z</time>
      </trkpt>
      <trkpt lat="45.49546" lon="6.62993">
        <ele>2365.8000488281</ele>
        <time>2016-03-07T10:58:16.000Z</time>
      </trkpt>
      <trkpt lat="45.49549" lon="6.62994">
        <ele>2366.6000976562</ele>
        <time>2016-03-07T10:58:19.000Z</time>
      </trkpt>
      <trkpt lat="45.4955" lon="6.62994">
        <ele>2366.8000488281</ele>
        <time>2016-03-07T10:58:22.000Z</time>
      </trkpt>
      <trkpt lat="45.49552" lon="6.62997">
        <ele>2367.6000976562</ele>
        <time>2016-03-07T10:58:26.000Z</time>
      </trkpt>
      <trkpt lat="45.49553" lon="6.62999">
        <ele>2368</ele>
        <time>2016-03-07T10:58:28.000Z</time>
      </trkpt>
      <trkpt lat="45.49553" lon="6.63001">
        <ele>2368.8000488281</ele>
        <time>2016-03-07T10:58:33.000Z</time>
      </trkpt>
      <trkpt lat="45.49553" lon="6.63003">
        <ele>2369.1999511719</ele>
        <time>2016-03-07T10:58:35.000Z</time>
      </trkpt>
      <trkpt lat="45.49553" lon="6.63005">
        <ele>2370</ele>
        <time>2016-03-07T10:58:38.000Z</time>
      </trkpt>
      <trkpt lat="45.49555" lon="6.63006">
        <ele>2371.1999511719</ele>
        <time>2016-03-07T10:58:42.000Z</time>
      </trkpt>
      <trkpt lat="45.49555" lon="6.63006">
        <ele>2371.6000976562</ele>
        <time>2016-03-07T10:58:43.000Z</time>
      </trkpt>
      <trkpt lat="45.49558" lon="6.63007">
        <ele>2372.3999023438</ele>
        <time>2016-03-07T10:58:47.000Z</time>
      </trkpt>
      <trkpt lat="45.49559" lon="6.63008">
        <ele>2372.8000488281</ele>
        <time>2016-03-07T10:58:52.000Z</time>
      </trkpt>
      <trkpt lat="45.49563" lon="6.63008">
        <ele>2373.3999023438</ele>
        <time>2016-03-07T10:58:57.000Z</time>
      </trkpt>
      <trkpt lat="45.49565" lon="6.6301">
        <ele>2374.3999023438</ele>
        <time>2016-03-07T10:59:01.000Z</time>
      </trkpt>
      <trkpt lat="45.49566" lon="6.63014">
        <ele>2375.6000976562</ele>
        <time>2016-03-07T10:59:05.000Z</time>
      </trkpt>
      <trkpt lat="45.49566" lon="6.63014">
        <ele>2376</ele>
        <time>2016-03-07T10:59:07.000Z</time>
      </trkpt>
      <trkpt lat="45.49567" lon="6.63016">
        <ele>2376.8000488281</ele>
        <time>2016-03-07T10:59:12.000Z</time>
      </trkpt>
      <trkpt lat="45.49567" lon="6.6302">
        <ele>2377.6000976562</ele>
        <time>2016-03-07T10:59:18.000Z</time>
      </trkpt>
      <trkpt lat="45.49568" lon="6.6302">
        <ele>2378</ele>
        <time>2016-03-07T10:59:20.000Z</time>
      </trkpt>
      <trkpt lat="45.49569" lon="6.6302">
        <ele>2379</ele>
        <time>2016-03-07T10:59:24.000Z</time>
      </trkpt>
      <trkpt lat="45.49569" lon="6.6302">
        <ele>2379</ele>
        <time>2016-03-07T10:59:25.000Z</time>
      </trkpt>
      <trkpt lat="45.4957" lon="6.63023">
        <ele>2380.1999511719</ele>
        <time>2016-03-07T10:59:30.000Z</time>
      </trkpt>
      <trkpt lat="45.49571" lon="6.63023">
        <ele>2380.6000976562</ele>
        <time>2016-03-07T10:59:32.000Z</time>
      </trkpt>
      <trkpt lat="45.49572" lon="6.63025">
        <ele>2381.1999511719</ele>
        <time>2016-03-07T10:59:35.000Z</time>
      </trkpt>
      <trkpt lat="45.49573" lon="6.63028">
        <ele>2381.3999023438</ele>
        <time>2016-03-07T10:59:38.000Z</time>
      </trkpt>
      <trkpt lat="45.49575" lon="6.63033">
        <ele>2382</ele>
        <time>2016-03-07T10:59:43.000Z</time>
      </trkpt>
      <trkpt lat="45.49576" lon="6.63034">
        <ele>2382.1999511719</ele>
        <time>2016-03-07T10:59:44.000Z</time>
      </trkpt>
      <trkpt lat="45.49576" lon="6.63035">
        <ele>2383.3999023438</ele>
        <time>2016-03-07T10:59:48.000Z</time>
      </trkpt>
      <trkpt lat="45.49578" lon="6.63037">
        <ele>2384.3999023438</ele>
        <time>2016-03-07T10:59:57.000Z</time>
      </trkpt>
      <trkpt lat="45.4958" lon="6.63039">
        <ele>2384.3999023438</ele>
        <time>2016-03-07T11:00:01.000Z</time>
      </trkpt>
      <trkpt lat="45.4958" lon="6.6304">
        <ele>2384.8000488281</ele>
        <time>2016-03-07T11:00:02.000Z</time>
      </trkpt>
      <trkpt lat="45.49582" lon="6.63042">
        <ele>2385.8000488281</ele>
        <time>2016-03-07T11:00:06.000Z</time>
      </trkpt>
      <trkpt lat="45.49582" lon="6.63042">
        <ele>2386</ele>
        <time>2016-03-07T11:00:07.000Z</time>
      </trkpt>
      <trkpt lat="45.49583" lon="6.63045">
        <ele>2386.6000976562</ele>
        <time>2016-03-07T11:00:14.000Z</time>
      </trkpt>
      <trkpt lat="45.49583" lon="6.63048">
        <ele>2387</ele>
        <time>2016-03-07T11:00:17.000Z</time>
      </trkpt>
      <trkpt lat="45.49585" lon="6.63051">
        <ele>2387.8000488281</ele>
        <time>2016-03-07T11:00:20.000Z</time>
      </trkpt>
      <trkpt lat="45.49586" lon="6.63053">
        <ele>2388.1999511719</ele>
        <time>2016-03-07T11:00:22.000Z</time>
      </trkpt>
      <trkpt lat="45.49587" lon="6.63055">
        <ele>2389</ele>
        <time>2016-03-07T11:00:25.000Z</time>
      </trkpt>
      <trkpt lat="45.49587" lon="6.63055">
        <ele>2389.1999511719</ele>
        <time>2016-03-07T11:00:26.000Z</time>
      </trkpt>
      <trkpt lat="45.49588" lon="6.63059">
        <ele>2389.8000488281</ele>
        <time>2016-03-07T11:00:30.000Z</time>
      </trkpt>
      <trkpt lat="45.49589" lon="6.63061">
        <ele>2390.1999511719</ele>
        <time>2016-03-07T11:00:33.000Z</time>
      </trkpt>
      <trkpt lat="45.4959" lon="6.63065">
        <ele>2391</ele>
        <time>2016-03-07T11:00:36.000Z</time>
      </trkpt>
      <trkpt lat="45.4959" lon="6.63066">
        <ele>2391.1999511719</ele>
        <time>2016-03-07T11:00:38.000Z</time>
      </trkpt>
      <trkpt lat="45.4959" lon="6.63069">
        <ele>2391.8000488281</ele>
        <time>2016-03-07T11:00:41.000Z</time>
      </trkpt>
      <trkpt lat="45.4959" lon="6.63071">
        <ele>2392.3999023438</ele>
        <time>2016-03-07T11:00:45.000Z</time>
      </trkpt>
      <trkpt lat="45.4959" lon="6.63073">
        <ele>2392.6000976562</ele>
        <time>2016-03-07T11:00:46.000Z</time>
      </trkpt>
      <trkpt lat="45.4959" lon="6.63077">
        <ele>2393.1999511719</ele>
        <time>2016-03-07T11:00:51.000Z</time>
      </trkpt>
      <trkpt lat="45.4959" lon="6.63078">
        <ele>2393.3999023438</ele>
        <time>2016-03-07T11:00:52.000Z</time>
      </trkpt>
      <trkpt lat="45.4959" lon="6.63082">
        <ele>2394</ele>
        <time>2016-03-07T11:00:56.000Z</time>
      </trkpt>
      <trkpt lat="45.49589" lon="6.63087">
        <ele>2394.6000976562</ele>
        <time>2016-03-07T11:01:00.000Z</time>
      </trkpt>
      <trkpt lat="45.49589" lon="6.63088">
        <ele>2395.1999511719</ele>
        <time>2016-03-07T11:01:02.000Z</time>
      </trkpt>
      <trkpt lat="45.4959" lon="6.63089">
        <ele>2395.8000488281</ele>
        <time>2016-03-07T11:01:05.000Z</time>
      </trkpt>
      <trkpt lat="45.4959" lon="6.63092">
        <ele>2396.3999023438</ele>
        <time>2016-03-07T11:01:08.000Z</time>
      </trkpt>
      <trkpt lat="45.4959" lon="6.63095">
        <ele>2397.1999511719</ele>
        <time>2016-03-07T11:01:11.000Z</time>
      </trkpt>
      <trkpt lat="45.4959" lon="6.63097">
        <ele>2397.8000488281</ele>
        <time>2016-03-07T11:01:13.000Z</time>
      </trkpt>
      <trkpt lat="45.4959" lon="6.63099">
        <ele>2398.1999511719</ele>
        <time>2016-03-07T11:01:15.000Z</time>
      </trkpt>
      <trkpt lat="45.49591" lon="6.63101">
        <ele>2398.8000488281</ele>
        <time>2016-03-07T11:01:18.000Z</time>
      </trkpt>
      <trkpt lat="45.49591" lon="6.63102">
        <ele>2399.1999511719</ele>
        <time>2016-03-07T11:01:21.000Z</time>
      </trkpt>
      <trkpt lat="45.4959" lon="6.63104">
        <ele>2399.8000488281</ele>
        <time>2016-03-07T11:01:24.000Z</time>
      </trkpt>
      <trkpt lat="45.4959" lon="6.63107">
        <ele>2400.3999023438</ele>
        <time>2016-03-07T11:01:28.000Z</time>
      </trkpt>
      <trkpt lat="45.4959" lon="6.63111">
        <ele>2401.3999023438</ele>
        <time>2016-03-07T11:01:33.000Z</time>
      </trkpt>
      <trkpt lat="45.49591" lon="6.63116">
        <ele>2402.3999023438</ele>
        <time>2016-03-07T11:01:38.000Z</time>
      </trkpt>
      <trkpt lat="45.49591" lon="6.63117">
        <ele>2402.6000976562</ele>
        <time>2016-03-07T11:01:39.000Z</time>
      </trkpt>
      <trkpt lat="45.49591" lon="6.6312">
        <ele>2403.3999023438</ele>
        <time>2016-03-07T11:01:43.000Z</time>
      </trkpt>
      <trkpt lat="45.49591" lon="6.63122">
        <ele>2403.8000488281</ele>
        <time>2016-03-07T11:01:45.000Z</time>
      </trkpt>
      <trkpt lat="45.4959" lon="6.63124">
        <ele>2404.3999023438</ele>
        <time>2016-03-07T11:01:49.000Z</time>
      </trkpt>
      <trkpt lat="45.4959" lon="6.63128">
        <ele>2404.8000488281</ele>
        <time>2016-03-07T11:01:53.000Z</time>
      </trkpt>
      <trkpt lat="45.49589" lon="6.63131">
        <ele>2405</ele>
        <time>2016-03-07T11:01:55.000Z</time>
      </trkpt>
      <trkpt lat="45.49589" lon="6.63133">
        <ele>2405.1999511719</ele>
        <time>2016-03-07T11:01:56.000Z</time>
      </trkpt>
      <trkpt lat="45.49587" lon="6.63138">
        <ele>2405.8000488281</ele>
        <time>2016-03-07T11:02:00.000Z</time>
      </trkpt>
      <trkpt lat="45.49587" lon="6.6314">
        <ele>2405.8000488281</ele>
        <time>2016-03-07T11:02:01.000Z</time>
      </trkpt>
      <trkpt lat="45.49588" lon="6.63144">
        <ele>2406.3999023438</ele>
        <time>2016-03-07T11:02:05.000Z</time>
      </trkpt>
      <trkpt lat="45.49587" lon="6.63153">
        <ele>2407</ele>
        <time>2016-03-07T11:02:11.000Z</time>
      </trkpt>
      <trkpt lat="45.49587" lon="6.63159">
        <ele>2407.1999511719</ele>
        <time>2016-03-07T11:02:16.000Z</time>
      </trkpt>
      <trkpt lat="45.49587" lon="6.63165">
        <ele>2407.3999023438</ele>
        <time>2016-03-07T11:02:20.000Z</time>
      </trkpt>
      <trkpt lat="45.49587" lon="6.63167">
        <ele>2407.3999023438</ele>
        <time>2016-03-07T11:02:21.000Z</time>
      </trkpt>
      <trkpt lat="45.49585" lon="6.63177">
        <ele>2407</ele>
        <time>2016-03-07T11:02:26.000Z</time>
      </trkpt>
      <trkpt lat="45.49584" lon="6.63178">
        <ele>2407</ele>
        <time>2016-03-07T11:02:27.000Z</time>
      </trkpt>
      <trkpt lat="45.49579" lon="6.63183">
        <ele>2406.6000976562</ele>
        <time>2016-03-07T11:02:33.000Z</time>
      </trkpt>
      <trkpt lat="45.49576" lon="6.63186">
        <ele>2406.8000488281</ele>
        <time>2016-03-07T11:02:38.000Z</time>
      </trkpt>
      <trkpt lat="45.49571" lon="6.63191">
        <ele>2407.8000488281</ele>
        <time>2016-03-07T11:02:44.000Z</time>
      </trkpt>
      <trkpt lat="45.49569" lon="6.63193">
        <ele>2408.1999511719</ele>
        <time>2016-03-07T11:02:46.000Z</time>
      </trkpt>
      <trkpt lat="45.49567" lon="6.63196">
        <ele>2409.1999511719</ele>
        <time>2016-03-07T11:02:49.000Z</time>
      </trkpt>
      <trkpt lat="45.49567" lon="6.63196">
        <ele>2409.3999023438</ele>
        <time>2016-03-07T11:02:50.000Z</time>
      </trkpt>
      <trkpt lat="45.49564" lon="6.632">
        <ele>2410.1999511719</ele>
        <time>2016-03-07T11:02:54.000Z</time>
      </trkpt>
      <trkpt lat="45.49564" lon="6.632">
        <ele>2410.6000976562</ele>
        <time>2016-03-07T11:02:56.000Z</time>
      </trkpt>
      <trkpt lat="45.49559" lon="6.63205">
        <ele>2411.1999511719</ele>
        <time>2016-03-07T11:03:01.000Z</time>
      </trkpt>
      <trkpt lat="45.49557" lon="6.63207">
        <ele>2411.1999511719</ele>
        <time>2016-03-07T11:03:04.000Z</time>
      </trkpt>
      <trkpt lat="45.49555" lon="6.63212">
        <ele>2411.1999511719</ele>
        <time>2016-03-07T11:03:07.000Z</time>
      </trkpt>
      <trkpt lat="45.4955" lon="6.6322">
        <ele>2411.1999511719</ele>
        <time>2016-03-07T11:03:13.000Z</time>
      </trkpt>
      <trkpt lat="45.49547" lon="6.63223">
        <ele>2411</ele>
        <time>2016-03-07T11:03:17.000Z</time>
      </trkpt>
      <trkpt lat="45.49542" lon="6.6323">
        <ele>2411</ele>
        <time>2016-03-07T11:03:23.000Z</time>
      </trkpt>
      <trkpt lat="45.49537" lon="6.63234">
        <ele>2411.3999023438</ele>
        <time>2016-03-07T11:03:28.000Z</time>
      </trkpt>
      <trkpt lat="45.49533" lon="6.6324">
        <ele>2411.1999511719</ele>
        <time>2016-03-07T11:03:33.000Z</time>
      </trkpt>
      <trkpt lat="45.49531" lon="6.63244">
        <ele>2411.1999511719</ele>
        <time>2016-03-07T11:03:38.000Z</time>
      </trkpt>
      <trkpt lat="45.49528" lon="6.63251">
        <ele>2411.3999023438</ele>
        <time>2016-03-07T11:03:44.000Z</time>
      </trkpt>
      <trkpt lat="45.49523" lon="6.63258">
        <ele>2411.6000976562</ele>
        <time>2016-03-07T11:03:49.000Z</time>
      </trkpt>
      <trkpt lat="45.49522" lon="6.63262">
        <ele>2412.1999511719</ele>
        <time>2016-03-07T11:03:53.000Z</time>
      </trkpt>
      <trkpt lat="45.49521" lon="6.63262">
        <ele>2412.3999023438</ele>
        <time>2016-03-07T11:03:54.000Z</time>
      </trkpt>
      <trkpt lat="45.49519" lon="6.63268">
        <ele>2413</ele>
        <time>2016-03-07T11:03:59.000Z</time>
      </trkpt>
      <trkpt lat="45.49518" lon="6.63268">
        <ele>2413.3999023438</ele>
        <time>2016-03-07T11:04:00.000Z</time>
      </trkpt>
      <trkpt lat="45.49517" lon="6.63275">
        <ele>2414</ele>
        <time>2016-03-07T11:04:05.000Z</time>
      </trkpt>
      <trkpt lat="45.49517" lon="6.63278">
        <ele>2414.3999023438</ele>
        <time>2016-03-07T11:04:07.000Z</time>
      </trkpt>
      <trkpt lat="45.49515" lon="6.63281">
        <ele>2415</ele>
        <time>2016-03-07T11:04:10.000Z</time>
      </trkpt>
      <trkpt lat="45.49514" lon="6.63282">
        <ele>2415.3999023438</ele>
        <time>2016-03-07T11:04:11.000Z</time>
      </trkpt>
      <trkpt lat="45.49514" lon="6.63283">
        <ele>2415.8000488281</ele>
        <time>2016-03-07T11:04:12.000Z</time>
      </trkpt>
      <trkpt lat="45.49512" lon="6.63286">
        <ele>2416.8000488281</ele>
        <time>2016-03-07T11:04:17.000Z</time>
      </trkpt>
      <trkpt lat="45.49509" lon="6.63289">
        <ele>2417.8000488281</ele>
        <time>2016-03-07T11:04:22.000Z</time>
      </trkpt>
      <trkpt lat="45.49508" lon="6.6329">
        <ele>2418</ele>
        <time>2016-03-07T11:04:23.000Z</time>
      </trkpt>
      <trkpt lat="45.49506" lon="6.63293">
        <ele>2418.8000488281</ele>
        <time>2016-03-07T11:04:27.000Z</time>
      </trkpt>
      <trkpt lat="45.49505" lon="6.63294">
        <ele>2419.3999023438</ele>
        <time>2016-03-07T11:04:30.000Z</time>
      </trkpt>
      <trkpt lat="45.49503" lon="6.63296">
        <ele>2420</ele>
        <time>2016-03-07T11:04:33.000Z</time>
      </trkpt>
      <trkpt lat="45.49502" lon="6.63298">
        <ele>2420.3999023438</ele>
        <time>2016-03-07T11:04:36.000Z</time>
      </trkpt>
      <trkpt lat="45.49501" lon="6.63299">
        <ele>2421</ele>
        <time>2016-03-07T11:04:39.000Z</time>
      </trkpt>
      <trkpt lat="45.495" lon="6.63299">
        <ele>2421.3999023438</ele>
        <time>2016-03-07T11:04:41.000Z</time>
      </trkpt>
      <trkpt lat="45.49499" lon="6.63301">
        <ele>2422</ele>
        <time>2016-03-07T11:04:45.000Z</time>
      </trkpt>
      <trkpt lat="45.49496" lon="6.63302">
        <ele>2423</ele>
        <time>2016-03-07T11:04:48.000Z</time>
      </trkpt>
      <trkpt lat="45.49496" lon="6.63302">
        <ele>2423.1999511719</ele>
        <time>2016-03-07T11:04:49.000Z</time>
      </trkpt>
      <trkpt lat="45.49493" lon="6.63305">
        <ele>2424.1999511719</ele>
        <time>2016-03-07T11:04:54.000Z</time>
      </trkpt>
      <trkpt lat="45.49493" lon="6.63305">
        <ele>2424.3999023438</ele>
        <time>2016-03-07T11:04:55.000Z</time>
      </trkpt>
      <trkpt lat="45.4949" lon="6.63309">
        <ele>2425.1999511719</ele>
        <time>2016-03-07T11:04:59.000Z</time>
      </trkpt>
      <trkpt lat="45.4949" lon="6.63309">
        <ele>2425.6000976562</ele>
        <time>2016-03-07T11:05:01.000Z</time>
      </trkpt>
      <trkpt lat="45.4949" lon="6.63309">
        <ele>2425.8000488281</ele>
        <time>2016-03-07T11:05:03.000Z</time>
      </trkpt>
      <trkpt lat="45.49486" lon="6.63314">
        <ele>2426.6000976562</ele>
        <time>2016-03-07T11:05:09.000Z</time>
      </trkpt>
      <trkpt lat="45.49483" lon="6.63316">
        <ele>2427.8000488281</ele>
        <time>2016-03-07T11:05:14.000Z</time>
      </trkpt>
      <trkpt lat="45.49481" lon="6.63318">
        <ele>2428.1999511719</ele>
        <time>2016-03-07T11:05:18.000Z</time>
      </trkpt>
      <trkpt lat="45.49477" lon="6.63323">
        <ele>2428.8000488281</ele>
        <time>2016-03-07T11:05:23.000Z</time>
      </trkpt>
      <trkpt lat="45.49476" lon="6.63325">
        <ele>2429</ele>
        <time>2016-03-07T11:05:24.000Z</time>
      </trkpt>
      <trkpt lat="45.49475" lon="6.63331">
        <ele>2429.6000976562</ele>
        <time>2016-03-07T11:05:29.000Z</time>
      </trkpt>
      <trkpt lat="45.49474" lon="6.63333">
        <ele>2430</ele>
        <time>2016-03-07T11:05:31.000Z</time>
      </trkpt>
      <trkpt lat="45.49472" lon="6.63336">
        <ele>2430.8000488281</ele>
        <time>2016-03-07T11:05:36.000Z</time>
      </trkpt>
      <trkpt lat="45.49472" lon="6.63337">
        <ele>2431</ele>
        <time>2016-03-07T11:05:37.000Z</time>
      </trkpt>
      <trkpt lat="45.49471" lon="6.6334">
        <ele>2431.3999023438</ele>
        <time>2016-03-07T11:05:42.000Z</time>
      </trkpt>
      <trkpt lat="45.49469" lon="6.63346">
        <ele>2432</ele>
        <time>2016-03-07T11:05:48.000Z</time>
      </trkpt>
      <trkpt lat="45.49469" lon="6.63347">
        <ele>2432.1999511719</ele>
        <time>2016-03-07T11:05:49.000Z</time>
      </trkpt>
      <trkpt lat="45.4947" lon="6.63348">
        <ele>2432.3999023438</ele>
        <time>2016-03-07T11:05:55.000Z</time>
      </trkpt>
      <trkpt lat="45.49475" lon="6.63345">
        <ele>2433</ele>
        <time>2016-03-07T11:05:59.000Z</time>
      </trkpt>
      <trkpt lat="45.49477" lon="6.63345">
        <ele>2433.8000488281</ele>
        <time>2016-03-07T11:06:02.000Z</time>
      </trkpt>
      <trkpt lat="45.49479" lon="6.63345">
        <ele>2434.1999511719</ele>
        <time>2016-03-07T11:06:04.000Z</time>
      </trkpt>
      <trkpt lat="45.49481" lon="6.63345">
        <ele>2434.8000488281</ele>
        <time>2016-03-07T11:06:08.000Z</time>
      </trkpt>
      <trkpt lat="45.49482" lon="6.63346">
        <ele>2435.3999023438</ele>
        <time>2016-03-07T11:06:11.000Z</time>
      </trkpt>
      <trkpt lat="45.49484" lon="6.63346">
        <ele>2435.8000488281</ele>
        <time>2016-03-07T11:06:14.000Z</time>
      </trkpt>
      <trkpt lat="45.49487" lon="6.63347">
        <ele>2436.3999023438</ele>
        <time>2016-03-07T11:06:18.000Z</time>
      </trkpt>
      <trkpt lat="45.49489" lon="6.63349">
        <ele>2437</ele>
        <time>2016-03-07T11:06:21.000Z</time>
      </trkpt>
      <trkpt lat="45.49491" lon="6.63351">
        <ele>2437.3999023438</ele>
        <time>2016-03-07T11:06:24.000Z</time>
      </trkpt>
      <trkpt lat="45.49493" lon="6.63353">
        <ele>2438.1999511719</ele>
        <time>2016-03-07T11:06:28.000Z</time>
      </trkpt>
      <trkpt lat="45.49494" lon="6.63354">
        <ele>2438.6000976562</ele>
        <time>2016-03-07T11:06:30.000Z</time>
      </trkpt>
      <trkpt lat="45.49497" lon="6.63357">
        <ele>2439.8000488281</ele>
        <time>2016-03-07T11:06:36.000Z</time>
      </trkpt>
      <trkpt lat="45.495" lon="6.6336">
        <ele>2441</ele>
        <time>2016-03-07T11:06:42.000Z</time>
      </trkpt>
      <trkpt lat="45.49503" lon="6.63362">
        <ele>2442.1999511719</ele>
        <time>2016-03-07T11:06:48.000Z</time>
      </trkpt>
      <trkpt lat="45.49504" lon="6.63363">
        <ele>2442.3999023438</ele>
        <time>2016-03-07T11:06:49.000Z</time>
      </trkpt>
      <trkpt lat="45.49505" lon="6.63363">
        <ele>2443.3999023438</ele>
        <time>2016-03-07T11:06:53.000Z</time>
      </trkpt>
      <trkpt lat="45.49506" lon="6.63363">
        <ele>2444</ele>
        <time>2016-03-07T11:06:56.000Z</time>
      </trkpt>
      <trkpt lat="45.49508" lon="6.63364">
        <ele>2444.3999023438</ele>
        <time>2016-03-07T11:07:00.000Z</time>
      </trkpt>
      <trkpt lat="45.49509" lon="6.63365">
        <ele>2444.6000976562</ele>
        <time>2016-03-07T11:07:02.000Z</time>
      </trkpt>
      <trkpt lat="45.49512" lon="6.63365">
        <ele>2445.3999023438</ele>
        <time>2016-03-07T11:07:09.000Z</time>
      </trkpt>
      <trkpt lat="45.49512" lon="6.63365">
        <ele>2445.8000488281</ele>
        <time>2016-03-07T11:07:10.000Z</time>
      </trkpt>
      <trkpt lat="45.49513" lon="6.63365">
        <ele>2447</ele>
        <time>2016-03-07T11:07:13.000Z</time>
      </trkpt>
      <trkpt lat="45.49513" lon="6.63365">
        <ele>2447.1999511719</ele>
        <time>2016-03-07T11:07:14.000Z</time>
      </trkpt>
      <trkpt lat="45.49515" lon="6.63368">
        <ele>2448</ele>
        <time>2016-03-07T11:07:19.000Z</time>
      </trkpt>
      <trkpt lat="45.49517" lon="6.6337">
        <ele>2448.1999511719</ele>
        <time>2016-03-07T11:07:22.000Z</time>
      </trkpt>
      <trkpt lat="45.4952" lon="6.63374">
        <ele>2449.1999511719</ele>
        <time>2016-03-07T11:07:30.000Z</time>
      </trkpt>
      <trkpt lat="45.49521" lon="6.63377">
        <ele>2450.1999511719</ele>
        <time>2016-03-07T11:07:34.000Z</time>
      </trkpt>
      <trkpt lat="45.49522" lon="6.6338">
        <ele>2451</ele>
        <time>2016-03-07T11:07:37.000Z</time>
      </trkpt>
      <trkpt lat="45.49525" lon="6.63381">
        <ele>2451.1999511719</ele>
        <time>2016-03-07T11:07:40.000Z</time>
      </trkpt>
      <trkpt lat="45.49527" lon="6.63379">
        <ele>2451.8000488281</ele>
        <time>2016-03-07T11:07:43.000Z</time>
      </trkpt>
      <trkpt lat="45.49528" lon="6.63379">
        <ele>2452</ele>
        <time>2016-03-07T11:07:44.000Z</time>
      </trkpt>
      <trkpt lat="45.49529" lon="6.63377">
        <ele>2452.3999023438</ele>
        <time>2016-03-07T11:07:47.000Z</time>
      </trkpt>
      <trkpt lat="45.49531" lon="6.63377">
        <ele>2452.8000488281</ele>
        <time>2016-03-07T11:07:51.000Z</time>
      </trkpt>
      <trkpt lat="45.49534" lon="6.63379">
        <ele>2453.3999023438</ele>
        <time>2016-03-07T11:07:56.000Z</time>
      </trkpt>
      <trkpt lat="45.49535" lon="6.63379">
        <ele>2453.6000976562</ele>
        <time>2016-03-07T11:07:57.000Z</time>
      </trkpt>
      <trkpt lat="45.49538" lon="6.6338">
        <ele>2454.6000976562</ele>
        <time>2016-03-07T11:08:03.000Z</time>
      </trkpt>
      <trkpt lat="45.4954" lon="6.63381">
        <ele>2455.8000488281</ele>
        <time>2016-03-07T11:08:09.000Z</time>
      </trkpt>
      <trkpt lat="45.49544" lon="6.63383">
        <ele>2457</ele>
        <time>2016-03-07T11:08:15.000Z</time>
      </trkpt>
      <trkpt lat="45.49545" lon="6.63384">
        <ele>2457</ele>
        <time>2016-03-07T11:08:16.000Z</time>
      </trkpt>
      <trkpt lat="45.49549" lon="6.63386">
        <ele>2458.1999511719</ele>
        <time>2016-03-07T11:08:22.000Z</time>
      </trkpt>
      <trkpt lat="45.49549" lon="6.63386">
        <ele>2458.1999511719</ele>
        <time>2016-03-07T11:08:23.000Z</time>
      </trkpt>
      <trkpt lat="45.4955" lon="6.63387">
        <ele>2459.1999511719</ele>
        <time>2016-03-07T11:08:26.000Z</time>
      </trkpt>
      <trkpt lat="45.49554" lon="6.63389">
        <ele>2460.1999511719</ele>
        <time>2016-03-07T11:08:30.000Z</time>
      </trkpt>
      <trkpt lat="45.49554" lon="6.63389">
        <ele>2460.3999023438</ele>
        <time>2016-03-07T11:08:31.000Z</time>
      </trkpt>
      <trkpt lat="45.49558" lon="6.63391">
        <ele>2461.3999023438</ele>
        <time>2016-03-07T11:08:37.000Z</time>
      </trkpt>
      <trkpt lat="45.49563" lon="6.63397">
        <ele>2462.1999511719</ele>
        <time>2016-03-07T11:08:44.000Z</time>
      </trkpt>
      <trkpt lat="45.49564" lon="6.63398">
        <ele>2462.3999023438</ele>
        <time>2016-03-07T11:08:47.000Z</time>
      </trkpt>
      <trkpt lat="45.49566" lon="6.634">
        <ele>2463</ele>
        <time>2016-03-07T11:08:51.000Z</time>
      </trkpt>
      <trkpt lat="45.49568" lon="6.63401">
        <ele>2463.3999023438</ele>
        <time>2016-03-07T11:08:54.000Z</time>
      </trkpt>
      <trkpt lat="45.49571" lon="6.63404">
        <ele>2464</ele>
        <time>2016-03-07T11:08:58.000Z</time>
      </trkpt>
      <trkpt lat="45.49573" lon="6.63408">
        <ele>2464.3999023438</ele>
        <time>2016-03-07T11:09:04.000Z</time>
      </trkpt>
      <trkpt lat="45.49573" lon="6.63408">
        <ele>2464.6000976562</ele>
        <time>2016-03-07T11:09:05.000Z</time>
      </trkpt>
      <trkpt lat="45.49574" lon="6.63413">
        <ele>2465.6000976562</ele>
        <time>2016-03-07T11:09:11.000Z</time>
      </trkpt>
      <trkpt lat="45.49574" lon="6.63418">
        <ele>2466.8000488281</ele>
        <time>2016-03-07T11:09:16.000Z</time>
      </trkpt>
      <trkpt lat="45.49572" lon="6.63422">
        <ele>2468</ele>
        <time>2016-03-07T11:09:22.000Z</time>
      </trkpt>
      <trkpt lat="45.49571" lon="6.63424">
        <ele>2469.1999511719</ele>
        <time>2016-03-07T11:09:27.000Z</time>
      </trkpt>
      <trkpt lat="45.4957" lon="6.63424">
        <ele>2469.3999023438</ele>
        <time>2016-03-07T11:09:28.000Z</time>
      </trkpt>
      <trkpt lat="45.49569" lon="6.63427">
        <ele>2470.1999511719</ele>
        <time>2016-03-07T11:09:32.000Z</time>
      </trkpt>
      <trkpt lat="45.49568" lon="6.63429">
        <ele>2470.3999023438</ele>
        <time>2016-03-07T11:09:34.000Z</time>
      </trkpt>
      <trkpt lat="45.49567" lon="6.63432">
        <ele>2471.3999023438</ele>
        <time>2016-03-07T11:09:37.000Z</time>
      </trkpt>
      <trkpt lat="45.49567" lon="6.63434">
        <ele>2471.8000488281</ele>
        <time>2016-03-07T11:09:40.000Z</time>
      </trkpt>
      <trkpt lat="45.49567" lon="6.63438">
        <ele>2472.3999023438</ele>
        <time>2016-03-07T11:09:44.000Z</time>
      </trkpt>
      <trkpt lat="45.49566" lon="6.6344">
        <ele>2472.8000488281</ele>
        <time>2016-03-07T11:09:46.000Z</time>
      </trkpt>
      <trkpt lat="45.49567" lon="6.63444">
        <ele>2473.6000976562</ele>
        <time>2016-03-07T11:09:51.000Z</time>
      </trkpt>
      <trkpt lat="45.49567" lon="6.63445">
        <ele>2473.8000488281</ele>
        <time>2016-03-07T11:09:52.000Z</time>
      </trkpt>
      <trkpt lat="45.49569" lon="6.63446">
        <ele>2474.6000976562</ele>
        <time>2016-03-07T11:09:57.000Z</time>
      </trkpt>
      <trkpt lat="45.4957" lon="6.63447">
        <ele>2475</ele>
        <time>2016-03-07T11:09:59.000Z</time>
      </trkpt>
      <trkpt lat="45.49572" lon="6.63449">
        <ele>2475.8000488281</ele>
        <time>2016-03-07T11:10:02.000Z</time>
      </trkpt>
      <trkpt lat="45.49573" lon="6.6345">
        <ele>2476.1999511719</ele>
        <time>2016-03-07T11:10:04.000Z</time>
      </trkpt>
      <trkpt lat="45.49574" lon="6.63453">
        <ele>2476.8000488281</ele>
        <time>2016-03-07T11:10:09.000Z</time>
      </trkpt>
      <trkpt lat="45.49575" lon="6.63455">
        <ele>2477.6000976562</ele>
        <time>2016-03-07T11:10:13.000Z</time>
      </trkpt>
      <trkpt lat="45.49575" lon="6.63455">
        <ele>2478</ele>
        <time>2016-03-07T11:10:14.000Z</time>
      </trkpt>
      <trkpt lat="45.49576" lon="6.63456">
        <ele>2478.8000488281</ele>
        <time>2016-03-07T11:10:19.000Z</time>
      </trkpt>
      <trkpt lat="45.49577" lon="6.63457">
        <ele>2479.1999511719</ele>
        <time>2016-03-07T11:10:20.000Z</time>
      </trkpt>
      <trkpt lat="45.49578" lon="6.63458">
        <ele>2480.3999023438</ele>
        <time>2016-03-07T11:10:25.000Z</time>
      </trkpt>
      <trkpt lat="45.49582" lon="6.63462">
        <ele>2481.3999023438</ele>
        <time>2016-03-07T11:10:32.000Z</time>
      </trkpt>
      <trkpt lat="45.49583" lon="6.63464">
        <ele>2481.6000976562</ele>
        <time>2016-03-07T11:10:34.000Z</time>
      </trkpt>
      <trkpt lat="45.49584" lon="6.63468">
        <ele>2482.3999023438</ele>
        <time>2016-03-07T11:10:39.000Z</time>
      </trkpt>
      <trkpt lat="45.49585" lon="6.6347">
        <ele>2483</ele>
        <time>2016-03-07T11:10:42.000Z</time>
      </trkpt>
      <trkpt lat="45.49586" lon="6.63471">
        <ele>2483.6000976562</ele>
        <time>2016-03-07T11:10:45.000Z</time>
      </trkpt>
      <trkpt lat="45.49586" lon="6.63472">
        <ele>2484.8000488281</ele>
        <time>2016-03-07T11:10:49.000Z</time>
      </trkpt>
      <trkpt lat="45.49586" lon="6.63472">
        <ele>2485.3999023438</ele>
        <time>2016-03-07T11:10:51.000Z</time>
      </trkpt>
      <trkpt lat="45.49587" lon="6.63474">
        <ele>2486</ele>
        <time>2016-03-07T11:10:54.000Z</time>
      </trkpt>
      <trkpt lat="45.49588" lon="6.63476">
        <ele>2486</ele>
        <time>2016-03-07T11:10:56.000Z</time>
      </trkpt>
      <trkpt lat="45.49589" lon="6.63479">
        <ele>2486.8000488281</ele>
        <time>2016-03-07T11:11:00.000Z</time>
      </trkpt>
      <trkpt lat="45.4959" lon="6.63479">
        <ele>2487.1999511719</ele>
        <time>2016-03-07T11:11:01.000Z</time>
      </trkpt>
      <trkpt lat="45.49591" lon="6.63483">
        <ele>2487.8000488281</ele>
        <time>2016-03-07T11:11:05.000Z</time>
      </trkpt>
      <trkpt lat="45.49594" lon="6.63487">
        <ele>2488.3999023438</ele>
        <time>2016-03-07T11:11:10.000Z</time>
      </trkpt>
      <trkpt lat="45.49594" lon="6.63488">
        <ele>2489.3999023438</ele>
        <time>2016-03-07T11:11:13.000Z</time>
      </trkpt>
      <trkpt lat="45.49595" lon="6.63489">
        <ele>2490.3999023438</ele>
        <time>2016-03-07T11:11:18.000Z</time>
      </trkpt>
      <trkpt lat="45.49596" lon="6.63489">
        <ele>2490.6000976562</ele>
        <time>2016-03-07T11:11:19.000Z</time>
      </trkpt>
      <trkpt lat="45.49598" lon="6.63492">
        <ele>2491.1999511719</ele>
        <time>2016-03-07T11:11:24.000Z</time>
      </trkpt>
      <trkpt lat="45.49598" lon="6.63493">
        <ele>2491.6000976562</ele>
        <time>2016-03-07T11:11:25.000Z</time>
      </trkpt>
      <trkpt lat="45.496" lon="6.63496">
        <ele>2492.6000976562</ele>
        <time>2016-03-07T11:11:29.000Z</time>
      </trkpt>
      <trkpt lat="45.49602" lon="6.63499">
        <ele>2493.6000976562</ele>
        <time>2016-03-07T11:11:33.000Z</time>
      </trkpt>
      <trkpt lat="45.49602" lon="6.63499">
        <ele>2493.8000488281</ele>
        <time>2016-03-07T11:11:34.000Z</time>
      </trkpt>
      <trkpt lat="45.49603" lon="6.63502">
        <ele>2494.6000976562</ele>
        <time>2016-03-07T11:11:38.000Z</time>
      </trkpt>
      <trkpt lat="45.49604" lon="6.63502">
        <ele>2494.8000488281</ele>
        <time>2016-03-07T11:11:39.000Z</time>
      </trkpt>
      <trkpt lat="45.49604" lon="6.63508">
        <ele>2495.6000976562</ele>
        <time>2016-03-07T11:11:46.000Z</time>
      </trkpt>
      <trkpt lat="45.49604" lon="6.6351">
        <ele>2496</ele>
        <time>2016-03-07T11:11:47.000Z</time>
      </trkpt>
      <trkpt lat="45.49604" lon="6.63512">
        <ele>2496.6000976562</ele>
        <time>2016-03-07T11:11:51.000Z</time>
      </trkpt>
      <trkpt lat="45.49604" lon="6.63512">
        <ele>2497</ele>
        <time>2016-03-07T11:11:56.000Z</time>
      </trkpt>
      <trkpt lat="45.49604" lon="6.63512">
        <ele>2497</ele>
        <time>2016-03-07T11:11:57.000Z</time>
      </trkpt>
      <trkpt lat="45.49603" lon="6.63511">
        <ele>2497.3999023438</ele>
        <time>2016-03-07T11:12:07.000Z</time>
      </trkpt>
      <trkpt lat="45.496" lon="6.63509">
        <ele>2497.8000488281</ele>
        <time>2016-03-07T11:12:12.000Z</time>
      </trkpt>
      <trkpt lat="45.49596" lon="6.6351">
        <ele>2498</ele>
        <time>2016-03-07T11:12:17.000Z</time>
      </trkpt>
      <trkpt lat="45.49591" lon="6.63515">
        <ele>2498.8000488281</ele>
        <time>2016-03-07T11:12:23.000Z</time>
      </trkpt>
      <trkpt lat="45.4959" lon="6.63517">
        <ele>2499.1999511719</ele>
        <time>2016-03-07T11:12:25.000Z</time>
      </trkpt>
      <trkpt lat="45.49588" lon="6.63521">
        <ele>2499.8000488281</ele>
        <time>2016-03-07T11:12:30.000Z</time>
      </trkpt>
      <trkpt lat="45.49587" lon="6.63522">
        <ele>2500.1999511719</ele>
        <time>2016-03-07T11:12:32.000Z</time>
      </trkpt>
      <trkpt lat="45.49585" lon="6.63524">
        <ele>2500.8000488281</ele>
        <time>2016-03-07T11:12:35.000Z</time>
      </trkpt>
      <trkpt lat="45.49582" lon="6.63526">
        <ele>2501.1999511719</ele>
        <time>2016-03-07T11:12:39.000Z</time>
      </trkpt>
      <trkpt lat="45.49582" lon="6.63527">
        <ele>2501.3999023438</ele>
        <time>2016-03-07T11:12:41.000Z</time>
      </trkpt>
      <trkpt lat="45.4958" lon="6.6353">
        <ele>2502.1999511719</ele>
        <time>2016-03-07T11:12:47.000Z</time>
      </trkpt>
      <trkpt lat="45.49579" lon="6.63532">
        <ele>2503.1999511719</ele>
        <time>2016-03-07T11:12:51.000Z</time>
      </trkpt>
      <trkpt lat="45.49577" lon="6.63535">
        <ele>2504</ele>
        <time>2016-03-07T11:12:54.000Z</time>
      </trkpt>
      <trkpt lat="45.49577" lon="6.63536">
        <ele>2504.3999023438</ele>
        <time>2016-03-07T11:12:56.000Z</time>
      </trkpt>
      <trkpt lat="45.49575" lon="6.6354">
        <ele>2505.3999023438</ele>
        <time>2016-03-07T11:13:00.000Z</time>
      </trkpt>
      <trkpt lat="45.49574" lon="6.6354">
        <ele>2505.6000976562</ele>
        <time>2016-03-07T11:13:01.000Z</time>
      </trkpt>
      <trkpt lat="45.49571" lon="6.6354">
        <ele>2506.6000976562</ele>
        <time>2016-03-07T11:13:08.000Z</time>
      </trkpt>
      <trkpt lat="45.49571" lon="6.6354">
        <ele>2507</ele>
        <time>2016-03-07T11:13:11.000Z</time>
      </trkpt>
      <trkpt lat="45.49571" lon="6.6354">
        <ele>2507.8000488281</ele>
        <time>2016-03-07T11:13:14.000Z</time>
      </trkpt>
      <trkpt lat="45.49571" lon="6.6354">
        <ele>2508</ele>
        <time>2016-03-07T11:13:21.000Z</time>
      </trkpt>
      <trkpt lat="45.49574" lon="6.63544">
        <ele>2508.3999023438</ele>
        <time>2016-03-07T11:13:30.000Z</time>
      </trkpt>
      <trkpt lat="45.49574" lon="6.63545">
        <ele>2508.8000488281</ele>
        <time>2016-03-07T11:13:34.000Z</time>
      </trkpt>
      <trkpt lat="45.49575" lon="6.63546">
        <ele>2509.1999511719</ele>
        <time>2016-03-07T11:13:36.000Z</time>
      </trkpt>
      <trkpt lat="45.49575" lon="6.63547">
        <ele>2510</ele>
        <time>2016-03-07T11:13:38.000Z</time>
      </trkpt>
      <trkpt lat="45.49577" lon="6.63549">
        <ele>2510.8000488281</ele>
        <time>2016-03-07T11:13:42.000Z</time>
      </trkpt>
      <trkpt lat="45.49577" lon="6.63551">
        <ele>2511.1999511719</ele>
        <time>2016-03-07T11:13:44.000Z</time>
      </trkpt>
      <trkpt lat="45.49579" lon="6.63554">
        <ele>2512</ele>
        <time>2016-03-07T11:13:48.000Z</time>
      </trkpt>
      <trkpt lat="45.4958" lon="6.63557">
        <ele>2512.6000976562</ele>
        <time>2016-03-07T11:13:51.000Z</time>
      </trkpt>
      <trkpt lat="45.49579" lon="6.63559">
        <ele>2513.3999023438</ele>
        <time>2016-03-07T11:13:55.000Z</time>
      </trkpt>
      <trkpt lat="45.49579" lon="6.63559">
        <ele>2513.6000976562</ele>
        <time>2016-03-07T11:13:56.000Z</time>
      </trkpt>
      <trkpt lat="45.49576" lon="6.63559">
        <ele>2514.6000976562</ele>
        <time>2016-03-07T11:14:00.000Z</time>
      </trkpt>
      <trkpt lat="45.49576" lon="6.63559">
        <ele>2514.8000488281</ele>
        <time>2016-03-07T11:14:01.000Z</time>
      </trkpt>
      <trkpt lat="45.49572" lon="6.6356">
        <ele>2515.8000488281</ele>
        <time>2016-03-07T11:14:07.000Z</time>
      </trkpt>
      <trkpt lat="45.49571" lon="6.6356">
        <ele>2515.8000488281</ele>
        <time>2016-03-07T11:14:08.000Z</time>
      </trkpt>
      <trkpt lat="45.49567" lon="6.63563">
        <ele>2516.6000976562</ele>
        <time>2016-03-07T11:14:15.000Z</time>
      </trkpt>
      <trkpt lat="45.49565" lon="6.63564">
        <ele>2517</ele>
        <time>2016-03-07T11:14:17.000Z</time>
      </trkpt>
      <trkpt lat="45.49562" lon="6.63565">
        <ele>2517.6000976562</ele>
        <time>2016-03-07T11:14:22.000Z</time>
      </trkpt>
      <trkpt lat="45.49561" lon="6.63566">
        <ele>2518</ele>
        <time>2016-03-07T11:14:25.000Z</time>
      </trkpt>
      <trkpt lat="45.49558" lon="6.63567">
        <ele>2518.6000976562</ele>
        <time>2016-03-07T11:14:29.000Z</time>
      </trkpt>
      <trkpt lat="45.49556" lon="6.63569">
        <ele>2519</ele>
        <time>2016-03-07T11:14:32.000Z</time>
      </trkpt>
      <trkpt lat="45.49554" lon="6.6357">
        <ele>2519.6000976562</ele>
        <time>2016-03-07T11:14:36.000Z</time>
      </trkpt>
      <trkpt lat="45.49554" lon="6.6357">
        <ele>2520</ele>
        <time>2016-03-07T11:14:39.000Z</time>
      </trkpt>
      <trkpt lat="45.49555" lon="6.6357">
        <ele>2520.3999023438</ele>
        <time>2016-03-07T11:14:47.000Z</time>
      </trkpt>
      <trkpt lat="45.49557" lon="6.63571">
        <ele>2521.1999511719</ele>
        <time>2016-03-07T11:14:52.000Z</time>
      </trkpt>
      <trkpt lat="45.49557" lon="6.63571">
        <ele>2521.6000976562</ele>
        <time>2016-03-07T11:14:54.000Z</time>
      </trkpt>
      <trkpt lat="45.49559" lon="6.63574">
        <ele>2522.1999511719</ele>
        <time>2016-03-07T11:15:00.000Z</time>
      </trkpt>
      <trkpt lat="45.49562" lon="6.63578">
        <ele>2523.3999023438</ele>
        <time>2016-03-07T11:15:05.000Z</time>
      </trkpt>
      <trkpt lat="45.49563" lon="6.6358">
        <ele>2523.8000488281</ele>
        <time>2016-03-07T11:15:07.000Z</time>
      </trkpt>
      <trkpt lat="45.49563" lon="6.63583">
        <ele>2524.3999023438</ele>
        <time>2016-03-07T11:15:12.000Z</time>
      </trkpt>
      <trkpt lat="45.49562" lon="6.63584">
        <ele>2525.6000976562</ele>
        <time>2016-03-07T11:15:15.000Z</time>
      </trkpt>
      <trkpt lat="45.49561" lon="6.63584">
        <ele>2526.1999511719</ele>
        <time>2016-03-07T11:15:19.000Z</time>
      </trkpt>
      <trkpt lat="45.4956" lon="6.63586">
        <ele>2526.6000976562</ele>
        <time>2016-03-07T11:15:21.000Z</time>
      </trkpt>
      <trkpt lat="45.49559" lon="6.63587">
        <ele>2526.8000488281</ele>
        <time>2016-03-07T11:15:23.000Z</time>
      </trkpt>
      <trkpt lat="45.49555" lon="6.6359">
        <ele>2527.6000976562</ele>
        <time>2016-03-07T11:15:27.000Z</time>
      </trkpt>
      <trkpt lat="45.49555" lon="6.6359">
        <ele>2527.6000976562</ele>
        <time>2016-03-07T11:15:28.000Z</time>
      </trkpt>
      <trkpt lat="45.49551" lon="6.63593">
        <ele>2528.3999023438</ele>
        <time>2016-03-07T11:15:34.000Z</time>
      </trkpt>
      <trkpt lat="45.49551" lon="6.63593">
        <ele>2528.6000976562</ele>
        <time>2016-03-07T11:15:35.000Z</time>
      </trkpt>
      <trkpt lat="45.49547" lon="6.63596">
        <ele>2529.3999023438</ele>
        <time>2016-03-07T11:15:40.000Z</time>
      </trkpt>
      <trkpt lat="45.49546" lon="6.63597">
        <ele>2529.6000976562</ele>
        <time>2016-03-07T11:15:41.000Z</time>
      </trkpt>
      <trkpt lat="45.49545" lon="6.63599">
        <ele>2530.3999023438</ele>
        <time>2016-03-07T11:15:46.000Z</time>
      </trkpt>
      <trkpt lat="45.49545" lon="6.636">
        <ele>2530.8000488281</ele>
        <time>2016-03-07T11:15:50.000Z</time>
      </trkpt>
      <trkpt lat="45.49543" lon="6.63601">
        <ele>2531.1999511719</ele>
        <time>2016-03-07T11:15:52.000Z</time>
      </trkpt>
      <trkpt lat="45.49541" lon="6.63604">
        <ele>2532</ele>
        <time>2016-03-07T11:15:56.000Z</time>
      </trkpt>
      <trkpt lat="45.49541" lon="6.63604">
        <ele>2532.1999511719</ele>
        <time>2016-03-07T11:15:57.000Z</time>
      </trkpt>
      <trkpt lat="45.49539" lon="6.63606">
        <ele>2533.1999511719</ele>
        <time>2016-03-07T11:16:01.000Z</time>
      </trkpt>
      <trkpt lat="45.49538" lon="6.63606">
        <ele>2533.1999511719</ele>
        <time>2016-03-07T11:16:02.000Z</time>
      </trkpt>
      <trkpt lat="45.49535" lon="6.63608">
        <ele>2533.8000488281</ele>
        <time>2016-03-07T11:16:07.000Z</time>
      </trkpt>
      <trkpt lat="45.49532" lon="6.6361">
        <ele>2534.1999511719</ele>
        <time>2016-03-07T11:16:11.000Z</time>
      </trkpt>
      <trkpt lat="45.49531" lon="6.63611">
        <ele>2534.8000488281</ele>
        <time>2016-03-07T11:16:13.000Z</time>
      </trkpt>
      <trkpt lat="45.4953" lon="6.63611">
        <ele>2535.3999023438</ele>
        <time>2016-03-07T11:16:16.000Z</time>
      </trkpt>
      <trkpt lat="45.49528" lon="6.63613">
        <ele>2535.8000488281</ele>
        <time>2016-03-07T11:16:19.000Z</time>
      </trkpt>
      <trkpt lat="45.49526" lon="6.63615">
        <ele>2536.3999023438</ele>
        <time>2016-03-07T11:16:23.000Z</time>
      </trkpt>
      <trkpt lat="45.49525" lon="6.63617">
        <ele>2536.8000488281</ele>
        <time>2016-03-07T11:16:26.000Z</time>
      </trkpt>
      <trkpt lat="45.49521" lon="6.63621">
        <ele>2537.6000976562</ele>
        <time>2016-03-07T11:16:31.000Z</time>
      </trkpt>
      <trkpt lat="45.49521" lon="6.63622">
        <ele>2538.1999511719</ele>
        <time>2016-03-07T11:16:40.000Z</time>
      </trkpt>
      <trkpt lat="45.49524" lon="6.63625">
        <ele>2538.6000976562</ele>
        <time>2016-03-07T11:16:48.000Z</time>
      </trkpt>
      <trkpt lat="45.49526" lon="6.63627">
        <ele>2539.6000976562</ele>
        <time>2016-03-07T11:16:51.000Z</time>
      </trkpt>
      <trkpt lat="45.49527" lon="6.63628">
        <ele>2540.1999511719</ele>
        <time>2016-03-07T11:16:54.000Z</time>
      </trkpt>
      <trkpt lat="45.49527" lon="6.63629">
        <ele>2540.6000976562</ele>
        <time>2016-03-07T11:16:56.000Z</time>
      </trkpt>
      <trkpt lat="45.49529" lon="6.63635">
        <ele>2541.1999511719</ele>
        <time>2016-03-07T11:17:01.000Z</time>
      </trkpt>
      <trkpt lat="45.49529" lon="6.63636">
        <ele>2541.6000976562</ele>
        <time>2016-03-07T11:17:03.000Z</time>
      </trkpt>
      <trkpt lat="45.49529" lon="6.63638">
        <ele>2542.1999511719</ele>
        <time>2016-03-07T11:17:06.000Z</time>
      </trkpt>
      <trkpt lat="45.49529" lon="6.6364">
        <ele>2542.8000488281</ele>
        <time>2016-03-07T11:17:09.000Z</time>
      </trkpt>
      <trkpt lat="45.49528" lon="6.63644">
        <ele>2543.8000488281</ele>
        <time>2016-03-07T11:17:13.000Z</time>
      </trkpt>
      <trkpt lat="45.49528" lon="6.63644">
        <ele>2544</ele>
        <time>2016-03-07T11:17:14.000Z</time>
      </trkpt>
      <trkpt lat="45.49526" lon="6.63649">
        <ele>2544.8000488281</ele>
        <time>2016-03-07T11:17:20.000Z</time>
      </trkpt>
      <trkpt lat="45.49526" lon="6.63649">
        <ele>2545</ele>
        <time>2016-03-07T11:17:21.000Z</time>
      </trkpt>
      <trkpt lat="45.49526" lon="6.63653">
        <ele>2546</ele>
        <time>2016-03-07T11:17:26.000Z</time>
      </trkpt>
      <trkpt lat="45.49525" lon="6.63655">
        <ele>2546.3999023438</ele>
        <time>2016-03-07T11:17:41.000Z</time>
      </trkpt>
      <trkpt lat="45.49524" lon="6.63658">
        <ele>2547.1999511719</ele>
        <time>2016-03-07T11:17:46.000Z</time>
      </trkpt>
      <trkpt lat="45.49524" lon="6.63659">
        <ele>2547.1999511719</ele>
        <time>2016-03-07T11:17:47.000Z</time>
      </trkpt>
      <trkpt lat="45.49522" lon="6.63665">
        <ele>2548.1999511719</ele>
        <time>2016-03-07T11:17:52.000Z</time>
      </trkpt>
      <trkpt lat="45.49522" lon="6.63665">
        <ele>2548.3999023438</ele>
        <time>2016-03-07T11:17:53.000Z</time>
      </trkpt>
      <trkpt lat="45.49521" lon="6.63671">
        <ele>2549.1999511719</ele>
        <time>2016-03-07T11:17:58.000Z</time>
      </trkpt>
      <trkpt lat="45.49522" lon="6.63671">
        <ele>2549.3999023438</ele>
        <time>2016-03-07T11:17:59.000Z</time>
      </trkpt>
      <trkpt lat="45.4952" lon="6.63679">
        <ele>2550.3999023438</ele>
        <time>2016-03-07T11:18:05.000Z</time>
      </trkpt>
      <trkpt lat="45.49519" lon="6.63686">
        <ele>2551</ele>
        <time>2016-03-07T11:18:11.000Z</time>
      </trkpt>
      <trkpt lat="45.49519" lon="6.63688">
        <ele>2551.3999023438</ele>
        <time>2016-03-07T11:18:13.000Z</time>
      </trkpt>
      <trkpt lat="45.49518" lon="6.63689">
        <ele>2551.6000976562</ele>
        <time>2016-03-07T11:18:16.000Z</time>
      </trkpt>
      <trkpt lat="45.49518" lon="6.63695">
        <ele>2552.3999023438</ele>
        <time>2016-03-07T11:18:22.000Z</time>
      </trkpt>
      <trkpt lat="45.49517" lon="6.63701">
        <ele>2553.3999023438</ele>
        <time>2016-03-07T11:18:28.000Z</time>
      </trkpt>
      <trkpt lat="45.49517" lon="6.63701">
        <ele>2553.6000976562</ele>
        <time>2016-03-07T11:18:29.000Z</time>
      </trkpt>
      <trkpt lat="45.49517" lon="6.63706">
        <ele>2554.8000488281</ele>
        <time>2016-03-07T11:18:34.000Z</time>
      </trkpt>
      <trkpt lat="45.49516" lon="6.63711">
        <ele>2555.6000976562</ele>
        <time>2016-03-07T11:18:40.000Z</time>
      </trkpt>
      <trkpt lat="45.49516" lon="6.63711">
        <ele>2555.8000488281</ele>
        <time>2016-03-07T11:18:41.000Z</time>
      </trkpt>
      <trkpt lat="45.49516" lon="6.63715">
        <ele>2556.8000488281</ele>
        <time>2016-03-07T11:18:45.000Z</time>
      </trkpt>
      <trkpt lat="45.49515" lon="6.63716">
        <ele>2557.1999511719</ele>
        <time>2016-03-07T11:18:46.000Z</time>
      </trkpt>
      <trkpt lat="45.49515" lon="6.6372">
        <ele>2558</ele>
        <time>2016-03-07T11:18:49.000Z</time>
      </trkpt>
      <trkpt lat="45.49515" lon="6.63721">
        <ele>2558.3999023438</ele>
        <time>2016-03-07T11:18:51.000Z</time>
      </trkpt>
      <trkpt lat="45.49514" lon="6.63723">
        <ele>2559</ele>
        <time>2016-03-07T11:18:55.000Z</time>
      </trkpt>
      <trkpt lat="45.49513" lon="6.63724">
        <ele>2559.3999023438</ele>
        <time>2016-03-07T11:18:57.000Z</time>
      </trkpt>
      <trkpt lat="45.49513" lon="6.63731">
        <ele>2560.1999511719</ele>
        <time>2016-03-07T11:19:03.000Z</time>
      </trkpt>
      <trkpt lat="45.49512" lon="6.63736">
        <ele>2561</ele>
        <time>2016-03-07T11:19:09.000Z</time>
      </trkpt>
      <trkpt lat="45.49512" lon="6.63736">
        <ele>2561.1999511719</ele>
        <time>2016-03-07T11:19:10.000Z</time>
      </trkpt>
      <trkpt lat="45.49512" lon="6.63741">
        <ele>2562.1999511719</ele>
        <time>2016-03-07T11:19:15.000Z</time>
      </trkpt>
      <trkpt lat="45.49512" lon="6.63742">
        <ele>2562.3999023438</ele>
        <time>2016-03-07T11:19:16.000Z</time>
      </trkpt>
      <trkpt lat="45.4951" lon="6.63746">
        <ele>2563.3999023438</ele>
        <time>2016-03-07T11:19:22.000Z</time>
      </trkpt>
      <trkpt lat="45.49508" lon="6.63749">
        <ele>2563.6000976562</ele>
        <time>2016-03-07T11:19:27.000Z</time>
      </trkpt>
      <trkpt lat="45.49508" lon="6.63752">
        <ele>2564.6000976562</ele>
        <time>2016-03-07T11:19:31.000Z</time>
      </trkpt>
      <trkpt lat="45.49507" lon="6.63754">
        <ele>2565.6000976562</ele>
        <time>2016-03-07T11:19:34.000Z</time>
      </trkpt>
      <trkpt lat="45.49507" lon="6.63756">
        <ele>2565.8000488281</ele>
        <time>2016-03-07T11:19:37.000Z</time>
      </trkpt>
      <trkpt lat="45.49506" lon="6.63759">
        <ele>2566.6000976562</ele>
        <time>2016-03-07T11:19:41.000Z</time>
      </trkpt>
      <trkpt lat="45.49506" lon="6.63761">
        <ele>2567</ele>
        <time>2016-03-07T11:19:43.000Z</time>
      </trkpt>
      <trkpt lat="45.49506" lon="6.63763">
        <ele>2567.6000976562</ele>
        <time>2016-03-07T11:19:47.000Z</time>
      </trkpt>
      <trkpt lat="45.49505" lon="6.63764">
        <ele>2568</ele>
        <time>2016-03-07T11:19:49.000Z</time>
      </trkpt>
      <trkpt lat="45.49505" lon="6.63767">
        <ele>2568.8000488281</ele>
        <time>2016-03-07T11:19:54.000Z</time>
      </trkpt>
      <trkpt lat="45.49505" lon="6.63769">
        <ele>2569.1999511719</ele>
        <time>2016-03-07T11:19:57.000Z</time>
      </trkpt>
      <trkpt lat="45.49505" lon="6.63769">
        <ele>2569.6000976562</ele>
        <time>2016-03-07T11:20:02.000Z</time>
      </trkpt>
      <trkpt lat="45.49505" lon="6.63769">
        <ele>2569.8000488281</ele>
        <time>2016-03-07T11:20:15.000Z</time>
      </trkpt>
      <trkpt lat="45.49506" lon="6.63775">
        <ele>2570</ele>
        <time>2016-03-07T11:20:20.000Z</time>
      </trkpt>
      <trkpt lat="45.49506" lon="6.63777">
        <ele>2570.1999511719</ele>
        <time>2016-03-07T11:20:22.000Z</time>
      </trkpt>
      <trkpt lat="45.49505" lon="6.63779">
        <ele>2571.3999023438</ele>
        <time>2016-03-07T11:20:26.000Z</time>
      </trkpt>
      <trkpt lat="45.49505" lon="6.63779">
        <ele>2571.6000976562</ele>
        <time>2016-03-07T11:20:27.000Z</time>
      </trkpt>
      <trkpt lat="45.49503" lon="6.6378">
        <ele>2572.3999023438</ele>
        <time>2016-03-07T11:20:32.000Z</time>
      </trkpt>
      <trkpt lat="45.49502" lon="6.6378">
        <ele>2572.6000976562</ele>
        <time>2016-03-07T11:20:33.000Z</time>
      </trkpt>
      <trkpt lat="45.49502" lon="6.63781">
        <ele>2573.1999511719</ele>
        <time>2016-03-07T11:20:37.000Z</time>
      </trkpt>
      <trkpt lat="45.49501" lon="6.63782">
        <ele>2573.6000976562</ele>
        <time>2016-03-07T11:20:39.000Z</time>
      </trkpt>
      <trkpt lat="45.495" lon="6.63784">
        <ele>2574.3999023438</ele>
        <time>2016-03-07T11:20:42.000Z</time>
      </trkpt>
      <trkpt lat="45.49499" lon="6.63785">
        <ele>2574.8000488281</ele>
        <time>2016-03-07T11:20:43.000Z</time>
      </trkpt>
      <trkpt lat="45.49498" lon="6.63787">
        <ele>2575.3999023438</ele>
        <time>2016-03-07T11:20:47.000Z</time>
      </trkpt>
      <trkpt lat="45.49497" lon="6.63789">
        <ele>2575.8000488281</ele>
        <time>2016-03-07T11:20:49.000Z</time>
      </trkpt>
      <trkpt lat="45.49497" lon="6.63793">
        <ele>2576.6000976562</ele>
        <time>2016-03-07T11:20:53.000Z</time>
      </trkpt>
      <trkpt lat="45.49497" lon="6.63794">
        <ele>2577</ele>
        <time>2016-03-07T11:20:54.000Z</time>
      </trkpt>
      <trkpt lat="45.49496" lon="6.63797">
        <ele>2578</ele>
        <time>2016-03-07T11:20:59.000Z</time>
      </trkpt>
      <trkpt lat="45.49496" lon="6.63798">
        <ele>2578</ele>
        <time>2016-03-07T11:21:00.000Z</time>
      </trkpt>
      <trkpt lat="45.49498" lon="6.63796">
        <ele>2579.1999511719</ele>
        <time>2016-03-07T11:21:05.000Z</time>
      </trkpt>
      <trkpt lat="45.49498" lon="6.63796">
        <ele>2579.6000976562</ele>
        <time>2016-03-07T11:21:07.000Z</time>
      </trkpt>
      <trkpt lat="45.495" lon="6.63799">
        <ele>2580.3999023438</ele>
        <time>2016-03-07T11:21:11.000Z</time>
      </trkpt>
      <trkpt lat="45.495" lon="6.63799">
        <ele>2581.1999511719</ele>
        <time>2016-03-07T11:21:16.000Z</time>
      </trkpt>
      <trkpt lat="45.495" lon="6.63799">
        <ele>2581.3999023438</ele>
        <time>2016-03-07T11:21:17.000Z</time>
      </trkpt>
      <trkpt lat="45.49501" lon="6.63801">
        <ele>2582.1999511719</ele>
        <time>2016-03-07T11:21:24.000Z</time>
      </trkpt>
      <trkpt lat="45.49501" lon="6.63802">
        <ele>2582.3999023438</ele>
        <time>2016-03-07T11:21:27.000Z</time>
      </trkpt>
      <trkpt lat="45.49502" lon="6.63807">
        <ele>2583</ele>
        <time>2016-03-07T11:21:30.000Z</time>
      </trkpt>
      <trkpt lat="45.49502" lon="6.63808">
        <ele>2583.3999023438</ele>
        <time>2016-03-07T11:21:33.000Z</time>
      </trkpt>
      <trkpt lat="45.49501" lon="6.6381">
        <ele>2584.1999511719</ele>
        <time>2016-03-07T11:21:36.000Z</time>
      </trkpt>
      <trkpt lat="45.49501" lon="6.63811">
        <ele>2584.8000488281</ele>
        <time>2016-03-07T11:21:37.000Z</time>
      </trkpt>
      <trkpt lat="45.495" lon="6.63813">
        <ele>2585.1999511719</ele>
        <time>2016-03-07T11:21:39.000Z</time>
      </trkpt>
      <trkpt lat="45.49499" lon="6.63815">
        <ele>2585.8000488281</ele>
        <time>2016-03-07T11:21:43.000Z</time>
      </trkpt>
      <trkpt lat="45.49497" lon="6.63819">
        <ele>2586.8000488281</ele>
        <time>2016-03-07T11:21:48.000Z</time>
      </trkpt>
      <trkpt lat="45.49496" lon="6.63821">
        <ele>2587.6000976562</ele>
        <time>2016-03-07T11:21:52.000Z</time>
      </trkpt>
      <trkpt lat="45.49495" lon="6.63822">
        <ele>2587.8000488281</ele>
        <time>2016-03-07T11:21:53.000Z</time>
      </trkpt>
      <trkpt lat="45.49494" lon="6.63824">
        <ele>2588.8000488281</ele>
        <time>2016-03-07T11:21:58.000Z</time>
      </trkpt>
      <trkpt lat="45.49494" lon="6.63824">
        <ele>2589</ele>
        <time>2016-03-07T11:21:59.000Z</time>
      </trkpt>
      <trkpt lat="45.49493" lon="6.63828">
        <ele>2589.8000488281</ele>
        <time>2016-03-07T11:22:03.000Z</time>
      </trkpt>
      <trkpt lat="45.49492" lon="6.63829">
        <ele>2590.1999511719</ele>
        <time>2016-03-07T11:22:05.000Z</time>
      </trkpt>
      <trkpt lat="45.49491" lon="6.63832">
        <ele>2591.1999511719</ele>
        <time>2016-03-07T11:22:10.000Z</time>
      </trkpt>
      <trkpt lat="45.49488" lon="6.63836">
        <ele>2592.3999023438</ele>
        <time>2016-03-07T11:22:16.000Z</time>
      </trkpt>
      <trkpt lat="45.49488" lon="6.63837">
        <ele>2592.6000976562</ele>
        <time>2016-03-07T11:22:18.000Z</time>
      </trkpt>
      <trkpt lat="45.49487" lon="6.63841">
        <ele>2593.3999023438</ele>
        <time>2016-03-07T11:22:24.000Z</time>
      </trkpt>
      <trkpt lat="45.49487" lon="6.63845">
        <ele>2594.3999023438</ele>
        <time>2016-03-07T11:22:28.000Z</time>
      </trkpt>
      <trkpt lat="45.49487" lon="6.63847">
        <ele>2594.3999023438</ele>
        <time>2016-03-07T11:22:29.000Z</time>
      </trkpt>
      <trkpt lat="45.49486" lon="6.63852">
        <ele>2595.3999023438</ele>
        <time>2016-03-07T11:22:34.000Z</time>
      </trkpt>
      <trkpt lat="45.49486" lon="6.63853">
        <ele>2596.1999511719</ele>
        <time>2016-03-07T11:22:37.000Z</time>
      </trkpt>
      <trkpt lat="45.49486" lon="6.63854">
        <ele>2596.6000976562</ele>
        <time>2016-03-07T11:22:38.000Z</time>
      </trkpt>
      <trkpt lat="45.49485" lon="6.63858">
        <ele>2597.6000976562</ele>
        <time>2016-03-07T11:22:44.000Z</time>
      </trkpt>
      <trkpt lat="45.49485" lon="6.6386">
        <ele>2598.1999511719</ele>
        <time>2016-03-07T11:22:46.000Z</time>
      </trkpt>
      <trkpt lat="45.49486" lon="6.63863">
        <ele>2598.8000488281</ele>
        <time>2016-03-07T11:22:49.000Z</time>
      </trkpt>
      <trkpt lat="45.49484" lon="6.63866">
        <ele>2599.6000976562</ele>
        <time>2016-03-07T11:22:52.000Z</time>
      </trkpt>
      <trkpt lat="45.49484" lon="6.63868">
        <ele>2599.8000488281</ele>
        <time>2016-03-07T11:22:54.000Z</time>
      </trkpt>
      <trkpt lat="45.49484" lon="6.63872">
        <ele>2600.1999511719</ele>
        <time>2016-03-07T11:22:58.000Z</time>
      </trkpt>
      <trkpt lat="45.49483" lon="6.63875">
        <ele>2600.8000488281</ele>
        <time>2016-03-07T11:23:03.000Z</time>
      </trkpt>
      <trkpt lat="45.49483" lon="6.63876">
        <ele>2601.1999511719</ele>
        <time>2016-03-07T11:23:05.000Z</time>
      </trkpt>
      <trkpt lat="45.49482" lon="6.63877">
        <ele>2602</ele>
        <time>2016-03-07T11:23:07.000Z</time>
      </trkpt>
      <trkpt lat="45.49481" lon="6.63882">
        <ele>2603</ele>
        <time>2016-03-07T11:23:12.000Z</time>
      </trkpt>
      <trkpt lat="45.4948" lon="6.63884">
        <ele>2603.1999511719</ele>
        <time>2016-03-07T11:23:13.000Z</time>
      </trkpt>
      <trkpt lat="45.4948" lon="6.63889">
        <ele>2604</ele>
        <time>2016-03-07T11:23:19.000Z</time>
      </trkpt>
      <trkpt lat="45.4948" lon="6.63892">
        <ele>2604.3999023438</ele>
        <time>2016-03-07T11:23:22.000Z</time>
      </trkpt>
      <trkpt lat="45.4948" lon="6.63895">
        <ele>2605</ele>
        <time>2016-03-07T11:23:26.000Z</time>
      </trkpt>
      <trkpt lat="45.49479" lon="6.63896">
        <ele>2605.3999023438</ele>
        <time>2016-03-07T11:23:28.000Z</time>
      </trkpt>
      <trkpt lat="45.49478" lon="6.639">
        <ele>2606.1999511719</ele>
        <time>2016-03-07T11:23:32.000Z</time>
      </trkpt>
      <trkpt lat="45.49478" lon="6.63902">
        <ele>2606.8000488281</ele>
        <time>2016-03-07T11:23:35.000Z</time>
      </trkpt>
      <trkpt lat="45.49477" lon="6.63905">
        <ele>2607.1999511719</ele>
        <time>2016-03-07T11:23:37.000Z</time>
      </trkpt>
      <trkpt lat="45.49476" lon="6.63908">
        <ele>2608</ele>
        <time>2016-03-07T11:23:41.000Z</time>
      </trkpt>
      <trkpt lat="45.49476" lon="6.6391">
        <ele>2608.3999023438</ele>
        <time>2016-03-07T11:23:43.000Z</time>
      </trkpt>
      <trkpt lat="45.49475" lon="6.63913">
        <ele>2608.8000488281</ele>
        <time>2016-03-07T11:23:46.000Z</time>
      </trkpt>
      <trkpt lat="45.49474" lon="6.63916">
        <ele>2609.3999023438</ele>
        <time>2016-03-07T11:23:50.000Z</time>
      </trkpt>
      <trkpt lat="45.49472" lon="6.63922">
        <ele>2610</ele>
        <time>2016-03-07T11:23:54.000Z</time>
      </trkpt>
      <trkpt lat="45.49472" lon="6.63924">
        <ele>2610.6000976562</ele>
        <time>2016-03-07T11:23:56.000Z</time>
      </trkpt>
      <trkpt lat="45.49471" lon="6.63927">
        <ele>2611.1999511719</ele>
        <time>2016-03-07T11:24:00.000Z</time>
      </trkpt>
      <trkpt lat="45.49472" lon="6.63929">
        <ele>2611.8000488281</ele>
        <time>2016-03-07T11:24:02.000Z</time>
      </trkpt>
      <trkpt lat="45.49472" lon="6.63931">
        <ele>2613</ele>
        <time>2016-03-07T11:24:07.000Z</time>
      </trkpt>
      <trkpt lat="45.49472" lon="6.63932">
        <ele>2613</ele>
        <time>2016-03-07T11:24:16.000Z</time>
      </trkpt>
      <trkpt lat="45.49476" lon="6.63936">
        <ele>2613.3999023438</ele>
        <time>2016-03-07T11:24:23.000Z</time>
      </trkpt>
      <trkpt lat="45.49475" lon="6.63936">
        <ele>2613.8000488281</ele>
        <time>2016-03-07T11:24:31.000Z</time>
      </trkpt>
      <trkpt lat="45.49475" lon="6.63936">
        <ele>2613.8000488281</ele>
        <time>2016-03-07T11:24:42.000Z</time>
      </trkpt>
      <trkpt lat="45.49476" lon="6.63937">
        <ele>2613.8000488281</ele>
        <time>2016-03-07T11:24:57.000Z</time>
      </trkpt>
      <trkpt lat="45.49476" lon="6.63937">
        <ele>2613.6000976562</ele>
        <time>2016-03-07T11:25:08.000Z</time>
      </trkpt>
      <trkpt lat="45.49475" lon="6.63937">
        <ele>2613.8000488281</ele>
        <time>2016-03-07T11:25:19.000Z</time>
      </trkpt>
      <trkpt lat="45.49475" lon="6.63936">
        <ele>2613.8000488281</ele>
        <time>2016-03-07T11:25:27.000Z</time>
      </trkpt>
      <trkpt lat="45.49475" lon="6.63936">
        <ele>2614</ele>
        <time>2016-03-07T11:25:29.000Z</time>
      </trkpt>
      <trkpt lat="45.49475" lon="6.63936">
        <ele>2614</ele>
        <time>2016-03-07T11:25:38.000Z</time>
      </trkpt>
      <trkpt lat="45.49475" lon="6.63936">
        <ele>2614</ele>
        <time>2016-03-07T11:25:50.000Z</time>
      </trkpt>
      <trkpt lat="45.49475" lon="6.63936">
        <ele>2613.8000488281</ele>
        <time>2016-03-07T11:26:05.000Z</time>
      </trkpt>
      <trkpt lat="45.49475" lon="6.63936">
        <ele>2613</ele>
        <time>2016-03-07T11:26:12.000Z</time>
      </trkpt>
      <trkpt lat="45.49475" lon="6.63936">
        <ele>2613.8000488281</ele>
        <time>2016-03-07T11:26:19.000Z</time>
      </trkpt>
      <trkpt lat="45.49475" lon="6.63936">
        <ele>2614</ele>
        <time>2016-03-07T11:26:22.000Z</time>
      </trkpt>
      <trkpt lat="45.49475" lon="6.63936">
        <ele>2614.6000976562</ele>
        <time>2016-03-07T11:26:31.000Z</time>
      </trkpt>
      <trkpt lat="45.49475" lon="6.63936">
        <ele>2614.1999511719</ele>
        <time>2016-03-07T11:26:48.000Z</time>
      </trkpt>
      <trkpt lat="45.49475" lon="6.63936">
        <ele>2614</ele>
        <time>2016-03-07T11:27:01.000Z</time>
      </trkpt>
      <trkpt lat="45.49475" lon="6.63936">
        <ele>2612.8000488281</ele>
        <time>2016-03-07T11:27:11.000Z</time>
      </trkpt>
      <trkpt lat="45.49475" lon="6.63936">
        <ele>2614</ele>
        <time>2016-03-07T11:27:16.000Z</time>
      </trkpt>
      <trkpt lat="45.49475" lon="6.63936">
        <ele>2614.8000488281</ele>
        <time>2016-03-07T11:27:21.000Z</time>
      </trkpt>
      <trkpt lat="45.49475" lon="6.63936">
        <ele>2613.6000976562</ele>
        <time>2016-03-07T11:27:38.000Z</time>
      </trkpt>
      <trkpt lat="45.49475" lon="6.63936">
        <ele>2614</ele>
        <time>2016-03-07T11:27:52.000Z</time>
      </trkpt>
      <trkpt lat="45.49475" lon="6.63936">
        <ele>2613.8000488281</ele>
        <time>2016-03-07T11:28:06.000Z</time>
      </trkpt>
      <trkpt lat="45.49475" lon="6.63936">
        <ele>2614</ele>
        <time>2016-03-07T11:28:20.000Z</time>
      </trkpt>
      <trkpt lat="45.49475" lon="6.63936">
        <ele>2613.6000976562</ele>
        <time>2016-03-07T11:28:41.000Z</time>
      </trkpt>
      <trkpt lat="45.49475" lon="6.63936">
        <ele>2613.6000976562</ele>
        <time>2016-03-07T11:29:03.000Z</time>
      </trkpt>
      <trkpt lat="45.49475" lon="6.63936">
        <ele>2613.6000976562</ele>
        <time>2016-03-07T11:29:20.000Z</time>
      </trkpt>
      <trkpt lat="45.49475" lon="6.63935">
        <ele>2613.6000976562</ele>
        <time>2016-03-07T11:29:42.000Z</time>
      </trkpt>
      <trkpt lat="45.49475" lon="6.63935">
        <ele>2613.6000976562</ele>
        <time>2016-03-07T11:29:59.000Z</time>
      </trkpt>
      <trkpt lat="45.49475" lon="6.63935">
        <ele>2613.3999023438</ele>
        <time>2016-03-07T11:30:14.000Z</time>
      </trkpt>
      <trkpt lat="45.49475" lon="6.63935">
        <ele>2613.6000976562</ele>
        <time>2016-03-07T11:30:33.000Z</time>
      </trkpt>
      <trkpt lat="45.49475" lon="6.63935">
        <ele>2613.8000488281</ele>
        <time>2016-03-07T11:30:49.000Z</time>
      </trkpt>
      <trkpt lat="45.49475" lon="6.63935">
        <ele>2613.8000488281</ele>
        <time>2016-03-07T11:31:04.000Z</time>
      </trkpt>
      <trkpt lat="45.49475" lon="6.63935">
        <ele>2613.6000976562</ele>
        <time>2016-03-07T11:31:17.000Z</time>
      </trkpt>
      <trkpt lat="45.49475" lon="6.63935">
        <ele>2614</ele>
        <time>2016-03-07T11:31:29.000Z</time>
      </trkpt>
      <trkpt lat="45.49475" lon="6.63935">
        <ele>2614</ele>
        <time>2016-03-07T11:31:31.000Z</time>
      </trkpt>
      <trkpt lat="45.49475" lon="6.63935">
        <ele>2613.1999511719</ele>
        <time>2016-03-07T11:31:47.000Z</time>
      </trkpt>
      <trkpt lat="45.49475" lon="6.63935">
        <ele>2614</ele>
        <time>2016-03-07T11:31:59.000Z</time>
      </trkpt>
      <trkpt lat="45.49475" lon="6.63934">
        <ele>2614.1999511719</ele>
        <time>2016-03-07T11:32:13.000Z</time>
      </trkpt>
      <trkpt lat="45.49475" lon="6.63934">
        <ele>2614.1999511719</ele>
        <time>2016-03-07T11:32:28.000Z</time>
      </trkpt>
      <trkpt lat="45.49475" lon="6.63934">
        <ele>2614.1999511719</ele>
        <time>2016-03-07T11:32:53.000Z</time>
      </trkpt>
      <trkpt lat="45.49475" lon="6.63934">
        <ele>2614.1999511719</ele>
        <time>2016-03-07T11:33:07.000Z</time>
      </trkpt>
      <trkpt lat="45.49475" lon="6.63934">
        <ele>2614</ele>
        <time>2016-03-07T11:33:24.000Z</time>
      </trkpt>
      <trkpt lat="45.49475" lon="6.63934">
        <ele>2614</ele>
        <time>2016-03-07T11:33:36.000Z</time>
      </trkpt>
      <trkpt lat="45.49475" lon="6.63934">
        <ele>2614.1999511719</ele>
        <time>2016-03-07T11:33:45.000Z</time>
      </trkpt>
      <trkpt lat="45.49475" lon="6.63934">
        <ele>2614.1999511719</ele>
        <time>2016-03-07T11:33:51.000Z</time>
      </trkpt>
      <trkpt lat="45.49475" lon="6.63933">
        <ele>2614</ele>
        <time>2016-03-07T11:34:08.000Z</time>
      </trkpt>
      <trkpt lat="45.49475" lon="6.63933">
        <ele>2613.3999023438</ele>
        <time>2016-03-07T11:34:22.000Z</time>
      </trkpt>
      <trkpt lat="45.49475" lon="6.63933">
        <ele>2614.6000976562</ele>
        <time>2016-03-07T11:34:35.000Z</time>
      </trkpt>
      <trkpt lat="45.49475" lon="6.63933">
        <ele>2613.8000488281</ele>
        <time>2016-03-07T11:34:52.000Z</time>
      </trkpt>
      <trkpt lat="45.49475" lon="6.63933">
        <ele>2613.8000488281</ele>
        <time>2016-03-07T11:35:05.000Z</time>
      </trkpt>
      <trkpt lat="45.49477" lon="6.63937">
        <ele>2613.8000488281</ele>
        <time>2016-03-07T11:35:12.000Z</time>
      </trkpt>
      <trkpt lat="45.49478" lon="6.63941">
        <ele>2612.8000488281</ele>
        <time>2016-03-07T11:35:17.000Z</time>
      </trkpt>
      <trkpt lat="45.49478" lon="6.63942">
        <ele>2612.3999023438</ele>
        <time>2016-03-07T11:35:19.000Z</time>
      </trkpt>
      <trkpt lat="45.49479" lon="6.63945">
        <ele>2611.8000488281</ele>
        <time>2016-03-07T11:35:22.000Z</time>
      </trkpt>
      <trkpt lat="45.49479" lon="6.63951">
        <ele>2611.6000976562</ele>
        <time>2016-03-07T11:35:25.000Z</time>
      </trkpt>
      <trkpt lat="45.4948" lon="6.63954">
        <ele>2611</ele>
        <time>2016-03-07T11:35:27.000Z</time>
      </trkpt>
      <trkpt lat="45.49482" lon="6.63956">
        <ele>2610.6000976562</ele>
        <time>2016-03-07T11:35:28.000Z</time>
      </trkpt>
      <trkpt lat="45.49483" lon="6.6396">
        <ele>2610</ele>
        <time>2016-03-07T11:35:29.000Z</time>
      </trkpt>
      <trkpt lat="45.49485" lon="6.63966">
        <ele>2609.8000488281</ele>
        <time>2016-03-07T11:35:30.000Z</time>
      </trkpt>
      <trkpt lat="45.49488" lon="6.63977">
        <ele>2609</ele>
        <time>2016-03-07T11:35:32.000Z</time>
      </trkpt>
      <trkpt lat="45.49489" lon="6.63982">
        <ele>2608.3999023438</ele>
        <time>2016-03-07T11:35:33.000Z</time>
      </trkpt>
      <trkpt lat="45.49491" lon="6.63988">
        <ele>2607.6000976562</ele>
        <time>2016-03-07T11:35:34.000Z</time>
      </trkpt>
      <trkpt lat="45.49493" lon="6.64">
        <ele>2606</ele>
        <time>2016-03-07T11:35:36.000Z</time>
      </trkpt>
      <trkpt lat="45.49495" lon="6.64008">
        <ele>2603.3999023438</ele>
        <time>2016-03-07T11:35:38.000Z</time>
      </trkpt>
      <trkpt lat="45.49496" lon="6.64011">
        <ele>2602.1999511719</ele>
        <time>2016-03-07T11:35:40.000Z</time>
      </trkpt>
      <trkpt lat="45.49497" lon="6.64012">
        <ele>2601.3999023438</ele>
        <time>2016-03-07T11:35:42.000Z</time>
      </trkpt>
      <trkpt lat="45.49498" lon="6.64013">
        <ele>2601</ele>
        <time>2016-03-07T11:35:44.000Z</time>
      </trkpt>
      <trkpt lat="45.49498" lon="6.64013">
        <ele>2601.3999023438</ele>
        <time>2016-03-07T11:35:47.000Z</time>
      </trkpt>
      <trkpt lat="45.49498" lon="6.64014">
        <ele>2602</ele>
        <time>2016-03-07T11:35:49.000Z</time>
      </trkpt>
      <trkpt lat="45.49499" lon="6.64014">
        <ele>2602.6000976562</ele>
        <time>2016-03-07T11:35:54.000Z</time>
      </trkpt>
      <trkpt lat="45.495" lon="6.64025">
        <ele>2602.3999023438</ele>
        <time>2016-03-07T11:35:59.000Z</time>
      </trkpt>
      <trkpt lat="45.49502" lon="6.64044">
        <ele>2601.1999511719</ele>
        <time>2016-03-07T11:36:07.000Z</time>
      </trkpt>
      <trkpt lat="45.49502" lon="6.64047">
        <ele>2601</ele>
        <time>2016-03-07T11:36:08.000Z</time>
      </trkpt>
      <trkpt lat="45.49501" lon="6.64055">
        <ele>2600.3999023438</ele>
        <time>2016-03-07T11:36:11.000Z</time>
      </trkpt>
      <trkpt lat="45.495" lon="6.64056">
        <ele>2599.6000976562</ele>
        <time>2016-03-07T11:36:13.000Z</time>
      </trkpt>
      <trkpt lat="45.495" lon="6.64057">
        <ele>2598.6000976562</ele>
        <time>2016-03-07T11:36:17.000Z</time>
      </trkpt>
      <trkpt lat="45.495" lon="6.64057">
        <ele>2598.6000976562</ele>
        <time>2016-03-07T11:36:18.000Z</time>
      </trkpt>
      <trkpt lat="45.495" lon="6.64057">
        <ele>2598.1999511719</ele>
        <time>2016-03-07T11:36:37.000Z</time>
      </trkpt>
      <trkpt lat="45.495" lon="6.64056">
        <ele>2598.1999511719</ele>
        <time>2016-03-07T11:36:55.000Z</time>
      </trkpt>
      <trkpt lat="45.49501" lon="6.64058">
        <ele>2598.1999511719</ele>
        <time>2016-03-07T11:37:01.000Z</time>
      </trkpt>
      <trkpt lat="45.49501" lon="6.64064">
        <ele>2597.8000488281</ele>
        <time>2016-03-07T11:37:03.000Z</time>
      </trkpt>
      <trkpt lat="45.49501" lon="6.64067">
        <ele>2597.1999511719</ele>
        <time>2016-03-07T11:37:05.000Z</time>
      </trkpt>
      <trkpt lat="45.49502" lon="6.64068">
        <ele>2596.8000488281</ele>
        <time>2016-03-07T11:37:07.000Z</time>
      </trkpt>
      <trkpt lat="45.4951" lon="6.64068">
        <ele>2596</ele>
        <time>2016-03-07T11:37:11.000Z</time>
      </trkpt>
      <trkpt lat="45.49515" lon="6.64066">
        <ele>2594</ele>
        <time>2016-03-07T11:37:13.000Z</time>
      </trkpt>
      <trkpt lat="45.49517" lon="6.64065">
        <ele>2593</ele>
        <time>2016-03-07T11:37:14.000Z</time>
      </trkpt>
      <trkpt lat="45.4952" lon="6.64062">
        <ele>2590.8000488281</ele>
        <time>2016-03-07T11:37:15.000Z</time>
      </trkpt>
      <trkpt lat="45.49522" lon="6.64061">
        <ele>2589.1999511719</ele>
        <time>2016-03-07T11:37:16.000Z</time>
      </trkpt>
      <trkpt lat="45.49525" lon="6.6406">
        <ele>2587.6000976562</ele>
        <time>2016-03-07T11:37:17.000Z</time>
      </trkpt>
      <trkpt lat="45.49528" lon="6.64058">
        <ele>2586.1999511719</ele>
        <time>2016-03-07T11:37:18.000Z</time>
      </trkpt>
      <trkpt lat="45.49531" lon="6.64056">
        <ele>2584.6000976562</ele>
        <time>2016-03-07T11:37:19.000Z</time>
      </trkpt>
      <trkpt lat="45.49535" lon="6.64055">
        <ele>2583</ele>
        <time>2016-03-07T11:37:20.000Z</time>
      </trkpt>
      <trkpt lat="45.49538" lon="6.64052">
        <ele>2581.3999023438</ele>
        <time>2016-03-07T11:37:21.000Z</time>
      </trkpt>
      <trkpt lat="45.49541" lon="6.6405">
        <ele>2579.6000976562</ele>
        <time>2016-03-07T11:37:22.000Z</time>
      </trkpt>
      <trkpt lat="45.49543" lon="6.6405">
        <ele>2577.8000488281</ele>
        <time>2016-03-07T11:37:23.000Z</time>
      </trkpt>
      <trkpt lat="45.49546" lon="6.6405">
        <ele>2576</ele>
        <time>2016-03-07T11:37:24.000Z</time>
      </trkpt>
      <trkpt lat="45.49549" lon="6.64048">
        <ele>2573.8000488281</ele>
        <time>2016-03-07T11:37:25.000Z</time>
      </trkpt>
      <trkpt lat="45.49551" lon="6.64047">
        <ele>2571.6000976562</ele>
        <time>2016-03-07T11:37:26.000Z</time>
      </trkpt>
      <trkpt lat="45.49554" lon="6.64047">
        <ele>2569.6000976562</ele>
        <time>2016-03-07T11:37:27.000Z</time>
      </trkpt>
      <trkpt lat="45.49556" lon="6.64046">
        <ele>2567.8000488281</ele>
        <time>2016-03-07T11:37:28.000Z</time>
      </trkpt>
      <trkpt lat="45.49558" lon="6.64045">
        <ele>2565.8000488281</ele>
        <time>2016-03-07T11:37:29.000Z</time>
      </trkpt>
      <trkpt lat="45.49561" lon="6.64044">
        <ele>2564</ele>
        <time>2016-03-07T11:37:30.000Z</time>
      </trkpt>
      <trkpt lat="45.49562" lon="6.64043">
        <ele>2562.3999023438</ele>
        <time>2016-03-07T11:37:31.000Z</time>
      </trkpt>
      <trkpt lat="45.49562" lon="6.64043">
        <ele>2560.8000488281</ele>
        <time>2016-03-07T11:37:32.000Z</time>
      </trkpt>
      <trkpt lat="45.49562" lon="6.64043">
        <ele>2559</ele>
        <time>2016-03-07T11:37:33.000Z</time>
      </trkpt>
      <trkpt lat="45.49562" lon="6.64042">
        <ele>2557.3999023438</ele>
        <time>2016-03-07T11:37:34.000Z</time>
      </trkpt>
      <trkpt lat="45.49562" lon="6.64041">
        <ele>2556</ele>
        <time>2016-03-07T11:37:35.000Z</time>
      </trkpt>
      <trkpt lat="45.49564" lon="6.64038">
        <ele>2554.3999023438</ele>
        <time>2016-03-07T11:37:37.000Z</time>
      </trkpt>
      <trkpt lat="45.49566" lon="6.64036">
        <ele>2553.8000488281</ele>
        <time>2016-03-07T11:37:38.000Z</time>
      </trkpt>
      <trkpt lat="45.49568" lon="6.64035">
        <ele>2552.8000488281</ele>
        <time>2016-03-07T11:37:39.000Z</time>
      </trkpt>
      <trkpt lat="45.49573" lon="6.64031">
        <ele>2550.8000488281</ele>
        <time>2016-03-07T11:37:41.000Z</time>
      </trkpt>
      <trkpt lat="45.49574" lon="6.64031">
        <ele>2549.3999023438</ele>
        <time>2016-03-07T11:37:42.000Z</time>
      </trkpt>
      <trkpt lat="45.49577" lon="6.64028">
        <ele>2547.6000976562</ele>
        <time>2016-03-07T11:37:43.000Z</time>
      </trkpt>
      <trkpt lat="45.49579" lon="6.64025">
        <ele>2546</ele>
        <time>2016-03-07T11:37:44.000Z</time>
      </trkpt>
      <trkpt lat="45.4958" lon="6.64024">
        <ele>2544</ele>
        <time>2016-03-07T11:37:45.000Z</time>
      </trkpt>
      <trkpt lat="45.49582" lon="6.64023">
        <ele>2542</ele>
        <time>2016-03-07T11:37:46.000Z</time>
      </trkpt>
      <trkpt lat="45.49585" lon="6.64023">
        <ele>2539.8000488281</ele>
        <time>2016-03-07T11:37:47.000Z</time>
      </trkpt>
      <trkpt lat="45.49588" lon="6.64021">
        <ele>2537.6000976562</ele>
        <time>2016-03-07T11:37:48.000Z</time>
      </trkpt>
      <trkpt lat="45.49591" lon="6.64018">
        <ele>2535.6000976562</ele>
        <time>2016-03-07T11:37:49.000Z</time>
      </trkpt>
      <trkpt lat="45.49594" lon="6.64014">
        <ele>2533.3999023438</ele>
        <time>2016-03-07T11:37:50.000Z</time>
      </trkpt>
      <trkpt lat="45.49596" lon="6.6401">
        <ele>2531</ele>
        <time>2016-03-07T11:37:51.000Z</time>
      </trkpt>
      <trkpt lat="45.49599" lon="6.64007">
        <ele>2528.6000976562</ele>
        <time>2016-03-07T11:37:52.000Z</time>
      </trkpt>
      <trkpt lat="45.49601" lon="6.64005">
        <ele>2526.6000976562</ele>
        <time>2016-03-07T11:37:53.000Z</time>
      </trkpt>
      <trkpt lat="45.49603" lon="6.64006">
        <ele>2524.3999023438</ele>
        <time>2016-03-07T11:37:54.000Z</time>
      </trkpt>
      <trkpt lat="45.49601" lon="6.64008">
        <ele>2521.6000976562</ele>
        <time>2016-03-07T11:37:55.000Z</time>
      </trkpt>
      <trkpt lat="45.496" lon="6.6401">
        <ele>2519.3999023438</ele>
        <time>2016-03-07T11:37:56.000Z</time>
      </trkpt>
      <trkpt lat="45.496" lon="6.6401">
        <ele>2518</ele>
        <time>2016-03-07T11:37:57.000Z</time>
      </trkpt>
      <trkpt lat="45.496" lon="6.6401">
        <ele>2516.3999023438</ele>
        <time>2016-03-07T11:37:59.000Z</time>
      </trkpt>
      <trkpt lat="45.496" lon="6.6401">
        <ele>2516.1999511719</ele>
        <time>2016-03-07T11:38:00.000Z</time>
      </trkpt>
      <trkpt lat="45.49603" lon="6.64008">
        <ele>2516</ele>
        <time>2016-03-07T11:38:04.000Z</time>
      </trkpt>
      <trkpt lat="45.49604" lon="6.64007">
        <ele>2515.8000488281</ele>
        <time>2016-03-07T11:38:05.000Z</time>
      </trkpt>
      <trkpt lat="45.4961" lon="6.64004">
        <ele>2515</ele>
        <time>2016-03-07T11:38:07.000Z</time>
      </trkpt>
      <trkpt lat="45.49613" lon="6.63999">
        <ele>2514</ele>
        <time>2016-03-07T11:38:08.000Z</time>
      </trkpt>
      <trkpt lat="45.49615" lon="6.63995">
        <ele>2512.6000976562</ele>
        <time>2016-03-07T11:38:09.000Z</time>
      </trkpt>
      <trkpt lat="45.49617" lon="6.63992">
        <ele>2511.1999511719</ele>
        <time>2016-03-07T11:38:10.000Z</time>
      </trkpt>
      <trkpt lat="45.49619" lon="6.63994">
        <ele>2509.6000976562</ele>
        <time>2016-03-07T11:38:11.000Z</time>
      </trkpt>
      <trkpt lat="45.49621" lon="6.63992">
        <ele>2507.1999511719</ele>
        <time>2016-03-07T11:38:12.000Z</time>
      </trkpt>
      <trkpt lat="45.49624" lon="6.63991">
        <ele>2505</ele>
        <time>2016-03-07T11:38:13.000Z</time>
      </trkpt>
      <trkpt lat="45.49626" lon="6.63988">
        <ele>2503.3999023438</ele>
        <time>2016-03-07T11:38:14.000Z</time>
      </trkpt>
      <trkpt lat="45.49628" lon="6.63988">
        <ele>2501.8000488281</ele>
        <time>2016-03-07T11:38:15.000Z</time>
      </trkpt>
      <trkpt lat="45.4963" lon="6.63987">
        <ele>2500.1999511719</ele>
        <time>2016-03-07T11:38:16.000Z</time>
      </trkpt>
      <trkpt lat="45.49633" lon="6.63984">
        <ele>2498</ele>
        <time>2016-03-07T11:38:17.000Z</time>
      </trkpt>
      <trkpt lat="45.49635" lon="6.63981">
        <ele>2496</ele>
        <time>2016-03-07T11:38:18.000Z</time>
      </trkpt>
      <trkpt lat="45.4964" lon="6.63981">
        <ele>2494.1999511719</ele>
        <time>2016-03-07T11:38:19.000Z</time>
      </trkpt>
      <trkpt lat="45.49642" lon="6.6398">
        <ele>2492.6000976562</ele>
        <time>2016-03-07T11:38:20.000Z</time>
      </trkpt>
      <trkpt lat="45.49646" lon="6.63981">
        <ele>2490.6000976562</ele>
        <time>2016-03-07T11:38:21.000Z</time>
      </trkpt>
      <trkpt lat="45.49647" lon="6.63981">
        <ele>2488.6000976562</ele>
        <time>2016-03-07T11:38:22.000Z</time>
      </trkpt>
      <trkpt lat="45.49648" lon="6.63982">
        <ele>2486.6000976562</ele>
        <time>2016-03-07T11:38:23.000Z</time>
      </trkpt>
      <trkpt lat="45.49648" lon="6.63983">
        <ele>2484.8000488281</ele>
        <time>2016-03-07T11:38:24.000Z</time>
      </trkpt>
      <trkpt lat="45.49648" lon="6.63984">
        <ele>2483</ele>
        <time>2016-03-07T11:38:25.000Z</time>
      </trkpt>
      <trkpt lat="45.49648" lon="6.63984">
        <ele>2481.3999023438</ele>
        <time>2016-03-07T11:38:26.000Z</time>
      </trkpt>
      <trkpt lat="45.49648" lon="6.63984">
        <ele>2479.8000488281</ele>
        <time>2016-03-07T11:38:27.000Z</time>
      </trkpt>
      <trkpt lat="45.49647" lon="6.63985">
        <ele>2479.1999511719</ele>
        <time>2016-03-07T11:38:30.000Z</time>
      </trkpt>
      <trkpt lat="45.49646" lon="6.63986">
        <ele>2479.1999511719</ele>
        <time>2016-03-07T11:38:47.000Z</time>
      </trkpt>
      <trkpt lat="45.49647" lon="6.63985">
        <ele>2479.3999023438</ele>
        <time>2016-03-07T11:38:51.000Z</time>
      </trkpt>
      <trkpt lat="45.4965" lon="6.63985">
        <ele>2479.3999023438</ele>
        <time>2016-03-07T11:38:52.000Z</time>
      </trkpt>
      <trkpt lat="45.49658" lon="6.63984">
        <ele>2478</ele>
        <time>2016-03-07T11:38:55.000Z</time>
      </trkpt>
      <trkpt lat="45.49661" lon="6.63983">
        <ele>2477</ele>
        <time>2016-03-07T11:38:56.000Z</time>
      </trkpt>
      <trkpt lat="45.49666" lon="6.63981">
        <ele>2475.6000976562</ele>
        <time>2016-03-07T11:38:57.000Z</time>
      </trkpt>
      <trkpt lat="45.4967" lon="6.63982">
        <ele>2473.8000488281</ele>
        <time>2016-03-07T11:38:58.000Z</time>
      </trkpt>
      <trkpt lat="45.49674" lon="6.63981">
        <ele>2471.8000488281</ele>
        <time>2016-03-07T11:38:59.000Z</time>
      </trkpt>
      <trkpt lat="45.49678" lon="6.6398">
        <ele>2469.6000976562</ele>
        <time>2016-03-07T11:39:00.000Z</time>
      </trkpt>
      <trkpt lat="45.49683" lon="6.63979">
        <ele>2467.3999023438</ele>
        <time>2016-03-07T11:39:01.000Z</time>
      </trkpt>
      <trkpt lat="45.49689" lon="6.63978">
        <ele>2465</ele>
        <time>2016-03-07T11:39:02.000Z</time>
      </trkpt>
      <trkpt lat="45.49694" lon="6.63978">
        <ele>2462.6000976562</ele>
        <time>2016-03-07T11:39:03.000Z</time>
      </trkpt>
      <trkpt lat="45.497" lon="6.63976">
        <ele>2460</ele>
        <time>2016-03-07T11:39:04.000Z</time>
      </trkpt>
      <trkpt lat="45.49705" lon="6.63975">
        <ele>2457.6000976562</ele>
        <time>2016-03-07T11:39:05.000Z</time>
      </trkpt>
      <trkpt lat="45.4971" lon="6.63973">
        <ele>2455</ele>
        <time>2016-03-07T11:39:06.000Z</time>
      </trkpt>
      <trkpt lat="45.49715" lon="6.63971">
        <ele>2452.1999511719</ele>
        <time>2016-03-07T11:39:07.000Z</time>
      </trkpt>
      <trkpt lat="45.4972" lon="6.63968">
        <ele>2449.3999023438</ele>
        <time>2016-03-07T11:39:08.000Z</time>
      </trkpt>
      <trkpt lat="45.49724" lon="6.63964">
        <ele>2446.6000976562</ele>
        <time>2016-03-07T11:39:09.000Z</time>
      </trkpt>
      <trkpt lat="45.49728" lon="6.63961">
        <ele>2444.3999023438</ele>
        <time>2016-03-07T11:39:10.000Z</time>
      </trkpt>
      <trkpt lat="45.49732" lon="6.63955">
        <ele>2442.1999511719</ele>
        <time>2016-03-07T11:39:11.000Z</time>
      </trkpt>
      <trkpt lat="45.49735" lon="6.63949">
        <ele>2440.1999511719</ele>
        <time>2016-03-07T11:39:12.000Z</time>
      </trkpt>
      <trkpt lat="45.49738" lon="6.63943">
        <ele>2438.3999023438</ele>
        <time>2016-03-07T11:39:13.000Z</time>
      </trkpt>
      <trkpt lat="45.4974" lon="6.63937">
        <ele>2436.6000976562</ele>
        <time>2016-03-07T11:39:14.000Z</time>
      </trkpt>
      <trkpt lat="45.49743" lon="6.6393">
        <ele>2433</ele>
        <time>2016-03-07T11:39:15.000Z</time>
      </trkpt>
      <trkpt lat="45.49745" lon="6.63922">
        <ele>2431.1999511719</ele>
        <time>2016-03-07T11:39:16.000Z</time>
      </trkpt>
      <trkpt lat="45.49747" lon="6.63915">
        <ele>2429.6000976562</ele>
        <time>2016-03-07T11:39:17.000Z</time>
      </trkpt>
      <trkpt lat="45.49749" lon="6.63907">
        <ele>2428</ele>
        <time>2016-03-07T11:39:18.000Z</time>
      </trkpt>
      <trkpt lat="45.49751" lon="6.639">
        <ele>2426.3999023438</ele>
        <time>2016-03-07T11:39:19.000Z</time>
      </trkpt>
      <trkpt lat="45.49753" lon="6.63893">
        <ele>2424.8000488281</ele>
        <time>2016-03-07T11:39:20.000Z</time>
      </trkpt>
      <trkpt lat="45.49755" lon="6.63887">
        <ele>2423.3999023438</ele>
        <time>2016-03-07T11:39:21.000Z</time>
      </trkpt>
      <trkpt lat="45.49756" lon="6.63882">
        <ele>2422</ele>
        <time>2016-03-07T11:39:22.000Z</time>
      </trkpt>
      <trkpt lat="45.49757" lon="6.63877">
        <ele>2420.8000488281</ele>
        <time>2016-03-07T11:39:23.000Z</time>
      </trkpt>
      <trkpt lat="45.49758" lon="6.63872">
        <ele>2419.6000976562</ele>
        <time>2016-03-07T11:39:24.000Z</time>
      </trkpt>
      <trkpt lat="45.49759" lon="6.63867">
        <ele>2418.6000976562</ele>
        <time>2016-03-07T11:39:25.000Z</time>
      </trkpt>
      <trkpt lat="45.4976" lon="6.63857">
        <ele>2417</ele>
        <time>2016-03-07T11:39:27.000Z</time>
      </trkpt>
      <trkpt lat="45.49761" lon="6.63847">
        <ele>2416</ele>
        <time>2016-03-07T11:39:29.000Z</time>
      </trkpt>
      <trkpt lat="45.49761" lon="6.63842">
        <ele>2415.3999023438</ele>
        <time>2016-03-07T11:39:30.000Z</time>
      </trkpt>
      <trkpt lat="45.49762" lon="6.63837">
        <ele>2414.8000488281</ele>
        <time>2016-03-07T11:39:31.000Z</time>
      </trkpt>
      <trkpt lat="45.49762" lon="6.63831">
        <ele>2413.8000488281</ele>
        <time>2016-03-07T11:39:33.000Z</time>
      </trkpt>
      <trkpt lat="45.49762" lon="6.63825">
        <ele>2412.8000488281</ele>
        <time>2016-03-07T11:39:35.000Z</time>
      </trkpt>
      <trkpt lat="45.49762" lon="6.63823">
        <ele>2412.3999023438</ele>
        <time>2016-03-07T11:39:36.000Z</time>
      </trkpt>
      <trkpt lat="45.49763" lon="6.63817">
        <ele>2411.3999023438</ele>
        <time>2016-03-07T11:39:39.000Z</time>
      </trkpt>
      <trkpt lat="45.49763" lon="6.63816">
        <ele>2410.8000488281</ele>
        <time>2016-03-07T11:39:42.000Z</time>
      </trkpt>
      <trkpt lat="45.49763" lon="6.63816">
        <ele>2410.3999023438</ele>
        <time>2016-03-07T11:39:44.000Z</time>
      </trkpt>
      <trkpt lat="45.49763" lon="6.63816">
        <ele>2410.1999511719</ele>
        <time>2016-03-07T11:39:50.000Z</time>
      </trkpt>
      <trkpt lat="45.49763" lon="6.63816">
        <ele>2409.6000976562</ele>
        <time>2016-03-07T11:40:03.000Z</time>
      </trkpt>
      <trkpt lat="45.49763" lon="6.63816">
        <ele>2409.6000976562</ele>
        <time>2016-03-07T11:40:17.000Z</time>
      </trkpt>
      <trkpt lat="45.49763" lon="6.63817">
        <ele>2409.6000976562</ele>
        <time>2016-03-07T11:40:29.000Z</time>
      </trkpt>
      <trkpt lat="45.49763" lon="6.63817">
        <ele>2409.6000976562</ele>
        <time>2016-03-07T11:40:43.000Z</time>
      </trkpt>
      <trkpt lat="45.49763" lon="6.63817">
        <ele>2409.6000976562</ele>
        <time>2016-03-07T11:40:58.000Z</time>
      </trkpt>
      <trkpt lat="45.49763" lon="6.63817">
        <ele>2409.6000976562</ele>
        <time>2016-03-07T11:41:11.000Z</time>
      </trkpt>
      <trkpt lat="45.49763" lon="6.63817">
        <ele>2409.3999023438</ele>
        <time>2016-03-07T11:41:16.000Z</time>
      </trkpt>
      <trkpt lat="45.49763" lon="6.63817">
        <ele>2409.3999023438</ele>
        <time>2016-03-07T11:41:31.000Z</time>
      </trkpt>
      <trkpt lat="45.49763" lon="6.63817">
        <ele>2409.6000976562</ele>
        <time>2016-03-07T11:41:47.000Z</time>
      </trkpt>
      <trkpt lat="45.49763" lon="6.63817">
        <ele>2409.3999023438</ele>
        <time>2016-03-07T11:42:05.000Z</time>
      </trkpt>
      <trkpt lat="45.49763" lon="6.63817">
        <ele>2409.1999511719</ele>
        <time>2016-03-07T11:42:11.000Z</time>
      </trkpt>
      <trkpt lat="45.49763" lon="6.63817">
        <ele>2409</ele>
        <time>2016-03-07T11:42:16.000Z</time>
      </trkpt>
      <trkpt lat="45.49763" lon="6.63817">
        <ele>2409.6000976562</ele>
        <time>2016-03-07T11:42:33.000Z</time>
      </trkpt>
      <trkpt lat="45.49763" lon="6.63817">
        <ele>2409.3999023438</ele>
        <time>2016-03-07T11:42:47.000Z</time>
      </trkpt>
      <trkpt lat="45.49763" lon="6.63818">
        <ele>2409</ele>
        <time>2016-03-07T11:43:03.000Z</time>
      </trkpt>
      <trkpt lat="45.49763" lon="6.63818">
        <ele>2409.3999023438</ele>
        <time>2016-03-07T11:43:16.000Z</time>
      </trkpt>
      <trkpt lat="45.49763" lon="6.63818">
        <ele>2409.3999023438</ele>
        <time>2016-03-07T11:43:19.000Z</time>
      </trkpt>
      <trkpt lat="45.49763" lon="6.63818">
        <ele>2409.3999023438</ele>
        <time>2016-03-07T11:43:31.000Z</time>
      </trkpt>
      <trkpt lat="45.49762" lon="6.63818">
        <ele>2409.3999023438</ele>
        <time>2016-03-07T11:43:41.000Z</time>
      </trkpt>
      <trkpt lat="45.49762" lon="6.63818">
        <ele>2409.1999511719</ele>
        <time>2016-03-07T11:43:59.000Z</time>
      </trkpt>
      <trkpt lat="45.49762" lon="6.63815">
        <ele>2409.3999023438</ele>
        <time>2016-03-07T11:44:06.000Z</time>
      </trkpt>
      <trkpt lat="45.4976" lon="6.63806">
        <ele>2409.8000488281</ele>
        <time>2016-03-07T11:44:13.000Z</time>
      </trkpt>
      <trkpt lat="45.49758" lon="6.63794">
        <ele>2410</ele>
        <time>2016-03-07T11:44:20.000Z</time>
      </trkpt>
      <trkpt lat="45.49756" lon="6.63788">
        <ele>2410.1999511719</ele>
        <time>2016-03-07T11:44:23.000Z</time>
      </trkpt>
      <trkpt lat="45.49754" lon="6.63783">
        <ele>2410.6000976562</ele>
        <time>2016-03-07T11:44:26.000Z</time>
      </trkpt>
      <trkpt lat="45.4975" lon="6.63773">
        <ele>2411</ele>
        <time>2016-03-07T11:44:33.000Z</time>
      </trkpt>
      <trkpt lat="45.49749" lon="6.6377">
        <ele>2411.3999023438</ele>
        <time>2016-03-07T11:44:36.000Z</time>
      </trkpt>
      <trkpt lat="45.49746" lon="6.63765">
        <ele>2412</ele>
        <time>2016-03-07T11:44:40.000Z</time>
      </trkpt>
      <trkpt lat="45.49744" lon="6.63759">
        <ele>2412.3999023438</ele>
        <time>2016-03-07T11:44:44.000Z</time>
      </trkpt>
      <trkpt lat="45.49741" lon="6.63755">
        <ele>2412.8000488281</ele>
        <time>2016-03-07T11:44:47.000Z</time>
      </trkpt>
      <trkpt lat="45.49736" lon="6.63749">
        <ele>2413.3999023438</ele>
        <time>2016-03-07T11:44:54.000Z</time>
      </trkpt>
      <trkpt lat="45.49736" lon="6.63748">
        <ele>2413.6000976562</ele>
        <time>2016-03-07T11:44:55.000Z</time>
      </trkpt>
      <trkpt lat="45.49731" lon="6.63738">
        <ele>2414</ele>
        <time>2016-03-07T11:45:01.000Z</time>
      </trkpt>
      <trkpt lat="45.49727" lon="6.63732">
        <ele>2414</ele>
        <time>2016-03-07T11:45:08.000Z</time>
      </trkpt>
      <trkpt lat="45.49723" lon="6.63724">
        <ele>2414</ele>
        <time>2016-03-07T11:45:15.000Z</time>
      </trkpt>
      <trkpt lat="45.49721" lon="6.63717">
        <ele>2413.8000488281</ele>
        <time>2016-03-07T11:45:22.000Z</time>
      </trkpt>
      <trkpt lat="45.49722" lon="6.63711">
        <ele>2414</ele>
        <time>2016-03-07T11:45:28.000Z</time>
      </trkpt>
      <trkpt lat="45.49721" lon="6.63704">
        <ele>2413.3999023438</ele>
        <time>2016-03-07T11:45:34.000Z</time>
      </trkpt>
      <trkpt lat="45.49724" lon="6.63698">
        <ele>2414</ele>
        <time>2016-03-07T11:45:40.000Z</time>
      </trkpt>
      <trkpt lat="45.49724" lon="6.63696">
        <ele>2414.6000976562</ele>
        <time>2016-03-07T11:45:42.000Z</time>
      </trkpt>
      <trkpt lat="45.49724" lon="6.63693">
        <ele>2415</ele>
        <time>2016-03-07T11:45:46.000Z</time>
      </trkpt>
      <trkpt lat="45.49722" lon="6.63689">
        <ele>2415</ele>
        <time>2016-03-07T11:45:51.000Z</time>
      </trkpt>
      <trkpt lat="45.49721" lon="6.63684">
        <ele>2415.6000976562</ele>
        <time>2016-03-07T11:45:55.000Z</time>
      </trkpt>
      <trkpt lat="45.49722" lon="6.63682">
        <ele>2415.8000488281</ele>
        <time>2016-03-07T11:45:56.000Z</time>
      </trkpt>
      <trkpt lat="45.49723" lon="6.63677">
        <ele>2416.1999511719</ele>
        <time>2016-03-07T11:46:00.000Z</time>
      </trkpt>
      <trkpt lat="45.49723" lon="6.63675">
        <ele>2416.1999511719</ele>
        <time>2016-03-07T11:46:01.000Z</time>
      </trkpt>
      <trkpt lat="45.49725" lon="6.63669">
        <ele>2416.1999511719</ele>
        <time>2016-03-07T11:46:06.000Z</time>
      </trkpt>
      <trkpt lat="45.49725" lon="6.63667">
        <ele>2416.8000488281</ele>
        <time>2016-03-07T11:46:09.000Z</time>
      </trkpt>
      <trkpt lat="45.49725" lon="6.63665">
        <ele>2417.1999511719</ele>
        <time>2016-03-07T11:46:11.000Z</time>
      </trkpt>
      <trkpt lat="45.49726" lon="6.6366">
        <ele>2417.6000976562</ele>
        <time>2016-03-07T11:46:17.000Z</time>
      </trkpt>
      <trkpt lat="45.49726" lon="6.63658">
        <ele>2417.8000488281</ele>
        <time>2016-03-07T11:46:20.000Z</time>
      </trkpt>
      <trkpt lat="45.49727" lon="6.63656">
        <ele>2418.6000976562</ele>
        <time>2016-03-07T11:46:23.000Z</time>
      </trkpt>
      <trkpt lat="45.49727" lon="6.63654">
        <ele>2418.8000488281</ele>
        <time>2016-03-07T11:46:26.000Z</time>
      </trkpt>
      <trkpt lat="45.49728" lon="6.63651">
        <ele>2419</ele>
        <time>2016-03-07T11:46:29.000Z</time>
      </trkpt>
      <trkpt lat="45.49729" lon="6.63648">
        <ele>2419.8000488281</ele>
        <time>2016-03-07T11:46:34.000Z</time>
      </trkpt>
      <trkpt lat="45.49729" lon="6.63648">
        <ele>2420</ele>
        <time>2016-03-07T11:46:35.000Z</time>
      </trkpt>
      <trkpt lat="45.4973" lon="6.63644">
        <ele>2421</ele>
        <time>2016-03-07T11:46:41.000Z</time>
      </trkpt>
      <trkpt lat="45.49731" lon="6.63639">
        <ele>2421.8000488281</ele>
        <time>2016-03-07T11:46:48.000Z</time>
      </trkpt>
      <trkpt lat="45.49731" lon="6.63639">
        <ele>2422.1999511719</ele>
        <time>2016-03-07T11:46:52.000Z</time>
      </trkpt>
      <trkpt lat="45.49731" lon="6.63638">
        <ele>2422.6000976562</ele>
        <time>2016-03-07T11:47:00.000Z</time>
      </trkpt>
      <trkpt lat="45.49732" lon="6.63637">
        <ele>2423.1999511719</ele>
        <time>2016-03-07T11:47:05.000Z</time>
      </trkpt>
      <trkpt lat="45.49733" lon="6.63636">
        <ele>2423.3999023438</ele>
        <time>2016-03-07T11:47:06.000Z</time>
      </trkpt>
      <trkpt lat="45.49733" lon="6.63634">
        <ele>2424.1999511719</ele>
        <time>2016-03-07T11:47:11.000Z</time>
      </trkpt>
      <trkpt lat="45.49734" lon="6.63634">
        <ele>2424.1999511719</ele>
        <time>2016-03-07T11:47:12.000Z</time>
      </trkpt>
      <trkpt lat="45.49734" lon="6.63633">
        <ele>2425.1999511719</ele>
        <time>2016-03-07T11:47:17.000Z</time>
      </trkpt>
      <trkpt lat="45.49734" lon="6.63632">
        <ele>2425.3999023438</ele>
        <time>2016-03-07T11:47:18.000Z</time>
      </trkpt>
      <trkpt lat="45.49731" lon="6.6363">
        <ele>2426.1999511719</ele>
        <time>2016-03-07T11:47:23.000Z</time>
      </trkpt>
      <trkpt lat="45.49729" lon="6.63627">
        <ele>2426.3999023438</ele>
        <time>2016-03-07T11:47:26.000Z</time>
      </trkpt>
      <trkpt lat="45.49728" lon="6.63626">
        <ele>2426.8000488281</ele>
        <time>2016-03-07T11:47:30.000Z</time>
      </trkpt>
      <trkpt lat="45.49723" lon="6.63622">
        <ele>2427.3999023438</ele>
        <time>2016-03-07T11:47:36.000Z</time>
      </trkpt>
      <trkpt lat="45.49722" lon="6.63622">
        <ele>2427.6000976562</ele>
        <time>2016-03-07T11:47:38.000Z</time>
      </trkpt>
      <trkpt lat="45.4972" lon="6.63621">
        <ele>2428.1999511719</ele>
        <time>2016-03-07T11:47:42.000Z</time>
      </trkpt>
      <trkpt lat="45.4972" lon="6.6362">
        <ele>2428.8000488281</ele>
        <time>2016-03-07T11:47:49.000Z</time>
      </trkpt>
      <trkpt lat="45.4972" lon="6.6362">
        <ele>2429</ele>
        <time>2016-03-07T11:47:52.000Z</time>
      </trkpt>
      <trkpt lat="45.4972" lon="6.63618">
        <ele>2429.6000976562</ele>
        <time>2016-03-07T11:48:01.000Z</time>
      </trkpt>
      <trkpt lat="45.4972" lon="6.63617">
        <ele>2429.8000488281</ele>
        <time>2016-03-07T11:48:02.000Z</time>
      </trkpt>
      <trkpt lat="45.49719" lon="6.63611">
        <ele>2429.8000488281</ele>
        <time>2016-03-07T11:48:06.000Z</time>
      </trkpt>
      <trkpt lat="45.49721" lon="6.63606">
        <ele>2430.8000488281</ele>
        <time>2016-03-07T11:48:11.000Z</time>
      </trkpt>
      <trkpt lat="45.49721" lon="6.63605">
        <ele>2431</ele>
        <time>2016-03-07T11:48:12.000Z</time>
      </trkpt>
      <trkpt lat="45.49721" lon="6.636">
        <ele>2431.8000488281</ele>
        <time>2016-03-07T11:48:18.000Z</time>
      </trkpt>
      <trkpt lat="45.49722" lon="6.636">
        <ele>2432</ele>
        <time>2016-03-07T11:48:19.000Z</time>
      </trkpt>
      <trkpt lat="45.49722" lon="6.63597">
        <ele>2432.8000488281</ele>
        <time>2016-03-07T11:48:25.000Z</time>
      </trkpt>
      <trkpt lat="45.49722" lon="6.63596">
        <ele>2433</ele>
        <time>2016-03-07T11:48:26.000Z</time>
      </trkpt>
      <trkpt lat="45.49718" lon="6.63594">
        <ele>2433.6000976562</ele>
        <time>2016-03-07T11:48:31.000Z</time>
      </trkpt>
      <trkpt lat="45.49716" lon="6.63593">
        <ele>2434</ele>
        <time>2016-03-07T11:48:34.000Z</time>
      </trkpt>
      <trkpt lat="45.49711" lon="6.63592">
        <ele>2434.1999511719</ele>
        <time>2016-03-07T11:48:39.000Z</time>
      </trkpt>
      <trkpt lat="45.49709" lon="6.63591">
        <ele>2434.8000488281</ele>
        <time>2016-03-07T11:48:44.000Z</time>
      </trkpt>
      <trkpt lat="45.49707" lon="6.6359">
        <ele>2435</ele>
        <time>2016-03-07T11:48:46.000Z</time>
      </trkpt>
      <trkpt lat="45.49706" lon="6.63588">
        <ele>2435.8000488281</ele>
        <time>2016-03-07T11:48:51.000Z</time>
      </trkpt>
      <trkpt lat="45.49705" lon="6.63586">
        <ele>2436.3999023438</ele>
        <time>2016-03-07T11:48:53.000Z</time>
      </trkpt>
      <trkpt lat="45.49704" lon="6.6358">
        <ele>2437</ele>
        <time>2016-03-07T11:48:59.000Z</time>
      </trkpt>
      <trkpt lat="45.49703" lon="6.63579">
        <ele>2437.3999023438</ele>
        <time>2016-03-07T11:49:03.000Z</time>
      </trkpt>
      <trkpt lat="45.49703" lon="6.63577">
        <ele>2437.6000976562</ele>
        <time>2016-03-07T11:49:05.000Z</time>
      </trkpt>
      <trkpt lat="45.49703" lon="6.63577">
        <ele>2438.3999023438</ele>
        <time>2016-03-07T11:49:12.000Z</time>
      </trkpt>
      <trkpt lat="45.49703" lon="6.63577">
        <ele>2438.6000976562</ele>
        <time>2016-03-07T11:49:15.000Z</time>
      </trkpt>
      <trkpt lat="45.49701" lon="6.63573">
        <ele>2438.8000488281</ele>
        <time>2016-03-07T11:49:22.000Z</time>
      </trkpt>
      <trkpt lat="45.497" lon="6.63567">
        <ele>2439.1999511719</ele>
        <time>2016-03-07T11:49:27.000Z</time>
      </trkpt>
      <trkpt lat="45.497" lon="6.63566">
        <ele>2439.6000976562</ele>
        <time>2016-03-07T11:49:29.000Z</time>
      </trkpt>
      <trkpt lat="45.49701" lon="6.63562">
        <ele>2440</ele>
        <time>2016-03-07T11:49:35.000Z</time>
      </trkpt>
      <trkpt lat="45.497" lon="6.6356">
        <ele>2440.8000488281</ele>
        <time>2016-03-07T11:49:37.000Z</time>
      </trkpt>
      <trkpt lat="45.49701" lon="6.63557">
        <ele>2441.3999023438</ele>
        <time>2016-03-07T11:49:41.000Z</time>
      </trkpt>
      <trkpt lat="45.49701" lon="6.63555">
        <ele>2442</ele>
        <time>2016-03-07T11:49:45.000Z</time>
      </trkpt>
      <trkpt lat="45.497" lon="6.63555">
        <ele>2442.3999023438</ele>
        <time>2016-03-07T11:49:47.000Z</time>
      </trkpt>
      <trkpt lat="45.49699" lon="6.63554">
        <ele>2443</ele>
        <time>2016-03-07T11:49:51.000Z</time>
      </trkpt>
      <trkpt lat="45.49697" lon="6.63554">
        <ele>2443.1999511719</ele>
        <time>2016-03-07T11:49:54.000Z</time>
      </trkpt>
      <trkpt lat="45.49692" lon="6.63555">
        <ele>2444</ele>
        <time>2016-03-07T11:50:00.000Z</time>
      </trkpt>
      <trkpt lat="45.49689" lon="6.63555">
        <ele>2444.8000488281</ele>
        <time>2016-03-07T11:50:06.000Z</time>
      </trkpt>
      <trkpt lat="45.49687" lon="6.63556">
        <ele>2445</ele>
        <time>2016-03-07T11:50:09.000Z</time>
      </trkpt>
      <trkpt lat="45.49687" lon="6.63556">
        <ele>2445.6000976562</ele>
        <time>2016-03-07T11:50:11.000Z</time>
      </trkpt>
      <trkpt lat="45.49686" lon="6.63557">
        <ele>2446.1999511719</ele>
        <time>2016-03-07T11:50:18.000Z</time>
      </trkpt>
      <trkpt lat="45.49686" lon="6.63557">
        <ele>2446.3999023438</ele>
        <time>2016-03-07T11:50:19.000Z</time>
      </trkpt>
      <trkpt lat="45.49686" lon="6.63557">
        <ele>2446.6000976562</ele>
        <time>2016-03-07T11:50:28.000Z</time>
      </trkpt>
      <trkpt lat="45.49685" lon="6.63552">
        <ele>2447.1999511719</ele>
        <time>2016-03-07T11:50:34.000Z</time>
      </trkpt>
      <trkpt lat="45.49683" lon="6.63549">
        <ele>2447.3999023438</ele>
        <time>2016-03-07T11:50:36.000Z</time>
      </trkpt>
      <trkpt lat="45.49681" lon="6.63543">
        <ele>2448.1999511719</ele>
        <time>2016-03-07T11:50:42.000Z</time>
      </trkpt>
      <trkpt lat="45.49681" lon="6.63542">
        <ele>2448.3999023438</ele>
        <time>2016-03-07T11:50:43.000Z</time>
      </trkpt>
      <trkpt lat="45.49679" lon="6.63536">
        <ele>2449.1999511719</ele>
        <time>2016-03-07T11:50:49.000Z</time>
      </trkpt>
      <trkpt lat="45.49679" lon="6.63536">
        <ele>2449.3999023438</ele>
        <time>2016-03-07T11:50:50.000Z</time>
      </trkpt>
      <trkpt lat="45.4968" lon="6.63534">
        <ele>2450</ele>
        <time>2016-03-07T11:50:55.000Z</time>
      </trkpt>
      <trkpt lat="45.4968" lon="6.63534">
        <ele>2450.3999023438</ele>
        <time>2016-03-07T11:50:57.000Z</time>
      </trkpt>
      <trkpt lat="45.49679" lon="6.63535">
        <ele>2451</ele>
        <time>2016-03-07T11:51:01.000Z</time>
      </trkpt>
      <trkpt lat="45.49675" lon="6.63539">
        <ele>2451.3999023438</ele>
        <time>2016-03-07T11:51:06.000Z</time>
      </trkpt>
      <trkpt lat="45.49673" lon="6.63543">
        <ele>2452.1999511719</ele>
        <time>2016-03-07T11:51:12.000Z</time>
      </trkpt>
      <trkpt lat="45.49672" lon="6.63543">
        <ele>2452.3999023438</ele>
        <time>2016-03-07T11:51:13.000Z</time>
      </trkpt>
      <trkpt lat="45.4967" lon="6.63545">
        <ele>2452.8000488281</ele>
        <time>2016-03-07T11:51:15.000Z</time>
      </trkpt>
      <trkpt lat="45.4967" lon="6.63546">
        <ele>2453.1999511719</ele>
        <time>2016-03-07T11:51:17.000Z</time>
      </trkpt>
      <trkpt lat="45.4967" lon="6.63546">
        <ele>2453.3999023438</ele>
        <time>2016-03-07T11:51:18.000Z</time>
      </trkpt>
      <trkpt lat="45.4967" lon="6.63547">
        <ele>2454.3999023438</ele>
        <time>2016-03-07T11:51:28.000Z</time>
      </trkpt>
      <trkpt lat="45.4967" lon="6.63547">
        <ele>2454.3999023438</ele>
        <time>2016-03-07T11:51:32.000Z</time>
      </trkpt>
      <trkpt lat="45.4967" lon="6.63547">
        <ele>2455</ele>
        <time>2016-03-07T11:51:37.000Z</time>
      </trkpt>
      <trkpt lat="45.49667" lon="6.63538">
        <ele>2455.3999023438</ele>
        <time>2016-03-07T11:51:43.000Z</time>
      </trkpt>
      <trkpt lat="45.49667" lon="6.63536">
        <ele>2455.8000488281</ele>
        <time>2016-03-07T11:51:46.000Z</time>
      </trkpt>
      <trkpt lat="45.49665" lon="6.6353">
        <ele>2456.6000976562</ele>
        <time>2016-03-07T11:51:52.000Z</time>
      </trkpt>
      <trkpt lat="45.49665" lon="6.6353">
        <ele>2456.8000488281</ele>
        <time>2016-03-07T11:51:53.000Z</time>
      </trkpt>
      <trkpt lat="45.49662" lon="6.63524">
        <ele>2457.6000976562</ele>
        <time>2016-03-07T11:52:01.000Z</time>
      </trkpt>
      <trkpt lat="45.49661" lon="6.63521">
        <ele>2458.8000488281</ele>
        <time>2016-03-07T11:52:07.000Z</time>
      </trkpt>
      <trkpt lat="45.49658" lon="6.63526">
        <ele>2459.6000976562</ele>
        <time>2016-03-07T11:52:13.000Z</time>
      </trkpt>
      <trkpt lat="45.49657" lon="6.63527">
        <ele>2459.8000488281</ele>
        <time>2016-03-07T11:52:14.000Z</time>
      </trkpt>
      <trkpt lat="45.49656" lon="6.6353">
        <ele>2460.1999511719</ele>
        <time>2016-03-07T11:52:18.000Z</time>
      </trkpt>
      <trkpt lat="45.49656" lon="6.63532">
        <ele>2460.8000488281</ele>
        <time>2016-03-07T11:52:22.000Z</time>
      </trkpt>
      <trkpt lat="45.49655" lon="6.63533">
        <ele>2461.3999023438</ele>
        <time>2016-03-07T11:52:25.000Z</time>
      </trkpt>
      <trkpt lat="45.49655" lon="6.63534">
        <ele>2462</ele>
        <time>2016-03-07T11:52:29.000Z</time>
      </trkpt>
      <trkpt lat="45.49654" lon="6.63536">
        <ele>2462.1999511719</ele>
        <time>2016-03-07T11:52:32.000Z</time>
      </trkpt>
      <trkpt lat="45.49654" lon="6.63538">
        <ele>2462.6000976562</ele>
        <time>2016-03-07T11:52:39.000Z</time>
      </trkpt>
      <trkpt lat="45.49654" lon="6.63538">
        <ele>2463</ele>
        <time>2016-03-07T11:52:45.000Z</time>
      </trkpt>
      <trkpt lat="45.49653" lon="6.63538">
        <ele>2463.3999023438</ele>
        <time>2016-03-07T11:52:53.000Z</time>
      </trkpt>
      <trkpt lat="45.49651" lon="6.63542">
        <ele>2464</ele>
        <time>2016-03-07T11:52:59.000Z</time>
      </trkpt>
      <trkpt lat="45.4965" lon="6.63544">
        <ele>2464</ele>
        <time>2016-03-07T11:53:00.000Z</time>
      </trkpt>
      <trkpt lat="45.49648" lon="6.63545">
        <ele>2464.6000976562</ele>
        <time>2016-03-07T11:53:06.000Z</time>
      </trkpt>
      <trkpt lat="45.49648" lon="6.63545">
        <ele>2465.1999511719</ele>
        <time>2016-03-07T11:53:09.000Z</time>
      </trkpt>
      <trkpt lat="45.49644" lon="6.63539">
        <ele>2465.8000488281</ele>
        <time>2016-03-07T11:53:16.000Z</time>
      </trkpt>
      <trkpt lat="45.49643" lon="6.63536">
        <ele>2466.1999511719</ele>
        <time>2016-03-07T11:53:18.000Z</time>
      </trkpt>
      <trkpt lat="45.49641" lon="6.63531">
        <ele>2466.3999023438</ele>
        <time>2016-03-07T11:53:22.000Z</time>
      </trkpt>
      <trkpt lat="45.49638" lon="6.63525">
        <ele>2467.1999511719</ele>
        <time>2016-03-07T11:53:28.000Z</time>
      </trkpt>
      <trkpt lat="45.49638" lon="6.63524">
        <ele>2467.3999023438</ele>
        <time>2016-03-07T11:53:30.000Z</time>
      </trkpt>
      <trkpt lat="45.49637" lon="6.63523">
        <ele>2467.3999023438</ele>
        <time>2016-03-07T11:53:31.000Z</time>
      </trkpt>
      <trkpt lat="45.49635" lon="6.63519">
        <ele>2468.3999023438</ele>
        <time>2016-03-07T11:53:37.000Z</time>
      </trkpt>
      <trkpt lat="45.49635" lon="6.63518">
        <ele>2468.6000976562</ele>
        <time>2016-03-07T11:53:38.000Z</time>
      </trkpt>
      <trkpt lat="45.49633" lon="6.63514">
        <ele>2469.6000976562</ele>
        <time>2016-03-07T11:53:42.000Z</time>
      </trkpt>
      <trkpt lat="45.49632" lon="6.63511">
        <ele>2469.6000976562</ele>
        <time>2016-03-07T11:53:44.000Z</time>
      </trkpt>
      <trkpt lat="45.49632" lon="6.63504">
        <ele>2470.6000976562</ele>
        <time>2016-03-07T11:53:51.000Z</time>
      </trkpt>
      <trkpt lat="45.49632" lon="6.63503">
        <ele>2471.3999023438</ele>
        <time>2016-03-07T11:53:58.000Z</time>
      </trkpt>
      <trkpt lat="45.49632" lon="6.63503">
        <ele>2471.8000488281</ele>
        <time>2016-03-07T11:54:00.000Z</time>
      </trkpt>
      <trkpt lat="45.49632" lon="6.63504">
        <ele>2471.6000976562</ele>
        <time>2016-03-07T11:54:08.000Z</time>
      </trkpt>
      <trkpt lat="45.4963" lon="6.63508">
        <ele>2472</ele>
        <time>2016-03-07T11:54:13.000Z</time>
      </trkpt>
      <trkpt lat="45.49629" lon="6.63511">
        <ele>2472.8000488281</ele>
        <time>2016-03-07T11:54:17.000Z</time>
      </trkpt>
      <trkpt lat="45.49629" lon="6.63511">
        <ele>2472.8000488281</ele>
        <time>2016-03-07T11:54:18.000Z</time>
      </trkpt>
      <trkpt lat="45.49627" lon="6.63514">
        <ele>2474</ele>
        <time>2016-03-07T11:54:24.000Z</time>
      </trkpt>
      <trkpt lat="45.49627" lon="6.63514">
        <ele>2474.1999511719</ele>
        <time>2016-03-07T11:54:25.000Z</time>
      </trkpt>
      <trkpt lat="45.49625" lon="6.63518">
        <ele>2475.1999511719</ele>
        <time>2016-03-07T11:54:31.000Z</time>
      </trkpt>
      <trkpt lat="45.49625" lon="6.63518">
        <ele>2475</ele>
        <time>2016-03-07T11:54:32.000Z</time>
      </trkpt>
      <trkpt lat="45.49624" lon="6.63523">
        <ele>2476</ele>
        <time>2016-03-07T11:54:40.000Z</time>
      </trkpt>
      <trkpt lat="45.49623" lon="6.63523">
        <ele>2476.1999511719</ele>
        <time>2016-03-07T11:54:43.000Z</time>
      </trkpt>
      <trkpt lat="45.49623" lon="6.63523">
        <ele>2476.8000488281</ele>
        <time>2016-03-07T11:54:46.000Z</time>
      </trkpt>
      <trkpt lat="45.49623" lon="6.63523">
        <ele>2477.3999023438</ele>
        <time>2016-03-07T11:54:48.000Z</time>
      </trkpt>
      <trkpt lat="45.49623" lon="6.63523">
        <ele>2476.8000488281</ele>
        <time>2016-03-07T11:54:58.000Z</time>
      </trkpt>
      <trkpt lat="45.49623" lon="6.63517">
        <ele>2477.1999511719</ele>
        <time>2016-03-07T11:55:04.000Z</time>
      </trkpt>
      <trkpt lat="45.49621" lon="6.6351">
        <ele>2478</ele>
        <time>2016-03-07T11:55:10.000Z</time>
      </trkpt>
      <trkpt lat="45.49621" lon="6.63508">
        <ele>2478.3999023438</ele>
        <time>2016-03-07T11:55:13.000Z</time>
      </trkpt>
      <trkpt lat="45.49621" lon="6.63506">
        <ele>2478.8000488281</ele>
        <time>2016-03-07T11:55:16.000Z</time>
      </trkpt>
      <trkpt lat="45.4962" lon="6.63502">
        <ele>2479.6000976562</ele>
        <time>2016-03-07T11:55:20.000Z</time>
      </trkpt>
      <trkpt lat="45.4962" lon="6.63501">
        <ele>2479.8000488281</ele>
        <time>2016-03-07T11:55:22.000Z</time>
      </trkpt>
      <trkpt lat="45.49618" lon="6.63496">
        <ele>2480.8000488281</ele>
        <time>2016-03-07T11:55:28.000Z</time>
      </trkpt>
      <trkpt lat="45.49617" lon="6.63492">
        <ele>2481.6000976562</ele>
        <time>2016-03-07T11:55:34.000Z</time>
      </trkpt>
      <trkpt lat="45.49617" lon="6.63492">
        <ele>2481.8000488281</ele>
        <time>2016-03-07T11:55:35.000Z</time>
      </trkpt>
      <trkpt lat="45.49615" lon="6.63496">
        <ele>2482.3999023438</ele>
        <time>2016-03-07T11:55:41.000Z</time>
      </trkpt>
      <trkpt lat="45.49614" lon="6.63496">
        <ele>2483</ele>
        <time>2016-03-07T11:55:45.000Z</time>
      </trkpt>
      <trkpt lat="45.49614" lon="6.63495">
        <ele>2483.3999023438</ele>
        <time>2016-03-07T11:55:47.000Z</time>
      </trkpt>
      <trkpt lat="45.49615" lon="6.63492">
        <ele>2484</ele>
        <time>2016-03-07T11:55:51.000Z</time>
      </trkpt>
      <trkpt lat="45.49615" lon="6.6349">
        <ele>2484.1999511719</ele>
        <time>2016-03-07T11:55:54.000Z</time>
      </trkpt>
      <trkpt lat="45.49615" lon="6.63488">
        <ele>2485</ele>
        <time>2016-03-07T11:55:57.000Z</time>
      </trkpt>
      <trkpt lat="45.49613" lon="6.63486">
        <ele>2485.8000488281</ele>
        <time>2016-03-07T11:56:01.000Z</time>
      </trkpt>
      <trkpt lat="45.49613" lon="6.63483">
        <ele>2486.1999511719</ele>
        <time>2016-03-07T11:56:05.000Z</time>
      </trkpt>
      <trkpt lat="45.49613" lon="6.63483">
        <ele>2486.6000976562</ele>
        <time>2016-03-07T11:56:09.000Z</time>
      </trkpt>
      <trkpt lat="45.49611" lon="6.63482">
        <ele>2486.6000976562</ele>
        <time>2016-03-07T11:56:19.000Z</time>
      </trkpt>
      <trkpt lat="45.49607" lon="6.63481">
        <ele>2487.1999511719</ele>
        <time>2016-03-07T11:56:25.000Z</time>
      </trkpt>
      <trkpt lat="45.49606" lon="6.63481">
        <ele>2487.3999023438</ele>
        <time>2016-03-07T11:56:26.000Z</time>
      </trkpt>
      <trkpt lat="45.49601" lon="6.63483">
        <ele>2487.8000488281</ele>
        <time>2016-03-07T11:56:32.000Z</time>
      </trkpt>
      <trkpt lat="45.496" lon="6.63485">
        <ele>2488.3999023438</ele>
        <time>2016-03-07T11:56:34.000Z</time>
      </trkpt>
      <trkpt lat="45.496" lon="6.63486">
        <ele>2489.3999023438</ele>
        <time>2016-03-07T11:56:37.000Z</time>
      </trkpt>
      <trkpt lat="45.49598" lon="6.63489">
        <ele>2490.1999511719</ele>
        <time>2016-03-07T11:56:43.000Z</time>
      </trkpt>
      <trkpt lat="45.49596" lon="6.63491">
        <ele>2490.6000976562</ele>
        <time>2016-03-07T11:56:46.000Z</time>
      </trkpt>
      <trkpt lat="45.49596" lon="6.63491">
        <ele>2490.8000488281</ele>
        <time>2016-03-07T11:56:48.000Z</time>
      </trkpt>
      <trkpt lat="45.49597" lon="6.63493">
        <ele>2491.3999023438</ele>
        <time>2016-03-07T11:56:57.000Z</time>
      </trkpt>
      <trkpt lat="45.49598" lon="6.63495">
        <ele>2491.6000976562</ele>
        <time>2016-03-07T11:57:00.000Z</time>
      </trkpt>
      <trkpt lat="45.496" lon="6.63498">
        <ele>2492.6000976562</ele>
        <time>2016-03-07T11:57:05.000Z</time>
      </trkpt>
      <trkpt lat="45.49601" lon="6.63499">
        <ele>2492.8000488281</ele>
        <time>2016-03-07T11:57:06.000Z</time>
      </trkpt>
      <trkpt lat="45.49602" lon="6.63504">
        <ele>2493.6000976562</ele>
        <time>2016-03-07T11:57:10.000Z</time>
      </trkpt>
      <trkpt lat="45.49602" lon="6.63506">
        <ele>2494</ele>
        <time>2016-03-07T11:57:12.000Z</time>
      </trkpt>
      <trkpt lat="45.49603" lon="6.63509">
        <ele>2494.8000488281</ele>
        <time>2016-03-07T11:57:16.000Z</time>
      </trkpt>
      <trkpt lat="45.49602" lon="6.6351">
        <ele>2495.1999511719</ele>
        <time>2016-03-07T11:57:17.000Z</time>
      </trkpt>
      <trkpt lat="45.49601" lon="6.63512">
        <ele>2496.3999023438</ele>
        <time>2016-03-07T11:57:22.000Z</time>
      </trkpt>
      <trkpt lat="45.49601" lon="6.63512">
        <ele>2496.6000976562</ele>
        <time>2016-03-07T11:57:23.000Z</time>
      </trkpt>
      <trkpt lat="45.49597" lon="6.6351">
        <ele>2496.3999023438</ele>
        <time>2016-03-07T11:57:32.000Z</time>
      </trkpt>
      <trkpt lat="45.49592" lon="6.63512">
        <ele>2497.3999023438</ele>
        <time>2016-03-07T11:57:38.000Z</time>
      </trkpt>
      <trkpt lat="45.49588" lon="6.63517">
        <ele>2498.3999023438</ele>
        <time>2016-03-07T11:57:45.000Z</time>
      </trkpt>
      <trkpt lat="45.49587" lon="6.63519">
        <ele>2498.6000976562</ele>
        <time>2016-03-07T11:57:46.000Z</time>
      </trkpt>
      <trkpt lat="45.49581" lon="6.63524">
        <ele>2499.3999023438</ele>
        <time>2016-03-07T11:57:53.000Z</time>
      </trkpt>
      <trkpt lat="45.49577" lon="6.63527">
        <ele>2500.3999023438</ele>
        <time>2016-03-07T11:57:59.000Z</time>
      </trkpt>
      <trkpt lat="45.49577" lon="6.63527">
        <ele>2500.6000976562</ele>
        <time>2016-03-07T11:58:01.000Z</time>
      </trkpt>
      <trkpt lat="45.49575" lon="6.63529">
        <ele>2501.6000976562</ele>
        <time>2016-03-07T11:58:06.000Z</time>
      </trkpt>
      <trkpt lat="45.49574" lon="6.6353">
        <ele>2501.8000488281</ele>
        <time>2016-03-07T11:58:07.000Z</time>
      </trkpt>
      <trkpt lat="45.49574" lon="6.6353">
        <ele>2502.8000488281</ele>
        <time>2016-03-07T11:58:15.000Z</time>
      </trkpt>
      <trkpt lat="45.49574" lon="6.63532">
        <ele>2502.6000976562</ele>
        <time>2016-03-07T11:58:21.000Z</time>
      </trkpt>
      <trkpt lat="45.4957" lon="6.63537">
        <ele>2504</ele>
        <time>2016-03-07T11:58:29.000Z</time>
      </trkpt>
      <trkpt lat="45.49569" lon="6.63538">
        <ele>2505</ele>
        <time>2016-03-07T11:58:34.000Z</time>
      </trkpt>
      <trkpt lat="45.49569" lon="6.63538">
        <ele>2505.1999511719</ele>
        <time>2016-03-07T11:58:35.000Z</time>
      </trkpt>
      <trkpt lat="45.49568" lon="6.63539">
        <ele>2506.1999511719</ele>
        <time>2016-03-07T11:58:39.000Z</time>
      </trkpt>
      <trkpt lat="45.49568" lon="6.63539">
        <ele>2506.6000976562</ele>
        <time>2016-03-07T11:58:41.000Z</time>
      </trkpt>
      <trkpt lat="45.4957" lon="6.63541">
        <ele>2507</ele>
        <time>2016-03-07T11:58:46.000Z</time>
      </trkpt>
      <trkpt lat="45.49571" lon="6.63542">
        <ele>2507.1999511719</ele>
        <time>2016-03-07T11:58:49.000Z</time>
      </trkpt>
      <trkpt lat="45.49572" lon="6.63544">
        <ele>2508.1999511719</ele>
        <time>2016-03-07T11:58:53.000Z</time>
      </trkpt>
      <trkpt lat="45.49573" lon="6.63548">
        <ele>2509</ele>
        <time>2016-03-07T11:58:58.000Z</time>
      </trkpt>
      <trkpt lat="45.49574" lon="6.63549">
        <ele>2509.3999023438</ele>
        <time>2016-03-07T11:59:00.000Z</time>
      </trkpt>
      <trkpt lat="45.49575" lon="6.6355">
        <ele>2510.1999511719</ele>
        <time>2016-03-07T11:59:03.000Z</time>
      </trkpt>
      <trkpt lat="45.49577" lon="6.63552">
        <ele>2510.6000976562</ele>
        <time>2016-03-07T11:59:05.000Z</time>
      </trkpt>
      <trkpt lat="45.49577" lon="6.63554">
        <ele>2511.1999511719</ele>
        <time>2016-03-07T11:59:08.000Z</time>
      </trkpt>
      <trkpt lat="45.49577" lon="6.63555">
        <ele>2511.6000976562</ele>
        <time>2016-03-07T11:59:11.000Z</time>
      </trkpt>
      <trkpt lat="45.49577" lon="6.63557">
        <ele>2512.1999511719</ele>
        <time>2016-03-07T11:59:14.000Z</time>
      </trkpt>
      <trkpt lat="45.49575" lon="6.63559">
        <ele>2512.8000488281</ele>
        <time>2016-03-07T11:59:17.000Z</time>
      </trkpt>
      <trkpt lat="45.49574" lon="6.6356">
        <ele>2513.3999023438</ele>
        <time>2016-03-07T11:59:19.000Z</time>
      </trkpt>
      <trkpt lat="45.49574" lon="6.6356">
        <ele>2513.6000976562</ele>
        <time>2016-03-07T11:59:20.000Z</time>
      </trkpt>
      <trkpt lat="45.49572" lon="6.6356">
        <ele>2513.8000488281</ele>
        <time>2016-03-07T11:59:22.000Z</time>
      </trkpt>
      <trkpt lat="45.49569" lon="6.63561">
        <ele>2514.6000976562</ele>
        <time>2016-03-07T11:59:27.000Z</time>
      </trkpt>
      <trkpt lat="45.49568" lon="6.63561">
        <ele>2515</ele>
        <time>2016-03-07T11:59:29.000Z</time>
      </trkpt>
      <trkpt lat="45.49565" lon="6.63562">
        <ele>2515.6000976562</ele>
        <time>2016-03-07T11:59:33.000Z</time>
      </trkpt>
      <trkpt lat="45.49563" lon="6.63563">
        <ele>2516</ele>
        <time>2016-03-07T11:59:37.000Z</time>
      </trkpt>
      <trkpt lat="45.49562" lon="6.63563">
        <ele>2516.1999511719</ele>
        <time>2016-03-07T11:59:38.000Z</time>
      </trkpt>
      <trkpt lat="45.49558" lon="6.63564">
        <ele>2517.1999511719</ele>
        <time>2016-03-07T11:59:44.000Z</time>
      </trkpt>
      <trkpt lat="45.49553" lon="6.63566">
        <ele>2517.8000488281</ele>
        <time>2016-03-07T11:59:50.000Z</time>
      </trkpt>
      <trkpt lat="45.49551" lon="6.63567">
        <ele>2518.1999511719</ele>
        <time>2016-03-07T11:59:53.000Z</time>
      </trkpt>
      <trkpt lat="45.49551" lon="6.63568">
        <ele>2518.6000976562</ele>
        <time>2016-03-07T11:59:56.000Z</time>
      </trkpt>
      <trkpt lat="45.49551" lon="6.63569">
        <ele>2519.1999511719</ele>
        <time>2016-03-07T12:00:03.000Z</time>
      </trkpt>
      <trkpt lat="45.49551" lon="6.63569">
        <ele>2519.8000488281</ele>
        <time>2016-03-07T12:00:06.000Z</time>
      </trkpt>
      <trkpt lat="45.49554" lon="6.63569">
        <ele>2520</ele>
        <time>2016-03-07T12:00:15.000Z</time>
      </trkpt>
      <trkpt lat="45.49557" lon="6.63572">
        <ele>2520.3999023438</ele>
        <time>2016-03-07T12:00:20.000Z</time>
      </trkpt>
      <trkpt lat="45.49558" lon="6.63572">
        <ele>2520.6000976562</ele>
        <time>2016-03-07T12:00:21.000Z</time>
      </trkpt>
      <trkpt lat="45.4956" lon="6.63575">
        <ele>2521.3999023438</ele>
        <time>2016-03-07T12:00:26.000Z</time>
      </trkpt>
      <trkpt lat="45.49563" lon="6.6358">
        <ele>2522.8000488281</ele>
        <time>2016-03-07T12:00:31.000Z</time>
      </trkpt>
      <trkpt lat="45.49561" lon="6.63584">
        <ele>2523.8000488281</ele>
        <time>2016-03-07T12:00:37.000Z</time>
      </trkpt>
      <trkpt lat="45.49558" lon="6.63587">
        <ele>2525</ele>
        <time>2016-03-07T12:00:41.000Z</time>
      </trkpt>
      <trkpt lat="45.49557" lon="6.63587">
        <ele>2525.6000976562</ele>
        <time>2016-03-07T12:00:44.000Z</time>
      </trkpt>
      <trkpt lat="45.49554" lon="6.63589">
        <ele>2526</ele>
        <time>2016-03-07T12:00:48.000Z</time>
      </trkpt>
      <trkpt lat="45.49554" lon="6.63589">
        <ele>2526.3999023438</ele>
        <time>2016-03-07T12:00:50.000Z</time>
      </trkpt>
      <trkpt lat="45.49551" lon="6.63591">
        <ele>2527.3999023438</ele>
        <time>2016-03-07T12:00:54.000Z</time>
      </trkpt>
      <trkpt lat="45.49549" lon="6.63592">
        <ele>2527.6000976562</ele>
        <time>2016-03-07T12:00:56.000Z</time>
      </trkpt>
      <trkpt lat="45.49545" lon="6.63594">
        <ele>2528.3999023438</ele>
        <time>2016-03-07T12:01:02.000Z</time>
      </trkpt>
      <trkpt lat="45.49542" lon="6.63597">
        <ele>2529.3999023438</ele>
        <time>2016-03-07T12:01:08.000Z</time>
      </trkpt>
      <trkpt lat="45.4954" lon="6.636">
        <ele>2530.3999023438</ele>
        <time>2016-03-07T12:01:14.000Z</time>
      </trkpt>
      <trkpt lat="45.49539" lon="6.636">
        <ele>2530.6000976562</ele>
        <time>2016-03-07T12:01:15.000Z</time>
      </trkpt>
      <trkpt lat="45.49536" lon="6.63604">
        <ele>2531.3999023438</ele>
        <time>2016-03-07T12:01:19.000Z</time>
      </trkpt>
      <trkpt lat="45.49536" lon="6.63604">
        <ele>2531.8000488281</ele>
        <time>2016-03-07T12:01:21.000Z</time>
      </trkpt>
      <trkpt lat="45.49534" lon="6.63606">
        <ele>2532.1999511719</ele>
        <time>2016-03-07T12:01:24.000Z</time>
      </trkpt>
      <trkpt lat="45.49532" lon="6.63607">
        <ele>2532.8000488281</ele>
        <time>2016-03-07T12:01:27.000Z</time>
      </trkpt>
      <trkpt lat="45.49532" lon="6.63607">
        <ele>2533.8000488281</ele>
        <time>2016-03-07T12:01:34.000Z</time>
      </trkpt>
      <trkpt lat="45.49532" lon="6.63607">
        <ele>2533.8000488281</ele>
        <time>2016-03-07T12:01:35.000Z</time>
      </trkpt>
      <trkpt lat="45.4953" lon="6.63611">
        <ele>2533.8000488281</ele>
        <time>2016-03-07T12:01:44.000Z</time>
      </trkpt>
      <trkpt lat="45.49526" lon="6.63614">
        <ele>2534.6000976562</ele>
        <time>2016-03-07T12:01:50.000Z</time>
      </trkpt>
      <trkpt lat="45.49523" lon="6.63616">
        <ele>2535</ele>
        <time>2016-03-07T12:01:52.000Z</time>
      </trkpt>
      <trkpt lat="45.49522" lon="6.63618">
        <ele>2535.8000488281</ele>
        <time>2016-03-07T12:01:57.000Z</time>
      </trkpt>
      <trkpt lat="45.4952" lon="6.63621">
        <ele>2536</ele>
        <time>2016-03-07T12:01:59.000Z</time>
      </trkpt>
      <trkpt lat="45.49521" lon="6.63623">
        <ele>2536.3999023438</ele>
        <time>2016-03-07T12:02:03.000Z</time>
      </trkpt>
      <trkpt lat="45.49524" lon="6.63625">
        <ele>2537</ele>
        <time>2016-03-07T12:02:06.000Z</time>
      </trkpt>
      <trkpt lat="45.49525" lon="6.63625">
        <ele>2538</ele>
        <time>2016-03-07T12:02:09.000Z</time>
      </trkpt>
      <trkpt lat="45.49525" lon="6.63626">
        <ele>2538.3999023438</ele>
        <time>2016-03-07T12:02:10.000Z</time>
      </trkpt>
      <trkpt lat="45.49528" lon="6.63629">
        <ele>2539.1999511719</ele>
        <time>2016-03-07T12:02:15.000Z</time>
      </trkpt>
      <trkpt lat="45.49528" lon="6.6363">
        <ele>2539.3999023438</ele>
        <time>2016-03-07T12:02:16.000Z</time>
      </trkpt>
      <trkpt lat="45.49531" lon="6.63635">
        <ele>2540.6000976562</ele>
        <time>2016-03-07T12:02:22.000Z</time>
      </trkpt>
      <trkpt lat="45.49531" lon="6.63635">
        <ele>2540.8000488281</ele>
        <time>2016-03-07T12:02:23.000Z</time>
      </trkpt>
      <trkpt lat="45.4953" lon="6.63637">
        <ele>2541.6000976562</ele>
        <time>2016-03-07T12:02:27.000Z</time>
      </trkpt>
      <trkpt lat="45.4953" lon="6.63638">
        <ele>2541.8000488281</ele>
        <time>2016-03-07T12:02:28.000Z</time>
      </trkpt>
      <trkpt lat="45.49529" lon="6.63642">
        <ele>2542.6000976562</ele>
        <time>2016-03-07T12:02:33.000Z</time>
      </trkpt>
      <trkpt lat="45.49528" lon="6.63643">
        <ele>2542.8000488281</ele>
        <time>2016-03-07T12:02:34.000Z</time>
      </trkpt>
      <trkpt lat="45.49527" lon="6.63647">
        <ele>2543.3999023438</ele>
        <time>2016-03-07T12:02:39.000Z</time>
      </trkpt>
      <trkpt lat="45.49526" lon="6.63648">
        <ele>2543.8000488281</ele>
        <time>2016-03-07T12:02:41.000Z</time>
      </trkpt>
      <trkpt lat="45.49525" lon="6.63649">
        <ele>2544.8000488281</ele>
        <time>2016-03-07T12:02:45.000Z</time>
      </trkpt>
      <trkpt lat="45.49525" lon="6.63649">
        <ele>2545.1999511719</ele>
        <time>2016-03-07T12:02:47.000Z</time>
      </trkpt>
      <trkpt lat="45.49525" lon="6.63649">
        <ele>2545.8000488281</ele>
        <time>2016-03-07T12:02:54.000Z</time>
      </trkpt>
      <trkpt lat="45.49525" lon="6.63649">
        <ele>2546.1999511719</ele>
        <time>2016-03-07T12:03:02.000Z</time>
      </trkpt>
      <trkpt lat="45.49525" lon="6.63649">
        <ele>2546</ele>
        <time>2016-03-07T12:03:08.000Z</time>
      </trkpt>
      <trkpt lat="45.49525" lon="6.63651">
        <ele>2545.3999023438</ele>
        <time>2016-03-07T12:03:21.000Z</time>
      </trkpt>
      <trkpt lat="45.49522" lon="6.63655">
        <ele>2546</ele>
        <time>2016-03-07T12:03:26.000Z</time>
      </trkpt>
      <trkpt lat="45.49521" lon="6.63659">
        <ele>2547</ele>
        <time>2016-03-07T12:03:30.000Z</time>
      </trkpt>
      <trkpt lat="45.4952" lon="6.63662">
        <ele>2547.1999511719</ele>
        <time>2016-03-07T12:03:31.000Z</time>
      </trkpt>
      <trkpt lat="45.49518" lon="6.63668">
        <ele>2548</ele>
        <time>2016-03-07T12:03:36.000Z</time>
      </trkpt>
      <trkpt lat="45.49517" lon="6.63669">
        <ele>2548.1999511719</ele>
        <time>2016-03-07T12:03:37.000Z</time>
      </trkpt>
      <trkpt lat="45.49516" lon="6.63675">
        <ele>2548.8000488281</ele>
        <time>2016-03-07T12:03:40.000Z</time>
      </trkpt>
      <trkpt lat="45.49516" lon="6.63678">
        <ele>2549.1999511719</ele>
        <time>2016-03-07T12:03:42.000Z</time>
      </trkpt>
      <trkpt lat="45.49515" lon="6.63679">
        <ele>2549.3999023438</ele>
        <time>2016-03-07T12:03:43.000Z</time>
      </trkpt>
      <trkpt lat="45.49514" lon="6.63683">
        <ele>2550.3999023438</ele>
        <time>2016-03-07T12:03:47.000Z</time>
      </trkpt>
      <trkpt lat="45.49513" lon="6.63689">
        <ele>2550.3999023438</ele>
        <time>2016-03-07T12:03:51.000Z</time>
      </trkpt>
      <trkpt lat="45.49513" lon="6.63692">
        <ele>2551</ele>
        <time>2016-03-07T12:03:54.000Z</time>
      </trkpt>
      <trkpt lat="45.49514" lon="6.63692">
        <ele>2551.6000976562</ele>
        <time>2016-03-07T12:03:56.000Z</time>
      </trkpt>
      <trkpt lat="45.49513" lon="6.63695">
        <ele>2552.1999511719</ele>
        <time>2016-03-07T12:04:01.000Z</time>
      </trkpt>
      <trkpt lat="45.49513" lon="6.63698">
        <ele>2552.6000976562</ele>
        <time>2016-03-07T12:04:03.000Z</time>
      </trkpt>
      <trkpt lat="45.49513" lon="6.63701">
        <ele>2553.6000976562</ele>
        <time>2016-03-07T12:04:06.000Z</time>
      </trkpt>
      <trkpt lat="45.49512" lon="6.63707">
        <ele>2554.6000976562</ele>
        <time>2016-03-07T12:04:12.000Z</time>
      </trkpt>
      <trkpt lat="45.49512" lon="6.63707">
        <ele>2555</ele>
        <time>2016-03-07T12:04:13.000Z</time>
      </trkpt>
      <trkpt lat="45.49512" lon="6.6371">
        <ele>2556</ele>
        <time>2016-03-07T12:04:17.000Z</time>
      </trkpt>
      <trkpt lat="45.49512" lon="6.6371">
        <ele>2556.1999511719</ele>
        <time>2016-03-07T12:04:18.000Z</time>
      </trkpt>
      <trkpt lat="45.49512" lon="6.63713">
        <ele>2557.1999511719</ele>
        <time>2016-03-07T12:04:22.000Z</time>
      </trkpt>
      <trkpt lat="45.49512" lon="6.63713">
        <ele>2558</ele>
        <time>2016-03-07T12:04:25.000Z</time>
      </trkpt>
      <trkpt lat="45.49512" lon="6.63713">
        <ele>2558.1999511719</ele>
        <time>2016-03-07T12:04:27.000Z</time>
      </trkpt>
      <trkpt lat="45.49512" lon="6.63713">
        <ele>2558.1999511719</ele>
        <time>2016-03-07T12:04:39.000Z</time>
      </trkpt>
      <trkpt lat="45.49511" lon="6.6372">
        <ele>2558.1999511719</ele>
        <time>2016-03-07T12:04:48.000Z</time>
      </trkpt>
      <trkpt lat="45.49509" lon="6.63726">
        <ele>2559.3999023438</ele>
        <time>2016-03-07T12:04:54.000Z</time>
      </trkpt>
      <trkpt lat="45.49509" lon="6.63727">
        <ele>2559.6000976562</ele>
        <time>2016-03-07T12:04:55.000Z</time>
      </trkpt>
      <trkpt lat="45.49508" lon="6.63733">
        <ele>2560.3999023438</ele>
        <time>2016-03-07T12:05:00.000Z</time>
      </trkpt>
      <trkpt lat="45.49508" lon="6.63734">
        <ele>2560.6000976562</ele>
        <time>2016-03-07T12:05:01.000Z</time>
      </trkpt>
      <trkpt lat="45.49508" lon="6.63738">
        <ele>2561.6000976562</ele>
        <time>2016-03-07T12:05:07.000Z</time>
      </trkpt>
      <trkpt lat="45.49508" lon="6.63739">
        <ele>2561.8000488281</ele>
        <time>2016-03-07T12:05:08.000Z</time>
      </trkpt>
      <trkpt lat="45.49507" lon="6.63744">
        <ele>2562.6000976562</ele>
        <time>2016-03-07T12:05:13.000Z</time>
      </trkpt>
      <trkpt lat="45.49506" lon="6.63746">
        <ele>2562.8000488281</ele>
        <time>2016-03-07T12:05:15.000Z</time>
      </trkpt>
      <trkpt lat="45.49506" lon="6.63747">
        <ele>2563.8000488281</ele>
        <time>2016-03-07T12:05:18.000Z</time>
      </trkpt>
      <trkpt lat="45.49506" lon="6.6375">
        <ele>2564.6000976562</ele>
        <time>2016-03-07T12:05:21.000Z</time>
      </trkpt>
      <trkpt lat="45.49506" lon="6.63752">
        <ele>2564.8000488281</ele>
        <time>2016-03-07T12:05:23.000Z</time>
      </trkpt>
      <trkpt lat="45.49505" lon="6.63756">
        <ele>2565.3999023438</ele>
        <time>2016-03-07T12:05:27.000Z</time>
      </trkpt>
      <trkpt lat="45.49506" lon="6.63758">
        <ele>2565.8000488281</ele>
        <time>2016-03-07T12:05:29.000Z</time>
      </trkpt>
      <trkpt lat="45.49506" lon="6.63761">
        <ele>2566.8000488281</ele>
        <time>2016-03-07T12:05:34.000Z</time>
      </trkpt>
      <trkpt lat="45.49506" lon="6.63764">
        <ele>2568</ele>
        <time>2016-03-07T12:05:40.000Z</time>
      </trkpt>
      <trkpt lat="45.49506" lon="6.63768">
        <ele>2569</ele>
        <time>2016-03-07T12:05:46.000Z</time>
      </trkpt>
      <trkpt lat="45.49505" lon="6.63774">
        <ele>2570</ele>
        <time>2016-03-07T12:05:52.000Z</time>
      </trkpt>
      <trkpt lat="45.49505" lon="6.63775">
        <ele>2570.1999511719</ele>
        <time>2016-03-07T12:05:53.000Z</time>
      </trkpt>
      <trkpt lat="45.49503" lon="6.63777">
        <ele>2571.1999511719</ele>
        <time>2016-03-07T12:05:57.000Z</time>
      </trkpt>
      <trkpt lat="45.49502" lon="6.63778">
        <ele>2571.3999023438</ele>
        <time>2016-03-07T12:05:59.000Z</time>
      </trkpt>
      <trkpt lat="45.49501" lon="6.63781">
        <ele>2572.1999511719</ele>
        <time>2016-03-07T12:06:04.000Z</time>
      </trkpt>
      <trkpt lat="45.49501" lon="6.63781">
        <ele>2572.3999023438</ele>
        <time>2016-03-07T12:06:05.000Z</time>
      </trkpt>
      <trkpt lat="45.495" lon="6.63782">
        <ele>2573.1999511719</ele>
        <time>2016-03-07T12:06:09.000Z</time>
      </trkpt>
      <trkpt lat="45.49499" lon="6.63782">
        <ele>2573.3999023438</ele>
        <time>2016-03-07T12:06:10.000Z</time>
      </trkpt>
      <trkpt lat="45.49498" lon="6.63783">
        <ele>2574.3999023438</ele>
        <time>2016-03-07T12:06:14.000Z</time>
      </trkpt>
      <trkpt lat="45.49498" lon="6.63783">
        <ele>2574.8000488281</ele>
        <time>2016-03-07T12:06:15.000Z</time>
      </trkpt>
      <trkpt lat="45.49498" lon="6.63784">
        <ele>2575</ele>
        <time>2016-03-07T12:06:28.000Z</time>
      </trkpt>
      <trkpt lat="45.49496" lon="6.63789">
        <ele>2575.3999023438</ele>
        <time>2016-03-07T12:06:33.000Z</time>
      </trkpt>
      <trkpt lat="45.49494" lon="6.63791">
        <ele>2576.3999023438</ele>
        <time>2016-03-07T12:06:37.000Z</time>
      </trkpt>
      <trkpt lat="45.49494" lon="6.63791">
        <ele>2576.6000976562</ele>
        <time>2016-03-07T12:06:38.000Z</time>
      </trkpt>
      <trkpt lat="45.49492" lon="6.63794">
        <ele>2577.8000488281</ele>
        <time>2016-03-07T12:06:43.000Z</time>
      </trkpt>
      <trkpt lat="45.49494" lon="6.63795">
        <ele>2578.8000488281</ele>
        <time>2016-03-07T12:06:49.000Z</time>
      </trkpt>
      <trkpt lat="45.49494" lon="6.63795">
        <ele>2579</ele>
        <time>2016-03-07T12:06:50.000Z</time>
      </trkpt>
      <trkpt lat="45.49497" lon="6.63797">
        <ele>2580</ele>
        <time>2016-03-07T12:06:54.000Z</time>
      </trkpt>
      <trkpt lat="45.49498" lon="6.63798">
        <ele>2580.6000976562</ele>
        <time>2016-03-07T12:06:57.000Z</time>
      </trkpt>
      <trkpt lat="45.49499" lon="6.638">
        <ele>2581.1999511719</ele>
        <time>2016-03-07T12:07:00.000Z</time>
      </trkpt>
      <trkpt lat="45.49499" lon="6.63801">
        <ele>2582</ele>
        <time>2016-03-07T12:07:03.000Z</time>
      </trkpt>
      <trkpt lat="45.49499" lon="6.63802">
        <ele>2582.3999023438</ele>
        <time>2016-03-07T12:07:04.000Z</time>
      </trkpt>
      <trkpt lat="45.49498" lon="6.63804">
        <ele>2583</ele>
        <time>2016-03-07T12:07:08.000Z</time>
      </trkpt>
      <trkpt lat="45.49498" lon="6.63805">
        <ele>2583.6000976562</ele>
        <time>2016-03-07T12:07:10.000Z</time>
      </trkpt>
      <trkpt lat="45.49496" lon="6.63809">
        <ele>2584.1999511719</ele>
        <time>2016-03-07T12:07:13.000Z</time>
      </trkpt>
      <trkpt lat="45.49495" lon="6.63811">
        <ele>2584.6000976562</ele>
        <time>2016-03-07T12:07:15.000Z</time>
      </trkpt>
      <trkpt lat="45.49495" lon="6.63812">
        <ele>2585</ele>
        <time>2016-03-07T12:07:18.000Z</time>
      </trkpt>
      <trkpt lat="45.49493" lon="6.63814">
        <ele>2585.6000976562</ele>
        <time>2016-03-07T12:07:23.000Z</time>
      </trkpt>
      <trkpt lat="45.49493" lon="6.63815">
        <ele>2586.6000976562</ele>
        <time>2016-03-07T12:07:26.000Z</time>
      </trkpt>
      <trkpt lat="45.49493" lon="6.63815">
        <ele>2586.8000488281</ele>
        <time>2016-03-07T12:07:27.000Z</time>
      </trkpt>
      <trkpt lat="45.49493" lon="6.63815">
        <ele>2587</ele>
        <time>2016-03-07T12:07:42.000Z</time>
      </trkpt>
      <trkpt lat="45.49492" lon="6.6382">
        <ele>2587.8000488281</ele>
        <time>2016-03-07T12:07:49.000Z</time>
      </trkpt>
      <trkpt lat="45.49491" lon="6.63824">
        <ele>2589</ele>
        <time>2016-03-07T12:07:55.000Z</time>
      </trkpt>
      <trkpt lat="45.49489" lon="6.63829">
        <ele>2590.1999511719</ele>
        <time>2016-03-07T12:08:01.000Z</time>
      </trkpt>
      <trkpt lat="45.49487" lon="6.63833">
        <ele>2591.1999511719</ele>
        <time>2016-03-07T12:08:07.000Z</time>
      </trkpt>
      <trkpt lat="45.49487" lon="6.63837">
        <ele>2592</ele>
        <time>2016-03-07T12:08:10.000Z</time>
      </trkpt>
      <trkpt lat="45.49486" lon="6.63839">
        <ele>2592.3999023438</ele>
        <time>2016-03-07T12:08:12.000Z</time>
      </trkpt>
      <trkpt lat="45.49486" lon="6.63842">
        <ele>2593</ele>
        <time>2016-03-07T12:08:15.000Z</time>
      </trkpt>
      <trkpt lat="45.49486" lon="6.63844">
        <ele>2593.3999023438</ele>
        <time>2016-03-07T12:08:17.000Z</time>
      </trkpt>
      <trkpt lat="45.49484" lon="6.63848">
        <ele>2594.3999023438</ele>
        <time>2016-03-07T12:08:22.000Z</time>
      </trkpt>
      <trkpt lat="45.49484" lon="6.63849">
        <ele>2594.6000976562</ele>
        <time>2016-03-07T12:08:23.000Z</time>
      </trkpt>
      <trkpt lat="45.49483" lon="6.63853">
        <ele>2595.6000976562</ele>
        <time>2016-03-07T12:08:29.000Z</time>
      </trkpt>
      <trkpt lat="45.49483" lon="6.63855">
        <ele>2596.1999511719</ele>
        <time>2016-03-07T12:08:30.000Z</time>
      </trkpt>
      <trkpt lat="45.49484" lon="6.6386">
        <ele>2597.1999511719</ele>
        <time>2016-03-07T12:08:35.000Z</time>
      </trkpt>
      <trkpt lat="45.49482" lon="6.63863">
        <ele>2598.3999023438</ele>
        <time>2016-03-07T12:08:41.000Z</time>
      </trkpt>
      <trkpt lat="45.49482" lon="6.63869">
        <ele>2599.3999023438</ele>
        <time>2016-03-07T12:08:47.000Z</time>
      </trkpt>
      <trkpt lat="45.49482" lon="6.6387">
        <ele>2599.6000976562</ele>
        <time>2016-03-07T12:08:48.000Z</time>
      </trkpt>
      <trkpt lat="45.49481" lon="6.63873">
        <ele>2600.3999023438</ele>
        <time>2016-03-07T12:08:53.000Z</time>
      </trkpt>
      <trkpt lat="45.4948" lon="6.63876">
        <ele>2601.6000976562</ele>
        <time>2016-03-07T12:08:56.000Z</time>
      </trkpt>
      <trkpt lat="45.4948" lon="6.63879">
        <ele>2602.1999511719</ele>
        <time>2016-03-07T12:08:59.000Z</time>
      </trkpt>
      <trkpt lat="45.49479" lon="6.63882">
        <ele>2602.8000488281</ele>
        <time>2016-03-07T12:09:03.000Z</time>
      </trkpt>
      <trkpt lat="45.49478" lon="6.63885">
        <ele>2603.3999023438</ele>
        <time>2016-03-07T12:09:07.000Z</time>
      </trkpt>
      <trkpt lat="45.49478" lon="6.63888">
        <ele>2603.8000488281</ele>
        <time>2016-03-07T12:09:10.000Z</time>
      </trkpt>
      <trkpt lat="45.49477" lon="6.63892">
        <ele>2604.1999511719</ele>
        <time>2016-03-07T12:09:13.000Z</time>
      </trkpt>
      <trkpt lat="45.49477" lon="6.63895">
        <ele>2604.8000488281</ele>
        <time>2016-03-07T12:09:18.000Z</time>
      </trkpt>
      <trkpt lat="45.49477" lon="6.63895">
        <ele>2605</ele>
        <time>2016-03-07T12:09:19.000Z</time>
      </trkpt>
      <trkpt lat="45.49476" lon="6.63899">
        <ele>2606</ele>
        <time>2016-03-07T12:09:23.000Z</time>
      </trkpt>
      <trkpt lat="45.49476" lon="6.63901">
        <ele>2606.1999511719</ele>
        <time>2016-03-07T12:09:25.000Z</time>
      </trkpt>
      <trkpt lat="45.49474" lon="6.63907">
        <ele>2607</ele>
        <time>2016-03-07T12:09:30.000Z</time>
      </trkpt>
      <trkpt lat="45.49474" lon="6.63907">
        <ele>2607.1999511719</ele>
        <time>2016-03-07T12:09:31.000Z</time>
      </trkpt>
      <trkpt lat="45.49472" lon="6.63913">
        <ele>2607.8000488281</ele>
        <time>2016-03-07T12:09:36.000Z</time>
      </trkpt>
      <trkpt lat="45.49472" lon="6.63913">
        <ele>2608.1999511719</ele>
        <time>2016-03-07T12:09:37.000Z</time>
      </trkpt>
      <trkpt lat="45.4947" lon="6.63919">
        <ele>2609.1999511719</ele>
        <time>2016-03-07T12:09:42.000Z</time>
      </trkpt>
      <trkpt lat="45.49469" lon="6.6392">
        <ele>2609.3999023438</ele>
        <time>2016-03-07T12:09:43.000Z</time>
      </trkpt>
      <trkpt lat="45.49469" lon="6.63924">
        <ele>2610.3999023438</ele>
        <time>2016-03-07T12:09:49.000Z</time>
      </trkpt>
      <trkpt lat="45.4947" lon="6.63926">
        <ele>2611.3999023438</ele>
        <time>2016-03-07T12:09:56.000Z</time>
      </trkpt>
      <trkpt lat="45.4947" lon="6.63926">
        <ele>2611.3999023438</ele>
        <time>2016-03-07T12:09:57.000Z</time>
      </trkpt>
      <trkpt lat="45.49471" lon="6.63926">
        <ele>2611.8000488281</ele>
        <time>2016-03-07T12:10:14.000Z</time>
      </trkpt>
      <trkpt lat="45.49472" lon="6.63926">
        <ele>2612</ele>
        <time>2016-03-07T12:10:25.000Z</time>
      </trkpt>
      <trkpt lat="45.49472" lon="6.63926">
        <ele>2611.8000488281</ele>
        <time>2016-03-07T12:10:36.000Z</time>
      </trkpt>
      <trkpt lat="45.49472" lon="6.63926">
        <ele>2611.8000488281</ele>
        <time>2016-03-07T12:10:51.000Z</time>
      </trkpt>
      <trkpt lat="45.49472" lon="6.63926">
        <ele>2611</ele>
        <time>2016-03-07T12:11:02.000Z</time>
      </trkpt>
      <trkpt lat="45.49472" lon="6.63926">
        <ele>2611.6000976562</ele>
        <time>2016-03-07T12:11:18.000Z</time>
      </trkpt>
      <trkpt lat="45.49472" lon="6.63926">
        <ele>2611.8000488281</ele>
        <time>2016-03-07T12:11:30.000Z</time>
      </trkpt>
      <trkpt lat="45.49472" lon="6.63926">
        <ele>2612.6000976562</ele>
        <time>2016-03-07T12:11:40.000Z</time>
      </trkpt>
      <trkpt lat="45.49472" lon="6.63926">
        <ele>2612.8000488281</ele>
        <time>2016-03-07T12:11:41.000Z</time>
      </trkpt>
      <trkpt lat="45.49472" lon="6.63926">
        <ele>2611.8000488281</ele>
        <time>2016-03-07T12:11:49.000Z</time>
      </trkpt>
      <trkpt lat="45.49472" lon="6.63926">
        <ele>2612</ele>
        <time>2016-03-07T12:12:00.000Z</time>
      </trkpt>
      <trkpt lat="45.49471" lon="6.63926">
        <ele>2612</ele>
        <time>2016-03-07T12:12:21.000Z</time>
      </trkpt>
      <trkpt lat="45.49471" lon="6.63926">
        <ele>2611.8000488281</ele>
        <time>2016-03-07T12:12:43.000Z</time>
      </trkpt>
      <trkpt lat="45.49471" lon="6.63926">
        <ele>2611.8000488281</ele>
        <time>2016-03-07T12:13:02.000Z</time>
      </trkpt>
      <trkpt lat="45.49471" lon="6.63926">
        <ele>2611.6000976562</ele>
        <time>2016-03-07T12:13:18.000Z</time>
      </trkpt>
      <trkpt lat="45.49471" lon="6.63926">
        <ele>2611.3999023438</ele>
        <time>2016-03-07T12:13:33.000Z</time>
      </trkpt>
      <trkpt lat="45.49471" lon="6.63926">
        <ele>2611.6000976562</ele>
        <time>2016-03-07T12:13:47.000Z</time>
      </trkpt>
      <trkpt lat="45.49471" lon="6.63926">
        <ele>2611.6000976562</ele>
        <time>2016-03-07T12:13:59.000Z</time>
      </trkpt>
      <trkpt lat="45.49471" lon="6.63926">
        <ele>2611.6000976562</ele>
        <time>2016-03-07T12:14:10.000Z</time>
      </trkpt>
      <trkpt lat="45.49471" lon="6.63926">
        <ele>2611.6000976562</ele>
        <time>2016-03-07T12:14:25.000Z</time>
      </trkpt>
      <trkpt lat="45.49471" lon="6.63926">
        <ele>2611.6000976562</ele>
        <time>2016-03-07T12:14:38.000Z</time>
      </trkpt>
      <trkpt lat="45.49471" lon="6.63926">
        <ele>2611.8000488281</ele>
        <time>2016-03-07T12:14:58.000Z</time>
      </trkpt>
      <trkpt lat="45.49471" lon="6.63926">
        <ele>2611.8000488281</ele>
        <time>2016-03-07T12:15:17.000Z</time>
      </trkpt>
      <trkpt lat="45.49471" lon="6.63926">
        <ele>2611.8000488281</ele>
        <time>2016-03-07T12:15:21.000Z</time>
      </trkpt>
      <trkpt lat="45.49471" lon="6.63926">
        <ele>2611.6000976562</ele>
        <time>2016-03-07T12:15:32.000Z</time>
      </trkpt>
      <trkpt lat="45.49471" lon="6.63927">
        <ele>2611.8000488281</ele>
        <time>2016-03-07T12:15:49.000Z</time>
      </trkpt>
      <trkpt lat="45.49471" lon="6.63927">
        <ele>2611.6000976562</ele>
        <time>2016-03-07T12:16:09.000Z</time>
      </trkpt>
      <trkpt lat="45.49471" lon="6.63927">
        <ele>2611.6000976562</ele>
        <time>2016-03-07T12:16:26.000Z</time>
      </trkpt>
      <trkpt lat="45.49471" lon="6.63927">
        <ele>2611.6000976562</ele>
        <time>2016-03-07T12:16:49.000Z</time>
      </trkpt>
      <trkpt lat="45.49471" lon="6.63927">
        <ele>2611.8000488281</ele>
        <time>2016-03-07T12:17:01.000Z</time>
      </trkpt>
      <trkpt lat="45.49471" lon="6.63927">
        <ele>2611.6000976562</ele>
        <time>2016-03-07T12:17:22.000Z</time>
      </trkpt>
      <trkpt lat="45.49471" lon="6.63927">
        <ele>2611.6000976562</ele>
        <time>2016-03-07T12:17:36.000Z</time>
      </trkpt>
      <trkpt lat="45.49471" lon="6.63927">
        <ele>2611.6000976562</ele>
        <time>2016-03-07T12:17:52.000Z</time>
      </trkpt>
      <trkpt lat="45.49471" lon="6.63927">
        <ele>2611.6000976562</ele>
        <time>2016-03-07T12:18:10.000Z</time>
      </trkpt>
      <trkpt lat="45.49471" lon="6.63927">
        <ele>2611.6000976562</ele>
        <time>2016-03-07T12:18:29.000Z</time>
      </trkpt>
      <trkpt lat="45.49471" lon="6.63927">
        <ele>2611.8000488281</ele>
        <time>2016-03-07T12:18:46.000Z</time>
      </trkpt>
      <trkpt lat="45.49471" lon="6.63927">
        <ele>2611.8000488281</ele>
        <time>2016-03-07T12:19:06.000Z</time>
      </trkpt>
      <trkpt lat="45.49471" lon="6.63927">
        <ele>2611.6000976562</ele>
        <time>2016-03-07T12:19:25.000Z</time>
      </trkpt>
      <trkpt lat="45.49471" lon="6.63927">
        <ele>2611.6000976562</ele>
        <time>2016-03-07T12:19:45.000Z</time>
      </trkpt>
      <trkpt lat="45.49471" lon="6.63927">
        <ele>2611.6000976562</ele>
        <time>2016-03-07T12:20:04.000Z</time>
      </trkpt>
      <trkpt lat="45.49471" lon="6.63927">
        <ele>2611.6000976562</ele>
        <time>2016-03-07T12:20:31.000Z</time>
      </trkpt>
      <trkpt lat="45.49471" lon="6.63927">
        <ele>2611.6000976562</ele>
        <time>2016-03-07T12:20:50.000Z</time>
      </trkpt>
      <trkpt lat="45.49471" lon="6.63927">
        <ele>2611.6000976562</ele>
        <time>2016-03-07T12:21:11.000Z</time>
      </trkpt>
      <trkpt lat="45.49471" lon="6.63927">
        <ele>2611.6000976562</ele>
        <time>2016-03-07T12:21:25.000Z</time>
      </trkpt>
      <trkpt lat="45.49471" lon="6.63927">
        <ele>2611.3999023438</ele>
        <time>2016-03-07T12:21:44.000Z</time>
      </trkpt>
      <trkpt lat="45.49471" lon="6.63927">
        <ele>2611.3999023438</ele>
        <time>2016-03-07T12:22:04.000Z</time>
      </trkpt>
      <trkpt lat="45.49471" lon="6.63927">
        <ele>2612</ele>
        <time>2016-03-07T12:22:12.000Z</time>
      </trkpt>
      <trkpt lat="45.49471" lon="6.63927">
        <ele>2611.8000488281</ele>
        <time>2016-03-07T12:22:31.000Z</time>
      </trkpt>
      <trkpt lat="45.49471" lon="6.63927">
        <ele>2611.8000488281</ele>
        <time>2016-03-07T12:22:50.000Z</time>
      </trkpt>
      <trkpt lat="45.49471" lon="6.63927">
        <ele>2611.8000488281</ele>
        <time>2016-03-07T12:23:11.000Z</time>
      </trkpt>
      <trkpt lat="45.49471" lon="6.63926">
        <ele>2611.8000488281</ele>
        <time>2016-03-07T12:23:33.000Z</time>
      </trkpt>
      <trkpt lat="45.49471" lon="6.63926">
        <ele>2611.8000488281</ele>
        <time>2016-03-07T12:23:50.000Z</time>
      </trkpt>
      <trkpt lat="45.49471" lon="6.63926">
        <ele>2611.6000976562</ele>
        <time>2016-03-07T12:24:03.000Z</time>
      </trkpt>
      <trkpt lat="45.49471" lon="6.63926">
        <ele>2611.6000976562</ele>
        <time>2016-03-07T12:24:17.000Z</time>
      </trkpt>
      <trkpt lat="45.49471" lon="6.63926">
        <ele>2612</ele>
        <time>2016-03-07T12:24:30.000Z</time>
      </trkpt>
      <trkpt lat="45.49471" lon="6.63926">
        <ele>2611.8000488281</ele>
        <time>2016-03-07T12:24:46.000Z</time>
      </trkpt>
      <trkpt lat="45.49471" lon="6.63926">
        <ele>2611.8000488281</ele>
        <time>2016-03-07T12:25:01.000Z</time>
      </trkpt>
      <trkpt lat="45.49471" lon="6.63926">
        <ele>2611.3999023438</ele>
        <time>2016-03-07T12:25:12.000Z</time>
      </trkpt>
      <trkpt lat="45.49471" lon="6.63926">
        <ele>2611.8000488281</ele>
        <time>2016-03-07T12:25:24.000Z</time>
      </trkpt>
      <trkpt lat="45.49471" lon="6.63926">
        <ele>2611.6000976562</ele>
        <time>2016-03-07T12:25:37.000Z</time>
      </trkpt>
      <trkpt lat="45.49471" lon="6.63926">
        <ele>2611.1999511719</ele>
        <time>2016-03-07T12:25:52.000Z</time>
      </trkpt>
      <trkpt lat="45.49471" lon="6.63926">
        <ele>2611.3999023438</ele>
        <time>2016-03-07T12:26:15.000Z</time>
      </trkpt>
      <trkpt lat="45.49471" lon="6.63926">
        <ele>2611.3999023438</ele>
        <time>2016-03-07T12:26:37.000Z</time>
      </trkpt>
      <trkpt lat="45.49472" lon="6.63927">
        <ele>2611.3999023438</ele>
        <time>2016-03-07T12:26:51.000Z</time>
      </trkpt>
      <trkpt lat="45.49471" lon="6.63925">
        <ele>2611.1999511719</ele>
        <time>2016-03-07T12:27:04.000Z</time>
      </trkpt>
      <trkpt lat="45.49468" lon="6.63909">
        <ele>2611</ele>
        <time>2016-03-07T12:27:07.000Z</time>
      </trkpt>
      <trkpt lat="45.49467" lon="6.63901">
        <ele>2610.8000488281</ele>
        <time>2016-03-07T12:27:08.000Z</time>
      </trkpt>
      <trkpt lat="45.49466" lon="6.63892">
        <ele>2610.1999511719</ele>
        <time>2016-03-07T12:27:09.000Z</time>
      </trkpt>
      <trkpt lat="45.49467" lon="6.63883">
        <ele>2609.6000976562</ele>
        <time>2016-03-07T12:27:10.000Z</time>
      </trkpt>
      <trkpt lat="45.49466" lon="6.63875">
        <ele>2608.6000976562</ele>
        <time>2016-03-07T12:27:11.000Z</time>
      </trkpt>
      <trkpt lat="45.49465" lon="6.63869">
        <ele>2607</ele>
        <time>2016-03-07T12:27:12.000Z</time>
      </trkpt>
      <trkpt lat="45.49464" lon="6.63862">
        <ele>2605</ele>
        <time>2016-03-07T12:27:13.000Z</time>
      </trkpt>
      <trkpt lat="45.49462" lon="6.63855">
        <ele>2603.1999511719</ele>
        <time>2016-03-07T12:27:14.000Z</time>
      </trkpt>
      <trkpt lat="45.49461" lon="6.63848">
        <ele>2601.3999023438</ele>
        <time>2016-03-07T12:27:15.000Z</time>
      </trkpt>
      <trkpt lat="45.49462" lon="6.63841">
        <ele>2599.3999023438</ele>
        <time>2016-03-07T12:27:16.000Z</time>
      </trkpt>
      <trkpt lat="45.49463" lon="6.63834">
        <ele>2597</ele>
        <time>2016-03-07T12:27:17.000Z</time>
      </trkpt>
      <trkpt lat="45.49464" lon="6.63826">
        <ele>2594.3999023438</ele>
        <time>2016-03-07T12:27:18.000Z</time>
      </trkpt>
      <trkpt lat="45.49465" lon="6.6382">
        <ele>2592.1999511719</ele>
        <time>2016-03-07T12:27:19.000Z</time>
      </trkpt>
      <trkpt lat="45.49466" lon="6.63813">
        <ele>2588.6000976562</ele>
        <time>2016-03-07T12:27:20.000Z</time>
      </trkpt>
      <trkpt lat="45.49468" lon="6.63806">
        <ele>2586.6000976562</ele>
        <time>2016-03-07T12:27:21.000Z</time>
      </trkpt>
      <trkpt lat="45.4947" lon="6.638">
        <ele>2584.6000976562</ele>
        <time>2016-03-07T12:27:22.000Z</time>
      </trkpt>
      <trkpt lat="45.49472" lon="6.63794">
        <ele>2582.6000976562</ele>
        <time>2016-03-07T12:27:23.000Z</time>
      </trkpt>
      <trkpt lat="45.49473" lon="6.63789">
        <ele>2580.8000488281</ele>
        <time>2016-03-07T12:27:24.000Z</time>
      </trkpt>
      <trkpt lat="45.49475" lon="6.63784">
        <ele>2579</ele>
        <time>2016-03-07T12:27:25.000Z</time>
      </trkpt>
      <trkpt lat="45.49477" lon="6.6378">
        <ele>2577.3999023438</ele>
        <time>2016-03-07T12:27:26.000Z</time>
      </trkpt>
      <trkpt lat="45.49479" lon="6.63776">
        <ele>2575.8000488281</ele>
        <time>2016-03-07T12:27:27.000Z</time>
      </trkpt>
      <trkpt lat="45.49479" lon="6.63772">
        <ele>2574.3999023438</ele>
        <time>2016-03-07T12:27:28.000Z</time>
      </trkpt>
      <trkpt lat="45.49479" lon="6.63769">
        <ele>2573.1999511719</ele>
        <time>2016-03-07T12:27:29.000Z</time>
      </trkpt>
      <trkpt lat="45.49478" lon="6.63765">
        <ele>2572.1999511719</ele>
        <time>2016-03-07T12:27:30.000Z</time>
      </trkpt>
      <trkpt lat="45.49478" lon="6.6376">
        <ele>2571.1999511719</ele>
        <time>2016-03-07T12:27:31.000Z</time>
      </trkpt>
      <trkpt lat="45.49477" lon="6.63755">
        <ele>2569.8000488281</ele>
        <time>2016-03-07T12:27:32.000Z</time>
      </trkpt>
      <trkpt lat="45.49476" lon="6.6375">
        <ele>2568.1999511719</ele>
        <time>2016-03-07T12:27:33.000Z</time>
      </trkpt>
      <trkpt lat="45.49475" lon="6.63744">
        <ele>2566.3999023438</ele>
        <time>2016-03-07T12:27:34.000Z</time>
      </trkpt>
      <trkpt lat="45.49476" lon="6.6374">
        <ele>2564.6000976562</ele>
        <time>2016-03-07T12:27:35.000Z</time>
      </trkpt>
      <trkpt lat="45.49477" lon="6.63737">
        <ele>2562.3999023438</ele>
        <time>2016-03-07T12:27:36.000Z</time>
      </trkpt>
      <trkpt lat="45.49476" lon="6.63736">
        <ele>2560</ele>
        <time>2016-03-07T12:27:37.000Z</time>
      </trkpt>
      <trkpt lat="45.49475" lon="6.63735">
        <ele>2557.6000976562</ele>
        <time>2016-03-07T12:27:38.000Z</time>
      </trkpt>
      <trkpt lat="45.49475" lon="6.63732">
        <ele>2556</ele>
        <time>2016-03-07T12:27:39.000Z</time>
      </trkpt>
      <trkpt lat="45.49474" lon="6.63729">
        <ele>2555</ele>
        <time>2016-03-07T12:27:40.000Z</time>
      </trkpt>
      <trkpt lat="45.49473" lon="6.63726">
        <ele>2554</ele>
        <time>2016-03-07T12:27:41.000Z</time>
      </trkpt>
      <trkpt lat="45.49472" lon="6.63722">
        <ele>2552.3999023438</ele>
        <time>2016-03-07T12:27:42.000Z</time>
      </trkpt>
      <trkpt lat="45.4947" lon="6.63719">
        <ele>2550.8000488281</ele>
        <time>2016-03-07T12:27:43.000Z</time>
      </trkpt>
      <trkpt lat="45.49468" lon="6.63715">
        <ele>2547</ele>
        <time>2016-03-07T12:27:44.000Z</time>
      </trkpt>
      <trkpt lat="45.49467" lon="6.6371">
        <ele>2544.8000488281</ele>
        <time>2016-03-07T12:27:45.000Z</time>
      </trkpt>
      <trkpt lat="45.49467" lon="6.63704">
        <ele>2542.6000976562</ele>
        <time>2016-03-07T12:27:46.000Z</time>
      </trkpt>
      <trkpt lat="45.49465" lon="6.637">
        <ele>2540.3999023438</ele>
        <time>2016-03-07T12:27:47.000Z</time>
      </trkpt>
      <trkpt lat="45.49463" lon="6.63695">
        <ele>2538</ele>
        <time>2016-03-07T12:27:48.000Z</time>
      </trkpt>
      <trkpt lat="45.49462" lon="6.63689">
        <ele>2535.6000976562</ele>
        <time>2016-03-07T12:27:49.000Z</time>
      </trkpt>
      <trkpt lat="45.4946" lon="6.63684">
        <ele>2533.3999023438</ele>
        <time>2016-03-07T12:27:50.000Z</time>
      </trkpt>
      <trkpt lat="45.49459" lon="6.63678">
        <ele>2531.1999511719</ele>
        <time>2016-03-07T12:27:51.000Z</time>
      </trkpt>
      <trkpt lat="45.49458" lon="6.63673">
        <ele>2529</ele>
        <time>2016-03-07T12:27:52.000Z</time>
      </trkpt>
      <trkpt lat="45.49456" lon="6.63667">
        <ele>2526.8000488281</ele>
        <time>2016-03-07T12:27:53.000Z</time>
      </trkpt>
      <trkpt lat="45.49455" lon="6.63661">
        <ele>2524.6000976562</ele>
        <time>2016-03-07T12:27:54.000Z</time>
      </trkpt>
      <trkpt lat="45.49453" lon="6.63655">
        <ele>2522.3999023438</ele>
        <time>2016-03-07T12:27:55.000Z</time>
      </trkpt>
      <trkpt lat="45.49452" lon="6.63648">
        <ele>2520.1999511719</ele>
        <time>2016-03-07T12:27:56.000Z</time>
      </trkpt>
      <trkpt lat="45.49451" lon="6.63641">
        <ele>2517.8000488281</ele>
        <time>2016-03-07T12:27:57.000Z</time>
      </trkpt>
      <trkpt lat="45.49451" lon="6.63632">
        <ele>2515.6000976562</ele>
        <time>2016-03-07T12:27:58.000Z</time>
      </trkpt>
      <trkpt lat="45.49451" lon="6.63623">
        <ele>2513.3999023438</ele>
        <time>2016-03-07T12:27:59.000Z</time>
      </trkpt>
      <trkpt lat="45.4945" lon="6.63616">
        <ele>2511</ele>
        <time>2016-03-07T12:28:00.000Z</time>
      </trkpt>
      <trkpt lat="45.4945" lon="6.63608">
        <ele>2508.6000976562</ele>
        <time>2016-03-07T12:28:01.000Z</time>
      </trkpt>
      <trkpt lat="45.49448" lon="6.63602">
        <ele>2506.1999511719</ele>
        <time>2016-03-07T12:28:02.000Z</time>
      </trkpt>
      <trkpt lat="45.49446" lon="6.63595">
        <ele>2504</ele>
        <time>2016-03-07T12:28:03.000Z</time>
      </trkpt>
      <trkpt lat="45.49444" lon="6.63589">
        <ele>2501.6000976562</ele>
        <time>2016-03-07T12:28:04.000Z</time>
      </trkpt>
      <trkpt lat="45.49443" lon="6.63582">
        <ele>2499.1999511719</ele>
        <time>2016-03-07T12:28:05.000Z</time>
      </trkpt>
      <trkpt lat="45.49441" lon="6.63575">
        <ele>2497.1999511719</ele>
        <time>2016-03-07T12:28:06.000Z</time>
      </trkpt>
      <trkpt lat="45.4944" lon="6.63566">
        <ele>2495.1999511719</ele>
        <time>2016-03-07T12:28:07.000Z</time>
      </trkpt>
      <trkpt lat="45.49438" lon="6.6356">
        <ele>2491.6000976562</ele>
        <time>2016-03-07T12:28:08.000Z</time>
      </trkpt>
      <trkpt lat="45.49438" lon="6.63552">
        <ele>2489.6000976562</ele>
        <time>2016-03-07T12:28:09.000Z</time>
      </trkpt>
      <trkpt lat="45.49437" lon="6.63542">
        <ele>2487.3999023438</ele>
        <time>2016-03-07T12:28:10.000Z</time>
      </trkpt>
      <trkpt lat="45.49435" lon="6.63533">
        <ele>2485.3999023438</ele>
        <time>2016-03-07T12:28:11.000Z</time>
      </trkpt>
      <trkpt lat="45.49432" lon="6.63525">
        <ele>2483.3999023438</ele>
        <time>2016-03-07T12:28:12.000Z</time>
      </trkpt>
      <trkpt lat="45.49429" lon="6.63516">
        <ele>2481.3999023438</ele>
        <time>2016-03-07T12:28:13.000Z</time>
      </trkpt>
      <trkpt lat="45.49428" lon="6.63506">
        <ele>2479.1999511719</ele>
        <time>2016-03-07T12:28:14.000Z</time>
      </trkpt>
      <trkpt lat="45.49425" lon="6.63498">
        <ele>2477</ele>
        <time>2016-03-07T12:28:15.000Z</time>
      </trkpt>
      <trkpt lat="45.49422" lon="6.6349">
        <ele>2475</ele>
        <time>2016-03-07T12:28:16.000Z</time>
      </trkpt>
      <trkpt lat="45.4942" lon="6.63482">
        <ele>2473</ele>
        <time>2016-03-07T12:28:17.000Z</time>
      </trkpt>
      <trkpt lat="45.49419" lon="6.63474">
        <ele>2471.3999023438</ele>
        <time>2016-03-07T12:28:18.000Z</time>
      </trkpt>
      <trkpt lat="45.49417" lon="6.63466">
        <ele>2469.8000488281</ele>
        <time>2016-03-07T12:28:19.000Z</time>
      </trkpt>
      <trkpt lat="45.49416" lon="6.63457">
        <ele>2468.1999511719</ele>
        <time>2016-03-07T12:28:20.000Z</time>
      </trkpt>
      <trkpt lat="45.49415" lon="6.63449">
        <ele>2466.8000488281</ele>
        <time>2016-03-07T12:28:21.000Z</time>
      </trkpt>
      <trkpt lat="45.49414" lon="6.6344">
        <ele>2465.6000976562</ele>
        <time>2016-03-07T12:28:22.000Z</time>
      </trkpt>
      <trkpt lat="45.49412" lon="6.63432">
        <ele>2464.3999023438</ele>
        <time>2016-03-07T12:28:23.000Z</time>
      </trkpt>
      <trkpt lat="45.49411" lon="6.63422">
        <ele>2463.1999511719</ele>
        <time>2016-03-07T12:28:24.000Z</time>
      </trkpt>
      <trkpt lat="45.49409" lon="6.63412">
        <ele>2462</ele>
        <time>2016-03-07T12:28:25.000Z</time>
      </trkpt>
      <trkpt lat="45.49408" lon="6.63402">
        <ele>2460.6000976562</ele>
        <time>2016-03-07T12:28:26.000Z</time>
      </trkpt>
      <trkpt lat="45.49406" lon="6.63392">
        <ele>2459</ele>
        <time>2016-03-07T12:28:27.000Z</time>
      </trkpt>
      <trkpt lat="45.49405" lon="6.63382">
        <ele>2457.3999023438</ele>
        <time>2016-03-07T12:28:28.000Z</time>
      </trkpt>
      <trkpt lat="45.49404" lon="6.63372">
        <ele>2455.8000488281</ele>
        <time>2016-03-07T12:28:29.000Z</time>
      </trkpt>
      <trkpt lat="45.49403" lon="6.63363">
        <ele>2454.1999511719</ele>
        <time>2016-03-07T12:28:30.000Z</time>
      </trkpt>
      <trkpt lat="45.49403" lon="6.63354">
        <ele>2452.3999023438</ele>
        <time>2016-03-07T12:28:31.000Z</time>
      </trkpt>
      <trkpt lat="45.49403" lon="6.63345">
        <ele>2449.6000976562</ele>
        <time>2016-03-07T12:28:32.000Z</time>
      </trkpt>
      <trkpt lat="45.49404" lon="6.63337">
        <ele>2448.3999023438</ele>
        <time>2016-03-07T12:28:33.000Z</time>
      </trkpt>
      <trkpt lat="45.49409" lon="6.63322">
        <ele>2446.6000976562</ele>
        <time>2016-03-07T12:28:35.000Z</time>
      </trkpt>
      <trkpt lat="45.49415" lon="6.6331">
        <ele>2444.6000976562</ele>
        <time>2016-03-07T12:28:37.000Z</time>
      </trkpt>
      <trkpt lat="45.49418" lon="6.63304">
        <ele>2443.3999023438</ele>
        <time>2016-03-07T12:28:38.000Z</time>
      </trkpt>
      <trkpt lat="45.49421" lon="6.63298">
        <ele>2442.3999023438</ele>
        <time>2016-03-07T12:28:39.000Z</time>
      </trkpt>
      <trkpt lat="45.49427" lon="6.63287">
        <ele>2440.6000976562</ele>
        <time>2016-03-07T12:28:41.000Z</time>
      </trkpt>
      <trkpt lat="45.49432" lon="6.63275">
        <ele>2439</ele>
        <time>2016-03-07T12:28:43.000Z</time>
      </trkpt>
      <trkpt lat="45.49439" lon="6.63262">
        <ele>2437.6000976562</ele>
        <time>2016-03-07T12:28:45.000Z</time>
      </trkpt>
      <trkpt lat="45.49445" lon="6.63246">
        <ele>2436</ele>
        <time>2016-03-07T12:28:47.000Z</time>
      </trkpt>
      <trkpt lat="45.49448" lon="6.63238">
        <ele>2435</ele>
        <time>2016-03-07T12:28:48.000Z</time>
      </trkpt>
      <trkpt lat="45.49451" lon="6.63229">
        <ele>2433.8000488281</ele>
        <time>2016-03-07T12:28:49.000Z</time>
      </trkpt>
      <trkpt lat="45.49454" lon="6.6322">
        <ele>2432.8000488281</ele>
        <time>2016-03-07T12:28:50.000Z</time>
      </trkpt>
      <trkpt lat="45.49457" lon="6.63211">
        <ele>2431.6000976562</ele>
        <time>2016-03-07T12:28:51.000Z</time>
      </trkpt>
      <trkpt lat="45.49459" lon="6.63201">
        <ele>2430.3999023438</ele>
        <time>2016-03-07T12:28:52.000Z</time>
      </trkpt>
      <trkpt lat="45.49461" lon="6.63191">
        <ele>2429.1999511719</ele>
        <time>2016-03-07T12:28:53.000Z</time>
      </trkpt>
      <trkpt lat="45.49462" lon="6.63182">
        <ele>2428</ele>
        <time>2016-03-07T12:28:54.000Z</time>
      </trkpt>
      <trkpt lat="45.49464" lon="6.63174">
        <ele>2426.8000488281</ele>
        <time>2016-03-07T12:28:55.000Z</time>
      </trkpt>
      <trkpt lat="45.49465" lon="6.63166">
        <ele>2423.6000976562</ele>
        <time>2016-03-07T12:28:56.000Z</time>
      </trkpt>
      <trkpt lat="45.49465" lon="6.63161">
        <ele>2422.1999511719</ele>
        <time>2016-03-07T12:28:57.000Z</time>
      </trkpt>
      <trkpt lat="45.49465" lon="6.63156">
        <ele>2421.1999511719</ele>
        <time>2016-03-07T12:28:58.000Z</time>
      </trkpt>
      <trkpt lat="45.49464" lon="6.63145">
        <ele>2419.3999023438</ele>
        <time>2016-03-07T12:29:00.000Z</time>
      </trkpt>
      <trkpt lat="45.49463" lon="6.63137">
        <ele>2418</ele>
        <time>2016-03-07T12:29:02.000Z</time>
      </trkpt>
      <trkpt lat="45.49462" lon="6.63135">
        <ele>2417.3999023438</ele>
        <time>2016-03-07T12:29:03.000Z</time>
      </trkpt>
      <trkpt lat="45.49461" lon="6.63134">
        <ele>2416.6000976562</ele>
        <time>2016-03-07T12:29:04.000Z</time>
      </trkpt>
      <trkpt lat="45.49461" lon="6.63133">
        <ele>2415.1999511719</ele>
        <time>2016-03-07T12:29:06.000Z</time>
      </trkpt>
      <trkpt lat="45.4946" lon="6.63134">
        <ele>2414.6000976562</ele>
        <time>2016-03-07T12:29:08.000Z</time>
      </trkpt>
      <trkpt lat="45.4946" lon="6.63134">
        <ele>2414.1999511719</ele>
        <time>2016-03-07T12:29:20.000Z</time>
      </trkpt>
      <trkpt lat="45.4946" lon="6.63133">
        <ele>2414.1999511719</ele>
        <time>2016-03-07T12:29:22.000Z</time>
      </trkpt>
      <trkpt lat="45.4946" lon="6.63133">
        <ele>2414.1999511719</ele>
        <time>2016-03-07T12:29:23.000Z</time>
      </trkpt>
      <trkpt lat="45.49461" lon="6.63122">
        <ele>2414</ele>
        <time>2016-03-07T12:29:27.000Z</time>
      </trkpt>
      <trkpt lat="45.49459" lon="6.63111">
        <ele>2413.1999511719</ele>
        <time>2016-03-07T12:29:29.000Z</time>
      </trkpt>
      <trkpt lat="45.49457" lon="6.63106">
        <ele>2412.8000488281</ele>
        <time>2016-03-07T12:29:30.000Z</time>
      </trkpt>
      <trkpt lat="45.49455" lon="6.63101">
        <ele>2412.1999511719</ele>
        <time>2016-03-07T12:29:31.000Z</time>
      </trkpt>
      <trkpt lat="45.49453" lon="6.63096">
        <ele>2411.6000976562</ele>
        <time>2016-03-07T12:29:32.000Z</time>
      </trkpt>
      <trkpt lat="45.4945" lon="6.63085">
        <ele>2410.1999511719</ele>
        <time>2016-03-07T12:29:34.000Z</time>
      </trkpt>
      <trkpt lat="45.49447" lon="6.63073">
        <ele>2409</ele>
        <time>2016-03-07T12:29:36.000Z</time>
      </trkpt>
      <trkpt lat="45.49444" lon="6.63059">
        <ele>2407.6000976562</ele>
        <time>2016-03-07T12:29:38.000Z</time>
      </trkpt>
      <trkpt lat="45.49442" lon="6.63052">
        <ele>2407</ele>
        <time>2016-03-07T12:29:39.000Z</time>
      </trkpt>
      <trkpt lat="45.4944" lon="6.63044">
        <ele>2406.1999511719</ele>
        <time>2016-03-07T12:29:40.000Z</time>
      </trkpt>
      <trkpt lat="45.49436" lon="6.63029">
        <ele>2404.1999511719</ele>
        <time>2016-03-07T12:29:42.000Z</time>
      </trkpt>
      <trkpt lat="45.49435" lon="6.63022">
        <ele>2403.1999511719</ele>
        <time>2016-03-07T12:29:43.000Z</time>
      </trkpt>
      <trkpt lat="45.49433" lon="6.63014">
        <ele>2401</ele>
        <time>2016-03-07T12:29:44.000Z</time>
      </trkpt>
      <trkpt lat="45.49434" lon="6.63007">
        <ele>2399.8000488281</ele>
        <time>2016-03-07T12:29:45.000Z</time>
      </trkpt>
      <trkpt lat="45.49435" lon="6.62999">
        <ele>2398.6000976562</ele>
        <time>2016-03-07T12:29:46.000Z</time>
      </trkpt>
      <trkpt lat="45.49436" lon="6.62992">
        <ele>2397.3999023438</ele>
        <time>2016-03-07T12:29:47.000Z</time>
      </trkpt>
      <trkpt lat="45.49438" lon="6.62984">
        <ele>2396</ele>
        <time>2016-03-07T12:29:48.000Z</time>
      </trkpt>
      <trkpt lat="45.4944" lon="6.62975">
        <ele>2394.8000488281</ele>
        <time>2016-03-07T12:29:49.000Z</time>
      </trkpt>
      <trkpt lat="45.49442" lon="6.62967">
        <ele>2393.1999511719</ele>
        <time>2016-03-07T12:29:50.000Z</time>
      </trkpt>
      <trkpt lat="45.49443" lon="6.62959">
        <ele>2391.1999511719</ele>
        <time>2016-03-07T12:29:51.000Z</time>
      </trkpt>
      <trkpt lat="45.49445" lon="6.6295">
        <ele>2389</ele>
        <time>2016-03-07T12:29:52.000Z</time>
      </trkpt>
      <trkpt lat="45.49446" lon="6.62942">
        <ele>2386.8000488281</ele>
        <time>2016-03-07T12:29:53.000Z</time>
      </trkpt>
      <trkpt lat="45.49449" lon="6.62936">
        <ele>2384.6000976562</ele>
        <time>2016-03-07T12:29:54.000Z</time>
      </trkpt>
      <trkpt lat="45.49451" lon="6.62928">
        <ele>2382.3999023438</ele>
        <time>2016-03-07T12:29:55.000Z</time>
      </trkpt>
      <trkpt lat="45.49453" lon="6.6292">
        <ele>2380</ele>
        <time>2016-03-07T12:29:56.000Z</time>
      </trkpt>
      <trkpt lat="45.49455" lon="6.62912">
        <ele>2377.3999023438</ele>
        <time>2016-03-07T12:29:57.000Z</time>
      </trkpt>
      <trkpt lat="45.49458" lon="6.62902">
        <ele>2375</ele>
        <time>2016-03-07T12:29:58.000Z</time>
      </trkpt>
      <trkpt lat="45.49462" lon="6.62891">
        <ele>2372.6000976562</ele>
        <time>2016-03-07T12:29:59.000Z</time>
      </trkpt>
      <trkpt lat="45.49466" lon="6.6288">
        <ele>2370.3999023438</ele>
        <time>2016-03-07T12:30:00.000Z</time>
      </trkpt>
      <trkpt lat="45.49469" lon="6.6287">
        <ele>2368</ele>
        <time>2016-03-07T12:30:01.000Z</time>
      </trkpt>
      <trkpt lat="45.49472" lon="6.6286">
        <ele>2365.6000976562</ele>
        <time>2016-03-07T12:30:02.000Z</time>
      </trkpt>
      <trkpt lat="45.49475" lon="6.62851">
        <ele>2363</ele>
        <time>2016-03-07T12:30:03.000Z</time>
      </trkpt>
      <trkpt lat="45.49477" lon="6.62842">
        <ele>2360.6000976562</ele>
        <time>2016-03-07T12:30:04.000Z</time>
      </trkpt>
      <trkpt lat="45.49479" lon="6.62832">
        <ele>2358.1999511719</ele>
        <time>2016-03-07T12:30:05.000Z</time>
      </trkpt>
      <trkpt lat="45.49481" lon="6.62823">
        <ele>2356.3999023438</ele>
        <time>2016-03-07T12:30:06.000Z</time>
      </trkpt>
      <trkpt lat="45.49482" lon="6.62813">
        <ele>2354.8000488281</ele>
        <time>2016-03-07T12:30:07.000Z</time>
      </trkpt>
      <trkpt lat="45.49481" lon="6.62803">
        <ele>2351.8000488281</ele>
        <time>2016-03-07T12:30:08.000Z</time>
      </trkpt>
      <trkpt lat="45.49479" lon="6.62793">
        <ele>2350.3999023438</ele>
        <time>2016-03-07T12:30:09.000Z</time>
      </trkpt>
      <trkpt lat="45.49476" lon="6.62784">
        <ele>2349</ele>
        <time>2016-03-07T12:30:10.000Z</time>
      </trkpt>
      <trkpt lat="45.49473" lon="6.62777">
        <ele>2347.8000488281</ele>
        <time>2016-03-07T12:30:11.000Z</time>
      </trkpt>
      <trkpt lat="45.49471" lon="6.62772">
        <ele>2346.6000976562</ele>
        <time>2016-03-07T12:30:12.000Z</time>
      </trkpt>
      <trkpt lat="45.4947" lon="6.62769">
        <ele>2345.8000488281</ele>
        <time>2016-03-07T12:30:13.000Z</time>
      </trkpt>
      <trkpt lat="45.49469" lon="6.62767">
        <ele>2345.1999511719</ele>
        <time>2016-03-07T12:30:14.000Z</time>
      </trkpt>
      <trkpt lat="45.49468" lon="6.62767">
        <ele>2344.6000976562</ele>
        <time>2016-03-07T12:30:17.000Z</time>
      </trkpt>
      <trkpt lat="45.49466" lon="6.62763">
        <ele>2344.1999511719</ele>
        <time>2016-03-07T12:30:23.000Z</time>
      </trkpt>
      <trkpt lat="45.49466" lon="6.62763">
        <ele>2344.1999511719</ele>
        <time>2016-03-07T12:30:24.000Z</time>
      </trkpt>
      <trkpt lat="45.49463" lon="6.62756">
        <ele>2343.8000488281</ele>
        <time>2016-03-07T12:30:28.000Z</time>
      </trkpt>
      <trkpt lat="45.49464" lon="6.62737">
        <ele>2342.3999023438</ele>
        <time>2016-03-07T12:30:32.000Z</time>
      </trkpt>
      <trkpt lat="45.49465" lon="6.62733">
        <ele>2341.1999511719</ele>
        <time>2016-03-07T12:30:35.000Z</time>
      </trkpt>
      <trkpt lat="45.49465" lon="6.62733">
        <ele>2340</ele>
        <time>2016-03-07T12:30:38.000Z</time>
      </trkpt>
      <trkpt lat="45.49466" lon="6.62729">
        <ele>2339.6000976562</ele>
        <time>2016-03-07T12:30:43.000Z</time>
      </trkpt>
      <trkpt lat="45.49468" lon="6.62723">
        <ele>2339.6000976562</ele>
        <time>2016-03-07T12:30:44.000Z</time>
      </trkpt>
      <trkpt lat="45.49468" lon="6.62707">
        <ele>2339.6000976562</ele>
        <time>2016-03-07T12:30:46.000Z</time>
      </trkpt>
      <trkpt lat="45.4947" lon="6.62692">
        <ele>2338.3999023438</ele>
        <time>2016-03-07T12:30:48.000Z</time>
      </trkpt>
      <trkpt lat="45.49471" lon="6.62686">
        <ele>2337.1999511719</ele>
        <time>2016-03-07T12:30:49.000Z</time>
      </trkpt>
      <trkpt lat="45.49473" lon="6.6268">
        <ele>2336</ele>
        <time>2016-03-07T12:30:50.000Z</time>
      </trkpt>
      <trkpt lat="45.49474" lon="6.62673">
        <ele>2334.6000976562</ele>
        <time>2016-03-07T12:30:51.000Z</time>
      </trkpt>
      <trkpt lat="45.49476" lon="6.62665">
        <ele>2333.3999023438</ele>
        <time>2016-03-07T12:30:52.000Z</time>
      </trkpt>
      <trkpt lat="45.49479" lon="6.62656">
        <ele>2332.3999023438</ele>
        <time>2016-03-07T12:30:53.000Z</time>
      </trkpt>
      <trkpt lat="45.49481" lon="6.62648">
        <ele>2331.1999511719</ele>
        <time>2016-03-07T12:30:54.000Z</time>
      </trkpt>
      <trkpt lat="45.49484" lon="6.62639">
        <ele>2330.1999511719</ele>
        <time>2016-03-07T12:30:55.000Z</time>
      </trkpt>
      <trkpt lat="45.49487" lon="6.6263">
        <ele>2327.3999023438</ele>
        <time>2016-03-07T12:30:56.000Z</time>
      </trkpt>
      <trkpt lat="45.4949" lon="6.62619">
        <ele>2325.6000976562</ele>
        <time>2016-03-07T12:30:57.000Z</time>
      </trkpt>
      <trkpt lat="45.49491" lon="6.62608">
        <ele>2323.6000976562</ele>
        <time>2016-03-07T12:30:58.000Z</time>
      </trkpt>
      <trkpt lat="45.49492" lon="6.62598">
        <ele>2321.6000976562</ele>
        <time>2016-03-07T12:30:59.000Z</time>
      </trkpt>
      <trkpt lat="45.49492" lon="6.62589">
        <ele>2319.3999023438</ele>
        <time>2016-03-07T12:31:00.000Z</time>
      </trkpt>
      <trkpt lat="45.49493" lon="6.62581">
        <ele>2317</ele>
        <time>2016-03-07T12:31:01.000Z</time>
      </trkpt>
      <trkpt lat="45.49493" lon="6.62573">
        <ele>2314.8000488281</ele>
        <time>2016-03-07T12:31:02.000Z</time>
      </trkpt>
      <trkpt lat="45.49494" lon="6.62565">
        <ele>2312.8000488281</ele>
        <time>2016-03-07T12:31:03.000Z</time>
      </trkpt>
      <trkpt lat="45.49494" lon="6.62557">
        <ele>2311.3999023438</ele>
        <time>2016-03-07T12:31:04.000Z</time>
      </trkpt>
      <trkpt lat="45.49495" lon="6.62549">
        <ele>2310.1999511719</ele>
        <time>2016-03-07T12:31:05.000Z</time>
      </trkpt>
      <trkpt lat="45.49496" lon="6.62541">
        <ele>2309.1999511719</ele>
        <time>2016-03-07T12:31:06.000Z</time>
      </trkpt>
      <trkpt lat="45.49499" lon="6.6253">
        <ele>2308.1999511719</ele>
        <time>2016-03-07T12:31:07.000Z</time>
      </trkpt>
      <trkpt lat="45.49502" lon="6.62518">
        <ele>2307</ele>
        <time>2016-03-07T12:31:08.000Z</time>
      </trkpt>
      <trkpt lat="45.49504" lon="6.62508">
        <ele>2306</ele>
        <time>2016-03-07T12:31:09.000Z</time>
      </trkpt>
      <trkpt lat="45.49506" lon="6.62499">
        <ele>2304.3999023438</ele>
        <time>2016-03-07T12:31:10.000Z</time>
      </trkpt>
      <trkpt lat="45.49508" lon="6.62492">
        <ele>2302.3999023438</ele>
        <time>2016-03-07T12:31:11.000Z</time>
      </trkpt>
      <trkpt lat="45.4951" lon="6.62486">
        <ele>2299.8000488281</ele>
        <time>2016-03-07T12:31:12.000Z</time>
      </trkpt>
      <trkpt lat="45.49512" lon="6.62482">
        <ele>2297.6000976562</ele>
        <time>2016-03-07T12:31:13.000Z</time>
      </trkpt>
      <trkpt lat="45.49514" lon="6.62479">
        <ele>2295.8000488281</ele>
        <time>2016-03-07T12:31:14.000Z</time>
      </trkpt>
      <trkpt lat="45.49515" lon="6.62477">
        <ele>2294.6000976562</ele>
        <time>2016-03-07T12:31:15.000Z</time>
      </trkpt>
      <trkpt lat="45.49517" lon="6.62475">
        <ele>2293.3999023438</ele>
        <time>2016-03-07T12:31:17.000Z</time>
      </trkpt>
      <trkpt lat="45.49522" lon="6.62469">
        <ele>2293.1999511719</ele>
        <time>2016-03-07T12:31:21.000Z</time>
      </trkpt>
      <trkpt lat="45.49528" lon="6.62455">
        <ele>2293</ele>
        <time>2016-03-07T12:31:24.000Z</time>
      </trkpt>
      <trkpt lat="45.49529" lon="6.62447">
        <ele>2292.8000488281</ele>
        <time>2016-03-07T12:31:25.000Z</time>
      </trkpt>
      <trkpt lat="45.49537" lon="6.62422">
        <ele>2291.6000976562</ele>
        <time>2016-03-07T12:31:27.000Z</time>
      </trkpt>
      <trkpt lat="45.49542" lon="6.62408">
        <ele>2290.3999023438</ele>
        <time>2016-03-07T12:31:28.000Z</time>
      </trkpt>
      <trkpt lat="45.49546" lon="6.62395">
        <ele>2289</ele>
        <time>2016-03-07T12:31:29.000Z</time>
      </trkpt>
      <trkpt lat="45.49547" lon="6.62381">
        <ele>2287.1999511719</ele>
        <time>2016-03-07T12:31:30.000Z</time>
      </trkpt>
      <trkpt lat="45.49547" lon="6.6237">
        <ele>2285.1999511719</ele>
        <time>2016-03-07T12:31:31.000Z</time>
      </trkpt>
      <trkpt lat="45.49548" lon="6.6236">
        <ele>2283.1999511719</ele>
        <time>2016-03-07T12:31:32.000Z</time>
      </trkpt>
      <trkpt lat="45.4955" lon="6.6235">
        <ele>2281.3999023438</ele>
        <time>2016-03-07T12:31:33.000Z</time>
      </trkpt>
      <trkpt lat="45.49552" lon="6.62342">
        <ele>2280.1999511719</ele>
        <time>2016-03-07T12:31:34.000Z</time>
      </trkpt>
      <trkpt lat="45.49556" lon="6.62327">
        <ele>2279</ele>
        <time>2016-03-07T12:31:36.000Z</time>
      </trkpt>
      <trkpt lat="45.4956" lon="6.62312">
        <ele>2277.8000488281</ele>
        <time>2016-03-07T12:31:38.000Z</time>
      </trkpt>
      <trkpt lat="45.49562" lon="6.62303">
        <ele>2276.8000488281</ele>
        <time>2016-03-07T12:31:40.000Z</time>
      </trkpt>
      <trkpt lat="45.49564" lon="6.623">
        <ele>2275.3999023438</ele>
        <time>2016-03-07T12:31:43.000Z</time>
      </trkpt>
      <trkpt lat="45.49566" lon="6.62292">
        <ele>2275.8000488281</ele>
        <time>2016-03-07T12:31:49.000Z</time>
      </trkpt>
      <trkpt lat="45.49566" lon="6.62292">
        <ele>2275</ele>
        <time>2016-03-07T12:31:58.000Z</time>
      </trkpt>
      <trkpt lat="45.49566" lon="6.62292">
        <ele>2274.3999023438</ele>
        <time>2016-03-07T12:32:05.000Z</time>
      </trkpt>
      <trkpt lat="45.49566" lon="6.62292">
        <ele>2275.1999511719</ele>
        <time>2016-03-07T12:32:10.000Z</time>
      </trkpt>
      <trkpt lat="45.49566" lon="6.62292">
        <ele>2274.8000488281</ele>
        <time>2016-03-07T12:32:26.000Z</time>
      </trkpt>
      <trkpt lat="45.49566" lon="6.62292">
        <ele>2274.6000976562</ele>
        <time>2016-03-07T12:32:33.000Z</time>
      </trkpt>
      <trkpt lat="45.49566" lon="6.62292">
        <ele>2274.8000488281</ele>
        <time>2016-03-07T12:32:42.000Z</time>
      </trkpt>
      <trkpt lat="45.49566" lon="6.62292">
        <ele>2274.6000976562</ele>
        <time>2016-03-07T12:32:44.000Z</time>
      </trkpt>
      <trkpt lat="45.49566" lon="6.62292">
        <ele>2274.6000976562</ele>
        <time>2016-03-07T12:33:02.000Z</time>
      </trkpt>
      <trkpt lat="45.49566" lon="6.62292">
        <ele>2274.8000488281</ele>
        <time>2016-03-07T12:33:18.000Z</time>
      </trkpt>
      <trkpt lat="45.49566" lon="6.62292">
        <ele>2274.8000488281</ele>
        <time>2016-03-07T12:33:34.000Z</time>
      </trkpt>
      <trkpt lat="45.49565" lon="6.62292">
        <ele>2274.8000488281</ele>
        <time>2016-03-07T12:33:52.000Z</time>
      </trkpt>
      <trkpt lat="45.49565" lon="6.62292">
        <ele>2274.6000976562</ele>
        <time>2016-03-07T12:34:06.000Z</time>
      </trkpt>
      <trkpt lat="45.49565" lon="6.62292">
        <ele>2274.6000976562</ele>
        <time>2016-03-07T12:34:20.000Z</time>
      </trkpt>
      <trkpt lat="45.49566" lon="6.62292">
        <ele>2274.1999511719</ele>
        <time>2016-03-07T12:34:32.000Z</time>
      </trkpt>
      <trkpt lat="45.49566" lon="6.62292">
        <ele>2275</ele>
        <time>2016-03-07T12:34:48.000Z</time>
      </trkpt>
      <trkpt lat="45.49566" lon="6.62292">
        <ele>2274.8000488281</ele>
        <time>2016-03-07T12:35:05.000Z</time>
      </trkpt>
      <trkpt lat="45.49566" lon="6.62292">
        <ele>2274.8000488281</ele>
        <time>2016-03-07T12:35:17.000Z</time>
      </trkpt>
      <trkpt lat="45.49566" lon="6.62292">
        <ele>2274.8000488281</ele>
        <time>2016-03-07T12:35:33.000Z</time>
      </trkpt>
      <trkpt lat="45.49566" lon="6.62292">
        <ele>2274.6000976562</ele>
        <time>2016-03-07T12:35:43.000Z</time>
      </trkpt>
      <trkpt lat="45.4957" lon="6.62292">
        <ele>2274.8000488281</ele>
        <time>2016-03-07T12:35:51.000Z</time>
      </trkpt>
      <trkpt lat="45.49573" lon="6.62292">
        <ele>2274.6000976562</ele>
        <time>2016-03-07T12:35:53.000Z</time>
      </trkpt>
      <trkpt lat="45.49576" lon="6.62294">
        <ele>2274.1999511719</ele>
        <time>2016-03-07T12:35:56.000Z</time>
      </trkpt>
      <trkpt lat="45.49586" lon="6.62297">
        <ele>2274.3999023438</ele>
        <time>2016-03-07T12:36:03.000Z</time>
      </trkpt>
      <trkpt lat="45.49591" lon="6.62301">
        <ele>2275.3999023438</ele>
        <time>2016-03-07T12:36:08.000Z</time>
      </trkpt>
      <trkpt lat="45.49591" lon="6.62301">
        <ele>2275.6000976562</ele>
        <time>2016-03-07T12:36:09.000Z</time>
      </trkpt>
      <trkpt lat="45.49591" lon="6.62301">
        <ele>2276.6000976562</ele>
        <time>2016-03-07T12:36:14.000Z</time>
      </trkpt>
      <trkpt lat="45.49592" lon="6.62303">
        <ele>2276.8000488281</ele>
        <time>2016-03-07T12:36:18.000Z</time>
      </trkpt>
      <trkpt lat="45.49596" lon="6.62309">
        <ele>2276.8000488281</ele>
        <time>2016-03-07T12:36:22.000Z</time>
      </trkpt>
      <trkpt lat="45.49597" lon="6.62312">
        <ele>2277.8000488281</ele>
        <time>2016-03-07T12:36:25.000Z</time>
      </trkpt>
      <trkpt lat="45.49597" lon="6.62312">
        <ele>2278</ele>
        <time>2016-03-07T12:36:26.000Z</time>
      </trkpt>
      <trkpt lat="45.496" lon="6.62314">
        <ele>2279</ele>
        <time>2016-03-07T12:36:30.000Z</time>
      </trkpt>
      <trkpt lat="45.49601" lon="6.62315">
        <ele>2279.3999023438</ele>
        <time>2016-03-07T12:36:33.000Z</time>
      </trkpt>
      <trkpt lat="45.49603" lon="6.62316">
        <ele>2280</ele>
        <time>2016-03-07T12:36:35.000Z</time>
      </trkpt>
      <trkpt lat="45.49605" lon="6.62317">
        <ele>2281.1999511719</ele>
        <time>2016-03-07T12:36:40.000Z</time>
      </trkpt>
      <trkpt lat="45.49605" lon="6.62316">
        <ele>2281.3999023438</ele>
        <time>2016-03-07T12:36:41.000Z</time>
      </trkpt>
      <trkpt lat="45.49605" lon="6.62314">
        <ele>2282.1999511719</ele>
        <time>2016-03-07T12:36:47.000Z</time>
      </trkpt>
      <trkpt lat="45.49605" lon="6.62314">
        <ele>2282.1999511719</ele>
        <time>2016-03-07T12:36:48.000Z</time>
      </trkpt>
      <trkpt lat="45.49607" lon="6.62313">
        <ele>2282.6000976562</ele>
        <time>2016-03-07T12:36:56.000Z</time>
      </trkpt>
      <trkpt lat="45.4961" lon="6.62313">
        <ele>2283.3999023438</ele>
        <time>2016-03-07T12:37:00.000Z</time>
      </trkpt>
      <trkpt lat="45.49611" lon="6.62314">
        <ele>2283.6000976562</ele>
        <time>2016-03-07T12:37:02.000Z</time>
      </trkpt>
      <trkpt lat="45.49611" lon="6.62312">
        <ele>2284.3999023438</ele>
        <time>2016-03-07T12:37:07.000Z</time>
      </trkpt>
      <trkpt lat="45.49612" lon="6.62312">
        <ele>2284.8000488281</ele>
        <time>2016-03-07T12:37:09.000Z</time>
      </trkpt>
      <trkpt lat="45.49614" lon="6.62311">
        <ele>2285.3999023438</ele>
        <time>2016-03-07T12:37:13.000Z</time>
      </trkpt>
      <trkpt lat="45.49616" lon="6.62311">
        <ele>2286</ele>
        <time>2016-03-07T12:37:16.000Z</time>
      </trkpt>
      <trkpt lat="45.49618" lon="6.6231">
        <ele>2286.3999023438</ele>
        <time>2016-03-07T12:37:18.000Z</time>
      </trkpt>
      <trkpt lat="45.49623" lon="6.62309">
        <ele>2287.6000976562</ele>
        <time>2016-03-07T12:37:23.000Z</time>
      </trkpt>
      <trkpt lat="45.49624" lon="6.62309">
        <ele>2287.8000488281</ele>
        <time>2016-03-07T12:37:24.000Z</time>
      </trkpt>
      <trkpt lat="45.49626" lon="6.62307">
        <ele>2288.6000976562</ele>
        <time>2016-03-07T12:37:29.000Z</time>
      </trkpt>
      <trkpt lat="45.49628" lon="6.62307">
        <ele>2289</ele>
        <time>2016-03-07T12:37:31.000Z</time>
      </trkpt>
      <trkpt lat="45.49631" lon="6.62309">
        <ele>2289.6000976562</ele>
        <time>2016-03-07T12:37:35.000Z</time>
      </trkpt>
      <trkpt lat="45.49634" lon="6.6231">
        <ele>2290.3999023438</ele>
        <time>2016-03-07T12:37:39.000Z</time>
      </trkpt>
      <trkpt lat="45.49636" lon="6.62311">
        <ele>2290.8000488281</ele>
        <time>2016-03-07T12:37:41.000Z</time>
      </trkpt>
      <trkpt lat="45.49641" lon="6.62308">
        <ele>2291.8000488281</ele>
        <time>2016-03-07T12:37:47.000Z</time>
      </trkpt>
      <trkpt lat="45.49644" lon="6.62308">
        <ele>2292</ele>
        <time>2016-03-07T12:37:48.000Z</time>
      </trkpt>
      <trkpt lat="45.49648" lon="6.62309">
        <ele>2293</ele>
        <time>2016-03-07T12:37:52.000Z</time>
      </trkpt>
      <trkpt lat="45.49648" lon="6.62308">
        <ele>2293.3999023438</ele>
        <time>2016-03-07T12:37:55.000Z</time>
      </trkpt>
      <trkpt lat="45.4965" lon="6.62311">
        <ele>2294</ele>
        <time>2016-03-07T12:37:59.000Z</time>
      </trkpt>
      <trkpt lat="45.49653" lon="6.62312">
        <ele>2294.6000976562</ele>
        <time>2016-03-07T12:38:03.000Z</time>
      </trkpt>
      <trkpt lat="45.49654" lon="6.62311">
        <ele>2295.1999511719</ele>
        <time>2016-03-07T12:38:07.000Z</time>
      </trkpt>
      <trkpt lat="45.49656" lon="6.62313">
        <ele>2295.6000976562</ele>
        <time>2016-03-07T12:38:10.000Z</time>
      </trkpt>
      <trkpt lat="45.49658" lon="6.62315">
        <ele>2296.1999511719</ele>
        <time>2016-03-07T12:38:15.000Z</time>
      </trkpt>
      <trkpt lat="45.49658" lon="6.62314">
        <ele>2296.3999023438</ele>
        <time>2016-03-07T12:38:17.000Z</time>
      </trkpt>
      <trkpt lat="45.49657" lon="6.62313">
        <ele>2297.1999511719</ele>
        <time>2016-03-07T12:38:21.000Z</time>
      </trkpt>
      <trkpt lat="45.49657" lon="6.62313">
        <ele>2297.8000488281</ele>
        <time>2016-03-07T12:38:23.000Z</time>
      </trkpt>
      <trkpt lat="45.49658" lon="6.62315">
        <ele>2298.3999023438</ele>
        <time>2016-03-07T12:38:25.000Z</time>
      </trkpt>
      <trkpt lat="45.4966" lon="6.62315">
        <ele>2299.3999023438</ele>
        <time>2016-03-07T12:38:29.000Z</time>
      </trkpt>
      <trkpt lat="45.4966" lon="6.62315">
        <ele>2299.6000976562</ele>
        <time>2016-03-07T12:38:30.000Z</time>
      </trkpt>
      <trkpt lat="45.49659" lon="6.62314">
        <ele>2300.1999511719</ele>
        <time>2016-03-07T12:38:42.000Z</time>
      </trkpt>
      <trkpt lat="45.49659" lon="6.62314">
        <ele>2300.6000976562</ele>
        <time>2016-03-07T12:38:45.000Z</time>
      </trkpt>
      <trkpt lat="45.49663" lon="6.62316">
        <ele>2301.1999511719</ele>
        <time>2016-03-07T12:38:49.000Z</time>
      </trkpt>
      <trkpt lat="45.49666" lon="6.62318">
        <ele>2301.6000976562</ele>
        <time>2016-03-07T12:38:51.000Z</time>
      </trkpt>
      <trkpt lat="45.4967" lon="6.62323">
        <ele>2302.6000976562</ele>
        <time>2016-03-07T12:38:56.000Z</time>
      </trkpt>
      <trkpt lat="45.4967" lon="6.62323">
        <ele>2302.8000488281</ele>
        <time>2016-03-07T12:38:57.000Z</time>
      </trkpt>
      <trkpt lat="45.49673" lon="6.62325">
        <ele>2303.8000488281</ele>
        <time>2016-03-07T12:39:00.000Z</time>
      </trkpt>
      <trkpt lat="45.49677" lon="6.62326">
        <ele>2304.8000488281</ele>
        <time>2016-03-07T12:39:05.000Z</time>
      </trkpt>
      <trkpt lat="45.49677" lon="6.62326">
        <ele>2305</ele>
        <time>2016-03-07T12:39:06.000Z</time>
      </trkpt>
      <trkpt lat="45.49679" lon="6.62323">
        <ele>2306</ele>
        <time>2016-03-07T12:39:11.000Z</time>
      </trkpt>
      <trkpt lat="45.49679" lon="6.62323">
        <ele>2306</ele>
        <time>2016-03-07T12:39:12.000Z</time>
      </trkpt>
      <trkpt lat="45.49685" lon="6.62325">
        <ele>2307.1999511719</ele>
        <time>2016-03-07T12:39:17.000Z</time>
      </trkpt>
      <trkpt lat="45.49687" lon="6.62325">
        <ele>2307.6000976562</ele>
        <time>2016-03-07T12:39:19.000Z</time>
      </trkpt>
      <trkpt lat="45.49691" lon="6.62324">
        <ele>2308.3999023438</ele>
        <time>2016-03-07T12:39:24.000Z</time>
      </trkpt>
      <trkpt lat="45.49691" lon="6.62323">
        <ele>2308.6000976562</ele>
        <time>2016-03-07T12:39:26.000Z</time>
      </trkpt>
      <trkpt lat="45.49696" lon="6.62323">
        <ele>2309.6000976562</ele>
        <time>2016-03-07T12:39:32.000Z</time>
      </trkpt>
      <trkpt lat="45.497" lon="6.62323">
        <ele>2310.6000976562</ele>
        <time>2016-03-07T12:39:39.000Z</time>
      </trkpt>
      <trkpt lat="45.49702" lon="6.62322">
        <ele>2311.8000488281</ele>
        <time>2016-03-07T12:39:45.000Z</time>
      </trkpt>
      <trkpt lat="45.49703" lon="6.62321">
        <ele>2312.8000488281</ele>
        <time>2016-03-07T12:39:48.000Z</time>
      </trkpt>
      <trkpt lat="45.49704" lon="6.6232">
        <ele>2313</ele>
        <time>2016-03-07T12:39:49.000Z</time>
      </trkpt>
      <trkpt lat="45.49704" lon="6.62318">
        <ele>2313.8000488281</ele>
        <time>2016-03-07T12:39:53.000Z</time>
      </trkpt>
      <trkpt lat="45.49702" lon="6.62316">
        <ele>2314.1999511719</ele>
        <time>2016-03-07T12:39:55.000Z</time>
      </trkpt>
      <trkpt lat="45.49701" lon="6.62316">
        <ele>2314.3999023438</ele>
        <time>2016-03-07T12:39:57.000Z</time>
      </trkpt>
      <trkpt lat="45.49701" lon="6.62316">
        <ele>2314.8000488281</ele>
        <time>2016-03-07T12:40:14.000Z</time>
      </trkpt>
      <trkpt lat="45.497" lon="6.62305">
        <ele>2315</ele>
        <time>2016-03-07T12:40:19.000Z</time>
      </trkpt>
      <trkpt lat="45.49699" lon="6.62302">
        <ele>2315.1999511719</ele>
        <time>2016-03-07T12:40:20.000Z</time>
      </trkpt>
      <trkpt lat="45.49698" lon="6.62298">
        <ele>2315.3999023438</ele>
        <time>2016-03-07T12:40:21.000Z</time>
      </trkpt>
      <trkpt lat="45.49697" lon="6.62295">
        <ele>2316</ele>
        <time>2016-03-07T12:40:23.000Z</time>
      </trkpt>
      <trkpt lat="45.49697" lon="6.62295">
        <ele>2316.1999511719</ele>
        <time>2016-03-07T12:40:24.000Z</time>
      </trkpt>
      <trkpt lat="45.49697" lon="6.6229">
        <ele>2317</ele>
        <time>2016-03-07T12:40:28.000Z</time>
      </trkpt>
      <trkpt lat="45.49697" lon="6.6229">
        <ele>2317.1999511719</ele>
        <time>2016-03-07T12:40:29.000Z</time>
      </trkpt>
      <trkpt lat="45.49698" lon="6.62289">
        <ele>2317.8000488281</ele>
        <time>2016-03-07T12:40:32.000Z</time>
      </trkpt>
      <trkpt lat="45.49699" lon="6.6229">
        <ele>2318.3999023438</ele>
        <time>2016-03-07T12:40:34.000Z</time>
      </trkpt>
      <trkpt lat="45.49703" lon="6.6229">
        <ele>2319</ele>
        <time>2016-03-07T12:40:38.000Z</time>
      </trkpt>
      <trkpt lat="45.49704" lon="6.62289">
        <ele>2319.6000976562</ele>
        <time>2016-03-07T12:40:40.000Z</time>
      </trkpt>
      <trkpt lat="45.49706" lon="6.6229">
        <ele>2320.1999511719</ele>
        <time>2016-03-07T12:40:44.000Z</time>
      </trkpt>
      <trkpt lat="45.4971" lon="6.62291">
        <ele>2320.6000976562</ele>
        <time>2016-03-07T12:40:47.000Z</time>
      </trkpt>
      <trkpt lat="45.49713" lon="6.62291">
        <ele>2321.1999511719</ele>
        <time>2016-03-07T12:40:51.000Z</time>
      </trkpt>
      <trkpt lat="45.49715" lon="6.62293">
        <ele>2321.8000488281</ele>
        <time>2016-03-07T12:40:54.000Z</time>
      </trkpt>
      <trkpt lat="45.49717" lon="6.62295">
        <ele>2323</ele>
        <time>2016-03-07T12:40:58.000Z</time>
      </trkpt>
      <trkpt lat="45.49719" lon="6.62297">
        <ele>2323.6000976562</ele>
        <time>2016-03-07T12:41:00.000Z</time>
      </trkpt>
      <trkpt lat="45.49722" lon="6.62299">
        <ele>2324.1999511719</ele>
        <time>2016-03-07T12:41:02.000Z</time>
      </trkpt>
      <trkpt lat="45.49728" lon="6.62304">
        <ele>2325.1999511719</ele>
        <time>2016-03-07T12:41:08.000Z</time>
      </trkpt>
      <trkpt lat="45.49729" lon="6.62304">
        <ele>2325.3999023438</ele>
        <time>2016-03-07T12:41:09.000Z</time>
      </trkpt>
      <trkpt lat="45.49736" lon="6.62305">
        <ele>2326.3999023438</ele>
        <time>2016-03-07T12:41:16.000Z</time>
      </trkpt>
      <trkpt lat="45.49736" lon="6.62305">
        <ele>2326.6000976562</ele>
        <time>2016-03-07T12:41:17.000Z</time>
      </trkpt>
      <trkpt lat="45.49738" lon="6.62307">
        <ele>2327.6000976562</ele>
        <time>2016-03-07T12:41:23.000Z</time>
      </trkpt>
      <trkpt lat="45.4974" lon="6.62309">
        <ele>2327.8000488281</ele>
        <time>2016-03-07T12:41:26.000Z</time>
      </trkpt>
      <trkpt lat="45.49741" lon="6.62309">
        <ele>2328.6000976562</ele>
        <time>2016-03-07T12:41:30.000Z</time>
      </trkpt>
      <trkpt lat="45.49744" lon="6.62312">
        <ele>2329.3999023438</ele>
        <time>2016-03-07T12:41:36.000Z</time>
      </trkpt>
      <trkpt lat="45.49746" lon="6.62312">
        <ele>2329.6000976562</ele>
        <time>2016-03-07T12:41:38.000Z</time>
      </trkpt>
      <trkpt lat="45.49748" lon="6.62316">
        <ele>2330.3999023438</ele>
        <time>2016-03-07T12:41:44.000Z</time>
      </trkpt>
      <trkpt lat="45.49749" lon="6.62318">
        <ele>2330.6000976562</ele>
        <time>2016-03-07T12:41:47.000Z</time>
      </trkpt>
      <trkpt lat="45.49751" lon="6.62319">
        <ele>2331.3999023438</ele>
        <time>2016-03-07T12:41:51.000Z</time>
      </trkpt>
      <trkpt lat="45.49752" lon="6.6232">
        <ele>2331.6000976562</ele>
        <time>2016-03-07T12:41:53.000Z</time>
      </trkpt>
      <trkpt lat="45.49753" lon="6.62321">
        <ele>2332.3999023438</ele>
        <time>2016-03-07T12:42:01.000Z</time>
      </trkpt>
      <trkpt lat="45.49755" lon="6.62323">
        <ele>2332.3999023438</ele>
        <time>2016-03-07T12:42:09.000Z</time>
      </trkpt>
      <trkpt lat="45.49757" lon="6.62325">
        <ele>2332.8000488281</ele>
        <time>2016-03-07T12:42:12.000Z</time>
      </trkpt>
      <trkpt lat="45.4976" lon="6.62328">
        <ele>2333.1999511719</ele>
        <time>2016-03-07T12:42:16.000Z</time>
      </trkpt>
      <trkpt lat="45.49762" lon="6.6233">
        <ele>2333.8000488281</ele>
        <time>2016-03-07T12:42:21.000Z</time>
      </trkpt>
      <trkpt lat="45.49763" lon="6.62331">
        <ele>2333.8000488281</ele>
        <time>2016-03-07T12:42:22.000Z</time>
      </trkpt>
      <trkpt lat="45.49767" lon="6.62334">
        <ele>2334.6000976562</ele>
        <time>2016-03-07T12:42:29.000Z</time>
      </trkpt>
      <trkpt lat="45.49769" lon="6.62337">
        <ele>2335</ele>
        <time>2016-03-07T12:42:32.000Z</time>
      </trkpt>
      <trkpt lat="45.49773" lon="6.62342">
        <ele>2335.6000976562</ele>
        <time>2016-03-07T12:42:37.000Z</time>
      </trkpt>
      <trkpt lat="45.49776" lon="6.62345">
        <ele>2336</ele>
        <time>2016-03-07T12:42:42.000Z</time>
      </trkpt>
      <trkpt lat="45.49778" lon="6.62347">
        <ele>2336.1999511719</ele>
        <time>2016-03-07T12:42:44.000Z</time>
      </trkpt>
      <trkpt lat="45.49783" lon="6.62353">
        <ele>2336.8000488281</ele>
        <time>2016-03-07T12:42:51.000Z</time>
      </trkpt>
      <trkpt lat="45.49784" lon="6.62355">
        <ele>2337</ele>
        <time>2016-03-07T12:42:53.000Z</time>
      </trkpt>
      <trkpt lat="45.49786" lon="6.6236">
        <ele>2338</ele>
        <time>2016-03-07T12:42:59.000Z</time>
      </trkpt>
      <trkpt lat="45.49788" lon="6.62361">
        <ele>2338.1999511719</ele>
        <time>2016-03-07T12:43:01.000Z</time>
      </trkpt>
      <trkpt lat="45.49791" lon="6.62364">
        <ele>2338.8000488281</ele>
        <time>2016-03-07T12:43:05.000Z</time>
      </trkpt>
      <trkpt lat="45.49792" lon="6.62367">
        <ele>2339.1999511719</ele>
        <time>2016-03-07T12:43:08.000Z</time>
      </trkpt>
      <trkpt lat="45.49797" lon="6.62372">
        <ele>2339.8000488281</ele>
        <time>2016-03-07T12:43:14.000Z</time>
      </trkpt>
      <trkpt lat="45.49802" lon="6.62377">
        <ele>2340.1999511719</ele>
        <time>2016-03-07T12:43:19.000Z</time>
      </trkpt>
      <trkpt lat="45.49802" lon="6.62377">
        <ele>2340.3999023438</ele>
        <time>2016-03-07T12:43:20.000Z</time>
      </trkpt>
      <trkpt lat="45.49804" lon="6.62381">
        <ele>2341.3999023438</ele>
        <time>2016-03-07T12:43:25.000Z</time>
      </trkpt>
      <trkpt lat="45.49805" lon="6.62381">
        <ele>2341.3999023438</ele>
        <time>2016-03-07T12:43:26.000Z</time>
      </trkpt>
      <trkpt lat="45.49808" lon="6.62384">
        <ele>2342.1999511719</ele>
        <time>2016-03-07T12:43:32.000Z</time>
      </trkpt>
      <trkpt lat="45.49808" lon="6.62384">
        <ele>2342.3999023438</ele>
        <time>2016-03-07T12:43:33.000Z</time>
      </trkpt>
      <trkpt lat="45.49812" lon="6.62388">
        <ele>2343</ele>
        <time>2016-03-07T12:43:38.000Z</time>
      </trkpt>
      <trkpt lat="45.49813" lon="6.62389">
        <ele>2343.6000976562</ele>
        <time>2016-03-07T12:43:41.000Z</time>
      </trkpt>
      <trkpt lat="45.49815" lon="6.62391">
        <ele>2344</ele>
        <time>2016-03-07T12:43:44.000Z</time>
      </trkpt>
      <trkpt lat="45.49817" lon="6.62393">
        <ele>2344.6000976562</ele>
        <time>2016-03-07T12:43:47.000Z</time>
      </trkpt>
      <trkpt lat="45.49818" lon="6.62394">
        <ele>2345.1999511719</ele>
        <time>2016-03-07T12:43:51.000Z</time>
      </trkpt>
      <trkpt lat="45.49819" lon="6.62395">
        <ele>2345.3999023438</ele>
        <time>2016-03-07T12:44:08.000Z</time>
      </trkpt>
      <trkpt lat="45.49823" lon="6.62398">
        <ele>2345.8000488281</ele>
        <time>2016-03-07T12:44:12.000Z</time>
      </trkpt>
      <trkpt lat="45.49825" lon="6.624">
        <ele>2346</ele>
        <time>2016-03-07T12:44:14.000Z</time>
      </trkpt>
      <trkpt lat="45.49828" lon="6.62403">
        <ele>2346.8000488281</ele>
        <time>2016-03-07T12:44:19.000Z</time>
      </trkpt>
      <trkpt lat="45.49828" lon="6.62403">
        <ele>2347</ele>
        <time>2016-03-07T12:44:20.000Z</time>
      </trkpt>
      <trkpt lat="45.49831" lon="6.62406">
        <ele>2348</ele>
        <time>2016-03-07T12:44:25.000Z</time>
      </trkpt>
      <trkpt lat="45.49831" lon="6.62406">
        <ele>2348</ele>
        <time>2016-03-07T12:44:26.000Z</time>
      </trkpt>
      <trkpt lat="45.49836" lon="6.62414">
        <ele>2349.1999511719</ele>
        <time>2016-03-07T12:44:33.000Z</time>
      </trkpt>
      <trkpt lat="45.49839" lon="6.62418">
        <ele>2350.1999511719</ele>
        <time>2016-03-07T12:44:40.000Z</time>
      </trkpt>
      <trkpt lat="45.4984" lon="6.62418">
        <ele>2350.1999511719</ele>
        <time>2016-03-07T12:44:41.000Z</time>
      </trkpt>
      <trkpt lat="45.49845" lon="6.62418">
        <ele>2350.8000488281</ele>
        <time>2016-03-07T12:44:45.000Z</time>
      </trkpt>
      <trkpt lat="45.49847" lon="6.62417">
        <ele>2351.1999511719</ele>
        <time>2016-03-07T12:44:47.000Z</time>
      </trkpt>
      <trkpt lat="45.49848" lon="6.62417">
        <ele>2351.3999023438</ele>
        <time>2016-03-07T12:44:48.000Z</time>
      </trkpt>
      <trkpt lat="45.49851" lon="6.62417">
        <ele>2352.3999023438</ele>
        <time>2016-03-07T12:44:54.000Z</time>
      </trkpt>
      <trkpt lat="45.49852" lon="6.62415">
        <ele>2353.8000488281</ele>
        <time>2016-03-07T12:44:59.000Z</time>
      </trkpt>
      <trkpt lat="45.49853" lon="6.62415">
        <ele>2354</ele>
        <time>2016-03-07T12:45:00.000Z</time>
      </trkpt>
      <trkpt lat="45.49856" lon="6.62414">
        <ele>2355</ele>
        <time>2016-03-07T12:45:04.000Z</time>
      </trkpt>
      <trkpt lat="45.49858" lon="6.62413">
        <ele>2355.3999023438</ele>
        <time>2016-03-07T12:45:06.000Z</time>
      </trkpt>
      <trkpt lat="45.49858" lon="6.62413">
        <ele>2355.6000976562</ele>
        <time>2016-03-07T12:45:07.000Z</time>
      </trkpt>
      <trkpt lat="45.49859" lon="6.62412">
        <ele>2356</ele>
        <time>2016-03-07T12:45:10.000Z</time>
      </trkpt>
      <trkpt lat="45.4986" lon="6.62412">
        <ele>2356.6000976562</ele>
        <time>2016-03-07T12:45:13.000Z</time>
      </trkpt>
      <trkpt lat="45.49861" lon="6.62411">
        <ele>2357.1999511719</ele>
        <time>2016-03-07T12:45:16.000Z</time>
      </trkpt>
      <trkpt lat="45.49861" lon="6.62411">
        <ele>2357.3999023438</ele>
        <time>2016-03-07T12:45:17.000Z</time>
      </trkpt>
      <trkpt lat="45.49864" lon="6.62409">
        <ele>2358.1999511719</ele>
        <time>2016-03-07T12:45:21.000Z</time>
      </trkpt>
      <trkpt lat="45.49864" lon="6.62409">
        <ele>2358.3999023438</ele>
        <time>2016-03-07T12:45:22.000Z</time>
      </trkpt>
      <trkpt lat="45.49866" lon="6.62408">
        <ele>2359.3999023438</ele>
        <time>2016-03-07T12:45:29.000Z</time>
      </trkpt>
      <trkpt lat="45.49867" lon="6.62406">
        <ele>2359.6000976562</ele>
        <time>2016-03-07T12:45:44.000Z</time>
      </trkpt>
      <trkpt lat="45.49868" lon="6.62404">
        <ele>2360.3999023438</ele>
        <time>2016-03-07T12:45:48.000Z</time>
      </trkpt>
      <trkpt lat="45.49869" lon="6.62403">
        <ele>2360.8000488281</ele>
        <time>2016-03-07T12:45:50.000Z</time>
      </trkpt>
      <trkpt lat="45.49871" lon="6.62401">
        <ele>2361.6000976562</ele>
        <time>2016-03-07T12:45:58.000Z</time>
      </trkpt>
      <trkpt lat="45.49871" lon="6.62403">
        <ele>2362.6000976562</ele>
        <time>2016-03-07T12:46:01.000Z</time>
      </trkpt>
      <trkpt lat="45.49872" lon="6.62404">
        <ele>2362.8000488281</ele>
        <time>2016-03-07T12:46:03.000Z</time>
      </trkpt>
      <trkpt lat="45.49873" lon="6.62409">
        <ele>2363.6000976562</ele>
        <time>2016-03-07T12:46:10.000Z</time>
      </trkpt>
      <trkpt lat="45.49873" lon="6.62409">
        <ele>2364.1999511719</ele>
        <time>2016-03-07T12:46:11.000Z</time>
      </trkpt>
      <trkpt lat="45.49873" lon="6.6241">
        <ele>2364.3999023438</ele>
        <time>2016-03-07T12:46:28.000Z</time>
      </trkpt>
      <trkpt lat="45.49874" lon="6.62413">
        <ele>2365</ele>
        <time>2016-03-07T12:46:33.000Z</time>
      </trkpt>
      <trkpt lat="45.49875" lon="6.62415">
        <ele>2365.1999511719</ele>
        <time>2016-03-07T12:46:34.000Z</time>
      </trkpt>
      <trkpt lat="45.49875" lon="6.62417">
        <ele>2366.3999023438</ele>
        <time>2016-03-07T12:46:38.000Z</time>
      </trkpt>
      <trkpt lat="45.49875" lon="6.62421">
        <ele>2367.6000976562</ele>
        <time>2016-03-07T12:46:43.000Z</time>
      </trkpt>
      <trkpt lat="45.49875" lon="6.62422">
        <ele>2367.8000488281</ele>
        <time>2016-03-07T12:46:44.000Z</time>
      </trkpt>
      <trkpt lat="45.49876" lon="6.62424">
        <ele>2368.6000976562</ele>
        <time>2016-03-07T12:46:48.000Z</time>
      </trkpt>
      <trkpt lat="45.49876" lon="6.62426">
        <ele>2369.8000488281</ele>
        <time>2016-03-07T12:46:53.000Z</time>
      </trkpt>
      <trkpt lat="45.49878" lon="6.62432">
        <ele>2370.8000488281</ele>
        <time>2016-03-07T12:46:59.000Z</time>
      </trkpt>
      <trkpt lat="45.49879" lon="6.62433">
        <ele>2371.3999023438</ele>
        <time>2016-03-07T12:47:04.000Z</time>
      </trkpt>
      <trkpt lat="45.49879" lon="6.62436">
        <ele>2372</ele>
        <time>2016-03-07T12:47:07.000Z</time>
      </trkpt>
      <trkpt lat="45.49881" lon="6.6244">
        <ele>2373.1999511719</ele>
        <time>2016-03-07T12:47:11.000Z</time>
      </trkpt>
      <trkpt lat="45.49883" lon="6.62443">
        <ele>2373.8000488281</ele>
        <time>2016-03-07T12:47:17.000Z</time>
      </trkpt>
      <trkpt lat="45.49883" lon="6.62444">
        <ele>2374.3999023438</ele>
        <time>2016-03-07T12:47:19.000Z</time>
      </trkpt>
      <trkpt lat="45.49884" lon="6.62446">
        <ele>2375.1999511719</ele>
        <time>2016-03-07T12:47:23.000Z</time>
      </trkpt>
      <trkpt lat="45.49884" lon="6.62447">
        <ele>2375.3999023438</ele>
        <time>2016-03-07T12:47:25.000Z</time>
      </trkpt>
      <trkpt lat="45.49885" lon="6.62452">
        <ele>2375.8000488281</ele>
        <time>2016-03-07T12:47:28.000Z</time>
      </trkpt>
      <trkpt lat="45.49885" lon="6.62453">
        <ele>2376.3999023438</ele>
        <time>2016-03-07T12:47:30.000Z</time>
      </trkpt>
      <trkpt lat="45.49886" lon="6.62453">
        <ele>2377.1999511719</ele>
        <time>2016-03-07T12:47:35.000Z</time>
      </trkpt>
      <trkpt lat="45.49886" lon="6.62452">
        <ele>2377.3999023438</ele>
        <time>2016-03-07T12:47:41.000Z</time>
      </trkpt>
      <trkpt lat="45.49886" lon="6.62452">
        <ele>2377.3999023438</ele>
        <time>2016-03-07T12:47:42.000Z</time>
      </trkpt>
      <trkpt lat="45.49888" lon="6.62449">
        <ele>2377.8000488281</ele>
        <time>2016-03-07T12:47:47.000Z</time>
      </trkpt>
      <trkpt lat="45.49889" lon="6.62449">
        <ele>2378.6000976562</ele>
        <time>2016-03-07T12:47:51.000Z</time>
      </trkpt>
      <trkpt lat="45.49889" lon="6.62449">
        <ele>2378.8000488281</ele>
        <time>2016-03-07T12:47:52.000Z</time>
      </trkpt>
      <trkpt lat="45.4989" lon="6.62446">
        <ele>2379.6000976562</ele>
        <time>2016-03-07T12:47:56.000Z</time>
      </trkpt>
      <trkpt lat="45.4989" lon="6.62446">
        <ele>2379.8000488281</ele>
        <time>2016-03-07T12:47:57.000Z</time>
      </trkpt>
      <trkpt lat="45.49892" lon="6.62444">
        <ele>2380.1999511719</ele>
        <time>2016-03-07T12:48:01.000Z</time>
      </trkpt>
      <trkpt lat="45.49892" lon="6.62443">
        <ele>2380.6000976562</ele>
        <time>2016-03-07T12:48:03.000Z</time>
      </trkpt>
      <trkpt lat="45.49896" lon="6.6244">
        <ele>2381.3999023438</ele>
        <time>2016-03-07T12:48:07.000Z</time>
      </trkpt>
      <trkpt lat="45.49897" lon="6.62438">
        <ele>2381.8000488281</ele>
        <time>2016-03-07T12:48:09.000Z</time>
      </trkpt>
      <trkpt lat="45.49897" lon="6.62437">
        <ele>2382.3999023438</ele>
        <time>2016-03-07T12:48:11.000Z</time>
      </trkpt>
      <trkpt lat="45.49897" lon="6.62436">
        <ele>2382.8000488281</ele>
        <time>2016-03-07T12:48:13.000Z</time>
      </trkpt>
      <trkpt lat="45.499" lon="6.62432">
        <ele>2383.3999023438</ele>
        <time>2016-03-07T12:48:17.000Z</time>
      </trkpt>
      <trkpt lat="45.49901" lon="6.6243">
        <ele>2384</ele>
        <time>2016-03-07T12:48:20.000Z</time>
      </trkpt>
      <trkpt lat="45.49901" lon="6.6243">
        <ele>2384.1999511719</ele>
        <time>2016-03-07T12:48:21.000Z</time>
      </trkpt>
      <trkpt lat="45.49902" lon="6.62429">
        <ele>2385</ele>
        <time>2016-03-07T12:48:24.000Z</time>
      </trkpt>
      <trkpt lat="45.49902" lon="6.62428">
        <ele>2385.3999023438</ele>
        <time>2016-03-07T12:48:26.000Z</time>
      </trkpt>
      <trkpt lat="45.49905" lon="6.62425">
        <ele>2386.1999511719</ele>
        <time>2016-03-07T12:48:31.000Z</time>
      </trkpt>
      <trkpt lat="45.49905" lon="6.62424">
        <ele>2386.3999023438</ele>
        <time>2016-03-07T12:48:32.000Z</time>
      </trkpt>
      <trkpt lat="45.49906" lon="6.62424">
        <ele>2387.1999511719</ele>
        <time>2016-03-07T12:48:35.000Z</time>
      </trkpt>
      <trkpt lat="45.49907" lon="6.62423">
        <ele>2387.6000976562</ele>
        <time>2016-03-07T12:48:38.000Z</time>
      </trkpt>
      <trkpt lat="45.49909" lon="6.62423">
        <ele>2388.1999511719</ele>
        <time>2016-03-07T12:48:41.000Z</time>
      </trkpt>
      <trkpt lat="45.49911" lon="6.62423">
        <ele>2388.8000488281</ele>
        <time>2016-03-07T12:48:45.000Z</time>
      </trkpt>
      <trkpt lat="45.49912" lon="6.62423">
        <ele>2389.1999511719</ele>
        <time>2016-03-07T12:48:47.000Z</time>
      </trkpt>
      <trkpt lat="45.49916" lon="6.62425">
        <ele>2390.1999511719</ele>
        <time>2016-03-07T12:48:52.000Z</time>
      </trkpt>
      <trkpt lat="45.49916" lon="6.62425">
        <ele>2390.3999023438</ele>
        <time>2016-03-07T12:48:53.000Z</time>
      </trkpt>
      <trkpt lat="45.49917" lon="6.62427">
        <ele>2391.1999511719</ele>
        <time>2016-03-07T12:48:57.000Z</time>
      </trkpt>
      <trkpt lat="45.49917" lon="6.62427">
        <ele>2391.8000488281</ele>
        <time>2016-03-07T12:49:01.000Z</time>
      </trkpt>
      <trkpt lat="45.49918" lon="6.62427">
        <ele>2392.1999511719</ele>
        <time>2016-03-07T12:49:15.000Z</time>
      </trkpt>
      <trkpt lat="45.49918" lon="6.62427">
        <ele>2392.3999023438</ele>
        <time>2016-03-07T12:49:16.000Z</time>
      </trkpt>
      <trkpt lat="45.4992" lon="6.62431">
        <ele>2393</ele>
        <time>2016-03-07T12:49:22.000Z</time>
      </trkpt>
      <trkpt lat="45.49921" lon="6.62432">
        <ele>2393.3999023438</ele>
        <time>2016-03-07T12:49:23.000Z</time>
      </trkpt>
      <trkpt lat="45.49921" lon="6.62434">
        <ele>2394.3999023438</ele>
        <time>2016-03-07T12:49:27.000Z</time>
      </trkpt>
      <trkpt lat="45.49922" lon="6.62435">
        <ele>2394.6000976562</ele>
        <time>2016-03-07T12:49:28.000Z</time>
      </trkpt>
      <trkpt lat="45.49922" lon="6.62437">
        <ele>2395.1999511719</ele>
        <time>2016-03-07T12:49:33.000Z</time>
      </trkpt>
      <trkpt lat="45.49921" lon="6.62438">
        <ele>2395.3999023438</ele>
        <time>2016-03-07T12:49:34.000Z</time>
      </trkpt>
      <trkpt lat="45.49921" lon="6.62441">
        <ele>2395.8000488281</ele>
        <time>2016-03-07T12:49:36.000Z</time>
      </trkpt>
      <trkpt lat="45.49921" lon="6.62444">
        <ele>2396.8000488281</ele>
        <time>2016-03-07T12:49:39.000Z</time>
      </trkpt>
      <trkpt lat="45.4992" lon="6.62447">
        <ele>2398</ele>
        <time>2016-03-07T12:49:42.000Z</time>
      </trkpt>
      <trkpt lat="45.49922" lon="6.6245">
        <ele>2398.6000976562</ele>
        <time>2016-03-07T12:49:45.000Z</time>
      </trkpt>
      <trkpt lat="45.49922" lon="6.62454">
        <ele>2399</ele>
        <time>2016-03-07T12:49:51.000Z</time>
      </trkpt>
      <trkpt lat="45.49922" lon="6.62457">
        <ele>2400.1999511719</ele>
        <time>2016-03-07T12:49:55.000Z</time>
      </trkpt>
      <trkpt lat="45.49921" lon="6.62457">
        <ele>2400.3999023438</ele>
        <time>2016-03-07T12:49:57.000Z</time>
      </trkpt>
      <trkpt lat="45.49922" lon="6.62458">
        <ele>2401.3999023438</ele>
        <time>2016-03-07T12:50:00.000Z</time>
      </trkpt>
      <trkpt lat="45.49923" lon="6.62458">
        <ele>2402</ele>
        <time>2016-03-07T12:50:02.000Z</time>
      </trkpt>
      <trkpt lat="45.49924" lon="6.62459">
        <ele>2402.3999023438</ele>
        <time>2016-03-07T12:50:04.000Z</time>
      </trkpt>
      <trkpt lat="45.49926" lon="6.62461">
        <ele>2403</ele>
        <time>2016-03-07T12:50:10.000Z</time>
      </trkpt>
      <trkpt lat="45.49926" lon="6.62461">
        <ele>2403.8000488281</ele>
        <time>2016-03-07T12:50:11.000Z</time>
      </trkpt>
      <trkpt lat="45.49927" lon="6.62462">
        <ele>2404.6000976562</ele>
        <time>2016-03-07T12:50:17.000Z</time>
      </trkpt>
      <trkpt lat="45.49927" lon="6.62462">
        <ele>2404.8000488281</ele>
        <time>2016-03-07T12:50:19.000Z</time>
      </trkpt>
      <trkpt lat="45.49927" lon="6.62462">
        <ele>2405.1999511719</ele>
        <time>2016-03-07T12:50:37.000Z</time>
      </trkpt>
      <trkpt lat="45.4993" lon="6.62464">
        <ele>2406</ele>
        <time>2016-03-07T12:50:46.000Z</time>
      </trkpt>
      <trkpt lat="45.49933" lon="6.62467">
        <ele>2406.6000976562</ele>
        <time>2016-03-07T12:50:51.000Z</time>
      </trkpt>
      <trkpt lat="45.49935" lon="6.62468">
        <ele>2407</ele>
        <time>2016-03-07T12:50:53.000Z</time>
      </trkpt>
      <trkpt lat="45.49935" lon="6.62469">
        <ele>2407.3999023438</ele>
        <time>2016-03-07T12:50:55.000Z</time>
      </trkpt>
      <trkpt lat="45.49937" lon="6.62471">
        <ele>2408.1999511719</ele>
        <time>2016-03-07T12:50:58.000Z</time>
      </trkpt>
      <trkpt lat="45.4994" lon="6.62475">
        <ele>2409</ele>
        <time>2016-03-07T12:51:01.000Z</time>
      </trkpt>
      <trkpt lat="45.4994" lon="6.62475">
        <ele>2409.1999511719</ele>
        <time>2016-03-07T12:51:02.000Z</time>
      </trkpt>
      <trkpt lat="45.49942" lon="6.62479">
        <ele>2410</ele>
        <time>2016-03-07T12:51:06.000Z</time>
      </trkpt>
      <trkpt lat="45.49942" lon="6.62481">
        <ele>2410.3999023438</ele>
        <time>2016-03-07T12:51:08.000Z</time>
      </trkpt>
      <trkpt lat="45.49945" lon="6.62483">
        <ele>2411.3999023438</ele>
        <time>2016-03-07T12:51:12.000Z</time>
      </trkpt>
      <trkpt lat="45.49945" lon="6.62484">
        <ele>2411.6000976562</ele>
        <time>2016-03-07T12:51:13.000Z</time>
      </trkpt>
      <trkpt lat="45.49949" lon="6.62489">
        <ele>2412.6000976562</ele>
        <time>2016-03-07T12:51:19.000Z</time>
      </trkpt>
      <trkpt lat="45.4995" lon="6.62492">
        <ele>2413.6000976562</ele>
        <time>2016-03-07T12:51:24.000Z</time>
      </trkpt>
      <trkpt lat="45.49951" lon="6.62494">
        <ele>2414</ele>
        <time>2016-03-07T12:51:26.000Z</time>
      </trkpt>
      <trkpt lat="45.49953" lon="6.62499">
        <ele>2414.8000488281</ele>
        <time>2016-03-07T12:51:31.000Z</time>
      </trkpt>
      <trkpt lat="45.49953" lon="6.62499">
        <ele>2415</ele>
        <time>2016-03-07T12:51:32.000Z</time>
      </trkpt>
      <trkpt lat="45.49953" lon="6.62504">
        <ele>2415.8000488281</ele>
        <time>2016-03-07T12:51:38.000Z</time>
      </trkpt>
      <trkpt lat="45.49953" lon="6.62507">
        <ele>2417</ele>
        <time>2016-03-07T12:51:44.000Z</time>
      </trkpt>
      <trkpt lat="45.49953" lon="6.62508">
        <ele>2418</ele>
        <time>2016-03-07T12:51:51.000Z</time>
      </trkpt>
      <trkpt lat="45.49953" lon="6.62508">
        <ele>2418</ele>
        <time>2016-03-07T12:51:54.000Z</time>
      </trkpt>
      <trkpt lat="45.49954" lon="6.62509">
        <ele>2418.1999511719</ele>
        <time>2016-03-07T12:52:03.000Z</time>
      </trkpt>
      <trkpt lat="45.49955" lon="6.62514">
        <ele>2419.1999511719</ele>
        <time>2016-03-07T12:52:09.000Z</time>
      </trkpt>
      <trkpt lat="45.49956" lon="6.62519">
        <ele>2420.1999511719</ele>
        <time>2016-03-07T12:52:14.000Z</time>
      </trkpt>
      <trkpt lat="45.49957" lon="6.62521">
        <ele>2420.3999023438</ele>
        <time>2016-03-07T12:52:15.000Z</time>
      </trkpt>
      <trkpt lat="45.49958" lon="6.62522">
        <ele>2421.1999511719</ele>
        <time>2016-03-07T12:52:20.000Z</time>
      </trkpt>
      <trkpt lat="45.49958" lon="6.62523">
        <ele>2421.3999023438</ele>
        <time>2016-03-07T12:52:21.000Z</time>
      </trkpt>
      <trkpt lat="45.49959" lon="6.62523">
        <ele>2422.1999511719</ele>
        <time>2016-03-07T12:52:24.000Z</time>
      </trkpt>
      <trkpt lat="45.4996" lon="6.62525">
        <ele>2422.3999023438</ele>
        <time>2016-03-07T12:52:25.000Z</time>
      </trkpt>
      <trkpt lat="45.49961" lon="6.62526">
        <ele>2423</ele>
        <time>2016-03-07T12:52:28.000Z</time>
      </trkpt>
      <trkpt lat="45.49961" lon="6.62526">
        <ele>2423.3999023438</ele>
        <time>2016-03-07T12:52:31.000Z</time>
      </trkpt>
      <trkpt lat="45.49962" lon="6.62527">
        <ele>2423.6000976562</ele>
        <time>2016-03-07T12:52:32.000Z</time>
      </trkpt>
      <trkpt lat="45.49963" lon="6.62528">
        <ele>2424.3999023438</ele>
        <time>2016-03-07T12:52:36.000Z</time>
      </trkpt>
      <trkpt lat="45.49963" lon="6.62528">
        <ele>2424.8000488281</ele>
        <time>2016-03-07T12:52:37.000Z</time>
      </trkpt>
      <trkpt lat="45.49966" lon="6.62531">
        <ele>2425.3999023438</ele>
        <time>2016-03-07T12:52:43.000Z</time>
      </trkpt>
      <trkpt lat="45.49969" lon="6.62534">
        <ele>2426.6000976562</ele>
        <time>2016-03-07T12:52:48.000Z</time>
      </trkpt>
      <trkpt lat="45.49969" lon="6.62534">
        <ele>2426.8000488281</ele>
        <time>2016-03-07T12:52:50.000Z</time>
      </trkpt>
      <trkpt lat="45.49972" lon="6.62538">
        <ele>2427.6000976562</ele>
        <time>2016-03-07T12:52:55.000Z</time>
      </trkpt>
      <trkpt lat="45.49973" lon="6.62539">
        <ele>2428.3999023438</ele>
        <time>2016-03-07T12:52:57.000Z</time>
      </trkpt>
      <trkpt lat="45.49974" lon="6.6254">
        <ele>2428.8000488281</ele>
        <time>2016-03-07T12:52:59.000Z</time>
      </trkpt>
      <trkpt lat="45.49977" lon="6.62542">
        <ele>2429.8000488281</ele>
        <time>2016-03-07T12:53:05.000Z</time>
      </trkpt>
      <trkpt lat="45.49977" lon="6.62542">
        <ele>2430</ele>
        <time>2016-03-07T12:53:06.000Z</time>
      </trkpt>
      <trkpt lat="45.49977" lon="6.62544">
        <ele>2431</ele>
        <time>2016-03-07T12:53:14.000Z</time>
      </trkpt>
      <trkpt lat="45.49979" lon="6.62545">
        <ele>2431.8000488281</ele>
        <time>2016-03-07T12:53:26.000Z</time>
      </trkpt>
      <trkpt lat="45.49981" lon="6.62547">
        <ele>2432</ele>
        <time>2016-03-07T12:53:29.000Z</time>
      </trkpt>
      <trkpt lat="45.49984" lon="6.62549">
        <ele>2432.8000488281</ele>
        <time>2016-03-07T12:53:34.000Z</time>
      </trkpt>
      <trkpt lat="45.49984" lon="6.62551">
        <ele>2433.1999511719</ele>
        <time>2016-03-07T12:53:36.000Z</time>
      </trkpt>
      <trkpt lat="45.49988" lon="6.62552">
        <ele>2434.3999023438</ele>
        <time>2016-03-07T12:53:41.000Z</time>
      </trkpt>
      <trkpt lat="45.49988" lon="6.62553">
        <ele>2434.6000976562</ele>
        <time>2016-03-07T12:53:42.000Z</time>
      </trkpt>
      <trkpt lat="45.49988" lon="6.62554">
        <ele>2435.8000488281</ele>
        <time>2016-03-07T12:53:47.000Z</time>
      </trkpt>
      <trkpt lat="45.4999" lon="6.62555">
        <ele>2436.1999511719</ele>
        <time>2016-03-07T12:53:49.000Z</time>
      </trkpt>
      <trkpt lat="45.49993" lon="6.62558">
        <ele>2437</ele>
        <time>2016-03-07T12:53:54.000Z</time>
      </trkpt>
      <trkpt lat="45.49993" lon="6.62559">
        <ele>2437</ele>
        <time>2016-03-07T12:53:55.000Z</time>
      </trkpt>
      <trkpt lat="45.49994" lon="6.62561">
        <ele>2438</ele>
        <time>2016-03-07T12:53:59.000Z</time>
      </trkpt>
      <trkpt lat="45.49994" lon="6.62561">
        <ele>2438.3999023438</ele>
        <time>2016-03-07T12:54:01.000Z</time>
      </trkpt>
      <trkpt lat="45.49994" lon="6.62561">
        <ele>2439</ele>
        <time>2016-03-07T12:54:04.000Z</time>
      </trkpt>
      <trkpt lat="45.49995" lon="6.62563">
        <ele>2439</ele>
        <time>2016-03-07T12:54:15.000Z</time>
      </trkpt>
      <trkpt lat="45.49997" lon="6.62567">
        <ele>2439.8000488281</ele>
        <time>2016-03-07T12:54:20.000Z</time>
      </trkpt>
      <trkpt lat="45.49998" lon="6.62569">
        <ele>2440.1999511719</ele>
        <time>2016-03-07T12:54:22.000Z</time>
      </trkpt>
      <trkpt lat="45.49998" lon="6.62571">
        <ele>2440.6000976562</ele>
        <time>2016-03-07T12:54:25.000Z</time>
      </trkpt>
      <trkpt lat="45.49999" lon="6.62572">
        <ele>2441.1999511719</ele>
        <time>2016-03-07T12:54:28.000Z</time>
      </trkpt>
      <trkpt lat="45.5" lon="6.62575">
        <ele>2441.6000976562</ele>
        <time>2016-03-07T12:54:31.000Z</time>
      </trkpt>
      <trkpt lat="45.50002" lon="6.62578">
        <ele>2442.6000976562</ele>
        <time>2016-03-07T12:54:35.000Z</time>
      </trkpt>
      <trkpt lat="45.50003" lon="6.6258">
        <ele>2443.6000976562</ele>
        <time>2016-03-07T12:54:40.000Z</time>
      </trkpt>
      <trkpt lat="45.50006" lon="6.62584">
        <ele>2444.6000976562</ele>
        <time>2016-03-07T12:54:47.000Z</time>
      </trkpt>
      <trkpt lat="45.50006" lon="6.62584">
        <ele>2444.8000488281</ele>
        <time>2016-03-07T12:54:48.000Z</time>
      </trkpt>
      <trkpt lat="45.50008" lon="6.62587">
        <ele>2446</ele>
        <time>2016-03-07T12:54:53.000Z</time>
      </trkpt>
      <trkpt lat="45.5001" lon="6.62591">
        <ele>2447</ele>
        <time>2016-03-07T12:54:57.000Z</time>
      </trkpt>
      <trkpt lat="45.50011" lon="6.62593">
        <ele>2447.1999511719</ele>
        <time>2016-03-07T12:54:58.000Z</time>
      </trkpt>
      <trkpt lat="45.50012" lon="6.62595">
        <ele>2447.8000488281</ele>
        <time>2016-03-07T12:55:02.000Z</time>
      </trkpt>
      <trkpt lat="45.50013" lon="6.62596">
        <ele>2447.8000488281</ele>
        <time>2016-03-07T12:55:03.000Z</time>
      </trkpt>
      <trkpt lat="45.50013" lon="6.62596">
        <ele>2448</ele>
        <time>2016-03-07T12:55:04.000Z</time>
      </trkpt>
      <trkpt lat="45.50013" lon="6.62599">
        <ele>2448.8000488281</ele>
        <time>2016-03-07T12:55:08.000Z</time>
      </trkpt>
      <trkpt lat="45.50013" lon="6.62602">
        <ele>2449.1999511719</ele>
        <time>2016-03-07T12:55:10.000Z</time>
      </trkpt>
      <trkpt lat="45.50013" lon="6.62604">
        <ele>2449.6000976562</ele>
        <time>2016-03-07T12:55:12.000Z</time>
      </trkpt>
      <trkpt lat="45.50013" lon="6.62605">
        <ele>2450.3999023438</ele>
        <time>2016-03-07T12:55:15.000Z</time>
      </trkpt>
      <trkpt lat="45.50013" lon="6.62605">
        <ele>2450.3999023438</ele>
        <time>2016-03-07T12:55:16.000Z</time>
      </trkpt>
      <trkpt lat="45.50014" lon="6.62608">
        <ele>2451.3999023438</ele>
        <time>2016-03-07T12:55:26.000Z</time>
      </trkpt>
      <trkpt lat="45.50015" lon="6.62611">
        <ele>2451.8000488281</ele>
        <time>2016-03-07T12:55:31.000Z</time>
      </trkpt>
      <trkpt lat="45.50016" lon="6.62614">
        <ele>2452.6000976562</ele>
        <time>2016-03-07T12:55:35.000Z</time>
      </trkpt>
      <trkpt lat="45.50017" lon="6.62617">
        <ele>2452.8000488281</ele>
        <time>2016-03-07T12:55:37.000Z</time>
      </trkpt>
      <trkpt lat="45.50018" lon="6.6262">
        <ele>2453.6000976562</ele>
        <time>2016-03-07T12:55:42.000Z</time>
      </trkpt>
      <trkpt lat="45.50018" lon="6.6262">
        <ele>2453.6000976562</ele>
        <time>2016-03-07T12:55:43.000Z</time>
      </trkpt>
      <trkpt lat="45.5002" lon="6.62625">
        <ele>2454.6000976562</ele>
        <time>2016-03-07T12:55:48.000Z</time>
      </trkpt>
      <trkpt lat="45.5002" lon="6.62628">
        <ele>2454.8000488281</ele>
        <time>2016-03-07T12:55:49.000Z</time>
      </trkpt>
      <trkpt lat="45.5002" lon="6.62628">
        <ele>2455.1999511719</ele>
        <time>2016-03-07T12:55:52.000Z</time>
      </trkpt>
      <trkpt lat="45.50022" lon="6.62634">
        <ele>2455.8000488281</ele>
        <time>2016-03-07T12:55:57.000Z</time>
      </trkpt>
      <trkpt lat="45.50022" lon="6.62635">
        <ele>2456</ele>
        <time>2016-03-07T12:55:58.000Z</time>
      </trkpt>
      <trkpt lat="45.50021" lon="6.62641">
        <ele>2456.8000488281</ele>
        <time>2016-03-07T12:56:03.000Z</time>
      </trkpt>
      <trkpt lat="45.50022" lon="6.62647">
        <ele>2457.3999023438</ele>
        <time>2016-03-07T12:56:09.000Z</time>
      </trkpt>
      <trkpt lat="45.50023" lon="6.62649">
        <ele>2457.8000488281</ele>
        <time>2016-03-07T12:56:11.000Z</time>
      </trkpt>
      <trkpt lat="45.50024" lon="6.62654">
        <ele>2458.6000976562</ele>
        <time>2016-03-07T12:56:15.000Z</time>
      </trkpt>
      <trkpt lat="45.50024" lon="6.62656">
        <ele>2459</ele>
        <time>2016-03-07T12:56:17.000Z</time>
      </trkpt>
      <trkpt lat="45.50024" lon="6.62656">
        <ele>2459.3999023438</ele>
        <time>2016-03-07T12:56:20.000Z</time>
      </trkpt>
      <trkpt lat="45.50025" lon="6.62659">
        <ele>2460</ele>
        <time>2016-03-07T12:56:25.000Z</time>
      </trkpt>
      <trkpt lat="45.50025" lon="6.6266">
        <ele>2460.1999511719</ele>
        <time>2016-03-07T12:56:26.000Z</time>
      </trkpt>
      <trkpt lat="45.50026" lon="6.62665">
        <ele>2460.8000488281</ele>
        <time>2016-03-07T12:56:30.000Z</time>
      </trkpt>
      <trkpt lat="45.50026" lon="6.62664">
        <ele>2461</ele>
        <time>2016-03-07T12:56:31.000Z</time>
      </trkpt>
      <trkpt lat="45.50027" lon="6.62665">
        <ele>2461</ele>
        <time>2016-03-07T12:56:32.000Z</time>
      </trkpt>
      <trkpt lat="45.50027" lon="6.62667">
        <ele>2461.8000488281</ele>
        <time>2016-03-07T12:56:36.000Z</time>
      </trkpt>
      <trkpt lat="45.50028" lon="6.62669">
        <ele>2462.1999511719</ele>
        <time>2016-03-07T12:56:39.000Z</time>
      </trkpt>
      <trkpt lat="45.5003" lon="6.62673">
        <ele>2463</ele>
        <time>2016-03-07T12:56:45.000Z</time>
      </trkpt>
      <trkpt lat="45.5003" lon="6.62674">
        <ele>2463.1999511719</ele>
        <time>2016-03-07T12:56:46.000Z</time>
      </trkpt>
      <trkpt lat="45.50031" lon="6.62678">
        <ele>2464</ele>
        <time>2016-03-07T12:56:51.000Z</time>
      </trkpt>
      <trkpt lat="45.50031" lon="6.62677">
        <ele>2464.1999511719</ele>
        <time>2016-03-07T12:56:52.000Z</time>
      </trkpt>
      <trkpt lat="45.50031" lon="6.6268">
        <ele>2464.8000488281</ele>
        <time>2016-03-07T12:56:55.000Z</time>
      </trkpt>
      <trkpt lat="45.50032" lon="6.62683">
        <ele>2465.1999511719</ele>
        <time>2016-03-07T12:56:58.000Z</time>
      </trkpt>
      <trkpt lat="45.50032" lon="6.62684">
        <ele>2465.8000488281</ele>
        <time>2016-03-07T12:57:00.000Z</time>
      </trkpt>
      <trkpt lat="45.50033" lon="6.62688">
        <ele>2466.3999023438</ele>
        <time>2016-03-07T12:57:04.000Z</time>
      </trkpt>
      <trkpt lat="45.50033" lon="6.62689">
        <ele>2466.3999023438</ele>
        <time>2016-03-07T12:57:05.000Z</time>
      </trkpt>
      <trkpt lat="45.50036" lon="6.62692">
        <ele>2467</ele>
        <time>2016-03-07T12:57:10.000Z</time>
      </trkpt>
      <trkpt lat="45.50037" lon="6.62694">
        <ele>2467.3999023438</ele>
        <time>2016-03-07T12:57:13.000Z</time>
      </trkpt>
      <trkpt lat="45.50037" lon="6.62697">
        <ele>2468</ele>
        <time>2016-03-07T12:57:18.000Z</time>
      </trkpt>
      <trkpt lat="45.50038" lon="6.62699">
        <ele>2468.6000976562</ele>
        <time>2016-03-07T12:57:21.000Z</time>
      </trkpt>
      <trkpt lat="45.50038" lon="6.627">
        <ele>2469.6000976562</ele>
        <time>2016-03-07T12:57:24.000Z</time>
      </trkpt>
      <trkpt lat="45.50038" lon="6.627">
        <ele>2470</ele>
        <time>2016-03-07T12:57:25.000Z</time>
      </trkpt>
      <trkpt lat="45.50037" lon="6.62702">
        <ele>2470.8000488281</ele>
        <time>2016-03-07T12:57:28.000Z</time>
      </trkpt>
      <trkpt lat="45.50036" lon="6.62706">
        <ele>2471.1999511719</ele>
        <time>2016-03-07T12:57:32.000Z</time>
      </trkpt>
      <trkpt lat="45.50037" lon="6.62709">
        <ele>2472.1999511719</ele>
        <time>2016-03-07T12:57:36.000Z</time>
      </trkpt>
      <trkpt lat="45.50038" lon="6.62711">
        <ele>2473.1999511719</ele>
        <time>2016-03-07T12:57:40.000Z</time>
      </trkpt>
      <trkpt lat="45.50038" lon="6.62711">
        <ele>2473.3999023438</ele>
        <time>2016-03-07T12:57:41.000Z</time>
      </trkpt>
      <trkpt lat="45.5004" lon="6.62714">
        <ele>2474.8000488281</ele>
        <time>2016-03-07T12:57:47.000Z</time>
      </trkpt>
      <trkpt lat="45.5004" lon="6.62715">
        <ele>2475.3999023438</ele>
        <time>2016-03-07T12:57:49.000Z</time>
      </trkpt>
      <trkpt lat="45.50041" lon="6.62716">
        <ele>2475.8000488281</ele>
        <time>2016-03-07T12:57:51.000Z</time>
      </trkpt>
      <trkpt lat="45.50042" lon="6.62718">
        <ele>2476</ele>
        <time>2016-03-07T12:57:54.000Z</time>
      </trkpt>
      <trkpt lat="45.50044" lon="6.6272">
        <ele>2477</ele>
        <time>2016-03-07T12:57:58.000Z</time>
      </trkpt>
      <trkpt lat="45.50044" lon="6.62721">
        <ele>2477.6000976562</ele>
        <time>2016-03-07T12:58:00.000Z</time>
      </trkpt>
      <trkpt lat="45.50045" lon="6.62723">
        <ele>2478</ele>
        <time>2016-03-07T12:58:03.000Z</time>
      </trkpt>
      <trkpt lat="45.50046" lon="6.62725">
        <ele>2478.1999511719</ele>
        <time>2016-03-07T12:58:06.000Z</time>
      </trkpt>
      <trkpt lat="45.50046" lon="6.62726">
        <ele>2479</ele>
        <time>2016-03-07T12:58:10.000Z</time>
      </trkpt>
      <trkpt lat="45.50046" lon="6.62726">
        <ele>2479.8000488281</ele>
        <time>2016-03-07T12:58:14.000Z</time>
      </trkpt>
      <trkpt lat="45.50047" lon="6.62728">
        <ele>2480</ele>
        <time>2016-03-07T12:58:25.000Z</time>
      </trkpt>
      <trkpt lat="45.50047" lon="6.62728">
        <ele>2480.1999511719</ele>
        <time>2016-03-07T12:58:26.000Z</time>
      </trkpt>
      <trkpt lat="45.50047" lon="6.62731">
        <ele>2480.3999023438</ele>
        <time>2016-03-07T12:58:30.000Z</time>
      </trkpt>
      <trkpt lat="45.50046" lon="6.62736">
        <ele>2481.3999023438</ele>
        <time>2016-03-07T12:58:35.000Z</time>
      </trkpt>
      <trkpt lat="45.50046" lon="6.62739">
        <ele>2481.8000488281</ele>
        <time>2016-03-07T12:58:37.000Z</time>
      </trkpt>
      <trkpt lat="45.50047" lon="6.62741">
        <ele>2482.1999511719</ele>
        <time>2016-03-07T12:58:44.000Z</time>
      </trkpt>
      <trkpt lat="45.50049" lon="6.62743">
        <ele>2482.3999023438</ele>
        <time>2016-03-07T12:58:49.000Z</time>
      </trkpt>
      <trkpt lat="45.5005" lon="6.62744">
        <ele>2482.8000488281</ele>
        <time>2016-03-07T12:58:51.000Z</time>
      </trkpt>
      <trkpt lat="45.50053" lon="6.62744">
        <ele>2483.6000976562</ele>
        <time>2016-03-07T12:58:56.000Z</time>
      </trkpt>
      <trkpt lat="45.50054" lon="6.62744">
        <ele>2483.6000976562</ele>
        <time>2016-03-07T12:58:58.000Z</time>
      </trkpt>
      <trkpt lat="45.50056" lon="6.62746">
        <ele>2484.1999511719</ele>
        <time>2016-03-07T12:59:04.000Z</time>
      </trkpt>
      <trkpt lat="45.50057" lon="6.62747">
        <ele>2484.6000976562</ele>
        <time>2016-03-07T12:59:07.000Z</time>
      </trkpt>
      <trkpt lat="45.50057" lon="6.62747">
        <ele>2484.6000976562</ele>
        <time>2016-03-07T12:59:13.000Z</time>
      </trkpt>
      <trkpt lat="45.50058" lon="6.62743">
        <ele>2484.3999023438</ele>
        <time>2016-03-07T12:59:19.000Z</time>
      </trkpt>
      <trkpt lat="45.50059" lon="6.62738">
        <ele>2483.3999023438</ele>
        <time>2016-03-07T12:59:27.000Z</time>
      </trkpt>
      <trkpt lat="45.5006" lon="6.62737">
        <ele>2482.8000488281</ele>
        <time>2016-03-07T12:59:35.000Z</time>
      </trkpt>
      <trkpt lat="45.5006" lon="6.62736">
        <ele>2483.1999511719</ele>
        <time>2016-03-07T12:59:45.000Z</time>
      </trkpt>
      <trkpt lat="45.5006" lon="6.62736">
        <ele>2483</ele>
        <time>2016-03-07T12:59:54.000Z</time>
      </trkpt>
      <trkpt lat="45.5006" lon="6.62736">
        <ele>2482.8000488281</ele>
        <time>2016-03-07T13:00:12.000Z</time>
      </trkpt>
      <trkpt lat="45.50059" lon="6.62736">
        <ele>2483</ele>
        <time>2016-03-07T13:00:29.000Z</time>
      </trkpt>
      <trkpt lat="45.50059" lon="6.62736">
        <ele>2482.8000488281</ele>
        <time>2016-03-07T13:00:42.000Z</time>
      </trkpt>
      <trkpt lat="45.5006" lon="6.62737">
        <ele>2483.1999511719</ele>
        <time>2016-03-07T13:00:52.000Z</time>
      </trkpt>
      <trkpt lat="45.50059" lon="6.62741">
        <ele>2483.3999023438</ele>
        <time>2016-03-07T13:00:55.000Z</time>
      </trkpt>
      <trkpt lat="45.50058" lon="6.62743">
        <ele>2483.6000976562</ele>
        <time>2016-03-07T13:00:57.000Z</time>
      </trkpt>
      <trkpt lat="45.50058" lon="6.62744">
        <ele>2484</ele>
        <time>2016-03-07T13:00:59.000Z</time>
      </trkpt>
      <trkpt lat="45.50056" lon="6.62746">
        <ele>2484.6000976562</ele>
        <time>2016-03-07T13:01:02.000Z</time>
      </trkpt>
      <trkpt lat="45.50055" lon="6.62745">
        <ele>2484.6000976562</ele>
        <time>2016-03-07T13:01:03.000Z</time>
      </trkpt>
      <trkpt lat="45.50052" lon="6.62745">
        <ele>2484.3999023438</ele>
        <time>2016-03-07T13:01:09.000Z</time>
      </trkpt>
      <trkpt lat="45.5005" lon="6.62744">
        <ele>2483.6000976562</ele>
        <time>2016-03-07T13:01:16.000Z</time>
      </trkpt>
      <trkpt lat="45.5005" lon="6.62744">
        <ele>2483.6000976562</ele>
        <time>2016-03-07T13:01:17.000Z</time>
      </trkpt>
      <trkpt lat="45.5005" lon="6.62744">
        <ele>2483.1999511719</ele>
        <time>2016-03-07T13:01:33.000Z</time>
      </trkpt>
      <trkpt lat="45.5005" lon="6.62744">
        <ele>2483.1999511719</ele>
        <time>2016-03-07T13:01:46.000Z</time>
      </trkpt>
      <trkpt lat="45.5005" lon="6.62743">
        <ele>2483.1999511719</ele>
        <time>2016-03-07T13:02:04.000Z</time>
      </trkpt>
      <trkpt lat="45.5005" lon="6.62743">
        <ele>2483.1999511719</ele>
        <time>2016-03-07T13:02:22.000Z</time>
      </trkpt>
      <trkpt lat="45.5005" lon="6.62744">
        <ele>2483</ele>
        <time>2016-03-07T13:02:33.000Z</time>
      </trkpt>
      <trkpt lat="45.5005" lon="6.62744">
        <ele>2483.1999511719</ele>
        <time>2016-03-07T13:02:56.000Z</time>
      </trkpt>
      <trkpt lat="45.5005" lon="6.62744">
        <ele>2483</ele>
        <time>2016-03-07T13:03:17.000Z</time>
      </trkpt>
      <trkpt lat="45.5005" lon="6.62744">
        <ele>2482.8000488281</ele>
        <time>2016-03-07T13:03:42.000Z</time>
      </trkpt>
      <trkpt lat="45.5005" lon="6.62744">
        <ele>2482.8000488281</ele>
        <time>2016-03-07T13:04:05.000Z</time>
      </trkpt>
      <trkpt lat="45.5005" lon="6.62744">
        <ele>2482.8000488281</ele>
        <time>2016-03-07T13:04:34.000Z</time>
      </trkpt>
      <trkpt lat="45.5005" lon="6.62744">
        <ele>2482.6000976562</ele>
        <time>2016-03-07T13:05:00.000Z</time>
      </trkpt>
      <trkpt lat="45.5005" lon="6.62744">
        <ele>2482.6000976562</ele>
        <time>2016-03-07T13:05:27.000Z</time>
      </trkpt>
      <trkpt lat="45.5005" lon="6.62744">
        <ele>2482.8000488281</ele>
        <time>2016-03-07T13:05:31.000Z</time>
      </trkpt>
      <trkpt lat="45.5005" lon="6.62744">
        <ele>2483.3999023438</ele>
        <time>2016-03-07T13:05:42.000Z</time>
      </trkpt>
      <trkpt lat="45.5005" lon="6.62742">
        <ele>2483.3999023438</ele>
        <time>2016-03-07T13:05:55.000Z</time>
      </trkpt>
      <trkpt lat="45.5005" lon="6.62743">
        <ele>2483.1999511719</ele>
        <time>2016-03-07T13:06:04.000Z</time>
      </trkpt>
      <trkpt lat="45.5005" lon="6.62743">
        <ele>2482.8000488281</ele>
        <time>2016-03-07T13:06:14.000Z</time>
      </trkpt>
      <trkpt lat="45.5005" lon="6.62743">
        <ele>2482.8000488281</ele>
        <time>2016-03-07T13:06:31.000Z</time>
      </trkpt>
      <trkpt lat="45.5005" lon="6.62743">
        <ele>2482.3999023438</ele>
        <time>2016-03-07T13:06:45.000Z</time>
      </trkpt>
      <trkpt lat="45.5005" lon="6.62743">
        <ele>2482.3999023438</ele>
        <time>2016-03-07T13:06:46.000Z</time>
      </trkpt>
      <trkpt lat="45.5005" lon="6.62743">
        <ele>2483</ele>
        <time>2016-03-07T13:07:00.000Z</time>
      </trkpt>
      <trkpt lat="45.5005" lon="6.62743">
        <ele>2482.6000976562</ele>
        <time>2016-03-07T13:07:10.000Z</time>
      </trkpt>
      <trkpt lat="45.5005" lon="6.62743">
        <ele>2482.6000976562</ele>
        <time>2016-03-07T13:07:25.000Z</time>
      </trkpt>
      <trkpt lat="45.5005" lon="6.62743">
        <ele>2482.8000488281</ele>
        <time>2016-03-07T13:07:43.000Z</time>
      </trkpt>
      <trkpt lat="45.5005" lon="6.62743">
        <ele>2483</ele>
        <time>2016-03-07T13:07:58.000Z</time>
      </trkpt>
      <trkpt lat="45.5005" lon="6.62742">
        <ele>2482.8000488281</ele>
        <time>2016-03-07T13:08:14.000Z</time>
      </trkpt>
      <trkpt lat="45.5005" lon="6.62742">
        <ele>2482.6000976562</ele>
        <time>2016-03-07T13:08:36.000Z</time>
      </trkpt>
      <trkpt lat="45.5005" lon="6.62742">
        <ele>2482.8000488281</ele>
        <time>2016-03-07T13:08:49.000Z</time>
      </trkpt>
      <trkpt lat="45.5005" lon="6.62742">
        <ele>2482.8000488281</ele>
        <time>2016-03-07T13:09:06.000Z</time>
      </trkpt>
      <trkpt lat="45.5005" lon="6.62742">
        <ele>2482.8000488281</ele>
        <time>2016-03-07T13:09:20.000Z</time>
      </trkpt>
      <trkpt lat="45.5005" lon="6.62742">
        <ele>2482.8000488281</ele>
        <time>2016-03-07T13:09:33.000Z</time>
      </trkpt>
      <trkpt lat="45.5005" lon="6.62742">
        <ele>2482.6000976562</ele>
        <time>2016-03-07T13:09:44.000Z</time>
      </trkpt>
      <trkpt lat="45.5005" lon="6.62742">
        <ele>2482.3999023438</ele>
        <time>2016-03-07T13:09:58.000Z</time>
      </trkpt>
      <trkpt lat="45.5005" lon="6.62742">
        <ele>2483</ele>
        <time>2016-03-07T13:10:02.000Z</time>
      </trkpt>
      <trkpt lat="45.5005" lon="6.62742">
        <ele>2483</ele>
        <time>2016-03-07T13:10:14.000Z</time>
      </trkpt>
      <trkpt lat="45.5005" lon="6.62742">
        <ele>2482.6000976562</ele>
        <time>2016-03-07T13:10:25.000Z</time>
      </trkpt>
      <trkpt lat="45.5005" lon="6.62742">
        <ele>2482.8000488281</ele>
        <time>2016-03-07T13:10:38.000Z</time>
      </trkpt>
      <trkpt lat="45.5005" lon="6.62742">
        <ele>2483</ele>
        <time>2016-03-07T13:10:54.000Z</time>
      </trkpt>
      <trkpt lat="45.5005" lon="6.62742">
        <ele>2482.6000976562</ele>
        <time>2016-03-07T13:11:08.000Z</time>
      </trkpt>
      <trkpt lat="45.5005" lon="6.62742">
        <ele>2482.8000488281</ele>
        <time>2016-03-07T13:11:34.000Z</time>
      </trkpt>
      <trkpt lat="45.5005" lon="6.62742">
        <ele>2482.8000488281</ele>
        <time>2016-03-07T13:11:50.000Z</time>
      </trkpt>
      <trkpt lat="45.5005" lon="6.62742">
        <ele>2482.6000976562</ele>
        <time>2016-03-07T13:12:06.000Z</time>
      </trkpt>
      <trkpt lat="45.50049" lon="6.62738">
        <ele>2482.8000488281</ele>
        <time>2016-03-07T13:12:10.000Z</time>
      </trkpt>
      <trkpt lat="45.50049" lon="6.62733">
        <ele>2482.6000976562</ele>
        <time>2016-03-07T13:12:12.000Z</time>
      </trkpt>
      <trkpt lat="45.50047" lon="6.6272">
        <ele>2482</ele>
        <time>2016-03-07T13:12:15.000Z</time>
      </trkpt>
      <trkpt lat="45.50046" lon="6.62714">
        <ele>2481.6000976562</ele>
        <time>2016-03-07T13:12:16.000Z</time>
      </trkpt>
      <trkpt lat="45.50046" lon="6.62708">
        <ele>2481.1999511719</ele>
        <time>2016-03-07T13:12:17.000Z</time>
      </trkpt>
      <trkpt lat="45.50043" lon="6.62701">
        <ele>2479.3999023438</ele>
        <time>2016-03-07T13:12:19.000Z</time>
      </trkpt>
      <trkpt lat="45.50042" lon="6.62699">
        <ele>2478.1999511719</ele>
        <time>2016-03-07T13:12:20.000Z</time>
      </trkpt>
      <trkpt lat="45.50041" lon="6.62698">
        <ele>2477</ele>
        <time>2016-03-07T13:12:21.000Z</time>
      </trkpt>
      <trkpt lat="45.50041" lon="6.62697">
        <ele>2475.8000488281</ele>
        <time>2016-03-07T13:12:22.000Z</time>
      </trkpt>
      <trkpt lat="45.5004" lon="6.62696">
        <ele>2474.8000488281</ele>
        <time>2016-03-07T13:12:23.000Z</time>
      </trkpt>
      <trkpt lat="45.50037" lon="6.62686">
        <ele>2473.6000976562</ele>
        <time>2016-03-07T13:12:25.000Z</time>
      </trkpt>
      <trkpt lat="45.50033" lon="6.6267">
        <ele>2472.8000488281</ele>
        <time>2016-03-07T13:12:27.000Z</time>
      </trkpt>
      <trkpt lat="45.5003" lon="6.62661">
        <ele>2472.1999511719</ele>
        <time>2016-03-07T13:12:28.000Z</time>
      </trkpt>
      <trkpt lat="45.50028" lon="6.62653">
        <ele>2471.1999511719</ele>
        <time>2016-03-07T13:12:29.000Z</time>
      </trkpt>
      <trkpt lat="45.50026" lon="6.62645">
        <ele>2469.6000976562</ele>
        <time>2016-03-07T13:12:30.000Z</time>
      </trkpt>
      <trkpt lat="45.50024" lon="6.62638">
        <ele>2467.8000488281</ele>
        <time>2016-03-07T13:12:31.000Z</time>
      </trkpt>
      <trkpt lat="45.50022" lon="6.62629">
        <ele>2466.1999511719</ele>
        <time>2016-03-07T13:12:32.000Z</time>
      </trkpt>
      <trkpt lat="45.5002" lon="6.62621">
        <ele>2464.6000976562</ele>
        <time>2016-03-07T13:12:33.000Z</time>
      </trkpt>
      <trkpt lat="45.50019" lon="6.62614">
        <ele>2463</ele>
        <time>2016-03-07T13:12:34.000Z</time>
      </trkpt>
      <trkpt lat="45.50017" lon="6.62606">
        <ele>2461.3999023438</ele>
        <time>2016-03-07T13:12:35.000Z</time>
      </trkpt>
      <trkpt lat="45.50015" lon="6.62599">
        <ele>2458.6000976562</ele>
        <time>2016-03-07T13:12:36.000Z</time>
      </trkpt>
      <trkpt lat="45.50013" lon="6.62592">
        <ele>2457</ele>
        <time>2016-03-07T13:12:37.000Z</time>
      </trkpt>
      <trkpt lat="45.5001" lon="6.62586">
        <ele>2455.6000976562</ele>
        <time>2016-03-07T13:12:38.000Z</time>
      </trkpt>
      <trkpt lat="45.50008" lon="6.6258">
        <ele>2454.3999023438</ele>
        <time>2016-03-07T13:12:39.000Z</time>
      </trkpt>
      <trkpt lat="45.50004" lon="6.62575">
        <ele>2452.8000488281</ele>
        <time>2016-03-07T13:12:40.000Z</time>
      </trkpt>
      <trkpt lat="45.50001" lon="6.62569">
        <ele>2451.1999511719</ele>
        <time>2016-03-07T13:12:41.000Z</time>
      </trkpt>
      <trkpt lat="45.49997" lon="6.62562">
        <ele>2449.6000976562</ele>
        <time>2016-03-07T13:12:42.000Z</time>
      </trkpt>
      <trkpt lat="45.49994" lon="6.62556">
        <ele>2448.1999511719</ele>
        <time>2016-03-07T13:12:43.000Z</time>
      </trkpt>
      <trkpt lat="45.49991" lon="6.62551">
        <ele>2446.6000976562</ele>
        <time>2016-03-07T13:12:44.000Z</time>
      </trkpt>
      <trkpt lat="45.49986" lon="6.62547">
        <ele>2444.8000488281</ele>
        <time>2016-03-07T13:12:45.000Z</time>
      </trkpt>
      <trkpt lat="45.49981" lon="6.62543">
        <ele>2443.1999511719</ele>
        <time>2016-03-07T13:12:46.000Z</time>
      </trkpt>
      <trkpt lat="45.49975" lon="6.6254">
        <ele>2441.3999023438</ele>
        <time>2016-03-07T13:12:47.000Z</time>
      </trkpt>
      <trkpt lat="45.4997" lon="6.62536">
        <ele>2439.6000976562</ele>
        <time>2016-03-07T13:12:48.000Z</time>
      </trkpt>
      <trkpt lat="45.49965" lon="6.62531">
        <ele>2437.6000976562</ele>
        <time>2016-03-07T13:12:49.000Z</time>
      </trkpt>
      <trkpt lat="45.49961" lon="6.62525">
        <ele>2435.3999023438</ele>
        <time>2016-03-07T13:12:50.000Z</time>
      </trkpt>
      <trkpt lat="45.49956" lon="6.62518">
        <ele>2433.8000488281</ele>
        <time>2016-03-07T13:12:51.000Z</time>
      </trkpt>
      <trkpt lat="45.49953" lon="6.6251">
        <ele>2432.3999023438</ele>
        <time>2016-03-07T13:12:52.000Z</time>
      </trkpt>
      <trkpt lat="45.4995" lon="6.62502">
        <ele>2430.6000976562</ele>
        <time>2016-03-07T13:12:53.000Z</time>
      </trkpt>
      <trkpt lat="45.49947" lon="6.62495">
        <ele>2428.6000976562</ele>
        <time>2016-03-07T13:12:54.000Z</time>
      </trkpt>
      <trkpt lat="45.49944" lon="6.62487">
        <ele>2426.6000976562</ele>
        <time>2016-03-07T13:12:55.000Z</time>
      </trkpt>
      <trkpt lat="45.49941" lon="6.62481">
        <ele>2424.6000976562</ele>
        <time>2016-03-07T13:12:56.000Z</time>
      </trkpt>
      <trkpt lat="45.49937" lon="6.62474">
        <ele>2422.6000976562</ele>
        <time>2016-03-07T13:12:57.000Z</time>
      </trkpt>
      <trkpt lat="45.49933" lon="6.62469">
        <ele>2420.3999023438</ele>
        <time>2016-03-07T13:12:58.000Z</time>
      </trkpt>
      <trkpt lat="45.49931" lon="6.62464">
        <ele>2418.3999023438</ele>
        <time>2016-03-07T13:12:59.000Z</time>
      </trkpt>
      <trkpt lat="45.49931" lon="6.62458">
        <ele>2414.3999023438</ele>
        <time>2016-03-07T13:13:00.000Z</time>
      </trkpt>
      <trkpt lat="45.49932" lon="6.62452">
        <ele>2412.3999023438</ele>
        <time>2016-03-07T13:13:01.000Z</time>
      </trkpt>
      <trkpt lat="45.49932" lon="6.62445">
        <ele>2410.6000976562</ele>
        <time>2016-03-07T13:13:02.000Z</time>
      </trkpt>
      <trkpt lat="45.49931" lon="6.62441">
        <ele>2409.3999023438</ele>
        <time>2016-03-07T13:13:03.000Z</time>
      </trkpt>
      <trkpt lat="45.49931" lon="6.62438">
        <ele>2408.1999511719</ele>
        <time>2016-03-07T13:13:04.000Z</time>
      </trkpt>
      <trkpt lat="45.4993" lon="6.62437">
        <ele>2406.8000488281</ele>
        <time>2016-03-07T13:13:05.000Z</time>
      </trkpt>
      <trkpt lat="45.49929" lon="6.62436">
        <ele>2405</ele>
        <time>2016-03-07T13:13:06.000Z</time>
      </trkpt>
      <trkpt lat="45.49929" lon="6.62436">
        <ele>2403.3999023438</ele>
        <time>2016-03-07T13:13:07.000Z</time>
      </trkpt>
      <trkpt lat="45.49929" lon="6.62436">
        <ele>2402.1999511719</ele>
        <time>2016-03-07T13:13:08.000Z</time>
      </trkpt>
      <trkpt lat="45.49929" lon="6.62436">
        <ele>2401.1999511719</ele>
        <time>2016-03-07T13:13:10.000Z</time>
      </trkpt>
      <trkpt lat="45.49929" lon="6.62436">
        <ele>2401</ele>
        <time>2016-03-07T13:13:11.000Z</time>
      </trkpt>
      <trkpt lat="45.49929" lon="6.62435">
        <ele>2400.8000488281</ele>
        <time>2016-03-07T13:13:22.000Z</time>
      </trkpt>
      <trkpt lat="45.49926" lon="6.62435">
        <ele>2400.8000488281</ele>
        <time>2016-03-07T13:13:23.000Z</time>
      </trkpt>
      <trkpt lat="45.4992" lon="6.62432">
        <ele>2400.6000976562</ele>
        <time>2016-03-07T13:13:25.000Z</time>
      </trkpt>
      <trkpt lat="45.49918" lon="6.62427">
        <ele>2400.1999511719</ele>
        <time>2016-03-07T13:13:26.000Z</time>
      </trkpt>
      <trkpt lat="45.49916" lon="6.62423">
        <ele>2399.3999023438</ele>
        <time>2016-03-07T13:13:27.000Z</time>
      </trkpt>
      <trkpt lat="45.49913" lon="6.62422">
        <ele>2398.6000976562</ele>
        <time>2016-03-07T13:13:28.000Z</time>
      </trkpt>
      <trkpt lat="45.49909" lon="6.62421">
        <ele>2397.8000488281</ele>
        <time>2016-03-07T13:13:29.000Z</time>
      </trkpt>
      <trkpt lat="45.49906" lon="6.62423">
        <ele>2396.6000976562</ele>
        <time>2016-03-07T13:13:30.000Z</time>
      </trkpt>
      <trkpt lat="45.49904" lon="6.62425">
        <ele>2395.1999511719</ele>
        <time>2016-03-07T13:13:31.000Z</time>
      </trkpt>
      <trkpt lat="45.49904" lon="6.62426">
        <ele>2393.3999023438</ele>
        <time>2016-03-07T13:13:32.000Z</time>
      </trkpt>
      <trkpt lat="45.49903" lon="6.62426">
        <ele>2392</ele>
        <time>2016-03-07T13:13:33.000Z</time>
      </trkpt>
      <trkpt lat="45.49901" lon="6.62428">
        <ele>2390.6000976562</ele>
        <time>2016-03-07T13:13:34.000Z</time>
      </trkpt>
      <trkpt lat="45.49898" lon="6.62428">
        <ele>2389.6000976562</ele>
        <time>2016-03-07T13:13:35.000Z</time>
      </trkpt>
      <trkpt lat="45.49895" lon="6.62419">
        <ele>2387.8000488281</ele>
        <time>2016-03-07T13:13:37.000Z</time>
      </trkpt>
      <trkpt lat="45.49891" lon="6.62415">
        <ele>2386</ele>
        <time>2016-03-07T13:13:39.000Z</time>
      </trkpt>
      <trkpt lat="45.49888" lon="6.62415">
        <ele>2384.8000488281</ele>
        <time>2016-03-07T13:13:40.000Z</time>
      </trkpt>
      <trkpt lat="45.49885" lon="6.62412">
        <ele>2383.3999023438</ele>
        <time>2016-03-07T13:13:41.000Z</time>
      </trkpt>
      <trkpt lat="45.49883" lon="6.62407">
        <ele>2381.8000488281</ele>
        <time>2016-03-07T13:13:42.000Z</time>
      </trkpt>
      <trkpt lat="45.4988" lon="6.62404">
        <ele>2379.8000488281</ele>
        <time>2016-03-07T13:13:43.000Z</time>
      </trkpt>
      <trkpt lat="45.49878" lon="6.62402">
        <ele>2377.6000976562</ele>
        <time>2016-03-07T13:13:44.000Z</time>
      </trkpt>
      <trkpt lat="45.49875" lon="6.62399">
        <ele>2375.6000976562</ele>
        <time>2016-03-07T13:13:45.000Z</time>
      </trkpt>
      <trkpt lat="45.4987" lon="6.624">
        <ele>2373.8000488281</ele>
        <time>2016-03-07T13:13:46.000Z</time>
      </trkpt>
      <trkpt lat="45.49863" lon="6.62402">
        <ele>2372</ele>
        <time>2016-03-07T13:13:47.000Z</time>
      </trkpt>
      <trkpt lat="45.49856" lon="6.62404">
        <ele>2369.3999023438</ele>
        <time>2016-03-07T13:13:48.000Z</time>
      </trkpt>
      <trkpt lat="45.49848" lon="6.62404">
        <ele>2363.3999023438</ele>
        <time>2016-03-07T13:13:49.000Z</time>
      </trkpt>
      <trkpt lat="45.4984" lon="6.62403">
        <ele>2360.1999511719</ele>
        <time>2016-03-07T13:13:50.000Z</time>
      </trkpt>
      <trkpt lat="45.49833" lon="6.624">
        <ele>2357.3999023438</ele>
        <time>2016-03-07T13:13:51.000Z</time>
      </trkpt>
      <trkpt lat="45.49826" lon="6.62396">
        <ele>2355</ele>
        <time>2016-03-07T13:13:52.000Z</time>
      </trkpt>
      <trkpt lat="45.49819" lon="6.62391">
        <ele>2352.8000488281</ele>
        <time>2016-03-07T13:13:53.000Z</time>
      </trkpt>
      <trkpt lat="45.49813" lon="6.62386">
        <ele>2350.6000976562</ele>
        <time>2016-03-07T13:13:54.000Z</time>
      </trkpt>
      <trkpt lat="45.49806" lon="6.62381">
        <ele>2348.6000976562</ele>
        <time>2016-03-07T13:13:55.000Z</time>
      </trkpt>
      <trkpt lat="45.498" lon="6.62375">
        <ele>2346.8000488281</ele>
        <time>2016-03-07T13:13:56.000Z</time>
      </trkpt>
      <trkpt lat="45.49794" lon="6.62368">
        <ele>2345</ele>
        <time>2016-03-07T13:13:57.000Z</time>
      </trkpt>
      <trkpt lat="45.49788" lon="6.62363">
        <ele>2343.8000488281</ele>
        <time>2016-03-07T13:13:58.000Z</time>
      </trkpt>
      <trkpt lat="45.49783" lon="6.62357">
        <ele>2342.8000488281</ele>
        <time>2016-03-07T13:13:59.000Z</time>
      </trkpt>
      <trkpt lat="45.49778" lon="6.62352">
        <ele>2341.6000976562</ele>
        <time>2016-03-07T13:14:00.000Z</time>
      </trkpt>
      <trkpt lat="45.49773" lon="6.62348">
        <ele>2340.3999023438</ele>
        <time>2016-03-07T13:14:01.000Z</time>
      </trkpt>
      <trkpt lat="45.49769" lon="6.62343">
        <ele>2339.3999023438</ele>
        <time>2016-03-07T13:14:02.000Z</time>
      </trkpt>
      <trkpt lat="45.4976" lon="6.62336">
        <ele>2338</ele>
        <time>2016-03-07T13:14:04.000Z</time>
      </trkpt>
      <trkpt lat="45.49752" lon="6.6233">
        <ele>2336.8000488281</ele>
        <time>2016-03-07T13:14:06.000Z</time>
      </trkpt>
      <trkpt lat="45.49748" lon="6.62327">
        <ele>2336.1999511719</ele>
        <time>2016-03-07T13:14:07.000Z</time>
      </trkpt>
      <trkpt lat="45.49743" lon="6.62324">
        <ele>2335.8000488281</ele>
        <time>2016-03-07T13:14:08.000Z</time>
      </trkpt>
      <trkpt lat="45.49733" lon="6.6232">
        <ele>2334.6000976562</ele>
        <time>2016-03-07T13:14:10.000Z</time>
      </trkpt>
      <trkpt lat="45.49728" lon="6.62318">
        <ele>2334</ele>
        <time>2016-03-07T13:14:11.000Z</time>
      </trkpt>
      <trkpt lat="45.49724" lon="6.62315">
        <ele>2333</ele>
        <time>2016-03-07T13:14:12.000Z</time>
      </trkpt>
      <trkpt lat="45.4972" lon="6.62313">
        <ele>2331</ele>
        <time>2016-03-07T13:14:13.000Z</time>
      </trkpt>
      <trkpt lat="45.49709" lon="6.62307">
        <ele>2329</ele>
        <time>2016-03-07T13:14:15.000Z</time>
      </trkpt>
      <trkpt lat="45.49702" lon="6.62307">
        <ele>2327.8000488281</ele>
        <time>2016-03-07T13:14:16.000Z</time>
      </trkpt>
      <trkpt lat="45.49697" lon="6.62308">
        <ele>2326.6000976562</ele>
        <time>2016-03-07T13:14:17.000Z</time>
      </trkpt>
      <trkpt lat="45.49692" lon="6.62309">
        <ele>2325.1999511719</ele>
        <time>2016-03-07T13:14:18.000Z</time>
      </trkpt>
      <trkpt lat="45.4969" lon="6.62311">
        <ele>2323.3999023438</ele>
        <time>2016-03-07T13:14:19.000Z</time>
      </trkpt>
      <trkpt lat="45.49688" lon="6.62312">
        <ele>2321.8000488281</ele>
        <time>2016-03-07T13:14:20.000Z</time>
      </trkpt>
      <trkpt lat="45.49687" lon="6.62312">
        <ele>2320.8000488281</ele>
        <time>2016-03-07T13:14:21.000Z</time>
      </trkpt>
      <trkpt lat="45.49687" lon="6.62311">
        <ele>2319.3999023438</ele>
        <time>2016-03-07T13:14:23.000Z</time>
      </trkpt>
      <trkpt lat="45.49687" lon="6.62311">
        <ele>2318.6000976562</ele>
        <time>2016-03-07T13:14:25.000Z</time>
      </trkpt>
      <trkpt lat="45.49687" lon="6.62311">
        <ele>2318.3999023438</ele>
        <time>2016-03-07T13:14:26.000Z</time>
      </trkpt>
      <trkpt lat="45.49684" lon="6.62319">
        <ele>2318</ele>
        <time>2016-03-07T13:14:29.000Z</time>
      </trkpt>
      <trkpt lat="45.49681" lon="6.62323">
        <ele>2318</ele>
        <time>2016-03-07T13:14:30.000Z</time>
      </trkpt>
      <trkpt lat="45.49674" lon="6.62331">
        <ele>2317.3999023438</ele>
        <time>2016-03-07T13:14:32.000Z</time>
      </trkpt>
      <trkpt lat="45.49672" lon="6.62337">
        <ele>2316.8000488281</ele>
        <time>2016-03-07T13:14:33.000Z</time>
      </trkpt>
      <trkpt lat="45.49667" lon="6.62346">
        <ele>2315</ele>
        <time>2016-03-07T13:14:35.000Z</time>
      </trkpt>
      <trkpt lat="45.49662" lon="6.62348">
        <ele>2313.8000488281</ele>
        <time>2016-03-07T13:14:36.000Z</time>
      </trkpt>
      <trkpt lat="45.49657" lon="6.62348">
        <ele>2310.1999511719</ele>
        <time>2016-03-07T13:14:37.000Z</time>
      </trkpt>
      <trkpt lat="45.4965" lon="6.62346">
        <ele>2308.6000976562</ele>
        <time>2016-03-07T13:14:38.000Z</time>
      </trkpt>
      <trkpt lat="45.49643" lon="6.62345">
        <ele>2307</ele>
        <time>2016-03-07T13:14:39.000Z</time>
      </trkpt>
      <trkpt lat="45.49636" lon="6.62343">
        <ele>2305</ele>
        <time>2016-03-07T13:14:40.000Z</time>
      </trkpt>
      <trkpt lat="45.49629" lon="6.62342">
        <ele>2302.8000488281</ele>
        <time>2016-03-07T13:14:41.000Z</time>
      </trkpt>
      <trkpt lat="45.49622" lon="6.62341">
        <ele>2300.3999023438</ele>
        <time>2016-03-07T13:14:42.000Z</time>
      </trkpt>
      <trkpt lat="45.49615" lon="6.62339">
        <ele>2298</ele>
        <time>2016-03-07T13:14:43.000Z</time>
      </trkpt>
      <trkpt lat="45.49607" lon="6.62338">
        <ele>2295.6000976562</ele>
        <time>2016-03-07T13:14:44.000Z</time>
      </trkpt>
      <trkpt lat="45.49599" lon="6.62338">
        <ele>2293.3999023438</ele>
        <time>2016-03-07T13:14:45.000Z</time>
      </trkpt>
      <trkpt lat="45.49591" lon="6.62337">
        <ele>2291.1999511719</ele>
        <time>2016-03-07T13:14:46.000Z</time>
      </trkpt>
      <trkpt lat="45.49584" lon="6.62334">
        <ele>2289</ele>
        <time>2016-03-07T13:14:47.000Z</time>
      </trkpt>
      <trkpt lat="45.49577" lon="6.62331">
        <ele>2287</ele>
        <time>2016-03-07T13:14:48.000Z</time>
      </trkpt>
      <trkpt lat="45.49571" lon="6.62325">
        <ele>2285.1999511719</ele>
        <time>2016-03-07T13:14:49.000Z</time>
      </trkpt>
      <trkpt lat="45.49565" lon="6.62319">
        <ele>2283.3999023438</ele>
        <time>2016-03-07T13:14:50.000Z</time>
      </trkpt>
      <trkpt lat="45.49561" lon="6.62311">
        <ele>2281.8000488281</ele>
        <time>2016-03-07T13:14:51.000Z</time>
      </trkpt>
      <trkpt lat="45.49559" lon="6.62304">
        <ele>2280.1999511719</ele>
        <time>2016-03-07T13:14:52.000Z</time>
      </trkpt>
      <trkpt lat="45.49557" lon="6.62297">
        <ele>2278.6000976562</ele>
        <time>2016-03-07T13:14:53.000Z</time>
      </trkpt>
      <trkpt lat="45.49557" lon="6.62292">
        <ele>2277.3999023438</ele>
        <time>2016-03-07T13:14:54.000Z</time>
      </trkpt>
      <trkpt lat="45.49561" lon="6.62287">
        <ele>2275.8000488281</ele>
        <time>2016-03-07T13:14:56.000Z</time>
      </trkpt>
      <trkpt lat="45.49561" lon="6.62287">
        <ele>2275</ele>
        <time>2016-03-07T13:14:57.000Z</time>
      </trkpt>
      <trkpt lat="45.49561" lon="6.62287">
        <ele>2274.1999511719</ele>
        <time>2016-03-07T13:14:58.000Z</time>
      </trkpt>
      <trkpt lat="45.49561" lon="6.62287">
        <ele>2273.1999511719</ele>
        <time>2016-03-07T13:15:00.000Z</time>
      </trkpt>
      <trkpt lat="45.49561" lon="6.62287">
        <ele>2272.6000976562</ele>
        <time>2016-03-07T13:15:04.000Z</time>
      </trkpt>
      <trkpt lat="45.49561" lon="6.62287">
        <ele>2273.1999511719</ele>
        <time>2016-03-07T13:15:10.000Z</time>
      </trkpt>
      <trkpt lat="45.49561" lon="6.62287">
        <ele>2272.8000488281</ele>
        <time>2016-03-07T13:15:22.000Z</time>
      </trkpt>
      <trkpt lat="45.49568" lon="6.62285">
        <ele>2272.8000488281</ele>
        <time>2016-03-07T13:15:44.000Z</time>
      </trkpt>
      <trkpt lat="45.49568" lon="6.62285">
        <ele>2272.8000488281</ele>
        <time>2016-03-07T13:15:58.000Z</time>
      </trkpt>
      <trkpt lat="45.49567" lon="6.62284">
        <ele>2272.3999023438</ele>
        <time>2016-03-07T13:16:05.000Z</time>
      </trkpt>
      <trkpt lat="45.49571" lon="6.62276">
        <ele>2272.1999511719</ele>
        <time>2016-03-07T13:16:07.000Z</time>
      </trkpt>
      <trkpt lat="45.49575" lon="6.62265">
        <ele>2272.1999511719</ele>
        <time>2016-03-07T13:16:09.000Z</time>
      </trkpt>
      <trkpt lat="45.49577" lon="6.62258">
        <ele>2272</ele>
        <time>2016-03-07T13:16:10.000Z</time>
      </trkpt>
      <trkpt lat="45.49581" lon="6.62241">
        <ele>2271.6000976562</ele>
        <time>2016-03-07T13:16:12.000Z</time>
      </trkpt>
      <trkpt lat="45.49583" lon="6.62236">
        <ele>2270.8000488281</ele>
        <time>2016-03-07T13:16:13.000Z</time>
      </trkpt>
      <trkpt lat="45.49583" lon="6.62231">
        <ele>2270</ele>
        <time>2016-03-07T13:16:14.000Z</time>
      </trkpt>
      <trkpt lat="45.49582" lon="6.62226">
        <ele>2269</ele>
        <time>2016-03-07T13:16:15.000Z</time>
      </trkpt>
      <trkpt lat="45.49582" lon="6.62219">
        <ele>2268</ele>
        <time>2016-03-07T13:16:16.000Z</time>
      </trkpt>
      <trkpt lat="45.49584" lon="6.62213">
        <ele>2267</ele>
        <time>2016-03-07T13:16:17.000Z</time>
      </trkpt>
      <trkpt lat="45.49586" lon="6.62207">
        <ele>2265.8000488281</ele>
        <time>2016-03-07T13:16:18.000Z</time>
      </trkpt>
      <trkpt lat="45.4959" lon="6.62201">
        <ele>2264.6000976562</ele>
        <time>2016-03-07T13:16:19.000Z</time>
      </trkpt>
      <trkpt lat="45.49598" lon="6.62188">
        <ele>2262.6000976562</ele>
        <time>2016-03-07T13:16:21.000Z</time>
      </trkpt>
      <trkpt lat="45.49603" lon="6.6218">
        <ele>2261.1999511719</ele>
        <time>2016-03-07T13:16:22.000Z</time>
      </trkpt>
      <trkpt lat="45.49608" lon="6.62173">
        <ele>2259.6000976562</ele>
        <time>2016-03-07T13:16:23.000Z</time>
      </trkpt>
      <trkpt lat="45.49613" lon="6.62166">
        <ele>2257.8000488281</ele>
        <time>2016-03-07T13:16:24.000Z</time>
      </trkpt>
      <trkpt lat="45.49619" lon="6.62159">
        <ele>2256.3999023438</ele>
        <time>2016-03-07T13:16:25.000Z</time>
      </trkpt>
      <trkpt lat="45.49625" lon="6.62152">
        <ele>2255.3999023438</ele>
        <time>2016-03-07T13:16:26.000Z</time>
      </trkpt>
      <trkpt lat="45.49631" lon="6.62145">
        <ele>2254.1999511719</ele>
        <time>2016-03-07T13:16:27.000Z</time>
      </trkpt>
      <trkpt lat="45.49637" lon="6.62138">
        <ele>2253.1999511719</ele>
        <time>2016-03-07T13:16:28.000Z</time>
      </trkpt>
      <trkpt lat="45.49644" lon="6.62131">
        <ele>2252</ele>
        <time>2016-03-07T13:16:29.000Z</time>
      </trkpt>
      <trkpt lat="45.4965" lon="6.62124">
        <ele>2250.6000976562</ele>
        <time>2016-03-07T13:16:30.000Z</time>
      </trkpt>
      <trkpt lat="45.49656" lon="6.62117">
        <ele>2249.3999023438</ele>
        <time>2016-03-07T13:16:31.000Z</time>
      </trkpt>
      <trkpt lat="45.49662" lon="6.62109">
        <ele>2248</ele>
        <time>2016-03-07T13:16:32.000Z</time>
      </trkpt>
      <trkpt lat="45.49667" lon="6.62101">
        <ele>2247</ele>
        <time>2016-03-07T13:16:33.000Z</time>
      </trkpt>
      <trkpt lat="45.49669" lon="6.62091">
        <ele>2245.8000488281</ele>
        <time>2016-03-07T13:16:34.000Z</time>
      </trkpt>
      <trkpt lat="45.4967" lon="6.6208">
        <ele>2244.8000488281</ele>
        <time>2016-03-07T13:16:35.000Z</time>
      </trkpt>
      <trkpt lat="45.4967" lon="6.62071">
        <ele>2243.6000976562</ele>
        <time>2016-03-07T13:16:36.000Z</time>
      </trkpt>
      <trkpt lat="45.4967" lon="6.62062">
        <ele>2241</ele>
        <time>2016-03-07T13:16:37.000Z</time>
      </trkpt>
      <trkpt lat="45.49669" lon="6.62053">
        <ele>2239.8000488281</ele>
        <time>2016-03-07T13:16:38.000Z</time>
      </trkpt>
      <trkpt lat="45.49667" lon="6.62045">
        <ele>2238.3999023438</ele>
        <time>2016-03-07T13:16:39.000Z</time>
      </trkpt>
      <trkpt lat="45.49665" lon="6.62036">
        <ele>2237</ele>
        <time>2016-03-07T13:16:40.000Z</time>
      </trkpt>
      <trkpt lat="45.49664" lon="6.62029">
        <ele>2235.3999023438</ele>
        <time>2016-03-07T13:16:41.000Z</time>
      </trkpt>
      <trkpt lat="45.49663" lon="6.62024">
        <ele>2234.1999511719</ele>
        <time>2016-03-07T13:16:42.000Z</time>
      </trkpt>
      <trkpt lat="45.49663" lon="6.62021">
        <ele>2232.8000488281</ele>
        <time>2016-03-07T13:16:43.000Z</time>
      </trkpt>
      <trkpt lat="45.49663" lon="6.62021">
        <ele>2231.3999023438</ele>
        <time>2016-03-07T13:16:44.000Z</time>
      </trkpt>
      <trkpt lat="45.49663" lon="6.62021">
        <ele>2229.8000488281</ele>
        <time>2016-03-07T13:16:45.000Z</time>
      </trkpt>
      <trkpt lat="45.49663" lon="6.62021">
        <ele>2228.8000488281</ele>
        <time>2016-03-07T13:16:46.000Z</time>
      </trkpt>
      <trkpt lat="45.49663" lon="6.62021">
        <ele>2228</ele>
        <time>2016-03-07T13:16:47.000Z</time>
      </trkpt>
      <trkpt lat="45.49663" lon="6.62021">
        <ele>2227.3999023438</ele>
        <time>2016-03-07T13:16:48.000Z</time>
      </trkpt>
      <trkpt lat="45.49662" lon="6.62018">
        <ele>2227</ele>
        <time>2016-03-07T13:16:52.000Z</time>
      </trkpt>
      <trkpt lat="45.49662" lon="6.62015">
        <ele>2227</ele>
        <time>2016-03-07T13:16:53.000Z</time>
      </trkpt>
      <trkpt lat="45.49655" lon="6.61994">
        <ele>2226.1999511719</ele>
        <time>2016-03-07T13:16:58.000Z</time>
      </trkpt>
      <trkpt lat="45.49653" lon="6.61981">
        <ele>2223.8000488281</ele>
        <time>2016-03-07T13:17:01.000Z</time>
      </trkpt>
      <trkpt lat="45.49652" lon="6.61972">
        <ele>2222.6000976562</ele>
        <time>2016-03-07T13:17:03.000Z</time>
      </trkpt>
      <trkpt lat="45.49652" lon="6.61968">
        <ele>2222</ele>
        <time>2016-03-07T13:17:04.000Z</time>
      </trkpt>
      <trkpt lat="45.49653" lon="6.61963">
        <ele>2221.3999023438</ele>
        <time>2016-03-07T13:17:05.000Z</time>
      </trkpt>
      <trkpt lat="45.49656" lon="6.61955">
        <ele>2220</ele>
        <time>2016-03-07T13:17:07.000Z</time>
      </trkpt>
      <trkpt lat="45.49659" lon="6.61949">
        <ele>2218.8000488281</ele>
        <time>2016-03-07T13:17:09.000Z</time>
      </trkpt>
      <trkpt lat="45.49661" lon="6.61947">
        <ele>2218.1999511719</ele>
        <time>2016-03-07T13:17:10.000Z</time>
      </trkpt>
      <trkpt lat="45.49663" lon="6.61946">
        <ele>2217.3999023438</ele>
        <time>2016-03-07T13:17:11.000Z</time>
      </trkpt>
      <trkpt lat="45.49666" lon="6.61947">
        <ele>2216</ele>
        <time>2016-03-07T13:17:13.000Z</time>
      </trkpt>
      <trkpt lat="45.49667" lon="6.61947">
        <ele>2215</ele>
        <time>2016-03-07T13:17:15.000Z</time>
      </trkpt>
      <trkpt lat="45.49667" lon="6.61947">
        <ele>2213.8000488281</ele>
        <time>2016-03-07T13:17:19.000Z</time>
      </trkpt>
      <trkpt lat="45.49669" lon="6.61946">
        <ele>2213.8000488281</ele>
        <time>2016-03-07T13:17:20.000Z</time>
      </trkpt>
      <trkpt lat="45.49679" lon="6.61943">
        <ele>2213.3999023438</ele>
        <time>2016-03-07T13:17:24.000Z</time>
      </trkpt>
      <trkpt lat="45.49682" lon="6.61942">
        <ele>2212.6000976562</ele>
        <time>2016-03-07T13:17:25.000Z</time>
      </trkpt>
      <trkpt lat="45.49685" lon="6.6194">
        <ele>2212</ele>
        <time>2016-03-07T13:17:26.000Z</time>
      </trkpt>
      <trkpt lat="45.49688" lon="6.61935">
        <ele>2211.1999511719</ele>
        <time>2016-03-07T13:17:27.000Z</time>
      </trkpt>
      <trkpt lat="45.49691" lon="6.61927">
        <ele>2210.6000976562</ele>
        <time>2016-03-07T13:17:28.000Z</time>
      </trkpt>
      <trkpt lat="45.49694" lon="6.61918">
        <ele>2209.6000976562</ele>
        <time>2016-03-07T13:17:29.000Z</time>
      </trkpt>
      <trkpt lat="45.49697" lon="6.6191">
        <ele>2208.3999023438</ele>
        <time>2016-03-07T13:17:30.000Z</time>
      </trkpt>
      <trkpt lat="45.497" lon="6.61902">
        <ele>2207</ele>
        <time>2016-03-07T13:17:31.000Z</time>
      </trkpt>
      <trkpt lat="45.49703" lon="6.61896">
        <ele>2205.6000976562</ele>
        <time>2016-03-07T13:17:32.000Z</time>
      </trkpt>
      <trkpt lat="45.49707" lon="6.61891">
        <ele>2204.1999511719</ele>
        <time>2016-03-07T13:17:33.000Z</time>
      </trkpt>
      <trkpt lat="45.4971" lon="6.61886">
        <ele>2202.3999023438</ele>
        <time>2016-03-07T13:17:34.000Z</time>
      </trkpt>
      <trkpt lat="45.49713" lon="6.61882">
        <ele>2201</ele>
        <time>2016-03-07T13:17:35.000Z</time>
      </trkpt>
      <trkpt lat="45.49716" lon="6.61881">
        <ele>2199.3999023438</ele>
        <time>2016-03-07T13:17:36.000Z</time>
      </trkpt>
      <trkpt lat="45.49718" lon="6.61881">
        <ele>2197.6000976562</ele>
        <time>2016-03-07T13:17:37.000Z</time>
      </trkpt>
      <trkpt lat="45.49719" lon="6.61882">
        <ele>2195.6000976562</ele>
        <time>2016-03-07T13:17:38.000Z</time>
      </trkpt>
      <trkpt lat="45.4972" lon="6.61882">
        <ele>2194</ele>
        <time>2016-03-07T13:17:39.000Z</time>
      </trkpt>
      <trkpt lat="45.4972" lon="6.61882">
        <ele>2192.8000488281</ele>
        <time>2016-03-07T13:17:40.000Z</time>
      </trkpt>
      <trkpt lat="45.4972" lon="6.61882">
        <ele>2191.1999511719</ele>
        <time>2016-03-07T13:17:42.000Z</time>
      </trkpt>
      <trkpt lat="45.49719" lon="6.61879">
        <ele>2190.1999511719</ele>
        <time>2016-03-07T13:17:45.000Z</time>
      </trkpt>
      <trkpt lat="45.49714" lon="6.61866">
        <ele>2190.1999511719</ele>
        <time>2016-03-07T13:17:47.000Z</time>
      </trkpt>
      <trkpt lat="45.49713" lon="6.61857">
        <ele>2190</ele>
        <time>2016-03-07T13:17:48.000Z</time>
      </trkpt>
      <trkpt lat="45.49713" lon="6.61848">
        <ele>2189.1999511719</ele>
        <time>2016-03-07T13:17:49.000Z</time>
      </trkpt>
      <trkpt lat="45.49714" lon="6.61839">
        <ele>2187.8000488281</ele>
        <time>2016-03-07T13:17:50.000Z</time>
      </trkpt>
      <trkpt lat="45.49713" lon="6.61832">
        <ele>2186.3999023438</ele>
        <time>2016-03-07T13:17:51.000Z</time>
      </trkpt>
      <trkpt lat="45.49714" lon="6.61824">
        <ele>2184.8000488281</ele>
        <time>2016-03-07T13:17:52.000Z</time>
      </trkpt>
      <trkpt lat="45.49713" lon="6.61817">
        <ele>2183.3999023438</ele>
        <time>2016-03-07T13:17:53.000Z</time>
      </trkpt>
      <trkpt lat="45.4971" lon="6.6181">
        <ele>2181.6000976562</ele>
        <time>2016-03-07T13:17:54.000Z</time>
      </trkpt>
      <trkpt lat="45.49708" lon="6.61804">
        <ele>2180</ele>
        <time>2016-03-07T13:17:55.000Z</time>
      </trkpt>
      <trkpt lat="45.49706" lon="6.61801">
        <ele>2178</ele>
        <time>2016-03-07T13:17:56.000Z</time>
      </trkpt>
      <trkpt lat="45.49704" lon="6.618">
        <ele>2176.1999511719</ele>
        <time>2016-03-07T13:17:57.000Z</time>
      </trkpt>
      <trkpt lat="45.49704" lon="6.61799">
        <ele>2174</ele>
        <time>2016-03-07T13:17:58.000Z</time>
      </trkpt>
      <trkpt lat="45.49703" lon="6.61799">
        <ele>2172.1999511719</ele>
        <time>2016-03-07T13:17:59.000Z</time>
      </trkpt>
      <trkpt lat="45.49703" lon="6.61796">
        <ele>2171</ele>
        <time>2016-03-07T13:18:00.000Z</time>
      </trkpt>
      <trkpt lat="45.49704" lon="6.61791">
        <ele>2169.8000488281</ele>
        <time>2016-03-07T13:18:01.000Z</time>
      </trkpt>
      <trkpt lat="45.49701" lon="6.61778">
        <ele>2168.3999023438</ele>
        <time>2016-03-07T13:18:03.000Z</time>
      </trkpt>
      <trkpt lat="45.49699" lon="6.61772">
        <ele>2167.8000488281</ele>
        <time>2016-03-07T13:18:04.000Z</time>
      </trkpt>
      <trkpt lat="45.497" lon="6.61767">
        <ele>2167</ele>
        <time>2016-03-07T13:18:05.000Z</time>
      </trkpt>
      <trkpt lat="45.49703" lon="6.61762">
        <ele>2165.8000488281</ele>
        <time>2016-03-07T13:18:06.000Z</time>
      </trkpt>
      <trkpt lat="45.49703" lon="6.61757">
        <ele>2164.1999511719</ele>
        <time>2016-03-07T13:18:07.000Z</time>
      </trkpt>
      <trkpt lat="45.49704" lon="6.6175">
        <ele>2162.1999511719</ele>
        <time>2016-03-07T13:18:08.000Z</time>
      </trkpt>
      <trkpt lat="45.49707" lon="6.61744">
        <ele>2160.3999023438</ele>
        <time>2016-03-07T13:18:09.000Z</time>
      </trkpt>
      <trkpt lat="45.49707" lon="6.61738">
        <ele>2158.3999023438</ele>
        <time>2016-03-07T13:18:10.000Z</time>
      </trkpt>
      <trkpt lat="45.49706" lon="6.61733">
        <ele>2156</ele>
        <time>2016-03-07T13:18:11.000Z</time>
      </trkpt>
      <trkpt lat="45.49707" lon="6.61728">
        <ele>2153.1999511719</ele>
        <time>2016-03-07T13:18:12.000Z</time>
      </trkpt>
      <trkpt lat="45.49706" lon="6.61722">
        <ele>2147.6000976562</ele>
        <time>2016-03-07T13:18:13.000Z</time>
      </trkpt>
      <trkpt lat="45.49707" lon="6.61716">
        <ele>2144.8000488281</ele>
        <time>2016-03-07T13:18:14.000Z</time>
      </trkpt>
      <trkpt lat="45.49708" lon="6.61711">
        <ele>2142</ele>
        <time>2016-03-07T13:18:15.000Z</time>
      </trkpt>
      <trkpt lat="45.4971" lon="6.61708">
        <ele>2139.6000976562</ele>
        <time>2016-03-07T13:18:16.000Z</time>
      </trkpt>
      <trkpt lat="45.49713" lon="6.6171">
        <ele>2137.1999511719</ele>
        <time>2016-03-07T13:18:17.000Z</time>
      </trkpt>
      <trkpt lat="45.49716" lon="6.61712">
        <ele>2134.8000488281</ele>
        <time>2016-03-07T13:18:18.000Z</time>
      </trkpt>
      <trkpt lat="45.49718" lon="6.61713">
        <ele>2132.3999023438</ele>
        <time>2016-03-07T13:18:19.000Z</time>
      </trkpt>
      <trkpt lat="45.49719" lon="6.61714">
        <ele>2130.8000488281</ele>
        <time>2016-03-07T13:18:20.000Z</time>
      </trkpt>
      <trkpt lat="45.4972" lon="6.61714">
        <ele>2129.3999023438</ele>
        <time>2016-03-07T13:18:21.000Z</time>
      </trkpt>
      <trkpt lat="45.49721" lon="6.61715">
        <ele>2127.8000488281</ele>
        <time>2016-03-07T13:18:23.000Z</time>
      </trkpt>
      <trkpt lat="45.49722" lon="6.61717">
        <ele>2126.8000488281</ele>
        <time>2016-03-07T13:18:29.000Z</time>
      </trkpt>
      <trkpt lat="45.49722" lon="6.61717">
        <ele>2127.6000976562</ele>
        <time>2016-03-07T13:18:37.000Z</time>
      </trkpt>
      <trkpt lat="45.49722" lon="6.61717">
        <ele>2127</ele>
        <time>2016-03-07T13:18:45.000Z</time>
      </trkpt>
      <trkpt lat="45.4972" lon="6.61719">
        <ele>2126.8000488281</ele>
        <time>2016-03-07T13:18:54.000Z</time>
      </trkpt>
      <trkpt lat="45.49725" lon="6.61719">
        <ele>2126.8000488281</ele>
        <time>2016-03-07T13:18:55.000Z</time>
      </trkpt>
      <trkpt lat="45.49744" lon="6.61716">
        <ele>2125.1999511719</ele>
        <time>2016-03-07T13:18:59.000Z</time>
      </trkpt>
      <trkpt lat="45.49749" lon="6.61716">
        <ele>2124.3999023438</ele>
        <time>2016-03-07T13:19:00.000Z</time>
      </trkpt>
      <trkpt lat="45.49754" lon="6.61716">
        <ele>2123</ele>
        <time>2016-03-07T13:19:01.000Z</time>
      </trkpt>
      <trkpt lat="45.49763" lon="6.61719">
        <ele>2121.6000976562</ele>
        <time>2016-03-07T13:19:03.000Z</time>
      </trkpt>
      <trkpt lat="45.4977" lon="6.61721">
        <ele>2120.1999511719</ele>
        <time>2016-03-07T13:19:05.000Z</time>
      </trkpt>
      <trkpt lat="45.49774" lon="6.61723">
        <ele>2119.8000488281</ele>
        <time>2016-03-07T13:19:06.000Z</time>
      </trkpt>
      <trkpt lat="45.49777" lon="6.61725">
        <ele>2119.3999023438</ele>
        <time>2016-03-07T13:19:07.000Z</time>
      </trkpt>
      <trkpt lat="45.49781" lon="6.61727">
        <ele>2119</ele>
        <time>2016-03-07T13:19:08.000Z</time>
      </trkpt>
      <trkpt lat="45.4979" lon="6.61731">
        <ele>2118</ele>
        <time>2016-03-07T13:19:11.000Z</time>
      </trkpt>
      <trkpt lat="45.49804" lon="6.61735">
        <ele>2116.6000976562</ele>
        <time>2016-03-07T13:19:15.000Z</time>
      </trkpt>
      <trkpt lat="45.4981" lon="6.61736">
        <ele>2116.1999511719</ele>
        <time>2016-03-07T13:19:16.000Z</time>
      </trkpt>
      <trkpt lat="45.49822" lon="6.61738">
        <ele>2115.3999023438</ele>
        <time>2016-03-07T13:19:18.000Z</time>
      </trkpt>
      <trkpt lat="45.49827" lon="6.61738">
        <ele>2114.8000488281</ele>
        <time>2016-03-07T13:19:19.000Z</time>
      </trkpt>
      <trkpt lat="45.49833" lon="6.61738">
        <ele>2114.1999511719</ele>
        <time>2016-03-07T13:19:20.000Z</time>
      </trkpt>
      <trkpt lat="45.49839" lon="6.6174">
        <ele>2113.6000976562</ele>
        <time>2016-03-07T13:19:21.000Z</time>
      </trkpt>
      <trkpt lat="45.49845" lon="6.61742">
        <ele>2113</ele>
        <time>2016-03-07T13:19:22.000Z</time>
      </trkpt>
      <trkpt lat="45.49851" lon="6.61744">
        <ele>2112.3999023438</ele>
        <time>2016-03-07T13:19:23.000Z</time>
      </trkpt>
      <trkpt lat="45.49856" lon="6.61746">
        <ele>2111.6000976562</ele>
        <time>2016-03-07T13:19:24.000Z</time>
      </trkpt>
      <trkpt lat="45.49861" lon="6.61748">
        <ele>2110.3999023438</ele>
        <time>2016-03-07T13:19:25.000Z</time>
      </trkpt>
      <trkpt lat="45.49866" lon="6.61749">
        <ele>2110</ele>
        <time>2016-03-07T13:19:26.000Z</time>
      </trkpt>
      <trkpt lat="45.49874" lon="6.61749">
        <ele>2108.8000488281</ele>
        <time>2016-03-07T13:19:28.000Z</time>
      </trkpt>
      <trkpt lat="45.49881" lon="6.61748">
        <ele>2107.8000488281</ele>
        <time>2016-03-07T13:19:30.000Z</time>
      </trkpt>
      <trkpt lat="45.49894" lon="6.61748">
        <ele>2106.8000488281</ele>
        <time>2016-03-07T13:19:33.000Z</time>
      </trkpt>
      <trkpt lat="45.49905" lon="6.6175">
        <ele>2105.8000488281</ele>
        <time>2016-03-07T13:19:35.000Z</time>
      </trkpt>
      <trkpt lat="45.49911" lon="6.61752">
        <ele>2105.1999511719</ele>
        <time>2016-03-07T13:19:36.000Z</time>
      </trkpt>
      <trkpt lat="45.49923" lon="6.61759">
        <ele>2104</ele>
        <time>2016-03-07T13:19:38.000Z</time>
      </trkpt>
      <trkpt lat="45.49933" lon="6.61764">
        <ele>2102.6000976562</ele>
        <time>2016-03-07T13:19:40.000Z</time>
      </trkpt>
      <trkpt lat="45.49942" lon="6.61769">
        <ele>2101.6000976562</ele>
        <time>2016-03-07T13:19:42.000Z</time>
      </trkpt>
      <trkpt lat="45.49947" lon="6.61772">
        <ele>2100.3999023438</ele>
        <time>2016-03-07T13:19:44.000Z</time>
      </trkpt>
      <trkpt lat="45.4995" lon="6.61773">
        <ele>2099</ele>
        <time>2016-03-07T13:19:46.000Z</time>
      </trkpt>
      <trkpt lat="45.49951" lon="6.61774">
        <ele>2098</ele>
        <time>2016-03-07T13:19:49.000Z</time>
      </trkpt>
      <trkpt lat="45.49951" lon="6.61773">
        <ele>2097.8000488281</ele>
        <time>2016-03-07T13:19:59.000Z</time>
      </trkpt>
      <trkpt lat="45.49951" lon="6.61773">
        <ele>2097.3999023438</ele>
        <time>2016-03-07T13:20:09.000Z</time>
      </trkpt>
      <trkpt lat="45.49951" lon="6.61773">
        <ele>2097.6000976562</ele>
        <time>2016-03-07T13:20:22.000Z</time>
      </trkpt>
      <trkpt lat="45.49951" lon="6.61773">
        <ele>2097.3999023438</ele>
        <time>2016-03-07T13:20:34.000Z</time>
      </trkpt>
      <trkpt lat="45.49948" lon="6.61766">
        <ele>2097.3999023438</ele>
        <time>2016-03-07T13:20:36.000Z</time>
      </trkpt>
      <trkpt lat="45.49945" lon="6.61762">
        <ele>2097.6000976562</ele>
        <time>2016-03-07T13:20:37.000Z</time>
      </trkpt>
      <trkpt lat="45.49944" lon="6.61758">
        <ele>2097</ele>
        <time>2016-03-07T13:20:39.000Z</time>
      </trkpt>
      <trkpt lat="45.49943" lon="6.61754">
        <ele>2096.3999023438</ele>
        <time>2016-03-07T13:20:40.000Z</time>
      </trkpt>
      <trkpt lat="45.49941" lon="6.6175">
        <ele>2095.8000488281</ele>
        <time>2016-03-07T13:20:41.000Z</time>
      </trkpt>
      <trkpt lat="45.49939" lon="6.61745">
        <ele>2095</ele>
        <time>2016-03-07T13:20:42.000Z</time>
      </trkpt>
      <trkpt lat="45.49935" lon="6.61737">
        <ele>2094</ele>
        <time>2016-03-07T13:20:44.000Z</time>
      </trkpt>
      <trkpt lat="45.49936" lon="6.61733">
        <ele>2093.3999023438</ele>
        <time>2016-03-07T13:20:45.000Z</time>
      </trkpt>
      <trkpt lat="45.49938" lon="6.6173">
        <ele>2092.3999023438</ele>
        <time>2016-03-07T13:20:46.000Z</time>
      </trkpt>
      <trkpt lat="45.4994" lon="6.61728">
        <ele>2091</ele>
        <time>2016-03-07T13:20:47.000Z</time>
      </trkpt>
      <trkpt lat="45.49942" lon="6.61725">
        <ele>2089.3999023438</ele>
        <time>2016-03-07T13:20:48.000Z</time>
      </trkpt>
      <trkpt lat="45.49942" lon="6.61719">
        <ele>2088</ele>
        <time>2016-03-07T13:20:49.000Z</time>
      </trkpt>
      <trkpt lat="45.49941" lon="6.61714">
        <ele>2086.8000488281</ele>
        <time>2016-03-07T13:20:50.000Z</time>
      </trkpt>
      <trkpt lat="45.49941" lon="6.61711">
        <ele>2085.6000976562</ele>
        <time>2016-03-07T13:20:51.000Z</time>
      </trkpt>
      <trkpt lat="45.49941" lon="6.61709">
        <ele>2084.3999023438</ele>
        <time>2016-03-07T13:20:52.000Z</time>
      </trkpt>
      <trkpt lat="45.49942" lon="6.61708">
        <ele>2082.8000488281</ele>
        <time>2016-03-07T13:20:53.000Z</time>
      </trkpt>
      <trkpt lat="45.49944" lon="6.61706">
        <ele>2080.8000488281</ele>
        <time>2016-03-07T13:20:54.000Z</time>
      </trkpt>
      <trkpt lat="45.49948" lon="6.61705">
        <ele>2079.1999511719</ele>
        <time>2016-03-07T13:20:55.000Z</time>
      </trkpt>
      <trkpt lat="45.49949" lon="6.61703">
        <ele>2078</ele>
        <time>2016-03-07T13:20:56.000Z</time>
      </trkpt>
      <trkpt lat="45.49951" lon="6.61697">
        <ele>2075.8000488281</ele>
        <time>2016-03-07T13:20:58.000Z</time>
      </trkpt>
      <trkpt lat="45.49952" lon="6.61694">
        <ele>2074.1999511719</ele>
        <time>2016-03-07T13:20:59.000Z</time>
      </trkpt>
      <trkpt lat="45.49954" lon="6.61691">
        <ele>2072.1999511719</ele>
        <time>2016-03-07T13:21:00.000Z</time>
      </trkpt>
      <trkpt lat="45.49954" lon="6.61685">
        <ele>2068</ele>
        <time>2016-03-07T13:21:01.000Z</time>
      </trkpt>
      <trkpt lat="45.49954" lon="6.6168">
        <ele>2066.1999511719</ele>
        <time>2016-03-07T13:21:02.000Z</time>
      </trkpt>
      <trkpt lat="45.49954" lon="6.61674">
        <ele>2064.8000488281</ele>
        <time>2016-03-07T13:21:03.000Z</time>
      </trkpt>
      <trkpt lat="45.49953" lon="6.61668">
        <ele>2063</ele>
        <time>2016-03-07T13:21:04.000Z</time>
      </trkpt>
      <trkpt lat="45.49955" lon="6.61661">
        <ele>2060.8000488281</ele>
        <time>2016-03-07T13:21:05.000Z</time>
      </trkpt>
      <trkpt lat="45.49957" lon="6.61655">
        <ele>2058.8000488281</ele>
        <time>2016-03-07T13:21:06.000Z</time>
      </trkpt>
      <trkpt lat="45.49956" lon="6.61648">
        <ele>2057</ele>
        <time>2016-03-07T13:21:07.000Z</time>
      </trkpt>
      <trkpt lat="45.49956" lon="6.61644">
        <ele>2055.3999023438</ele>
        <time>2016-03-07T13:21:08.000Z</time>
      </trkpt>
      <trkpt lat="45.49954" lon="6.6164">
        <ele>2053.3999023438</ele>
        <time>2016-03-07T13:21:09.000Z</time>
      </trkpt>
      <trkpt lat="45.49952" lon="6.61635">
        <ele>2051.3999023438</ele>
        <time>2016-03-07T13:21:10.000Z</time>
      </trkpt>
      <trkpt lat="45.49951" lon="6.61631">
        <ele>2049.3999023438</ele>
        <time>2016-03-07T13:21:11.000Z</time>
      </trkpt>
      <trkpt lat="45.4995" lon="6.61627">
        <ele>2047.5999755859</ele>
        <time>2016-03-07T13:21:12.000Z</time>
      </trkpt>
      <trkpt lat="45.49954" lon="6.6162">
        <ele>2045.8000488281</ele>
        <time>2016-03-07T13:21:13.000Z</time>
      </trkpt>
      <trkpt lat="45.49956" lon="6.61613">
        <ele>2044</ele>
        <time>2016-03-07T13:21:14.000Z</time>
      </trkpt>
      <trkpt lat="45.49959" lon="6.61607">
        <ele>2042.1999511719</ele>
        <time>2016-03-07T13:21:15.000Z</time>
      </trkpt>
      <trkpt lat="45.49962" lon="6.61599">
        <ele>2040</ele>
        <time>2016-03-07T13:21:16.000Z</time>
      </trkpt>
      <trkpt lat="45.49967" lon="6.61591">
        <ele>2037.8000488281</ele>
        <time>2016-03-07T13:21:17.000Z</time>
      </trkpt>
      <trkpt lat="45.49974" lon="6.61582">
        <ele>2035.1999511719</ele>
        <time>2016-03-07T13:21:18.000Z</time>
      </trkpt>
      <trkpt lat="45.49981" lon="6.61572">
        <ele>2032.8000488281</ele>
        <time>2016-03-07T13:21:19.000Z</time>
      </trkpt>
      <trkpt lat="45.49986" lon="6.61561">
        <ele>2030.4000244141</ele>
        <time>2016-03-07T13:21:20.000Z</time>
      </trkpt>
      <trkpt lat="45.49991" lon="6.6155">
        <ele>2028</ele>
        <time>2016-03-07T13:21:21.000Z</time>
      </trkpt>
      <trkpt lat="45.49996" lon="6.6154">
        <ele>2025.4000244141</ele>
        <time>2016-03-07T13:21:22.000Z</time>
      </trkpt>
      <trkpt lat="45.5" lon="6.6153">
        <ele>2023</ele>
        <time>2016-03-07T13:21:23.000Z</time>
      </trkpt>
      <trkpt lat="45.50004" lon="6.61523">
        <ele>2020.4000244141</ele>
        <time>2016-03-07T13:21:24.000Z</time>
      </trkpt>
      <trkpt lat="45.50007" lon="6.61519">
        <ele>2016.4000244141</ele>
        <time>2016-03-07T13:21:25.000Z</time>
      </trkpt>
      <trkpt lat="45.50007" lon="6.61517">
        <ele>2014.8000488281</ele>
        <time>2016-03-07T13:21:26.000Z</time>
      </trkpt>
      <trkpt lat="45.50007" lon="6.61517">
        <ele>2013.1999511719</ele>
        <time>2016-03-07T13:21:27.000Z</time>
      </trkpt>
      <trkpt lat="45.50007" lon="6.61517">
        <ele>2011.8000488281</ele>
        <time>2016-03-07T13:21:28.000Z</time>
      </trkpt>
      <trkpt lat="45.50007" lon="6.61517">
        <ele>2010.8000488281</ele>
        <time>2016-03-07T13:21:29.000Z</time>
      </trkpt>
      <trkpt lat="45.50007" lon="6.61517">
        <ele>2009.5999755859</ele>
        <time>2016-03-07T13:21:31.000Z</time>
      </trkpt>
      <trkpt lat="45.50007" lon="6.61517">
        <ele>2009</ele>
        <time>2016-03-07T13:21:36.000Z</time>
      </trkpt>
      <trkpt lat="45.50007" lon="6.61517">
        <ele>2009</ele>
        <time>2016-03-07T13:21:38.000Z</time>
      </trkpt>
      <trkpt lat="45.50012" lon="6.6151">
        <ele>2009</ele>
        <time>2016-03-07T13:21:40.000Z</time>
      </trkpt>
      <trkpt lat="45.5002" lon="6.615">
        <ele>2008.8000488281</ele>
        <time>2016-03-07T13:21:42.000Z</time>
      </trkpt>
      <trkpt lat="45.50024" lon="6.61495">
        <ele>2008.8000488281</ele>
        <time>2016-03-07T13:21:43.000Z</time>
      </trkpt>
      <trkpt lat="45.50028" lon="6.61488">
        <ele>2008.4000244141</ele>
        <time>2016-03-07T13:21:44.000Z</time>
      </trkpt>
      <trkpt lat="45.50037" lon="6.61472">
        <ele>2006.8000488281</ele>
        <time>2016-03-07T13:21:46.000Z</time>
      </trkpt>
      <trkpt lat="45.50042" lon="6.61462">
        <ele>2005.4000244141</ele>
        <time>2016-03-07T13:21:47.000Z</time>
      </trkpt>
      <trkpt lat="45.50046" lon="6.61451">
        <ele>2003.4000244141</ele>
        <time>2016-03-07T13:21:48.000Z</time>
      </trkpt>
      <trkpt lat="45.5005" lon="6.61441">
        <ele>1998.8000488281</ele>
        <time>2016-03-07T13:21:49.000Z</time>
      </trkpt>
      <trkpt lat="45.50054" lon="6.61431">
        <ele>1996.5999755859</ele>
        <time>2016-03-07T13:21:50.000Z</time>
      </trkpt>
      <trkpt lat="45.50057" lon="6.61421">
        <ele>1994.4000244141</ele>
        <time>2016-03-07T13:21:51.000Z</time>
      </trkpt>
      <trkpt lat="45.5006" lon="6.61409">
        <ele>1992</ele>
        <time>2016-03-07T13:21:52.000Z</time>
      </trkpt>
      <trkpt lat="45.50063" lon="6.61398">
        <ele>1989.4000244141</ele>
        <time>2016-03-07T13:21:53.000Z</time>
      </trkpt>
      <trkpt lat="45.50066" lon="6.61389">
        <ele>1987</ele>
        <time>2016-03-07T13:21:54.000Z</time>
      </trkpt>
      <trkpt lat="45.5007" lon="6.61379">
        <ele>1984.8000488281</ele>
        <time>2016-03-07T13:21:55.000Z</time>
      </trkpt>
      <trkpt lat="45.50073" lon="6.61369">
        <ele>1982.5999755859</ele>
        <time>2016-03-07T13:21:56.000Z</time>
      </trkpt>
      <trkpt lat="45.50076" lon="6.61359">
        <ele>1980.5999755859</ele>
        <time>2016-03-07T13:21:57.000Z</time>
      </trkpt>
      <trkpt lat="45.5008" lon="6.61349">
        <ele>1978.8000488281</ele>
        <time>2016-03-07T13:21:58.000Z</time>
      </trkpt>
      <trkpt lat="45.50084" lon="6.61339">
        <ele>1976.5999755859</ele>
        <time>2016-03-07T13:21:59.000Z</time>
      </trkpt>
      <trkpt lat="45.5009" lon="6.61335">
        <ele>1974.8000488281</ele>
        <time>2016-03-07T13:22:00.000Z</time>
      </trkpt>
      <trkpt lat="45.50097" lon="6.61329">
        <ele>1973</ele>
        <time>2016-03-07T13:22:01.000Z</time>
      </trkpt>
      <trkpt lat="45.50104" lon="6.61323">
        <ele>1971.1999511719</ele>
        <time>2016-03-07T13:22:02.000Z</time>
      </trkpt>
      <trkpt lat="45.50111" lon="6.61316">
        <ele>1969</ele>
        <time>2016-03-07T13:22:03.000Z</time>
      </trkpt>
      <trkpt lat="45.50118" lon="6.61311">
        <ele>1966.8000488281</ele>
        <time>2016-03-07T13:22:04.000Z</time>
      </trkpt>
      <trkpt lat="45.50124" lon="6.61305">
        <ele>1964.8000488281</ele>
        <time>2016-03-07T13:22:05.000Z</time>
      </trkpt>
      <trkpt lat="45.50129" lon="6.61299">
        <ele>1962.8000488281</ele>
        <time>2016-03-07T13:22:06.000Z</time>
      </trkpt>
      <trkpt lat="45.50133" lon="6.61291">
        <ele>1960.8000488281</ele>
        <time>2016-03-07T13:22:07.000Z</time>
      </trkpt>
      <trkpt lat="45.50137" lon="6.61284">
        <ele>1958.8000488281</ele>
        <time>2016-03-07T13:22:08.000Z</time>
      </trkpt>
      <trkpt lat="45.50142" lon="6.61275">
        <ele>1957.1999511719</ele>
        <time>2016-03-07T13:22:09.000Z</time>
      </trkpt>
      <trkpt lat="45.50147" lon="6.61267">
        <ele>1955.4000244141</ele>
        <time>2016-03-07T13:22:10.000Z</time>
      </trkpt>
      <trkpt lat="45.5015" lon="6.61257">
        <ele>1953.8000488281</ele>
        <time>2016-03-07T13:22:11.000Z</time>
      </trkpt>
      <trkpt lat="45.50154" lon="6.61248">
        <ele>1951.8000488281</ele>
        <time>2016-03-07T13:22:12.000Z</time>
      </trkpt>
      <trkpt lat="45.50156" lon="6.61236">
        <ele>1949.8000488281</ele>
        <time>2016-03-07T13:22:13.000Z</time>
      </trkpt>
      <trkpt lat="45.50156" lon="6.61227">
        <ele>1945.8000488281</ele>
        <time>2016-03-07T13:22:14.000Z</time>
      </trkpt>
      <trkpt lat="45.50156" lon="6.61218">
        <ele>1943.8000488281</ele>
        <time>2016-03-07T13:22:15.000Z</time>
      </trkpt>
      <trkpt lat="45.50156" lon="6.61209">
        <ele>1941.4000244141</ele>
        <time>2016-03-07T13:22:16.000Z</time>
      </trkpt>
      <trkpt lat="45.50157" lon="6.61202">
        <ele>1939</ele>
        <time>2016-03-07T13:22:17.000Z</time>
      </trkpt>
      <trkpt lat="45.50156" lon="6.61197">
        <ele>1936.5999755859</ele>
        <time>2016-03-07T13:22:18.000Z</time>
      </trkpt>
      <trkpt lat="45.50155" lon="6.61193">
        <ele>1934</ele>
        <time>2016-03-07T13:22:19.000Z</time>
      </trkpt>
      <trkpt lat="45.50154" lon="6.61188">
        <ele>1931.4000244141</ele>
        <time>2016-03-07T13:22:20.000Z</time>
      </trkpt>
      <trkpt lat="45.50152" lon="6.61184">
        <ele>1929.4000244141</ele>
        <time>2016-03-07T13:22:21.000Z</time>
      </trkpt>
      <trkpt lat="45.5015" lon="6.6118">
        <ele>1928.1999511719</ele>
        <time>2016-03-07T13:22:22.000Z</time>
      </trkpt>
      <trkpt lat="45.50148" lon="6.61174">
        <ele>1926.8000488281</ele>
        <time>2016-03-07T13:22:24.000Z</time>
      </trkpt>
      <trkpt lat="45.50146" lon="6.61171">
        <ele>1926.4000244141</ele>
        <time>2016-03-07T13:22:25.000Z</time>
      </trkpt>
      <trkpt lat="45.50143" lon="6.61167">
        <ele>1925.8000488281</ele>
        <time>2016-03-07T13:22:27.000Z</time>
      </trkpt>
      <trkpt lat="45.50144" lon="6.61176">
        <ele>1925.5999755859</ele>
        <time>2016-03-07T13:22:30.000Z</time>
      </trkpt>
      <trkpt lat="45.50144" lon="6.61176">
        <ele>1926.4000244141</ele>
        <time>2016-03-07T13:22:41.000Z</time>
      </trkpt>
      <trkpt lat="45.50144" lon="6.61176">
        <ele>1926.1999511719</ele>
        <time>2016-03-07T13:22:58.000Z</time>
      </trkpt>
      <trkpt lat="45.50144" lon="6.61176">
        <ele>1926.1999511719</ele>
        <time>2016-03-07T13:23:04.000Z</time>
      </trkpt>
      <trkpt lat="45.50145" lon="6.61187">
        <ele>1926.4000244141</ele>
        <time>2016-03-07T13:23:18.000Z</time>
      </trkpt>
      <trkpt lat="45.50145" lon="6.61187">
        <ele>1926.4000244141</ele>
        <time>2016-03-07T13:23:37.000Z</time>
      </trkpt>
      <trkpt lat="45.50146" lon="6.61196">
        <ele>1925.8000488281</ele>
        <time>2016-03-07T13:23:49.000Z</time>
      </trkpt>
      <trkpt lat="45.5015" lon="6.61204">
        <ele>1925.1999511719</ele>
        <time>2016-03-07T13:23:57.000Z</time>
      </trkpt>
      <trkpt lat="45.50151" lon="6.61205">
        <ele>1925.1999511719</ele>
        <time>2016-03-07T13:23:58.000Z</time>
      </trkpt>
      <trkpt lat="45.50165" lon="6.61209">
        <ele>1924.8000488281</ele>
        <time>2016-03-07T13:24:04.000Z</time>
      </trkpt>
      <trkpt lat="45.50181" lon="6.61212">
        <ele>1923.4000244141</ele>
        <time>2016-03-07T13:24:07.000Z</time>
      </trkpt>
      <trkpt lat="45.50186" lon="6.6121">
        <ele>1922.5999755859</ele>
        <time>2016-03-07T13:24:08.000Z</time>
      </trkpt>
      <trkpt lat="45.50191" lon="6.61207">
        <ele>1921.5999755859</ele>
        <time>2016-03-07T13:24:09.000Z</time>
      </trkpt>
      <trkpt lat="45.50196" lon="6.61201">
        <ele>1920.4000244141</ele>
        <time>2016-03-07T13:24:10.000Z</time>
      </trkpt>
      <trkpt lat="45.502" lon="6.61193">
        <ele>1919.4000244141</ele>
        <time>2016-03-07T13:24:11.000Z</time>
      </trkpt>
      <trkpt lat="45.50204" lon="6.61186">
        <ele>1918.1999511719</ele>
        <time>2016-03-07T13:24:12.000Z</time>
      </trkpt>
      <trkpt lat="45.50209" lon="6.61179">
        <ele>1916.8000488281</ele>
        <time>2016-03-07T13:24:13.000Z</time>
      </trkpt>
      <trkpt lat="45.50213" lon="6.61175">
        <ele>1915</ele>
        <time>2016-03-07T13:24:14.000Z</time>
      </trkpt>
      <trkpt lat="45.50217" lon="6.61173">
        <ele>1911.5999755859</ele>
        <time>2016-03-07T13:24:15.000Z</time>
      </trkpt>
      <trkpt lat="45.5022" lon="6.61171">
        <ele>1910.1999511719</ele>
        <time>2016-03-07T13:24:16.000Z</time>
      </trkpt>
      <trkpt lat="45.50224" lon="6.6117">
        <ele>1909</ele>
        <time>2016-03-07T13:24:17.000Z</time>
      </trkpt>
      <trkpt lat="45.50229" lon="6.61169">
        <ele>1908</ele>
        <time>2016-03-07T13:24:18.000Z</time>
      </trkpt>
      <trkpt lat="45.5024" lon="6.61165">
        <ele>1906</ele>
        <time>2016-03-07T13:24:20.000Z</time>
      </trkpt>
      <trkpt lat="45.50246" lon="6.61164">
        <ele>1904.8000488281</ele>
        <time>2016-03-07T13:24:21.000Z</time>
      </trkpt>
      <trkpt lat="45.50251" lon="6.6116">
        <ele>1903.5999755859</ele>
        <time>2016-03-07T13:24:22.000Z</time>
      </trkpt>
      <trkpt lat="45.50255" lon="6.61156">
        <ele>1902.1999511719</ele>
        <time>2016-03-07T13:24:23.000Z</time>
      </trkpt>
      <trkpt lat="45.50259" lon="6.61152">
        <ele>1900.8000488281</ele>
        <time>2016-03-07T13:24:24.000Z</time>
      </trkpt>
      <trkpt lat="45.50262" lon="6.61147">
        <ele>1899.1999511719</ele>
        <time>2016-03-07T13:24:25.000Z</time>
      </trkpt>
      <trkpt lat="45.50262" lon="6.6114">
        <ele>1897.8000488281</ele>
        <time>2016-03-07T13:24:26.000Z</time>
      </trkpt>
      <trkpt lat="45.50263" lon="6.61134">
        <ele>1896.5999755859</ele>
        <time>2016-03-07T13:24:27.000Z</time>
      </trkpt>
      <trkpt lat="45.50264" lon="6.61119">
        <ele>1894.8000488281</ele>
        <time>2016-03-07T13:24:29.000Z</time>
      </trkpt>
      <trkpt lat="45.50264" lon="6.6111">
        <ele>1893.4000244141</ele>
        <time>2016-03-07T13:24:30.000Z</time>
      </trkpt>
      <trkpt lat="45.50264" lon="6.611">
        <ele>1891.8000488281</ele>
        <time>2016-03-07T13:24:31.000Z</time>
      </trkpt>
      <trkpt lat="45.50265" lon="6.61092">
        <ele>1890.4000244141</ele>
        <time>2016-03-07T13:24:32.000Z</time>
      </trkpt>
      <trkpt lat="45.50266" lon="6.61082">
        <ele>1889</ele>
        <time>2016-03-07T13:24:33.000Z</time>
      </trkpt>
      <trkpt lat="45.50266" lon="6.61073">
        <ele>1887.4000244141</ele>
        <time>2016-03-07T13:24:34.000Z</time>
      </trkpt>
      <trkpt lat="45.50266" lon="6.61064">
        <ele>1885.8000488281</ele>
        <time>2016-03-07T13:24:35.000Z</time>
      </trkpt>
      <trkpt lat="45.50266" lon="6.61056">
        <ele>1884.4000244141</ele>
        <time>2016-03-07T13:24:36.000Z</time>
      </trkpt>
      <trkpt lat="45.50267" lon="6.61048">
        <ele>1883</ele>
        <time>2016-03-07T13:24:37.000Z</time>
      </trkpt>
      <trkpt lat="45.50268" lon="6.6104">
        <ele>1881.5999755859</ele>
        <time>2016-03-07T13:24:38.000Z</time>
      </trkpt>
      <trkpt lat="45.50268" lon="6.61032">
        <ele>1879.1999511719</ele>
        <time>2016-03-07T13:24:39.000Z</time>
      </trkpt>
      <trkpt lat="45.50269" lon="6.61022">
        <ele>1877.4000244141</ele>
        <time>2016-03-07T13:24:41.000Z</time>
      </trkpt>
      <trkpt lat="45.50268" lon="6.61015">
        <ele>1876.1999511719</ele>
        <time>2016-03-07T13:24:43.000Z</time>
      </trkpt>
      <trkpt lat="45.50267" lon="6.61002">
        <ele>1875.4000244141</ele>
        <time>2016-03-07T13:24:46.000Z</time>
      </trkpt>
      <trkpt lat="45.50266" lon="6.60999">
        <ele>1875</ele>
        <time>2016-03-07T13:24:47.000Z</time>
      </trkpt>
      <trkpt lat="45.50266" lon="6.60999">
        <ele>1873.8000488281</ele>
        <time>2016-03-07T13:24:49.000Z</time>
      </trkpt>
      <trkpt lat="45.50266" lon="6.60999">
        <ele>1872.8000488281</ele>
        <time>2016-03-07T13:24:54.000Z</time>
      </trkpt>
      <trkpt lat="45.50263" lon="6.60999">
        <ele>1872.5999755859</ele>
        <time>2016-03-07T13:24:56.000Z</time>
      </trkpt>
      <trkpt lat="45.50253" lon="6.60992">
        <ele>1871.5999755859</ele>
        <time>2016-03-07T13:25:00.000Z</time>
      </trkpt>
      <trkpt lat="45.50253" lon="6.60993">
        <ele>1870</ele>
        <time>2016-03-07T13:25:02.000Z</time>
      </trkpt>
      <trkpt lat="45.50253" lon="6.60993">
        <ele>1868.8000488281</ele>
        <time>2016-03-07T13:25:04.000Z</time>
      </trkpt>
      <trkpt lat="45.50253" lon="6.60993">
        <ele>1868.5999755859</ele>
        <time>2016-03-07T13:25:05.000Z</time>
      </trkpt>
      <trkpt lat="45.50253" lon="6.60993">
        <ele>1867.8000488281</ele>
        <time>2016-03-07T13:25:13.000Z</time>
      </trkpt>
      <trkpt lat="45.50253" lon="6.60993">
        <ele>1867.8000488281</ele>
        <time>2016-03-07T13:25:14.000Z</time>
      </trkpt>
      <trkpt lat="45.50253" lon="6.60992">
        <ele>1867.5999755859</ele>
        <time>2016-03-07T13:25:25.000Z</time>
      </trkpt>
      <trkpt lat="45.50246" lon="6.60978">
        <ele>1867</ele>
        <time>2016-03-07T13:25:29.000Z</time>
      </trkpt>
      <trkpt lat="45.50245" lon="6.60975">
        <ele>1866.5999755859</ele>
        <time>2016-03-07T13:25:30.000Z</time>
      </trkpt>
      <trkpt lat="45.50244" lon="6.6097">
        <ele>1866</ele>
        <time>2016-03-07T13:25:31.000Z</time>
      </trkpt>
      <trkpt lat="45.50244" lon="6.60965">
        <ele>1865.1999511719</ele>
        <time>2016-03-07T13:25:32.000Z</time>
      </trkpt>
      <trkpt lat="45.50245" lon="6.60959">
        <ele>1864.4000244141</ele>
        <time>2016-03-07T13:25:33.000Z</time>
      </trkpt>
      <trkpt lat="45.50247" lon="6.60955">
        <ele>1863</ele>
        <time>2016-03-07T13:25:34.000Z</time>
      </trkpt>
      <trkpt lat="45.5025" lon="6.60953">
        <ele>1861.8000488281</ele>
        <time>2016-03-07T13:25:35.000Z</time>
      </trkpt>
      <trkpt lat="45.50254" lon="6.6095">
        <ele>1860.4000244141</ele>
        <time>2016-03-07T13:25:36.000Z</time>
      </trkpt>
      <trkpt lat="45.50259" lon="6.60947">
        <ele>1859.1999511719</ele>
        <time>2016-03-07T13:25:37.000Z</time>
      </trkpt>
      <trkpt lat="45.50264" lon="6.60945">
        <ele>1858</ele>
        <time>2016-03-07T13:25:38.000Z</time>
      </trkpt>
      <trkpt lat="45.50269" lon="6.60943">
        <ele>1856.5999755859</ele>
        <time>2016-03-07T13:25:39.000Z</time>
      </trkpt>
      <trkpt lat="45.50274" lon="6.60941">
        <ele>1855.4000244141</ele>
        <time>2016-03-07T13:25:40.000Z</time>
      </trkpt>
      <trkpt lat="45.50278" lon="6.60938">
        <ele>1854.4000244141</ele>
        <time>2016-03-07T13:25:41.000Z</time>
      </trkpt>
      <trkpt lat="45.50283" lon="6.60935">
        <ele>1853.1999511719</ele>
        <time>2016-03-07T13:25:42.000Z</time>
      </trkpt>
      <trkpt lat="45.50289" lon="6.60927">
        <ele>1851.4000244141</ele>
        <time>2016-03-07T13:25:44.000Z</time>
      </trkpt>
      <trkpt lat="45.50291" lon="6.60924">
        <ele>1850.5999755859</ele>
        <time>2016-03-07T13:25:45.000Z</time>
      </trkpt>
      <trkpt lat="45.50294" lon="6.60921">
        <ele>1849.8000488281</ele>
        <time>2016-03-07T13:25:46.000Z</time>
      </trkpt>
      <trkpt lat="45.50299" lon="6.60914">
        <ele>1847.5999755859</ele>
        <time>2016-03-07T13:25:48.000Z</time>
      </trkpt>
      <trkpt lat="45.50302" lon="6.60909">
        <ele>1846.4000244141</ele>
        <time>2016-03-07T13:25:49.000Z</time>
      </trkpt>
      <trkpt lat="45.50306" lon="6.60908">
        <ele>1845.5999755859</ele>
        <time>2016-03-07T13:25:50.000Z</time>
      </trkpt>
      <trkpt lat="45.50308" lon="6.60909">
        <ele>1844.1999511719</ele>
        <time>2016-03-07T13:25:51.000Z</time>
      </trkpt>
      <trkpt lat="45.5031" lon="6.60912">
        <ele>1842.5999755859</ele>
        <time>2016-03-07T13:25:53.000Z</time>
      </trkpt>
      <trkpt lat="45.50312" lon="6.60915">
        <ele>1841.5999755859</ele>
        <time>2016-03-07T13:25:55.000Z</time>
      </trkpt>
      <trkpt lat="45.50314" lon="6.60915">
        <ele>1841.1999511719</ele>
        <time>2016-03-07T13:25:56.000Z</time>
      </trkpt>
      <trkpt lat="45.50319" lon="6.60914">
        <ele>1840.8000488281</ele>
        <time>2016-03-07T13:25:59.000Z</time>
      </trkpt>
      <trkpt lat="45.5032" lon="6.60914">
        <ele>1840.4000244141</ele>
        <time>2016-03-07T13:26:00.000Z</time>
      </trkpt>
      <trkpt lat="45.50322" lon="6.60913">
        <ele>1840.1999511719</ele>
        <time>2016-03-07T13:26:01.000Z</time>
      </trkpt>
      <trkpt lat="45.50323" lon="6.60913">
        <ele>1839.4000244141</ele>
        <time>2016-03-07T13:26:03.000Z</time>
      </trkpt>
      <trkpt lat="45.50324" lon="6.6091">
        <ele>1838.5999755859</ele>
        <time>2016-03-07T13:26:05.000Z</time>
      </trkpt>
      <trkpt lat="45.50325" lon="6.60909">
        <ele>1838.4000244141</ele>
        <time>2016-03-07T13:26:06.000Z</time>
      </trkpt>
      <trkpt lat="45.50325" lon="6.60908">
        <ele>1838</ele>
        <time>2016-03-07T13:26:07.000Z</time>
      </trkpt>
      <trkpt lat="45.50327" lon="6.60905">
        <ele>1837.4000244141</ele>
        <time>2016-03-07T13:26:10.000Z</time>
      </trkpt>
      <trkpt lat="45.50328" lon="6.60904">
        <ele>1836.8000488281</ele>
        <time>2016-03-07T13:26:12.000Z</time>
      </trkpt>
      <trkpt lat="45.50329" lon="6.60902">
        <ele>1836</ele>
        <time>2016-03-07T13:26:16.000Z</time>
      </trkpt>
      <trkpt lat="45.50332" lon="6.60899">
        <ele>1835</ele>
        <time>2016-03-07T13:26:18.000Z</time>
      </trkpt>
      <trkpt lat="45.50333" lon="6.60895">
        <ele>1834.5999755859</ele>
        <time>2016-03-07T13:26:19.000Z</time>
      </trkpt>
      <trkpt lat="45.50338" lon="6.60889">
        <ele>1834</ele>
        <time>2016-03-07T13:26:21.000Z</time>
      </trkpt>
      <trkpt lat="45.5034" lon="6.60886">
        <ele>1833.4000244141</ele>
        <time>2016-03-07T13:26:22.000Z</time>
      </trkpt>
      <trkpt lat="45.50346" lon="6.6088">
        <ele>1831.8000488281</ele>
        <time>2016-03-07T13:26:24.000Z</time>
      </trkpt>
      <trkpt lat="45.50352" lon="6.60875">
        <ele>1830.1999511719</ele>
        <time>2016-03-07T13:26:26.000Z</time>
      </trkpt>
      <trkpt lat="45.50354" lon="6.60874">
        <ele>1829.4000244141</ele>
        <time>2016-03-07T13:26:27.000Z</time>
      </trkpt>
      <trkpt lat="45.50356" lon="6.60873">
        <ele>1828.4000244141</ele>
        <time>2016-03-07T13:26:28.000Z</time>
      </trkpt>
      <trkpt lat="45.50358" lon="6.60873">
        <ele>1827.1999511719</ele>
        <time>2016-03-07T13:26:29.000Z</time>
      </trkpt>
      <trkpt lat="45.50361" lon="6.60873">
        <ele>1825.8000488281</ele>
        <time>2016-03-07T13:26:31.000Z</time>
      </trkpt>
      <trkpt lat="45.50364" lon="6.60872">
        <ele>1825</ele>
        <time>2016-03-07T13:26:33.000Z</time>
      </trkpt>
      <trkpt lat="45.5037" lon="6.60872">
        <ele>1824.5999755859</ele>
        <time>2016-03-07T13:26:36.000Z</time>
      </trkpt>
      <trkpt lat="45.50372" lon="6.60872">
        <ele>1823.5999755859</ele>
        <time>2016-03-07T13:26:38.000Z</time>
      </trkpt>
      <trkpt lat="45.50372" lon="6.60872">
        <ele>1822.8000488281</ele>
        <time>2016-03-07T13:26:39.000Z</time>
      </trkpt>
      <trkpt lat="45.5037" lon="6.60871">
        <ele>1823</ele>
        <time>2016-03-07T13:26:44.000Z</time>
      </trkpt>
      <trkpt lat="45.5037" lon="6.60871">
        <ele>1822.8000488281</ele>
        <time>2016-03-07T13:26:55.000Z</time>
      </trkpt>
      <trkpt lat="45.50372" lon="6.6087">
        <ele>1822.8000488281</ele>
        <time>2016-03-07T13:26:56.000Z</time>
      </trkpt>
      <trkpt lat="45.50368" lon="6.60864">
        <ele>1822.5999755859</ele>
        <time>2016-03-07T13:26:58.000Z</time>
      </trkpt>
      <trkpt lat="45.50365" lon="6.60861">
        <ele>1822.5999755859</ele>
        <time>2016-03-07T13:26:59.000Z</time>
      </trkpt>
      <trkpt lat="45.50367" lon="6.60856">
        <ele>1821.8000488281</ele>
        <time>2016-03-07T13:27:01.000Z</time>
      </trkpt>
      <trkpt lat="45.50369" lon="6.60857">
        <ele>1821</ele>
        <time>2016-03-07T13:27:02.000Z</time>
      </trkpt>
      <trkpt lat="45.50371" lon="6.60858">
        <ele>1818.5999755859</ele>
        <time>2016-03-07T13:27:03.000Z</time>
      </trkpt>
      <trkpt lat="45.50371" lon="6.60859">
        <ele>1817.5999755859</ele>
        <time>2016-03-07T13:27:04.000Z</time>
      </trkpt>
      <trkpt lat="45.50373" lon="6.60859">
        <ele>1815.8000488281</ele>
        <time>2016-03-07T13:27:06.000Z</time>
      </trkpt>
      <trkpt lat="45.5037" lon="6.60853">
        <ele>1814.1999511719</ele>
        <time>2016-03-07T13:27:08.000Z</time>
      </trkpt>
      <trkpt lat="45.50367" lon="6.60848">
        <ele>1812.8000488281</ele>
        <time>2016-03-07T13:27:10.000Z</time>
      </trkpt>
      <trkpt lat="45.50366" lon="6.60846">
        <ele>1811.5999755859</ele>
        <time>2016-03-07T13:27:11.000Z</time>
      </trkpt>
      <trkpt lat="45.50367" lon="6.60846">
        <ele>1810.1999511719</ele>
        <time>2016-03-07T13:27:12.000Z</time>
      </trkpt>
      <trkpt lat="45.50368" lon="6.60845">
        <ele>1809</ele>
        <time>2016-03-07T13:27:13.000Z</time>
      </trkpt>
      <trkpt lat="45.50369" lon="6.60845">
        <ele>1807.5999755859</ele>
        <time>2016-03-07T13:27:15.000Z</time>
      </trkpt>
      <trkpt lat="45.50373" lon="6.60846">
        <ele>1806.4000244141</ele>
        <time>2016-03-07T13:27:18.000Z</time>
      </trkpt>
      <trkpt lat="45.50377" lon="6.60845">
        <ele>1806</ele>
        <time>2016-03-07T13:27:19.000Z</time>
      </trkpt>
      <trkpt lat="45.50376" lon="6.60837">
        <ele>1805.4000244141</ele>
        <time>2016-03-07T13:27:21.000Z</time>
      </trkpt>
      <trkpt lat="45.50378" lon="6.60826">
        <ele>1804</ele>
        <time>2016-03-07T13:27:23.000Z</time>
      </trkpt>
      <trkpt lat="45.5038" lon="6.60815">
        <ele>1802.4000244141</ele>
        <time>2016-03-07T13:27:24.000Z</time>
      </trkpt>
      <trkpt lat="45.50383" lon="6.60806">
        <ele>1800.4000244141</ele>
        <time>2016-03-07T13:27:25.000Z</time>
      </trkpt>
      <trkpt lat="45.50384" lon="6.60797">
        <ele>1798.4000244141</ele>
        <time>2016-03-07T13:27:26.000Z</time>
      </trkpt>
      <trkpt lat="45.50385" lon="6.60791">
        <ele>1795</ele>
        <time>2016-03-07T13:27:27.000Z</time>
      </trkpt>
      <trkpt lat="45.50387" lon="6.60786">
        <ele>1793.4000244141</ele>
        <time>2016-03-07T13:27:28.000Z</time>
      </trkpt>
      <trkpt lat="45.5039" lon="6.6078">
        <ele>1792</ele>
        <time>2016-03-07T13:27:29.000Z</time>
      </trkpt>
      <trkpt lat="45.50392" lon="6.60776">
        <ele>1790.4000244141</ele>
        <time>2016-03-07T13:27:30.000Z</time>
      </trkpt>
      <trkpt lat="45.50396" lon="6.60769">
        <ele>1789</ele>
        <time>2016-03-07T13:27:31.000Z</time>
      </trkpt>
      <trkpt lat="45.50399" lon="6.60761">
        <ele>1787.5999755859</ele>
        <time>2016-03-07T13:27:32.000Z</time>
      </trkpt>
      <trkpt lat="45.50403" lon="6.60755">
        <ele>1786.4000244141</ele>
        <time>2016-03-07T13:27:33.000Z</time>
      </trkpt>
      <trkpt lat="45.50406" lon="6.60748">
        <ele>1785.4000244141</ele>
        <time>2016-03-07T13:27:34.000Z</time>
      </trkpt>
      <trkpt lat="45.50409" lon="6.60741">
        <ele>1784</ele>
        <time>2016-03-07T13:27:35.000Z</time>
      </trkpt>
      <trkpt lat="45.50412" lon="6.60734">
        <ele>1782.4000244141</ele>
        <time>2016-03-07T13:27:36.000Z</time>
      </trkpt>
      <trkpt lat="45.50415" lon="6.60727">
        <ele>1780.4000244141</ele>
        <time>2016-03-07T13:27:37.000Z</time>
      </trkpt>
      <trkpt lat="45.50418" lon="6.60719">
        <ele>1778.4000244141</ele>
        <time>2016-03-07T13:27:38.000Z</time>
      </trkpt>
      <trkpt lat="45.5042" lon="6.60712">
        <ele>1776.4000244141</ele>
        <time>2016-03-07T13:27:39.000Z</time>
      </trkpt>
      <trkpt lat="45.50423" lon="6.60705">
        <ele>1774.4000244141</ele>
        <time>2016-03-07T13:27:40.000Z</time>
      </trkpt>
      <trkpt lat="45.50427" lon="6.60697">
        <ele>1772.5999755859</ele>
        <time>2016-03-07T13:27:41.000Z</time>
      </trkpt>
      <trkpt lat="45.50431" lon="6.60691">
        <ele>1770.5999755859</ele>
        <time>2016-03-07T13:27:42.000Z</time>
      </trkpt>
      <trkpt lat="45.50436" lon="6.60685">
        <ele>1768.8000488281</ele>
        <time>2016-03-07T13:27:43.000Z</time>
      </trkpt>
      <trkpt lat="45.50442" lon="6.6068">
        <ele>1766.8000488281</ele>
        <time>2016-03-07T13:27:44.000Z</time>
      </trkpt>
      <trkpt lat="45.50447" lon="6.60675">
        <ele>1764.8000488281</ele>
        <time>2016-03-07T13:27:45.000Z</time>
      </trkpt>
      <trkpt lat="45.50453" lon="6.60672">
        <ele>1762.5999755859</ele>
        <time>2016-03-07T13:27:46.000Z</time>
      </trkpt>
      <trkpt lat="45.50459" lon="6.60671">
        <ele>1760.5999755859</ele>
        <time>2016-03-07T13:27:47.000Z</time>
      </trkpt>
      <trkpt lat="45.50466" lon="6.6067">
        <ele>1758.5999755859</ele>
        <time>2016-03-07T13:27:48.000Z</time>
      </trkpt>
      <trkpt lat="45.50471" lon="6.60668">
        <ele>1756.5999755859</ele>
        <time>2016-03-07T13:27:49.000Z</time>
      </trkpt>
      <trkpt lat="45.50476" lon="6.60667">
        <ele>1755</ele>
        <time>2016-03-07T13:27:50.000Z</time>
      </trkpt>
      <trkpt lat="45.5048" lon="6.60666">
        <ele>1752.1999511719</ele>
        <time>2016-03-07T13:27:51.000Z</time>
      </trkpt>
      <trkpt lat="45.50489" lon="6.60666">
        <ele>1750.5999755859</ele>
        <time>2016-03-07T13:27:53.000Z</time>
      </trkpt>
      <trkpt lat="45.50493" lon="6.60666">
        <ele>1750</ele>
        <time>2016-03-07T13:27:54.000Z</time>
      </trkpt>
      <trkpt lat="45.50496" lon="6.60661">
        <ele>1749.1999511719</ele>
        <time>2016-03-07T13:27:55.000Z</time>
      </trkpt>
      <trkpt lat="45.50503" lon="6.60655">
        <ele>1747.1999511719</ele>
        <time>2016-03-07T13:27:57.000Z</time>
      </trkpt>
      <trkpt lat="45.50507" lon="6.60651">
        <ele>1746.4000244141</ele>
        <time>2016-03-07T13:27:58.000Z</time>
      </trkpt>
      <trkpt lat="45.5051" lon="6.60647">
        <ele>1745.4000244141</ele>
        <time>2016-03-07T13:27:59.000Z</time>
      </trkpt>
      <trkpt lat="45.50514" lon="6.60643">
        <ele>1744.1999511719</ele>
        <time>2016-03-07T13:28:00.000Z</time>
      </trkpt>
      <trkpt lat="45.50517" lon="6.60639">
        <ele>1742.5999755859</ele>
        <time>2016-03-07T13:28:01.000Z</time>
      </trkpt>
      <trkpt lat="45.50521" lon="6.60638">
        <ele>1741</ele>
        <time>2016-03-07T13:28:02.000Z</time>
      </trkpt>
      <trkpt lat="45.50524" lon="6.60637">
        <ele>1739</ele>
        <time>2016-03-07T13:28:03.000Z</time>
      </trkpt>
      <trkpt lat="45.50527" lon="6.60633">
        <ele>1737.4000244141</ele>
        <time>2016-03-07T13:28:04.000Z</time>
      </trkpt>
      <trkpt lat="45.50527" lon="6.60627">
        <ele>1736.1999511719</ele>
        <time>2016-03-07T13:28:05.000Z</time>
      </trkpt>
      <trkpt lat="45.50527" lon="6.6062">
        <ele>1734.1999511719</ele>
        <time>2016-03-07T13:28:07.000Z</time>
      </trkpt>
      <trkpt lat="45.50528" lon="6.60617">
        <ele>1733.1999511719</ele>
        <time>2016-03-07T13:28:08.000Z</time>
      </trkpt>
      <trkpt lat="45.50528" lon="6.60615">
        <ele>1732</ele>
        <time>2016-03-07T13:28:09.000Z</time>
      </trkpt>
      <trkpt lat="45.50528" lon="6.60613">
        <ele>1730.5999755859</ele>
        <time>2016-03-07T13:28:10.000Z</time>
      </trkpt>
      <trkpt lat="45.50528" lon="6.60611">
        <ele>1729.4000244141</ele>
        <time>2016-03-07T13:28:11.000Z</time>
      </trkpt>
      <trkpt lat="45.50529" lon="6.60607">
        <ele>1728</ele>
        <time>2016-03-07T13:28:13.000Z</time>
      </trkpt>
      <trkpt lat="45.50529" lon="6.60608">
        <ele>1727.4000244141</ele>
        <time>2016-03-07T13:28:15.000Z</time>
      </trkpt>
      <trkpt lat="45.50531" lon="6.60606">
        <ele>1727.1999511719</ele>
        <time>2016-03-07T13:28:16.000Z</time>
      </trkpt>
      <trkpt lat="45.50533" lon="6.60605">
        <ele>1726.8000488281</ele>
        <time>2016-03-07T13:28:17.000Z</time>
      </trkpt>
      <trkpt lat="45.50533" lon="6.60601">
        <ele>1725.4000244141</ele>
        <time>2016-03-07T13:28:19.000Z</time>
      </trkpt>
      <trkpt lat="45.50535" lon="6.60593">
        <ele>1723.1999511719</ele>
        <time>2016-03-07T13:28:21.000Z</time>
      </trkpt>
      <trkpt lat="45.50536" lon="6.60596">
        <ele>1722</ele>
        <time>2016-03-07T13:28:22.000Z</time>
      </trkpt>
      <trkpt lat="45.50536" lon="6.60596">
        <ele>1720.5999755859</ele>
        <time>2016-03-07T13:28:23.000Z</time>
      </trkpt>
      <trkpt lat="45.50536" lon="6.60596">
        <ele>1719.1999511719</ele>
        <time>2016-03-07T13:28:24.000Z</time>
      </trkpt>
      <trkpt lat="45.50536" lon="6.60596">
        <ele>1718.1999511719</ele>
        <time>2016-03-07T13:28:25.000Z</time>
      </trkpt>
      <trkpt lat="45.50536" lon="6.606">
        <ele>1717</ele>
        <time>2016-03-07T13:28:27.000Z</time>
      </trkpt>
      <trkpt lat="45.50536" lon="6.60602">
        <ele>1716.5999755859</ele>
        <time>2016-03-07T13:28:29.000Z</time>
      </trkpt>
      <trkpt lat="45.5054" lon="6.60598">
        <ele>1716</ele>
        <time>2016-03-07T13:28:32.000Z</time>
      </trkpt>
      <trkpt lat="45.50542" lon="6.60597">
        <ele>1716</ele>
        <time>2016-03-07T13:28:33.000Z</time>
      </trkpt>
      <trkpt lat="45.50547" lon="6.60597">
        <ele>1714.8000488281</ele>
        <time>2016-03-07T13:28:37.000Z</time>
      </trkpt>
      <trkpt lat="45.50548" lon="6.60596">
        <ele>1714</ele>
        <time>2016-03-07T13:28:39.000Z</time>
      </trkpt>
      <trkpt lat="45.50547" lon="6.60595">
        <ele>1713.5999755859</ele>
        <time>2016-03-07T13:28:40.000Z</time>
      </trkpt>
      <trkpt lat="45.50545" lon="6.60594">
        <ele>1712.8000488281</ele>
        <time>2016-03-07T13:28:43.000Z</time>
      </trkpt>
      <trkpt lat="45.50545" lon="6.60594">
        <ele>1712.4000244141</ele>
        <time>2016-03-07T13:28:44.000Z</time>
      </trkpt>
      <trkpt lat="45.5054" lon="6.6059">
        <ele>1710.8000488281</ele>
        <time>2016-03-07T13:28:46.000Z</time>
      </trkpt>
      <trkpt lat="45.50536" lon="6.60588">
        <ele>1710.1999511719</ele>
        <time>2016-03-07T13:28:47.000Z</time>
      </trkpt>
      <trkpt lat="45.50532" lon="6.60587">
        <ele>1709.8000488281</ele>
        <time>2016-03-07T13:28:48.000Z</time>
      </trkpt>
      <trkpt lat="45.50525" lon="6.60585">
        <ele>1708.4000244141</ele>
        <time>2016-03-07T13:28:50.000Z</time>
      </trkpt>
      <trkpt lat="45.50522" lon="6.60585">
        <ele>1707.4000244141</ele>
        <time>2016-03-07T13:28:51.000Z</time>
      </trkpt>
      <trkpt lat="45.50521" lon="6.60585">
        <ele>1706.4000244141</ele>
        <time>2016-03-07T13:28:52.000Z</time>
      </trkpt>
      <trkpt lat="45.50517" lon="6.60583">
        <ele>1704.5999755859</ele>
        <time>2016-03-07T13:28:54.000Z</time>
      </trkpt>
      <trkpt lat="45.50515" lon="6.60582">
        <ele>1704</ele>
        <time>2016-03-07T13:28:55.000Z</time>
      </trkpt>
      <trkpt lat="45.50513" lon="6.60581">
        <ele>1703.1999511719</ele>
        <time>2016-03-07T13:28:56.000Z</time>
      </trkpt>
      <trkpt lat="45.50511" lon="6.60579">
        <ele>1701.8000488281</ele>
        <time>2016-03-07T13:28:58.000Z</time>
      </trkpt>
      <trkpt lat="45.5051" lon="6.6058">
        <ele>1701.4000244141</ele>
        <time>2016-03-07T13:28:59.000Z</time>
      </trkpt>
      <trkpt lat="45.50507" lon="6.60579">
        <ele>1700.8000488281</ele>
        <time>2016-03-07T13:29:01.000Z</time>
      </trkpt>
      <trkpt lat="45.50504" lon="6.60575">
        <ele>1699.5999755859</ele>
        <time>2016-03-07T13:29:04.000Z</time>
      </trkpt>
      <trkpt lat="45.50504" lon="6.60576">
        <ele>1698.4000244141</ele>
        <time>2016-03-07T13:29:06.000Z</time>
      </trkpt>
      <trkpt lat="45.50508" lon="6.60569">
        <ele>1697.5999755859</ele>
        <time>2016-03-07T13:29:07.000Z</time>
      </trkpt>
      <trkpt lat="45.5051" lon="6.60566">
        <ele>1696.8000488281</ele>
        <time>2016-03-07T13:29:08.000Z</time>
      </trkpt>
      <trkpt lat="45.50512" lon="6.60564">
        <ele>1695.4000244141</ele>
        <time>2016-03-07T13:29:10.000Z</time>
      </trkpt>
      <trkpt lat="45.50509" lon="6.60565">
        <ele>1693.1999511719</ele>
        <time>2016-03-07T13:29:12.000Z</time>
      </trkpt>
      <trkpt lat="45.50505" lon="6.60566">
        <ele>1691.8000488281</ele>
        <time>2016-03-07T13:29:13.000Z</time>
      </trkpt>
      <trkpt lat="45.50501" lon="6.60567">
        <ele>1690.5999755859</ele>
        <time>2016-03-07T13:29:14.000Z</time>
      </trkpt>
      <trkpt lat="45.50497" lon="6.60567">
        <ele>1689.8000488281</ele>
        <time>2016-03-07T13:29:15.000Z</time>
      </trkpt>
      <trkpt lat="45.50495" lon="6.60566">
        <ele>1689</ele>
        <time>2016-03-07T13:29:16.000Z</time>
      </trkpt>
      <trkpt lat="45.50495" lon="6.60565">
        <ele>1687.4000244141</ele>
        <time>2016-03-07T13:29:18.000Z</time>
      </trkpt>
      <trkpt lat="45.50496" lon="6.60565">
        <ele>1685.8000488281</ele>
        <time>2016-03-07T13:29:20.000Z</time>
      </trkpt>
      <trkpt lat="45.50496" lon="6.60565">
        <ele>1684.8000488281</ele>
        <time>2016-03-07T13:29:24.000Z</time>
      </trkpt>
      <trkpt lat="45.50496" lon="6.60565">
        <ele>1684.5999755859</ele>
        <time>2016-03-07T13:29:25.000Z</time>
      </trkpt>
      <trkpt lat="45.50495" lon="6.60562">
        <ele>1684.4000244141</ele>
        <time>2016-03-07T13:29:28.000Z</time>
      </trkpt>
      <trkpt lat="45.50494" lon="6.60558">
        <ele>1683.8000488281</ele>
        <time>2016-03-07T13:29:30.000Z</time>
      </trkpt>
      <trkpt lat="45.50498" lon="6.6055">
        <ele>1682.5999755859</ele>
        <time>2016-03-07T13:29:34.000Z</time>
      </trkpt>
      <trkpt lat="45.50501" lon="6.60547">
        <ele>1682.4000244141</ele>
        <time>2016-03-07T13:29:35.000Z</time>
      </trkpt>
      <trkpt lat="45.50508" lon="6.60543">
        <ele>1681.1999511719</ele>
        <time>2016-03-07T13:29:37.000Z</time>
      </trkpt>
      <trkpt lat="45.50511" lon="6.60541">
        <ele>1680.4000244141</ele>
        <time>2016-03-07T13:29:38.000Z</time>
      </trkpt>
      <trkpt lat="45.50513" lon="6.60539">
        <ele>1679.5999755859</ele>
        <time>2016-03-07T13:29:39.000Z</time>
      </trkpt>
      <trkpt lat="45.50518" lon="6.60535">
        <ele>1678.4000244141</ele>
        <time>2016-03-07T13:29:41.000Z</time>
      </trkpt>
      <trkpt lat="45.50524" lon="6.60531">
        <ele>1677.1999511719</ele>
        <time>2016-03-07T13:29:43.000Z</time>
      </trkpt>
      <trkpt lat="45.50532" lon="6.60528">
        <ele>1676.1999511719</ele>
        <time>2016-03-07T13:29:45.000Z</time>
      </trkpt>
      <trkpt lat="45.50535" lon="6.60526">
        <ele>1675.4000244141</ele>
        <time>2016-03-07T13:29:46.000Z</time>
      </trkpt>
      <trkpt lat="45.50539" lon="6.60525">
        <ele>1674.4000244141</ele>
        <time>2016-03-07T13:29:47.000Z</time>
      </trkpt>
      <trkpt lat="45.50542" lon="6.60524">
        <ele>1673.1999511719</ele>
        <time>2016-03-07T13:29:48.000Z</time>
      </trkpt>
      <trkpt lat="45.50543" lon="6.60526">
        <ele>1672.1999511719</ele>
        <time>2016-03-07T13:29:49.000Z</time>
      </trkpt>
      <trkpt lat="45.50545" lon="6.60527">
        <ele>1670.8000488281</ele>
        <time>2016-03-07T13:29:51.000Z</time>
      </trkpt>
      <trkpt lat="45.50547" lon="6.60526">
        <ele>1670.5999755859</ele>
        <time>2016-03-07T13:29:52.000Z</time>
      </trkpt>
      <trkpt lat="45.50554" lon="6.60523">
        <ele>1669.8000488281</ele>
        <time>2016-03-07T13:29:54.000Z</time>
      </trkpt>
      <trkpt lat="45.50565" lon="6.6052">
        <ele>1667.8000488281</ele>
        <time>2016-03-07T13:29:57.000Z</time>
      </trkpt>
      <trkpt lat="45.5057" lon="6.60518">
        <ele>1666.1999511719</ele>
        <time>2016-03-07T13:29:59.000Z</time>
      </trkpt>
      <trkpt lat="45.50573" lon="6.6052">
        <ele>1665</ele>
        <time>2016-03-07T13:30:02.000Z</time>
      </trkpt>
      <trkpt lat="45.50573" lon="6.60521">
        <ele>1664.8000488281</ele>
        <time>2016-03-07T13:30:03.000Z</time>
      </trkpt>
      <trkpt lat="45.50579" lon="6.6052">
        <ele>1663.8000488281</ele>
        <time>2016-03-07T13:30:06.000Z</time>
      </trkpt>
      <trkpt lat="45.50588" lon="6.60515">
        <ele>1662.8000488281</ele>
        <time>2016-03-07T13:30:10.000Z</time>
      </trkpt>
      <trkpt lat="45.50589" lon="6.60517">
        <ele>1661.4000244141</ele>
        <time>2016-03-07T13:30:12.000Z</time>
      </trkpt>
      <trkpt lat="45.50591" lon="6.60517">
        <ele>1660</ele>
        <time>2016-03-07T13:30:14.000Z</time>
      </trkpt>
      <trkpt lat="45.50594" lon="6.60514">
        <ele>1659.1999511719</ele>
        <time>2016-03-07T13:30:16.000Z</time>
      </trkpt>
      <trkpt lat="45.50595" lon="6.60513">
        <ele>1659</ele>
        <time>2016-03-07T13:30:17.000Z</time>
      </trkpt>
      <trkpt lat="45.50603" lon="6.60508">
        <ele>1657.8000488281</ele>
        <time>2016-03-07T13:30:21.000Z</time>
      </trkpt>
      <trkpt lat="45.50604" lon="6.60506">
        <ele>1657</ele>
        <time>2016-03-07T13:30:22.000Z</time>
      </trkpt>
      <trkpt lat="45.50603" lon="6.60504">
        <ele>1656</ele>
        <time>2016-03-07T13:30:23.000Z</time>
      </trkpt>
      <trkpt lat="45.50602" lon="6.60502">
        <ele>1654.8000488281</ele>
        <time>2016-03-07T13:30:24.000Z</time>
      </trkpt>
      <trkpt lat="45.50599" lon="6.605">
        <ele>1653.4000244141</ele>
        <time>2016-03-07T13:30:25.000Z</time>
      </trkpt>
      <trkpt lat="45.50592" lon="6.60496">
        <ele>1651.8000488281</ele>
        <time>2016-03-07T13:30:27.000Z</time>
      </trkpt>
      <trkpt lat="45.50582" lon="6.60496">
        <ele>1650.4000244141</ele>
        <time>2016-03-07T13:30:30.000Z</time>
      </trkpt>
      <trkpt lat="45.50579" lon="6.60496">
        <ele>1649.8000488281</ele>
        <time>2016-03-07T13:30:31.000Z</time>
      </trkpt>
      <trkpt lat="45.50576" lon="6.60495">
        <ele>1648.8000488281</ele>
        <time>2016-03-07T13:30:32.000Z</time>
      </trkpt>
      <trkpt lat="45.50569" lon="6.60493">
        <ele>1647</ele>
        <time>2016-03-07T13:30:34.000Z</time>
      </trkpt>
      <trkpt lat="45.50561" lon="6.60489">
        <ele>1645.5999755859</ele>
        <time>2016-03-07T13:30:36.000Z</time>
      </trkpt>
      <trkpt lat="45.50552" lon="6.60484">
        <ele>1644.4000244141</ele>
        <time>2016-03-07T13:30:38.000Z</time>
      </trkpt>
      <trkpt lat="45.50549" lon="6.60477">
        <ele>1643</ele>
        <time>2016-03-07T13:30:39.000Z</time>
      </trkpt>
      <trkpt lat="45.50547" lon="6.60473">
        <ele>1642.1999511719</ele>
        <time>2016-03-07T13:30:40.000Z</time>
      </trkpt>
      <trkpt lat="45.50546" lon="6.60469">
        <ele>1641.1999511719</ele>
        <time>2016-03-07T13:30:41.000Z</time>
      </trkpt>
      <trkpt lat="45.50546" lon="6.60464">
        <ele>1639.4000244141</ele>
        <time>2016-03-07T13:30:43.000Z</time>
      </trkpt>
      <trkpt lat="45.50547" lon="6.60463">
        <ele>1638.5999755859</ele>
        <time>2016-03-07T13:30:44.000Z</time>
      </trkpt>
      <trkpt lat="45.50549" lon="6.60464">
        <ele>1638.1999511719</ele>
        <time>2016-03-07T13:30:45.000Z</time>
      </trkpt>
      <trkpt lat="45.50551" lon="6.60464">
        <ele>1637.5999755859</ele>
        <time>2016-03-07T13:30:46.000Z</time>
      </trkpt>
      <trkpt lat="45.50556" lon="6.60465">
        <ele>1637</ele>
        <time>2016-03-07T13:30:48.000Z</time>
      </trkpt>
      <trkpt lat="45.50565" lon="6.60465">
        <ele>1635.5999755859</ele>
        <time>2016-03-07T13:30:51.000Z</time>
      </trkpt>
      <trkpt lat="45.50572" lon="6.60466">
        <ele>1635.1999511719</ele>
        <time>2016-03-07T13:30:52.000Z</time>
      </trkpt>
      <trkpt lat="45.50583" lon="6.60467">
        <ele>1634.1999511719</ele>
        <time>2016-03-07T13:30:54.000Z</time>
      </trkpt>
      <trkpt lat="45.50594" lon="6.60466">
        <ele>1633</ele>
        <time>2016-03-07T13:30:56.000Z</time>
      </trkpt>
      <trkpt lat="45.50605" lon="6.60464">
        <ele>1632.4000244141</ele>
        <time>2016-03-07T13:30:58.000Z</time>
      </trkpt>
      <trkpt lat="45.50611" lon="6.60464">
        <ele>1632</ele>
        <time>2016-03-07T13:30:59.000Z</time>
      </trkpt>
      <trkpt lat="45.50622" lon="6.60464">
        <ele>1630.8000488281</ele>
        <time>2016-03-07T13:31:01.000Z</time>
      </trkpt>
      <trkpt lat="45.50628" lon="6.60465">
        <ele>1628</ele>
        <time>2016-03-07T13:31:03.000Z</time>
      </trkpt>
      <trkpt lat="45.5063" lon="6.60465">
        <ele>1626.8000488281</ele>
        <time>2016-03-07T13:31:04.000Z</time>
      </trkpt>
      <trkpt lat="45.50633" lon="6.60467">
        <ele>1625.1999511719</ele>
        <time>2016-03-07T13:31:06.000Z</time>
      </trkpt>
      <trkpt lat="45.50636" lon="6.60466">
        <ele>1624.5999755859</ele>
        <time>2016-03-07T13:31:08.000Z</time>
      </trkpt>
      <trkpt lat="45.5064" lon="6.60465">
        <ele>1624</ele>
        <time>2016-03-07T13:31:10.000Z</time>
      </trkpt>
      <trkpt lat="45.50643" lon="6.60458">
        <ele>1623.4000244141</ele>
        <time>2016-03-07T13:31:12.000Z</time>
      </trkpt>
      <trkpt lat="45.50644" lon="6.60455">
        <ele>1623.1999511719</ele>
        <time>2016-03-07T13:31:13.000Z</time>
      </trkpt>
      <trkpt lat="45.50642" lon="6.60453">
        <ele>1622.5999755859</ele>
        <time>2016-03-07T13:31:14.000Z</time>
      </trkpt>
      <trkpt lat="45.50639" lon="6.60453">
        <ele>1621.4000244141</ele>
        <time>2016-03-07T13:31:15.000Z</time>
      </trkpt>
      <trkpt lat="45.50639" lon="6.60453">
        <ele>1619.5999755859</ele>
        <time>2016-03-07T13:31:16.000Z</time>
      </trkpt>
      <trkpt lat="45.50638" lon="6.60453">
        <ele>1618</ele>
        <time>2016-03-07T13:31:17.000Z</time>
      </trkpt>
      <trkpt lat="45.50638" lon="6.60452">
        <ele>1616.4000244141</ele>
        <time>2016-03-07T13:31:18.000Z</time>
      </trkpt>
      <trkpt lat="45.50638" lon="6.60451">
        <ele>1615.4000244141</ele>
        <time>2016-03-07T13:31:19.000Z</time>
      </trkpt>
      <trkpt lat="45.50638" lon="6.6045">
        <ele>1614.4000244141</ele>
        <time>2016-03-07T13:31:21.000Z</time>
      </trkpt>
      <trkpt lat="45.50637" lon="6.60447">
        <ele>1613.8000488281</ele>
        <time>2016-03-07T13:31:23.000Z</time>
      </trkpt>
      <trkpt lat="45.50636" lon="6.60442">
        <ele>1613.4000244141</ele>
        <time>2016-03-07T13:31:26.000Z</time>
      </trkpt>
      <trkpt lat="45.50635" lon="6.60442">
        <ele>1613</ele>
        <time>2016-03-07T13:31:27.000Z</time>
      </trkpt>
      <trkpt lat="45.50631" lon="6.60438">
        <ele>1612</ele>
        <time>2016-03-07T13:31:29.000Z</time>
      </trkpt>
      <trkpt lat="45.50628" lon="6.60436">
        <ele>1611.4000244141</ele>
        <time>2016-03-07T13:31:30.000Z</time>
      </trkpt>
      <trkpt lat="45.50622" lon="6.60432">
        <ele>1610.5999755859</ele>
        <time>2016-03-07T13:31:32.000Z</time>
      </trkpt>
      <trkpt lat="45.50619" lon="6.6043">
        <ele>1609.5999755859</ele>
        <time>2016-03-07T13:31:34.000Z</time>
      </trkpt>
      <trkpt lat="45.50619" lon="6.60427">
        <ele>1608.5999755859</ele>
        <time>2016-03-07T13:31:35.000Z</time>
      </trkpt>
      <trkpt lat="45.50618" lon="6.60426">
        <ele>1607.5999755859</ele>
        <time>2016-03-07T13:31:36.000Z</time>
      </trkpt>
      <trkpt lat="45.50615" lon="6.60421">
        <ele>1606</ele>
        <time>2016-03-07T13:31:38.000Z</time>
      </trkpt>
      <trkpt lat="45.50607" lon="6.60414">
        <ele>1604.8000488281</ele>
        <time>2016-03-07T13:31:41.000Z</time>
      </trkpt>
      <trkpt lat="45.50605" lon="6.60413">
        <ele>1603.8000488281</ele>
        <time>2016-03-07T13:31:43.000Z</time>
      </trkpt>
      <trkpt lat="45.50604" lon="6.60412">
        <ele>1602</ele>
        <time>2016-03-07T13:31:45.000Z</time>
      </trkpt>
      <trkpt lat="45.50602" lon="6.60408">
        <ele>1600.4000244141</ele>
        <time>2016-03-07T13:31:47.000Z</time>
      </trkpt>
      <trkpt lat="45.506" lon="6.60405">
        <ele>1599.4000244141</ele>
        <time>2016-03-07T13:31:49.000Z</time>
      </trkpt>
      <trkpt lat="45.50599" lon="6.60403">
        <ele>1598.8000488281</ele>
        <time>2016-03-07T13:31:50.000Z</time>
      </trkpt>
      <trkpt lat="45.50598" lon="6.60401">
        <ele>1597.4000244141</ele>
        <time>2016-03-07T13:31:51.000Z</time>
      </trkpt>
      <trkpt lat="45.50598" lon="6.60398">
        <ele>1596.4000244141</ele>
        <time>2016-03-07T13:31:53.000Z</time>
      </trkpt>
      <trkpt lat="45.50597" lon="6.60396">
        <ele>1596</ele>
        <time>2016-03-07T13:31:54.000Z</time>
      </trkpt>
      <trkpt lat="45.50595" lon="6.60393">
        <ele>1595.1999511719</ele>
        <time>2016-03-07T13:31:56.000Z</time>
      </trkpt>
      <trkpt lat="45.50591" lon="6.60387">
        <ele>1594.1999511719</ele>
        <time>2016-03-07T13:31:59.000Z</time>
      </trkpt>
      <trkpt lat="45.50586" lon="6.60384">
        <ele>1592.5999755859</ele>
        <time>2016-03-07T13:32:02.000Z</time>
      </trkpt>
      <trkpt lat="45.5058" lon="6.60382">
        <ele>1591.5999755859</ele>
        <time>2016-03-07T13:32:04.000Z</time>
      </trkpt>
      <trkpt lat="45.50575" lon="6.60376">
        <ele>1590.5999755859</ele>
        <time>2016-03-07T13:32:06.000Z</time>
      </trkpt>
      <trkpt lat="45.50574" lon="6.60373">
        <ele>1590</ele>
        <time>2016-03-07T13:32:07.000Z</time>
      </trkpt>
      <trkpt lat="45.50572" lon="6.60367">
        <ele>1588.8000488281</ele>
        <time>2016-03-07T13:32:09.000Z</time>
      </trkpt>
      <trkpt lat="45.50573" lon="6.6036">
        <ele>1587.1999511719</ele>
        <time>2016-03-07T13:32:11.000Z</time>
      </trkpt>
      <trkpt lat="45.50574" lon="6.60356">
        <ele>1586</ele>
        <time>2016-03-07T13:32:12.000Z</time>
      </trkpt>
      <trkpt lat="45.50573" lon="6.60353">
        <ele>1584.1999511719</ele>
        <time>2016-03-07T13:32:13.000Z</time>
      </trkpt>
      <trkpt lat="45.50575" lon="6.60353">
        <ele>1582.1999511719</ele>
        <time>2016-03-07T13:32:14.000Z</time>
      </trkpt>
      <trkpt lat="45.50576" lon="6.60352">
        <ele>1578.5999755859</ele>
        <time>2016-03-07T13:32:15.000Z</time>
      </trkpt>
      <trkpt lat="45.50576" lon="6.60352">
        <ele>1577.4000244141</ele>
        <time>2016-03-07T13:32:16.000Z</time>
      </trkpt>
      <trkpt lat="45.50577" lon="6.60352">
        <ele>1576.1999511719</ele>
        <time>2016-03-07T13:32:17.000Z</time>
      </trkpt>
      <trkpt lat="45.50578" lon="6.60352">
        <ele>1575.1999511719</ele>
        <time>2016-03-07T13:32:19.000Z</time>
      </trkpt>
      <trkpt lat="45.50578" lon="6.60347">
        <ele>1574.5999755859</ele>
        <time>2016-03-07T13:32:21.000Z</time>
      </trkpt>
      <trkpt lat="45.50578" lon="6.60343">
        <ele>1574.4000244141</ele>
        <time>2016-03-07T13:32:22.000Z</time>
      </trkpt>
      <trkpt lat="45.50579" lon="6.60341">
        <ele>1574.1999511719</ele>
        <time>2016-03-07T13:32:24.000Z</time>
      </trkpt>
      <trkpt lat="45.50579" lon="6.60343">
        <ele>1573</ele>
        <time>2016-03-07T13:32:28.000Z</time>
      </trkpt>
      <trkpt lat="45.50579" lon="6.60341">
        <ele>1572.4000244141</ele>
        <time>2016-03-07T13:32:30.000Z</time>
      </trkpt>
      <trkpt lat="45.50579" lon="6.6034">
        <ele>1571.8000488281</ele>
        <time>2016-03-07T13:32:32.000Z</time>
      </trkpt>
      <trkpt lat="45.5058" lon="6.6034">
        <ele>1571.4000244141</ele>
        <time>2016-03-07T13:32:35.000Z</time>
      </trkpt>
      <trkpt lat="45.50579" lon="6.60335">
        <ele>1570.8000488281</ele>
        <time>2016-03-07T13:32:37.000Z</time>
      </trkpt>
      <trkpt lat="45.50581" lon="6.60333">
        <ele>1570.4000244141</ele>
        <time>2016-03-07T13:32:38.000Z</time>
      </trkpt>
      <trkpt lat="45.50581" lon="6.60332">
        <ele>1569.4000244141</ele>
        <time>2016-03-07T13:32:39.000Z</time>
      </trkpt>
      <trkpt lat="45.50582" lon="6.60332">
        <ele>1568</ele>
        <time>2016-03-07T13:32:41.000Z</time>
      </trkpt>
      <trkpt lat="45.50582" lon="6.60332">
        <ele>1567</ele>
        <time>2016-03-07T13:32:44.000Z</time>
      </trkpt>
      <trkpt lat="45.50582" lon="6.60332">
        <ele>1567</ele>
        <time>2016-03-07T13:32:46.000Z</time>
      </trkpt>
      <trkpt lat="45.50582" lon="6.60332">
        <ele>1567.1999511719</ele>
        <time>2016-03-07T13:32:51.000Z</time>
      </trkpt>
      <trkpt lat="45.50583" lon="6.60326">
        <ele>1566.8000488281</ele>
        <time>2016-03-07T13:32:58.000Z</time>
      </trkpt>
      <trkpt lat="45.50584" lon="6.60322">
        <ele>1566.8000488281</ele>
        <time>2016-03-07T13:32:59.000Z</time>
      </trkpt>
      <trkpt lat="45.50587" lon="6.60316">
        <ele>1566.5999755859</ele>
        <time>2016-03-07T13:33:01.000Z</time>
      </trkpt>
      <trkpt lat="45.50589" lon="6.60309">
        <ele>1565.4000244141</ele>
        <time>2016-03-07T13:33:03.000Z</time>
      </trkpt>
      <trkpt lat="45.5059" lon="6.60305">
        <ele>1564.8000488281</ele>
        <time>2016-03-07T13:33:04.000Z</time>
      </trkpt>
      <trkpt lat="45.5059" lon="6.60301">
        <ele>1563.8000488281</ele>
        <time>2016-03-07T13:33:05.000Z</time>
      </trkpt>
      <trkpt lat="45.50589" lon="6.60298">
        <ele>1562.8000488281</ele>
        <time>2016-03-07T13:33:06.000Z</time>
      </trkpt>
      <trkpt lat="45.5059" lon="6.60295">
        <ele>1561.5999755859</ele>
        <time>2016-03-07T13:33:07.000Z</time>
      </trkpt>
      <trkpt lat="45.50591" lon="6.60292">
        <ele>1560.4000244141</ele>
        <time>2016-03-07T13:33:08.000Z</time>
      </trkpt>
      <trkpt lat="45.50592" lon="6.60287">
        <ele>1559.1999511719</ele>
        <time>2016-03-07T13:33:09.000Z</time>
      </trkpt>
      <trkpt lat="45.50595" lon="6.60283">
        <ele>1557.8000488281</ele>
        <time>2016-03-07T13:33:10.000Z</time>
      </trkpt>
      <trkpt lat="45.50599" lon="6.60284">
        <ele>1556.5999755859</ele>
        <time>2016-03-07T13:33:11.000Z</time>
      </trkpt>
      <trkpt lat="45.50601" lon="6.60284">
        <ele>1555.5999755859</ele>
        <time>2016-03-07T13:33:12.000Z</time>
      </trkpt>
      <trkpt lat="45.50605" lon="6.60283">
        <ele>1554.5999755859</ele>
        <time>2016-03-07T13:33:13.000Z</time>
      </trkpt>
      <trkpt lat="45.50605" lon="6.60282">
        <ele>1553.5999755859</ele>
        <time>2016-03-07T13:33:14.000Z</time>
      </trkpt>
      <trkpt lat="45.50605" lon="6.60279">
        <ele>1552.5999755859</ele>
        <time>2016-03-07T13:33:15.000Z</time>
      </trkpt>
      <trkpt lat="45.50604" lon="6.60275">
        <ele>1552</ele>
        <time>2016-03-07T13:33:16.000Z</time>
      </trkpt>
      <trkpt lat="45.50604" lon="6.60267">
        <ele>1550</ele>
        <time>2016-03-07T13:33:18.000Z</time>
      </trkpt>
      <trkpt lat="45.50604" lon="6.60263">
        <ele>1548.5999755859</ele>
        <time>2016-03-07T13:33:19.000Z</time>
      </trkpt>
      <trkpt lat="45.50604" lon="6.60257">
        <ele>1547</ele>
        <time>2016-03-07T13:33:20.000Z</time>
      </trkpt>
      <trkpt lat="45.50603" lon="6.6025">
        <ele>1545.8000488281</ele>
        <time>2016-03-07T13:33:21.000Z</time>
      </trkpt>
      <trkpt lat="45.50603" lon="6.60244">
        <ele>1544.4000244141</ele>
        <time>2016-03-07T13:33:22.000Z</time>
      </trkpt>
      <trkpt lat="45.50605" lon="6.60237">
        <ele>1543.1999511719</ele>
        <time>2016-03-07T13:33:23.000Z</time>
      </trkpt>
      <trkpt lat="45.50605" lon="6.60231">
        <ele>1541.8000488281</ele>
        <time>2016-03-07T13:33:24.000Z</time>
      </trkpt>
      <trkpt lat="45.50603" lon="6.60224">
        <ele>1540.4000244141</ele>
        <time>2016-03-07T13:33:25.000Z</time>
      </trkpt>
      <trkpt lat="45.50603" lon="6.60214">
        <ele>1538.8000488281</ele>
        <time>2016-03-07T13:33:26.000Z</time>
      </trkpt>
      <trkpt lat="45.50602" lon="6.60208">
        <ele>1535.5999755859</ele>
        <time>2016-03-07T13:33:27.000Z</time>
      </trkpt>
      <trkpt lat="45.50598" lon="6.60204">
        <ele>1534</ele>
        <time>2016-03-07T13:33:28.000Z</time>
      </trkpt>
      <trkpt lat="45.50595" lon="6.60198">
        <ele>1532.5999755859</ele>
        <time>2016-03-07T13:33:29.000Z</time>
      </trkpt>
      <trkpt lat="45.50595" lon="6.60191">
        <ele>1531</ele>
        <time>2016-03-07T13:33:30.000Z</time>
      </trkpt>
      <trkpt lat="45.50594" lon="6.60183">
        <ele>1529.1999511719</ele>
        <time>2016-03-07T13:33:31.000Z</time>
      </trkpt>
      <trkpt lat="45.50591" lon="6.60176">
        <ele>1527.4000244141</ele>
        <time>2016-03-07T13:33:32.000Z</time>
      </trkpt>
      <trkpt lat="45.50588" lon="6.6017">
        <ele>1526.1999511719</ele>
        <time>2016-03-07T13:33:33.000Z</time>
      </trkpt>
      <trkpt lat="45.50585" lon="6.60165">
        <ele>1525.1999511719</ele>
        <time>2016-03-07T13:33:34.000Z</time>
      </trkpt>
      <trkpt lat="45.50583" lon="6.60158">
        <ele>1523.8000488281</ele>
        <time>2016-03-07T13:33:35.000Z</time>
      </trkpt>
      <trkpt lat="45.50581" lon="6.60152">
        <ele>1522.1999511719</ele>
        <time>2016-03-07T13:33:36.000Z</time>
      </trkpt>
      <trkpt lat="45.50579" lon="6.60146">
        <ele>1520.8000488281</ele>
        <time>2016-03-07T13:33:37.000Z</time>
      </trkpt>
      <trkpt lat="45.50574" lon="6.60137">
        <ele>1519.1999511719</ele>
        <time>2016-03-07T13:33:39.000Z</time>
      </trkpt>
      <trkpt lat="45.50573" lon="6.60135">
        <ele>1517</ele>
        <time>2016-03-07T13:33:41.000Z</time>
      </trkpt>
      <trkpt lat="45.50573" lon="6.60135">
        <ele>1515.8000488281</ele>
        <time>2016-03-07T13:33:42.000Z</time>
      </trkpt>
      <trkpt lat="45.50573" lon="6.60135">
        <ele>1514.5999755859</ele>
        <time>2016-03-07T13:33:43.000Z</time>
      </trkpt>
      <trkpt lat="45.50573" lon="6.60136">
        <ele>1513.1999511719</ele>
        <time>2016-03-07T13:33:45.000Z</time>
      </trkpt>
      <trkpt lat="45.50575" lon="6.60138">
        <ele>1512.1999511719</ele>
        <time>2016-03-07T13:33:51.000Z</time>
      </trkpt>
      <trkpt lat="45.50575" lon="6.6014">
        <ele>1512.1999511719</ele>
        <time>2016-03-07T13:33:52.000Z</time>
      </trkpt>
      <trkpt lat="45.50575" lon="6.60143">
        <ele>1512.5999755859</ele>
        <time>2016-03-07T13:34:01.000Z</time>
      </trkpt>
      <trkpt lat="45.50577" lon="6.6014">
        <ele>1513</ele>
        <time>2016-03-07T13:34:06.000Z</time>
      </trkpt>
      <trkpt lat="45.50578" lon="6.60139">
        <ele>1512.8000488281</ele>
        <time>2016-03-07T13:34:07.000Z</time>
      </trkpt>
      <trkpt lat="45.50581" lon="6.60136">
        <ele>1512.1999511719</ele>
        <time>2016-03-07T13:34:12.000Z</time>
      </trkpt>
      <trkpt lat="45.50581" lon="6.60134">
        <ele>1512</ele>
        <time>2016-03-07T13:34:20.000Z</time>
      </trkpt>
      <trkpt lat="45.50581" lon="6.60134">
        <ele>1511.8000488281</ele>
        <time>2016-03-07T13:34:34.000Z</time>
      </trkpt>
      <trkpt lat="45.50581" lon="6.60134">
        <ele>1512</ele>
        <time>2016-03-07T13:34:48.000Z</time>
      </trkpt>
      <trkpt lat="45.50581" lon="6.60133">
        <ele>1511.4000244141</ele>
        <time>2016-03-07T13:34:59.000Z</time>
      </trkpt>
      <trkpt lat="45.50587" lon="6.60131">
        <ele>1511</ele>
        <time>2016-03-07T13:35:03.000Z</time>
      </trkpt>
      <trkpt lat="45.50592" lon="6.60127">
        <ele>1510.8000488281</ele>
        <time>2016-03-07T13:35:05.000Z</time>
      </trkpt>
      <trkpt lat="45.50597" lon="6.60126">
        <ele>1510.5999755859</ele>
        <time>2016-03-07T13:35:06.000Z</time>
      </trkpt>
      <trkpt lat="45.5061" lon="6.60124">
        <ele>1510.4000244141</ele>
        <time>2016-03-07T13:35:08.000Z</time>
      </trkpt>
      <trkpt lat="45.50616" lon="6.60123">
        <ele>1509.8000488281</ele>
        <time>2016-03-07T13:35:09.000Z</time>
      </trkpt>
      <trkpt lat="45.50624" lon="6.6012">
        <ele>1507.8000488281</ele>
        <time>2016-03-07T13:35:11.000Z</time>
      </trkpt>
      <trkpt lat="45.50627" lon="6.6012">
        <ele>1506.8000488281</ele>
        <time>2016-03-07T13:35:12.000Z</time>
      </trkpt>
      <trkpt lat="45.50631" lon="6.6012">
        <ele>1505.4000244141</ele>
        <time>2016-03-07T13:35:14.000Z</time>
      </trkpt>
      <trkpt lat="45.50632" lon="6.60118">
        <ele>1505</ele>
        <time>2016-03-07T13:35:16.000Z</time>
      </trkpt>
      <trkpt lat="45.50633" lon="6.60116">
        <ele>1504.5999755859</ele>
        <time>2016-03-07T13:35:21.000Z</time>
      </trkpt>
      <trkpt lat="45.50634" lon="6.60115">
        <ele>1504.4000244141</ele>
        <time>2016-03-07T13:35:24.000Z</time>
      </trkpt>
      <trkpt lat="45.50639" lon="6.60113">
        <ele>1504.4000244141</ele>
        <time>2016-03-07T13:35:28.000Z</time>
      </trkpt>
      <trkpt lat="45.5065" lon="6.60109">
        <ele>1503.5999755859</ele>
        <time>2016-03-07T13:35:37.000Z</time>
      </trkpt>
      <trkpt lat="45.50654" lon="6.60104">
        <ele>1503.4000244141</ele>
        <time>2016-03-07T13:35:38.000Z</time>
      </trkpt>
      <trkpt lat="45.50658" lon="6.601">
        <ele>1503.1999511719</ele>
        <time>2016-03-07T13:35:39.000Z</time>
      </trkpt>
      <trkpt lat="45.50661" lon="6.60095">
        <ele>1502.4000244141</ele>
        <time>2016-03-07T13:35:40.000Z</time>
      </trkpt>
      <trkpt lat="45.50662" lon="6.60089">
        <ele>1501.5999755859</ele>
        <time>2016-03-07T13:35:41.000Z</time>
      </trkpt>
      <trkpt lat="45.50664" lon="6.60083">
        <ele>1500.4000244141</ele>
        <time>2016-03-07T13:35:42.000Z</time>
      </trkpt>
      <trkpt lat="45.50667" lon="6.60078">
        <ele>1499.4000244141</ele>
        <time>2016-03-07T13:35:43.000Z</time>
      </trkpt>
      <trkpt lat="45.5067" lon="6.60072">
        <ele>1498.1999511719</ele>
        <time>2016-03-07T13:35:44.000Z</time>
      </trkpt>
      <trkpt lat="45.50673" lon="6.60068">
        <ele>1497</ele>
        <time>2016-03-07T13:35:45.000Z</time>
      </trkpt>
      <trkpt lat="45.50677" lon="6.60063">
        <ele>1495.4000244141</ele>
        <time>2016-03-07T13:35:46.000Z</time>
      </trkpt>
      <trkpt lat="45.5068" lon="6.60061">
        <ele>1494</ele>
        <time>2016-03-07T13:35:47.000Z</time>
      </trkpt>
      <trkpt lat="45.50684" lon="6.6006">
        <ele>1492.1999511719</ele>
        <time>2016-03-07T13:35:48.000Z</time>
      </trkpt>
      <trkpt lat="45.50688" lon="6.6006">
        <ele>1490.4000244141</ele>
        <time>2016-03-07T13:35:49.000Z</time>
      </trkpt>
      <trkpt lat="45.50692" lon="6.6006">
        <ele>1488.8000488281</ele>
        <time>2016-03-07T13:35:50.000Z</time>
      </trkpt>
      <trkpt lat="45.50696" lon="6.6006">
        <ele>1486</ele>
        <time>2016-03-07T13:35:51.000Z</time>
      </trkpt>
      <trkpt lat="45.507" lon="6.60061">
        <ele>1484.8000488281</ele>
        <time>2016-03-07T13:35:52.000Z</time>
      </trkpt>
      <trkpt lat="45.50703" lon="6.60061">
        <ele>1483.5999755859</ele>
        <time>2016-03-07T13:35:53.000Z</time>
      </trkpt>
      <trkpt lat="45.50706" lon="6.60063">
        <ele>1482.4000244141</ele>
        <time>2016-03-07T13:35:54.000Z</time>
      </trkpt>
      <trkpt lat="45.50709" lon="6.60064">
        <ele>1481.1999511719</ele>
        <time>2016-03-07T13:35:55.000Z</time>
      </trkpt>
      <trkpt lat="45.50714" lon="6.60069">
        <ele>1480.4000244141</ele>
        <time>2016-03-07T13:35:56.000Z</time>
      </trkpt>
      <trkpt lat="45.50719" lon="6.60074">
        <ele>1479.5999755859</ele>
        <time>2016-03-07T13:35:57.000Z</time>
      </trkpt>
      <trkpt lat="45.50728" lon="6.60083">
        <ele>1478.4000244141</ele>
        <time>2016-03-07T13:35:59.000Z</time>
      </trkpt>
      <trkpt lat="45.50742" lon="6.60102">
        <ele>1477</ele>
        <time>2016-03-07T13:36:02.000Z</time>
      </trkpt>
      <trkpt lat="45.50752" lon="6.60116">
        <ele>1475.8000488281</ele>
        <time>2016-03-07T13:36:04.000Z</time>
      </trkpt>
      <trkpt lat="45.50761" lon="6.60131">
        <ele>1474.8000488281</ele>
        <time>2016-03-07T13:36:06.000Z</time>
      </trkpt>
      <trkpt lat="45.50769" lon="6.60142">
        <ele>1473.5999755859</ele>
        <time>2016-03-07T13:36:08.000Z</time>
      </trkpt>
      <trkpt lat="45.50776" lon="6.60153">
        <ele>1473</ele>
        <time>2016-03-07T13:36:10.000Z</time>
      </trkpt>
      <trkpt lat="45.50782" lon="6.60162">
        <ele>1472.4000244141</ele>
        <time>2016-03-07T13:36:12.000Z</time>
      </trkpt>
      <trkpt lat="45.50789" lon="6.60175">
        <ele>1471</ele>
        <time>2016-03-07T13:36:15.000Z</time>
      </trkpt>
      <trkpt lat="45.50799" lon="6.60192">
        <ele>1470</ele>
        <time>2016-03-07T13:36:19.000Z</time>
      </trkpt>
      <trkpt lat="45.50804" lon="6.60196">
        <ele>1469.1999511719</ele>
        <time>2016-03-07T13:36:21.000Z</time>
      </trkpt>
      <trkpt lat="45.50807" lon="6.60198">
        <ele>1468.8000488281</ele>
        <time>2016-03-07T13:36:22.000Z</time>
      </trkpt>
      <trkpt lat="45.50815" lon="6.60204">
        <ele>1468.1999511719</ele>
        <time>2016-03-07T13:36:24.000Z</time>
      </trkpt>
      <trkpt lat="45.50825" lon="6.60213">
        <ele>1467.5999755859</ele>
        <time>2016-03-07T13:36:26.000Z</time>
      </trkpt>
      <trkpt lat="45.50831" lon="6.60219">
        <ele>1467</ele>
        <time>2016-03-07T13:36:27.000Z</time>
      </trkpt>
      <trkpt lat="45.50836" lon="6.60225">
        <ele>1466.4000244141</ele>
        <time>2016-03-07T13:36:28.000Z</time>
      </trkpt>
      <trkpt lat="45.50846" lon="6.60235">
        <ele>1464.8000488281</ele>
        <time>2016-03-07T13:36:30.000Z</time>
      </trkpt>
      <trkpt lat="45.50849" lon="6.6024">
        <ele>1463.8000488281</ele>
        <time>2016-03-07T13:36:31.000Z</time>
      </trkpt>
      <trkpt lat="45.50852" lon="6.60242">
        <ele>1463</ele>
        <time>2016-03-07T13:36:32.000Z</time>
      </trkpt>
      <trkpt lat="45.50853" lon="6.60243">
        <ele>1461.8000488281</ele>
        <time>2016-03-07T13:36:33.000Z</time>
      </trkpt>
      <trkpt lat="45.50853" lon="6.60243">
        <ele>1460.8000488281</ele>
        <time>2016-03-07T13:36:34.000Z</time>
      </trkpt>
      <trkpt lat="45.50853" lon="6.60243">
        <ele>1459.5999755859</ele>
        <time>2016-03-07T13:36:36.000Z</time>
      </trkpt>
      <trkpt lat="45.50853" lon="6.60243">
        <ele>1459.4000244141</ele>
        <time>2016-03-07T13:36:39.000Z</time>
      </trkpt>
      <trkpt lat="45.50853" lon="6.60244">
        <ele>1459.8000488281</ele>
        <time>2016-03-07T13:36:55.000Z</time>
      </trkpt>
      <trkpt lat="45.50851" lon="6.6024">
        <ele>1459.5999755859</ele>
        <time>2016-03-07T13:36:57.000Z</time>
      </trkpt>
      <trkpt lat="45.5085" lon="6.60236">
        <ele>1459.5999755859</ele>
        <time>2016-03-07T13:36:58.000Z</time>
      </trkpt>
      <trkpt lat="45.50844" lon="6.6022">
        <ele>1458.5999755859</ele>
        <time>2016-03-07T13:37:02.000Z</time>
      </trkpt>
      <trkpt lat="45.50839" lon="6.60212">
        <ele>1457.4000244141</ele>
        <time>2016-03-07T13:37:04.000Z</time>
      </trkpt>
      <trkpt lat="45.50836" lon="6.60208">
        <ele>1457</ele>
        <time>2016-03-07T13:37:05.000Z</time>
      </trkpt>
      <trkpt lat="45.5083" lon="6.602">
        <ele>1456.4000244141</ele>
        <time>2016-03-07T13:37:07.000Z</time>
      </trkpt>
      <trkpt lat="45.5082" lon="6.60189">
        <ele>1455</ele>
        <time>2016-03-07T13:37:10.000Z</time>
      </trkpt>
      <trkpt lat="45.50816" lon="6.60185">
        <ele>1454.5999755859</ele>
        <time>2016-03-07T13:37:11.000Z</time>
      </trkpt>
      <trkpt lat="45.50808" lon="6.60176">
        <ele>1453.8000488281</ele>
        <time>2016-03-07T13:37:13.000Z</time>
      </trkpt>
      <trkpt lat="45.50794" lon="6.6016">
        <ele>1453</ele>
        <time>2016-03-07T13:37:16.000Z</time>
      </trkpt>
      <trkpt lat="45.50791" lon="6.60154">
        <ele>1452.8000488281</ele>
        <time>2016-03-07T13:37:17.000Z</time>
      </trkpt>
      <trkpt lat="45.50787" lon="6.60147">
        <ele>1452.5999755859</ele>
        <time>2016-03-07T13:37:18.000Z</time>
      </trkpt>
      <trkpt lat="45.50782" lon="6.60131">
        <ele>1451.8000488281</ele>
        <time>2016-03-07T13:37:20.000Z</time>
      </trkpt>
      <trkpt lat="45.50778" lon="6.60125">
        <ele>1451.1999511719</ele>
        <time>2016-03-07T13:37:21.000Z</time>
      </trkpt>
      <trkpt lat="45.50773" lon="6.6011">
        <ele>1450</ele>
        <time>2016-03-07T13:37:23.000Z</time>
      </trkpt>
      <trkpt lat="45.50768" lon="6.60096">
        <ele>1448.5999755859</ele>
        <time>2016-03-07T13:37:25.000Z</time>
      </trkpt>
      <trkpt lat="45.50764" lon="6.6008">
        <ele>1447.1999511719</ele>
        <time>2016-03-07T13:37:27.000Z</time>
      </trkpt>
      <trkpt lat="45.5076" lon="6.60063">
        <ele>1446.1999511719</ele>
        <time>2016-03-07T13:37:29.000Z</time>
      </trkpt>
      <trkpt lat="45.50757" lon="6.60055">
        <ele>1445.8000488281</ele>
        <time>2016-03-07T13:37:30.000Z</time>
      </trkpt>
      <trkpt lat="45.50754" lon="6.60048">
        <ele>1445.1999511719</ele>
        <time>2016-03-07T13:37:31.000Z</time>
      </trkpt>
      <trkpt lat="45.50748" lon="6.60032">
        <ele>1444</ele>
        <time>2016-03-07T13:37:33.000Z</time>
      </trkpt>
      <trkpt lat="45.50742" lon="6.60018">
        <ele>1443</ele>
        <time>2016-03-07T13:37:35.000Z</time>
      </trkpt>
      <trkpt lat="45.50738" lon="6.60008">
        <ele>1441.4000244141</ele>
        <time>2016-03-07T13:37:37.000Z</time>
      </trkpt>
      <trkpt lat="45.50735" lon="6.59998">
        <ele>1440.1999511719</ele>
        <time>2016-03-07T13:37:39.000Z</time>
      </trkpt>
      <trkpt lat="45.50731" lon="6.59988">
        <ele>1439</ele>
        <time>2016-03-07T13:37:41.000Z</time>
      </trkpt>
      <trkpt lat="45.50724" lon="6.59971">
        <ele>1437.8000488281</ele>
        <time>2016-03-07T13:37:44.000Z</time>
      </trkpt>
      <trkpt lat="45.50719" lon="6.59959">
        <ele>1437</ele>
        <time>2016-03-07T13:37:46.000Z</time>
      </trkpt>
      <trkpt lat="45.50716" lon="6.59954">
        <ele>1436.4000244141</ele>
        <time>2016-03-07T13:37:47.000Z</time>
      </trkpt>
      <trkpt lat="45.50714" lon="6.59946">
        <ele>1435.1999511719</ele>
        <time>2016-03-07T13:37:50.000Z</time>
      </trkpt>
      <trkpt lat="45.50714" lon="6.59946">
        <ele>1434</ele>
        <time>2016-03-07T13:37:52.000Z</time>
      </trkpt>
      <trkpt lat="45.50717" lon="6.59942">
        <ele>1433.5999755859</ele>
        <time>2016-03-07T13:37:54.000Z</time>
      </trkpt>
      <trkpt lat="45.50721" lon="6.59938">
        <ele>1433.4000244141</ele>
        <time>2016-03-07T13:37:55.000Z</time>
      </trkpt>
      <trkpt lat="45.50727" lon="6.59936">
        <ele>1432.8000488281</ele>
        <time>2016-03-07T13:37:57.000Z</time>
      </trkpt>
      <trkpt lat="45.50728" lon="6.59936">
        <ele>1432.1999511719</ele>
        <time>2016-03-07T13:37:58.000Z</time>
      </trkpt>
      <trkpt lat="45.50728" lon="6.59936">
        <ele>1431.4000244141</ele>
        <time>2016-03-07T13:37:59.000Z</time>
      </trkpt>
      <trkpt lat="45.50728" lon="6.59937">
        <ele>1429.8000488281</ele>
        <time>2016-03-07T13:38:01.000Z</time>
      </trkpt>
      <trkpt lat="45.50729" lon="6.59936">
        <ele>1429.4000244141</ele>
        <time>2016-03-07T13:38:02.000Z</time>
      </trkpt>
      <trkpt lat="45.50729" lon="6.59932">
        <ele>1429</ele>
        <time>2016-03-07T13:38:03.000Z</time>
      </trkpt>
      <trkpt lat="45.50729" lon="6.5993">
        <ele>1428.8000488281</ele>
        <time>2016-03-07T13:38:04.000Z</time>
      </trkpt>
      <trkpt lat="45.5073" lon="6.59922">
        <ele>1428.4000244141</ele>
        <time>2016-03-07T13:38:06.000Z</time>
      </trkpt>
      <trkpt lat="45.50733" lon="6.5992">
        <ele>1428</ele>
        <time>2016-03-07T13:38:07.000Z</time>
      </trkpt>
      <trkpt lat="45.50735" lon="6.59921">
        <ele>1427.4000244141</ele>
        <time>2016-03-07T13:38:08.000Z</time>
      </trkpt>
      <trkpt lat="45.50738" lon="6.59922">
        <ele>1425.5999755859</ele>
        <time>2016-03-07T13:38:10.000Z</time>
      </trkpt>
      <trkpt lat="45.50738" lon="6.59922">
        <ele>1424.5999755859</ele>
        <time>2016-03-07T13:38:11.000Z</time>
      </trkpt>
      <trkpt lat="45.50738" lon="6.59922">
        <ele>1422.8000488281</ele>
        <time>2016-03-07T13:38:13.000Z</time>
      </trkpt>
      <trkpt lat="45.50738" lon="6.59922">
        <ele>1421.4000244141</ele>
        <time>2016-03-07T13:38:15.000Z</time>
      </trkpt>
      <trkpt lat="45.50739" lon="6.59919">
        <ele>1421</ele>
        <time>2016-03-07T13:38:21.000Z</time>
      </trkpt>
      <trkpt lat="45.5074" lon="6.59915">
        <ele>1421</ele>
        <time>2016-03-07T13:38:22.000Z</time>
      </trkpt>
      <trkpt lat="45.50745" lon="6.59911">
        <ele>1420.4000244141</ele>
        <time>2016-03-07T13:38:24.000Z</time>
      </trkpt>
      <trkpt lat="45.50746" lon="6.59907">
        <ele>1419.8000488281</ele>
        <time>2016-03-07T13:38:25.000Z</time>
      </trkpt>
      <trkpt lat="45.5075" lon="6.59901">
        <ele>1418</ele>
        <time>2016-03-07T13:38:27.000Z</time>
      </trkpt>
      <trkpt lat="45.50753" lon="6.59899">
        <ele>1416.5999755859</ele>
        <time>2016-03-07T13:38:28.000Z</time>
      </trkpt>
      <trkpt lat="45.50757" lon="6.59897">
        <ele>1415.4000244141</ele>
        <time>2016-03-07T13:38:29.000Z</time>
      </trkpt>
      <trkpt lat="45.5076" lon="6.59892">
        <ele>1414.1999511719</ele>
        <time>2016-03-07T13:38:30.000Z</time>
      </trkpt>
      <trkpt lat="45.50764" lon="6.59891">
        <ele>1413.1999511719</ele>
        <time>2016-03-07T13:38:31.000Z</time>
      </trkpt>
      <trkpt lat="45.50769" lon="6.59889">
        <ele>1411.8000488281</ele>
        <time>2016-03-07T13:38:32.000Z</time>
      </trkpt>
      <trkpt lat="45.50772" lon="6.59886">
        <ele>1410.1999511719</ele>
        <time>2016-03-07T13:38:33.000Z</time>
      </trkpt>
      <trkpt lat="45.50776" lon="6.59883">
        <ele>1408.5999755859</ele>
        <time>2016-03-07T13:38:34.000Z</time>
      </trkpt>
      <trkpt lat="45.5078" lon="6.59881">
        <ele>1407</ele>
        <time>2016-03-07T13:38:35.000Z</time>
      </trkpt>
      <trkpt lat="45.50783" lon="6.59878">
        <ele>1405.1999511719</ele>
        <time>2016-03-07T13:38:36.000Z</time>
      </trkpt>
      <trkpt lat="45.50784" lon="6.59873">
        <ele>1403.4000244141</ele>
        <time>2016-03-07T13:38:37.000Z</time>
      </trkpt>
      <trkpt lat="45.50786" lon="6.5987">
        <ele>1401.4000244141</ele>
        <time>2016-03-07T13:38:38.000Z</time>
      </trkpt>
      <trkpt lat="45.50788" lon="6.59864">
        <ele>1397.4000244141</ele>
        <time>2016-03-07T13:38:39.000Z</time>
      </trkpt>
      <trkpt lat="45.50791" lon="6.59861">
        <ele>1395.4000244141</ele>
        <time>2016-03-07T13:38:40.000Z</time>
      </trkpt>
      <trkpt lat="45.50794" lon="6.59858">
        <ele>1393.4000244141</ele>
        <time>2016-03-07T13:38:41.000Z</time>
      </trkpt>
      <trkpt lat="45.50798" lon="6.59858">
        <ele>1391.8000488281</ele>
        <time>2016-03-07T13:38:42.000Z</time>
      </trkpt>
      <trkpt lat="45.50803" lon="6.59861">
        <ele>1390.4000244141</ele>
        <time>2016-03-07T13:38:43.000Z</time>
      </trkpt>
      <trkpt lat="45.50807" lon="6.59863">
        <ele>1389.4000244141</ele>
        <time>2016-03-07T13:38:44.000Z</time>
      </trkpt>
      <trkpt lat="45.50807" lon="6.59862">
        <ele>1388.4000244141</ele>
        <time>2016-03-07T13:38:45.000Z</time>
      </trkpt>
      <trkpt lat="45.50807" lon="6.59862">
        <ele>1387.1999511719</ele>
        <time>2016-03-07T13:38:46.000Z</time>
      </trkpt>
      <trkpt lat="45.50807" lon="6.59862">
        <ele>1385.8000488281</ele>
        <time>2016-03-07T13:38:47.000Z</time>
      </trkpt>
      <trkpt lat="45.50807" lon="6.59862">
        <ele>1384.5999755859</ele>
        <time>2016-03-07T13:38:48.000Z</time>
      </trkpt>
      <trkpt lat="45.50807" lon="6.59862">
        <ele>1383.1999511719</ele>
        <time>2016-03-07T13:38:50.000Z</time>
      </trkpt>
      <trkpt lat="45.50807" lon="6.59862">
        <ele>1382.8000488281</ele>
        <time>2016-03-07T13:38:56.000Z</time>
      </trkpt>
      <trkpt lat="45.50807" lon="6.59862">
        <ele>1382.5999755859</ele>
        <time>2016-03-07T13:39:04.000Z</time>
      </trkpt>
      <trkpt lat="45.50813" lon="6.59864">
        <ele>1382</ele>
        <time>2016-03-07T13:39:07.000Z</time>
      </trkpt>
      <trkpt lat="45.50818" lon="6.59867">
        <ele>1381.8000488281</ele>
        <time>2016-03-07T13:39:08.000Z</time>
      </trkpt>
      <trkpt lat="45.50823" lon="6.59872">
        <ele>1381.5999755859</ele>
        <time>2016-03-07T13:39:09.000Z</time>
      </trkpt>
      <trkpt lat="45.50832" lon="6.59879">
        <ele>1381.1999511719</ele>
        <time>2016-03-07T13:39:11.000Z</time>
      </trkpt>
      <trkpt lat="45.50838" lon="6.59882">
        <ele>1380.5999755859</ele>
        <time>2016-03-07T13:39:12.000Z</time>
      </trkpt>
      <trkpt lat="45.50848" lon="6.59886">
        <ele>1378.8000488281</ele>
        <time>2016-03-07T13:39:14.000Z</time>
      </trkpt>
      <trkpt lat="45.50853" lon="6.59887">
        <ele>1377.8000488281</ele>
        <time>2016-03-07T13:39:15.000Z</time>
      </trkpt>
      <trkpt lat="45.50858" lon="6.59887">
        <ele>1376.8000488281</ele>
        <time>2016-03-07T13:39:16.000Z</time>
      </trkpt>
      <trkpt lat="45.5087" lon="6.59892">
        <ele>1374.8000488281</ele>
        <time>2016-03-07T13:39:18.000Z</time>
      </trkpt>
      <trkpt lat="45.50876" lon="6.59894">
        <ele>1373.8000488281</ele>
        <time>2016-03-07T13:39:19.000Z</time>
      </trkpt>
      <trkpt lat="45.50883" lon="6.59897">
        <ele>1372.8000488281</ele>
        <time>2016-03-07T13:39:20.000Z</time>
      </trkpt>
      <trkpt lat="45.50889" lon="6.59899">
        <ele>1371.5999755859</ele>
        <time>2016-03-07T13:39:21.000Z</time>
      </trkpt>
      <trkpt lat="45.50895" lon="6.59901">
        <ele>1370.4000244141</ele>
        <time>2016-03-07T13:39:22.000Z</time>
      </trkpt>
      <trkpt lat="45.50901" lon="6.59903">
        <ele>1369.1999511719</ele>
        <time>2016-03-07T13:39:23.000Z</time>
      </trkpt>
      <trkpt lat="45.50907" lon="6.59902">
        <ele>1368</ele>
        <time>2016-03-07T13:39:24.000Z</time>
      </trkpt>
      <trkpt lat="45.50911" lon="6.59899">
        <ele>1367</ele>
        <time>2016-03-07T13:39:25.000Z</time>
      </trkpt>
      <trkpt lat="45.50914" lon="6.59895">
        <ele>1365.8000488281</ele>
        <time>2016-03-07T13:39:26.000Z</time>
      </trkpt>
      <trkpt lat="45.50916" lon="6.59892">
        <ele>1364.4000244141</ele>
        <time>2016-03-07T13:39:27.000Z</time>
      </trkpt>
      <trkpt lat="45.50918" lon="6.5989">
        <ele>1361.4000244141</ele>
        <time>2016-03-07T13:39:28.000Z</time>
      </trkpt>
      <trkpt lat="45.50918" lon="6.5989">
        <ele>1360.1999511719</ele>
        <time>2016-03-07T13:39:29.000Z</time>
      </trkpt>
      <trkpt lat="45.50918" lon="6.5989">
        <ele>1358.5999755859</ele>
        <time>2016-03-07T13:39:31.000Z</time>
      </trkpt>
      <trkpt lat="45.50918" lon="6.5989">
        <ele>1357.5999755859</ele>
        <time>2016-03-07T13:39:36.000Z</time>
      </trkpt>
      <trkpt lat="45.50917" lon="6.59894">
        <ele>1357.5999755859</ele>
        <time>2016-03-07T13:39:38.000Z</time>
      </trkpt>
      <trkpt lat="45.50916" lon="6.59902">
        <ele>1357.5999755859</ele>
        <time>2016-03-07T13:39:42.000Z</time>
      </trkpt>
      <trkpt lat="45.5092" lon="6.59925">
        <ele>1356.8000488281</ele>
        <time>2016-03-07T13:39:50.000Z</time>
      </trkpt>
      <trkpt lat="45.50921" lon="6.59929">
        <ele>1356.5999755859</ele>
        <time>2016-03-07T13:39:51.000Z</time>
      </trkpt>
      <trkpt lat="45.50923" lon="6.59941">
        <ele>1355.4000244141</ele>
        <time>2016-03-07T13:39:56.000Z</time>
      </trkpt>
      <trkpt lat="45.50923" lon="6.59941">
        <ele>1354.8000488281</ele>
        <time>2016-03-07T13:40:04.000Z</time>
      </trkpt>
      <trkpt lat="45.50923" lon="6.59941">
        <ele>1355.1999511719</ele>
        <time>2016-03-07T13:40:19.000Z</time>
      </trkpt>
      <trkpt lat="45.50923" lon="6.59941">
        <ele>1354.8000488281</ele>
        <time>2016-03-07T13:40:31.000Z</time>
      </trkpt>
      <trkpt lat="45.50923" lon="6.59962">
        <ele>1354.4000244141</ele>
        <time>2016-03-07T13:40:39.000Z</time>
      </trkpt>
      <trkpt lat="45.50923" lon="6.59966">
        <ele>1354.4000244141</ele>
        <time>2016-03-07T13:40:40.000Z</time>
      </trkpt>
      <trkpt lat="45.50925" lon="6.59971">
        <ele>1354.1999511719</ele>
        <time>2016-03-07T13:40:42.000Z</time>
      </trkpt>
      <trkpt lat="45.50927" lon="6.59985">
        <ele>1353.8000488281</ele>
        <time>2016-03-07T13:40:46.000Z</time>
      </trkpt>
      <trkpt lat="45.50931" lon="6.59991">
        <ele>1353.4000244141</ele>
        <time>2016-03-07T13:40:48.000Z</time>
      </trkpt>
      <trkpt lat="45.50939" lon="6.60003">
        <ele>1352.8000488281</ele>
        <time>2016-03-07T13:40:52.000Z</time>
      </trkpt>
      <trkpt lat="45.50949" lon="6.60014">
        <ele>1352.1999511719</ele>
        <time>2016-03-07T13:40:56.000Z</time>
      </trkpt>
      <trkpt lat="45.50955" lon="6.6002">
        <ele>1351.8000488281</ele>
        <time>2016-03-07T13:40:58.000Z</time>
      </trkpt>
      <trkpt lat="45.50968" lon="6.60028">
        <ele>1351</ele>
        <time>2016-03-07T13:41:02.000Z</time>
      </trkpt>
      <trkpt lat="45.50976" lon="6.60034">
        <ele>1350</ele>
        <time>2016-03-07T13:41:05.000Z</time>
      </trkpt>
      <trkpt lat="45.5098" lon="6.60037">
        <ele>1349.5999755859</ele>
        <time>2016-03-07T13:41:06.000Z</time>
      </trkpt>
      <trkpt lat="45.50986" lon="6.60041">
        <ele>1348.8000488281</ele>
        <time>2016-03-07T13:41:08.000Z</time>
      </trkpt>
      <trkpt lat="45.50999" lon="6.60048">
        <ele>1347.5999755859</ele>
        <time>2016-03-07T13:41:11.000Z</time>
      </trkpt>
      <trkpt lat="45.51014" lon="6.60056">
        <ele>1346.4000244141</ele>
        <time>2016-03-07T13:41:14.000Z</time>
      </trkpt>
      <trkpt lat="45.51024" lon="6.60061">
        <ele>1345.4000244141</ele>
        <time>2016-03-07T13:41:16.000Z</time>
      </trkpt>
      <trkpt lat="45.51033" lon="6.60068">
        <ele>1344.1999511719</ele>
        <time>2016-03-07T13:41:18.000Z</time>
      </trkpt>
      <trkpt lat="45.51048" lon="6.60081">
        <ele>1342.8000488281</ele>
        <time>2016-03-07T13:41:21.000Z</time>
      </trkpt>
      <trkpt lat="45.51058" lon="6.60088">
        <ele>1341.5999755859</ele>
        <time>2016-03-07T13:41:23.000Z</time>
      </trkpt>
      <trkpt lat="45.5107" lon="6.60092">
        <ele>1340.4000244141</ele>
        <time>2016-03-07T13:41:25.000Z</time>
      </trkpt>
      <trkpt lat="45.51083" lon="6.60095">
        <ele>1339.1999511719</ele>
        <time>2016-03-07T13:41:27.000Z</time>
      </trkpt>
      <trkpt lat="45.5109" lon="6.60096">
        <ele>1338</ele>
        <time>2016-03-07T13:41:28.000Z</time>
      </trkpt>
      <trkpt lat="45.51108" lon="6.60094">
        <ele>1336.5999755859</ele>
        <time>2016-03-07T13:41:31.000Z</time>
      </trkpt>
      <trkpt lat="45.5112" lon="6.60093">
        <ele>1335.5999755859</ele>
        <time>2016-03-07T13:41:33.000Z</time>
      </trkpt>
      <trkpt lat="45.51127" lon="6.60093">
        <ele>1335.1999511719</ele>
        <time>2016-03-07T13:41:34.000Z</time>
      </trkpt>
      <trkpt lat="45.51133" lon="6.60092">
        <ele>1334.8000488281</ele>
        <time>2016-03-07T13:41:35.000Z</time>
      </trkpt>
      <trkpt lat="45.51145" lon="6.60086">
        <ele>1333.5999755859</ele>
        <time>2016-03-07T13:41:37.000Z</time>
      </trkpt>
      <trkpt lat="45.51156" lon="6.60078">
        <ele>1332.4000244141</ele>
        <time>2016-03-07T13:41:39.000Z</time>
      </trkpt>
      <trkpt lat="45.51161" lon="6.60073">
        <ele>1331.8000488281</ele>
        <time>2016-03-07T13:41:40.000Z</time>
      </trkpt>
      <trkpt lat="45.51172" lon="6.60063">
        <ele>1331.1999511719</ele>
        <time>2016-03-07T13:41:42.000Z</time>
      </trkpt>
      <trkpt lat="45.51185" lon="6.60046">
        <ele>1329.8000488281</ele>
        <time>2016-03-07T13:41:45.000Z</time>
      </trkpt>
      <trkpt lat="45.51191" lon="6.60037">
        <ele>1328.1999511719</ele>
        <time>2016-03-07T13:41:47.000Z</time>
      </trkpt>
      <trkpt lat="45.51195" lon="6.60033">
        <ele>1327.5999755859</ele>
        <time>2016-03-07T13:41:48.000Z</time>
      </trkpt>
      <trkpt lat="45.51198" lon="6.6003">
        <ele>1327</ele>
        <time>2016-03-07T13:41:49.000Z</time>
      </trkpt>
      <trkpt lat="45.51208" lon="6.60024">
        <ele>1326</ele>
        <time>2016-03-07T13:41:52.000Z</time>
      </trkpt>
      <trkpt lat="45.51212" lon="6.60023">
        <ele>1325.8000488281</ele>
        <time>2016-03-07T13:41:53.000Z</time>
      </trkpt>
      <trkpt lat="45.51224" lon="6.60017">
        <ele>1324.8000488281</ele>
        <time>2016-03-07T13:41:57.000Z</time>
      </trkpt>
      <trkpt lat="45.51237" lon="6.60013">
        <ele>1323.5999755859</ele>
        <time>2016-03-07T13:42:01.000Z</time>
      </trkpt>
      <trkpt lat="45.51249" lon="6.60006">
        <ele>1322.4000244141</ele>
        <time>2016-03-07T13:42:05.000Z</time>
      </trkpt>
      <trkpt lat="45.51265" lon="6.59996">
        <ele>1321.4000244141</ele>
        <time>2016-03-07T13:42:10.000Z</time>
      </trkpt>
      <trkpt lat="45.51283" lon="6.59979">
        <ele>1319.8000488281</ele>
        <time>2016-03-07T13:42:16.000Z</time>
      </trkpt>
      <trkpt lat="45.51287" lon="6.59971">
        <ele>1319.4000244141</ele>
        <time>2016-03-07T13:42:18.000Z</time>
      </trkpt>
      <trkpt lat="45.51291" lon="6.59959">
        <ele>1318.5999755859</ele>
        <time>2016-03-07T13:42:21.000Z</time>
      </trkpt>
      <trkpt lat="45.51294" lon="6.59944">
        <ele>1318</ele>
        <time>2016-03-07T13:42:24.000Z</time>
      </trkpt>
      <trkpt lat="45.51294" lon="6.59933">
        <ele>1317.5999755859</ele>
        <time>2016-03-07T13:42:26.000Z</time>
      </trkpt>
      <trkpt lat="45.51293" lon="6.59917">
        <ele>1316.4000244141</ele>
        <time>2016-03-07T13:42:29.000Z</time>
      </trkpt>
      <trkpt lat="45.51291" lon="6.59908">
        <ele>1316</ele>
        <time>2016-03-07T13:42:31.000Z</time>
      </trkpt>
      <trkpt lat="45.51289" lon="6.59892">
        <ele>1315.1999511719</ele>
        <time>2016-03-07T13:42:35.000Z</time>
      </trkpt>
      <trkpt lat="45.51289" lon="6.59886">
        <ele>1314.5999755859</ele>
        <time>2016-03-07T13:42:37.000Z</time>
      </trkpt>
      <trkpt lat="45.51289" lon="6.59881">
        <ele>1313.8000488281</ele>
        <time>2016-03-07T13:42:40.000Z</time>
      </trkpt>
      <trkpt lat="45.51291" lon="6.59877">
        <ele>1313.5999755859</ele>
        <time>2016-03-07T13:42:43.000Z</time>
      </trkpt>
      <trkpt lat="45.51295" lon="6.59869">
        <ele>1313.1999511719</ele>
        <time>2016-03-07T13:42:49.000Z</time>
      </trkpt>
      <trkpt lat="45.51296" lon="6.59868">
        <ele>1313.1999511719</ele>
        <time>2016-03-07T13:42:50.000Z</time>
      </trkpt>
      <trkpt lat="45.51302" lon="6.59863">
        <ele>1312.8000488281</ele>
        <time>2016-03-07T13:42:56.000Z</time>
      </trkpt>
      <trkpt lat="45.51304" lon="6.59863">
        <ele>1312.4000244141</ele>
        <time>2016-03-07T13:42:58.000Z</time>
      </trkpt>
      <trkpt lat="45.51313" lon="6.59862">
        <ele>1311.5999755859</ele>
        <time>2016-03-07T13:43:06.000Z</time>
      </trkpt>
      <trkpt lat="45.51315" lon="6.59862">
        <ele>1311.4000244141</ele>
        <time>2016-03-07T13:43:07.000Z</time>
      </trkpt>
      <trkpt lat="45.51324" lon="6.59857">
        <ele>1310.5999755859</ele>
        <time>2016-03-07T13:43:12.000Z</time>
      </trkpt>
      <trkpt lat="45.51326" lon="6.59856">
        <ele>1310.4000244141</ele>
        <time>2016-03-07T13:43:13.000Z</time>
      </trkpt>
      <trkpt lat="45.51336" lon="6.59848">
        <ele>1309.5999755859</ele>
        <time>2016-03-07T13:43:20.000Z</time>
      </trkpt>
      <trkpt lat="45.5134" lon="6.59844">
        <ele>1309.4000244141</ele>
        <time>2016-03-07T13:43:25.000Z</time>
      </trkpt>
      <trkpt lat="45.5134" lon="6.59843">
        <ele>1309</ele>
        <time>2016-03-07T13:43:28.000Z</time>
      </trkpt>
      <trkpt lat="45.5134" lon="6.59843">
        <ele>1308.8000488281</ele>
        <time>2016-03-07T13:43:40.000Z</time>
      </trkpt>
      <trkpt lat="45.5134" lon="6.59843">
        <ele>1309.1999511719</ele>
        <time>2016-03-07T13:43:53.000Z</time>
      </trkpt>
      <trkpt lat="45.5134" lon="6.59843">
        <ele>1309.4000244141</ele>
        <time>2016-03-07T13:44:02.000Z</time>
      </trkpt>
      <trkpt lat="45.51341" lon="6.5984">
        <ele>1309</ele>
        <time>2016-03-07T13:44:09.000Z</time>
      </trkpt>
      <trkpt lat="45.51341" lon="6.5984">
        <ele>1308.8000488281</ele>
        <time>2016-03-07T13:44:17.000Z</time>
      </trkpt>
      <trkpt lat="45.51341" lon="6.5984">
        <ele>1309</ele>
        <time>2016-03-07T13:44:28.000Z</time>
      </trkpt>
    </trkseg>
  </trk>
</gpx>